Data listing in reverse chronological order (most recent data at top)

       Date-Time(UTC)    Hawaiʻi-Standard-Time     Approximate-Local-Time     Latitude  Longitude  Course Speed Vessel
  YYYY-MM-DDThh:mm:ss    YYYY-MM-DDThh:mm:ss-10:00 YYYY-MM-DDThh:mm:ss∓HH:MM   degrees    degrees degrees knots 
  2021-12-06T23:18:31UTC 2021-12-06T13:18:31-10:00 2021-12-06T12:18:31-11:00  21.31315 -157.88860      43   0.0 Hōkūleʻa
  2021-12-06T23:10:17UTC 2021-12-06T13:10:17-10:00 2021-12-06T12:10:17-11:00  21.31317 -157.88866       0   0.0 Hikianalia
  2021-12-06T22:18:48UTC 2021-12-06T12:18:48-10:00 2021-12-06T11:18:48-11:00  21.31313 -157.88862      52   0.0 Hōkūleʻa
  2021-12-06T22:10:43UTC 2021-12-06T12:10:43-10:00 2021-12-06T11:10:43-11:00  21.31314 -157.88866     248   0.0 Hikianalia
  2021-12-06T21:27:33UTC 2021-12-06T11:27:33-10:00 2021-12-06T10:27:33-11:00  21.31310 -157.88866     223   0.0 Hōkūleʻa
  2021-12-06T21:10:17UTC 2021-12-06T11:10:17-10:00 2021-12-06T10:10:17-11:00  21.31318 -157.88858       0   0.0 Hikianalia
  2021-12-06T20:35:21UTC 2021-12-06T10:35:21-10:00 2021-12-06T09:35:21-11:00  21.31314 -157.88862       0   0.0 Hōkūleʻa
  2021-12-06T20:09:19UTC 2021-12-06T10:09:19-10:00 2021-12-06T09:09:19-11:00  21.31317 -157.88858      62   0.0 Hikianalia
  2021-12-06T19:18:25UTC 2021-12-06T09:18:25-10:00 2021-12-06T08:18:25-11:00  21.31312 -157.88862     180   0.0 Hōkūleʻa
  2021-12-06T19:10:37UTC 2021-12-06T09:10:37-10:00 2021-12-06T08:10:37-11:00  21.31312 -157.88866      80   0.0 Hikianalia
  2021-12-06T18:18:49UTC 2021-12-06T08:18:49-10:00 2021-12-06T07:18:49-11:00  21.31313 -157.88862     255   0.0 Hōkūleʻa
  2021-12-06T18:10:17UTC 2021-12-06T08:10:17-10:00 2021-12-06T07:10:17-11:00  21.31311 -157.88873     285   0.0 Hikianalia
  2021-12-06T17:18:35UTC 2021-12-06T07:18:35-10:00 2021-12-06T06:18:35-11:00  21.31314 -157.88858      43   0.0 Hōkūleʻa
  2021-12-06T17:10:09UTC 2021-12-06T07:10:09-10:00 2021-12-06T06:10:09-11:00  21.31310 -157.88868     212   0.0 Hikianalia
  2021-12-06T16:18:32UTC 2021-12-06T06:18:32-10:00 2021-12-06T05:18:32-11:00  21.31312 -157.88860      62   0.0 Hōkūleʻa
  2021-12-06T16:10:46UTC 2021-12-06T06:10:46-10:00 2021-12-06T05:10:46-11:00  21.31313 -157.88866     155   0.0 Hikianalia
  2021-12-06T15:18:30UTC 2021-12-06T05:18:30-10:00 2021-12-06T04:18:30-11:00  21.31311 -157.88862     180   0.0 Hōkūleʻa
  2021-12-06T15:10:19UTC 2021-12-06T05:10:19-10:00 2021-12-06T04:10:19-11:00  21.31318 -157.88868     347   0.0 Hikianalia
  2021-12-06T14:18:43UTC 2021-12-06T04:18:43-10:00 2021-12-06T03:18:43-11:00  21.31312 -157.88862       0   0.0 Hōkūleʻa
  2021-12-06T14:10:14UTC 2021-12-06T04:10:14-10:00 2021-12-06T03:10:14-11:00  21.31309 -157.88866     138   0.0 Hikianalia
  2021-12-06T13:18:26UTC 2021-12-06T03:18:26-10:00 2021-12-06T02:18:26-11:00  21.31312 -157.88862       0   0.0 Hōkūleʻa
  2021-12-06T13:10:13UTC 2021-12-06T03:10:13-10:00 2021-12-06T02:10:13-11:00  21.31311 -157.88868     270   0.0 Hikianalia
  2021-12-06T12:19:31UTC 2021-12-06T02:19:31-10:00 2021-12-06T01:19:31-11:00  21.31312 -157.88862     180   0.0 Hōkūleʻa
  2021-12-06T12:10:43UTC 2021-12-06T02:10:43-10:00 2021-12-06T01:10:43-11:00  21.31311 -157.88866     180   0.0 Hikianalia
  2021-12-06T11:18:40UTC 2021-12-06T01:18:40-10:00 2021-12-06T00:18:40-11:00  21.31313 -157.88862       0   0.0 Hōkūleʻa
  2021-12-06T11:10:18UTC 2021-12-06T01:10:18-10:00 2021-12-06T00:10:18-11:00  21.31314 -157.88866     270   0.0 Hikianalia
  2021-12-06T10:18:55UTC 2021-12-06T00:18:55-10:00 2021-12-05T23:18:55-11:00  21.31311 -157.88862     251   0.0 Hōkūleʻa
  2021-12-06T10:10:19UTC 2021-12-06T00:10:19-10:00 2021-12-05T23:10:19-11:00  21.31314 -157.88864      43   0.0 Hikianalia
  2021-12-06T09:18:38UTC 2021-12-05T23:18:38-10:00 2021-12-05T22:18:38-11:00  21.31313 -157.88856      90   0.0 Hōkūleʻa
  2021-12-06T09:10:38UTC 2021-12-05T23:10:38-10:00 2021-12-05T22:10:38-11:00  21.31310 -157.88868     299   0.0 Hikianalia
  2021-12-06T08:18:37UTC 2021-12-05T22:18:37-10:00 2021-12-05T21:18:37-11:00  21.31313 -157.88862       0   0.0 Hōkūleʻa
  2021-12-06T08:10:17UTC 2021-12-05T22:10:17-10:00 2021-12-05T21:10:17-11:00  21.31309 -157.88866     180   0.0 Hikianalia
  2021-12-06T07:19:33UTC 2021-12-05T21:19:33-10:00 2021-12-05T20:19:33-11:00  21.31311 -157.88862     180   0.0 Hōkūleʻa
  2021-12-06T07:10:12UTC 2021-12-05T21:10:12-10:00 2021-12-05T20:10:12-11:00  21.31311 -157.88866     180   0.0 Hikianalia
  2021-12-06T06:19:03UTC 2021-12-05T20:19:03-10:00 2021-12-05T19:19:03-11:00  21.31313 -157.88862     308   0.0 Hōkūleʻa
  2021-12-06T06:10:46UTC 2021-12-05T20:10:46-10:00 2021-12-05T19:10:46-11:00  21.31312 -157.88866       0   0.0 Hikianalia
  2021-12-06T05:18:37UTC 2021-12-05T19:18:37-10:00 2021-12-05T18:18:37-11:00  21.31310 -157.88858      75   0.0 Hōkūleʻa
  2021-12-06T05:10:43UTC 2021-12-05T19:10:43-10:00 2021-12-05T18:10:43-11:00  21.31312 -157.88866     244   0.0 Hikianalia
  2021-12-06T04:17:32UTC 2021-12-05T18:17:32-10:00 2021-12-05T17:17:32-11:00  21.31309 -157.88862     180   0.0 Hōkūleʻa
  2021-12-06T04:16:23UTC 2021-12-05T18:16:23-10:00 2021-12-05T17:16:23-11:00  21.31313 -157.88864     110   0.0 Hikianalia
  2021-12-06T03:18:24UTC 2021-12-05T17:18:24-10:00 2021-12-05T16:18:24-11:00  21.31315 -157.88862       0   0.0 Hōkūleʻa
  2021-12-06T03:10:09UTC 2021-12-05T17:10:09-10:00 2021-12-05T16:10:09-11:00  21.31315 -157.88871     299   0.0 Hikianalia
  2021-12-06T02:18:45UTC 2021-12-05T16:18:45-10:00 2021-12-05T15:18:45-11:00  21.31313 -157.88862     219   0.0 Hōkūleʻa
  2021-12-06T02:10:43UTC 2021-12-05T16:10:43-10:00 2021-12-05T15:10:43-11:00  21.31313 -157.88866     145   0.0 Hikianalia
  2021-12-06T01:17:35UTC 2021-12-05T15:17:35-10:00 2021-12-05T14:17:35-11:00  21.31321 -157.88856      32   0.0 Hōkūleʻa
  2021-12-06T01:10:14UTC 2021-12-05T15:10:14-10:00 2021-12-05T14:10:14-11:00  21.31330 -157.88879     290   0.0 Hikianalia
  2021-12-06T00:18:25UTC 2021-12-05T14:18:25-10:00 2021-12-05T13:18:25-11:00  21.31318 -157.88858      32   0.0 Hōkūleʻa
  2021-12-06T00:09:17UTC 2021-12-05T14:09:17-10:00 2021-12-05T13:09:17-11:00  21.31326 -157.88866       0   0.0 Hikianalia
  2021-12-05T23:18:29UTC 2021-12-05T13:18:29-10:00 2021-12-05T12:18:29-11:00  21.31311 -157.88862     180   0.0 Hōkūleʻa
  2021-12-05T23:10:09UTC 2021-12-05T13:10:09-10:00 2021-12-05T12:10:09-11:00  21.31312 -157.88866     137   0.0 Hikianalia
  2021-12-05T22:17:50UTC 2021-12-05T12:17:50-10:00 2021-12-05T11:17:50-11:00  21.31315 -157.88862      61   0.0 Hōkūleʻa
  2021-12-05T22:09:45UTC 2021-12-05T12:09:45-10:00 2021-12-05T11:09:45-11:00  21.31314 -157.88868     180   0.0 Hikianalia
  2021-12-05T21:18:36UTC 2021-12-05T11:18:36-10:00 2021-12-05T10:18:36-11:00  21.31313 -157.88866     250   0.0 Hōkūleʻa
  2021-12-05T21:10:18UTC 2021-12-05T11:10:18-10:00 2021-12-05T10:10:18-11:00  21.31315 -157.88868     299   0.0 Hikianalia
  2021-12-05T20:18:30UTC 2021-12-05T10:18:30-10:00 2021-12-05T09:18:30-11:00  21.31315 -157.88860      33   0.0 Hōkūleʻa
  2021-12-05T20:10:09UTC 2021-12-05T10:10:09-10:00 2021-12-05T09:10:09-11:00  21.31313 -157.88864     119   0.0 Hikianalia
  2021-12-05T19:17:24UTC 2021-12-05T09:17:24-10:00 2021-12-05T08:17:24-11:00  21.31312 -157.88862     180   0.0 Hōkūleʻa
  2021-12-05T19:10:18UTC 2021-12-05T09:10:18-10:00 2021-12-05T08:10:18-11:00  21.31315 -157.88868     328   0.0 Hikianalia
  2021-12-05T18:18:41UTC 2021-12-05T08:18:41-10:00 2021-12-05T07:18:41-11:00  21.31313 -157.88862       0   0.0 Hōkūleʻa
  2021-12-05T18:09:44UTC 2021-12-05T08:09:44-10:00 2021-12-05T07:09:44-11:00  21.31312 -157.88866     303   0.0 Hikianalia
  2021-12-05T17:18:35UTC 2021-12-05T07:18:35-10:00 2021-12-05T06:18:35-11:00  21.31312 -157.88862     117   0.0 Hōkūleʻa
  2021-12-05T17:10:09UTC 2021-12-05T07:10:09-10:00 2021-12-05T06:10:09-11:00  21.31306 -157.88856     133   0.0 Hikianalia
  2021-12-05T16:18:25UTC 2021-12-05T06:18:25-10:00 2021-12-05T05:18:25-11:00  21.31313 -157.88864     297   0.0 Hōkūleʻa
  2021-12-05T16:10:20UTC 2021-12-05T06:10:20-10:00 2021-12-05T05:10:20-11:00  21.31313 -157.88864     345   0.0 Hikianalia
  2021-12-05T15:18:25UTC 2021-12-05T05:18:25-10:00 2021-12-05T04:18:25-11:00  21.31312 -157.88862       0   0.0 Hōkūleʻa
  2021-12-05T15:10:18UTC 2021-12-05T05:10:18-10:00 2021-12-05T04:10:18-11:00  21.31306 -157.88862     169   0.0 Hikianalia
  2021-12-05T14:18:49UTC 2021-12-05T04:18:49-10:00 2021-12-05T03:18:49-11:00  21.31312 -157.88862     288   0.0 Hōkūleʻa
  2021-12-05T14:10:36UTC 2021-12-05T04:10:36-10:00 2021-12-05T03:10:36-11:00  21.31315 -157.88864     347   0.0 Hikianalia
  2021-12-05T13:18:34UTC 2021-12-05T03:18:34-10:00 2021-12-05T02:18:34-11:00  21.31309 -157.88851     108   0.0 Hōkūleʻa
  2021-12-05T13:09:06UTC 2021-12-05T03:09:06-10:00 2021-12-05T02:09:06-11:00  21.31307 -157.88862     152   0.0 Hikianalia
  2021-12-05T12:18:33UTC 2021-12-05T02:18:33-10:00 2021-12-05T01:18:33-11:00  21.31312 -157.88862       0   0.0 Hōkūleʻa
  2021-12-05T12:10:09UTC 2021-12-05T02:10:09-10:00 2021-12-05T01:10:09-11:00  21.31314 -157.88866       0   0.0 Hikianalia
  2021-12-05T11:18:32UTC 2021-12-05T01:18:32-10:00 2021-12-05T00:18:32-11:00  21.31311 -157.88862     180   0.0 Hōkūleʻa
  2021-12-05T11:10:14UTC 2021-12-05T01:10:14-10:00 2021-12-05T00:10:14-11:00  21.31313 -157.88866       0   0.0 Hikianalia
  2021-12-05T10:18:42UTC 2021-12-05T00:18:42-10:00 2021-12-04T23:18:42-11:00  21.31312 -157.88862      57   0.0 Hōkūleʻa
  2021-12-05T10:10:46UTC 2021-12-05T00:10:46-10:00 2021-12-04T23:10:46-11:00  21.31311 -157.88866      61   0.0 Hikianalia
  2021-12-05T09:18:29UTC 2021-12-04T23:18:29-10:00 2021-12-04T22:18:29-11:00  21.31306 -157.88873     242   0.0 Hōkūleʻa
  2021-12-05T09:10:46UTC 2021-12-04T23:10:46-10:00 2021-12-04T22:10:46-11:00  21.31310 -157.88868     180   0.0 Hikianalia
  2021-12-05T08:18:30UTC 2021-12-04T22:18:30-10:00 2021-12-04T21:18:30-11:00  21.31311 -157.88862     251   0.0 Hōkūleʻa
  2021-12-05T08:10:08UTC 2021-12-04T22:10:08-10:00 2021-12-04T21:10:08-11:00  21.31311 -157.88868      90   0.0 Hikianalia
  2021-12-05T07:18:32UTC 2021-12-04T21:18:32-10:00 2021-12-04T20:18:32-11:00  21.31313 -157.88856      81   0.0 Hōkūleʻa
  2021-12-05T07:10:15UTC 2021-12-04T21:10:15-10:00 2021-12-04T20:10:15-11:00  21.31311 -157.88873     270   0.0 Hikianalia
  2021-12-05T06:18:17UTC 2021-12-04T20:18:17-10:00 2021-12-04T19:18:17-11:00  21.31311 -157.88866       0   0.0 Hikianalia
  2021-12-05T06:17:46UTC 2021-12-04T20:17:46-10:00 2021-12-04T19:17:46-11:00  21.31312 -157.88862       0   0.0 Hōkūleʻa
  2021-12-05T05:18:22UTC 2021-12-04T19:18:22-10:00 2021-12-04T18:18:22-11:00  21.31311 -157.88862     180   0.0 Hōkūleʻa
  2021-12-05T05:10:35UTC 2021-12-04T19:10:35-10:00 2021-12-04T18:10:35-11:00  21.31311 -157.88866      32   0.0 Hikianalia
  2021-12-05T04:34:51UTC 2021-12-04T18:34:51-10:00 2021-12-04T17:34:51-11:00  21.31312 -157.88862     180   0.0 Hōkūleʻa
  2021-12-05T04:10:13UTC 2021-12-04T18:10:13-10:00 2021-12-04T17:10:13-11:00  21.31308 -157.88868     189   0.0 Hikianalia
  2021-12-05T03:18:33UTC 2021-12-04T17:18:33-10:00 2021-12-04T16:18:33-11:00  21.31318 -157.88862     255   0.0 Hōkūleʻa
  2021-12-05T03:18:20UTC 2021-12-04T17:18:20-10:00 2021-12-04T16:18:20-11:00  21.31320 -157.88866     298   0.0 Hikianalia
  2021-12-05T02:18:39UTC 2021-12-04T16:18:39-10:00 2021-12-04T15:18:39-11:00  21.31319 -157.88858     118   0.0 Hōkūleʻa
  2021-12-05T02:09:46UTC 2021-12-04T16:09:46-10:00 2021-12-04T15:09:46-11:00  21.31319 -157.88864     318   0.0 Hikianalia
  2021-12-05T01:17:36UTC 2021-12-04T15:17:36-10:00 2021-12-04T14:17:36-11:00  21.31321 -157.88862     339   0.0 Hōkūleʻa
  2021-12-05T01:10:13UTC 2021-12-04T15:10:13-10:00 2021-12-04T14:10:13-11:00  21.31317 -157.88862      52   0.0 Hikianalia
  2021-12-05T00:18:24UTC 2021-12-04T14:18:24-10:00 2021-12-04T13:18:24-11:00  21.31315 -157.88860     270   0.0 Hōkūleʻa
  2021-12-05T00:09:47UTC 2021-12-04T14:09:47-10:00 2021-12-04T13:09:47-11:00  21.31313 -157.88866     288   0.0 Hikianalia
  2021-12-04T23:17:21UTC 2021-12-04T13:17:21-10:00 2021-12-04T12:17:21-11:00  21.31315 -157.88858     104   0.0 Hōkūleʻa
  2021-12-04T23:10:09UTC 2021-12-04T13:10:09-10:00 2021-12-04T12:10:09-11:00  21.31310 -157.88856     122   0.0 Hikianalia
  2021-12-04T22:18:59UTC 2021-12-04T12:18:59-10:00 2021-12-04T11:18:59-11:00  21.31317 -157.88862       0   0.0 Hōkūleʻa
  2021-12-04T22:09:23UTC 2021-12-04T12:09:23-10:00 2021-12-04T11:09:23-11:00  21.31318 -157.88868     335   0.0 Hikianalia
  2021-12-04T21:17:35UTC 2021-12-04T11:17:35-10:00 2021-12-04T10:17:35-11:00  21.31312 -157.88862       0   0.0 Hōkūleʻa
  2021-12-04T21:09:37UTC 2021-12-04T11:09:37-10:00 2021-12-04T10:09:37-11:00  21.31313 -157.88866      20   0.0 Hikianalia
  2021-12-04T20:18:23UTC 2021-12-04T10:18:23-10:00 2021-12-04T09:18:23-11:00  21.31311 -157.88862     105   0.0 Hōkūleʻa
  2021-12-04T20:10:17UTC 2021-12-04T10:10:17-10:00 2021-12-04T09:10:17-11:00  21.31308 -157.88868     137   0.0 Hikianalia
  2021-12-04T19:18:32UTC 2021-12-04T09:18:32-10:00 2021-12-04T08:18:32-11:00  21.31312 -157.88866     256   0.0 Hōkūleʻa
  2021-12-04T19:10:12UTC 2021-12-04T09:10:12-10:00 2021-12-04T08:10:12-11:00  21.31312 -157.88873     285   0.0 Hikianalia
  2021-12-04T18:17:40UTC 2021-12-04T08:17:40-10:00 2021-12-04T07:17:40-11:00  21.31313 -157.88862     294   0.0 Hōkūleʻa
  2021-12-04T18:09:46UTC 2021-12-04T08:09:46-10:00 2021-12-04T07:09:46-11:00  21.31311 -157.88868     159   0.0 Hikianalia
  2021-12-04T17:18:30UTC 2021-12-04T07:18:30-10:00 2021-12-04T06:18:30-11:00  21.31308 -157.88849     118   0.0 Hōkūleʻa
  2021-12-04T17:10:10UTC 2021-12-04T07:10:10-10:00 2021-12-04T06:10:10-11:00  21.31322 -157.88873       0   0.0 Hikianalia
  2021-12-04T16:18:25UTC 2021-12-04T06:18:25-10:00 2021-12-04T05:18:25-11:00  21.31311 -157.88856      80   0.0 Hōkūleʻa
  2021-12-04T16:10:07UTC 2021-12-04T06:10:07-10:00 2021-12-04T05:10:07-11:00  21.31312 -157.88873     306   0.0 Hikianalia
  2021-12-04T15:18:29UTC 2021-12-04T05:18:29-10:00 2021-12-04T04:18:29-11:00  21.31310 -157.88862     180   0.0 Hōkūleʻa
  2021-12-04T15:10:17UTC 2021-12-04T05:10:17-10:00 2021-12-04T04:10:17-11:00  21.31308 -157.88866     180   0.0 Hikianalia
  2021-12-04T14:18:38UTC 2021-12-04T04:18:38-10:00 2021-12-04T03:18:38-11:00  21.31311 -157.88862     119   0.0 Hōkūleʻa
  2021-12-04T14:10:44UTC 2021-12-04T04:10:44-10:00 2021-12-04T03:10:44-11:00  21.31311 -157.88866     119   0.0 Hikianalia
  2021-12-04T13:17:35UTC 2021-12-04T03:17:35-10:00 2021-12-04T02:17:35-11:00  21.31312 -157.88864     243   0.0 Hōkūleʻa
  2021-12-04T13:10:13UTC 2021-12-04T03:10:13-10:00 2021-12-04T02:10:13-11:00  21.31312 -157.88868     212   0.0 Hikianalia
  2021-12-04T12:18:24UTC 2021-12-04T02:18:24-10:00 2021-12-04T01:18:24-11:00  21.31313 -157.88862       0   0.0 Hōkūleʻa
  2021-12-04T12:09:08UTC 2021-12-04T02:09:08-10:00 2021-12-04T01:09:08-11:00  21.31315 -157.88866      25   0.0 Hikianalia
  2021-12-04T11:18:29UTC 2021-12-04T01:18:29-10:00 2021-12-04T00:18:29-11:00  21.31312 -157.88862       0   0.0 Hōkūleʻa
  2021-12-04T11:10:42UTC 2021-12-04T01:10:42-10:00 2021-12-04T00:10:42-11:00  21.31311 -157.88868      90   0.0 Hikianalia
  2021-12-04T10:18:44UTC 2021-12-04T00:18:44-10:00 2021-12-03T23:18:44-11:00  21.31312 -157.88862      61   0.0 Hōkūleʻa
  2021-12-04T10:10:06UTC 2021-12-04T00:10:06-10:00 2021-12-03T23:10:06-11:00  21.31311 -157.88875     328   0.0 Hikianalia
  2021-12-04T09:18:27UTC 2021-12-03T23:18:27-10:00 2021-12-03T22:18:27-11:00  21.31309 -157.88868     241   0.0 Hōkūleʻa
  2021-12-04T09:10:18UTC 2021-12-03T23:10:18-10:00 2021-12-03T22:10:18-11:00  21.31305 -157.88871     208   0.0 Hikianalia
  2021-12-04T08:17:27UTC 2021-12-03T22:17:27-10:00 2021-12-03T21:17:27-11:00  21.31312 -157.88862       0   0.0 Hōkūleʻa
  2021-12-04T08:10:46UTC 2021-12-03T22:10:46-10:00 2021-12-03T21:10:46-11:00  21.31312 -157.88866      42   0.0 Hikianalia
  2021-12-04T07:18:24UTC 2021-12-03T21:18:24-10:00 2021-12-03T20:18:24-11:00  21.31309 -157.88862     180   0.0 Hōkūleʻa
  2021-12-04T07:09:14UTC 2021-12-03T21:09:14-10:00 2021-12-03T20:09:14-11:00  21.31310 -157.88868     222   0.0 Hikianalia
  2021-12-04T06:36:11UTC 2021-12-03T20:36:11-10:00 2021-12-03T19:36:11-11:00  21.31312 -157.88862       0   0.0 Hōkūleʻa
  2021-12-04T06:10:10UTC 2021-12-03T20:10:10-10:00 2021-12-03T19:10:10-11:00  21.31312 -157.88866       0   0.0 Hikianalia
  2021-12-04T05:18:30UTC 2021-12-03T19:18:30-10:00 2021-12-03T18:18:30-11:00  21.31312 -157.88862       0   0.0 Hōkūleʻa
  2021-12-04T05:10:15UTC 2021-12-03T19:10:15-10:00 2021-12-03T18:10:15-11:00  21.31310 -157.88866     180   0.0 Hikianalia
  2021-12-04T04:18:23UTC 2021-12-03T18:18:23-10:00 2021-12-03T17:18:23-11:00  21.31312 -157.88862     213   0.0 Hōkūleʻa
  2021-12-04T04:10:46UTC 2021-12-03T18:10:46-10:00 2021-12-03T17:10:46-11:00  21.31311 -157.88866     141   0.0 Hikianalia
  2021-12-04T03:18:31UTC 2021-12-03T17:18:31-10:00 2021-12-03T16:18:31-11:00  21.31315 -157.88860       0   0.0 Hōkūleʻa
  2021-12-04T03:10:17UTC 2021-12-03T17:10:17-10:00 2021-12-03T16:10:17-11:00  21.31319 -157.88873     276   0.0 Hikianalia
  2021-12-04T02:17:40UTC 2021-12-03T16:17:40-10:00 2021-12-03T15:17:40-11:00  21.31313 -157.88860       0   0.0 Hōkūleʻa
  2021-12-04T02:09:18UTC 2021-12-03T16:09:18-10:00 2021-12-03T15:09:18-11:00  21.31318 -157.88862      32   0.0 Hikianalia
  2021-12-04T01:18:27UTC 2021-12-03T15:18:27-10:00 2021-12-03T14:18:27-11:00  21.31311 -157.88860     180   0.0 Hōkūleʻa
  2021-12-04T01:09:40UTC 2021-12-03T15:09:40-10:00 2021-12-03T14:09:40-11:00  21.31311 -157.88866     227   0.0 Hikianalia
  2021-12-04T00:17:30UTC 2021-12-03T14:17:30-10:00 2021-12-03T13:17:30-11:00  21.31315 -157.88860      33   0.0 Hōkūleʻa
  2021-12-04T00:10:09UTC 2021-12-03T14:10:09-10:00 2021-12-03T13:10:09-11:00  21.31319 -157.88858      75   0.0 Hikianalia
  2021-12-03T23:18:30UTC 2021-12-03T13:18:30-10:00 2021-12-03T12:18:30-11:00  21.31312 -157.88862     180   0.0 Hōkūleʻa
  2021-12-03T23:10:18UTC 2021-12-03T13:10:18-10:00 2021-12-03T12:10:18-11:00  21.31315 -157.88871       0   0.0 Hikianalia
  2021-12-03T22:19:00UTC 2021-12-03T12:19:00-10:00 2021-12-03T11:19:00-11:00  21.31314 -157.88862       0   0.0 Hōkūleʻa
  2021-12-03T22:09:47UTC 2021-12-03T12:09:47-10:00 2021-12-03T11:09:47-11:00  21.31315 -157.88871     248   0.0 Hikianalia
  2021-12-03T21:27:32UTC 2021-12-03T11:27:32-10:00 2021-12-03T10:27:32-11:00  21.31313 -157.88862     270   0.0 Hōkūleʻa
  2021-12-03T21:10:13UTC 2021-12-03T11:10:13-10:00 2021-12-03T10:10:13-11:00  21.31319 -157.88862      13   0.0 Hikianalia
  2021-12-03T20:17:47UTC 2021-12-03T10:17:47-10:00 2021-12-03T09:17:47-11:00  21.31313 -157.88860      44   0.0 Hōkūleʻa
  2021-12-03T20:10:21UTC 2021-12-03T10:10:21-10:00 2021-12-03T09:10:21-11:00  21.31310 -157.88864     154   0.0 Hikianalia
  2021-12-03T19:18:25UTC 2021-12-03T09:18:25-10:00 2021-12-03T08:18:25-11:00  21.31311 -157.88862     180   0.0 Hōkūleʻa
  2021-12-03T19:09:09UTC 2021-12-03T09:09:09-10:00 2021-12-03T08:09:09-11:00  21.31314 -157.88866       0   0.0 Hikianalia
  2021-12-03T18:18:45UTC 2021-12-03T08:18:45-10:00 2021-12-03T07:18:45-11:00  21.31312 -157.88862      61   0.0 Hōkūleʻa
  2021-12-03T18:10:38UTC 2021-12-03T08:10:38-10:00 2021-12-03T07:10:38-11:00  21.31311 -157.88866      90   0.0 Hikianalia
  2021-12-03T17:18:30UTC 2021-12-03T07:18:30-10:00 2021-12-03T06:18:30-11:00  21.31311 -157.88864     270   0.0 Hōkūleʻa
  2021-12-03T17:10:16UTC 2021-12-03T07:10:16-10:00 2021-12-03T06:10:16-11:00  21.31311 -157.88868     270   0.0 Hikianalia
  2021-12-03T16:17:35UTC 2021-12-03T06:17:35-10:00 2021-12-03T05:17:35-11:00  21.31311 -157.88862       0   0.0 Hōkūleʻa
  2021-12-03T16:10:47UTC 2021-12-03T06:10:47-10:00 2021-12-03T05:10:47-11:00  21.31311 -157.88866     255   0.0 Hikianalia
  2021-12-03T15:18:40UTC 2021-12-03T05:18:40-10:00 2021-12-03T04:18:40-11:00  21.31310 -157.88862     180   0.0 Hōkūleʻa
  2021-12-03T15:10:37UTC 2021-12-03T05:10:37-10:00 2021-12-03T04:10:37-11:00  21.31312 -157.88862      61   0.0 Hikianalia
  2021-12-03T14:18:28UTC 2021-12-03T04:18:28-10:00 2021-12-03T03:18:28-11:00  21.31314 -157.88862     327   0.0 Hōkūleʻa
  2021-12-03T14:10:18UTC 2021-12-03T04:10:18-10:00 2021-12-03T03:10:18-11:00  21.31310 -157.88866       0   0.0 Hikianalia
  2021-12-03T13:18:25UTC 2021-12-03T03:18:25-10:00 2021-12-03T02:18:25-11:00  21.31311 -157.88860     118   0.0 Hōkūleʻa
  2021-12-03T13:10:06UTC 2021-12-03T03:10:06-10:00 2021-12-03T02:10:06-11:00  21.31310 -157.88866       0   0.0 Hikianalia
  2021-12-03T12:18:47UTC 2021-12-03T02:18:47-10:00 2021-12-03T01:18:47-11:00  21.31312 -157.88862       0   0.0 Hōkūleʻa
  2021-12-03T12:10:46UTC 2021-12-03T02:10:46-10:00 2021-12-03T01:10:46-11:00  21.31310 -157.88866     180   0.0 Hikianalia
  2021-12-03T11:27:16UTC 2021-12-03T01:27:16-10:00 2021-12-03T00:27:16-11:00  21.31309 -157.88862     180   0.0 Hōkūleʻa
  2021-12-03T11:10:48UTC 2021-12-03T01:10:48-10:00 2021-12-03T00:10:48-11:00  21.31312 -157.88866     160   0.0 Hikianalia
  2021-12-03T10:18:29UTC 2021-12-03T00:18:29-10:00 2021-12-02T23:18:29-11:00  21.31313 -157.88862     180   0.0 Hōkūleʻa
  2021-12-03T10:10:16UTC 2021-12-03T00:10:16-10:00 2021-12-02T23:10:16-11:00  21.31318 -157.88868       0   0.0 Hikianalia
  2021-12-03T09:18:48UTC 2021-12-02T23:18:48-10:00 2021-12-02T22:18:48-11:00  21.31314 -157.88862       0   0.0 Hōkūleʻa
  2021-12-03T09:10:17UTC 2021-12-02T23:10:17-10:00 2021-12-02T22:10:17-11:00  21.31318 -157.88868     343   0.0 Hikianalia
  2021-12-03T08:18:25UTC 2021-12-02T22:18:25-10:00 2021-12-02T21:18:25-11:00  21.31312 -157.88862       0   0.0 Hōkūleʻa
  2021-12-03T08:10:36UTC 2021-12-02T22:10:36-10:00 2021-12-02T21:10:36-11:00  21.31311 -157.88866     163   0.0 Hikianalia
  2021-12-03T07:18:32UTC 2021-12-02T21:18:32-10:00 2021-12-02T20:18:32-11:00  21.31311 -157.88862     255   0.0 Hōkūleʻa
  2021-12-03T07:10:20UTC 2021-12-02T21:10:20-10:00 2021-12-02T20:10:20-11:00  21.31318 -157.88868     154   0.0 Hikianalia
  2021-12-03T06:18:49UTC 2021-12-02T20:18:49-10:00 2021-12-02T19:18:49-11:00  21.31312 -157.88858       0   0.0 Hōkūleʻa
  2021-12-03T06:10:12UTC 2021-12-02T20:10:12-10:00 2021-12-02T19:10:12-11:00  21.31322 -157.88871     317   0.0 Hikianalia
  2021-12-03T05:18:47UTC 2021-12-02T19:18:47-10:00 2021-12-02T18:18:47-11:00  21.31310 -157.88858     137   0.0 Hōkūleʻa
  2021-12-03T05:10:17UTC 2021-12-02T19:10:17-10:00 2021-12-02T18:10:17-11:00  21.31318 -157.88866       0   0.0 Hikianalia
  2021-12-03T04:26:54UTC 2021-12-02T18:26:54-10:00 2021-12-02T17:26:54-11:00  21.31314 -157.88862     180   0.0 Hōkūleʻa
  2021-12-03T04:19:43UTC 2021-12-02T18:19:43-10:00 2021-12-02T17:19:43-11:00  21.31312 -157.88866     334   2.5 Hikianalia
  2021-12-03T03:18:24UTC 2021-12-02T17:18:24-10:00 2021-12-02T16:18:24-11:00  21.31318 -157.88862     298   0.0 Hōkūleʻa
  2021-12-03T03:09:11UTC 2021-12-02T17:09:11-10:00 2021-12-02T16:09:11-11:00  21.26882 -157.86611     128   2.1 Hikianalia
  2021-12-03T02:17:44UTC 2021-12-02T16:17:44-10:00 2021-12-02T15:17:44-11:00  21.31317 -157.88860     328   0.0 Hōkūleʻa
  2021-12-03T02:10:15UTC 2021-12-02T16:10:15-10:00 2021-12-02T15:10:15-11:00  21.29006 -157.89534     195   1.4 Hikianalia
  2021-12-03T01:18:32UTC 2021-12-02T15:18:32-10:00 2021-12-02T14:18:32-11:00  21.31310 -157.88856     180   0.0 Hōkūleʻa
  2021-12-03T01:10:17UTC 2021-12-02T15:10:17-10:00 2021-12-02T14:10:17-11:00  21.31303 -157.88888     217   0.0 Hikianalia
  2021-12-03T00:18:32UTC 2021-12-02T14:18:32-10:00 2021-12-02T13:18:32-11:00  21.31317 -157.88856      55   0.0 Hōkūleʻa
  2021-12-03T00:09:48UTC 2021-12-02T14:09:48-10:00 2021-12-02T13:09:48-11:00  21.31308 -157.88883     324   0.0 Hikianalia
  2021-12-02T23:17:29UTC 2021-12-02T13:17:29-10:00 2021-12-02T12:17:29-11:00  21.31312 -157.88862     180   0.0 Hōkūleʻa
  2021-12-02T23:10:09UTC 2021-12-02T13:10:09-10:00 2021-12-02T12:10:09-11:00  21.31303 -157.88879     105   0.0 Hikianalia
  2021-12-02T22:17:41UTC 2021-12-02T12:17:41-10:00 2021-12-02T11:17:41-11:00  21.31314 -157.88862     285   0.0 Hōkūleʻa
  2021-12-02T22:09:48UTC 2021-12-02T12:09:48-10:00 2021-12-02T11:09:48-11:00  21.31305 -157.88888     180   0.0 Hikianalia
  2021-12-02T21:18:31UTC 2021-12-02T11:18:31-10:00 2021-12-02T10:18:31-11:00  21.31313 -157.88858      76   0.0 Hōkūleʻa
  2021-12-02T21:10:17UTC 2021-12-02T11:10:17-10:00 2021-12-02T10:10:17-11:00  21.31306 -157.88888     335   0.0 Hikianalia
  2021-12-02T20:17:31UTC 2021-12-02T10:17:31-10:00 2021-12-02T09:17:31-11:00  21.31312 -157.88862       0   0.0 Hōkūleʻa
  2021-12-02T20:09:35UTC 2021-12-02T10:09:35-10:00 2021-12-02T09:09:35-11:00  21.31302 -157.88886     105   0.0 Hikianalia
  2021-12-02T19:18:26UTC 2021-12-02T09:18:26-10:00 2021-12-02T08:18:26-11:00  21.31312 -157.88862       0   0.0 Hōkūleʻa
  2021-12-02T19:10:12UTC 2021-12-02T09:10:12-10:00 2021-12-02T08:10:12-11:00  21.31306 -157.88903     258   0.0 Hikianalia
  2021-12-02T18:18:49UTC 2021-12-02T08:18:49-10:00 2021-12-02T07:18:49-11:00  21.31312 -157.88862     213   0.0 Hōkūleʻa
  2021-12-02T18:10:19UTC 2021-12-02T08:10:19-10:00 2021-12-02T07:10:19-11:00  21.31308 -157.88892     301   0.0 Hikianalia
  2021-12-02T17:18:31UTC 2021-12-02T07:18:31-10:00 2021-12-02T06:18:31-11:00  21.31315 -157.88860      33   0.0 Hōkūleʻa
  2021-12-02T17:10:15UTC 2021-12-02T07:10:15-10:00 2021-12-02T06:10:15-11:00  21.31299 -157.88877      90   0.0 Hikianalia
  2021-12-02T16:18:31UTC 2021-12-02T06:18:31-10:00 2021-12-02T05:18:31-11:00  21.31312 -157.88862       0   0.0 Hōkūleʻa
  2021-12-02T16:10:48UTC 2021-12-02T06:10:48-10:00 2021-12-02T05:10:48-11:00  21.31299 -157.88886     128   0.0 Hikianalia
  2021-12-02T15:28:52UTC 2021-12-02T05:28:52-10:00 2021-12-02T04:28:52-11:00  21.31311 -157.88862       0   0.0 Hōkūleʻa
  2021-12-02T15:10:09UTC 2021-12-02T05:10:09-10:00 2021-12-02T04:10:09-11:00  21.31306 -157.88894     298   0.0 Hikianalia
  2021-12-02T14:18:48UTC 2021-12-02T04:18:48-10:00 2021-12-02T03:18:48-11:00  21.31311 -157.88862     327   0.0 Hōkūleʻa
  2021-12-02T14:10:28UTC 2021-12-02T04:10:28-10:00 2021-12-02T03:10:28-11:00  21.31302 -157.88886     298   0.0 Hikianalia
  2021-12-02T13:18:33UTC 2021-12-02T03:18:33-10:00 2021-12-02T02:18:33-11:00  21.31308 -157.88860     154   0.0 Hōkūleʻa
  2021-12-02T13:10:27UTC 2021-12-02T03:10:27-10:00 2021-12-02T02:10:27-11:00  21.31300 -157.88883     180   0.0 Hikianalia
  2021-12-02T12:18:29UTC 2021-12-02T02:18:29-10:00 2021-12-02T01:18:29-11:00  21.31312 -157.88862       0   0.0 Hōkūleʻa
  2021-12-02T12:10:48UTC 2021-12-02T02:10:48-10:00 2021-12-02T01:10:48-11:00  21.31302 -157.88883     335   0.1 Hikianalia
  2021-12-02T11:18:30UTC 2021-12-02T01:18:30-10:00 2021-12-02T00:18:30-11:00  21.31312 -157.88862     180   0.0 Hōkūleʻa
  2021-12-02T11:10:17UTC 2021-12-02T01:10:17-10:00 2021-12-02T00:10:17-11:00  21.31104 -157.88787     156   0.1 Hikianalia
  2021-12-02T10:18:44UTC 2021-12-02T00:18:44-10:00 2021-12-01T23:18:44-11:00  21.31313 -157.88862       0   0.0 Hōkūleʻa
  2021-12-02T10:10:07UTC 2021-12-02T00:10:07-10:00 2021-12-01T23:10:07-11:00  21.31303 -157.88883       0   0.0 Hikianalia
  2021-12-02T09:18:37UTC 2021-12-01T23:18:37-10:00 2021-12-01T22:18:37-11:00  21.31312 -157.88862       0   0.0 Hōkūleʻa
  2021-12-02T09:09:09UTC 2021-12-01T23:09:09-10:00 2021-12-01T22:09:09-11:00  21.31303 -157.88883      62   0.0 Hikianalia
  2021-12-02T08:18:21UTC 2021-12-01T22:18:21-10:00 2021-12-01T21:18:21-11:00  21.31311 -157.88862     180   0.0 Hōkūleʻa
  2021-12-02T08:10:41UTC 2021-12-01T22:10:41-10:00 2021-12-01T21:10:41-11:00  21.31302 -157.88886     242   0.0 Hikianalia
  2021-12-02T07:18:31UTC 2021-12-01T21:18:31-10:00 2021-12-01T20:18:31-11:00  21.31312 -157.88862       0   0.0 Hōkūleʻa
  2021-12-02T07:10:21UTC 2021-12-01T21:10:21-10:00 2021-12-01T20:10:21-11:00  21.31303 -157.88883       0   0.0 Hikianalia
  2021-12-02T06:17:52UTC 2021-12-01T20:17:52-10:00 2021-12-01T19:17:52-11:00  21.31312 -157.88862       0   0.0 Hōkūleʻa
  2021-12-02T06:10:13UTC 2021-12-01T20:10:13-10:00 2021-12-01T19:10:13-11:00  21.31303 -157.88883     270   0.0 Hikianalia
  2021-12-02T05:18:22UTC 2021-12-01T19:18:22-10:00 2021-12-01T18:18:22-11:00  21.31312 -157.88862     180   0.0 Hōkūleʻa
  2021-12-02T05:10:09UTC 2021-12-01T19:10:09-10:00 2021-12-01T18:10:09-11:00  21.31303 -157.88873      85   0.0 Hikianalia
  2021-12-02T04:18:24UTC 2021-12-01T18:18:24-10:00 2021-12-01T17:18:24-11:00  21.31313 -157.88862     180   0.0 Hōkūleʻa
  2021-12-02T04:10:46UTC 2021-12-01T18:10:46-10:00 2021-12-01T17:10:46-11:00  21.31302 -157.88886     180   0.0 Hikianalia
  2021-12-02T03:18:31UTC 2021-12-01T17:18:31-10:00 2021-12-01T16:18:31-11:00  21.31315 -157.88862       0   0.0 Hōkūleʻa
  2021-12-02T03:10:23UTC 2021-12-01T17:10:23-10:00 2021-12-01T16:10:23-11:00  21.31308 -157.88886     339   0.0 Hikianalia
  2021-12-02T02:17:46UTC 2021-12-01T16:17:46-10:00 2021-12-01T15:17:46-11:00  21.31314 -157.88862     119   0.0 Hōkūleʻa
  2021-12-02T02:09:18UTC 2021-12-01T16:09:18-10:00 2021-12-01T15:09:18-11:00  21.31303 -157.88883     251   0.0 Hikianalia
  2021-12-02T01:18:32UTC 2021-12-01T15:18:32-10:00 2021-12-01T14:18:32-11:00  21.31315 -157.88864     280   0.0 Hōkūleʻa
  2021-12-02T01:10:11UTC 2021-12-01T15:10:11-10:00 2021-12-01T14:10:11-11:00  21.31305 -157.88877      57   0.0 Hikianalia
  2021-12-02T00:17:47UTC 2021-12-01T14:17:47-10:00 2021-12-01T13:17:47-11:00  21.31314 -157.88858      90   0.0 Hōkūleʻa
  2021-12-02T00:10:47UTC 2021-12-01T14:10:47-10:00 2021-12-01T13:10:47-11:00  21.31299 -157.88886     285   0.0 Hikianalia
  2021-12-01T23:18:21UTC 2021-12-01T13:18:21-10:00 2021-12-01T12:18:21-11:00  21.31314 -157.88860     118   0.0 Hōkūleʻa
  2021-12-01T23:09:22UTC 2021-12-01T13:09:22-10:00 2021-12-01T12:09:22-11:00  21.31298 -157.88881     143   0.0 Hikianalia
  2021-12-01T22:17:48UTC 2021-12-01T12:17:48-10:00 2021-12-01T11:17:48-11:00  21.31315 -157.88862     270   0.0 Hōkūleʻa
  2021-12-01T22:09:25UTC 2021-12-01T12:09:25-10:00 2021-12-01T11:09:25-11:00  21.31309 -157.88890     288   0.0 Hikianalia
  2021-12-01T21:17:29UTC 2021-12-01T11:17:29-10:00 2021-12-01T10:17:29-11:00  21.31315 -157.88856      62   0.0 Hōkūleʻa
  2021-12-01T21:10:05UTC 2021-12-01T11:10:05-10:00 2021-12-01T10:10:05-11:00  21.31306 -157.88879      62   0.0 Hikianalia
  2021-12-01T20:18:29UTC 2021-12-01T10:18:29-10:00 2021-12-01T09:18:29-11:00  21.31312 -157.88862       0   0.0 Hōkūleʻa
  2021-12-01T20:09:42UTC 2021-12-01T10:09:42-10:00 2021-12-01T09:09:42-11:00  21.31303 -157.88886     270   0.0 Hikianalia
  2021-12-01T19:18:33UTC 2021-12-01T09:18:33-10:00 2021-12-01T08:18:33-11:00  21.31312 -157.88862     180   0.0 Hōkūleʻa
  2021-12-01T19:10:16UTC 2021-12-01T09:10:16-10:00 2021-12-01T08:10:16-11:00  21.31303 -157.88883      70   0.0 Hikianalia
  2021-12-01T18:18:46UTC 2021-12-01T08:18:46-10:00 2021-12-01T07:18:46-11:00  21.31313 -157.88862      63   0.0 Hōkūleʻa
  2021-12-01T18:09:28UTC 2021-12-01T08:09:28-10:00 2021-12-01T07:09:28-11:00  21.31300 -157.88890     255   0.0 Hikianalia
  2021-12-01T17:18:29UTC 2021-12-01T07:18:29-10:00 2021-12-01T06:18:29-11:00  21.31312 -157.88864       0   0.0 Hōkūleʻa
  2021-12-01T17:11:10UTC 2021-12-01T07:11:10-10:00 2021-12-01T06:11:10-11:00  21.31304 -157.88877      70   0.0 Hikianalia
  2021-12-01T16:28:03UTC 2021-12-01T06:28:03-10:00 2021-12-01T05:28:03-11:00  21.31302 -157.88883      52   0.0 Hikianalia
  2021-12-01T16:18:32UTC 2021-12-01T06:18:32-10:00 2021-12-01T05:18:32-11:00  21.31312 -157.88864     299   0.0 Hōkūleʻa
  2021-12-01T15:19:49UTC 2021-12-01T05:19:49-10:00 2021-12-01T04:19:49-11:00  21.31311 -157.88862     270   0.0 Hōkūleʻa
  2021-12-01T15:10:18UTC 2021-12-01T05:10:18-10:00 2021-12-01T04:10:18-11:00  21.31298 -157.88888     260   0.0 Hikianalia
  2021-12-01T14:17:42UTC 2021-12-01T04:17:42-10:00 2021-12-01T03:17:42-11:00  21.31311 -157.88860     118   0.0 Hōkūleʻa
  2021-12-01T14:10:18UTC 2021-12-01T04:10:18-10:00 2021-12-01T03:10:18-11:00  21.31299 -157.88881      80   0.0 Hikianalia
  2021-12-01T13:18:24UTC 2021-12-01T03:18:24-10:00 2021-12-01T02:18:24-11:00  21.31312 -157.88862       0   0.0 Hōkūleʻa
  2021-12-01T13:10:13UTC 2021-12-01T03:10:13-10:00 2021-12-01T02:10:13-11:00  21.31298 -157.88888     223   0.0 Hikianalia
  2021-12-01T12:18:47UTC 2021-12-01T02:18:47-10:00 2021-12-01T01:18:47-11:00  21.31312 -157.88862     180   0.0 Hōkūleʻa
  2021-12-01T12:10:46UTC 2021-12-01T02:10:46-10:00 2021-12-01T01:10:46-11:00  21.31300 -157.88886     255   0.0 Hikianalia
  2021-12-01T11:18:30UTC 2021-12-01T01:18:30-10:00 2021-12-01T00:18:30-11:00  21.31313 -157.88862     223   0.0 Hōkūleʻa
  2021-12-01T11:10:18UTC 2021-12-01T01:10:18-10:00 2021-12-01T00:10:18-11:00  21.31302 -157.88881     138   0.0 Hikianalia
  2021-12-01T10:18:24UTC 2021-12-01T00:18:24-10:00 2021-11-30T23:18:24-11:00  21.31315 -157.88860      43   0.0 Hōkūleʻa
  2021-12-01T10:10:06UTC 2021-12-01T00:10:06-10:00 2021-11-30T23:10:06-11:00  21.31304 -157.88883       0   0.0 Hikianalia
  2021-12-01T09:18:48UTC 2021-11-30T23:18:48-10:00 2021-11-30T22:18:48-11:00  21.31313 -157.88862       0   0.0 Hōkūleʻa
  2021-12-01T09:10:46UTC 2021-11-30T23:10:46-10:00 2021-11-30T22:10:46-11:00  21.31302 -157.88883       0   0.0 Hikianalia
  2021-12-01T08:18:33UTC 2021-11-30T22:18:33-10:00 2021-11-30T21:18:33-11:00  21.31313 -157.88862     119   0.0 Hōkūleʻa
  2021-12-01T08:09:17UTC 2021-11-30T22:09:17-10:00 2021-11-30T21:09:17-11:00  21.31302 -157.88883     105   0.0 Hikianalia
  2021-12-01T07:18:35UTC 2021-11-30T21:18:35-10:00 2021-11-30T20:18:35-11:00  21.31314 -157.88864     299   0.0 Hōkūleʻa
  2021-12-01T07:10:12UTC 2021-11-30T21:10:12-10:00 2021-11-30T20:10:12-11:00  21.31303 -157.88888     285   0.0 Hikianalia
  2021-12-01T06:18:48UTC 2021-11-30T20:18:48-10:00 2021-11-30T19:18:48-11:00  21.31313 -157.88862      90   0.0 Hōkūleʻa
  2021-12-01T06:10:38UTC 2021-11-30T20:10:38-10:00 2021-11-30T19:10:38-11:00  21.31302 -157.88883      96   0.0 Hikianalia
  2021-12-01T05:18:30UTC 2021-11-30T19:18:30-10:00 2021-11-30T18:18:30-11:00  21.31313 -157.88866     255   0.0 Hōkūleʻa
  2021-12-01T05:10:09UTC 2021-11-30T19:10:09-10:00 2021-11-30T18:10:09-11:00  21.31303 -157.88894     276   0.0 Hikianalia
  2021-12-01T04:19:38UTC 2021-11-30T18:19:38-10:00 2021-11-30T17:19:38-11:00  21.31302 -157.88883     180   0.0 Hikianalia
  2021-12-01T04:17:31UTC 2021-11-30T18:17:31-10:00 2021-11-30T17:17:31-11:00  21.31314 -157.88862     180   0.0 Hōkūleʻa
  2021-12-01T03:18:23UTC 2021-11-30T17:18:23-10:00 2021-11-30T16:18:23-11:00  21.31315 -157.88862     180   0.0 Hōkūleʻa
  2021-12-01T03:09:11UTC 2021-11-30T17:09:11-10:00 2021-11-30T16:09:11-11:00  21.31307 -157.88883       0   0.0 Hikianalia
  2021-12-01T02:18:49UTC 2021-11-30T16:18:49-10:00 2021-11-30T15:18:49-11:00  21.31317 -157.88862     180   0.0 Hōkūleʻa
  2021-12-01T02:10:35UTC 2021-11-30T16:10:35-10:00 2021-11-30T15:10:35-11:00  21.31306 -157.88883     118   0.0 Hikianalia
  2021-12-01T01:17:26UTC 2021-11-30T15:17:26-10:00 2021-11-30T14:17:26-11:00  21.31319 -157.88862       0   0.0 Hōkūleʻa
  2021-12-01T01:09:05UTC 2021-11-30T15:09:05-10:00 2021-11-30T14:09:05-11:00  21.31311 -157.88894     307   0.0 Hikianalia
  2021-12-01T00:18:22UTC 2021-11-30T14:18:22-10:00 2021-11-30T13:18:22-11:00  21.31319 -157.88862     308   0.0 Hōkūleʻa
  2021-12-01T00:10:16UTC 2021-11-30T14:10:16-10:00 2021-11-30T13:10:16-11:00  21.31304 -157.88883     180   0.0 Hikianalia
  2021-11-30T23:17:21UTC 2021-11-30T13:17:21-10:00 2021-11-30T12:17:21-11:00  21.31315 -157.88858     105   0.0 Hōkūleʻa
  2021-11-30T23:10:17UTC 2021-11-30T13:10:17-10:00 2021-11-30T12:10:17-11:00  21.31307 -157.88883      90   0.0 Hikianalia
  2021-11-30T22:17:40UTC 2021-11-30T12:17:40-10:00 2021-11-30T11:17:40-11:00  21.31318 -157.88866     280   0.0 Hōkūleʻa
  2021-11-30T22:09:48UTC 2021-11-30T12:09:48-10:00 2021-11-30T11:09:48-11:00  21.31307 -157.88888     317   0.0 Hikianalia
  2021-11-30T21:18:35UTC 2021-11-30T11:18:35-10:00 2021-11-30T10:18:35-11:00  21.31317 -157.88860      26   0.0 Hōkūleʻa
  2021-11-30T21:10:18UTC 2021-11-30T11:10:18-10:00 2021-11-30T10:10:18-11:00  21.31303 -157.88883     105   0.0 Hikianalia
  2021-11-30T20:17:32UTC 2021-11-30T10:17:32-10:00 2021-11-30T09:17:32-11:00  21.31312 -157.88862       0   0.0 Hōkūleʻa
  2021-11-30T20:09:45UTC 2021-11-30T10:09:45-10:00 2021-11-30T09:09:45-11:00  21.31304 -157.88888     270   0.0 Hikianalia
  2021-11-30T19:18:31UTC 2021-11-30T09:18:31-10:00 2021-11-30T08:18:31-11:00  21.31312 -157.88862       0   0.0 Hōkūleʻa
  2021-11-30T19:10:07UTC 2021-11-30T09:10:07-10:00 2021-11-30T08:10:07-11:00  21.31304 -157.88883       0   0.0 Hikianalia
  2021-11-30T18:18:47UTC 2021-11-30T08:18:47-10:00 2021-11-30T07:18:47-11:00  21.31312 -157.88862       0   0.0 Hōkūleʻa
  2021-11-30T18:10:08UTC 2021-11-30T08:10:08-10:00 2021-11-30T07:10:08-11:00  21.31302 -157.88883       0   0.0 Hikianalia
  2021-11-30T17:18:36UTC 2021-11-30T07:18:36-10:00 2021-11-30T06:18:36-11:00  21.31312 -157.88862      61   0.0 Hōkūleʻa
  2021-11-30T17:10:16UTC 2021-11-30T07:10:16-10:00 2021-11-30T06:10:16-11:00  21.31299 -157.88883     180   0.0 Hikianalia
  2021-11-30T16:19:37UTC 2021-11-30T06:19:37-10:00 2021-11-30T05:19:37-11:00  21.31311 -157.88864     270   0.0 Hōkūleʻa
  2021-11-30T16:10:49UTC 2021-11-30T06:10:49-10:00 2021-11-30T05:10:49-11:00  21.31302 -157.88883       0   0.0 Hikianalia
  2021-11-30T15:18:30UTC 2021-11-30T05:18:30-10:00 2021-11-30T04:18:30-11:00  21.31311 -157.88862     180   0.0 Hōkūleʻa
  2021-11-30T15:09:17UTC 2021-11-30T05:09:17-10:00 2021-11-30T04:09:17-11:00  21.31298 -157.88883     122   0.0 Hikianalia
  2021-11-30T14:17:47UTC 2021-11-30T04:17:47-10:00 2021-11-30T03:17:47-11:00  21.31312 -157.88862       0   0.0 Hōkūleʻa
  2021-11-30T14:10:07UTC 2021-11-30T04:10:07-10:00 2021-11-30T03:10:07-11:00  21.31305 -157.88894     285   0.0 Hikianalia
  2021-11-30T13:18:27UTC 2021-11-30T03:18:27-10:00 2021-11-30T02:18:27-11:00  21.31312 -157.88862     270   0.0 Hōkūleʻa
  2021-11-30T13:10:06UTC 2021-11-30T03:10:06-10:00 2021-11-30T02:10:06-11:00  21.31300 -157.88877      98   0.0 Hikianalia
  2021-11-30T12:18:24UTC 2021-11-30T02:18:24-10:00 2021-11-30T01:18:24-11:00  21.31312 -157.88860      90   0.0 Hōkūleʻa
  2021-11-30T12:10:46UTC 2021-11-30T02:10:46-10:00 2021-11-30T01:10:46-11:00  21.31302 -157.88886      90   0.0 Hikianalia
  2021-11-30T11:18:30UTC 2021-11-30T01:18:30-10:00 2021-11-30T00:18:30-11:00  21.31312 -157.88862       0   0.0 Hōkūleʻa
  2021-11-30T11:10:09UTC 2021-11-30T01:10:09-10:00 2021-11-30T00:10:09-11:00  21.31302 -157.88888       0   0.0 Hikianalia
  2021-11-30T10:17:44UTC 2021-11-30T00:17:44-10:00 2021-11-29T23:17:44-11:00  21.31312 -157.88862       0   0.0 Hōkūleʻa
  2021-11-30T10:10:14UTC 2021-11-30T00:10:14-10:00 2021-11-29T23:10:14-11:00  21.31299 -157.88888     243   0.0 Hikianalia
  2021-11-30T09:18:32UTC 2021-11-29T23:18:32-10:00 2021-11-29T22:18:32-11:00  21.31312 -157.88862     256   0.0 Hōkūleʻa
  2021-11-30T09:09:46UTC 2021-11-29T23:09:46-10:00 2021-11-29T22:09:46-11:00  21.31300 -157.88886       0   0.0 Hikianalia
  2021-11-30T08:18:33UTC 2021-11-29T22:18:33-10:00 2021-11-29T21:18:33-11:00  21.31313 -157.88858      76   0.0 Hōkūleʻa
  2021-11-30T08:10:35UTC 2021-11-29T22:10:35-10:00 2021-11-29T21:10:35-11:00  21.31300 -157.88886     212   0.0 Hikianalia
  2021-11-30T07:18:24UTC 2021-11-29T21:18:24-10:00 2021-11-29T20:18:24-11:00  21.31312 -157.88862       0   0.0 Hōkūleʻa
  2021-11-30T07:10:12UTC 2021-11-29T21:10:12-10:00 2021-11-29T20:10:12-11:00  21.31304 -157.88883       0   0.0 Hikianalia
  2021-11-30T06:18:40UTC 2021-11-29T20:18:40-10:00 2021-11-29T19:18:40-11:00  21.31312 -157.88862     117   0.0 Hōkūleʻa
  2021-11-30T06:10:17UTC 2021-11-29T20:10:17-10:00 2021-11-29T19:10:17-11:00  21.31304 -157.88883       0   0.0 Hikianalia
  2021-11-30T05:18:30UTC 2021-11-29T19:18:30-10:00 2021-11-29T18:18:30-11:00  21.31313 -157.88864     298   0.0 Hōkūleʻa
  2021-11-30T05:10:15UTC 2021-11-29T19:10:15-10:00 2021-11-29T18:10:15-11:00  21.31304 -157.88883       0   0.0 Hikianalia
  2021-11-30T04:17:33UTC 2021-11-29T18:17:33-10:00 2021-11-29T17:17:33-11:00  21.31311 -157.88860     118   0.0 Hōkūleʻa
  2021-11-30T04:10:38UTC 2021-11-29T18:10:38-10:00 2021-11-29T17:10:38-11:00  21.31302 -157.88883     180   0.0 Hikianalia
  2021-11-30T03:18:24UTC 2021-11-29T17:18:24-10:00 2021-11-29T16:18:24-11:00  21.31312 -157.88862     180   0.0 Hōkūleʻa
  2021-11-30T03:09:18UTC 2021-11-29T17:09:18-10:00 2021-11-29T16:09:18-11:00  21.31304 -157.88883       0   0.0 Hikianalia
  2021-11-30T02:18:48UTC 2021-11-29T16:18:48-10:00 2021-11-29T15:18:48-11:00  21.31313 -157.88862       0   0.0 Hōkūleʻa
  2021-11-30T02:10:09UTC 2021-11-29T16:10:09-10:00 2021-11-29T15:10:09-11:00  21.31304 -157.88883     108   0.0 Hikianalia
  2021-11-30T01:17:35UTC 2021-11-29T15:17:35-10:00 2021-11-29T14:17:35-11:00  21.31313 -157.88862     270   0.0 Hōkūleʻa
  2021-11-30T01:10:15UTC 2021-11-29T15:10:15-10:00 2021-11-29T14:10:15-11:00  21.31307 -157.88894     293   0.0 Hikianalia
  2021-11-30T00:18:30UTC 2021-11-29T14:18:30-10:00 2021-11-29T13:18:30-11:00  21.31313 -157.88858      63   0.0 Hōkūleʻa
  2021-11-30T00:09:59UTC 2021-11-29T14:09:59-10:00 2021-11-29T13:09:59-11:00  21.31303 -157.88883     134   0.0 Hikianalia
  2021-11-29T23:17:56UTC 2021-11-29T13:17:56-10:00 2021-11-29T12:17:56-11:00  21.31312 -157.88860     136   0.0 Hōkūleʻa
  2021-11-29T23:10:42UTC 2021-11-29T13:10:42-10:00 2021-11-29T12:10:42-11:00  21.31312 -157.88894     298   0.0 Hikianalia
  2021-11-29T22:18:49UTC 2021-11-29T12:18:49-10:00 2021-11-29T11:18:49-11:00  21.31314 -157.88862     251   0.0 Hōkūleʻa
  2021-11-29T22:10:15UTC 2021-11-29T12:10:15-10:00 2021-11-29T11:10:15-11:00  21.31307 -157.88883      13   0.0 Hikianalia
  2021-11-29T21:18:24UTC 2021-11-29T11:18:24-10:00 2021-11-29T10:18:24-11:00  21.31317 -157.88856      25   0.0 Hōkūleʻa
  2021-11-29T21:09:18UTC 2021-11-29T11:09:18-10:00 2021-11-29T10:09:18-11:00  21.31298 -157.88886     180   0.0 Hikianalia
  2021-11-29T20:17:29UTC 2021-11-29T10:17:29-10:00 2021-11-29T09:17:29-11:00  21.31312 -157.88858     117   0.0 Hōkūleʻa
  2021-11-29T20:10:40UTC 2021-11-29T10:10:40-10:00 2021-11-29T09:10:40-11:00  21.31303 -157.88886       0   0.0 Hikianalia
  2021-11-29T19:18:23UTC 2021-11-29T09:18:23-10:00 2021-11-29T08:18:23-11:00  21.31313 -157.88860      64   0.0 Hōkūleʻa
  2021-11-29T19:10:16UTC 2021-11-29T09:10:16-10:00 2021-11-29T08:10:16-11:00  21.31300 -157.88886     270   0.0 Hikianalia
  2021-11-29T18:18:40UTC 2021-11-29T08:18:40-10:00 2021-11-29T07:18:40-11:00  21.31312 -157.88862     118   0.0 Hōkūleʻa
  2021-11-29T18:10:12UTC 2021-11-29T08:10:12-10:00 2021-11-29T07:10:12-11:00  21.31300 -157.88883     143   0.0 Hikianalia
  2021-11-29T17:18:29UTC 2021-11-29T07:18:29-10:00 2021-11-29T06:18:29-11:00  21.31314 -157.88866     308   0.0 Hōkūleʻa
  2021-11-29T17:10:14UTC 2021-11-29T07:10:14-10:00 2021-11-29T06:10:14-11:00  21.31306 -157.88888     335   0.0 Hikianalia
  2021-11-29T16:17:32UTC 2021-11-29T06:17:32-10:00 2021-11-29T05:17:32-11:00  21.31311 -157.88862       0   0.0 Hōkūleʻa
  2021-11-29T16:09:49UTC 2021-11-29T06:09:49-10:00 2021-11-29T05:09:49-11:00  21.31302 -157.88886     316   0.0 Hikianalia
  2021-11-29T15:19:24UTC 2021-11-29T05:19:24-10:00 2021-11-29T04:19:24-11:00  21.31311 -157.88862       0   0.0 Hōkūleʻa
  2021-11-29T15:10:17UTC 2021-11-29T05:10:17-10:00 2021-11-29T04:10:17-11:00  21.31299 -157.88883     299   0.0 Hikianalia
  2021-11-29T14:18:44UTC 2021-11-29T04:18:44-10:00 2021-11-29T03:18:44-11:00  21.31311 -157.88862     298   0.0 Hōkūleʻa
  2021-11-29T14:10:25UTC 2021-11-29T04:10:25-10:00 2021-11-29T03:10:25-11:00  21.31298 -157.88881     160   0.0 Hikianalia
  2021-11-29T13:18:45UTC 2021-11-29T03:18:45-10:00 2021-11-29T02:18:45-11:00  21.31310 -157.88860     118   0.0 Hōkūleʻa
  2021-11-29T13:10:16UTC 2021-11-29T03:10:16-10:00 2021-11-29T02:10:16-11:00  21.31304 -157.88883      32   0.0 Hikianalia
  2021-11-29T12:18:37UTC 2021-11-29T02:18:37-10:00 2021-11-29T01:18:37-11:00  21.31311 -157.88862     242   0.0 Hōkūleʻa
  2021-11-29T12:10:47UTC 2021-11-29T02:10:47-10:00 2021-11-29T01:10:47-11:00  21.31300 -157.88886     212   0.0 Hikianalia
  2021-11-29T11:18:41UTC 2021-11-29T01:18:41-10:00 2021-11-29T00:18:41-11:00  21.31312 -157.88860      62   0.0 Hōkūleʻa
  2021-11-29T11:10:08UTC 2021-11-29T01:10:08-10:00 2021-11-29T00:10:08-11:00  21.31304 -157.88883       0   0.0 Hikianalia
  2021-11-29T10:18:44UTC 2021-11-29T00:18:44-10:00 2021-11-28T23:18:44-11:00  21.31311 -157.88862     234   0.0 Hōkūleʻa
  2021-11-29T10:10:06UTC 2021-11-29T00:10:06-10:00 2021-11-28T23:10:06-11:00  21.31304 -157.88883     278   0.0 Hikianalia
  2021-11-29T09:18:27UTC 2021-11-28T23:18:27-10:00 2021-11-28T22:18:27-11:00  21.31315 -157.88856      42   0.0 Hōkūleʻa
  2021-11-29T09:10:18UTC 2021-11-28T23:10:18-10:00 2021-11-28T22:10:18-11:00  21.31303 -157.88875      75   0.0 Hikianalia
  2021-11-29T08:18:30UTC 2021-11-28T22:18:30-10:00 2021-11-28T21:18:30-11:00  21.31311 -157.88860     136   0.0 Hōkūleʻa
  2021-11-29T08:10:49UTC 2021-11-28T22:10:49-10:00 2021-11-28T21:10:49-11:00  21.31300 -157.88883     180   0.0 Hikianalia
  2021-11-29T07:28:15UTC 2021-11-28T21:28:15-10:00 2021-11-28T20:28:15-11:00  21.31313 -157.88862     270   0.0 Hōkūleʻa
  2021-11-29T07:10:12UTC 2021-11-28T21:10:12-10:00 2021-11-28T20:10:12-11:00  21.31304 -157.88883     231   0.0 Hikianalia
  2021-11-29T06:18:39UTC 2021-11-28T20:18:39-10:00 2021-11-28T19:18:39-11:00  21.31313 -157.88849      80   0.0 Hōkūleʻa
  2021-11-29T06:09:17UTC 2021-11-28T20:09:17-10:00 2021-11-28T19:09:17-11:00  21.31307 -157.88879      90   0.0 Hikianalia
  2021-11-29T05:18:27UTC 2021-11-28T19:18:27-10:00 2021-11-28T18:18:27-11:00  21.31311 -157.88862       0   0.0 Hōkūleʻa
  2021-11-29T05:10:09UTC 2021-11-28T19:10:09-10:00 2021-11-28T18:10:09-11:00  21.31307 -157.88883      26   0.0 Hikianalia
  2021-11-29T04:19:44UTC 2021-11-28T18:19:44-10:00 2021-11-28T17:19:44-11:00  21.31303 -157.88886     206   0.0 Hikianalia
  2021-11-29T04:17:42UTC 2021-11-28T18:17:42-10:00 2021-11-28T17:17:42-11:00  21.31311 -157.88862     180   0.0 Hōkūleʻa
  2021-11-29T03:18:22UTC 2021-11-28T17:18:22-10:00 2021-11-28T16:18:22-11:00  21.31317 -157.88862     119   0.0 Hōkūleʻa
  2021-11-29T03:10:18UTC 2021-11-28T17:10:18-10:00 2021-11-28T16:10:18-11:00  21.31307 -157.88883       0   0.0 Hikianalia
  2021-11-29T02:18:32UTC 2021-11-28T16:18:32-10:00 2021-11-28T15:18:32-11:00  21.31319 -157.88866     298   0.0 Hōkūleʻa
  2021-11-29T02:10:14UTC 2021-11-28T16:10:14-10:00 2021-11-28T15:10:14-11:00  21.31303 -157.88883     180   0.0 Hikianalia
  2021-11-29T01:18:29UTC 2021-11-28T15:18:29-10:00 2021-11-28T14:18:29-11:00  21.31315 -157.88860      62   0.0 Hōkūleʻa
  2021-11-29T01:09:48UTC 2021-11-28T15:09:48-10:00 2021-11-28T14:09:48-11:00  21.31306 -157.88883     301   0.0 Hikianalia
  2021-11-29T00:17:47UTC 2021-11-28T14:17:47-10:00 2021-11-28T13:17:47-11:00  21.31314 -157.88862       0   0.0 Hōkūleʻa
  2021-11-29T00:10:17UTC 2021-11-28T14:10:17-10:00 2021-11-28T13:10:17-11:00  21.31296 -157.88866     108   0.0 Hikianalia
  2021-11-28T23:18:38UTC 2021-11-28T13:18:38-10:00 2021-11-28T12:18:38-11:00  21.31313 -157.88862     148   0.0 Hōkūleʻa
  2021-11-28T23:10:40UTC 2021-11-28T13:10:40-10:00 2021-11-28T12:10:40-11:00  21.31302 -157.88883     118   0.0 Hikianalia
  2021-11-28T22:27:32UTC 2021-11-28T12:27:32-10:00 2021-11-28T11:27:32-11:00  21.31317 -157.88864     328   0.0 Hōkūleʻa
  2021-11-28T22:09:46UTC 2021-11-28T12:09:46-10:00 2021-11-28T11:09:46-11:00  21.31303 -157.88886     206   0.0 Hikianalia
  2021-11-28T21:17:30UTC 2021-11-28T11:17:30-10:00 2021-11-28T10:17:30-11:00  21.31313 -157.88862       0   0.0 Hōkūleʻa
  2021-11-28T21:09:16UTC 2021-11-28T11:09:16-10:00 2021-11-28T10:09:16-11:00  21.31307 -157.88883       0   0.0 Hikianalia
  2021-11-28T20:17:38UTC 2021-11-28T10:17:38-10:00 2021-11-28T09:17:38-11:00  21.31312 -157.88862      61   0.0 Hōkūleʻa
  2021-11-28T20:10:09UTC 2021-11-28T10:10:09-10:00 2021-11-28T09:10:09-11:00  21.31300 -157.88883     119   0.0 Hikianalia
  2021-11-28T19:18:24UTC 2021-11-28T09:18:24-10:00 2021-11-28T08:18:24-11:00  21.31310 -157.88866     255   0.0 Hōkūleʻa
  2021-11-28T19:10:07UTC 2021-11-28T09:10:07-10:00 2021-11-28T08:10:07-11:00  21.31303 -157.88888     299   0.0 Hikianalia
  2021-11-28T18:28:57UTC 2021-11-28T08:28:57-10:00 2021-11-28T07:28:57-11:00  21.31311 -157.88862     180   0.0 Hōkūleʻa
  2021-11-28T18:09:48UTC 2021-11-28T08:09:48-10:00 2021-11-28T07:09:48-11:00  21.31302 -157.88886     255   0.0 Hikianalia
  2021-11-28T17:18:27UTC 2021-11-28T07:18:27-10:00 2021-11-28T06:18:27-11:00  21.31312 -157.88862       0   0.0 Hōkūleʻa
  2021-11-28T17:10:15UTC 2021-11-28T07:10:15-10:00 2021-11-28T06:10:15-11:00  21.31303 -157.88881      32   0.0 Hikianalia
  2021-11-28T16:18:44UTC 2021-11-28T06:18:44-10:00 2021-11-28T05:18:44-11:00  21.31312 -157.88862     109   0.0 Hōkūleʻa
  2021-11-28T16:10:06UTC 2021-11-28T06:10:06-10:00 2021-11-28T05:10:06-11:00  21.31299 -157.88883       0   0.0 Hikianalia
  2021-11-28T15:18:30UTC 2021-11-28T05:18:30-10:00 2021-11-28T04:18:30-11:00  21.31314 -157.88868     289   0.0 Hōkūleʻa
  2021-11-28T15:10:18UTC 2021-11-28T05:10:18-10:00 2021-11-28T04:10:18-11:00  21.31298 -157.88883     154   0.0 Hikianalia
  2021-11-28T14:18:22UTC 2021-11-28T04:18:22-10:00 2021-11-28T03:18:22-11:00  21.31312 -157.88862       0   0.0 Hōkūleʻa
  2021-11-28T14:10:45UTC 2021-11-28T04:10:45-10:00 2021-11-28T03:10:45-11:00  21.31303 -157.88886     242   0.0 Hikianalia
  2021-11-28T13:18:33UTC 2021-11-28T03:18:33-10:00 2021-11-28T02:18:33-11:00  21.31311 -157.88862       0   0.0 Hōkūleʻa
  2021-11-28T13:10:18UTC 2021-11-28T03:10:18-10:00 2021-11-28T02:10:18-11:00  21.31304 -157.88883     299   0.0 Hikianalia
  2021-11-28T12:18:48UTC 2021-11-28T02:18:48-10:00 2021-11-28T01:18:48-11:00  21.31311 -157.88862       0   0.0 Hōkūleʻa
  2021-11-28T12:10:08UTC 2021-11-28T02:10:08-10:00 2021-11-28T01:10:08-11:00  21.31303 -157.88881      61   0.0 Hikianalia
  2021-11-28T11:18:37UTC 2021-11-28T01:18:37-10:00 2021-11-28T00:18:37-11:00  21.31311 -157.88862     298   0.0 Hōkūleʻa
  2021-11-28T11:09:17UTC 2021-11-28T01:09:17-10:00 2021-11-28T00:09:17-11:00  21.31302 -157.88883      90   0.0 Hikianalia
  2021-11-28T10:18:25UTC 2021-11-28T00:18:25-10:00 2021-11-27T23:18:25-11:00  21.31310 -157.88860     137   0.0 Hōkūleʻa
  2021-11-28T10:10:40UTC 2021-11-28T00:10:40-10:00 2021-11-27T23:10:40-11:00  21.31302 -157.88886     126   0.0 Hikianalia
  2021-11-28T09:18:39UTC 2021-11-27T23:18:39-10:00 2021-11-27T22:18:39-11:00  21.31312 -157.88862     298   0.0 Hōkūleʻa
  2021-11-28T09:10:09UTC 2021-11-27T23:10:09-10:00 2021-11-27T22:10:09-11:00  21.31306 -157.88892     308   0.0 Hikianalia
  2021-11-28T08:18:47UTC 2021-11-27T22:18:47-10:00 2021-11-27T21:18:47-11:00  21.31311 -157.88860     118   0.0 Hōkūleʻa
  2021-11-28T08:10:17UTC 2021-11-27T22:10:17-10:00 2021-11-27T21:10:17-11:00  21.31292 -157.88873     130   0.0 Hikianalia
  2021-11-28T07:17:36UTC 2021-11-27T21:17:36-10:00 2021-11-27T20:17:36-11:00  21.31312 -157.88862     270   0.0 Hōkūleʻa
  2021-11-28T07:10:46UTC 2021-11-27T21:10:46-10:00 2021-11-27T20:10:46-11:00  21.31300 -157.88883     180   0.0 Hikianalia
  2021-11-28T06:18:30UTC 2021-11-27T20:18:30-10:00 2021-11-27T19:18:30-11:00  21.31312 -157.88860      90   0.0 Hōkūleʻa
  2021-11-28T06:10:38UTC 2021-11-27T20:10:38-10:00 2021-11-27T19:10:38-11:00  21.31302 -157.88883     105   0.0 Hikianalia
  2021-11-28T05:18:21UTC 2021-11-27T19:18:21-10:00 2021-11-27T18:18:21-11:00  21.31312 -157.88862       0   0.0 Hōkūleʻa
  2021-11-28T05:10:46UTC 2021-11-27T19:10:46-10:00 2021-11-27T18:10:46-11:00  21.31304 -157.88892     148   0.0 Hikianalia
  2021-11-28T04:18:44UTC 2021-11-27T18:18:44-10:00 2021-11-27T17:18:44-11:00  21.31311 -157.88862     157   0.0 Hōkūleʻa
  2021-11-28T04:10:19UTC 2021-11-27T18:10:19-10:00 2021-11-27T17:10:19-11:00  21.31313 -157.88898     280   0.0 Hikianalia
  2021-11-28T03:18:35UTC 2021-11-27T17:18:35-10:00 2021-11-27T16:18:35-11:00  21.31321 -157.88866      63   0.0 Hōkūleʻa
  2021-11-28T03:10:17UTC 2021-11-27T17:10:17-10:00 2021-11-27T16:10:17-11:00  21.31311 -157.88886     342   0.0 Hikianalia
  2021-11-28T02:18:33UTC 2021-11-27T16:18:33-10:00 2021-11-27T15:18:33-11:00  21.31320 -157.88868     312   0.0 Hōkūleʻa
  2021-11-28T02:09:42UTC 2021-11-27T16:09:42-10:00 2021-11-27T15:09:42-11:00  21.31305 -157.88883     154   0.0 Hikianalia
  2021-11-28T01:17:32UTC 2021-11-27T15:17:32-10:00 2021-11-27T14:17:32-11:00  21.31314 -157.88862     242   0.0 Hōkūleʻa
  2021-11-28T01:10:14UTC 2021-11-27T15:10:14-10:00 2021-11-27T14:10:14-11:00  21.31309 -157.88886     339   0.0 Hikianalia
  2021-11-28T00:18:45UTC 2021-11-27T14:18:45-10:00 2021-11-27T13:18:45-11:00  21.31315 -157.88860     141   0.0 Hōkūleʻa
  2021-11-28T00:10:45UTC 2021-11-27T14:10:45-10:00 2021-11-27T13:10:45-11:00  21.31304 -157.88883       0   0.0 Hikianalia
  2021-11-27T23:18:39UTC 2021-11-27T13:18:39-10:00 2021-11-27T12:18:39-11:00  21.31323 -157.88866       0   0.0 Hōkūleʻa
  2021-11-27T23:09:17UTC 2021-11-27T13:09:17-10:00 2021-11-27T12:09:17-11:00  21.31294 -157.88883     170   0.0 Hikianalia
  2021-11-27T22:17:25UTC 2021-11-27T12:17:25-10:00 2021-11-27T11:17:25-11:00  21.31312 -157.88866     242   0.0 Hōkūleʻa
  2021-11-27T22:10:06UTC 2021-11-27T12:10:06-10:00 2021-11-27T11:10:06-11:00  21.31306 -157.88886       0   0.0 Hikianalia
  2021-11-27T21:18:30UTC 2021-11-27T11:18:30-10:00 2021-11-27T10:18:30-11:00  21.31314 -157.88862       0   0.0 Hōkūleʻa
  2021-11-27T21:09:47UTC 2021-11-27T11:09:47-10:00 2021-11-27T10:09:47-11:00  21.31305 -157.88886     339   0.0 Hikianalia
  2021-11-27T20:17:38UTC 2021-11-27T10:17:38-10:00 2021-11-27T09:17:38-11:00  21.31312 -157.88862     117   0.0 Hōkūleʻa
  2021-11-27T20:10:17UTC 2021-11-27T10:10:17-10:00 2021-11-27T09:10:17-11:00  21.31299 -157.88883     118   0.0 Hikianalia
  2021-11-27T19:17:24UTC 2021-11-27T09:17:24-10:00 2021-11-27T08:17:24-11:00  21.31313 -157.88864     284   0.0 Hōkūleʻa
  2021-11-27T19:09:16UTC 2021-11-27T09:09:16-10:00 2021-11-27T08:09:16-11:00  21.31302 -157.88888     270   0.0 Hikianalia
  2021-11-27T18:18:24UTC 2021-11-27T08:18:24-10:00 2021-11-27T07:18:24-11:00  21.31312 -157.88860      90   0.0 Hōkūleʻa
  2021-11-27T18:10:38UTC 2021-11-27T08:10:38-10:00 2021-11-27T07:10:38-11:00  21.31302 -157.88886     242   0.0 Hikianalia
  2021-11-27T17:18:31UTC 2021-11-27T07:18:31-10:00 2021-11-27T06:18:31-11:00  21.31312 -157.88862     244   0.0 Hōkūleʻa
  2021-11-27T17:10:16UTC 2021-11-27T07:10:16-10:00 2021-11-27T06:10:16-11:00  21.31303 -157.88883      62   0.0 Hikianalia
  2021-11-27T16:18:44UTC 2021-11-27T06:18:44-10:00 2021-11-27T05:18:44-11:00  21.31313 -157.88860      64   0.0 Hōkūleʻa
  2021-11-27T16:10:47UTC 2021-11-27T06:10:47-10:00 2021-11-27T05:10:47-11:00  21.31302 -157.88886     138   0.0 Hikianalia
  2021-11-27T15:18:39UTC 2021-11-27T05:18:39-10:00 2021-11-27T04:18:39-11:00  21.31312 -157.88862     285   0.0 Hōkūleʻa
  2021-11-27T15:10:09UTC 2021-11-27T05:10:09-10:00 2021-11-27T04:10:09-11:00  21.31304 -157.88888     306   0.0 Hikianalia
  2021-11-27T14:18:32UTC 2021-11-27T04:18:32-10:00 2021-11-27T03:18:32-11:00  21.31311 -157.88858     119   0.0 Hōkūleʻa
  2021-11-27T14:10:17UTC 2021-11-27T04:10:17-10:00 2021-11-27T03:10:17-11:00  21.31299 -157.88881     109   0.0 Hikianalia
  2021-11-27T13:18:24UTC 2021-11-27T03:18:24-10:00 2021-11-27T02:18:24-11:00  21.31312 -157.88860      62   0.0 Hōkūleʻa
  2021-11-27T13:10:11UTC 2021-11-27T03:10:11-10:00 2021-11-27T02:10:11-11:00  21.31302 -157.88888     270   0.0 Hikianalia
  2021-11-27T12:17:49UTC 2021-11-27T02:17:49-10:00 2021-11-27T01:17:49-11:00  21.31311 -157.88862     180   0.0 Hōkūleʻa
  2021-11-27T12:10:45UTC 2021-11-27T02:10:45-10:00 2021-11-27T01:10:45-11:00  21.31302 -157.88883     205   0.0 Hikianalia
  2021-11-27T11:18:30UTC 2021-11-27T01:18:30-10:00 2021-11-27T00:18:30-11:00  21.31312 -157.88862     298   0.0 Hōkūleʻa
  2021-11-27T11:18:30UTC 2021-11-27T01:18:30-10:00 2021-11-27T00:18:30-11:00  21.31306 -157.88881      32   0.0 Hikianalia
  2021-11-27T10:18:24UTC 2021-11-27T00:18:24-10:00 2021-11-26T23:18:24-11:00  21.31311 -157.88860      90   0.0 Hōkūleʻa
  2021-11-27T10:10:15UTC 2021-11-27T00:10:15-10:00 2021-11-26T23:10:15-11:00  21.31296 -157.88888     180   0.0 Hikianalia
  2021-11-27T09:18:32UTC 2021-11-26T23:18:32-10:00 2021-11-26T22:18:32-11:00  21.31311 -157.88862     180   0.0 Hōkūleʻa
  2021-11-27T09:10:17UTC 2021-11-26T23:10:17-10:00 2021-11-26T22:10:17-11:00  21.31302 -157.88888     285   0.0 Hikianalia
  2021-11-27T08:18:39UTC 2021-11-26T22:18:39-10:00 2021-11-26T21:18:39-11:00  21.31312 -157.88862     180   0.0 Hōkūleʻa
  2021-11-27T08:10:41UTC 2021-11-26T22:10:41-10:00 2021-11-26T21:10:41-11:00  21.31300 -157.88883     119   0.0 Hikianalia
  2021-11-27T07:17:35UTC 2021-11-26T21:17:35-10:00 2021-11-26T20:17:35-11:00  21.31313 -157.88862     296   0.0 Hōkūleʻa
  2021-11-27T07:10:15UTC 2021-11-26T21:10:15-10:00 2021-11-26T20:10:15-11:00  21.31303 -157.88888     270   0.0 Hikianalia
  2021-11-27T06:18:24UTC 2021-11-26T20:18:24-10:00 2021-11-26T19:18:24-11:00  21.31312 -157.88860      62   0.0 Hōkūleʻa
  2021-11-27T06:10:16UTC 2021-11-26T20:10:16-10:00 2021-11-26T19:10:16-11:00  21.31303 -157.88886     327   0.0 Hikianalia
  2021-11-27T05:18:32UTC 2021-11-26T19:18:32-10:00 2021-11-26T18:18:32-11:00  21.31311 -157.88862      15   1.7 Hōkūleʻa
  2021-11-27T05:10:49UTC 2021-11-26T19:10:49-10:00 2021-11-26T18:10:49-11:00  21.31299 -157.88883      32   0.0 Hikianalia
  2021-11-27T04:18:52UTC 2021-11-26T18:18:52-10:00 2021-11-26T17:18:52-11:00  21.28543 -157.89658     335   3.8 Hōkūleʻa
  2021-11-27T04:10:48UTC 2021-11-26T18:10:48-10:00 2021-11-26T17:10:48-11:00  21.31293 -157.88888     264   0.0 Hikianalia
  2021-11-27T03:17:32UTC 2021-11-26T17:17:32-10:00 2021-11-26T16:17:32-11:00  21.22694 -157.86757     166   2.8 Hōkūleʻa
  2021-11-27T03:10:19UTC 2021-11-26T17:10:19-10:00 2021-11-26T16:10:19-11:00  21.31294 -157.88877     133   0.0 Hikianalia
  2021-11-27T02:18:30UTC 2021-11-26T16:18:30-10:00 2021-11-26T15:18:30-11:00  21.27108 -157.87903     168   2.6 Hōkūleʻa
  2021-11-27T02:09:35UTC 2021-11-26T16:09:35-10:00 2021-11-26T15:09:35-11:00  21.31302 -157.88886     327   0.0 Hikianalia
  2021-11-27T01:18:30UTC 2021-11-26T15:18:30-10:00 2021-11-26T14:18:30-11:00  21.31346 -157.88858       0   0.0 Hōkūleʻa
  2021-11-27T01:10:16UTC 2021-11-26T15:10:16-10:00 2021-11-26T14:10:16-11:00  21.31298 -157.88883     223   0.0 Hikianalia
  2021-11-27T00:17:47UTC 2021-11-26T14:17:47-10:00 2021-11-26T13:17:47-11:00  21.31346 -157.88858       0   0.0 Hōkūleʻa
  2021-11-27T00:09:17UTC 2021-11-26T14:09:17-10:00 2021-11-26T13:09:17-11:00  21.31307 -157.88875     118   0.0 Hikianalia
  2021-11-26T23:17:39UTC 2021-11-26T13:17:39-10:00 2021-11-26T12:17:39-11:00  21.31346 -157.88858       0   0.0 Hōkūleʻa
  2021-11-26T23:10:06UTC 2021-11-26T13:10:06-10:00 2021-11-26T12:10:06-11:00  21.31313 -157.88888     335   0.0 Hikianalia
  2021-11-26T22:17:24UTC 2021-11-26T12:17:24-10:00 2021-11-26T11:17:24-11:00  21.31346 -157.88858       0   0.0 Hōkūleʻa
  2021-11-26T22:09:49UTC 2021-11-26T12:09:49-10:00 2021-11-26T11:09:49-11:00  21.31305 -157.88883     250   0.0 Hikianalia
  2021-11-26T21:18:29UTC 2021-11-26T11:18:29-10:00 2021-11-26T10:18:29-11:00  21.31346 -157.88858       0   0.0 Hōkūleʻa
  2021-11-26T21:10:10UTC 2021-11-26T11:10:10-10:00 2021-11-26T10:10:10-11:00  21.31307 -157.88877      70   0.0 Hikianalia
  2021-11-26T20:17:38UTC 2021-11-26T10:17:38-10:00 2021-11-26T09:17:38-11:00  21.31346 -157.88858       0   0.0 Hōkūleʻa
  2021-11-26T20:09:17UTC 2021-11-26T10:09:17-10:00 2021-11-26T09:09:17-11:00  21.31305 -157.88883      90   0.0 Hikianalia
  2021-11-26T19:18:33UTC 2021-11-26T09:18:33-10:00 2021-11-26T08:18:33-11:00  21.31346 -157.88858       0   0.0 Hōkūleʻa
  2021-11-26T19:10:15UTC 2021-11-26T09:10:15-10:00 2021-11-26T08:10:15-11:00  21.31305 -157.88888     308   0.0 Hikianalia
  2021-11-26T18:18:24UTC 2021-11-26T08:18:24-10:00 2021-11-26T07:18:24-11:00  21.31346 -157.88858       0   0.0 Hōkūleʻa
  2021-11-26T18:10:42UTC 2021-11-26T08:10:42-10:00 2021-11-26T07:10:42-11:00  21.31302 -157.88883     180   0.0 Hikianalia
  2021-11-26T17:18:31UTC 2021-11-26T07:18:31-10:00 2021-11-26T06:18:31-11:00  21.31346 -157.88858       0   0.0 Hōkūleʻa
  2021-11-26T17:16:04UTC 2021-11-26T07:16:04-10:00 2021-11-26T06:16:04-11:00  21.31304 -157.88883       0   0.0 Hikianalia
  2021-11-26T16:18:55UTC 2021-11-26T06:18:55-10:00 2021-11-26T05:18:55-11:00  21.31346 -157.88858       0   0.0 Hōkūleʻa
  2021-11-26T16:16:07UTC 2021-11-26T06:16:07-10:00 2021-11-26T05:16:07-11:00  21.31299 -157.88883     180   0.0 Hikianalia
  2021-11-26T15:18:39UTC 2021-11-26T05:18:39-10:00 2021-11-26T04:18:39-11:00  21.31346 -157.88858       0   0.0 Hōkūleʻa
  2021-11-26T15:10:09UTC 2021-11-26T05:10:09-10:00 2021-11-26T04:10:09-11:00  21.31303 -157.88883       0   0.0 Hikianalia
  2021-11-26T14:18:29UTC 2021-11-26T04:18:29-10:00 2021-11-26T03:18:29-11:00  21.31346 -157.88858       0   0.0 Hōkūleʻa
  2021-11-26T14:10:35UTC 2021-11-26T04:10:35-10:00 2021-11-26T03:10:35-11:00  21.31302 -157.88883     129   0.0 Hikianalia
  2021-11-26T13:19:31UTC 2021-11-26T03:19:31-10:00 2021-11-26T02:19:31-11:00  21.31346 -157.88858       0   0.0 Hōkūleʻa
  2021-11-26T13:10:16UTC 2021-11-26T03:10:16-10:00 2021-11-26T02:10:16-11:00  21.31308 -157.88892     309   0.0 Hikianalia
  2021-11-26T12:18:48UTC 2021-11-26T02:18:48-10:00 2021-11-26T01:18:48-11:00  21.31346 -157.88858       0   0.0 Hōkūleʻa
  2021-11-26T12:10:27UTC 2021-11-26T02:10:27-10:00 2021-11-26T01:10:27-11:00  21.31302 -157.88883     180   0.0 Hikianalia
  2021-11-26T11:18:37UTC 2021-11-26T01:18:37-10:00 2021-11-26T00:18:37-11:00  21.31346 -157.88858       0   0.0 Hōkūleʻa
  2021-11-26T11:10:28UTC 2021-11-26T01:10:28-10:00 2021-11-26T00:10:28-11:00  21.31303 -157.88883       0   0.0 Hikianalia
  2021-11-26T10:18:33UTC 2021-11-26T00:18:33-10:00 2021-11-25T23:18:33-11:00  21.31346 -157.88858       0   0.0 Hōkūleʻa
  2021-11-26T10:17:14UTC 2021-11-26T00:17:14-10:00 2021-11-25T23:17:14-11:00  21.31302 -157.88883     180   0.0 Hikianalia
  2021-11-26T09:18:33UTC 2021-11-25T23:18:33-10:00 2021-11-25T22:18:33-11:00  21.31346 -157.88858       0   0.0 Hōkūleʻa
  2021-11-26T09:10:09UTC 2021-11-25T23:10:09-10:00 2021-11-25T22:10:09-11:00  21.31304 -157.88883       0   0.0 Hikianalia
  2021-11-26T08:17:45UTC 2021-11-25T22:17:45-10:00 2021-11-25T21:17:45-11:00  21.31346 -157.88858       0   0.0 Hōkūleʻa
  2021-11-26T08:10:09UTC 2021-11-25T22:10:09-10:00 2021-11-25T21:10:09-11:00  21.31304 -157.88883       0   0.0 Hikianalia
  2021-11-26T07:18:28UTC 2021-11-25T21:18:28-10:00 2021-11-25T20:18:28-11:00  21.31346 -157.88858       0   0.0 Hōkūleʻa
  2021-11-26T07:10:11UTC 2021-11-25T21:10:11-10:00 2021-11-25T20:10:11-11:00  21.31304 -157.88883       0   0.0 Hikianalia
  2021-11-26T06:18:29UTC 2021-11-25T20:18:29-10:00 2021-11-25T19:18:29-11:00  21.31346 -157.88858       0   0.0 Hōkūleʻa
  2021-11-26T06:10:42UTC 2021-11-25T20:10:42-10:00 2021-11-25T19:10:42-11:00  21.31303 -157.88883     180   0.0 Hikianalia
  2021-11-26T05:18:33UTC 2021-11-25T19:18:33-10:00 2021-11-25T18:18:33-11:00  21.31346 -157.88858       0   0.0 Hōkūleʻa
  2021-11-26T05:09:14UTC 2021-11-25T19:09:14-10:00 2021-11-25T18:09:14-11:00  21.31304 -157.88883       0   0.0 Hikianalia
  2021-11-26T04:29:41UTC 2021-11-25T18:29:41-10:00 2021-11-25T17:29:41-11:00  21.31346 -157.88858     341   0.0 Hōkūleʻa
  2021-11-26T04:10:06UTC 2021-11-25T18:10:06-10:00 2021-11-25T17:10:06-11:00  21.31304 -157.88883     290   0.0 Hikianalia
  2021-11-26T03:17:37UTC 2021-11-25T17:17:37-10:00 2021-11-25T16:17:37-11:00  21.31328 -157.88851     161   0.0 Hōkūleʻa
  2021-11-26T03:10:14UTC 2021-11-25T17:10:14-10:00 2021-11-25T16:10:14-11:00  21.31302 -157.88877     118   0.0 Hikianalia
  2021-11-26T02:18:27UTC 2021-11-25T16:18:27-10:00 2021-11-25T15:18:27-11:00  21.31346 -157.88858       0   0.0 Hōkūleʻa
  2021-11-26T02:10:48UTC 2021-11-25T16:10:48-10:00 2021-11-25T15:10:48-11:00  21.31305 -157.88883     180   0.0 Hikianalia
  2021-11-26T01:18:35UTC 2021-11-25T15:18:35-10:00 2021-11-25T14:18:35-11:00  21.31346 -157.88858       0   0.0 Hōkūleʻa
  2021-11-26T01:09:14UTC 2021-11-25T15:09:14-10:00 2021-11-25T14:09:14-11:00  21.31308 -157.88883       0   0.0 Hikianalia
  2021-11-26T00:17:47UTC 2021-11-25T14:17:47-10:00 2021-11-25T13:17:47-11:00  21.31346 -157.88858     337   0.0 Hōkūleʻa
  2021-11-26T00:10:11UTC 2021-11-25T14:10:11-10:00 2021-11-25T13:10:11-11:00  21.31303 -157.88883     137   0.0 Hikianalia
  2021-11-25T23:18:35UTC 2021-11-25T13:18:35-10:00 2021-11-25T12:18:35-11:00  21.31332 -157.88851     157   0.0 Hōkūleʻa
  2021-11-25T23:09:08UTC 2021-11-25T13:09:08-10:00 2021-11-25T12:09:08-11:00  21.31307 -157.88888     328   0.0 Hikianalia
  2021-11-25T22:17:31UTC 2021-11-25T12:17:31-10:00 2021-11-25T11:17:31-11:00  21.31346 -157.88858       0   0.0 Hōkūleʻa
  2021-11-25T22:10:40UTC 2021-11-25T12:10:40-10:00 2021-11-25T11:10:40-11:00  21.31304 -157.88886     223   0.0 Hikianalia
  2021-11-25T21:35:59UTC 2021-11-25T11:35:59-10:00 2021-11-25T10:35:59-11:00  21.31346 -157.88858       0   0.0 Hōkūleʻa
  2021-11-25T21:09:18UTC 2021-11-25T11:09:18-10:00 2021-11-25T10:09:18-11:00  21.31310 -157.88879      43   0.0 Hikianalia
  2021-11-25T20:18:47UTC 2021-11-25T10:18:47-10:00 2021-11-25T09:18:47-11:00  21.31346 -157.88858       0   0.0 Hōkūleʻa
  2021-11-25T20:10:09UTC 2021-11-25T10:10:09-10:00 2021-11-25T09:10:09-11:00  21.31302 -157.88888     270   0.0 Hikianalia
  2021-11-25T19:18:41UTC 2021-11-25T09:18:41-10:00 2021-11-25T08:18:41-11:00  21.31346 -157.88858       0   0.0 Hōkūleʻa
  2021-11-25T19:10:14UTC 2021-11-25T09:10:14-10:00 2021-11-25T08:10:14-11:00  21.31302 -157.88886     242   0.0 Hikianalia
  2021-11-25T18:18:29UTC 2021-11-25T08:18:29-10:00 2021-11-25T07:18:29-11:00  21.31346 -157.88858       0   0.0 Hōkūleʻa
  2021-11-25T18:09:46UTC 2021-11-25T08:09:46-10:00 2021-11-25T07:09:46-11:00  21.31303 -157.88883       0   0.0 Hikianalia
  2021-11-25T17:18:22UTC 2021-11-25T07:18:22-10:00 2021-11-25T06:18:22-11:00  21.31346 -157.88858       0   0.0 Hōkūleʻa
  2021-11-25T17:10:18UTC 2021-11-25T07:10:18-10:00 2021-11-25T06:10:18-11:00  21.31302 -157.88883     180   0.0 Hikianalia
  2021-11-25T16:18:44UTC 2021-11-25T06:18:44-10:00 2021-11-25T05:18:44-11:00  21.31346 -157.88858       0   0.0 Hōkūleʻa
  2021-11-25T16:10:06UTC 2021-11-25T06:10:06-10:00 2021-11-25T05:10:06-11:00  21.31304 -157.88883       0   0.0 Hikianalia
  2021-11-25T15:18:39UTC 2021-11-25T05:18:39-10:00 2021-11-25T04:18:39-11:00  21.31346 -157.88858       0   0.0 Hōkūleʻa
  2021-11-25T15:10:48UTC 2021-11-25T05:10:48-10:00 2021-11-25T04:10:48-11:00  21.31302 -157.88883      90   0.0 Hikianalia
  2021-11-25T14:18:30UTC 2021-11-25T04:18:30-10:00 2021-11-25T03:18:30-11:00  21.31346 -157.88858       0   0.0 Hōkūleʻa
  2021-11-25T14:10:40UTC 2021-11-25T04:10:40-10:00 2021-11-25T03:10:40-11:00  21.31302 -157.88888     241   0.0 Hikianalia
  2021-11-25T13:18:30UTC 2021-11-25T03:18:30-10:00 2021-11-25T02:18:30-11:00  21.31346 -157.88858       0   0.0 Hōkūleʻa
  2021-11-25T13:10:20UTC 2021-11-25T03:10:20-10:00 2021-11-25T02:10:20-11:00  21.31304 -157.88883     136   0.0 Hikianalia
  2021-11-25T12:18:48UTC 2021-11-25T02:18:48-10:00 2021-11-25T01:18:48-11:00  21.31346 -157.88858       0   0.0 Hōkūleʻa
  2021-11-25T12:10:10UTC 2021-11-25T02:10:10-10:00 2021-11-25T01:10:10-11:00  21.31306 -157.88886      20   0.0 Hikianalia
  2021-11-25T11:17:35UTC 2021-11-25T01:17:35-10:00 2021-11-25T00:17:35-11:00  21.31346 -157.88858       0   0.0 Hōkūleʻa
  2021-11-25T11:09:14UTC 2021-11-25T01:09:14-10:00 2021-11-25T00:09:14-11:00  21.31300 -157.88888     241   0.0 Hikianalia
  2021-11-25T10:18:27UTC 2021-11-25T00:18:27-10:00 2021-11-24T23:18:27-11:00  21.31346 -157.88858       0   0.0 Hōkūleʻa
  2021-11-25T10:10:38UTC 2021-11-25T00:10:38-10:00 2021-11-24T23:10:38-11:00  21.31303 -157.88883       0   0.0 Hikianalia
  2021-11-25T09:18:26UTC 2021-11-24T23:18:26-10:00 2021-11-24T22:18:26-11:00  21.31346 -157.88858       0   0.0 Hōkūleʻa
  2021-11-25T09:10:18UTC 2021-11-24T23:10:18-10:00 2021-11-24T22:10:18-11:00  21.31299 -157.88883     270   0.0 Hikianalia
  2021-11-25T08:18:48UTC 2021-11-24T22:18:48-10:00 2021-11-24T21:18:48-11:00  21.31346 -157.88858       0   0.0 Hōkūleʻa
  2021-11-25T08:10:18UTC 2021-11-24T22:10:18-10:00 2021-11-24T21:10:18-11:00  21.31299 -157.88879     133   0.0 Hikianalia
  2021-11-25T07:18:43UTC 2021-11-24T21:18:43-10:00 2021-11-24T20:18:43-11:00  21.31346 -157.88858       0   0.0 Hōkūleʻa
  2021-11-25T07:10:16UTC 2021-11-24T21:10:16-10:00 2021-11-24T20:10:16-11:00  21.31307 -157.88888     323   0.0 Hikianalia
  2021-11-25T06:18:31UTC 2021-11-24T20:18:31-10:00 2021-11-24T19:18:31-11:00  21.31346 -157.88858       0   0.0 Hōkūleʻa
  2021-11-25T06:10:38UTC 2021-11-24T20:10:38-10:00 2021-11-24T19:10:38-11:00  21.31302 -157.88883     118   0.0 Hikianalia
  2021-11-25T05:18:31UTC 2021-11-24T19:18:31-10:00 2021-11-24T18:18:31-11:00  21.31346 -157.88858       0   0.0 Hōkūleʻa
  2021-11-25T05:10:26UTC 2021-11-24T19:10:26-10:00 2021-11-24T18:10:26-11:00  21.31303 -157.88886      61   0.0 Hikianalia
  2021-11-25T04:18:44UTC 2021-11-24T18:18:44-10:00 2021-11-24T17:18:44-11:00  21.31346 -157.88858       0   0.0 Hōkūleʻa
  2021-11-25T04:10:20UTC 2021-11-24T18:10:20-10:00 2021-11-24T17:10:20-11:00  21.31300 -157.88890     242   0.0 Hikianalia
  2021-11-25T03:17:35UTC 2021-11-24T17:17:35-10:00 2021-11-24T16:17:35-11:00  21.31346 -157.88858       0   0.0 Hōkūleʻa
  2021-11-25T03:09:19UTC 2021-11-24T17:09:19-10:00 2021-11-24T16:09:19-11:00  21.31304 -157.88883       0   0.0 Hikianalia
  2021-11-25T02:18:24UTC 2021-11-24T16:18:24-10:00 2021-11-24T15:18:24-11:00  21.31346 -157.88858       0   0.0 Hōkūleʻa
  2021-11-25T02:10:34UTC 2021-11-24T16:10:34-10:00 2021-11-24T15:10:34-11:00  21.31303 -157.88883     255   0.0 Hikianalia
  2021-11-25T01:18:42UTC 2021-11-24T15:18:42-10:00 2021-11-24T14:18:42-11:00  21.31346 -157.88858       0   0.0 Hōkūleʻa
  2021-11-25T01:09:11UTC 2021-11-24T15:09:11-10:00 2021-11-24T14:09:11-11:00  21.31305 -157.88875     119   0.0 Hikianalia
  2021-11-25T00:17:40UTC 2021-11-24T14:17:40-10:00 2021-11-24T13:17:40-11:00  21.31346 -157.88858     338   0.0 Hōkūleʻa
  2021-11-25T00:10:09UTC 2021-11-24T14:10:09-10:00 2021-11-24T13:10:09-11:00  21.31307 -157.88879     100   0.0 Hikianalia
  2021-11-24T23:36:49UTC 2021-11-24T13:36:49-10:00 2021-11-24T12:36:49-11:00  21.31330 -157.88851     158   0.0 Hōkūleʻa
  2021-11-24T23:09:53UTC 2021-11-24T13:09:53-10:00 2021-11-24T12:09:53-11:00  21.31308 -157.88886     270   0.0 Hikianalia
  2021-11-24T22:17:24UTC 2021-11-24T12:17:24-10:00 2021-11-24T11:17:24-11:00  21.31346 -157.88858       0   0.0 Hōkūleʻa
  2021-11-24T22:10:16UTC 2021-11-24T12:10:16-10:00 2021-11-24T11:10:16-11:00  21.31308 -157.88881      80   0.0 Hikianalia
  2021-11-24T21:18:22UTC 2021-11-24T11:18:22-10:00 2021-11-24T10:18:22-11:00  21.31346 -157.88858       0   0.0 Hōkūleʻa
  2021-11-24T21:09:17UTC 2021-11-24T11:09:17-10:00 2021-11-24T10:09:17-11:00  21.31307 -157.88888     306   0.0 Hikianalia
  2021-11-24T20:18:49UTC 2021-11-24T10:18:49-10:00 2021-11-24T09:18:49-11:00  21.31346 -157.88858       0   0.0 Hōkūleʻa
  2021-11-24T20:10:49UTC 2021-11-24T10:10:49-10:00 2021-11-24T09:10:49-11:00  21.31303 -157.88881      25   0.0 Hikianalia
  2021-11-24T19:28:06UTC 2021-11-24T09:28:06-10:00 2021-11-24T08:28:06-11:00  21.31346 -157.88858       0   0.0 Hōkūleʻa
  2021-11-24T19:09:14UTC 2021-11-24T09:09:14-10:00 2021-11-24T08:09:14-11:00  21.31298 -157.88883     241   0.0 Hikianalia
  2021-11-24T18:18:33UTC 2021-11-24T08:18:33-10:00 2021-11-24T07:18:33-11:00  21.31346 -157.88858       0   0.0 Hōkūleʻa
  2021-11-24T18:10:09UTC 2021-11-24T08:10:09-10:00 2021-11-24T07:10:09-11:00  21.31299 -157.88881     137   0.0 Hikianalia
  2021-11-24T17:26:59UTC 2021-11-24T07:26:59-10:00 2021-11-24T06:26:59-11:00  21.31346 -157.88858       0   0.0 Hōkūleʻa
  2021-11-24T17:10:45UTC 2021-11-24T07:10:45-10:00 2021-11-24T06:10:45-11:00  21.31302 -157.88883     270   0.0 Hikianalia
  2021-11-24T16:18:41UTC 2021-11-24T06:18:41-10:00 2021-11-24T05:18:41-11:00  21.31346 -157.88858       0   0.0 Hōkūleʻa
  2021-11-24T16:10:06UTC 2021-11-24T06:10:06-10:00 2021-11-24T05:10:06-11:00  21.31302 -157.88879      74   0.0 Hikianalia
  2021-11-24T15:18:38UTC 2021-11-24T05:18:38-10:00 2021-11-24T04:18:38-11:00  21.31346 -157.88858       0   0.0 Hōkūleʻa
  2021-11-24T15:10:45UTC 2021-11-24T05:10:45-10:00 2021-11-24T04:10:45-11:00  21.31300 -157.88883     180   0.0 Hikianalia
  2021-11-24T14:17:27UTC 2021-11-24T04:17:27-10:00 2021-11-24T03:17:27-11:00  21.31346 -157.88858       0   0.0 Hōkūleʻa
  2021-11-24T14:10:35UTC 2021-11-24T04:10:35-10:00 2021-11-24T03:10:35-11:00  21.31302 -157.88883      75   0.0 Hikianalia
  2021-11-24T13:18:24UTC 2021-11-24T03:18:24-10:00 2021-11-24T02:18:24-11:00  21.31346 -157.88858       0   0.0 Hōkūleʻa
  2021-11-24T13:09:16UTC 2021-11-24T03:09:16-10:00 2021-11-24T02:09:16-11:00  21.31300 -157.88888     279   0.0 Hikianalia
  2021-11-24T12:18:41UTC 2021-11-24T02:18:41-10:00 2021-11-24T01:18:41-11:00  21.31346 -157.88858       0   0.0 Hōkūleʻa
  2021-11-24T12:10:10UTC 2021-11-24T02:10:10-10:00 2021-11-24T01:10:10-11:00  21.31299 -157.88881     137   0.0 Hikianalia
  2021-11-24T11:19:38UTC 2021-11-24T01:19:38-10:00 2021-11-24T00:19:38-11:00  21.31346 -157.88858       0   0.0 Hōkūleʻa
  2021-11-24T11:10:09UTC 2021-11-24T01:10:09-10:00 2021-11-24T00:10:09-11:00  21.31302 -157.88883       0   0.0 Hikianalia
  2021-11-24T10:18:33UTC 2021-11-24T00:18:33-10:00 2021-11-23T23:18:33-11:00  21.31346 -157.88858       0   0.0 Hōkūleʻa
  2021-11-24T10:10:47UTC 2021-11-24T00:10:47-10:00 2021-11-23T23:10:47-11:00  21.31302 -157.88883     105   0.0 Hikianalia
  2021-11-24T09:17:31UTC 2021-11-23T23:17:31-10:00 2021-11-23T22:17:31-11:00  21.31346 -157.88858       0   0.0 Hōkūleʻa
  2021-11-24T09:10:18UTC 2021-11-23T23:10:18-10:00 2021-11-23T22:10:18-11:00  21.31303 -157.88888     285   0.0 Hikianalia
  2021-11-24T08:18:38UTC 2021-11-23T22:18:38-10:00 2021-11-23T21:18:38-11:00  21.31346 -157.88858       0   0.0 Hōkūleʻa
  2021-11-24T08:10:36UTC 2021-11-23T22:10:36-10:00 2021-11-23T21:10:36-11:00  21.31302 -157.88883     254   0.0 Hikianalia
  2021-11-24T07:18:35UTC 2021-11-23T21:18:35-10:00 2021-11-23T20:18:35-11:00  21.31346 -157.88858       0   0.0 Hōkūleʻa
  2021-11-24T07:09:15UTC 2021-11-23T21:09:15-10:00 2021-11-23T20:09:15-11:00  21.31303 -157.88879      42   0.0 Hikianalia
  2021-11-24T06:19:38UTC 2021-11-23T20:19:38-10:00 2021-11-23T19:19:38-11:00  21.31346 -157.88858       0   0.0 Hōkūleʻa
  2021-11-24T06:10:09UTC 2021-11-23T20:10:09-10:00 2021-11-23T19:10:09-11:00  21.31300 -157.88881      90   0.0 Hikianalia
  2021-11-24T05:18:31UTC 2021-11-23T19:18:31-10:00 2021-11-23T18:18:31-11:00  21.31346 -157.88858       0   0.0 Hōkūleʻa
  2021-11-24T05:10:39UTC 2021-11-23T19:10:39-10:00 2021-11-23T18:10:39-11:00  21.31300 -157.88883     180   0.0 Hikianalia
  2021-11-24T04:19:10UTC 2021-11-23T18:19:10-10:00 2021-11-23T17:19:10-11:00  21.31346 -157.88858     340   0.0 Hōkūleʻa
  2021-11-24T04:09:19UTC 2021-11-23T18:09:19-10:00 2021-11-23T17:09:19-11:00  21.31304 -157.88883       0   0.0 Hikianalia
  2021-11-24T03:18:38UTC 2021-11-23T17:18:38-10:00 2021-11-23T16:18:38-11:00  21.31329 -157.88851     160   0.0 Hōkūleʻa
  2021-11-24T03:10:09UTC 2021-11-23T17:10:09-10:00 2021-11-23T16:10:09-11:00  21.31304 -157.88883     180   0.0 Hikianalia
  2021-11-24T02:17:28UTC 2021-11-23T16:17:28-10:00 2021-11-23T15:17:28-11:00  21.31346 -157.88858       0   0.0 Hōkūleʻa
  2021-11-24T02:10:41UTC 2021-11-23T16:10:41-10:00 2021-11-23T15:10:41-11:00  21.31306 -157.88883       0   0.0 Hikianalia
  2021-11-24T01:18:30UTC 2021-11-23T15:18:30-10:00 2021-11-23T14:18:30-11:00  21.31346 -157.88858       0   0.0 Hōkūleʻa
  2021-11-24T01:09:12UTC 2021-11-23T15:09:12-10:00 2021-11-23T14:09:12-11:00  21.31304 -157.88883       0   0.0 Hikianalia
  2021-11-24T00:17:41UTC 2021-11-23T14:17:41-10:00 2021-11-23T13:17:41-11:00  21.31346 -157.88858       0   0.0 Hōkūleʻa
  2021-11-24T00:10:16UTC 2021-11-23T14:10:16-10:00 2021-11-23T13:10:16-11:00  21.31304 -157.88883     155   0.0 Hikianalia
  2021-11-23T23:17:39UTC 2021-11-23T13:17:39-10:00 2021-11-23T12:17:39-11:00  21.31312 -157.88888     328   0.0 Hikianalia
  2021-11-23T23:17:30UTC 2021-11-23T13:17:30-10:00 2021-11-23T12:17:30-11:00  21.31346 -157.88858       0   0.0 Hōkūleʻa
  2021-11-23T22:17:32UTC 2021-11-23T12:17:32-10:00 2021-11-23T11:17:32-11:00  21.31346 -157.88858       0   0.0 Hōkūleʻa
  2021-11-23T22:10:03UTC 2021-11-23T12:10:03-10:00 2021-11-23T11:10:03-11:00  21.31306 -157.88883     180   0.0 Hikianalia
  2021-11-23T21:19:35UTC 2021-11-23T11:19:35-10:00 2021-11-23T10:19:35-11:00  21.31315 -157.88883      61   0.0 Hikianalia
  2021-11-23T21:18:24UTC 2021-11-23T11:18:24-10:00 2021-11-23T10:18:24-11:00  21.31346 -157.88858       0   0.0 Hōkūleʻa
  2021-11-23T20:18:46UTC 2021-11-23T10:18:46-10:00 2021-11-23T09:18:46-11:00  21.31346 -157.88858       0   0.0 Hōkūleʻa
  2021-11-23T20:09:15UTC 2021-11-23T10:09:15-10:00 2021-11-23T09:09:15-11:00  21.31313 -157.88888     328   0.0 Hikianalia
  2021-11-23T19:17:33UTC 2021-11-23T09:17:33-10:00 2021-11-23T08:17:33-11:00  21.31346 -157.88858       0   0.0 Hōkūleʻa
  2021-11-23T19:10:14UTC 2021-11-23T09:10:14-10:00 2021-11-23T08:10:14-11:00  21.31307 -157.88883       0   0.0 Hikianalia
  2021-11-23T18:18:24UTC 2021-11-23T08:18:24-10:00 2021-11-23T07:18:24-11:00  21.31346 -157.88858       0   0.0 Hōkūleʻa
  2021-11-23T18:10:43UTC 2021-11-23T08:10:43-10:00 2021-11-23T07:10:43-11:00  21.31303 -157.88883     180   0.0 Hikianalia
  2021-11-23T17:18:22UTC 2021-11-23T07:18:22-10:00 2021-11-23T06:18:22-11:00  21.31346 -157.88858       0   0.0 Hōkūleʻa
  2021-11-23T17:10:44UTC 2021-11-23T07:10:44-10:00 2021-11-23T06:10:44-11:00  21.31304 -157.88883       0   0.0 Hikianalia
  2021-11-23T16:18:50UTC 2021-11-23T06:18:50-10:00 2021-11-23T05:18:50-11:00  21.31346 -157.88858       0   0.0 Hōkūleʻa
  2021-11-23T16:10:08UTC 2021-11-23T06:10:08-10:00 2021-11-23T05:10:08-11:00  21.31304 -157.88883       0   0.0 Hikianalia
  2021-11-23T15:18:35UTC 2021-11-23T05:18:35-10:00 2021-11-23T04:18:35-11:00  21.31346 -157.88858       0   0.0 Hōkūleʻa
  2021-11-23T15:09:20UTC 2021-11-23T05:09:20-10:00 2021-11-23T04:09:20-11:00  21.31303 -157.88883     180   0.0 Hikianalia
  2021-11-23T14:18:29UTC 2021-11-23T04:18:29-10:00 2021-11-23T03:18:29-11:00  21.31346 -157.88858       0   0.0 Hōkūleʻa
  2021-11-23T14:10:43UTC 2021-11-23T04:10:43-10:00 2021-11-23T03:10:43-11:00  21.31304 -157.88883     118   0.3 Hikianalia
  2021-11-23T13:18:33UTC 2021-11-23T03:18:33-10:00 2021-11-23T02:18:33-11:00  21.31346 -157.88858       0   0.0 Hōkūleʻa
  2021-11-23T13:11:20UTC 2021-11-23T03:11:20-10:00 2021-11-23T02:11:20-11:00  21.31515 -157.89300     299   0.2 Hikianalia
  2021-11-23T12:30:13UTC 2021-11-23T02:30:13-10:00 2021-11-23T01:30:13-11:00  21.31346 -157.88858       0   0.0 Hōkūleʻa
  2021-11-23T12:10:47UTC 2021-11-23T02:10:47-10:00 2021-11-23T01:10:47-11:00  21.31313 -157.88907       0   0.0 Hikianalia
  2021-11-23T11:18:38UTC 2021-11-23T01:18:38-10:00 2021-11-23T00:18:38-11:00  21.31346 -157.88858       0   0.0 Hōkūleʻa
  2021-11-23T11:10:17UTC 2021-11-23T01:10:17-10:00 2021-11-23T00:10:17-11:00  21.31313 -157.88907       0   0.0 Hikianalia
  2021-11-23T10:18:34UTC 2021-11-23T00:18:34-10:00 2021-11-22T23:18:34-11:00  21.31346 -157.88858       0   0.0 Hōkūleʻa
  2021-11-23T10:09:16UTC 2021-11-23T00:09:16-10:00 2021-11-22T23:09:16-11:00  21.31313 -157.88907       0   0.0 Hikianalia
  2021-11-23T09:18:30UTC 2021-11-22T23:18:30-10:00 2021-11-22T22:18:30-11:00  21.31346 -157.88858       0   0.0 Hōkūleʻa
  2021-11-23T09:10:09UTC 2021-11-22T23:10:09-10:00 2021-11-22T22:10:09-11:00  21.31313 -157.88907       0   0.0 Hikianalia
  2021-11-23T08:18:44UTC 2021-11-22T22:18:44-10:00 2021-11-22T21:18:44-11:00  21.31346 -157.88858       0   0.0 Hōkūleʻa
  2021-11-23T08:10:43UTC 2021-11-22T22:10:43-10:00 2021-11-22T21:10:43-11:00  21.31313 -157.88907     236   0.0 Hikianalia
  2021-11-23T07:18:27UTC 2021-11-22T21:18:27-10:00 2021-11-22T20:18:27-11:00  21.31346 -157.88858       0   0.0 Hōkūleʻa
  2021-11-23T07:10:14UTC 2021-11-22T21:10:14-10:00 2021-11-22T20:10:14-11:00  21.31319 -157.88898      56   0.0 Hikianalia
  2021-11-23T06:18:31UTC 2021-11-22T20:18:31-10:00 2021-11-22T19:18:31-11:00  21.31346 -157.88858       0   0.0 Hōkūleʻa
  2021-11-23T06:10:38UTC 2021-11-22T20:10:38-10:00 2021-11-22T19:10:38-11:00  21.31313 -157.88907       0   0.0 Hikianalia
  2021-11-23T05:18:31UTC 2021-11-22T19:18:31-10:00 2021-11-22T18:18:31-11:00  21.31346 -157.88858       0   0.0 Hōkūleʻa
  2021-11-23T05:09:15UTC 2021-11-22T19:09:15-10:00 2021-11-22T18:09:15-11:00  21.31313 -157.88907       0   0.0 Hikianalia
  2021-11-23T04:18:44UTC 2021-11-22T18:18:44-10:00 2021-11-22T17:18:44-11:00  21.31346 -157.88858     340   0.0 Hōkūleʻa
  2021-11-23T04:10:06UTC 2021-11-22T18:10:06-10:00 2021-11-22T17:10:06-11:00  21.31313 -157.88907       0   0.0 Hikianalia
  2021-11-23T03:17:32UTC 2021-11-22T17:17:32-10:00 2021-11-22T16:17:32-11:00  21.31329 -157.88851     160   0.0 Hōkūleʻa
  2021-11-23T03:10:17UTC 2021-11-22T17:10:17-10:00 2021-11-22T16:10:17-11:00  21.31313 -157.88907       0   0.0 Hikianalia
  2021-11-23T02:18:21UTC 2021-11-22T16:18:21-10:00 2021-11-22T15:18:21-11:00  21.31346 -157.88858       0   0.0 Hōkūleʻa
  2021-11-23T02:11:14UTC 2021-11-22T16:11:14-10:00 2021-11-22T15:11:14-11:00  21.31313 -157.88907       0   0.0 Hikianalia
  2021-11-23T01:18:32UTC 2021-11-22T15:18:32-10:00 2021-11-22T14:18:32-11:00  21.31346 -157.88858       0   0.0 Hōkūleʻa
  2021-11-23T01:10:16UTC 2021-11-22T15:10:16-10:00 2021-11-22T14:10:16-11:00  21.31313 -157.88907     217   0.0 Hikianalia
  2021-11-23T00:19:33UTC 2021-11-22T14:19:33-10:00 2021-11-22T13:19:33-11:00  21.31319 -157.88903     322   0.0 Hikianalia
  2021-11-23T00:17:48UTC 2021-11-22T14:17:48-10:00 2021-11-22T13:17:48-11:00  21.31346 -157.88858       0   0.0 Hōkūleʻa
  2021-11-22T23:18:28UTC 2021-11-22T13:18:28-10:00 2021-11-22T12:18:28-11:00  21.31337 -157.88858     180   0.0 Hōkūleʻa
  2021-11-22T23:09:15UTC 2021-11-22T13:09:15-10:00 2021-11-22T12:09:15-11:00  21.31306 -157.88892     118   0.0 Hikianalia
  2021-11-22T22:17:33UTC 2021-11-22T12:17:33-10:00 2021-11-22T11:17:33-11:00  21.31346 -157.88858       0   0.0 Hōkūleʻa
  2021-11-22T22:10:47UTC 2021-11-22T12:10:47-10:00 2021-11-22T11:10:47-11:00  21.31313 -157.88907       0   0.0 Hikianalia
  2021-11-22T21:18:31UTC 2021-11-22T11:18:31-10:00 2021-11-22T10:18:31-11:00  21.31346 -157.88858       0   0.0 Hōkūleʻa
  2021-11-22T21:09:09UTC 2021-11-22T11:09:09-10:00 2021-11-22T10:09:09-11:00  21.31313 -157.88907       0   0.0 Hikianalia
  2021-11-22T20:17:39UTC 2021-11-22T10:17:39-10:00 2021-11-22T09:17:39-11:00  21.31346 -157.88858       0   0.0 Hōkūleʻa
  2021-11-22T20:10:09UTC 2021-11-22T10:10:09-10:00 2021-11-22T09:10:09-11:00  21.31313 -157.88907       0   0.0 Hikianalia
  2021-11-22T19:18:24UTC 2021-11-22T09:18:24-10:00 2021-11-22T08:18:24-11:00  21.31346 -157.88858       0   0.0 Hōkūleʻa
  2021-11-22T19:09:48UTC 2021-11-22T09:09:48-10:00 2021-11-22T08:09:48-11:00  21.31313 -157.88907       0   0.0 Hikianalia
  2021-11-22T18:18:36UTC 2021-11-22T08:18:36-10:00 2021-11-22T07:18:36-11:00  21.31346 -157.88858       0   0.0 Hōkūleʻa
  2021-11-22T18:10:17UTC 2021-11-22T08:10:17-10:00 2021-11-22T07:10:17-11:00  21.31313 -157.88907       0   0.0 Hikianalia
  2021-11-22T17:27:17UTC 2021-11-22T07:27:17-10:00 2021-11-22T06:27:17-11:00  21.31346 -157.88858       0   0.0 Hōkūleʻa
  2021-11-22T17:10:41UTC 2021-11-22T07:10:41-10:00 2021-11-22T06:10:41-11:00  21.31313 -157.88907       0   0.0 Hikianalia
  2021-11-22T16:18:38UTC 2021-11-22T06:18:38-10:00 2021-11-22T05:18:38-11:00  21.31346 -157.88858       0   0.0 Hōkūleʻa
  2021-11-22T16:11:07UTC 2021-11-22T06:11:07-10:00 2021-11-22T05:11:07-11:00  21.31313 -157.88907     289   0.0 Hikianalia
  2021-11-22T15:18:24UTC 2021-11-22T05:18:24-10:00 2021-11-22T04:18:24-11:00  21.31346 -157.88858       0   0.0 Hōkūleʻa
  2021-11-22T15:10:24UTC 2021-11-22T05:10:24-10:00 2021-11-22T04:10:24-11:00  21.31307 -157.88888     109   0.0 Hikianalia
  2021-11-22T14:18:30UTC 2021-11-22T04:18:30-10:00 2021-11-22T03:18:30-11:00  21.31346 -157.88858       0   0.0 Hōkūleʻa
  2021-11-22T14:10:48UTC 2021-11-22T04:10:48-10:00 2021-11-22T03:10:48-11:00  21.31313 -157.88907       0   0.0 Hikianalia
  2021-11-22T13:18:32UTC 2021-11-22T03:18:32-10:00 2021-11-22T02:18:32-11:00  21.31346 -157.88858       0   0.0 Hōkūleʻa
  2021-11-22T13:09:14UTC 2021-11-22T03:09:14-10:00 2021-11-22T02:09:14-11:00  21.31313 -157.88907       0   0.0 Hikianalia
  2021-11-22T12:18:48UTC 2021-11-22T02:18:48-10:00 2021-11-22T01:18:48-11:00  21.31346 -157.88858       0   0.0 Hōkūleʻa
  2021-11-22T12:10:18UTC 2021-11-22T02:10:18-10:00 2021-11-22T01:10:18-11:00  21.31313 -157.88907       0   0.0 Hikianalia
  2021-11-22T11:18:37UTC 2021-11-22T01:18:37-10:00 2021-11-22T00:18:37-11:00  21.31346 -157.88858       0   0.0 Hōkūleʻa
  2021-11-22T11:09:17UTC 2021-11-22T01:09:17-10:00 2021-11-22T00:09:17-11:00  21.31313 -157.88907       0   0.0 Hikianalia
  2021-11-22T10:18:33UTC 2021-11-22T00:18:33-10:00 2021-11-21T23:18:33-11:00  21.31346 -157.88858       0   0.0 Hōkūleʻa
  2021-11-22T10:10:38UTC 2021-11-22T00:10:38-10:00 2021-11-21T23:10:38-11:00  21.31313 -157.88907       0   0.0 Hikianalia
  2021-11-22T09:18:24UTC 2021-11-21T23:18:24-10:00 2021-11-21T22:18:24-11:00  21.31346 -157.88858       0   0.0 Hōkūleʻa
  2021-11-22T09:10:11UTC 2021-11-21T23:10:11-10:00 2021-11-21T22:10:11-11:00  21.31313 -157.88907       0   0.0 Hikianalia
  2021-11-22T08:29:49UTC 2021-11-21T22:29:49-10:00 2021-11-21T21:29:49-11:00  21.31346 -157.88858       0   0.0 Hōkūleʻa
  2021-11-22T08:10:15UTC 2021-11-21T22:10:15-10:00 2021-11-21T21:10:15-11:00  21.31313 -157.88907       0   0.0 Hikianalia
  2021-11-22T07:17:36UTC 2021-11-21T21:17:36-10:00 2021-11-21T20:17:36-11:00  21.31346 -157.88858       0   0.0 Hōkūleʻa
  2021-11-22T07:10:16UTC 2021-11-21T21:10:16-10:00 2021-11-21T20:10:16-11:00  21.31313 -157.88907       0   0.0 Hikianalia
  2021-11-22T06:18:25UTC 2021-11-21T20:18:25-10:00 2021-11-21T19:18:25-11:00  21.31346 -157.88858       0   0.0 Hōkūleʻa
  2021-11-22T06:10:38UTC 2021-11-21T20:10:38-10:00 2021-11-21T19:10:38-11:00  21.31313 -157.88907       0   0.0 Hikianalia
  2021-11-22T05:18:25UTC 2021-11-21T19:18:25-10:00 2021-11-21T18:18:25-11:00  21.31346 -157.88858       0   0.0 Hōkūleʻa
  2021-11-22T05:10:17UTC 2021-11-21T19:10:17-10:00 2021-11-21T18:10:17-11:00  21.31313 -157.88907       0   0.0 Hikianalia
  2021-11-22T04:17:41UTC 2021-11-21T18:17:41-10:00 2021-11-21T17:17:41-11:00  21.31346 -157.88858     332   0.0 Hōkūleʻa
  2021-11-22T04:09:14UTC 2021-11-21T18:09:14-10:00 2021-11-21T17:09:14-11:00  21.31313 -157.88907       0   0.0 Hikianalia
  2021-11-22T03:18:29UTC 2021-11-21T17:18:29-10:00 2021-11-21T16:18:29-11:00  21.31330 -157.88849     152   0.0 Hōkūleʻa
  2021-11-22T03:18:16UTC 2021-11-21T17:18:16-10:00 2021-11-21T16:18:16-11:00  21.31313 -157.88907       0   0.0 Hikianalia
  2021-11-22T02:18:30UTC 2021-11-21T16:18:30-10:00 2021-11-21T15:18:30-11:00  21.31346 -157.88858       0   0.0 Hōkūleʻa
  2021-11-22T02:10:40UTC 2021-11-21T16:10:40-10:00 2021-11-21T15:10:40-11:00  21.31313 -157.88907       0   0.0 Hikianalia
  2021-11-22T01:17:33UTC 2021-11-21T15:17:33-10:00 2021-11-21T14:17:33-11:00  21.31346 -157.88858       0   0.0 Hōkūleʻa
  2021-11-22T01:09:16UTC 2021-11-21T15:09:16-10:00 2021-11-21T14:09:16-11:00  21.31313 -157.88907       0   0.0 Hikianalia
  2021-11-22T00:18:41UTC 2021-11-21T14:18:41-10:00 2021-11-21T13:18:41-11:00  21.31346 -157.88858     343   0.0 Hōkūleʻa
  2021-11-22T00:09:09UTC 2021-11-21T14:09:09-10:00 2021-11-21T13:09:09-11:00  21.31313 -157.88907       0   0.0 Hikianalia
  2021-11-21T23:17:45UTC 2021-11-21T13:17:45-10:00 2021-11-21T12:17:45-11:00  21.31333 -157.88853     163   0.0 Hōkūleʻa
  2021-11-21T23:10:09UTC 2021-11-21T13:10:09-10:00 2021-11-21T12:10:09-11:00  21.31313 -157.88907       0   0.0 Hikianalia
  2021-11-21T22:18:30UTC 2021-11-21T12:18:30-10:00 2021-11-21T11:18:30-11:00  21.31346 -157.88858       0   0.0 Hōkūleʻa
  2021-11-21T22:09:46UTC 2021-11-21T12:09:46-10:00 2021-11-21T11:09:46-11:00  21.31313 -157.88907       0   0.0 Hikianalia
  2021-11-21T21:26:36UTC 2021-11-21T11:26:36-10:00 2021-11-21T10:26:36-11:00  21.31346 -157.88858       0   0.0 Hōkūleʻa
  2021-11-21T21:09:08UTC 2021-11-21T11:09:08-10:00 2021-11-21T10:09:08-11:00  21.31313 -157.88907       0   0.0 Hikianalia
  2021-11-21T20:18:50UTC 2021-11-21T10:18:50-10:00 2021-11-21T09:18:50-11:00  21.31346 -157.88858       0   0.0 Hōkūleʻa
  2021-11-21T20:10:17UTC 2021-11-21T10:10:17-10:00 2021-11-21T09:10:17-11:00  21.31313 -157.88907       0   0.0 Hikianalia
  2021-11-21T19:17:26UTC 2021-11-21T09:17:26-10:00 2021-11-21T08:17:26-11:00  21.31346 -157.88858       0   0.0 Hōkūleʻa
  2021-11-21T19:10:15UTC 2021-11-21T09:10:15-10:00 2021-11-21T08:10:15-11:00  21.31313 -157.88907       0   0.0 Hikianalia
  2021-11-21T18:23:44UTC 2021-11-21T08:23:44-10:00 2021-11-21T07:23:44-11:00  21.31313 -157.88907     320   0.0 Hikianalia
  2021-11-21T18:18:24UTC 2021-11-21T08:18:24-10:00 2021-11-21T07:18:24-11:00  21.31346 -157.88858       0   0.0 Hōkūleʻa
  2021-11-21T17:18:30UTC 2021-11-21T07:18:30-10:00 2021-11-21T06:18:30-11:00  21.31346 -157.88858       0   0.0 Hōkūleʻa
  2021-11-21T17:10:35UTC 2021-11-21T07:10:35-10:00 2021-11-21T06:10:35-11:00  21.31304 -157.88898     140   0.0 Hikianalia
  2021-11-21T16:18:45UTC 2021-11-21T06:18:45-10:00 2021-11-21T05:18:45-11:00  21.31346 -157.88858      15   0.0 Hōkūleʻa
  2021-11-21T16:10:07UTC 2021-11-21T06:10:07-10:00 2021-11-21T05:10:07-11:00  21.31313 -157.88907       0   0.0 Hikianalia
  2021-11-21T15:18:30UTC 2021-11-21T05:18:30-10:00 2021-11-21T04:18:30-11:00  21.31330 -157.88862     195   0.0 Hōkūleʻa
  2021-11-21T15:10:17UTC 2021-11-21T05:10:17-10:00 2021-11-21T04:10:17-11:00  21.31313 -157.88907       0   0.0 Hikianalia
  2021-11-21T14:18:37UTC 2021-11-21T04:18:37-10:00 2021-11-21T03:18:37-11:00  21.31346 -157.88858       0   0.0 Hōkūleʻa
  2021-11-21T14:09:42UTC 2021-11-21T04:09:42-10:00 2021-11-21T03:09:42-11:00  21.31313 -157.88907     291   0.0 Hikianalia
  2021-11-21T13:18:32UTC 2021-11-21T03:18:32-10:00 2021-11-21T02:18:32-11:00  21.31346 -157.88858       0   0.0 Hōkūleʻa
  2021-11-21T13:10:07UTC 2021-11-21T03:10:07-10:00 2021-11-21T02:10:07-11:00  21.31308 -157.88892     111   0.0 Hikianalia
  2021-11-21T12:18:41UTC 2021-11-21T02:18:41-10:00 2021-11-21T01:18:41-11:00  21.31346 -157.88858       0   0.0 Hōkūleʻa
  2021-11-21T12:10:19UTC 2021-11-21T02:10:19-10:00 2021-11-21T01:10:19-11:00  21.31313 -157.88907       0   0.0 Hikianalia
  2021-11-21T11:18:21UTC 2021-11-21T01:18:21-10:00 2021-11-21T00:18:21-11:00  21.31346 -157.88858       0   0.0 Hōkūleʻa
  2021-11-21T11:10:09UTC 2021-11-21T01:10:09-10:00 2021-11-21T00:10:09-11:00  21.31313 -157.88907       0   0.0 Hikianalia
  2021-11-21T10:18:34UTC 2021-11-21T00:18:34-10:00 2021-11-20T23:18:34-11:00  21.31346 -157.88858       0   0.0 Hōkūleʻa
  2021-11-21T10:10:47UTC 2021-11-21T00:10:47-10:00 2021-11-20T23:10:47-11:00  21.31313 -157.88907       0   0.0 Hikianalia
  2021-11-21T09:18:30UTC 2021-11-20T23:18:30-10:00 2021-11-20T22:18:30-11:00  21.31346 -157.88858       0   0.0 Hōkūleʻa
  2021-11-21T09:09:18UTC 2021-11-20T23:09:18-10:00 2021-11-20T22:09:18-11:00  21.31313 -157.88907       0   0.0 Hikianalia
  2021-11-21T08:17:49UTC 2021-11-20T22:17:49-10:00 2021-11-20T21:17:49-11:00  21.31346 -157.88858       0   0.0 Hōkūleʻa
  2021-11-21T08:10:18UTC 2021-11-20T22:10:18-10:00 2021-11-20T21:10:18-11:00  21.31313 -157.88907     133   0.0 Hikianalia
  2021-11-21T07:18:27UTC 2021-11-20T21:18:27-10:00 2021-11-20T20:18:27-11:00  21.31346 -157.88858       0   0.0 Hōkūleʻa
  2021-11-21T07:10:14UTC 2021-11-20T21:10:14-10:00 2021-11-20T20:10:14-11:00  21.31321 -157.88916     313   0.0 Hikianalia
  2021-11-21T06:18:30UTC 2021-11-20T20:18:30-10:00 2021-11-20T19:18:30-11:00  21.31346 -157.88858       0   0.0 Hōkūleʻa
  2021-11-21T06:10:46UTC 2021-11-20T20:10:46-10:00 2021-11-20T19:10:46-11:00  21.31313 -157.88907       0   0.0 Hikianalia
  2021-11-21T05:18:27UTC 2021-11-20T19:18:27-10:00 2021-11-20T18:18:27-11:00  21.31346 -157.88858       0   0.0 Hōkūleʻa
  2021-11-21T05:10:08UTC 2021-11-20T19:10:08-10:00 2021-11-20T18:10:08-11:00  21.31313 -157.88907       0   0.0 Hikianalia
  2021-11-21T04:18:59UTC 2021-11-20T18:18:59-10:00 2021-11-20T17:18:59-11:00  21.31346 -157.88858       9   0.0 Hōkūleʻa
  2021-11-21T04:10:15UTC 2021-11-20T18:10:15-10:00 2021-11-20T17:10:15-11:00  21.31313 -157.88907       0   0.0 Hikianalia
  2021-11-21T03:18:39UTC 2021-11-20T17:18:39-10:00 2021-11-20T16:18:39-11:00  21.31333 -157.88860     189   0.0 Hōkūleʻa
  2021-11-21T03:10:18UTC 2021-11-20T17:10:18-10:00 2021-11-20T16:10:18-11:00  21.31313 -157.88907       0   0.0 Hikianalia
  2021-11-21T02:18:22UTC 2021-11-20T16:18:22-10:00 2021-11-20T15:18:22-11:00  21.31346 -157.88858       0   0.0 Hōkūleʻa
  2021-11-21T02:10:47UTC 2021-11-20T16:10:47-10:00 2021-11-20T15:10:47-11:00  21.31313 -157.88907       0   0.0 Hikianalia
  2021-11-21T01:17:32UTC 2021-11-20T15:17:32-10:00 2021-11-20T14:17:32-11:00  21.31346 -157.88858       0   0.0 Hōkūleʻa
  2021-11-21T01:09:44UTC 2021-11-20T15:09:44-10:00 2021-11-20T14:09:44-11:00  21.31313 -157.88907       0   0.0 Hikianalia
  2021-11-21T00:17:39UTC 2021-11-20T14:17:39-10:00 2021-11-20T13:17:39-11:00  21.31346 -157.88858     351   0.0 Hōkūleʻa
  2021-11-21T00:10:18UTC 2021-11-20T14:10:18-10:00 2021-11-20T13:10:18-11:00  21.31313 -157.88907       0   0.0 Hikianalia
  2021-11-20T23:18:28UTC 2021-11-20T13:18:28-10:00 2021-11-20T12:18:28-11:00  21.31334 -157.88856     171   0.0 Hōkūleʻa
  2021-11-20T23:09:43UTC 2021-11-20T13:09:43-10:00 2021-11-20T12:09:43-11:00  21.31313 -157.88907     285   0.0 Hikianalia
  2021-11-20T22:17:33UTC 2021-11-20T12:17:33-10:00 2021-11-20T11:17:33-11:00  21.31346 -157.88858       0   0.0 Hōkūleʻa
  2021-11-20T22:16:25UTC 2021-11-20T12:16:25-10:00 2021-11-20T11:16:25-11:00  21.31311 -157.88898     105   0.0 Hikianalia
  2021-11-20T21:17:23UTC 2021-11-20T11:17:23-10:00 2021-11-20T10:17:23-11:00  21.31346 -157.88858       0   0.0 Hōkūleʻa
  2021-11-20T21:10:18UTC 2021-11-20T11:10:18-10:00 2021-11-20T10:10:18-11:00  21.31313 -157.88907       0   0.0 Hikianalia
  2021-11-20T20:18:47UTC 2021-11-20T10:18:47-10:00 2021-11-20T09:18:47-11:00  21.31346 -157.88858       0   0.0 Hōkūleʻa
  2021-11-20T20:09:38UTC 2021-11-20T10:09:38-10:00 2021-11-20T09:09:38-11:00  21.31313 -157.88907     301   0.0 Hikianalia
  2021-11-20T19:17:38UTC 2021-11-20T09:17:38-10:00 2021-11-20T08:17:38-11:00  21.31346 -157.88858       0   0.0 Hōkūleʻa
  2021-11-20T19:10:11UTC 2021-11-20T09:10:11-10:00 2021-11-20T08:10:11-11:00  21.31305 -157.88892     121   0.0 Hikianalia
  2021-11-20T18:18:24UTC 2021-11-20T08:18:24-10:00 2021-11-20T07:18:24-11:00  21.31346 -157.88858       0   0.0 Hōkūleʻa
  2021-11-20T18:10:13UTC 2021-11-20T08:10:13-10:00 2021-11-20T07:10:13-11:00  21.31313 -157.88907     314   0.0 Hikianalia
  2021-11-20T17:19:31UTC 2021-11-20T07:19:31-10:00 2021-11-20T06:19:31-11:00  21.31346 -157.88858       0   0.0 Hōkūleʻa
  2021-11-20T17:10:07UTC 2021-11-20T07:10:07-10:00 2021-11-20T06:10:07-11:00  21.31299 -157.88892     134   0.0 Hikianalia
  2021-11-20T16:18:49UTC 2021-11-20T06:18:49-10:00 2021-11-20T05:18:49-11:00  21.31346 -157.88858       0   0.0 Hōkūleʻa
  2021-11-20T16:10:46UTC 2021-11-20T06:10:46-10:00 2021-11-20T05:10:46-11:00  21.31313 -157.88907       0   0.0 Hikianalia
  2021-11-20T15:17:49UTC 2021-11-20T05:17:49-10:00 2021-11-20T04:17:49-11:00  21.31346 -157.88858       0   0.0 Hōkūleʻa
  2021-11-20T15:10:46UTC 2021-11-20T05:10:46-10:00 2021-11-20T04:10:46-11:00  21.31313 -157.88907       0   0.0 Hikianalia
  2021-11-20T14:18:30UTC 2021-11-20T04:18:30-10:00 2021-11-20T03:18:30-11:00  21.31346 -157.88858       0   0.0 Hōkūleʻa
  2021-11-20T14:09:08UTC 2021-11-20T04:09:08-10:00 2021-11-20T03:09:08-11:00  21.31313 -157.88907     295   0.0 Hikianalia
  2021-11-20T13:19:25UTC 2021-11-20T03:19:25-10:00 2021-11-20T02:19:25-11:00  21.31346 -157.88858       0   0.0 Hōkūleʻa
  2021-11-20T13:10:06UTC 2021-11-20T03:10:06-10:00 2021-11-20T02:10:06-11:00  21.31305 -157.88888      83   0.0 Hikianalia
  2021-11-20T12:18:48UTC 2021-11-20T02:18:48-10:00 2021-11-20T01:18:48-11:00  21.31346 -157.88858       0   0.0 Hōkūleʻa
  2021-11-20T12:10:46UTC 2021-11-20T02:10:46-10:00 2021-11-20T01:10:46-11:00  21.31304 -157.88896     133   0.0 Hikianalia
  2021-11-20T11:18:30UTC 2021-11-20T01:18:30-10:00 2021-11-20T00:18:30-11:00  21.31346 -157.88858       0   0.0 Hōkūleʻa
  2021-11-20T11:10:09UTC 2021-11-20T01:10:09-10:00 2021-11-20T00:10:09-11:00  21.31313 -157.88907       0   0.0 Hikianalia
  2021-11-20T10:18:34UTC 2021-11-20T00:18:34-10:00 2021-11-19T23:18:34-11:00  21.31346 -157.88858       0   0.0 Hōkūleʻa
  2021-11-20T10:10:07UTC 2021-11-20T00:10:07-10:00 2021-11-19T23:10:07-11:00  21.31313 -157.88907       0   0.0 Hikianalia
  2021-11-20T09:18:30UTC 2021-11-19T23:18:30-10:00 2021-11-19T22:18:30-11:00  21.31346 -157.88858       0   0.0 Hōkūleʻa
  2021-11-20T09:10:09UTC 2021-11-19T23:10:09-10:00 2021-11-19T22:10:09-11:00  21.31313 -157.88907       0   0.0 Hikianalia
  2021-11-20T08:17:46UTC 2021-11-19T22:17:46-10:00 2021-11-19T21:17:46-11:00  21.31346 -157.88858       0   0.0 Hōkūleʻa
  2021-11-20T08:09:47UTC 2021-11-19T22:09:47-10:00 2021-11-19T21:09:47-11:00  21.31313 -157.88907       0   0.0 Hikianalia
  2021-11-20T07:18:33UTC 2021-11-19T21:18:33-10:00 2021-11-19T20:18:33-11:00  21.31346 -157.88858     155   0.0 Hōkūleʻa
  2021-11-20T07:10:14UTC 2021-11-19T21:10:14-10:00 2021-11-19T20:10:14-11:00  21.31313 -157.88907       0   0.0 Hikianalia
  2021-11-20T06:19:42UTC 2021-11-19T20:19:42-10:00 2021-11-19T19:19:42-11:00  21.31354 -157.88862       0   0.0 Hōkūleʻa
  2021-11-20T06:10:44UTC 2021-11-19T20:10:44-10:00 2021-11-19T19:10:44-11:00  21.31313 -157.88907       0   0.0 Hikianalia
  2021-11-20T05:18:32UTC 2021-11-19T19:18:32-10:00 2021-11-19T18:18:32-11:00  21.31354 -157.88862       0   0.0 Hōkūleʻa
  2021-11-20T05:10:16UTC 2021-11-19T19:10:16-10:00 2021-11-19T18:10:16-11:00  21.31313 -157.88907       0   0.0 Hikianalia
  2021-11-20T04:18:47UTC 2021-11-19T18:18:47-10:00 2021-11-19T17:18:47-11:00  21.31354 -157.88862       0   0.0 Hōkūleʻa
  2021-11-20T04:10:09UTC 2021-11-19T18:10:09-10:00 2021-11-19T17:10:09-11:00  21.31313 -157.88907       0   0.0 Hikianalia
  2021-11-20T03:17:38UTC 2021-11-19T17:17:38-10:00 2021-11-19T16:17:38-11:00  21.31354 -157.88862       0   0.0 Hōkūleʻa
  2021-11-20T03:09:15UTC 2021-11-19T17:09:15-10:00 2021-11-19T16:09:15-11:00  21.31313 -157.88907       0   0.0 Hikianalia
  2021-11-20T02:21:32UTC 2021-11-19T16:21:32-10:00 2021-11-19T15:21:32-11:00  21.31313 -157.88907       0   0.0 Hikianalia
  2021-11-20T02:18:30UTC 2021-11-19T16:18:30-10:00 2021-11-19T15:18:30-11:00  21.31354 -157.88862       0   0.0 Hōkūleʻa
  2021-11-20T01:18:31UTC 2021-11-19T15:18:31-10:00 2021-11-19T14:18:31-11:00  21.31354 -157.88862       0   0.0 Hōkūleʻa
  2021-11-20T01:10:47UTC 2021-11-19T15:10:47-10:00 2021-11-19T14:10:47-11:00  21.31313 -157.88907       0   0.0 Hikianalia
  2021-11-20T00:17:47UTC 2021-11-19T14:17:47-10:00 2021-11-19T13:17:47-11:00  21.31354 -157.88862       0   0.0 Hōkūleʻa
  2021-11-20T00:09:17UTC 2021-11-19T14:09:17-10:00 2021-11-19T13:09:17-11:00  21.31313 -157.88907       0   0.0 Hikianalia
  2021-11-19T23:18:30UTC 2021-11-19T13:18:30-10:00 2021-11-19T12:18:30-11:00  21.31354 -157.88862       0   0.0 Hōkūleʻa
  2021-11-19T23:10:15UTC 2021-11-19T13:10:15-10:00 2021-11-19T12:10:15-11:00  21.31313 -157.88907       0   0.0 Hikianalia
  2021-11-19T22:17:33UTC 2021-11-19T12:17:33-10:00 2021-11-19T11:17:33-11:00  21.31354 -157.88862       0   0.0 Hōkūleʻa
  2021-11-19T22:09:44UTC 2021-11-19T12:09:44-10:00 2021-11-19T11:09:44-11:00  21.31313 -157.88907       0   0.0 Hikianalia
  2021-11-19T21:18:33UTC 2021-11-19T11:18:33-10:00 2021-11-19T10:18:33-11:00  21.31354 -157.88862       0   0.0 Hōkūleʻa
  2021-11-19T21:10:17UTC 2021-11-19T11:10:17-10:00 2021-11-19T10:10:17-11:00  21.31313 -157.88907       0   0.0 Hikianalia
  2021-11-19T20:17:46UTC 2021-11-19T10:17:46-10:00 2021-11-19T09:17:46-11:00  21.31354 -157.88862       0   0.0 Hōkūleʻa
  2021-11-19T20:09:08UTC 2021-11-19T10:09:08-10:00 2021-11-19T09:09:08-11:00  21.31313 -157.88907       0   0.0 Hikianalia
  2021-11-19T19:18:26UTC 2021-11-19T09:18:26-10:00 2021-11-19T08:18:26-11:00  21.31354 -157.88862       0   0.0 Hōkūleʻa
  2021-11-19T19:10:15UTC 2021-11-19T09:10:15-10:00 2021-11-19T08:10:15-11:00  21.31313 -157.88907       0   0.0 Hikianalia
  2021-11-19T18:18:31UTC 2021-11-19T08:18:31-10:00 2021-11-19T07:18:31-11:00  21.31354 -157.88862       0   0.0 Hōkūleʻa
  2021-11-19T18:10:46UTC 2021-11-19T08:10:46-10:00 2021-11-19T07:10:46-11:00  21.31313 -157.88907       0   0.0 Hikianalia
  2021-11-19T17:18:47UTC 2021-11-19T07:18:47-10:00 2021-11-19T06:18:47-11:00  21.31354 -157.88862       0   0.0 Hōkūleʻa
  2021-11-19T17:10:17UTC 2021-11-19T07:10:17-10:00 2021-11-19T06:10:17-11:00  21.31313 -157.88907       0   0.0 Hikianalia
  2021-11-19T16:18:24UTC 2021-11-19T06:18:24-10:00 2021-11-19T05:18:24-11:00  21.31354 -157.88862       0   0.0 Hōkūleʻa
  2021-11-19T16:10:08UTC 2021-11-19T06:10:08-10:00 2021-11-19T05:10:08-11:00  21.31313 -157.88907       0   0.0 Hikianalia
  2021-11-19T15:18:29UTC 2021-11-19T05:18:29-10:00 2021-11-19T04:18:29-11:00  21.31354 -157.88862       0   0.0 Hōkūleʻa
  2021-11-19T15:10:13UTC 2021-11-19T05:10:13-10:00 2021-11-19T04:10:13-11:00  21.31313 -157.88907       0   0.0 Hikianalia
  2021-11-19T14:18:57UTC 2021-11-19T04:18:57-10:00 2021-11-19T03:18:57-11:00  21.31354 -157.88862       0   0.0 Hōkūleʻa
  2021-11-19T14:10:49UTC 2021-11-19T04:10:49-10:00 2021-11-19T03:10:49-11:00  21.31313 -157.88907       0   0.0 Hikianalia
  2021-11-19T13:17:34UTC 2021-11-19T03:17:34-10:00 2021-11-19T02:17:34-11:00  21.31354 -157.88862       0   0.0 Hōkūleʻa
  2021-11-19T13:10:23UTC 2021-11-19T03:10:23-10:00 2021-11-19T02:10:23-11:00  21.31313 -157.88907       0   0.0 Hikianalia
  2021-11-19T12:18:29UTC 2021-11-19T02:18:29-10:00 2021-11-19T01:18:29-11:00  21.31354 -157.88862       0   0.0 Hōkūleʻa
  2021-11-19T12:10:26UTC 2021-11-19T02:10:26-10:00 2021-11-19T01:10:26-11:00  21.31313 -157.88907       0   0.0 Hikianalia
  2021-11-19T11:18:29UTC 2021-11-19T01:18:29-10:00 2021-11-19T00:18:29-11:00  21.31354 -157.88862       0   0.0 Hōkūleʻa
  2021-11-19T11:10:18UTC 2021-11-19T01:10:18-10:00 2021-11-19T00:10:18-11:00  21.31313 -157.88907       0   0.0 Hikianalia
  2021-11-19T10:18:43UTC 2021-11-19T00:18:43-10:00 2021-11-18T23:18:43-11:00  21.31354 -157.88862       0   0.0 Hōkūleʻa
  2021-11-19T10:11:13UTC 2021-11-19T00:11:13-10:00 2021-11-18T23:11:13-11:00  21.31313 -157.88907       0   0.0 Hikianalia
  2021-11-19T09:18:30UTC 2021-11-18T23:18:30-10:00 2021-11-18T22:18:30-11:00  21.31354 -157.88862       0   0.0 Hōkūleʻa
  2021-11-19T09:10:09UTC 2021-11-18T23:10:09-10:00 2021-11-18T22:10:09-11:00  21.31313 -157.88907       0   0.0 Hikianalia
  2021-11-19T08:18:33UTC 2021-11-18T22:18:33-10:00 2021-11-18T21:18:33-11:00  21.31354 -157.88862       0   0.0 Hōkūleʻa
  2021-11-19T08:17:04UTC 2021-11-18T22:17:04-10:00 2021-11-18T21:17:04-11:00  21.31313 -157.88907       0   0.0 Hikianalia
  2021-11-19T07:18:37UTC 2021-11-18T21:18:37-10:00 2021-11-18T20:18:37-11:00  21.31354 -157.88862       0   0.0 Hōkūleʻa
  2021-11-19T07:10:15UTC 2021-11-18T21:10:15-10:00 2021-11-18T20:10:15-11:00  21.31313 -157.88907       0   0.0 Hikianalia
  2021-11-19T06:18:47UTC 2021-11-18T20:18:47-10:00 2021-11-18T19:18:47-11:00  21.31354 -157.88862       0   0.0 Hōkūleʻa
  2021-11-19T06:10:52UTC 2021-11-18T20:10:52-10:00 2021-11-18T19:10:52-11:00  21.31313 -157.88907      56   0.0 Hikianalia
  2021-11-19T05:18:38UTC 2021-11-18T19:18:38-10:00 2021-11-18T18:18:38-11:00  21.31354 -157.88862       0   0.0 Hōkūleʻa
  2021-11-19T05:10:09UTC 2021-11-18T19:10:09-10:00 2021-11-18T18:10:09-11:00  21.31308 -157.88916     169   0.0 Hikianalia
  2021-11-19T04:18:33UTC 2021-11-18T18:18:33-10:00 2021-11-18T17:18:33-11:00  21.31354 -157.88862       0   0.0 Hōkūleʻa
  2021-11-19T04:10:21UTC 2021-11-18T18:10:21-10:00 2021-11-18T17:10:21-11:00  21.31329 -157.88920      68   0.2 Hikianalia
  2021-11-19T03:18:32UTC 2021-11-18T17:18:32-10:00 2021-11-18T16:18:32-11:00  21.31354 -157.88862       0   0.0 Hōkūleʻa
  2021-11-19T03:10:22UTC 2021-11-18T17:10:22-10:00 2021-11-18T16:10:22-11:00  21.31179 -157.89326     256   0.3 Hikianalia
  2021-11-19T02:18:56UTC 2021-11-18T16:18:56-10:00 2021-11-18T15:18:56-11:00  21.31354 -157.88862       0   0.0 Hōkūleʻa
  2021-11-19T02:09:45UTC 2021-11-18T16:09:45-10:00 2021-11-18T15:09:45-11:00  21.31294 -157.88836       0   0.0 Hikianalia
  2021-11-19T01:18:37UTC 2021-11-18T15:18:37-10:00 2021-11-18T14:18:37-11:00  21.31354 -157.88862       0   0.0 Hōkūleʻa
  2021-11-19T01:10:16UTC 2021-11-18T15:10:16-10:00 2021-11-18T14:10:16-11:00  21.31294 -157.88836       0   0.0 Hikianalia
  2021-11-19T00:17:32UTC 2021-11-18T14:17:32-10:00 2021-11-18T13:17:32-11:00  21.31354 -157.88862       0   0.0 Hōkūleʻa
  2021-11-19T00:10:17UTC 2021-11-18T14:10:17-10:00 2021-11-18T13:10:17-11:00  21.31294 -157.88836       0   0.0 Hikianalia
  2021-11-18T23:27:43UTC 2021-11-18T13:27:43-10:00 2021-11-18T12:27:43-11:00  21.31354 -157.88862       0   0.0 Hōkūleʻa
  2021-11-18T23:09:13UTC 2021-11-18T13:09:13-10:00 2021-11-18T12:09:13-11:00  21.31294 -157.88836       0   0.0 Hikianalia
  2021-11-18T21:18:24UTC 2021-11-18T11:18:24-10:00 2021-11-18T10:18:24-11:00  21.31354 -157.88862       0   0.0 Hōkūleʻa
  2021-11-18T21:10:17UTC 2021-11-18T11:10:17-10:00 2021-11-18T10:10:17-11:00  21.31294 -157.88836       0   0.0 Hikianalia
  2021-11-18T20:26:35UTC 2021-11-18T10:26:35-10:00 2021-11-18T09:26:35-11:00  21.31354 -157.88862       0   0.0 Hōkūleʻa
  2021-11-18T20:10:15UTC 2021-11-18T10:10:15-10:00 2021-11-18T09:10:15-11:00  21.31294 -157.88836       0   0.0 Hikianalia
  2021-11-18T19:18:32UTC 2021-11-18T09:18:32-10:00 2021-11-18T08:18:32-11:00  21.31354 -157.88862       0   0.0 Hōkūleʻa
  2021-11-18T19:09:08UTC 2021-11-18T09:09:08-10:00 2021-11-18T08:09:08-11:00  21.31294 -157.88836       0   0.0 Hikianalia
  2021-11-18T18:17:49UTC 2021-11-18T08:17:49-10:00 2021-11-18T07:17:49-11:00  21.31354 -157.88862       0   0.0 Hōkūleʻa
  2021-11-18T18:10:38UTC 2021-11-18T08:10:38-10:00 2021-11-18T07:10:38-11:00  21.31294 -157.88836       0   0.0 Hikianalia
  2021-11-18T17:18:30UTC 2021-11-18T07:18:30-10:00 2021-11-18T06:18:30-11:00  21.31354 -157.88862       0   0.0 Hōkūleʻa
  2021-11-18T17:10:09UTC 2021-11-18T07:10:09-10:00 2021-11-18T06:10:09-11:00  21.31294 -157.88836       0   0.0 Hikianalia
  2021-11-18T16:17:24UTC 2021-11-18T06:17:24-10:00 2021-11-18T05:17:24-11:00  21.31354 -157.88862       0   0.0 Hōkūleʻa
  2021-11-18T16:10:55UTC 2021-11-18T06:10:55-10:00 2021-11-18T05:10:55-11:00  21.31294 -157.88836       0   0.0 Hikianalia
  2021-11-18T15:18:23UTC 2021-11-18T05:18:23-10:00 2021-11-18T04:18:23-11:00  21.31354 -157.88862       0   0.0 Hōkūleʻa
  2021-11-18T15:10:10UTC 2021-11-18T05:10:10-10:00 2021-11-18T04:10:10-11:00  21.31294 -157.88836       0   0.0 Hikianalia
  2021-11-18T14:18:40UTC 2021-11-18T04:18:40-10:00 2021-11-18T03:18:40-11:00  21.31354 -157.88862       0   0.0 Hōkūleʻa
  2021-11-18T14:10:46UTC 2021-11-18T04:10:46-10:00 2021-11-18T03:10:46-11:00  21.31294 -157.88836       0   0.0 Hikianalia
  2021-11-18T13:28:50UTC 2021-11-18T03:28:50-10:00 2021-11-18T02:28:50-11:00  21.31354 -157.88862       0   0.0 Hōkūleʻa
  2021-11-18T13:10:07UTC 2021-11-18T03:10:07-10:00 2021-11-18T02:10:07-11:00  21.31294 -157.88836       0   0.0 Hikianalia
  2021-11-18T12:18:24UTC 2021-11-18T02:18:24-10:00 2021-11-18T01:18:24-11:00  21.31354 -157.88862       0   0.0 Hōkūleʻa
  2021-11-18T12:16:31UTC 2021-11-18T02:16:31-10:00 2021-11-18T01:16:31-11:00  21.31294 -157.88836       0   0.0 Hikianalia
  2021-11-18T11:18:21UTC 2021-11-18T01:18:21-10:00 2021-11-18T00:18:21-11:00  21.31354 -157.88862       0   0.0 Hōkūleʻa
  2021-11-18T11:10:08UTC 2021-11-18T01:10:08-10:00 2021-11-18T00:10:08-11:00  21.31294 -157.88836       0   0.0 Hikianalia
  2021-11-18T10:18:47UTC 2021-11-18T00:18:47-10:00 2021-11-17T23:18:47-11:00  21.31354 -157.88862       0   0.0 Hōkūleʻa
  2021-11-18T10:10:41UTC 2021-11-18T00:10:41-10:00 2021-11-17T23:10:41-11:00  21.31294 -157.88836       0   0.0 Hikianalia
  2021-11-18T09:26:28UTC 2021-11-17T23:26:28-10:00 2021-11-17T22:26:28-11:00  21.31354 -157.88862       0   0.0 Hōkūleʻa
  2021-11-18T09:10:18UTC 2021-11-17T23:10:18-10:00 2021-11-17T22:10:18-11:00  21.31294 -157.88836       0   0.0 Hikianalia
  2021-11-18T08:18:43UTC 2021-11-17T22:18:43-10:00 2021-11-17T21:18:43-11:00  21.31354 -157.88862       0   0.0 Hōkūleʻa
  2021-11-18T08:10:16UTC 2021-11-17T22:10:16-10:00 2021-11-17T21:10:16-11:00  21.31294 -157.88836       0   0.0 Hikianalia
  2021-11-18T07:18:20UTC 2021-11-17T21:18:20-10:00 2021-11-17T20:18:20-11:00  21.31354 -157.88862       0   0.0 Hōkūleʻa
  2021-11-18T07:10:39UTC 2021-11-17T21:10:39-10:00 2021-11-17T20:10:39-11:00  21.31294 -157.88836       0   0.0 Hikianalia
  2021-11-18T06:18:49UTC 2021-11-17T20:18:49-10:00 2021-11-17T19:18:49-11:00  21.31354 -157.88862       0   0.0 Hōkūleʻa
  2021-11-18T06:10:17UTC 2021-11-17T20:10:17-10:00 2021-11-17T19:10:17-11:00  21.31294 -157.88836       0   0.0 Hikianalia
  2021-11-18T05:18:29UTC 2021-11-17T19:18:29-10:00 2021-11-17T18:18:29-11:00  21.31354 -157.88862       0   0.0 Hōkūleʻa
  2021-11-18T05:10:38UTC 2021-11-17T19:10:38-10:00 2021-11-17T18:10:38-11:00  21.31294 -157.88836       0   0.0 Hikianalia
  2021-11-18T04:18:30UTC 2021-11-17T18:18:30-10:00 2021-11-17T17:18:30-11:00  21.31354 -157.88862       0   0.0 Hōkūleʻa
  2021-11-18T04:10:15UTC 2021-11-17T18:10:15-10:00 2021-11-17T17:10:15-11:00  21.31294 -157.88836       0   0.0 Hikianalia
  2021-11-18T03:18:22UTC 2021-11-17T17:18:22-10:00 2021-11-17T16:18:22-11:00  21.31354 -157.88862       0   0.0 Hōkūleʻa
  2021-11-18T03:10:19UTC 2021-11-17T17:10:19-10:00 2021-11-17T16:10:19-11:00  21.31294 -157.88836       0   0.0 Hikianalia
  2021-11-18T02:17:47UTC 2021-11-17T16:17:47-10:00 2021-11-17T15:17:47-11:00  21.31354 -157.88862       0   0.0 Hōkūleʻa
  2021-11-18T02:09:47UTC 2021-11-17T16:09:47-10:00 2021-11-17T15:09:47-11:00  21.31294 -157.88836       0   0.0 Hikianalia
  2021-11-18T01:17:26UTC 2021-11-17T15:17:26-10:00 2021-11-17T14:17:26-11:00  21.31354 -157.88862       0   0.0 Hōkūleʻa
  2021-11-18T01:10:06UTC 2021-11-17T15:10:06-10:00 2021-11-17T14:10:06-11:00  21.31294 -157.88836       0   0.0 Hikianalia
  2021-11-18T00:18:33UTC 2021-11-17T14:18:33-10:00 2021-11-17T13:18:33-11:00  21.31354 -157.88862       0   0.0 Hōkūleʻa
  2021-11-18T00:09:48UTC 2021-11-17T14:09:48-10:00 2021-11-17T13:09:48-11:00  21.31294 -157.88836       0   0.0 Hikianalia
  2021-11-17T23:17:26UTC 2021-11-17T13:17:26-10:00 2021-11-17T12:17:26-11:00  21.31354 -157.88862       0   0.0 Hōkūleʻa
  2021-11-17T23:10:43UTC 2021-11-17T13:10:43-10:00 2021-11-17T12:10:43-11:00  21.31294 -157.88836       0   0.0 Hikianalia
  2021-11-17T22:17:49UTC 2021-11-17T12:17:49-10:00 2021-11-17T11:17:49-11:00  21.31354 -157.88862       0   0.0 Hōkūleʻa
  2021-11-17T22:09:15UTC 2021-11-17T12:09:15-10:00 2021-11-17T11:09:15-11:00  21.31294 -157.88836       0   0.0 Hikianalia
  2021-11-17T21:17:24UTC 2021-11-17T11:17:24-10:00 2021-11-17T10:17:24-11:00  21.31354 -157.88862       0   0.0 Hōkūleʻa
  2021-11-17T21:09:09UTC 2021-11-17T11:09:09-10:00 2021-11-17T10:09:09-11:00  21.31294 -157.88836       0   0.0 Hikianalia
  2021-11-17T20:18:25UTC 2021-11-17T10:18:25-10:00 2021-11-17T09:18:25-11:00  21.31354 -157.88862       0   0.0 Hōkūleʻa
  2021-11-17T20:09:40UTC 2021-11-17T10:09:40-10:00 2021-11-17T09:09:40-11:00  21.31294 -157.88836       0   0.0 Hikianalia
  2021-11-17T19:18:33UTC 2021-11-17T09:18:33-10:00 2021-11-17T08:18:33-11:00  21.31354 -157.88862       0   0.0 Hōkūleʻa
  2021-11-17T19:10:39UTC 2021-11-17T09:10:39-10:00 2021-11-17T08:10:39-11:00  21.31294 -157.88836       0   0.0 Hikianalia
  2021-11-17T18:18:58UTC 2021-11-17T08:18:58-10:00 2021-11-17T07:18:58-11:00  21.31354 -157.88862       0   0.0 Hōkūleʻa
  2021-11-17T18:09:14UTC 2021-11-17T08:09:14-10:00 2021-11-17T07:09:14-11:00  21.31294 -157.88836       0   0.0 Hikianalia
  2021-11-17T17:18:38UTC 2021-11-17T07:18:38-10:00 2021-11-17T06:18:38-11:00  21.31354 -157.88862       0   0.0 Hōkūleʻa
  2021-11-17T17:10:09UTC 2021-11-17T07:10:09-10:00 2021-11-17T06:10:09-11:00  21.31294 -157.88836       0   0.0 Hikianalia
  2021-11-17T16:18:33UTC 2021-11-17T06:18:33-10:00 2021-11-17T05:18:33-11:00  21.31354 -157.88862       0   0.0 Hōkūleʻa
  2021-11-17T16:10:44UTC 2021-11-17T06:10:44-10:00 2021-11-17T05:10:44-11:00  21.31294 -157.88836       0   0.0 Hikianalia
  2021-11-17T15:18:31UTC 2021-11-17T05:18:31-10:00 2021-11-17T04:18:31-11:00  21.31354 -157.88862       0   0.0 Hōkūleʻa
  2021-11-17T15:10:16UTC 2021-11-17T05:10:16-10:00 2021-11-17T04:10:16-11:00  21.31294 -157.88836       0   0.0 Hikianalia
  2021-11-17T14:18:45UTC 2021-11-17T04:18:45-10:00 2021-11-17T03:18:45-11:00  21.31354 -157.88862       0   0.0 Hōkūleʻa
  2021-11-17T14:10:09UTC 2021-11-17T04:10:09-10:00 2021-11-17T03:10:09-11:00  21.31294 -157.88836       0   0.0 Hikianalia
  2021-11-17T13:17:30UTC 2021-11-17T03:17:30-10:00 2021-11-17T02:17:30-11:00  21.31354 -157.88862       0   0.0 Hōkūleʻa
  2021-11-17T13:10:06UTC 2021-11-17T03:10:06-10:00 2021-11-17T02:10:06-11:00  21.31294 -157.88836       0   0.0 Hikianalia
  2021-11-17T12:18:24UTC 2021-11-17T02:18:24-10:00 2021-11-17T01:18:24-11:00  21.31354 -157.88862       0   0.0 Hōkūleʻa
  2021-11-17T12:10:46UTC 2021-11-17T02:10:46-10:00 2021-11-17T01:10:46-11:00  21.31294 -157.88836       0   0.0 Hikianalia
  2021-11-17T11:18:30UTC 2021-11-17T01:18:30-10:00 2021-11-17T00:18:30-11:00  21.31354 -157.88862       0   0.0 Hōkūleʻa
  2021-11-17T11:10:14UTC 2021-11-17T01:10:14-10:00 2021-11-17T00:10:14-11:00  21.31294 -157.88836       0   0.0 Hikianalia
  2021-11-17T10:18:48UTC 2021-11-17T00:18:48-10:00 2021-11-16T23:18:48-11:00  21.31354 -157.88862       0   0.0 Hōkūleʻa
  2021-11-17T10:10:16UTC 2021-11-17T00:10:16-10:00 2021-11-16T23:10:16-11:00  21.31294 -157.88836       0   0.0 Hikianalia
  2021-11-17T09:18:33UTC 2021-11-16T23:18:33-10:00 2021-11-16T22:18:33-11:00  21.31354 -157.88862       0   0.0 Hōkūleʻa
  2021-11-17T09:10:09UTC 2021-11-16T23:10:09-10:00 2021-11-16T22:10:09-11:00  21.31294 -157.88836       0   0.0 Hikianalia
  2021-11-17T08:18:29UTC 2021-11-16T22:18:29-10:00 2021-11-16T21:18:29-11:00  21.31354 -157.88862       0   0.0 Hōkūleʻa
  2021-11-17T08:10:48UTC 2021-11-16T22:10:48-10:00 2021-11-16T21:10:48-11:00  21.31294 -157.88836       0   0.0 Hikianalia
  2021-11-17T07:26:22UTC 2021-11-16T21:26:22-10:00 2021-11-16T20:26:22-11:00  21.31354 -157.88862       0   0.0 Hōkūleʻa
  2021-11-17T07:10:14UTC 2021-11-16T21:10:14-10:00 2021-11-16T20:10:14-11:00  21.31294 -157.88836       0   0.0 Hikianalia
  2021-11-17T06:18:46UTC 2021-11-16T20:18:46-10:00 2021-11-16T19:18:46-11:00  21.31354 -157.88862       0   0.0 Hōkūleʻa
  2021-11-17T06:10:46UTC 2021-11-16T20:10:46-10:00 2021-11-16T19:10:46-11:00  21.31294 -157.88836       0   0.0 Hikianalia
  2021-11-17T05:25:32UTC 2021-11-16T19:25:32-10:00 2021-11-16T18:25:32-11:00  21.31354 -157.88862       0   0.0 Hōkūleʻa
  2021-11-17T05:10:16UTC 2021-11-16T19:10:16-10:00 2021-11-16T18:10:16-11:00  21.31294 -157.88836       0   0.0 Hikianalia
  2021-11-17T04:18:34UTC 2021-11-16T18:18:34-10:00 2021-11-16T17:18:34-11:00  21.31354 -157.88862       0   0.0 Hōkūleʻa
  2021-11-17T04:09:17UTC 2021-11-16T18:09:17-10:00 2021-11-16T17:09:17-11:00  21.31294 -157.88836       0   0.0 Hikianalia
  2021-11-17T03:18:24UTC 2021-11-16T17:18:24-10:00 2021-11-16T16:18:24-11:00  21.31354 -157.88862       0   0.0 Hōkūleʻa
  2021-11-17T03:10:37UTC 2021-11-16T17:10:37-10:00 2021-11-16T16:10:37-11:00  21.31294 -157.88836       0   0.0 Hikianalia
  2021-11-17T02:18:47UTC 2021-11-16T16:18:47-10:00 2021-11-16T15:18:47-11:00  21.31354 -157.88862       0   0.0 Hōkūleʻa
  2021-11-17T02:10:18UTC 2021-11-16T16:10:18-10:00 2021-11-16T15:10:18-11:00  21.31294 -157.88836       0   0.0 Hikianalia
  2021-11-17T01:17:32UTC 2021-11-16T15:17:32-10:00 2021-11-16T14:17:32-11:00  21.31354 -157.88862       0   0.0 Hōkūleʻa
  2021-11-17T01:10:12UTC 2021-11-16T15:10:12-10:00 2021-11-16T14:10:12-11:00  21.31294 -157.88836     298   0.0 Hikianalia
  2021-11-17T00:18:31UTC 2021-11-16T14:18:31-10:00 2021-11-16T13:18:31-11:00  21.31354 -157.88862       0   0.0 Hōkūleʻa
  2021-11-17T00:10:44UTC 2021-11-16T14:10:44-10:00 2021-11-16T13:10:44-11:00  21.31292 -157.88832     141   0.0 Hikianalia
  2021-11-16T23:20:06UTC 2021-11-16T13:20:06-10:00 2021-11-16T12:20:06-11:00  21.31307 -157.88845     341   0.0 Hikianalia
  2021-11-16T23:17:21UTC 2021-11-16T13:17:21-10:00 2021-11-16T12:17:21-11:00  21.31354 -157.88862       0   0.0 Hōkūleʻa
  2021-11-16T22:18:14UTC 2021-11-16T12:18:14-10:00 2021-11-16T11:18:14-11:00  21.31354 -157.88862       0   0.0 Hōkūleʻa
  2021-11-16T22:09:14UTC 2021-11-16T12:09:14-10:00 2021-11-16T11:09:14-11:00  21.31295 -157.88841     328   0.0 Hikianalia
  2021-11-16T21:19:50UTC 2021-11-16T11:19:50-10:00 2021-11-16T10:19:50-11:00  21.31292 -157.88838     263   0.0 Hikianalia
  2021-11-16T21:18:30UTC 2021-11-16T11:18:30-10:00 2021-11-16T10:18:30-11:00  21.31354 -157.88862       0   0.0 Hōkūleʻa
  2021-11-16T20:17:31UTC 2021-11-16T10:17:31-10:00 2021-11-16T09:17:31-11:00  21.31354 -157.88862       0   0.0 Hōkūleʻa
  2021-11-16T20:09:25UTC 2021-11-16T10:09:25-10:00 2021-11-16T09:09:25-11:00  21.31294 -157.88821      90   0.0 Hikianalia
  2021-11-16T19:18:53UTC 2021-11-16T09:18:53-10:00 2021-11-16T08:18:53-11:00  21.31294 -157.88841       0   0.0 Hikianalia
  2021-11-16T19:18:25UTC 2021-11-16T09:18:25-10:00 2021-11-16T08:18:25-11:00  21.31354 -157.88862       0   0.0 Hōkūleʻa
  2021-11-16T18:18:47UTC 2021-11-16T08:18:47-10:00 2021-11-16T07:18:47-11:00  21.31354 -157.88862       0   0.0 Hōkūleʻa
  2021-11-16T18:10:17UTC 2021-11-16T08:10:17-10:00 2021-11-16T07:10:17-11:00  21.31294 -157.88841     292   0.0 Hikianalia
  2021-11-16T17:18:36UTC 2021-11-16T07:18:36-10:00 2021-11-16T06:18:36-11:00  21.31354 -157.88862       0   0.0 Hōkūleʻa
  2021-11-16T17:10:15UTC 2021-11-16T07:10:15-10:00 2021-11-16T06:10:15-11:00  21.31291 -157.88832      52   0.0 Hikianalia
  2021-11-16T16:17:49UTC 2021-11-16T06:17:49-10:00 2021-11-16T05:17:49-11:00  21.31288 -157.88836     148   0.0 Hikianalia
  2021-11-16T16:17:26UTC 2021-11-16T06:17:26-10:00 2021-11-16T05:17:26-11:00  21.31354 -157.88862       0   0.0 Hōkūleʻa
  2021-11-16T15:19:24UTC 2021-11-16T05:19:24-10:00 2021-11-16T04:19:24-11:00  21.31354 -157.88862       0   0.0 Hōkūleʻa
  2021-11-16T15:10:11UTC 2021-11-16T05:10:11-10:00 2021-11-16T04:10:11-11:00  21.31294 -157.88841     298   0.0 Hikianalia
  2021-11-16T14:18:49UTC 2021-11-16T04:18:49-10:00 2021-11-16T03:18:49-11:00  21.31354 -157.88862       0   0.0 Hōkūleʻa
  2021-11-16T14:10:45UTC 2021-11-16T04:10:45-10:00 2021-11-16T03:10:45-11:00  21.31291 -157.88834     270   0.0 Hikianalia
  2021-11-16T13:18:38UTC 2021-11-16T03:18:38-10:00 2021-11-16T02:18:38-11:00  21.31354 -157.88862       0   0.0 Hōkūleʻa
  2021-11-16T13:11:39UTC 2021-11-16T03:11:39-10:00 2021-11-16T02:11:39-11:00  21.31291 -157.88825     108   0.0 Hikianalia
  2021-11-16T12:18:22UTC 2021-11-16T02:18:22-10:00 2021-11-16T01:18:22-11:00  21.31354 -157.88862       0   0.0 Hōkūleʻa
  2021-11-16T12:09:29UTC 2021-11-16T02:09:29-10:00 2021-11-16T01:09:29-11:00  21.31294 -157.88836       0   0.0 Hikianalia
  2021-11-16T11:17:30UTC 2021-11-16T01:17:30-10:00 2021-11-16T00:17:30-11:00  21.31354 -157.88862       0   0.0 Hōkūleʻa
  2021-11-16T11:11:35UTC 2021-11-16T01:11:35-10:00 2021-11-16T00:11:35-11:00  21.31290 -157.88836     212   0.0 Hikianalia
  2021-11-16T10:18:37UTC 2021-11-16T00:18:37-10:00 2021-11-15T23:18:37-11:00  21.31354 -157.88862       0   0.0 Hōkūleʻa
  2021-11-16T10:10:16UTC 2021-11-16T00:10:16-10:00 2021-11-15T23:10:16-11:00  21.31299 -157.88830      25   0.0 Hikianalia
  2021-11-16T09:18:24UTC 2021-11-15T23:18:24-10:00 2021-11-15T22:18:24-11:00  21.31354 -157.88862       0   0.0 Hōkūleʻa
  2021-11-16T09:10:43UTC 2021-11-15T23:10:43-10:00 2021-11-15T22:10:43-11:00  21.31291 -157.88834       0   0.0 Hikianalia
  2021-11-16T08:18:23UTC 2021-11-15T22:18:23-10:00 2021-11-15T21:18:23-11:00  21.31354 -157.88862       0   0.0 Hōkūleʻa
  2021-11-16T08:10:44UTC 2021-11-15T22:10:44-10:00 2021-11-15T21:10:44-11:00  21.31290 -157.88834     153   0.0 Hikianalia
  2021-11-16T07:21:18UTC 2021-11-15T21:21:18-10:00 2021-11-15T20:21:18-11:00  21.31302 -157.88841     331   0.0 Hikianalia
  2021-11-16T07:18:32UTC 2021-11-15T21:18:32-10:00 2021-11-15T20:18:32-11:00  21.31354 -157.88862       0   0.0 Hōkūleʻa
  2021-11-16T06:17:49UTC 2021-11-15T20:17:49-10:00 2021-11-15T19:17:49-11:00  21.31354 -157.88862       0   0.0 Hōkūleʻa
  2021-11-16T06:10:44UTC 2021-11-15T20:10:44-10:00 2021-11-15T19:10:44-11:00  21.31291 -157.88834     119   0.0 Hikianalia
  2021-11-16T05:18:30UTC 2021-11-15T19:18:30-10:00 2021-11-15T18:18:30-11:00  21.31354 -157.88862       0   0.0 Hōkūleʻa
  2021-11-16T05:10:42UTC 2021-11-15T19:10:42-10:00 2021-11-15T18:10:42-11:00  21.31292 -157.88836     290   0.0 Hikianalia
  2021-11-16T04:18:33UTC 2021-11-15T18:18:33-10:00 2021-11-15T17:18:33-11:00  21.31354 -157.88862       0   0.0 Hōkūleʻa
  2021-11-16T04:10:15UTC 2021-11-15T18:10:15-10:00 2021-11-15T17:10:15-11:00  21.31290 -157.88830     340   0.0 Hikianalia
  2021-11-16T03:18:32UTC 2021-11-15T17:18:32-10:00 2021-11-15T16:18:32-11:00  21.31354 -157.88862       0   0.0 Hōkūleʻa
  2021-11-16T03:10:18UTC 2021-11-15T17:10:18-10:00 2021-11-15T16:10:18-11:00  21.31284 -157.88828     145   0.0 Hikianalia
  2021-11-16T02:18:45UTC 2021-11-15T16:18:45-10:00 2021-11-15T15:18:45-11:00  21.31354 -157.88862       0   0.0 Hōkūleʻa
  2021-11-16T02:10:49UTC 2021-11-15T16:10:49-10:00 2021-11-15T15:10:49-11:00  21.31293 -157.88834     241   0.0 Hikianalia
  2021-11-16T01:20:46UTC 2021-11-15T15:20:46-10:00 2021-11-15T14:20:46-11:00  21.31295 -157.88830      75   0.0 Hikianalia
  2021-11-16T01:17:24UTC 2021-11-15T15:17:24-10:00 2021-11-15T14:17:24-11:00  21.31354 -157.88862       0   0.0 Hōkūleʻa
  2021-11-16T00:18:23UTC 2021-11-15T14:18:23-10:00 2021-11-15T13:18:23-11:00  21.31354 -157.88862       0   0.0 Hōkūleʻa
  2021-11-16T00:10:08UTC 2021-11-15T14:10:08-10:00 2021-11-15T13:10:08-11:00  21.31294 -157.88834     334   0.0 Hikianalia
  2021-11-15T23:18:30UTC 2021-11-15T13:18:30-10:00 2021-11-15T12:18:30-11:00  21.31354 -157.88862       0   0.0 Hōkūleʻa
  2021-11-15T23:10:16UTC 2021-11-15T13:10:16-10:00 2021-11-15T12:10:16-11:00  21.31290 -157.88832     147   0.0 Hikianalia
  2021-11-15T22:17:48UTC 2021-11-15T12:17:48-10:00 2021-11-15T11:17:48-11:00  21.31354 -157.88862       0   0.0 Hōkūleʻa
  2021-11-15T22:09:47UTC 2021-11-15T12:09:47-10:00 2021-11-15T11:09:47-11:00  21.31293 -157.88834     296   0.0 Hikianalia
  2021-11-15T21:18:24UTC 2021-11-15T11:18:24-10:00 2021-11-15T10:18:24-11:00  21.31354 -157.88862       0   0.0 Hōkūleʻa
  2021-11-15T21:10:09UTC 2021-11-15T11:10:09-10:00 2021-11-15T10:10:09-11:00  21.31292 -157.88832      90   0.0 Hikianalia
  2021-11-15T20:17:31UTC 2021-11-15T10:17:31-10:00 2021-11-15T09:17:31-11:00  21.31354 -157.88862       0   0.0 Hōkūleʻa
  2021-11-15T20:10:17UTC 2021-11-15T10:10:17-10:00 2021-11-15T09:10:17-11:00  21.31292 -157.88834      90   0.0 Hikianalia
  2021-11-15T19:18:24UTC 2021-11-15T09:18:24-10:00 2021-11-15T08:18:24-11:00  21.31354 -157.88862       0   0.0 Hōkūleʻa
  2021-11-15T19:10:45UTC 2021-11-15T09:10:45-10:00 2021-11-15T08:10:45-11:00  21.31292 -157.88838      31   0.0 Hikianalia
  2021-11-15T18:18:48UTC 2021-11-15T08:18:48-10:00 2021-11-15T07:18:48-11:00  21.31354 -157.88862       0   0.0 Hōkūleʻa
  2021-11-15T18:09:18UTC 2021-11-15T08:09:18-10:00 2021-11-15T07:09:18-11:00  21.31289 -157.88841     298   0.0 Hikianalia
  2021-11-15T17:18:29UTC 2021-11-15T07:18:29-10:00 2021-11-15T06:18:29-11:00  21.31354 -157.88862       0   0.0 Hōkūleʻa
  2021-11-15T17:10:08UTC 2021-11-15T07:10:08-10:00 2021-11-15T06:10:08-11:00  21.31286 -157.88836     180   0.0 Hikianalia
  2021-11-15T16:18:35UTC 2021-11-15T06:18:35-10:00 2021-11-15T05:18:35-11:00  21.31354 -157.88862       0   0.0 Hōkūleʻa
  2021-11-15T16:10:47UTC 2021-11-15T06:10:47-10:00 2021-11-15T05:10:47-11:00  21.31291 -157.88836     180   0.0 Hikianalia
  2021-11-15T15:31:37UTC 2021-11-15T05:31:37-10:00 2021-11-15T04:31:37-11:00  21.31294 -157.88836      33   0.0 Hikianalia
  2021-11-15T15:24:35UTC 2021-11-15T05:24:35-10:00 2021-11-15T04:24:35-11:00  21.31354 -157.88862       0   0.0 Hōkūleʻa
  2021-11-15T14:18:47UTC 2021-11-15T04:18:47-10:00 2021-11-15T03:18:47-11:00  21.31354 -157.88862       0   0.0 Hōkūleʻa
  2021-11-15T14:10:17UTC 2021-11-15T04:10:17-10:00 2021-11-15T03:10:17-11:00  21.31291 -157.88838     335   0.0 Hikianalia
  2021-11-15T13:18:39UTC 2021-11-15T03:18:39-10:00 2021-11-15T02:18:39-11:00  21.31354 -157.88862       0   0.0 Hōkūleʻa
  2021-11-15T13:10:46UTC 2021-11-15T03:10:46-10:00 2021-11-15T02:10:46-11:00  21.31282 -157.88834     199   0.0 Hikianalia
  2021-11-15T12:18:32UTC 2021-11-15T02:18:32-10:00 2021-11-15T01:18:32-11:00  21.31354 -157.88862       0   0.0 Hōkūleʻa
  2021-11-15T12:10:45UTC 2021-11-15T02:10:45-10:00 2021-11-15T01:10:45-11:00  21.31294 -157.88830     153   0.0 Hikianalia
  2021-11-15T11:18:22UTC 2021-11-15T01:18:22-10:00 2021-11-15T00:18:22-11:00  21.31354 -157.88862       0   0.0 Hōkūleʻa
  2021-11-15T11:10:09UTC 2021-11-15T01:10:09-10:00 2021-11-15T00:10:09-11:00  21.31306 -157.88836     353   0.0 Hikianalia
  2021-11-15T10:18:40UTC 2021-11-15T00:18:40-10:00 2021-11-14T23:18:40-11:00  21.31354 -157.88862       0   0.0 Hōkūleʻa
  2021-11-15T10:10:15UTC 2021-11-15T00:10:15-10:00 2021-11-14T23:10:15-11:00  21.31291 -157.88834     180   0.0 Hikianalia
  2021-11-15T09:18:29UTC 2021-11-14T23:18:29-10:00 2021-11-14T22:18:29-11:00  21.31354 -157.88862       0   0.0 Hōkūleʻa
  2021-11-15T09:10:46UTC 2021-11-14T23:10:46-10:00 2021-11-14T22:10:46-11:00  21.31292 -157.88834      17   0.0 Hikianalia
  2021-11-15T08:17:30UTC 2021-11-14T22:17:30-10:00 2021-11-14T21:17:30-11:00  21.31354 -157.88862       0   0.0 Hōkūleʻa
  2021-11-15T08:09:07UTC 2021-11-14T22:09:07-10:00 2021-11-14T21:09:07-11:00  21.31285 -157.88836     180   0.0 Hikianalia
  2021-11-15T07:18:24UTC 2021-11-14T21:18:24-10:00 2021-11-14T20:18:24-11:00  21.31354 -157.88862       0   0.0 Hōkūleʻa
  2021-11-15T07:10:06UTC 2021-11-14T21:10:06-10:00 2021-11-14T20:10:06-11:00  21.31299 -157.88836      43   0.0 Hikianalia
  2021-11-15T06:18:50UTC 2021-11-14T20:18:50-10:00 2021-11-14T19:18:50-11:00  21.31354 -157.88862       0   0.0 Hōkūleʻa
  2021-11-15T06:10:47UTC 2021-11-14T20:10:47-10:00 2021-11-14T19:10:47-11:00  21.31293 -157.88843     230   0.0 Hikianalia
  2021-11-15T05:18:30UTC 2021-11-14T19:18:30-10:00 2021-11-14T18:18:30-11:00  21.31354 -157.88862       0   0.0 Hōkūleʻa
  2021-11-15T05:10:26UTC 2021-11-14T19:10:26-10:00 2021-11-14T18:10:26-11:00  21.31305 -157.88828      27   0.0 Hikianalia
  2021-11-15T04:18:32UTC 2021-11-14T18:18:32-10:00 2021-11-14T17:18:32-11:00  21.31354 -157.88862       0   0.0 Hōkūleʻa
  2021-11-15T04:10:15UTC 2021-11-14T18:10:15-10:00 2021-11-14T17:10:15-11:00  21.31293 -157.88834     126   0.0 Hikianalia
  2021-11-15T03:17:33UTC 2021-11-14T17:17:33-10:00 2021-11-14T16:17:33-11:00  21.31354 -157.88862       0   0.0 Hōkūleʻa
  2021-11-15T03:11:09UTC 2021-11-14T17:11:09-10:00 2021-11-14T16:11:09-11:00  21.31297 -157.88841       0   0.0 Hikianalia
  2021-11-15T02:18:38UTC 2021-11-14T16:18:38-10:00 2021-11-14T15:18:38-11:00  21.31354 -157.88862       0   0.0 Hōkūleʻa
  2021-11-15T02:09:57UTC 2021-11-14T16:09:57-10:00 2021-11-14T15:09:57-11:00  21.31296 -157.88841     317   0.0 Hikianalia
  2021-11-15T01:18:24UTC 2021-11-14T15:18:24-10:00 2021-11-14T14:18:24-11:00  21.31354 -157.88862       0   0.0 Hōkūleʻa
  2021-11-15T01:17:03UTC 2021-11-14T15:17:03-10:00 2021-11-14T14:17:03-11:00  21.31292 -157.88836     299   0.0 Hikianalia
  2021-11-15T00:18:38UTC 2021-11-14T14:18:38-10:00 2021-11-14T13:18:38-11:00  21.31354 -157.88862       0   0.0 Hōkūleʻa
  2021-11-15T00:10:17UTC 2021-11-14T14:10:17-10:00 2021-11-14T13:10:17-11:00  21.31291 -157.88834     119   0.0 Hikianalia
  2021-11-14T23:17:28UTC 2021-11-14T13:17:28-10:00 2021-11-14T12:17:28-11:00  21.31354 -157.88862       0   0.0 Hōkūleʻa
  2021-11-14T23:09:08UTC 2021-11-14T13:09:08-10:00 2021-11-14T12:09:08-11:00  21.31292 -157.88836     223   0.0 Hikianalia
  2021-11-14T22:18:42UTC 2021-11-14T12:18:42-10:00 2021-11-14T11:18:42-11:00  21.31354 -157.88862       0   0.0 Hōkūleʻa
  2021-11-14T22:10:46UTC 2021-11-14T12:10:46-10:00 2021-11-14T11:10:46-11:00  21.31294 -157.88834       0   0.0 Hikianalia
  2021-11-14T21:18:33UTC 2021-11-14T11:18:33-10:00 2021-11-14T10:18:33-11:00  21.31354 -157.88862       0   0.0 Hōkūleʻa
  2021-11-14T21:10:31UTC 2021-11-14T11:10:31-10:00 2021-11-14T10:10:31-11:00  21.31291 -157.88834     119   0.0 Hikianalia
  2021-11-14T20:17:29UTC 2021-11-14T10:17:29-10:00 2021-11-14T09:17:29-11:00  21.31354 -157.88862       0   0.0 Hōkūleʻa
  2021-11-14T20:09:15UTC 2021-11-14T10:09:15-10:00 2021-11-14T09:09:15-11:00  21.31292 -157.88836     104   0.0 Hikianalia
  2021-11-14T19:18:33UTC 2021-11-14T09:18:33-10:00 2021-11-14T08:18:33-11:00  21.31354 -157.88862       0   0.0 Hōkūleʻa
  2021-11-14T19:10:39UTC 2021-11-14T09:10:39-10:00 2021-11-14T08:10:39-11:00  21.31293 -157.88841      62   0.0 Hikianalia
  2021-11-14T18:18:49UTC 2021-11-14T08:18:49-10:00 2021-11-14T07:18:49-11:00  21.31354 -157.88862       0   0.0 Hōkūleʻa
  2021-11-14T18:10:13UTC 2021-11-14T08:10:13-10:00 2021-11-14T07:10:13-11:00  21.31289 -157.88849     277   0.0 Hikianalia
  2021-11-14T17:18:22UTC 2021-11-14T07:18:22-10:00 2021-11-14T06:18:22-11:00  21.31354 -157.88862       0   0.0 Hōkūleʻa
  2021-11-14T17:09:17UTC 2021-11-14T07:09:17-10:00 2021-11-14T06:09:17-11:00  21.31288 -157.88841     242   0.0 Hikianalia
  2021-11-14T16:18:33UTC 2021-11-14T06:18:33-10:00 2021-11-14T05:18:33-11:00  21.31354 -157.88862       0   0.0 Hōkūleʻa
  2021-11-14T16:10:37UTC 2021-11-14T06:10:37-10:00 2021-11-14T05:10:37-11:00  21.31291 -157.88834     148   0.0 Hikianalia
  2021-11-14T15:18:42UTC 2021-11-14T05:18:42-10:00 2021-11-14T04:18:42-11:00  21.31354 -157.88862       0   0.0 Hōkūleʻa
  2021-11-14T15:11:43UTC 2021-11-14T05:11:43-10:00 2021-11-14T04:11:43-11:00  21.31294 -157.88836     309   0.0 Hikianalia
  2021-11-14T14:18:45UTC 2021-11-14T04:18:45-10:00 2021-11-14T03:18:45-11:00  21.31354 -157.88862       0   0.0 Hōkūleʻa
  2021-11-14T14:10:52UTC 2021-11-14T04:10:52-10:00 2021-11-14T03:10:52-11:00  21.31288 -157.88828     129   0.0 Hikianalia
  2021-11-14T13:18:28UTC 2021-11-14T03:18:28-10:00 2021-11-14T02:18:28-11:00  21.31354 -157.88862       0   0.0 Hōkūleʻa
  2021-11-14T13:09:10UTC 2021-11-14T03:09:10-10:00 2021-11-14T02:09:10-11:00  21.31294 -157.88836      44   0.0 Hikianalia
  2021-11-14T12:18:29UTC 2021-11-14T02:18:29-10:00 2021-11-14T01:18:29-11:00  21.31354 -157.88862       0   0.0 Hōkūleʻa
  2021-11-14T12:10:38UTC 2021-11-14T02:10:38-10:00 2021-11-14T01:10:38-11:00  21.31292 -157.88838     224   0.0 Hikianalia
  2021-11-14T11:18:28UTC 2021-11-14T01:18:28-10:00 2021-11-14T00:18:28-11:00  21.31354 -157.88862       0   0.0 Hōkūleʻa
  2021-11-14T11:10:15UTC 2021-11-14T01:10:15-10:00 2021-11-14T00:10:15-11:00  21.31294 -157.88836      26   0.0 Hikianalia
  2021-11-14T10:18:46UTC 2021-11-14T00:18:46-10:00 2021-11-13T23:18:46-11:00  21.31354 -157.88862       0   0.0 Hōkūleʻa
  2021-11-14T10:10:47UTC 2021-11-14T00:10:47-10:00 2021-11-13T23:10:47-11:00  21.31290 -157.88838     191   0.0 Hikianalia
  2021-11-14T09:18:30UTC 2021-11-13T23:18:30-10:00 2021-11-13T22:18:30-11:00  21.31354 -157.88862       0   0.0 Hōkūleʻa
  2021-11-14T09:10:38UTC 2021-11-13T23:10:38-10:00 2021-11-13T22:10:38-11:00  21.31300 -157.88836     298   0.0 Hikianalia
  2021-11-14T08:18:27UTC 2021-11-13T22:18:27-10:00 2021-11-13T21:18:27-11:00  21.31354 -157.88862       0   0.0 Hōkūleʻa
  2021-11-14T08:10:19UTC 2021-11-13T22:10:19-10:00 2021-11-13T21:10:19-11:00  21.31297 -157.88830      63   0.0 Hikianalia
  2021-11-14T07:18:24UTC 2021-11-13T21:18:24-10:00 2021-11-13T20:18:24-11:00  21.31354 -157.88862       0   0.0 Hōkūleʻa
  2021-11-14T07:10:11UTC 2021-11-13T21:10:11-10:00 2021-11-13T20:10:11-11:00  21.31296 -157.88832      55   0.0 Hikianalia
  2021-11-14T06:18:48UTC 2021-11-13T20:18:48-10:00 2021-11-13T19:18:48-11:00  21.31354 -157.88862       0   0.0 Hōkūleʻa
  2021-11-14T06:10:45UTC 2021-11-13T20:10:45-10:00 2021-11-13T19:10:45-11:00  21.31292 -157.88838     216   0.0 Hikianalia
  2021-11-14T05:20:47UTC 2021-11-13T19:20:47-10:00 2021-11-13T18:20:47-11:00  21.31300 -157.88832      32   0.0 Hikianalia
  2021-11-14T05:18:38UTC 2021-11-13T19:18:38-10:00 2021-11-13T18:18:38-11:00  21.31354 -157.88862       0   0.0 Hōkūleʻa
  2021-11-14T04:17:32UTC 2021-11-13T18:17:32-10:00 2021-11-13T17:17:32-11:00  21.31354 -157.88862       0   0.0 Hōkūleʻa
  2021-11-14T04:10:16UTC 2021-11-13T18:10:16-10:00 2021-11-13T17:10:16-11:00  21.31294 -157.88836       0   0.0 Hikianalia
  2021-11-14T03:18:24UTC 2021-11-13T17:18:24-10:00 2021-11-13T16:18:24-11:00  21.31354 -157.88862       0   0.0 Hōkūleʻa
  2021-11-14T03:10:09UTC 2021-11-13T17:10:09-10:00 2021-11-13T16:10:09-11:00  21.31294 -157.88836     335   0.0 Hikianalia
  2021-11-14T02:17:46UTC 2021-11-13T16:17:46-10:00 2021-11-13T15:17:46-11:00  21.31354 -157.88862       0   0.0 Hōkūleʻa
  2021-11-14T02:09:51UTC 2021-11-13T16:09:51-10:00 2021-11-13T15:09:51-11:00  21.31290 -157.88834       0   0.0 Hikianalia
  2021-11-14T01:18:25UTC 2021-11-13T15:18:25-10:00 2021-11-13T14:18:25-11:00  21.31354 -157.88862       0   0.0 Hōkūleʻa
  2021-11-14T01:10:06UTC 2021-11-13T15:10:06-10:00 2021-11-13T14:10:06-11:00  21.31288 -157.88834     180   0.0 Hikianalia
  2021-11-14T00:17:56UTC 2021-11-13T14:17:56-10:00 2021-11-13T13:17:56-11:00  21.31354 -157.88862       0   0.0 Hōkūleʻa
  2021-11-14T00:09:46UTC 2021-11-13T14:09:46-10:00 2021-11-13T13:09:46-11:00  21.31291 -157.88834     160   0.0 Hikianalia
  2021-11-13T23:18:28UTC 2021-11-13T13:18:28-10:00 2021-11-13T12:18:28-11:00  21.31354 -157.88862       0   0.0 Hōkūleʻa
  2021-11-13T23:10:16UTC 2021-11-13T13:10:16-10:00 2021-11-13T12:10:16-11:00  21.31296 -157.88836     329   0.0 Hikianalia
  2021-11-13T22:18:49UTC 2021-11-13T12:18:49-10:00 2021-11-13T11:18:49-11:00  21.31354 -157.88862       0   0.0 Hōkūleʻa
  2021-11-13T22:17:52UTC 2021-11-13T12:17:52-10:00 2021-11-13T11:17:52-11:00  21.31293 -157.88834     119   0.0 Hikianalia
  2021-11-13T21:17:31UTC 2021-11-13T11:17:31-10:00 2021-11-13T10:17:31-11:00  21.31354 -157.88862       0   0.0 Hōkūleʻa
  2021-11-13T21:10:11UTC 2021-11-13T11:10:11-10:00 2021-11-13T10:10:11-11:00  21.31294 -157.88836     317   0.0 Hikianalia
  2021-11-13T20:24:39UTC 2021-11-13T10:24:39-10:00 2021-11-13T09:24:39-11:00  21.31354 -157.88862       0   0.0 Hōkūleʻa
  2021-11-13T20:10:14UTC 2021-11-13T10:10:14-10:00 2021-11-13T09:10:14-11:00  21.31292 -157.88834     180   0.0 Hikianalia
  2021-11-13T19:18:52UTC 2021-11-13T09:18:52-10:00 2021-11-13T08:18:52-11:00  21.31293 -157.88834      62   0.0 Hikianalia
  2021-11-13T19:18:24UTC 2021-11-13T09:18:24-10:00 2021-11-13T08:18:24-11:00  21.31354 -157.88862       0   0.0 Hōkūleʻa
  2021-11-13T18:18:48UTC 2021-11-13T08:18:48-10:00 2021-11-13T07:18:48-11:00  21.31354 -157.88862       0   0.0 Hōkūleʻa
  2021-11-13T18:10:24UTC 2021-11-13T08:10:24-10:00 2021-11-13T07:10:24-11:00  21.31288 -157.88845     256   0.0 Hikianalia
  2021-11-13T17:18:30UTC 2021-11-13T07:18:30-10:00 2021-11-13T06:18:30-11:00  21.31354 -157.88862       0   0.0 Hōkūleʻa
  2021-11-13T17:10:13UTC 2021-11-13T07:10:13-10:00 2021-11-13T06:10:13-11:00  21.31289 -157.88841     255   0.0 Hikianalia
  2021-11-13T16:18:32UTC 2021-11-13T06:18:32-10:00 2021-11-13T05:18:32-11:00  21.31354 -157.88862       0   0.0 Hōkūleʻa
  2021-11-13T16:10:47UTC 2021-11-13T06:10:47-10:00 2021-11-13T05:10:47-11:00  21.31290 -157.88836     241   0.0 Hikianalia
  2021-11-13T15:18:32UTC 2021-11-13T05:18:32-10:00 2021-11-13T04:18:32-11:00  21.31354 -157.88862       0   0.0 Hōkūleʻa
  2021-11-13T15:10:38UTC 2021-11-13T05:10:38-10:00 2021-11-13T04:10:38-11:00  21.31291 -157.88834      35   0.0 Hikianalia
  2021-11-13T14:18:49UTC 2021-11-13T04:18:49-10:00 2021-11-13T03:18:49-11:00  21.31354 -157.88862       0   0.0 Hōkūleʻa
  2021-11-13T13:18:33UTC 2021-11-13T03:18:33-10:00 2021-11-13T02:18:33-11:00  21.31354 -157.88862       0   0.0 Hōkūleʻa
  2021-11-13T13:11:15UTC 2021-11-13T03:11:15-10:00 2021-11-13T02:11:15-11:00  21.31282 -157.88841     219   0.0 Hikianalia
  2021-11-13T12:18:32UTC 2021-11-13T02:18:32-10:00 2021-11-13T01:18:32-11:00  21.31354 -157.88862       0   0.0 Hōkūleʻa
  2021-11-13T12:10:45UTC 2021-11-13T02:10:45-10:00 2021-11-13T01:10:45-11:00  21.31290 -157.88834     163   0.0 Hikianalia
  2021-11-13T11:18:30UTC 2021-11-13T01:18:30-10:00 2021-11-13T00:18:30-11:00  21.31354 -157.88862       0   0.0 Hōkūleʻa
  2021-11-13T11:10:18UTC 2021-11-13T01:10:18-10:00 2021-11-13T00:10:18-11:00  21.31296 -157.88836      75   0.0 Hikianalia
  2021-11-13T10:18:46UTC 2021-11-13T00:18:46-10:00 2021-11-12T23:18:46-11:00  21.31354 -157.88862       0   0.0 Hōkūleʻa
  2021-11-13T10:10:38UTC 2021-11-13T00:10:38-10:00 2021-11-12T23:10:38-11:00  21.31295 -157.88841     255   0.0 Hikianalia
  2021-11-13T09:18:25UTC 2021-11-12T23:18:25-10:00 2021-11-12T22:18:25-11:00  21.31354 -157.88862       0   0.0 Hōkūleʻa
  2021-11-13T09:10:12UTC 2021-11-12T23:10:12-10:00 2021-11-12T22:10:12-11:00  21.31296 -157.88836       0   0.0 Hikianalia
  2021-11-13T08:18:30UTC 2021-11-12T22:18:30-10:00 2021-11-12T21:18:30-11:00  21.31354 -157.88862       0   0.0 Hōkūleʻa
  2021-11-13T08:10:14UTC 2021-11-12T22:10:14-10:00 2021-11-12T21:10:14-11:00  21.31296 -157.88836     195   0.0 Hikianalia
  2021-11-13T07:18:32UTC 2021-11-12T21:18:32-10:00 2021-11-12T20:18:32-11:00  21.31354 -157.88862       0   0.0 Hōkūleʻa
  2021-11-13T07:10:45UTC 2021-11-12T21:10:45-10:00 2021-11-12T20:10:45-11:00  21.31304 -157.88834      15   0.0 Hikianalia
  2021-11-13T06:19:01UTC 2021-11-12T20:19:01-10:00 2021-11-12T19:19:01-11:00  21.31354 -157.88862       0   0.0 Hōkūleʻa
  2021-11-13T06:09:17UTC 2021-11-12T20:09:17-10:00 2021-11-12T19:09:17-11:00  21.31296 -157.88836       0   0.0 Hikianalia
  2021-11-13T05:18:30UTC 2021-11-12T19:18:30-10:00 2021-11-12T18:18:30-11:00  21.31318 -157.88862     178   0.1 Hōkūleʻa
  2021-11-13T05:10:09UTC 2021-11-12T19:10:09-10:00 2021-11-12T18:10:09-11:00  21.31296 -157.88836       0   0.0 Hikianalia
  2021-11-13T04:18:32UTC 2021-11-12T18:18:32-10:00 2021-11-12T17:18:32-11:00  21.31428 -157.88866     331   3.9 Hōkūleʻa
  2021-11-13T04:10:43UTC 2021-11-12T18:10:43-10:00 2021-11-12T17:10:43-11:00  21.31293 -157.88836     180   0.0 Hikianalia
  2021-11-13T03:18:50UTC 2021-11-12T17:18:50-10:00 2021-11-12T16:18:50-11:00  21.25784 -157.85519     138   2.5 Hōkūleʻa
  2021-11-13T03:10:16UTC 2021-11-12T17:10:16-10:00 2021-11-12T16:10:16-11:00  21.31296 -157.88836       0   0.0 Hikianalia
  2021-11-13T02:18:38UTC 2021-11-12T16:18:38-10:00 2021-11-12T15:18:38-11:00  21.28850 -157.88508     172   1.5 Hōkūleʻa
  2021-11-13T02:10:16UTC 2021-11-12T16:10:16-10:00 2021-11-12T15:10:16-11:00  21.31296 -157.88836       0   0.0 Hikianalia
  2021-11-13T01:18:24UTC 2021-11-12T15:18:24-10:00 2021-11-12T14:18:24-11:00  21.31310 -157.88868      33   0.0 Hōkūleʻa
  2021-11-13T01:10:41UTC 2021-11-12T15:10:41-10:00 2021-11-12T14:10:41-11:00  21.31289 -157.88836     298   0.0 Hikianalia
  2021-11-13T00:27:00UTC 2021-11-12T14:27:00-10:00 2021-11-12T13:27:00-11:00  21.31307 -157.88871     270   0.0 Hōkūleʻa
  2021-11-13T00:09:44UTC 2021-11-12T14:09:44-10:00 2021-11-12T13:09:44-11:00  21.31286 -157.88832     127   0.0 Hikianalia
  2021-11-12T23:18:27UTC 2021-11-12T13:18:27-10:00 2021-11-12T12:18:27-11:00  21.31307 -157.88868     180   0.0 Hōkūleʻa
  2021-11-12T23:09:08UTC 2021-11-12T13:09:08-10:00 2021-11-12T12:09:08-11:00  21.31302 -157.88853     298   0.0 Hikianalia
  2021-11-12T22:17:32UTC 2021-11-12T12:17:32-10:00 2021-11-12T11:17:32-11:00  21.31308 -157.88868      90   0.0 Hōkūleʻa
  2021-11-12T22:09:37UTC 2021-11-12T12:09:37-10:00 2021-11-12T11:09:37-11:00  21.31293 -157.88836     180   0.0 Hikianalia
  2021-11-12T21:18:24UTC 2021-11-12T11:18:24-10:00 2021-11-12T10:18:24-11:00  21.31308 -157.88871      61   0.0 Hōkūleʻa
  2021-11-12T21:10:29UTC 2021-11-12T11:10:29-10:00 2021-11-12T10:10:29-11:00  21.31296 -157.88836      28   0.0 Hikianalia
  2021-11-12T20:17:45UTC 2021-11-12T10:17:45-10:00 2021-11-12T09:17:45-11:00  21.31307 -157.88873     270   0.0 Hōkūleʻa
  2021-11-12T20:10:17UTC 2021-11-12T10:10:17-10:00 2021-11-12T09:10:17-11:00  21.31289 -157.88841     234   0.0 Hikianalia
  2021-11-12T19:18:36UTC 2021-11-12T09:18:36-10:00 2021-11-12T08:18:36-11:00  21.31307 -157.88866      80   0.0 Hōkūleʻa
  2021-11-12T19:10:13UTC 2021-11-12T09:10:13-10:00 2021-11-12T08:10:13-11:00  21.31293 -157.88834       0   0.0 Hikianalia
  2021-11-12T18:17:29UTC 2021-11-12T08:17:29-10:00 2021-11-12T07:17:29-11:00  21.31306 -157.88873     241   0.0 Hōkūleʻa
  2021-11-12T18:10:47UTC 2021-11-12T08:10:47-10:00 2021-11-12T07:10:47-11:00  21.31290 -157.88834     232   0.0 Hikianalia
  2021-11-12T17:18:21UTC 2021-11-12T07:18:21-10:00 2021-11-12T06:18:21-11:00  21.31307 -157.88871      90   0.0 Hōkūleʻa
  2021-11-12T17:10:42UTC 2021-11-12T07:10:42-10:00 2021-11-12T06:10:42-11:00  21.31293 -157.88830      83   0.0 Hikianalia
  2021-11-12T16:18:48UTC 2021-11-12T06:18:48-10:00 2021-11-12T05:18:48-11:00  21.31307 -157.88873       0   0.0 Hōkūleʻa
  2021-11-12T16:10:11UTC 2021-11-12T06:10:11-10:00 2021-11-12T05:10:11-11:00  21.31292 -157.88838     232   0.0 Hikianalia
  2021-11-12T15:20:57UTC 2021-11-12T05:20:57-10:00 2021-11-12T04:20:57-11:00  21.31295 -157.88834      32   0.0 Hikianalia
  2021-11-12T15:18:24UTC 2021-11-12T05:18:24-10:00 2021-11-12T04:18:24-11:00  21.31306 -157.88873     222   0.0 Hōkūleʻa
  2021-11-12T14:19:27UTC 2021-11-12T04:19:27-10:00 2021-11-12T03:19:27-11:00  21.31308 -157.88871       0   0.0 Hōkūleʻa
  2021-11-12T14:10:44UTC 2021-11-12T04:10:44-10:00 2021-11-12T03:10:44-11:00  21.31292 -157.88836     180   0.0 Hikianalia
  2021-11-12T13:18:32UTC 2021-11-12T03:18:32-10:00 2021-11-12T02:18:32-11:00  21.31306 -157.88871      90   0.0 Hōkūleʻa
  2021-11-12T13:10:39UTC 2021-11-12T03:10:39-10:00 2021-11-12T02:10:39-11:00  21.31296 -157.88836      11   0.0 Hikianalia
  2021-11-12T12:22:00UTC 2021-11-12T02:22:00-10:00 2021-11-12T01:22:00-11:00  21.31285 -157.88838     200   0.0 Hikianalia
  2021-11-12T12:17:47UTC 2021-11-12T02:17:47-10:00 2021-11-12T01:17:47-11:00  21.31306 -157.88873     180   0.0 Hōkūleʻa
  2021-11-12T11:18:30UTC 2021-11-12T01:18:30-10:00 2021-11-12T00:18:30-11:00  21.31307 -157.88873     299   0.0 Hōkūleʻa
  2021-11-12T11:10:56UTC 2021-11-12T01:10:56-10:00 2021-11-12T00:10:56-11:00  21.31296 -157.88834       0   0.0 Hikianalia
  2021-11-12T10:27:06UTC 2021-11-12T00:27:06-10:00 2021-11-11T23:27:06-11:00  21.31306 -157.88871     206   0.0 Hōkūleʻa
  2021-11-12T10:09:05UTC 2021-11-12T00:09:05-10:00 2021-11-11T23:09:05-11:00  21.31294 -157.88834     138   0.0 Hikianalia
  2021-11-12T09:18:31UTC 2021-11-11T23:18:31-10:00 2021-11-11T22:18:31-11:00  21.31310 -157.88868      26   0.0 Hōkūleʻa
  2021-11-12T09:10:08UTC 2021-11-11T23:10:08-10:00 2021-11-11T22:10:08-11:00  21.31296 -157.88836     345   0.0 Hikianalia
  2021-11-12T08:20:02UTC 2021-11-11T22:20:02-10:00 2021-11-11T21:20:02-11:00  21.31289 -157.88834     165   0.0 Hikianalia
  2021-11-12T08:18:49UTC 2021-11-11T22:18:49-10:00 2021-11-11T21:18:49-11:00  21.31306 -157.88871     110   0.0 Hōkūleʻa
  2021-11-12T07:18:32UTC 2021-11-11T21:18:32-10:00 2021-11-11T20:18:32-11:00  21.31308 -157.88877     285   0.0 Hōkūleʻa
  2021-11-12T07:10:15UTC 2021-11-11T21:10:15-10:00 2021-11-11T20:10:15-11:00  21.31296 -157.88836     343   0.0 Hikianalia
  2021-11-12T06:18:33UTC 2021-11-11T20:18:33-10:00 2021-11-11T19:18:33-11:00  21.31307 -157.88873     270   0.0 Hōkūleʻa
  2021-11-12T06:09:17UTC 2021-11-11T20:09:17-10:00 2021-11-11T19:09:17-11:00  21.31290 -157.88834     242   0.0 Hikianalia
  2021-11-12T05:18:21UTC 2021-11-11T19:18:21-10:00 2021-11-11T18:18:21-11:00  21.31307 -157.88871     180   0.0 Hōkūleʻa
  2021-11-12T05:15:37UTC 2021-11-11T19:15:37-10:00 2021-11-11T18:15:37-11:00  21.31291 -157.88832     147   0.0 Hikianalia
  2021-11-12T04:18:44UTC 2021-11-11T18:18:44-10:00 2021-11-11T17:18:44-11:00  21.31309 -157.88871       0   0.0 Hōkūleʻa
  2021-11-12T04:10:38UTC 2021-11-11T18:10:38-10:00 2021-11-11T17:10:38-11:00  21.31294 -157.88834      90   0.0 Hikianalia
  2021-11-12T03:27:37UTC 2021-11-11T17:27:37-10:00 2021-11-11T16:27:37-11:00  21.31308 -157.88871     180   0.0 Hōkūleʻa
  2021-11-12T03:17:24UTC 2021-11-11T17:17:24-10:00 2021-11-11T16:17:24-11:00  21.31294 -157.88841     270   0.0 Hikianalia
  2021-11-12T02:18:31UTC 2021-11-11T16:18:31-10:00 2021-11-11T15:18:31-11:00  21.31309 -157.88871     296   0.0 Hōkūleʻa
  2021-11-12T02:10:45UTC 2021-11-11T16:10:45-10:00 2021-11-11T15:10:45-11:00  21.31294 -157.88836     273   0.0 Hikianalia
  2021-11-12T01:18:24UTC 2021-11-11T15:18:24-10:00 2021-11-11T14:18:24-11:00  21.31308 -157.88868     136   0.0 Hōkūleʻa
  2021-11-12T01:10:05UTC 2021-11-11T15:10:05-10:00 2021-11-11T14:10:05-11:00  21.31293 -157.88817      90   0.0 Hikianalia
  2021-11-12T00:17:51UTC 2021-11-11T14:17:51-10:00 2021-11-11T13:17:51-11:00  21.31310 -157.88871     278   0.0 Hōkūleʻa
  2021-11-12T00:09:46UTC 2021-11-11T14:09:46-10:00 2021-11-11T13:09:46-11:00  21.31293 -157.88832      21   0.0 Hikianalia
  2021-11-11T23:18:37UTC 2021-11-11T13:18:37-10:00 2021-11-11T12:18:37-11:00  21.31309 -157.88862      81   0.0 Hōkūleʻa
  2021-11-11T23:09:35UTC 2021-11-11T13:09:35-10:00 2021-11-11T12:09:35-11:00  21.31288 -157.88834     173   0.0 Hikianalia
  2021-11-11T22:17:32UTC 2021-11-11T12:17:32-10:00 2021-11-11T11:17:32-11:00  21.31308 -157.88868      26   0.0 Hōkūleʻa
  2021-11-11T22:10:45UTC 2021-11-11T12:10:45-10:00 2021-11-11T11:10:45-11:00  21.31303 -157.88836       0   0.0 Hikianalia
  2021-11-11T21:17:24UTC 2021-11-11T11:17:24-10:00 2021-11-11T10:17:24-11:00  21.31304 -157.88871     155   0.0 Hōkūleʻa
  2021-11-11T21:10:30UTC 2021-11-11T11:10:30-10:00 2021-11-11T10:10:30-11:00  21.31295 -157.88836      59   0.0 Hikianalia
  2021-11-11T20:18:48UTC 2021-11-11T10:18:48-10:00 2021-11-11T09:18:48-11:00  21.31308 -157.88873      78   0.0 Hōkūleʻa
  2021-11-11T20:09:15UTC 2021-11-11T10:09:15-10:00 2021-11-11T09:09:15-11:00  21.31285 -157.88853     251   0.0 Hikianalia
  2021-11-11T19:17:33UTC 2021-11-11T09:17:33-10:00 2021-11-11T08:17:33-11:00  21.31306 -157.88883     270   0.0 Hōkūleʻa
  2021-11-11T19:10:06UTC 2021-11-11T09:10:06-10:00 2021-11-11T08:10:06-11:00  21.31291 -157.88836      90   0.0 Hikianalia
  2021-11-11T18:18:24UTC 2021-11-11T08:18:24-10:00 2021-11-11T07:18:24-11:00  21.31306 -157.88875     270   0.0 Hōkūleʻa
  2021-11-11T18:10:46UTC 2021-11-11T08:10:46-10:00 2021-11-11T07:10:46-11:00  21.31291 -157.88838      86   0.0 Hikianalia
  2021-11-11T17:22:05UTC 2021-11-11T07:22:05-10:00 2021-11-11T06:22:05-11:00  21.31290 -157.88856     266   0.0 Hikianalia
  2021-11-11T17:18:31UTC 2021-11-11T07:18:31-10:00 2021-11-11T06:18:31-11:00  21.31306 -157.88871      61   0.0 Hōkūleʻa
  2021-11-11T16:18:44UTC 2021-11-11T06:18:44-10:00 2021-11-11T05:18:44-11:00  21.31305 -157.88873     241   0.0 Hōkūleʻa
  2021-11-11T16:10:46UTC 2021-11-11T06:10:46-10:00 2021-11-11T05:10:46-11:00  21.31291 -157.88841      90   0.0 Hikianalia
  2021-11-11T15:18:33UTC 2021-11-11T05:18:33-10:00 2021-11-11T04:18:33-11:00  21.31306 -157.88871      61   0.0 Hōkūleʻa
  2021-11-11T15:10:10UTC 2021-11-11T05:10:10-10:00 2021-11-11T04:10:10-11:00  21.31291 -157.88843     270   0.0 Hikianalia
  2021-11-11T14:18:23UTC 2021-11-11T04:18:23-10:00 2021-11-11T03:18:23-11:00  21.31305 -157.88873     180   0.0 Hōkūleʻa
  2021-11-11T14:10:15UTC 2021-11-11T04:10:15-10:00 2021-11-11T03:10:15-11:00  21.31291 -157.88836      62   0.0 Hikianalia
  2021-11-11T13:17:25UTC 2021-11-11T03:17:25-10:00 2021-11-11T02:17:25-11:00  21.31306 -157.88873     270   0.0 Hōkūleʻa
  2021-11-11T13:10:37UTC 2021-11-11T03:10:37-10:00 2021-11-11T02:10:37-11:00  21.31290 -157.88838     165   0.0 Hikianalia
  2021-11-11T12:18:41UTC 2021-11-11T02:18:41-10:00 2021-11-11T01:18:41-11:00  21.31306 -157.88871     119   0.0 Hōkūleʻa
  2021-11-11T12:10:18UTC 2021-11-11T02:10:18-10:00 2021-11-11T01:10:18-11:00  21.31297 -157.88841       0   0.0 Hikianalia
  2021-11-11T11:18:35UTC 2021-11-11T01:18:35-10:00 2021-11-11T00:18:35-11:00  21.31307 -157.88873     241   0.0 Hōkūleʻa
  2021-11-11T11:10:15UTC 2021-11-11T01:10:15-10:00 2021-11-11T00:10:15-11:00  21.31288 -157.88841     242   0.0 Hikianalia
  2021-11-11T10:18:33UTC 2021-11-11T00:18:33-10:00 2021-11-10T23:18:33-11:00  21.31308 -157.88871       0   0.0 Hōkūleʻa
  2021-11-11T10:10:40UTC 2021-11-11T00:10:40-10:00 2021-11-10T23:10:40-11:00  21.31291 -157.88834     180   0.0 Hikianalia
  2021-11-11T09:18:31UTC 2021-11-10T23:18:31-10:00 2021-11-10T22:18:31-11:00  21.31303 -157.88871     148   0.0 Hōkūleʻa
  2021-11-11T09:10:17UTC 2021-11-10T23:10:17-10:00 2021-11-10T22:10:17-11:00  21.31294 -157.88834     298   0.0 Hikianalia
  2021-11-11T08:18:44UTC 2021-11-10T22:18:44-10:00 2021-11-10T21:18:44-11:00  21.31306 -157.88873     180   0.0 Hōkūleʻa
  2021-11-11T08:10:08UTC 2021-11-10T22:10:08-10:00 2021-11-10T21:10:08-11:00  21.31292 -157.88830      90   0.0 Hikianalia
  2021-11-11T07:18:28UTC 2021-11-10T21:18:28-10:00 2021-11-10T20:18:28-11:00  21.31307 -157.88873      90   0.0 Hōkūleʻa
  2021-11-11T07:09:45UTC 2021-11-10T21:09:45-10:00 2021-11-10T20:09:45-11:00  21.31292 -157.88834      43   0.0 Hikianalia
  2021-11-11T06:18:32UTC 2021-11-10T20:18:32-10:00 2021-11-10T19:18:32-11:00  21.31307 -157.88877     299   0.0 Hōkūleʻa
  2021-11-11T06:10:37UTC 2021-11-10T20:10:37-10:00 2021-11-10T19:10:37-11:00  21.31288 -157.88838     202   0.0 Hikianalia
  2021-11-11T05:18:32UTC 2021-11-10T19:18:32-10:00 2021-11-10T18:18:32-11:00  21.31305 -157.88873     180   0.0 Hōkūleʻa
  2021-11-11T05:11:33UTC 2021-11-10T19:11:33-10:00 2021-11-10T18:11:33-11:00  21.31303 -157.88832      32   0.0 Hikianalia
  2021-11-11T04:18:46UTC 2021-11-10T18:18:46-10:00 2021-11-10T17:18:46-11:00  21.31308 -157.88873       0   0.0 Hōkūleʻa
  2021-11-11T04:10:29UTC 2021-11-10T18:10:29-10:00 2021-11-10T17:10:29-11:00  21.31296 -157.88836     335   0.0 Hikianalia
  2021-11-11T03:18:24UTC 2021-11-10T17:18:24-10:00 2021-11-10T16:18:24-11:00  21.31308 -157.88873     299   0.0 Hōkūleʻa
  2021-11-11T03:09:05UTC 2021-11-10T17:09:05-10:00 2021-11-10T16:09:05-11:00  21.31283 -157.88830     150   0.0 Hikianalia
  2021-11-11T02:18:26UTC 2021-11-10T16:18:26-10:00 2021-11-10T15:18:26-11:00  21.31307 -157.88871     206   0.0 Hōkūleʻa
  2021-11-11T02:10:41UTC 2021-11-10T16:10:41-10:00 2021-11-10T15:10:41-11:00  21.31297 -157.88838     296   0.0 Hikianalia
  2021-11-11T01:17:32UTC 2021-11-10T15:17:32-10:00 2021-11-10T14:17:32-11:00  21.31311 -157.88868       0   0.0 Hōkūleʻa
  2021-11-11T01:09:19UTC 2021-11-10T15:09:19-10:00 2021-11-10T14:09:19-11:00  21.31296 -157.88836       0   0.0 Hikianalia
  2021-11-11T00:26:52UTC 2021-11-10T14:26:52-10:00 2021-11-10T13:26:52-11:00  21.31310 -157.88868      44   0.0 Hōkūleʻa
  2021-11-11T00:10:37UTC 2021-11-10T14:10:37-10:00 2021-11-10T13:10:37-11:00  21.31296 -157.88836      90   0.0 Hikianalia
  2021-11-10T23:23:51UTC 2021-11-10T13:23:51-10:00 2021-11-10T12:23:51-11:00  21.31296 -157.88841     299   0.0 Hikianalia
  2021-11-10T23:17:35UTC 2021-11-10T13:17:35-10:00 2021-11-10T12:17:35-11:00  21.31308 -157.88871     180   0.0 Hōkūleʻa
  2021-11-10T22:19:06UTC 2021-11-10T12:19:06-10:00 2021-11-10T11:19:06-11:00  21.31293 -157.88834     180   0.0 Hikianalia
  2021-11-10T22:18:34UTC 2021-11-10T12:18:34-10:00 2021-11-10T11:18:34-11:00  21.31309 -157.88871      90   0.0 Hōkūleʻa
  2021-11-10T21:18:32UTC 2021-11-10T11:18:32-10:00 2021-11-10T10:18:32-11:00  21.31309 -157.88873       0   0.0 Hōkūleʻa
  2021-11-10T21:09:36UTC 2021-11-10T11:09:36-10:00 2021-11-10T10:09:36-11:00  21.31295 -157.88834     180   0.0 Hikianalia
  2021-11-10T20:17:49UTC 2021-11-10T10:17:49-10:00 2021-11-10T09:17:49-11:00  21.31308 -157.88873      62   0.0 Hōkūleʻa
  2021-11-10T20:10:14UTC 2021-11-10T10:10:14-10:00 2021-11-10T09:10:14-11:00  21.31299 -157.88834      60   0.0 Hikianalia
  2021-11-10T19:17:24UTC 2021-11-10T09:17:24-10:00 2021-11-10T08:17:24-11:00  21.31307 -157.88875     242   0.0 Hōkūleʻa
  2021-11-10T19:10:20UTC 2021-11-10T09:10:20-10:00 2021-11-10T08:10:20-11:00  21.31288 -157.88856     255   0.0 Hikianalia
  2021-11-10T18:18:24UTC 2021-11-10T08:18:24-10:00 2021-11-10T07:18:24-11:00  21.31308 -157.88873       0   0.0 Hōkūleʻa
  2021-11-10T18:10:37UTC 2021-11-10T08:10:37-10:00 2021-11-10T07:10:37-11:00  21.31292 -157.88838     309   0.0 Hikianalia
  2021-11-10T17:18:33UTC 2021-11-10T07:18:33-10:00 2021-11-10T06:18:33-11:00  21.31305 -157.88873     180   0.0 Hōkūleʻa
  2021-11-10T17:10:14UTC 2021-11-10T07:10:14-10:00 2021-11-10T06:10:14-11:00  21.31289 -157.88834     119   0.0 Hikianalia
  2021-11-10T16:18:49UTC 2021-11-10T06:18:49-10:00 2021-11-10T05:18:49-11:00  21.31306 -157.88873     299   0.0 Hōkūleʻa
  2021-11-10T16:10:49UTC 2021-11-10T06:10:49-10:00 2021-11-10T05:10:49-11:00  21.31290 -157.88836     180   0.0 Hikianalia
  2021-11-10T15:19:24UTC 2021-11-10T05:19:24-10:00 2021-11-10T04:19:24-11:00  21.31305 -157.88871     242   0.0 Hōkūleʻa
  2021-11-10T15:09:37UTC 2021-11-10T05:09:37-10:00 2021-11-10T04:09:37-11:00  21.31293 -157.88836       0   0.0 Hikianalia
  2021-11-10T14:18:41UTC 2021-11-10T04:18:41-10:00 2021-11-10T03:18:41-11:00  21.31306 -157.88868      75   0.0 Hōkūleʻa
  2021-11-10T14:10:08UTC 2021-11-10T04:10:08-10:00 2021-11-10T03:10:08-11:00  21.31291 -157.88836     189   0.0 Hikianalia
  2021-11-10T13:18:32UTC 2021-11-10T03:18:32-10:00 2021-11-10T02:18:32-11:00  21.31305 -157.88873     180   0.0 Hōkūleʻa
  2021-11-10T13:10:07UTC 2021-11-10T03:10:07-10:00 2021-11-10T02:10:07-11:00  21.31304 -157.88834       9   0.0 Hikianalia
  2021-11-10T12:18:49UTC 2021-11-10T02:18:49-10:00 2021-11-10T01:18:49-11:00  21.31306 -157.88873     180   0.0 Hōkūleʻa
  2021-11-10T12:10:38UTC 2021-11-10T02:10:38-10:00 2021-11-10T01:10:38-11:00  21.31292 -157.88836      75   0.0 Hikianalia
  2021-11-10T11:20:44UTC 2021-11-10T01:20:44-10:00 2021-11-10T00:20:44-11:00  21.31291 -157.88841     217   0.0 Hikianalia
  2021-11-10T11:18:31UTC 2021-11-10T01:18:31-10:00 2021-11-10T00:18:31-11:00  21.31307 -157.88873       0   0.0 Hōkūleʻa
  2021-11-10T10:21:17UTC 2021-11-10T00:21:17-10:00 2021-11-09T23:21:17-11:00  21.31296 -157.88836     299   0.0 Hikianalia
  2021-11-10T10:18:28UTC 2021-11-10T00:18:28-10:00 2021-11-09T23:18:28-11:00  21.31306 -157.88873     180   0.0 Hōkūleʻa
  2021-11-10T09:17:41UTC 2021-11-09T23:17:41-10:00 2021-11-09T22:17:41-11:00  21.31307 -157.88873       0   0.0 Hōkūleʻa
  2021-11-10T09:10:37UTC 2021-11-09T23:10:37-10:00 2021-11-09T22:10:37-11:00  21.31295 -157.88834     242   0.0 Hikianalia
  2021-11-10T08:18:22UTC 2021-11-09T22:18:22-10:00 2021-11-09T21:18:22-11:00  21.31304 -157.88873     205   0.0 Hōkūleʻa
  2021-11-10T08:10:33UTC 2021-11-09T22:10:33-10:00 2021-11-09T21:10:33-11:00  21.31299 -157.88825      62   0.0 Hikianalia
  2021-11-10T07:18:24UTC 2021-11-09T21:18:24-10:00 2021-11-09T20:18:24-11:00  21.31308 -157.88871       0   0.0 Hōkūleʻa
  2021-11-10T07:18:11UTC 2021-11-09T21:18:11-10:00 2021-11-09T20:18:11-11:00  21.31295 -157.88834       0   0.0 Hikianalia
  2021-11-10T06:30:33UTC 2021-11-09T20:30:33-10:00 2021-11-09T19:30:33-11:00  21.31307 -157.88871      75   0.0 Hōkūleʻa
  2021-11-10T06:09:43UTC 2021-11-09T20:09:43-10:00 2021-11-09T19:09:43-11:00  21.31292 -157.88834     155   0.0 Hikianalia
  2021-11-10T05:17:35UTC 2021-11-09T19:17:35-10:00 2021-11-09T18:17:35-11:00  21.31306 -157.88875     213   0.0 Hōkūleʻa
  2021-11-10T05:10:09UTC 2021-11-09T19:10:09-10:00 2021-11-09T18:10:09-11:00  21.31296 -157.88836       0   0.0 Hikianalia
  2021-11-10T04:18:27UTC 2021-11-09T18:18:27-10:00 2021-11-09T17:18:27-11:00  21.31309 -157.88873     317   0.0 Hōkūleʻa
  2021-11-10T04:10:46UTC 2021-11-09T18:10:46-10:00 2021-11-09T17:10:46-11:00  21.31293 -157.88836     119   0.0 Hikianalia
  2021-11-10T03:18:48UTC 2021-11-09T17:18:48-10:00 2021-11-09T16:18:48-11:00  21.31307 -157.88871       1   2.2 Hōkūleʻa
  2021-11-10T03:10:36UTC 2021-11-09T17:10:36-10:00 2021-11-09T16:10:36-11:00  21.31295 -157.88841     247   0.0 Hikianalia
  2021-11-10T02:17:30UTC 2021-11-09T16:17:30-10:00 2021-11-09T15:17:30-11:00  21.27521 -157.88950      20   0.8 Hōkūleʻa
  2021-11-10T02:10:16UTC 2021-11-09T16:10:16-10:00 2021-11-09T15:10:16-11:00  21.31304 -157.88819      65   0.0 Hikianalia
  2021-11-10T01:28:20UTC 2021-11-09T15:28:20-10:00 2021-11-09T14:28:20-11:00  21.31296 -157.88836     335   0.0 Hikianalia
  2021-11-10T01:18:27UTC 2021-11-09T15:18:27-10:00 2021-11-09T14:18:27-11:00  21.26305 -157.89418     186   3.0 Hōkūleʻa
  2021-11-10T00:18:48UTC 2021-11-09T14:18:48-10:00 2021-11-09T13:18:48-11:00  21.31308 -157.88866     270   0.0 Hōkūleʻa
  2021-11-10T00:18:12UTC 2021-11-09T14:18:12-10:00 2021-11-09T13:18:12-11:00  21.31292 -157.88834     155   0.0 Hikianalia
  2021-11-09T23:17:37UTC 2021-11-09T13:17:37-10:00 2021-11-09T12:17:37-11:00  21.31308 -157.88862      90   0.0 Hōkūleʻa
  2021-11-09T23:09:19UTC 2021-11-09T13:09:19-10:00 2021-11-09T12:09:19-11:00  21.31296 -157.88836      51   0.0 Hikianalia
  2021-11-09T22:17:36UTC 2021-11-09T12:17:36-10:00 2021-11-09T11:17:36-11:00  21.31308 -157.88868      90   0.0 Hōkūleʻa
  2021-11-09T21:20:24UTC 2021-11-09T11:20:24-10:00 2021-11-09T10:20:24-11:00  21.31293 -157.88841     270   0.0 Hikianalia
  2021-11-09T21:18:24UTC 2021-11-09T11:18:24-10:00 2021-11-09T10:18:24-11:00  21.31308 -157.88871      90   0.0 Hōkūleʻa
  2021-11-09T20:17:43UTC 2021-11-09T10:17:43-10:00 2021-11-09T09:17:43-11:00  21.31308 -157.88873      80   0.0 Hōkūleʻa
  2021-11-09T20:10:48UTC 2021-11-09T10:10:48-10:00 2021-11-09T09:10:48-11:00  21.31293 -157.88838     212   0.0 Hikianalia
  2021-11-09T19:33:08UTC 2021-11-09T09:33:08-10:00 2021-11-09T08:33:08-11:00  21.31307 -157.88879     298   0.0 Hōkūleʻa
  2021-11-09T19:10:18UTC 2021-11-09T09:10:18-10:00 2021-11-09T08:10:18-11:00  21.31296 -157.88836     353   0.0 Hikianalia
  2021-11-09T18:17:30UTC 2021-11-09T08:17:30-10:00 2021-11-09T07:17:30-11:00  21.31304 -157.88873     180   0.0 Hōkūleʻa
  2021-11-09T18:10:12UTC 2021-11-09T08:10:12-10:00 2021-11-09T07:10:12-11:00  21.31280 -157.88834     173   0.0 Hikianalia
  2021-11-09T17:18:21UTC 2021-11-09T07:18:21-10:00 2021-11-09T06:18:21-11:00  21.31308 -157.88873       0   0.0 Hōkūleʻa
  2021-11-09T17:10:40UTC 2021-11-09T07:10:40-10:00 2021-11-09T06:10:40-11:00  21.31296 -157.88836     349   0.0 Hikianalia
  2021-11-09T16:18:36UTC 2021-11-09T06:18:36-10:00 2021-11-09T05:18:36-11:00  21.31307 -157.88873     270   0.0 Hōkūleʻa
  2021-11-09T15:18:33UTC 2021-11-09T05:18:33-10:00 2021-11-09T04:18:33-11:00  21.31307 -157.88871     180   0.0 Hōkūleʻa
  2021-11-09T15:11:47UTC 2021-11-09T05:11:47-10:00 2021-11-09T04:11:47-11:00  21.31286 -157.88834     180   0.0 Hikianalia
  2021-11-09T14:18:30UTC 2021-11-09T04:18:30-10:00 2021-11-09T03:18:30-11:00  21.31308 -157.88871      42   0.0 Hōkūleʻa
  2021-11-09T14:10:46UTC 2021-11-09T04:10:46-10:00 2021-11-09T03:10:46-11:00  21.31289 -157.88834     321   0.0 Hikianalia
  2021-11-09T13:18:31UTC 2021-11-09T03:18:31-10:00 2021-11-09T02:18:31-11:00  21.31306 -157.88873     180   0.0 Hōkūleʻa
  2021-11-09T13:10:15UTC 2021-11-09T03:10:15-10:00 2021-11-09T02:10:15-11:00  21.31281 -157.88828     133   0.0 Hikianalia
  2021-11-09T12:18:50UTC 2021-11-09T02:18:50-10:00 2021-11-09T01:18:50-11:00  21.31307 -157.88873      75   0.0 Hōkūleʻa
  2021-11-09T12:10:22UTC 2021-11-09T02:10:22-10:00 2021-11-09T01:10:22-11:00  21.31289 -157.88836     180   0.0 Hikianalia
  2021-11-09T11:18:30UTC 2021-11-09T01:18:30-10:00 2021-11-09T00:18:30-11:00  21.31306 -157.88877     260   0.0 Hōkūleʻa
  2021-11-09T11:10:47UTC 2021-11-09T01:10:47-10:00 2021-11-09T00:10:47-11:00  21.31293 -157.88836     151   0.0 Hikianalia
  2021-11-09T10:18:25UTC 2021-11-09T00:18:25-10:00 2021-11-08T23:18:25-11:00  21.31307 -157.88871      25   0.0 Hōkūleʻa
  2021-11-09T10:10:06UTC 2021-11-09T00:10:06-10:00 2021-11-08T23:10:06-11:00  21.31304 -157.88843     335   0.0 Hikianalia
  2021-11-09T09:18:33UTC 2021-11-08T23:18:33-10:00 2021-11-08T22:18:33-11:00  21.31303 -157.88873     180   0.0 Hōkūleʻa
  2021-11-09T09:10:45UTC 2021-11-08T23:10:45-10:00 2021-11-08T22:10:45-11:00  21.31291 -157.88836     127   0.0 Hikianalia
  2021-11-09T08:18:53UTC 2021-11-08T22:18:53-10:00 2021-11-08T21:18:53-11:00  21.31307 -157.88873       0   0.0 Hōkūleʻa
  2021-11-09T08:10:40UTC 2021-11-08T22:10:40-10:00 2021-11-08T21:10:40-11:00  21.31302 -157.88851     295   0.0 Hikianalia
  2021-11-09T07:18:28UTC 2021-11-08T21:18:28-10:00 2021-11-08T20:18:28-11:00  21.31306 -157.88873     118   0.0 Hōkūleʻa
  2021-11-09T07:10:14UTC 2021-11-08T21:10:14-10:00 2021-11-08T20:10:14-11:00  21.31292 -157.88830      68   0.0 Hikianalia
  2021-11-09T06:18:32UTC 2021-11-08T20:18:32-10:00 2021-11-08T19:18:32-11:00  21.31307 -157.88875     270   0.0 Hōkūleʻa
  2021-11-09T06:10:38UTC 2021-11-08T20:10:38-10:00 2021-11-08T19:10:38-11:00  21.31289 -157.88838     195   0.0 Hikianalia
  2021-11-09T05:18:27UTC 2021-11-08T19:18:27-10:00 2021-11-08T18:18:27-11:00  21.31307 -157.88873     180   0.0 Hōkūleʻa
  2021-11-09T05:10:18UTC 2021-11-08T19:10:18-10:00 2021-11-08T18:10:18-11:00  21.31296 -157.88836     318   0.0 Hikianalia
  2021-11-09T04:18:43UTC 2021-11-08T18:18:43-10:00 2021-11-08T17:18:43-11:00  21.31308 -157.88873     311   0.0 Hōkūleʻa
  2021-11-09T04:10:12UTC 2021-11-08T18:10:12-10:00 2021-11-08T17:10:12-11:00  21.31294 -157.88834     105   0.0 Hikianalia
  2021-11-09T03:23:06UTC 2021-11-08T17:23:06-10:00 2021-11-08T16:23:06-11:00  21.31295 -157.88838     242   0.0 Hikianalia
  2021-11-09T03:18:38UTC 2021-11-08T17:18:38-10:00 2021-11-08T16:18:38-11:00  21.31299 -157.88862     140   0.0 Hōkūleʻa
  2021-11-09T02:20:22UTC 2021-11-08T16:20:22-10:00 2021-11-08T15:20:22-11:00  21.31296 -157.88836     200   0.0 Hikianalia
  2021-11-09T02:17:35UTC 2021-11-08T16:17:35-10:00 2021-11-08T15:17:35-11:00  21.31309 -157.88871       0   0.0 Hōkūleʻa
  2021-11-09T01:18:24UTC 2021-11-08T15:18:24-10:00 2021-11-08T14:18:24-11:00  21.31309 -157.88871     138   0.0 Hōkūleʻa
  2021-11-09T01:09:54UTC 2021-11-08T15:09:54-10:00 2021-11-08T14:09:54-11:00  21.31302 -157.88834      20   0.0 Hikianalia
  2021-11-09T00:17:58UTC 2021-11-08T14:17:58-10:00 2021-11-08T13:17:58-11:00  21.31311 -157.88873     242   0.0 Hōkūleʻa
  2021-11-09T00:09:26UTC 2021-11-08T14:09:26-10:00 2021-11-08T13:09:26-11:00  21.31296 -157.88836      37   0.0 Hikianalia
  2021-11-08T23:27:51UTC 2021-11-08T13:27:51-10:00 2021-11-08T12:27:51-11:00  21.31291 -157.88841     260   0.0 Hikianalia
  2021-11-08T23:18:38UTC 2021-11-08T13:18:38-10:00 2021-11-08T12:18:38-11:00  21.31314 -157.88866      43   0.0 Hōkūleʻa
  2021-11-08T22:18:35UTC 2021-11-08T12:18:35-10:00 2021-11-08T11:18:35-11:00  21.31308 -157.88873     299   0.0 Hōkūleʻa
  2021-11-08T22:09:37UTC 2021-11-08T12:09:37-10:00 2021-11-08T11:09:37-11:00  21.31292 -157.88834      61   0.0 Hikianalia
  2021-11-08T21:17:30UTC 2021-11-08T11:17:30-10:00 2021-11-08T10:17:30-11:00  21.31307 -157.88871     137   0.0 Hōkūleʻa
  2021-11-08T21:10:44UTC 2021-11-08T11:10:44-10:00 2021-11-08T10:10:44-11:00  21.31291 -157.88836     159   0.0 Hikianalia
  2021-11-08T20:18:39UTC 2021-11-08T10:18:39-10:00 2021-11-08T09:18:39-11:00  21.31309 -157.88873      76   0.0 Hōkūleʻa
  2021-11-08T20:10:43UTC 2021-11-08T10:10:43-10:00 2021-11-08T09:10:43-11:00  21.31296 -157.88838     339   0.0 Hikianalia
  2021-11-08T19:17:28UTC 2021-11-08T09:17:28-10:00 2021-11-08T08:17:28-11:00  21.31308 -157.88877     282   0.0 Hōkūleʻa
  2021-11-08T19:10:37UTC 2021-11-08T09:10:37-10:00 2021-11-08T08:10:37-11:00  21.31291 -157.88836     118   0.0 Hikianalia
  2021-11-08T18:18:38UTC 2021-11-08T08:18:38-10:00 2021-11-08T07:18:38-11:00  21.31306 -157.88866     110   0.0 Hōkūleʻa
  2021-11-08T18:10:46UTC 2021-11-08T08:10:46-10:00 2021-11-08T07:10:46-11:00  21.31293 -157.88841     205   0.0 Hikianalia
  2021-11-08T17:18:29UTC 2021-11-08T07:18:29-10:00 2021-11-08T06:18:29-11:00  21.31308 -157.88873       0   0.0 Hōkūleʻa
  2021-11-08T17:09:49UTC 2021-11-08T07:09:49-10:00 2021-11-08T06:09:49-11:00  21.31310 -157.88832       6   0.0 Hikianalia
  2021-11-08T16:18:41UTC 2021-11-08T06:18:41-10:00 2021-11-08T05:18:41-11:00  21.31307 -157.88873       0   0.0 Hōkūleʻa
  2021-11-08T16:10:07UTC 2021-11-08T06:10:07-10:00 2021-11-08T05:10:07-11:00  21.31291 -157.88834      25   0.0 Hikianalia
  2021-11-08T15:18:33UTC 2021-11-08T05:18:33-10:00 2021-11-08T04:18:33-11:00  21.31307 -157.88873     270   0.0 Hōkūleʻa
  2021-11-08T15:10:13UTC 2021-11-08T05:10:13-10:00 2021-11-08T04:10:13-11:00  21.31286 -157.88836     180   0.0 Hikianalia
  2021-11-08T14:18:32UTC 2021-11-08T04:18:32-10:00 2021-11-08T03:18:32-11:00  21.31307 -157.88871       0   0.0 Hōkūleʻa
  2021-11-08T14:10:36UTC 2021-11-08T04:10:36-10:00 2021-11-08T03:10:36-11:00  21.31292 -157.88836     307   0.0 Hikianalia
  2021-11-08T13:17:24UTC 2021-11-08T03:17:24-10:00 2021-11-08T02:17:24-11:00  21.31306 -157.88871     180   0.0 Hōkūleʻa
  2021-11-08T13:10:08UTC 2021-11-08T03:10:08-10:00 2021-11-08T02:10:08-11:00  21.31284 -157.88825     131   0.0 Hikianalia
  2021-11-08T12:18:41UTC 2021-11-08T02:18:41-10:00 2021-11-08T01:18:41-11:00  21.31308 -157.88871       0   0.0 Hōkūleʻa
  2021-11-08T12:10:38UTC 2021-11-08T02:10:38-10:00 2021-11-08T01:10:38-11:00  21.31290 -157.88832     118   0.0 Hikianalia
  2021-11-08T11:18:28UTC 2021-11-08T01:18:28-10:00 2021-11-08T00:18:28-11:00  21.31307 -157.88871      90   0.0 Hōkūleʻa
  2021-11-08T11:10:53UTC 2021-11-08T01:10:53-10:00 2021-11-08T00:10:53-11:00  21.31294 -157.88841     209   0.0 Hikianalia
  2021-11-08T10:18:33UTC 2021-11-08T00:18:33-10:00 2021-11-07T23:18:33-11:00  21.31307 -157.88873       0   0.0 Hōkūleʻa
  2021-11-08T10:10:25UTC 2021-11-08T00:10:25-10:00 2021-11-07T23:10:25-11:00  21.31305 -157.88834      13   0.0 Hikianalia
  2021-11-08T09:18:46UTC 2021-11-07T23:18:46-10:00 2021-11-07T22:18:46-11:00  21.31306 -157.88873     137   0.0 Hōkūleʻa
  2021-11-08T09:10:11UTC 2021-11-07T23:10:11-10:00 2021-11-07T22:10:11-11:00  21.31288 -157.88838     180   0.0 Hikianalia
  2021-11-08T08:18:27UTC 2021-11-07T22:18:27-10:00 2021-11-07T21:18:27-11:00  21.31308 -157.88875     317   0.0 Hōkūleʻa
  2021-11-08T08:10:41UTC 2021-11-07T22:10:41-10:00 2021-11-07T21:10:41-11:00  21.31290 -157.88838     126   0.0 Hikianalia
  2021-11-08T07:18:23UTC 2021-11-07T21:18:23-10:00 2021-11-07T20:18:23-11:00  21.31306 -157.88873       0   0.0 Hōkūleʻa
  2021-11-08T07:10:05UTC 2021-11-07T21:10:05-10:00 2021-11-07T20:10:05-11:00  21.31294 -157.88845     285   0.0 Hikianalia
  2021-11-08T06:18:38UTC 2021-11-07T20:18:38-10:00 2021-11-07T19:18:38-11:00  21.31306 -157.88873     137   0.0 Hōkūleʻa
  2021-11-08T06:10:46UTC 2021-11-07T20:10:46-10:00 2021-11-07T19:10:46-11:00  21.31292 -157.88836     180   0.0 Hikianalia
  2021-11-08T05:18:30UTC 2021-11-07T19:18:30-10:00 2021-11-07T18:18:30-11:00  21.31308 -157.88875     244   0.0 Hōkūleʻa
  2021-11-08T05:10:18UTC 2021-11-07T19:10:18-10:00 2021-11-07T18:10:18-11:00  21.31296 -157.88836     340   0.0 Hikianalia
  2021-11-08T04:27:11UTC 2021-11-07T18:27:11-10:00 2021-11-07T17:27:11-11:00  21.31309 -157.88873     180   0.0 Hōkūleʻa
  2021-11-08T04:20:25UTC 2021-11-07T18:20:25-10:00 2021-11-07T17:20:25-11:00  21.31291 -157.88834     160   0.0 Hikianalia
  2021-11-08T03:18:24UTC 2021-11-07T17:18:24-10:00 2021-11-07T16:18:24-11:00  21.31310 -157.88873     241   0.0 Hōkūleʻa
  2021-11-08T03:09:10UTC 2021-11-07T17:09:10-10:00 2021-11-07T16:09:10-11:00  21.31296 -157.88836       0   0.0 Hikianalia
  2021-11-08T02:17:47UTC 2021-11-07T16:17:47-10:00 2021-11-07T15:17:47-11:00  21.31311 -157.88871     317   0.0 Hōkūleʻa
  2021-11-08T02:10:40UTC 2021-11-07T16:10:40-10:00 2021-11-07T15:10:40-11:00  21.31294 -157.88836     180   0.0 Hikianalia
  2021-11-08T01:18:33UTC 2021-11-07T15:18:33-10:00 2021-11-07T14:18:33-11:00  21.31309 -157.88868       0   0.0 Hōkūleʻa
  2021-11-08T01:10:15UTC 2021-11-07T15:10:15-10:00 2021-11-07T14:10:15-11:00  21.31296 -157.88836     180   0.0 Hikianalia
  2021-11-08T00:17:32UTC 2021-11-07T14:17:32-10:00 2021-11-07T13:17:32-11:00  21.31306 -157.88868     137   0.0 Hōkūleʻa
  2021-11-08T00:09:09UTC 2021-11-07T14:09:09-10:00 2021-11-07T13:09:09-11:00  21.31298 -157.88836      44   0.0 Hikianalia
  2021-11-07T23:18:29UTC 2021-11-07T13:18:29-10:00 2021-11-07T12:18:29-11:00  21.31312 -157.88875     309   0.0 Hōkūleʻa
  2021-11-07T23:09:40UTC 2021-11-07T13:09:40-10:00 2021-11-07T12:09:40-11:00  21.31296 -157.88838       0   0.0 Hikianalia
  2021-11-07T22:25:13UTC 2021-11-07T12:25:13-10:00 2021-11-07T11:25:13-11:00  21.31296 -157.88838       8   0.0 Hikianalia
  2021-11-07T22:17:48UTC 2021-11-07T12:17:48-10:00 2021-11-07T11:17:48-11:00  21.31309 -157.88871     284   0.0 Hōkūleʻa
  2021-11-07T21:18:30UTC 2021-11-07T11:18:30-10:00 2021-11-07T10:18:30-11:00  21.31308 -157.88866      90   0.0 Hōkūleʻa
  2021-11-07T21:10:12UTC 2021-11-07T11:10:12-10:00 2021-11-07T10:10:12-11:00  21.31282 -157.88841     189   0.0 Hikianalia
  2021-11-07T20:17:32UTC 2021-11-07T10:17:32-10:00 2021-11-07T09:17:32-11:00  21.31308 -157.88871     328   0.0 Hōkūleʻa
  2021-11-07T20:10:40UTC 2021-11-07T10:10:40-10:00 2021-11-07T09:10:40-11:00  21.31294 -157.88838      32   0.0 Hikianalia
  2021-11-07T19:18:24UTC 2021-11-07T09:18:24-10:00 2021-11-07T08:18:24-11:00  21.31305 -157.88868     105   0.0 Hōkūleʻa
  2021-11-07T19:10:16UTC 2021-11-07T09:10:16-10:00 2021-11-07T08:10:16-11:00  21.31291 -157.88841     251   0.0 Hikianalia
  2021-11-07T18:28:10UTC 2021-11-07T08:28:10-10:00 2021-11-07T07:28:10-11:00  21.31306 -157.88873     298   0.0 Hōkūleʻa
  2021-11-07T18:10:44UTC 2021-11-07T08:10:44-10:00 2021-11-07T07:10:44-11:00  21.31293 -157.88834     149   0.0 Hikianalia
  2021-11-07T17:18:44UTC 2021-11-07T07:18:44-10:00 2021-11-07T06:18:44-11:00  21.31298 -157.88858     121   0.0 Hōkūleʻa
  2021-11-07T17:10:15UTC 2021-11-07T07:10:15-10:00 2021-11-07T06:10:15-11:00  21.31296 -157.88836      62   0.0 Hikianalia
  2021-11-07T16:17:46UTC 2021-11-07T06:17:46-10:00 2021-11-07T05:17:46-11:00  21.31307 -157.88873     299   0.0 Hōkūleʻa
  2021-11-07T15:18:24UTC 2021-11-07T05:18:24-10:00 2021-11-07T04:18:24-11:00  21.31306 -157.88871     298   0.0 Hōkūleʻa
  2021-11-07T15:11:33UTC 2021-11-07T05:11:33-10:00 2021-11-07T04:11:33-11:00  21.31292 -157.88845     229   0.0 Hikianalia
  2021-11-07T14:18:39UTC 2021-11-07T04:18:39-10:00 2021-11-07T03:18:39-11:00  21.31305 -157.88868      64   0.0 Hōkūleʻa
  2021-11-07T14:10:16UTC 2021-11-07T04:10:16-10:00 2021-11-07T03:10:16-11:00  21.31297 -157.88838      17   0.0 Hikianalia
  2021-11-07T13:18:36UTC 2021-11-07T03:18:36-10:00 2021-11-07T02:18:36-11:00  21.31304 -157.88871     180   0.0 Hōkūleʻa
  2021-11-07T13:09:47UTC 2021-11-07T03:09:47-10:00 2021-11-07T02:09:47-11:00  21.31291 -157.88841     317   0.0 Hikianalia
  2021-11-07T12:18:32UTC 2021-11-07T02:18:32-10:00 2021-11-07T01:18:32-11:00  21.31306 -157.88871      90   0.0 Hōkūleʻa
  2021-11-07T12:10:36UTC 2021-11-07T02:10:36-10:00 2021-11-07T01:10:36-11:00  21.31286 -157.88836     165   0.0 Hikianalia
  2021-11-07T11:18:48UTC 2021-11-07T01:18:48-10:00 2021-11-07T00:18:48-11:00  21.31306 -157.88873     180   0.0 Hōkūleʻa
  2021-11-07T11:10:08UTC 2021-11-07T01:10:08-10:00 2021-11-07T00:10:08-11:00  21.31294 -157.88838       0   0.0 Hikianalia
  2021-11-07T10:18:37UTC 2021-11-07T00:18:37-10:00 2021-11-06T23:18:37-11:00  21.31307 -157.88873      43   0.0 Hōkūleʻa
  2021-11-07T10:10:46UTC 2021-11-07T00:10:46-10:00 2021-11-06T23:10:46-11:00  21.31291 -157.88838       0   0.0 Hikianalia
  2021-11-07T09:17:30UTC 2021-11-06T23:17:30-10:00 2021-11-06T22:17:30-11:00  21.31305 -157.88875     255   0.0 Hōkūleʻa
  2021-11-07T09:10:07UTC 2021-11-06T23:10:07-10:00 2021-11-06T22:10:07-11:00  21.31288 -157.88838     223   0.0 Hikianalia
  2021-11-07T08:18:22UTC 2021-11-06T22:18:22-10:00 2021-11-06T21:18:22-11:00  21.31306 -157.88871      90   0.0 Hōkūleʻa
  2021-11-07T08:10:42UTC 2021-11-06T22:10:42-10:00 2021-11-06T21:10:42-11:00  21.31292 -157.88834       0   0.0 Hikianalia
  2021-11-07T07:18:27UTC 2021-11-06T21:18:27-10:00 2021-11-06T20:18:27-11:00  21.31306 -157.88873       0   0.0 Hōkūleʻa
  2021-11-07T07:11:41UTC 2021-11-06T21:11:41-10:00 2021-11-06T20:11:41-11:00  21.31292 -157.88834     159   0.0 Hikianalia
  2021-11-07T06:22:08UTC 2021-11-06T20:22:08-10:00 2021-11-06T19:22:08-11:00  21.31303 -157.88838     126   0.0 Hikianalia
  2021-11-07T06:18:40UTC 2021-11-06T20:18:40-10:00 2021-11-06T19:18:40-11:00  21.31306 -157.88873     152   0.0 Hōkūleʻa
  2021-11-07T05:18:29UTC 2021-11-06T19:18:29-10:00 2021-11-06T18:18:29-11:00  21.31313 -157.88877     308   0.0 Hōkūleʻa
  2021-11-07T05:09:22UTC 2021-11-06T19:09:22-10:00 2021-11-06T18:09:22-11:00  21.31307 -157.88845     345   0.0 Hikianalia
  2021-11-07T04:17:33UTC 2021-11-06T18:17:33-10:00 2021-11-06T17:17:33-11:00  21.31307 -157.88868     136   0.0 Hōkūleʻa
  2021-11-07T04:10:37UTC 2021-11-06T18:10:37-10:00 2021-11-06T17:10:37-11:00  21.31292 -157.88841     223   0.0 Hikianalia
  2021-11-07T03:18:23UTC 2021-11-06T17:18:23-10:00 2021-11-06T16:18:23-11:00  21.31309 -157.88871     223   0.0 Hōkūleʻa
  2021-11-07T03:10:13UTC 2021-11-06T17:10:13-10:00 2021-11-06T16:10:13-11:00  21.31296 -157.88836     270   0.0 Hikianalia
  2021-11-07T02:18:44UTC 2021-11-06T16:18:44-10:00 2021-11-06T15:18:44-11:00  21.31311 -157.88868     317   0.0 Hōkūleʻa
  2021-11-07T02:10:15UTC 2021-11-06T16:10:15-10:00 2021-11-06T15:10:15-11:00  21.31296 -157.88834       0   0.0 Hikianalia
  2021-11-07T01:17:33UTC 2021-11-06T15:17:33-10:00 2021-11-06T14:17:33-11:00  21.31307 -157.88864     105   0.0 Hōkūleʻa
  2021-11-07T01:10:48UTC 2021-11-06T15:10:48-10:00 2021-11-06T14:10:48-11:00  21.31293 -157.88834     160   0.0 Hikianalia
  2021-11-07T00:18:29UTC 2021-11-06T14:18:29-10:00 2021-11-06T13:18:29-11:00  21.31308 -157.88868     137   0.0 Hōkūleʻa
  2021-11-06T23:18:52UTC 2021-11-06T13:18:52-10:00 2021-11-06T12:18:52-11:00  21.31312 -157.88873     328   0.0 Hōkūleʻa
  2021-11-06T22:35:26UTC 2021-11-06T12:35:26-10:00 2021-11-06T11:35:26-11:00  21.31298 -157.88836     162   0.0 Hikianalia
  2021-11-06T22:17:33UTC 2021-11-06T12:17:33-10:00 2021-11-06T11:17:33-11:00  21.31306 -157.88868     349   4.1 Hōkūleʻa
  2021-11-06T21:17:39UTC 2021-11-06T11:17:39-10:00 2021-11-06T10:17:39-11:00  21.24565 -157.87463     154   2.2 Hōkūleʻa
  2021-11-06T20:18:40UTC 2021-11-06T10:18:40-10:00 2021-11-06T09:18:40-11:00  21.27881 -157.89212     185   2.1 Hōkūleʻa
  2021-11-06T19:18:42UTC 2021-11-06T09:18:42-10:00 2021-11-06T08:18:42-11:00  21.31306 -157.88883     264   0.0 Hōkūleʻa
  2021-11-06T18:18:45UTC 2021-11-06T08:18:45-10:00 2021-11-06T07:18:45-11:00  21.31307 -157.88873       0   0.0 Hōkūleʻa
  2021-11-06T17:18:30UTC 2021-11-06T07:18:30-10:00 2021-11-06T06:18:30-11:00  21.31307 -157.88873       0   0.0 Hōkūleʻa
  2021-11-06T16:18:41UTC 2021-11-06T06:18:41-10:00 2021-11-06T05:18:41-11:00  21.31306 -157.88873     180   0.0 Hōkūleʻa
  2021-11-06T15:18:38UTC 2021-11-06T05:18:38-10:00 2021-11-06T04:18:38-11:00  21.31308 -157.88873       0   0.0 Hōkūleʻa
  2021-11-06T14:18:26UTC 2021-11-06T04:18:26-10:00 2021-11-06T03:18:26-11:00  21.31307 -157.88873     118   0.0 Hōkūleʻa
  2021-11-06T13:18:24UTC 2021-11-06T03:18:24-10:00 2021-11-06T02:18:24-11:00  21.31308 -157.88875     317   0.0 Hōkūleʻa
  2021-11-06T12:17:47UTC 2021-11-06T02:17:47-10:00 2021-11-06T01:17:47-11:00  21.31306 -157.88873     137   0.0 Hōkūleʻa
  2021-11-06T11:18:30UTC 2021-11-06T01:18:30-10:00 2021-11-06T00:18:30-11:00  21.31308 -157.88875     317   0.0 Hōkūleʻa
  2021-11-06T10:18:25UTC 2021-11-06T00:18:25-10:00 2021-11-05T23:18:25-11:00  21.31306 -157.88873     180   0.0 Hōkūleʻa
  2021-11-06T09:18:31UTC 2021-11-05T23:18:31-10:00 2021-11-05T22:18:31-11:00  21.31307 -157.88873       0   0.0 Hōkūleʻa
  2021-11-06T08:18:47UTC 2021-11-05T22:18:47-10:00 2021-11-05T21:18:47-11:00  21.31307 -157.88873       0   0.0 Hōkūleʻa
  2021-11-06T07:18:24UTC 2021-11-05T21:18:24-10:00 2021-11-05T20:18:24-11:00  21.31307 -157.88873       0   0.0 Hōkūleʻa
  2021-11-06T06:18:32UTC 2021-11-05T20:18:32-10:00 2021-11-05T19:18:32-11:00  21.31305 -157.88873     180   0.0 Hōkūleʻa
  2021-11-06T05:18:30UTC 2021-11-05T19:18:30-10:00 2021-11-05T18:18:30-11:00  21.31309 -157.88873       0   0.0 Hōkūleʻa
  2021-11-06T04:18:44UTC 2021-11-05T18:18:44-10:00 2021-11-05T17:18:44-11:00  21.31309 -157.88873     321   0.0 Hōkūleʻa
  2021-11-06T03:18:56UTC 2021-11-05T17:18:56-10:00 2021-11-05T16:18:56-11:00  21.31302 -157.88866     169   0.0 Hōkūleʻa
  2021-11-06T02:26:27UTC 2021-11-05T16:26:27-10:00 2021-11-05T15:26:27-11:00  21.31311 -157.88868      43   0.0 Hōkūleʻa
  2021-11-06T01:18:33UTC 2021-11-05T15:18:33-10:00 2021-11-05T14:18:33-11:00  21.31309 -157.88871     119   0.0 Hōkūleʻa
  2021-11-06T00:17:46UTC 2021-11-05T14:17:46-10:00 2021-11-05T13:17:46-11:00  21.31310 -157.88873     217   0.0 Hōkūleʻa
  2021-11-05T23:17:30UTC 2021-11-05T13:17:30-10:00 2021-11-05T12:17:30-11:00  21.31315 -157.88868      32   0.0 Hōkūleʻa
  2021-11-05T22:18:26UTC 2021-11-05T12:18:26-10:00 2021-11-05T11:18:26-11:00  21.31309 -157.88873      44   0.0 Hōkūleʻa
  2021-11-05T21:26:34UTC 2021-11-05T11:26:34-10:00 2021-11-05T10:26:34-11:00  21.31307 -157.88875     270   0.0 Hōkūleʻa
  2021-11-05T20:17:47UTC 2021-11-05T10:17:47-10:00 2021-11-05T09:17:47-11:00  21.31307 -157.88873     180   0.0 Hōkūleʻa
  2021-11-05T19:18:35UTC 2021-11-05T09:18:35-10:00 2021-11-05T08:18:35-11:00  21.31308 -157.88873       0   0.0 Hōkūleʻa
  2021-11-05T18:18:28UTC 2021-11-05T08:18:28-10:00 2021-11-05T07:18:28-11:00  21.31307 -157.88873     180   0.0 Hōkūleʻa
  2021-11-05T17:18:22UTC 2021-11-05T07:18:22-10:00 2021-11-05T06:18:22-11:00  21.31308 -157.88873       0   0.0 Hōkūleʻa
  2021-11-05T16:18:49UTC 2021-11-05T06:18:49-10:00 2021-11-05T05:18:49-11:00  21.31307 -157.88873     105   0.0 Hōkūleʻa
  2021-11-05T15:18:34UTC 2021-11-05T05:18:34-10:00 2021-11-05T04:18:34-11:00  21.31308 -157.88877     270   0.0 Hōkūleʻa
  2021-11-05T14:18:38UTC 2021-11-05T04:18:38-10:00 2021-11-05T03:18:38-11:00  21.31308 -157.88875     270   0.0 Hōkūleʻa
  2021-11-05T13:18:25UTC 2021-11-05T03:18:25-10:00 2021-11-05T02:18:25-11:00  21.31308 -157.88873      43   0.0 Hōkūleʻa
  2021-11-05T12:17:48UTC 2021-11-05T02:17:48-10:00 2021-11-05T01:17:48-11:00  21.31306 -157.88875      43   0.0 Hōkūleʻa
  2021-11-05T11:18:27UTC 2021-11-05T01:18:27-10:00 2021-11-05T00:18:27-11:00  21.31304 -157.88877     256   0.0 Hōkūleʻa
  2021-11-05T10:18:27UTC 2021-11-05T00:18:27-10:00 2021-11-04T23:18:27-11:00  21.31305 -157.88873     180   0.0 Hōkūleʻa
  2021-11-05T09:18:33UTC 2021-11-04T23:18:33-10:00 2021-11-04T22:18:33-11:00  21.31307 -157.88873     180   0.0 Hōkūleʻa
  2021-11-05T08:18:46UTC 2021-11-04T22:18:46-10:00 2021-11-04T21:18:46-11:00  21.31308 -157.88873     299   0.0 Hōkūleʻa
  2021-11-05T07:18:25UTC 2021-11-04T21:18:25-10:00 2021-11-04T20:18:25-11:00  21.31307 -157.88871      61   0.0 Hōkūleʻa
  2021-11-05T06:18:32UTC 2021-11-04T20:18:32-10:00 2021-11-04T19:18:32-11:00  21.31306 -157.88873     180   0.0 Hōkūleʻa
  2021-11-05T05:18:30UTC 2021-11-04T19:18:30-10:00 2021-11-04T18:18:30-11:00  21.31307 -157.88873       0   0.0 Hōkūleʻa
  2021-11-05T04:18:48UTC 2021-11-04T18:18:48-10:00 2021-11-04T17:18:48-11:00  21.31307 -157.88873     180   0.0 Hōkūleʻa
  2021-11-05T03:17:29UTC 2021-11-04T17:17:29-10:00 2021-11-04T16:17:29-11:00  21.31308 -157.88873       0   0.0 Hōkūleʻa
  2021-11-05T02:18:21UTC 2021-11-04T16:18:21-10:00 2021-11-04T15:18:21-11:00  21.31308 -157.88873       0   0.0 Hōkūleʻa
  2021-11-05T01:26:54UTC 2021-11-04T15:26:54-10:00 2021-11-04T14:26:54-11:00  21.31307 -157.88873     180   0.0 Hōkūleʻa
  2021-11-05T00:18:40UTC 2021-11-04T14:18:40-10:00 2021-11-04T13:18:40-11:00  21.31309 -157.88873     282   0.0 Hōkūleʻa
  2021-11-04T23:17:29UTC 2021-11-04T13:17:29-10:00 2021-11-04T12:17:29-11:00  21.31307 -157.88862      90   0.0 Hōkūleʻa
  2021-11-04T22:18:32UTC 2021-11-04T12:18:32-10:00 2021-11-04T11:18:32-11:00  21.31307 -157.88868     147   0.0 Hōkūleʻa
  2021-11-04T21:17:24UTC 2021-11-04T11:17:24-10:00 2021-11-04T10:17:24-11:00  21.31310 -157.88871      43   0.0 Hōkūleʻa
  2021-11-04T20:17:56UTC 2021-11-04T10:17:56-10:00 2021-11-04T09:17:56-11:00  21.31308 -157.88873     270   0.0 Hōkūleʻa
  2021-11-04T19:18:28UTC 2021-11-04T09:18:28-10:00 2021-11-04T08:18:28-11:00  21.31308 -157.88868      62   0.0 Hōkūleʻa
  2021-11-04T18:18:24UTC 2021-11-04T08:18:24-10:00 2021-11-04T07:18:24-11:00  21.31307 -157.88871      90   0.0 Hōkūleʻa
  2021-11-04T17:18:31UTC 2021-11-04T07:18:31-10:00 2021-11-04T06:18:31-11:00  21.31307 -157.88873       0   0.0 Hōkūleʻa
  2021-11-04T16:18:47UTC 2021-11-04T06:18:47-10:00 2021-11-04T05:18:47-11:00  21.31307 -157.88873     118   0.0 Hōkūleʻa
  2021-11-04T15:18:32UTC 2021-11-04T05:18:32-10:00 2021-11-04T04:18:32-11:00  21.31308 -157.88875     298   0.0 Hōkūleʻa
  2021-11-04T14:18:29UTC 2021-11-04T04:18:29-10:00 2021-11-04T03:18:29-11:00  21.31307 -157.88873       0   0.0 Hōkūleʻa
  2021-11-04T13:25:01UTC 2021-11-04T03:25:01-10:00 2021-11-04T02:25:01-11:00  21.31307 -157.88873       0   0.0 Hōkūleʻa
  2021-11-04T12:18:48UTC 2021-11-04T02:18:48-10:00 2021-11-04T01:18:48-11:00  21.31307 -157.88873     237   0.0 Hōkūleʻa
  2021-11-04T11:18:35UTC 2021-11-04T01:18:35-10:00 2021-11-04T00:18:35-11:00  21.31313 -157.88862      57   0.0 Hōkūleʻa
  2021-11-04T10:17:33UTC 2021-11-04T00:17:33-10:00 2021-11-03T23:17:33-11:00  21.31308 -157.88871      90   0.0 Hōkūleʻa
  2021-11-04T09:18:22UTC 2021-11-03T23:18:22-10:00 2021-11-03T22:18:22-11:00  21.31308 -157.88875     270   0.0 Hōkūleʻa
  2021-11-04T08:18:39UTC 2021-11-03T22:18:39-10:00 2021-11-03T21:18:39-11:00  21.31308 -157.88873       0   0.0 Hōkūleʻa
  2021-11-04T07:18:38UTC 2021-11-03T21:18:38-10:00 2021-11-03T20:18:38-11:00  21.31307 -157.88873     180   0.0 Hōkūleʻa
  2021-11-04T06:18:33UTC 2021-11-03T20:18:33-10:00 2021-11-03T19:18:33-11:00  21.31309 -157.88873     180   0.0 Hōkūleʻa
  2021-11-04T05:18:31UTC 2021-11-03T19:18:31-10:00 2021-11-03T18:18:31-11:00  21.31310 -157.88873       0   0.0 Hōkūleʻa
  2021-11-04T04:18:41UTC 2021-11-03T18:18:41-10:00 2021-11-03T17:18:41-11:00  21.31308 -157.88873     304   0.0 Hōkūleʻa
  2021-11-04T03:18:37UTC 2021-11-03T17:18:37-10:00 2021-11-03T16:18:37-11:00  21.31303 -157.88864     118   0.0 Hōkūleʻa
  2021-11-04T02:17:23UTC 2021-11-03T16:17:23-10:00 2021-11-03T15:17:23-11:00  21.31307 -157.88873     234   0.0 Hōkūleʻa
  2021-11-04T01:18:30UTC 2021-11-03T15:18:30-10:00 2021-11-03T14:18:30-11:00  21.31311 -157.88866      80   0.0 Hōkūleʻa
  2021-11-04T00:17:41UTC 2021-11-03T14:17:41-10:00 2021-11-03T13:17:41-11:00  21.31310 -157.88873     180   0.0 Hōkūleʻa
  2021-11-03T23:18:33UTC 2021-11-03T13:18:33-10:00 2021-11-03T12:18:33-11:00  21.31314 -157.88873     335   0.0 Hōkūleʻa
  2021-11-03T22:17:31UTC 2021-11-03T12:17:31-10:00 2021-11-03T11:17:31-11:00  21.31310 -157.88871      61   0.0 Hōkūleʻa
  2021-11-03T21:18:22UTC 2021-11-03T11:18:22-10:00 2021-11-03T10:18:22-11:00  21.31309 -157.88873     118   0.0 Hōkūleʻa
  2021-11-03T20:17:38UTC 2021-11-03T10:17:38-10:00 2021-11-03T09:17:38-11:00  21.31310 -157.88875       0   0.0 Hōkūleʻa
  2021-11-03T19:18:33UTC 2021-11-03T09:18:33-10:00 2021-11-03T08:18:33-11:00  21.31309 -157.88875     339   0.0 Hōkūleʻa
  2021-11-03T18:18:32UTC 2021-11-03T08:18:32-10:00 2021-11-03T07:18:32-11:00  21.31304 -157.88873     180   0.0 Hōkūleʻa
  2021-11-03T17:18:45UTC 2021-11-03T07:18:45-10:00 2021-11-03T06:18:45-11:00  21.31307 -157.88873     180   0.0 Hōkūleʻa
  2021-11-03T16:18:24UTC 2021-11-03T06:18:24-10:00 2021-11-03T05:18:24-11:00  21.31308 -157.88873       0   0.0 Hōkūleʻa
  2021-11-03T15:18:23UTC 2021-11-03T05:18:23-10:00 2021-11-03T04:18:23-11:00  21.31307 -157.88873       0   0.0 Hōkūleʻa
  2021-11-03T14:18:47UTC 2021-11-03T04:18:47-10:00 2021-11-03T03:18:47-11:00  21.31306 -157.88873     147   0.0 Hōkūleʻa
  2021-11-03T13:18:26UTC 2021-11-03T03:18:26-10:00 2021-11-03T02:18:26-11:00  21.31309 -157.88875     316   0.0 Hōkūleʻa
  2021-11-03T12:18:33UTC 2021-11-03T02:18:33-10:00 2021-11-03T01:18:33-11:00  21.31307 -157.88873       0   0.0 Hōkūleʻa
  2021-11-03T11:18:32UTC 2021-11-03T01:18:32-10:00 2021-11-03T00:18:32-11:00  21.31307 -157.88873       0   0.0 Hōkūleʻa
  2021-11-03T10:18:37UTC 2021-11-03T00:18:37-10:00 2021-11-02T23:18:37-11:00  21.31306 -157.88873     180   0.0 Hōkūleʻa
  2021-11-03T09:18:38UTC 2021-11-02T23:18:38-10:00 2021-11-02T22:18:38-11:00  21.31307 -157.88873     270   0.0 Hōkūleʻa
  2021-11-03T08:18:22UTC 2021-11-02T22:18:22-10:00 2021-11-02T21:18:22-11:00  21.31307 -157.88871      90   0.0 Hōkūleʻa
  2021-11-03T07:18:32UTC 2021-11-02T21:18:32-10:00 2021-11-02T20:18:32-11:00  21.31307 -157.88875     270   0.0 Hōkūleʻa
  2021-11-03T06:17:48UTC 2021-11-02T20:17:48-10:00 2021-11-02T19:17:48-11:00  21.31307 -157.88873     154   0.0 Hōkūleʻa
  2021-11-03T05:18:22UTC 2021-11-02T19:18:22-10:00 2021-11-02T18:18:22-11:00  21.31311 -157.88875     317   0.0 Hōkūleʻa
  2021-11-03T04:18:24UTC 2021-11-02T18:18:24-10:00 2021-11-02T17:18:24-11:00  21.31309 -157.88873       0   0.0 Hōkūleʻa
  2021-11-03T03:28:51UTC 2021-11-02T17:28:51-10:00 2021-11-02T16:28:51-11:00  21.31308 -157.88873     243   0.0 Hōkūleʻa
  2021-11-03T02:17:45UTC 2021-11-02T16:17:45-10:00 2021-11-02T15:17:45-11:00  21.31309 -157.88871     339   0.0 Hōkūleʻa
  2021-11-03T01:18:25UTC 2021-11-02T15:18:25-10:00 2021-11-02T14:18:25-11:00  21.31304 -157.88868     136   0.0 Hōkūleʻa
  2021-11-03T00:18:33UTC 2021-11-02T14:18:33-10:00 2021-11-02T13:18:33-11:00  21.31306 -157.88871     180   0.0 Hōkūleʻa
  2021-11-02T23:18:32UTC 2021-11-02T13:18:32-10:00 2021-11-02T12:18:32-11:00  21.31309 -157.88871      63   0.0 Hōkūleʻa
  2021-11-02T22:17:41UTC 2021-11-02T12:17:41-10:00 2021-11-02T11:17:41-11:00  21.31308 -157.88873     318   0.0 Hōkūleʻa
  2021-11-02T21:25:37UTC 2021-11-02T11:25:37-10:00 2021-11-02T10:25:37-11:00  21.31306 -157.88871     119   0.0 Hōkūleʻa
  2021-11-02T20:17:30UTC 2021-11-02T10:17:30-10:00 2021-11-02T09:17:30-11:00  21.31307 -157.88873       0   0.0 Hōkūleʻa
  2021-11-02T19:18:24UTC 2021-11-02T09:18:24-10:00 2021-11-02T08:18:24-11:00  21.31307 -157.88873     180   0.0 Hōkūleʻa
  2021-11-02T18:17:40UTC 2021-11-02T08:17:40-10:00 2021-11-02T07:17:40-11:00  21.31308 -157.88873     180   0.0 Hōkūleʻa
  2021-11-02T17:18:22UTC 2021-11-02T07:18:22-10:00 2021-11-02T06:18:22-11:00  21.31309 -157.88873       0   0.0 Hōkūleʻa
  2021-11-02T16:18:24UTC 2021-11-02T06:18:24-10:00 2021-11-02T05:18:24-11:00  21.31308 -157.88873       0   0.0 Hōkūleʻa
  2021-11-02T15:18:41UTC 2021-11-02T05:18:41-10:00 2021-11-02T04:18:41-11:00  21.31307 -157.88873       0   0.0 Hōkūleʻa
  2021-11-02T14:19:37UTC 2021-11-02T04:19:37-10:00 2021-11-02T03:19:37-11:00  21.31306 -157.88873     180   0.0 Hōkūleʻa
  2021-11-02T13:17:43UTC 2021-11-02T03:17:43-10:00 2021-11-02T02:17:43-11:00  21.31307 -157.88873       0   0.0 Hōkūleʻa
  2021-11-02T12:18:41UTC 2021-11-02T02:18:41-10:00 2021-11-02T01:18:41-11:00  21.31306 -157.88873       0   0.0 Hōkūleʻa
  2021-11-02T11:18:30UTC 2021-11-02T01:18:30-10:00 2021-11-02T00:18:30-11:00  21.31304 -157.88873     136   0.0 Hōkūleʻa
  2021-11-02T10:18:25UTC 2021-11-02T00:18:25-10:00 2021-11-01T23:18:25-11:00  21.31306 -157.88875     242   0.0 Hōkūleʻa
  2021-11-02T09:18:49UTC 2021-11-01T23:18:49-10:00 2021-11-01T22:18:49-11:00  21.31307 -157.88873     242   0.0 Hōkūleʻa
  2021-11-02T08:18:22UTC 2021-11-01T22:18:22-10:00 2021-11-01T21:18:22-11:00  21.31309 -157.88868      76   0.0 Hōkūleʻa
  2021-11-02T07:17:33UTC 2021-11-01T21:17:33-10:00 2021-11-01T20:17:33-11:00  21.31308 -157.88873       0   0.0 Hōkūleʻa
  2021-11-02T06:18:40UTC 2021-11-01T20:18:40-10:00 2021-11-01T19:18:40-11:00  21.31308 -157.88873     180   0.0 Hōkūleʻa
  2021-11-02T05:18:30UTC 2021-11-01T19:18:30-10:00 2021-11-01T18:18:30-11:00  21.31312 -157.88873     335   0.0 Hōkūleʻa
  2021-11-02T04:18:34UTC 2021-11-01T18:18:34-10:00 2021-11-01T17:18:34-11:00  21.31308 -157.88871     148   0.0 Hōkūleʻa
  2021-11-02T03:18:47UTC 2021-11-01T17:18:47-10:00 2021-11-01T16:18:47-11:00  21.31311 -157.88873     270   0.0 Hōkūleʻa
  2021-11-02T02:18:29UTC 2021-11-01T16:18:29-10:00 2021-11-01T15:18:29-11:00  21.31311 -157.88868      90   0.0 Hōkūleʻa
  2021-11-02T01:17:31UTC 2021-11-01T15:17:31-10:00 2021-11-01T14:17:31-11:00  21.31311 -157.88873       0   0.0 Hōkūleʻa
  2021-11-02T00:18:40UTC 2021-11-01T14:18:40-10:00 2021-11-01T13:18:40-11:00  21.31311 -157.88873     159   0.0 Hōkūleʻa
  2021-11-01T23:17:30UTC 2021-11-01T13:17:30-10:00 2021-11-01T12:17:30-11:00  21.31317 -157.88875     328   0.0 Hōkūleʻa
  2021-11-01T22:18:33UTC 2021-11-01T12:18:33-10:00 2021-11-01T11:18:33-11:00  21.31310 -157.88871     119   0.0 Hōkūleʻa
  2021-11-01T21:17:32UTC 2021-11-01T11:17:32-10:00 2021-11-01T10:17:32-11:00  21.31311 -157.88873       0   0.0 Hōkūleʻa
  2021-11-01T20:18:46UTC 2021-11-01T10:18:46-10:00 2021-11-01T09:18:46-11:00  21.31309 -157.88873      44   0.0 Hōkūleʻa
  2021-11-01T19:17:33UTC 2021-11-01T09:17:33-10:00 2021-11-01T08:17:33-11:00  21.31307 -157.88875     255   0.0 Hōkūleʻa
  2021-11-01T18:18:24UTC 2021-11-01T08:18:24-10:00 2021-11-01T07:18:24-11:00  21.31308 -157.88871      42   0.0 Hōkūleʻa
  2021-11-01T17:18:31UTC 2021-11-01T07:18:31-10:00 2021-11-01T06:18:31-11:00  21.31306 -157.88873     180   0.0 Hōkūleʻa
  2021-11-01T16:18:45UTC 2021-11-01T06:18:45-10:00 2021-11-01T05:18:45-11:00  21.31307 -157.88873     298   0.0 Hōkūleʻa
  2021-11-01T15:18:33UTC 2021-11-01T05:18:33-10:00 2021-11-01T04:18:33-11:00  21.31304 -157.88866     104   0.0 Hōkūleʻa
  2021-11-01T14:18:28UTC 2021-11-01T04:18:28-10:00 2021-11-01T03:18:28-11:00  21.31305 -157.88871     138   0.0 Hōkūleʻa
  2021-11-01T13:18:24UTC 2021-11-01T03:18:24-10:00 2021-11-01T02:18:24-11:00  21.31307 -157.88873       0   0.0 Hōkūleʻa
  2021-11-01T12:18:39UTC 2021-11-01T02:18:39-10:00 2021-11-01T01:18:39-11:00  21.31306 -157.88873       0   0.0 Hōkūleʻa
  2021-11-01T11:26:56UTC 2021-11-01T01:26:56-10:00 2021-11-01T00:26:56-11:00  21.31306 -157.88873       0   0.0 Hōkūleʻa
  2021-11-01T10:18:33UTC 2021-11-01T00:18:33-10:00 2021-10-31T23:18:33-11:00  21.31306 -157.88873     137   0.0 Hōkūleʻa
  2021-11-01T09:18:32UTC 2021-10-31T23:18:32-10:00 2021-10-31T22:18:32-11:00  21.31308 -157.88875     244   0.0 Hōkūleʻa
  2021-11-01T08:18:39UTC 2021-10-31T22:18:39-10:00 2021-10-31T21:18:39-11:00  21.31309 -157.88873     335   0.0 Hōkūleʻa
  2021-11-01T07:18:28UTC 2021-10-31T21:18:28-10:00 2021-10-31T20:18:28-11:00  21.31305 -157.88871     138   0.0 Hōkūleʻa
  2021-11-01T06:18:33UTC 2021-10-31T20:18:33-10:00 2021-10-31T19:18:33-11:00  21.31307 -157.88873     180   0.0 Hōkūleʻa
  2021-11-01T05:18:32UTC 2021-10-31T19:18:32-10:00 2021-10-31T18:18:32-11:00  21.31310 -157.88873     317   0.0 Hōkūleʻa
  2021-11-01T04:18:44UTC 2021-10-31T18:18:44-10:00 2021-10-31T17:18:44-11:00  21.31308 -157.88871       0   0.0 Hōkūleʻa
  2021-11-01T03:18:33UTC 2021-10-31T17:18:33-10:00 2021-10-31T16:18:33-11:00  21.31308 -157.88871     232   0.0 Hōkūleʻa
  2021-11-01T02:17:29UTC 2021-10-31T16:17:29-10:00 2021-10-31T15:17:29-11:00  21.31311 -157.88866      37   0.0 Hōkūleʻa
  2021-11-01T01:18:24UTC 2021-10-31T15:18:24-10:00 2021-10-31T14:18:24-11:00  21.31306 -157.88871     163   0.0 Hōkūleʻa
  2021-11-01T00:17:41UTC 2021-10-31T14:17:41-10:00 2021-10-31T13:17:41-11:00  21.31312 -157.88873     318   0.0 Hōkūleʻa
  2021-10-31T23:17:28UTC 2021-10-31T13:17:28-10:00 2021-10-31T12:17:28-11:00  21.31310 -157.88871       0   0.0 Hōkūleʻa
  2021-10-31T22:18:25UTC 2021-10-31T12:18:25-10:00 2021-10-31T11:18:25-11:00  21.31310 -157.88871      61   0.0 Hōkūleʻa
  2021-10-31T21:17:30UTC 2021-10-31T11:17:30-10:00 2021-10-31T10:17:30-11:00  21.31309 -157.88873       0   0.0 Hōkūleʻa
  2021-10-31T20:17:38UTC 2021-10-31T10:17:38-10:00 2021-10-31T09:17:38-11:00  21.31307 -157.88873      61   0.0 Hōkūleʻa
  2021-10-31T19:18:20UTC 2021-10-31T09:18:20-10:00 2021-10-31T08:18:20-11:00  21.31305 -157.88877     241   0.0 Hōkūleʻa
  2021-10-31T18:18:32UTC 2021-10-31T08:18:32-10:00 2021-10-31T07:18:32-11:00  21.31307 -157.88873     118   0.0 Hōkūleʻa
  2021-10-31T17:24:30UTC 2021-10-31T07:24:30-10:00 2021-10-31T06:24:30-11:00  21.31308 -157.88875     270   0.0 Hōkūleʻa
  2021-10-31T16:18:41UTC 2021-10-31T06:18:41-10:00 2021-10-31T05:18:41-11:00  21.31308 -157.88873      90   0.0 Hōkūleʻa
  2021-10-31T15:18:37UTC 2021-10-31T05:18:37-10:00 2021-10-31T04:18:37-11:00  21.31308 -157.88875     298   0.0 Hōkūleʻa
  2021-10-31T14:18:30UTC 2021-10-31T04:18:30-10:00 2021-10-31T03:18:30-11:00  21.31307 -157.88873       0   0.0 Hōkūleʻa
  2021-10-31T13:19:27UTC 2021-10-31T03:19:27-10:00 2021-10-31T02:19:27-11:00  21.31305 -157.88873     180   0.0 Hōkūleʻa
  2021-10-31T12:18:48UTC 2021-10-31T02:18:48-10:00 2021-10-31T01:18:48-11:00  21.31306 -157.88873     105   0.0 Hōkūleʻa
  2021-10-31T11:18:41UTC 2021-10-31T01:18:41-10:00 2021-10-31T00:18:41-11:00  21.31307 -157.88877     299   0.0 Hōkūleʻa
  2021-10-31T10:18:25UTC 2021-10-31T00:18:25-10:00 2021-10-30T23:18:25-11:00  21.31305 -157.88873     180   0.0 Hōkūleʻa
  2021-10-31T09:17:32UTC 2021-10-30T23:17:32-10:00 2021-10-30T22:17:32-11:00  21.31307 -157.88873       0   0.0 Hōkūleʻa
  2021-10-31T08:18:41UTC 2021-10-30T22:18:41-10:00 2021-10-30T21:18:41-11:00  21.31307 -157.88873      90   0.0 Hōkūleʻa
  2021-10-31T07:18:29UTC 2021-10-30T21:18:29-10:00 2021-10-30T20:18:29-11:00  21.31307 -157.88875     224   0.0 Hōkūleʻa
  2021-10-31T06:18:33UTC 2021-10-30T20:18:33-10:00 2021-10-30T19:18:33-11:00  21.31309 -157.88873     180   0.0 Hōkūleʻa
  2021-10-31T05:18:33UTC 2021-10-30T19:18:33-10:00 2021-10-30T18:18:33-11:00  21.31310 -157.88873       0   0.0 Hōkūleʻa
  2021-10-31T04:18:37UTC 2021-10-30T18:18:37-10:00 2021-10-30T17:18:37-11:00  21.31308 -157.88873      72   0.0 Hōkūleʻa
  2021-10-31T03:18:38UTC 2021-10-30T17:18:38-10:00 2021-10-30T16:18:38-11:00  21.31305 -157.88883     231   0.0 Hōkūleʻa
  2021-10-31T02:18:30UTC 2021-10-30T16:18:30-10:00 2021-10-30T15:18:30-11:00  21.31314 -157.88871     348   0.0 Hōkūleʻa
  2021-10-31T01:18:32UTC 2021-10-30T15:18:32-10:00 2021-10-30T14:18:32-11:00  21.31305 -157.88868     129   0.0 Hōkūleʻa
  2021-10-31T00:17:48UTC 2021-10-30T14:17:48-10:00 2021-10-30T13:17:48-11:00  21.31308 -157.88873     242   0.0 Hōkūleʻa
  2021-10-30T23:17:35UTC 2021-10-30T13:17:35-10:00 2021-10-30T12:17:35-11:00  21.31310 -157.88868      80   0.0 Hōkūleʻa
  2021-10-30T22:18:25UTC 2021-10-30T12:18:25-10:00 2021-10-30T11:18:25-11:00  21.31309 -157.88875     270   0.0 Hōkūleʻa
  2021-10-30T21:17:32UTC 2021-10-30T11:17:32-10:00 2021-10-30T10:17:32-11:00  21.31309 -157.88873       0   0.0 Hōkūleʻa
  2021-10-30T20:18:48UTC 2021-10-30T10:18:48-10:00 2021-10-30T09:18:48-11:00  21.31308 -157.88873     270   0.0 Hōkūleʻa
  2021-10-30T19:17:31UTC 2021-10-30T09:17:31-10:00 2021-10-30T08:17:31-11:00  21.31308 -157.88862      90   0.0 Hōkūleʻa
  2021-10-30T18:18:24UTC 2021-10-30T08:18:24-10:00 2021-10-30T07:18:24-11:00  21.31308 -157.88873       0   0.0 Hōkūleʻa
  2021-10-30T17:18:30UTC 2021-10-30T07:18:30-10:00 2021-10-30T06:18:30-11:00  21.31307 -157.88873       0   0.0 Hōkūleʻa
  2021-10-30T16:18:44UTC 2021-10-30T06:18:44-10:00 2021-10-30T05:18:44-11:00  21.31307 -157.88873     118   0.0 Hōkūleʻa
  2021-10-30T15:18:40UTC 2021-10-30T05:18:40-10:00 2021-10-30T04:18:40-11:00  21.31310 -157.88879     289   0.0 Hōkūleʻa
  2021-10-30T14:28:09UTC 2021-10-30T04:28:09-10:00 2021-10-30T03:28:09-11:00  21.31308 -157.88873       0   0.0 Hōkūleʻa
  2021-10-30T13:18:33UTC 2021-10-30T03:18:33-10:00 2021-10-30T02:18:33-11:00  21.31307 -157.88873       0   0.0 Hōkūleʻa
  2021-10-30T12:18:47UTC 2021-10-30T02:18:47-10:00 2021-10-30T01:18:47-11:00  21.31306 -157.88873       0   0.0 Hōkūleʻa
  2021-10-30T11:19:22UTC 2021-10-30T01:19:22-10:00 2021-10-30T00:19:22-11:00  21.31305 -157.88873     180   0.0 Hōkūleʻa
  2021-10-30T10:18:32UTC 2021-10-30T00:18:32-10:00 2021-10-29T23:18:32-11:00  21.31307 -157.88873       0   0.0 Hōkūleʻa
  2021-10-30T09:17:32UTC 2021-10-29T23:17:32-10:00 2021-10-29T22:17:32-11:00  21.31307 -157.88873       0   0.0 Hōkūleʻa
  2021-10-30T08:19:40UTC 2021-10-29T22:19:40-10:00 2021-10-29T21:19:40-11:00  21.31307 -157.88873      90   0.0 Hōkūleʻa
  2021-10-30T07:17:33UTC 2021-10-29T21:17:33-10:00 2021-10-29T20:17:33-11:00  21.31307 -157.88877     255   0.0 Hōkūleʻa
  2021-10-30T06:18:24UTC 2021-10-29T20:18:24-10:00 2021-10-29T19:18:24-11:00  21.31308 -157.88873      90   0.0 Hōkūleʻa
  2021-10-29T18:18:24UTC 2021-10-29T08:18:24-10:00 2021-10-29T07:18:24-11:00  21.31308 -157.88875       0   0.0 Hōkūleʻa
  2021-10-29T17:18:23UTC 2021-10-29T07:18:23-10:00 2021-10-29T06:18:23-11:00  21.31306 -157.88875     223   0.0 Hōkūleʻa
  2021-10-29T16:28:55UTC 2021-10-29T06:28:55-10:00 2021-10-29T05:28:55-11:00  21.31308 -157.88873     314   0.0 Hōkūleʻa
  2021-10-29T15:18:27UTC 2021-10-29T05:18:27-10:00 2021-10-29T04:18:27-11:00  21.31298 -157.88862     131   0.0 Hōkūleʻa
  2021-10-29T14:18:22UTC 2021-10-29T04:18:22-10:00 2021-10-29T03:18:22-11:00  21.31307 -157.88873       0   0.0 Hōkūleʻa
  2021-10-29T13:18:24UTC 2021-10-29T03:18:24-10:00 2021-10-29T02:18:24-11:00  21.31307 -157.88873       0   0.0 Hōkūleʻa
  2021-10-29T12:18:40UTC 2021-10-29T02:18:40-10:00 2021-10-29T01:18:40-11:00  21.31307 -157.88873     205   0.0 Hōkūleʻa
  2021-10-28T23:18:28UTC 2021-10-28T13:18:28-10:00 2021-10-28T12:18:28-11:00  21.31315 -157.88868      32   0.0 Hōkūleʻa
  2021-10-28T22:17:33UTC 2021-10-28T12:17:33-10:00 2021-10-28T11:17:33-11:00  21.31309 -157.88873       0   0.0 Hōkūleʻa
  2021-10-28T21:18:32UTC 2021-10-28T11:18:32-10:00 2021-10-28T10:18:32-11:00  21.31309 -157.88873       0   0.0 Hōkūleʻa
  2021-10-28T20:17:38UTC 2021-10-28T10:17:38-10:00 2021-10-28T09:17:38-11:00  21.31308 -157.88873     270   0.0 Hōkūleʻa
  2021-10-28T19:18:27UTC 2021-10-28T09:18:27-10:00 2021-10-28T08:18:27-11:00  21.31308 -157.88871      42   0.0 Hōkūleʻa
  2021-10-28T18:18:32UTC 2021-10-28T08:18:32-10:00 2021-10-28T07:18:32-11:00  21.31306 -157.88873     180   0.0 Hōkūleʻa
  2021-10-28T17:18:35UTC 2021-10-28T07:18:35-10:00 2021-10-28T06:18:35-11:00  21.31307 -157.88873       0   0.0 Hōkūleʻa
  2021-10-28T16:18:37UTC 2021-10-28T06:18:37-10:00 2021-10-28T05:18:37-11:00  21.31307 -157.88873     303   0.0 Hōkūleʻa
  2021-10-28T15:18:30UTC 2021-10-28T05:18:30-10:00 2021-10-28T04:18:30-11:00  21.31300 -157.88862     127   0.0 Hōkūleʻa
  2021-10-28T14:18:30UTC 2021-10-28T04:18:30-10:00 2021-10-28T03:18:30-11:00  21.31308 -157.88873       0   0.0 Hōkūleʻa
  2021-10-28T13:18:26UTC 2021-10-28T03:18:26-10:00 2021-10-28T02:18:26-11:00  21.31307 -157.88873       0   0.0 Hōkūleʻa
  2021-10-28T12:18:48UTC 2021-10-28T02:18:48-10:00 2021-10-28T01:18:48-11:00  21.31306 -157.88873     200   0.0 Hōkūleʻa
  2021-10-28T11:17:34UTC 2021-10-28T01:17:34-10:00 2021-10-28T00:17:34-11:00  21.31311 -157.88871      20   0.0 Hōkūleʻa
  2021-10-28T10:19:25UTC 2021-10-28T00:19:25-10:00 2021-10-27T23:19:25-11:00  21.31306 -157.88873     180   0.0 Hōkūleʻa
  2021-10-27T22:27:41UTC 2021-10-27T12:27:41-10:00 2021-10-27T11:27:41-11:00  21.31307 -157.88873      90   0.0 Hōkūleʻa
  2021-10-27T20:17:27UTC 2021-10-27T10:17:27-10:00 2021-10-27T09:17:27-11:00  21.31307 -157.88877     270   0.0 Hōkūleʻa
  2021-10-27T19:18:29UTC 2021-10-27T09:18:29-10:00 2021-10-27T08:18:29-11:00  21.31307 -157.88873       0   0.0 Hōkūleʻa
  2021-10-27T18:18:49UTC 2021-10-27T08:18:49-10:00 2021-10-27T07:18:49-11:00  21.31306 -157.88873     119   0.0 Hōkūleʻa
  2021-10-27T17:18:37UTC 2021-10-27T07:18:37-10:00 2021-10-27T06:18:37-11:00  21.31308 -157.88877     290   0.0 Hōkūleʻa
  2021-10-27T16:18:27UTC 2021-10-27T06:18:27-10:00 2021-10-27T05:18:27-11:00  21.31306 -157.88871     138   0.0 Hōkūleʻa
  2021-10-27T15:18:31UTC 2021-10-27T05:18:31-10:00 2021-10-27T04:18:31-11:00  21.31308 -157.88873       0   0.0 Hōkūleʻa
  2021-10-27T14:19:56UTC 2021-10-27T04:19:56-10:00 2021-10-27T03:19:56-11:00  21.31305 -157.88873     180   0.0 Hōkūleʻa
  2021-10-27T13:18:32UTC 2021-10-27T03:18:32-10:00 2021-10-27T02:18:32-11:00  21.31306 -157.88873       0   0.0 Hōkūleʻa
  2021-10-27T12:17:32UTC 2021-10-27T02:17:32-10:00 2021-10-27T01:17:32-11:00  21.31305 -157.88873     180   0.0 Hōkūleʻa
  2021-10-27T11:18:22UTC 2021-10-27T01:18:22-10:00 2021-10-27T00:18:22-11:00  21.31306 -157.88873     180   0.0 Hōkūleʻa
  2021-10-27T10:18:40UTC 2021-10-27T00:18:40-10:00 2021-10-26T23:18:40-11:00  21.31307 -157.88873     270   0.0 Hōkūleʻa
  2021-10-27T09:18:30UTC 2021-10-26T23:18:30-10:00 2021-10-26T22:18:30-11:00  21.31307 -157.88868      90   0.0 Hōkūleʻa
  2021-10-27T08:18:31UTC 2021-10-26T22:18:31-10:00 2021-10-26T21:18:31-11:00  21.31307 -157.88871     119   0.0 Hōkūleʻa
  2021-10-27T07:18:24UTC 2021-10-26T21:18:24-10:00 2021-10-26T20:18:24-11:00  21.31308 -157.88873     180   0.0 Hōkūleʻa
  2021-10-27T06:18:46UTC 2021-10-26T20:18:46-10:00 2021-10-26T19:18:46-11:00  21.31310 -157.88873     180   0.0 Hōkūleʻa
  2021-10-27T05:18:29UTC 2021-10-26T19:18:29-10:00 2021-10-26T18:18:29-11:00  21.31313 -157.88873       0   0.0 Hōkūleʻa
  2021-10-27T04:36:53UTC 2021-10-26T18:36:53-10:00 2021-10-26T17:36:53-11:00  21.31310 -157.88873     299   0.0 Hōkūleʻa
  2021-10-27T03:18:30UTC 2021-10-26T17:18:30-10:00 2021-10-26T16:18:30-11:00  21.31309 -157.88871     242   0.0 Hōkūleʻa
  2021-10-27T02:18:49UTC 2021-10-26T16:18:49-10:00 2021-10-26T15:18:49-11:00  21.31310 -157.88868     147   0.0 Hōkūleʻa
  2021-10-27T01:17:31UTC 2021-10-26T15:17:31-10:00 2021-10-26T14:17:31-11:00  21.31313 -157.88871      43   0.0 Hōkūleʻa
  2021-10-27T00:18:22UTC 2021-10-26T14:18:22-10:00 2021-10-26T13:18:22-11:00  21.31311 -157.88873     270   0.0 Hōkūleʻa
  2021-10-26T23:17:26UTC 2021-10-26T13:17:26-10:00 2021-10-26T12:17:26-11:00  21.31311 -157.88871       0   0.0 Hōkūleʻa
  2021-10-26T22:18:46UTC 2021-10-26T12:18:46-10:00 2021-10-26T11:18:46-11:00  21.31310 -157.88871      37   0.0 Hōkūleʻa
  2021-10-26T21:17:32UTC 2021-10-26T11:17:32-10:00 2021-10-26T10:17:32-11:00  21.31305 -157.88875     180   0.0 Hōkūleʻa
  2021-10-26T20:18:25UTC 2021-10-26T10:18:25-10:00 2021-10-26T09:18:25-11:00  21.31310 -157.88875     316   0.0 Hōkūleʻa
  2021-10-26T19:17:29UTC 2021-10-26T09:17:29-10:00 2021-10-26T08:17:29-11:00  21.31308 -157.88873       0   0.0 Hōkūleʻa
  2021-10-26T18:18:49UTC 2021-10-26T08:18:49-10:00 2021-10-26T07:18:49-11:00  21.31305 -157.88873     270   0.0 Hōkūleʻa
  2021-10-26T17:18:29UTC 2021-10-26T07:18:29-10:00 2021-10-26T06:18:29-11:00  21.31305 -157.88871     138   0.0 Hōkūleʻa
  2021-10-26T16:18:25UTC 2021-10-26T06:18:25-10:00 2021-10-26T05:18:25-11:00  21.31307 -157.88873       0   0.0 Hōkūleʻa
  2021-10-26T15:18:29UTC 2021-10-26T05:18:29-10:00 2021-10-26T04:18:29-11:00  21.31304 -157.88873     180   0.0 Hōkūleʻa
  2021-10-26T14:18:55UTC 2021-10-26T04:18:55-10:00 2021-10-26T03:18:55-11:00  21.31306 -157.88873      90   0.0 Hōkūleʻa
  2021-10-26T13:18:34UTC 2021-10-26T03:18:34-10:00 2021-10-26T02:18:34-11:00  21.31306 -157.88875     270   0.0 Hōkūleʻa
  2021-10-26T12:18:33UTC 2021-10-26T02:18:33-10:00 2021-10-26T01:18:33-11:00  21.31306 -157.88873       0   0.0 Hōkūleʻa
  2021-10-26T11:18:22UTC 2021-10-26T01:18:22-10:00 2021-10-26T00:18:22-11:00  21.31306 -157.88873     180   0.0 Hōkūleʻa
  2021-10-26T10:18:49UTC 2021-10-26T00:18:49-10:00 2021-10-25T23:18:49-11:00  21.31307 -157.88873      80   0.0 Hōkūleʻa
  2021-10-26T09:18:35UTC 2021-10-25T23:18:35-10:00 2021-10-25T22:18:35-11:00  21.31306 -157.88879     262   0.0 Hōkūleʻa
  2021-10-26T08:17:28UTC 2021-10-25T22:17:28-10:00 2021-10-25T21:17:28-11:00  21.31307 -157.88871      61   0.0 Hōkūleʻa
  2021-10-26T07:18:24UTC 2021-10-25T21:18:24-10:00 2021-10-25T20:18:24-11:00  21.31306 -157.88873       0   0.0 Hōkūleʻa
  2021-10-26T06:18:48UTC 2021-10-25T20:18:48-10:00 2021-10-25T19:18:48-11:00  21.31305 -157.88873     180   0.0 Hōkūleʻa
  2021-10-26T05:18:23UTC 2021-10-25T19:18:23-10:00 2021-10-25T18:18:23-11:00  21.31310 -157.88873       0   0.0 Hōkūleʻa
  2021-10-26T04:27:58UTC 2021-10-25T18:27:58-10:00 2021-10-25T17:27:58-11:00  21.31306 -157.88873     180   0.0 Hōkūleʻa
  2021-10-26T03:18:33UTC 2021-10-25T17:18:33-10:00 2021-10-25T16:18:33-11:00  21.31307 -157.88873     241   0.0 Hōkūleʻa
  2021-10-26T02:18:47UTC 2021-10-25T16:18:47-10:00 2021-10-25T15:18:47-11:00  21.31308 -157.88871     131   0.0 Hōkūleʻa
  2021-10-26T01:17:26UTC 2021-10-25T15:17:26-10:00 2021-10-25T14:17:26-11:00  21.31313 -157.88877       0   0.0 Hōkūleʻa
  2021-10-26T00:18:33UTC 2021-10-25T14:18:33-10:00 2021-10-25T13:18:33-11:00  21.31305 -157.88877     241   0.0 Hōkūleʻa
  2021-10-25T23:18:30UTC 2021-10-25T13:18:30-10:00 2021-10-25T12:18:30-11:00  21.31308 -157.88871      90   0.0 Hōkūleʻa
  2021-10-25T22:17:45UTC 2021-10-25T12:17:45-10:00 2021-10-25T11:17:45-11:00  21.31308 -157.88873     180   0.0 Hōkūleʻa
  2021-10-25T21:18:37UTC 2021-10-25T11:18:37-10:00 2021-10-25T10:18:37-11:00  21.31309 -157.88873      26   0.0 Hōkūleʻa
  2021-10-25T20:17:22UTC 2021-10-25T10:17:22-10:00 2021-10-25T09:17:22-11:00  21.31305 -157.88875     223   0.0 Hōkūleʻa
  2021-10-25T19:18:25UTC 2021-10-25T09:18:25-10:00 2021-10-25T08:18:25-11:00  21.31307 -157.88873       0   0.0 Hōkūleʻa
  2021-10-25T18:18:49UTC 2021-10-25T08:18:49-10:00 2021-10-25T07:18:49-11:00  21.31306 -157.88873     118   0.0 Hōkūleʻa
  2021-10-25T17:18:36UTC 2021-10-25T07:18:36-10:00 2021-10-25T06:18:36-11:00  21.31307 -157.88875     270   0.0 Hōkūleʻa
  2021-10-25T16:17:24UTC 2021-10-25T06:17:24-10:00 2021-10-25T05:17:24-11:00  21.31307 -157.88873       0   0.0 Hōkūleʻa
  2021-10-25T15:18:22UTC 2021-10-25T05:18:22-10:00 2021-10-25T04:18:22-11:00  21.31306 -157.88873       0   0.0 Hōkūleʻa
  2021-10-25T14:18:47UTC 2021-10-25T04:18:47-10:00 2021-10-25T03:18:47-11:00  21.31306 -157.88873      62   0.0 Hōkūleʻa
  2021-10-25T13:18:26UTC 2021-10-25T03:18:26-10:00 2021-10-25T02:18:26-11:00  21.31305 -157.88875     242   0.0 Hōkūleʻa
  2021-10-25T12:18:22UTC 2021-10-25T02:18:22-10:00 2021-10-25T01:18:22-11:00  21.31306 -157.88873       0   0.0 Hōkūleʻa
  2021-10-25T11:18:30UTC 2021-10-25T01:18:30-10:00 2021-10-25T00:18:30-11:00  21.31305 -157.88873     180   0.0 Hōkūleʻa
  2021-10-25T10:18:42UTC 2021-10-25T00:18:42-10:00 2021-10-24T23:18:42-11:00  21.31306 -157.88873     180   0.0 Hōkūleʻa
  2021-10-25T09:18:30UTC 2021-10-24T23:18:30-10:00 2021-10-24T22:18:30-11:00  21.31307 -157.88873       0   0.0 Hōkūleʻa
  2021-10-25T08:18:28UTC 2021-10-24T22:18:28-10:00 2021-10-24T21:18:28-11:00  21.31307 -157.88873       0   0.0 Hōkūleʻa
  2021-10-25T07:17:33UTC 2021-10-24T21:17:33-10:00 2021-10-24T20:17:33-11:00  21.31306 -157.88873     180   0.0 Hōkūleʻa
  2021-10-25T06:18:40UTC 2021-10-24T20:18:40-10:00 2021-10-24T19:18:40-11:00  21.31307 -157.88873     328   0.0 Hōkūleʻa
  2021-10-25T05:18:28UTC 2021-10-24T19:18:28-10:00 2021-10-24T18:18:28-11:00  21.31304 -157.88871     180   0.0 Hōkūleʻa
  2021-10-25T04:18:24UTC 2021-10-24T18:18:24-10:00 2021-10-24T17:18:24-11:00  21.31305 -157.88871     138   0.0 Hōkūleʻa
  2021-10-25T03:18:31UTC 2021-10-24T17:18:31-10:00 2021-10-24T16:18:31-11:00  21.31307 -157.88873     241   0.0 Hōkūleʻa
  2021-10-25T02:17:52UTC 2021-10-24T16:17:52-10:00 2021-10-24T15:17:52-11:00  21.31308 -157.88871     180   0.0 Hōkūleʻa
  2021-10-25T01:18:27UTC 2021-10-24T15:18:27-10:00 2021-10-24T14:18:27-11:00  21.31311 -157.88871     317   0.0 Hōkūleʻa
  2021-10-25T00:18:33UTC 2021-10-24T14:18:33-10:00 2021-10-24T13:18:33-11:00  21.31307 -157.88866     105   0.0 Hōkūleʻa
  2021-10-24T23:17:30UTC 2021-10-24T13:17:30-10:00 2021-10-24T12:17:30-11:00  21.31308 -157.88871     180   0.0 Hōkūleʻa
  2021-10-24T22:17:38UTC 2021-10-24T12:17:38-10:00 2021-10-24T11:17:38-11:00  21.31309 -157.88871      71   0.0 Hōkūleʻa
  2021-10-24T21:18:25UTC 2021-10-24T11:18:25-10:00 2021-10-24T10:18:25-11:00  21.31307 -157.88877       0   0.0 Hōkūleʻa
  2021-10-24T20:17:29UTC 2021-10-24T10:17:29-10:00 2021-10-24T09:17:29-11:00  21.31307 -157.88877     280   0.0 Hōkūleʻa
  2021-10-24T19:18:25UTC 2021-10-24T09:18:25-10:00 2021-10-24T08:18:25-11:00  21.31306 -157.88871     119   0.0 Hōkūleʻa
  2021-10-24T18:18:46UTC 2021-10-24T08:18:46-10:00 2021-10-24T07:18:46-11:00  21.31307 -157.88873      90   0.0 Hōkūleʻa
  2021-10-24T17:18:35UTC 2021-10-24T07:18:35-10:00 2021-10-24T06:18:35-11:00  21.31307 -157.88877     318   0.0 Hōkūleʻa
  2021-10-24T16:18:23UTC 2021-10-24T06:18:23-10:00 2021-10-24T05:18:23-11:00  21.31305 -157.88875     270   0.0 Hōkūleʻa
  2021-10-24T15:18:32UTC 2021-10-24T05:18:32-10:00 2021-10-24T04:18:32-11:00  21.31305 -157.88873       0   0.0 Hōkūleʻa
  2021-10-24T14:18:40UTC 2021-10-24T04:18:40-10:00 2021-10-24T03:18:40-11:00  21.31303 -157.88873     180   0.0 Hōkūleʻa
  2021-10-24T13:27:23UTC 2021-10-24T03:27:23-10:00 2021-10-24T02:27:23-11:00  21.31305 -157.88873     270   0.0 Hōkūleʻa
  2021-10-24T12:18:38UTC 2021-10-24T02:18:38-10:00 2021-10-24T01:18:38-11:00  21.31305 -157.88871      90   0.0 Hōkūleʻa
  2021-10-24T11:18:21UTC 2021-10-24T01:18:21-10:00 2021-10-24T00:18:21-11:00  21.31305 -157.88873       0   0.0 Hōkūleʻa
  2021-10-24T10:18:41UTC 2021-10-24T00:18:41-10:00 2021-10-23T23:18:41-11:00  21.31305 -157.88873     180   0.0 Hōkūleʻa
  2021-10-24T09:18:33UTC 2021-10-23T23:18:33-10:00 2021-10-23T22:18:33-11:00  21.31306 -157.88873       0   0.0 Hōkūleʻa
  2021-10-24T08:18:35UTC 2021-10-23T22:18:35-10:00 2021-10-23T21:18:35-11:00  21.31306 -157.88873       0   0.0 Hōkūleʻa
  2021-10-24T07:18:52UTC 2021-10-23T21:18:52-10:00 2021-10-23T20:18:52-11:00  21.31304 -157.88873     180   0.0 Hōkūleʻa
  2021-10-24T06:17:29UTC 2021-10-23T20:17:29-10:00 2021-10-23T19:17:29-11:00  21.31307 -157.88873       0   0.0 Hōkūleʻa
  2021-10-24T05:18:27UTC 2021-10-23T19:18:27-10:00 2021-10-23T18:18:27-11:00  21.31305 -157.88873      48   0.4 Hōkūleʻa
  2021-10-24T04:18:53UTC 2021-10-23T18:18:53-10:00 2021-10-23T17:18:53-11:00  21.30856 -157.89401     358   2.3 Hōkūleʻa
  2021-10-24T03:18:50UTC 2021-10-23T17:18:50-10:00 2021-10-23T16:18:50-11:00  21.26963 -157.89220     184   2.6 Hōkūleʻa
  2021-10-24T02:18:27UTC 2021-10-23T16:18:27-10:00 2021-10-23T15:18:27-11:00  21.31313 -157.88871       0   0.0 Hōkūleʻa
  2021-10-24T01:18:33UTC 2021-10-23T15:18:33-10:00 2021-10-23T14:18:33-11:00  21.31307 -157.88871     119   0.0 Hōkūleʻa
  2021-10-24T00:17:49UTC 2021-10-23T14:17:49-10:00 2021-10-23T13:17:49-11:00  21.31308 -157.88873     299   0.0 Hōkūleʻa
  2021-10-23T23:18:29UTC 2021-10-23T13:18:29-10:00 2021-10-23T12:18:29-11:00  21.31307 -157.88871      90   0.0 Hōkūleʻa
  2021-10-23T22:18:32UTC 2021-10-23T12:18:32-10:00 2021-10-23T11:18:32-11:00  21.31307 -157.88873     180   0.0 Hōkūleʻa
  2021-10-23T21:17:32UTC 2021-10-23T11:17:32-10:00 2021-10-23T10:17:32-11:00  21.31310 -157.88873       0   0.0 Hōkūleʻa
  2021-10-23T20:17:46UTC 2021-10-23T10:17:46-10:00 2021-10-23T09:17:46-11:00  21.31308 -157.88873     318   0.0 Hōkūleʻa
  2021-10-23T19:18:33UTC 2021-10-23T09:18:33-10:00 2021-10-23T08:18:33-11:00  21.31306 -157.88871     138   0.0 Hōkūleʻa
  2021-10-23T18:18:33UTC 2021-10-23T08:18:33-10:00 2021-10-23T07:18:33-11:00  21.31308 -157.88873       0   0.0 Hōkūleʻa
  2021-10-23T17:18:30UTC 2021-10-23T07:18:30-10:00 2021-10-23T06:18:30-11:00  21.31307 -157.88873       0   0.0 Hōkūleʻa
  2021-10-23T16:18:42UTC 2021-10-23T06:18:42-10:00 2021-10-23T05:18:42-11:00  21.31305 -157.88873       0   0.0 Hōkūleʻa
  2021-10-23T15:18:38UTC 2021-10-23T05:18:38-10:00 2021-10-23T04:18:38-11:00  21.31305 -157.88873     180   0.0 Hōkūleʻa
  2021-10-23T14:17:28UTC 2021-10-23T04:17:28-10:00 2021-10-23T03:17:28-11:00  21.31306 -157.88873       0   0.0 Hōkūleʻa
  2021-10-23T13:18:24UTC 2021-10-23T03:18:24-10:00 2021-10-23T02:18:24-11:00  21.31305 -157.88873     180   0.0 Hōkūleʻa
  2021-10-23T12:18:40UTC 2021-10-23T02:18:40-10:00 2021-10-23T01:18:40-11:00  21.31306 -157.88873      33   0.0 Hōkūleʻa
  2021-10-23T11:18:22UTC 2021-10-23T01:18:22-10:00 2021-10-23T00:18:22-11:00  21.31303 -157.88875     180   0.0 Hōkūleʻa
  2021-10-23T10:18:32UTC 2021-10-23T00:18:32-10:00 2021-10-22T23:18:32-11:00  21.31312 -157.88875     334   0.0 Hōkūleʻa
  2021-10-23T09:18:32UTC 2021-10-22T23:18:32-10:00 2021-10-22T22:18:32-11:00  21.31308 -157.88873       0   0.0 Hōkūleʻa
  2021-10-23T08:18:49UTC 2021-10-22T22:18:49-10:00 2021-10-22T21:18:49-11:00  21.31307 -157.88873       0   0.0 Hōkūleʻa
  2021-10-23T07:18:27UTC 2021-10-22T21:18:27-10:00 2021-10-22T20:18:27-11:00  21.31305 -157.88873     180   0.0 Hōkūleʻa
  2021-10-23T06:18:33UTC 2021-10-22T20:18:33-10:00 2021-10-22T19:18:33-11:00  21.31306 -157.88873     180   0.0 Hōkūleʻa
  2021-10-23T05:18:30UTC 2021-10-22T19:18:30-10:00 2021-10-22T18:18:30-11:00  21.31307 -157.88873       0   0.0 Hōkūleʻa
  2021-10-23T04:18:39UTC 2021-10-22T18:18:39-10:00 2021-10-22T17:18:39-11:00  21.31306 -157.88873     241   0.0 Hōkūleʻa
  2021-10-23T03:26:21UTC 2021-10-22T17:26:21-10:00 2021-10-22T16:26:21-11:00  21.31307 -157.88871     180   0.0 Hōkūleʻa
  2021-10-23T02:17:28UTC 2021-10-22T16:17:28-10:00 2021-10-22T15:17:28-11:00  21.31311 -157.88871      42   0.0 Hōkūleʻa
  2021-10-23T01:18:25UTC 2021-10-22T15:18:25-10:00 2021-10-22T14:18:25-11:00  21.31309 -157.88873       0   0.0 Hōkūleʻa
  2021-10-23T00:19:16UTC 2021-10-22T14:19:16-10:00 2021-10-22T13:19:16-11:00  21.31308 -157.88873     285   0.0 Hōkūleʻa
  2021-10-22T23:17:29UTC 2021-10-22T13:17:29-10:00 2021-10-22T12:17:29-11:00  21.31307 -157.88868     118   0.0 Hōkūleʻa
  2021-10-22T22:18:30UTC 2021-10-22T12:18:30-10:00 2021-10-22T11:18:30-11:00  21.31308 -157.88871     180   0.0 Hōkūleʻa
  2021-10-22T21:18:49UTC 2021-10-22T11:18:49-10:00 2021-10-22T10:18:49-11:00  21.31309 -157.88871     279   0.0 Hōkūleʻa
  2021-10-22T20:24:04UTC 2021-10-22T10:24:04-10:00 2021-10-22T09:24:04-11:00  21.31308 -157.88864      82   0.0 Hōkūleʻa
  2021-10-22T19:18:24UTC 2021-10-22T09:18:24-10:00 2021-10-22T08:18:24-11:00  21.31307 -157.88873     180   0.0 Hōkūleʻa
  2021-10-22T18:18:47UTC 2021-10-22T08:18:47-10:00 2021-10-22T07:18:47-11:00  21.31308 -157.88873      90   0.0 Hōkūleʻa
  2021-10-22T17:18:36UTC 2021-10-22T07:18:36-10:00 2021-10-22T06:18:36-11:00  21.31308 -157.88875       0   0.0 Hōkūleʻa
  2021-10-22T16:18:24UTC 2021-10-22T06:18:24-10:00 2021-10-22T05:18:24-11:00  21.31307 -157.88875     298   0.0 Hōkūleʻa
  2021-10-22T15:18:32UTC 2021-10-22T05:18:32-10:00 2021-10-22T04:18:32-11:00  21.31306 -157.88873     180   0.0 Hōkūleʻa
  2021-10-22T14:18:44UTC 2021-10-22T04:18:44-10:00 2021-10-22T03:18:44-11:00  21.31307 -157.88873       0   0.0 Hōkūleʻa
  2021-10-22T13:18:35UTC 2021-10-22T03:18:35-10:00 2021-10-22T02:18:35-11:00  21.31305 -157.88873     180   0.0 Hōkūleʻa
  2021-10-22T12:18:32UTC 2021-10-22T02:18:32-10:00 2021-10-22T01:18:32-11:00  21.31306 -157.88873     180   0.0 Hōkūleʻa
  2021-10-22T11:18:30UTC 2021-10-22T01:18:30-10:00 2021-10-22T00:18:30-11:00  21.31307 -157.88873       0   0.0 Hōkūleʻa
  2021-10-22T10:18:46UTC 2021-10-22T00:18:46-10:00 2021-10-21T23:18:46-11:00  21.31306 -157.88873     255   0.0 Hōkūleʻa
  2021-10-22T09:18:30UTC 2021-10-21T23:18:30-10:00 2021-10-21T22:18:30-11:00  21.31307 -157.88868      90   0.0 Hōkūleʻa
  2021-10-22T08:18:28UTC 2021-10-21T22:18:28-10:00 2021-10-21T21:18:28-11:00  21.31307 -157.88873       0   0.0 Hōkūleʻa
  2021-10-22T07:18:32UTC 2021-10-21T21:18:32-10:00 2021-10-21T20:18:32-11:00  21.31306 -157.88873       0   0.0 Hōkūleʻa
  2021-10-22T06:18:49UTC 2021-10-21T20:18:49-10:00 2021-10-21T19:18:49-11:00  21.31306 -157.88873     148   0.0 Hōkūleʻa
  2021-10-22T05:18:29UTC 2021-10-21T19:18:29-10:00 2021-10-21T18:18:29-11:00  21.31312 -157.88877     323   0.0 Hōkūleʻa
  2021-10-22T04:18:33UTC 2021-10-21T18:18:33-10:00 2021-10-21T17:18:33-11:00  21.31307 -157.88873     180   0.0 Hōkūleʻa
  2021-10-22T03:18:32UTC 2021-10-21T17:18:32-10:00 2021-10-21T16:18:32-11:00  21.31312 -157.88873     299   0.0 Hōkūleʻa
  2021-10-22T02:19:05UTC 2021-10-21T16:19:05-10:00 2021-10-21T15:19:05-11:00  21.31310 -157.88868     105   0.0 Hōkūleʻa
  2021-10-22T01:18:35UTC 2021-10-21T15:18:35-10:00 2021-10-21T14:18:35-11:00  21.31311 -157.88873       0   0.0 Hōkūleʻa
  2021-10-22T00:17:23UTC 2021-10-21T14:17:23-10:00 2021-10-21T13:17:23-11:00  21.31310 -157.88873       0   0.0 Hōkūleʻa
  2021-10-21T23:18:31UTC 2021-10-21T13:18:31-10:00 2021-10-21T12:18:31-11:00  21.31310 -157.88873       0   0.0 Hōkūleʻa
  2021-10-21T22:17:44UTC 2021-10-21T12:17:44-10:00 2021-10-21T11:17:44-11:00  21.31310 -157.88873      78   0.0 Hōkūleʻa
  2021-10-21T21:17:24UTC 2021-10-21T11:17:24-10:00 2021-10-21T10:17:24-11:00  21.31308 -157.88883     270   0.0 Hōkūleʻa
  2021-10-21T20:18:44UTC 2021-10-21T10:18:44-10:00 2021-10-21T09:18:44-11:00  21.31308 -157.88875       0   0.0 Hōkūleʻa
  2021-10-21T19:17:24UTC 2021-10-21T09:17:24-10:00 2021-10-21T08:17:24-11:00  21.31305 -157.88875     270   0.0 Hōkūleʻa
  2021-10-21T18:18:40UTC 2021-10-21T08:18:40-10:00 2021-10-21T07:18:40-11:00  21.31305 -157.88873     270   0.0 Hōkūleʻa
  2021-10-21T17:27:34UTC 2021-10-21T07:27:34-10:00 2021-10-21T06:27:34-11:00  21.31305 -157.88868     110   0.0 Hōkūleʻa
  2021-10-21T16:18:33UTC 2021-10-21T06:18:33-10:00 2021-10-21T05:18:33-11:00  21.31307 -157.88875     298   0.0 Hōkūleʻa
  2021-10-21T15:25:04UTC 2021-10-21T05:25:04-10:00 2021-10-21T04:25:04-11:00  21.31306 -157.88873     180   0.0 Hōkūleʻa
  2021-10-21T14:18:38UTC 2021-10-21T04:18:38-10:00 2021-10-21T03:18:38-11:00  21.31308 -157.88873       0   0.0 Hōkūleʻa
  2021-10-21T13:18:36UTC 2021-10-21T03:18:36-10:00 2021-10-21T02:18:36-11:00  21.31308 -157.88873       0   0.0 Hōkūleʻa
  2021-10-21T12:18:35UTC 2021-10-21T02:18:35-10:00 2021-10-21T01:18:35-11:00  21.31303 -157.88873     180   0.0 Hōkūleʻa
  2021-10-21T11:17:21UTC 2021-10-21T01:17:21-10:00 2021-10-21T00:17:21-11:00  21.31308 -157.88873       0   0.0 Hōkūleʻa
  2021-10-21T10:18:37UTC 2021-10-21T00:18:37-10:00 2021-10-20T23:18:37-11:00  21.31305 -157.88873     255   0.0 Hōkūleʻa
  2021-10-21T09:18:30UTC 2021-10-20T23:18:30-10:00 2021-10-20T22:18:30-11:00  21.31306 -157.88868      90   0.0 Hōkūleʻa
  2021-10-21T08:18:37UTC 2021-10-20T22:18:37-10:00 2021-10-20T21:18:37-11:00  21.31306 -157.88875       0   0.0 Hōkūleʻa
  2021-10-21T07:18:32UTC 2021-10-20T21:18:32-10:00 2021-10-20T20:18:32-11:00  21.31303 -157.88875     206   0.0 Hōkūleʻa
  2021-10-21T06:18:49UTC 2021-10-20T20:18:49-10:00 2021-10-20T19:18:49-11:00  21.31307 -157.88873     328   0.0 Hōkūleʻa
  2021-10-21T05:18:21UTC 2021-10-20T19:18:21-10:00 2021-10-20T18:18:21-11:00  21.31304 -157.88871     117   0.0 Hōkūleʻa
  2021-10-21T04:18:24UTC 2021-10-20T18:18:24-10:00 2021-10-20T17:18:24-11:00  21.31305 -157.88873     205   0.0 Hōkūleʻa
  2021-10-21T03:18:32UTC 2021-10-20T17:18:32-10:00 2021-10-20T16:18:32-11:00  21.31309 -157.88871     119   0.0 Hōkūleʻa
  2021-10-21T02:17:47UTC 2021-10-20T16:17:47-10:00 2021-10-20T15:17:47-11:00  21.31310 -157.88873     118   0.0 Hōkūleʻa
  2021-10-21T01:17:41UTC 2021-10-20T15:17:41-10:00 2021-10-20T14:17:41-11:00  21.31311 -157.88875     327   0.0 Hōkūleʻa
  2021-10-21T00:24:53UTC 2021-10-20T14:24:53-10:00 2021-10-20T13:24:53-11:00  21.31308 -157.88873     223   0.0 Hōkūleʻa
  2021-10-20T23:17:21UTC 2021-10-20T13:17:21-10:00 2021-10-20T12:17:21-11:00  21.31310 -157.88871      43   0.0 Hōkūleʻa
  2021-10-20T22:17:40UTC 2021-10-20T12:17:40-10:00 2021-10-20T11:17:40-11:00  21.31308 -157.88873      85   0.0 Hōkūleʻa
  2021-10-20T21:18:38UTC 2021-10-20T11:18:38-10:00 2021-10-20T10:18:38-11:00  21.31307 -157.88886     265   0.0 Hōkūleʻa
  2021-10-20T20:17:29UTC 2021-10-20T10:17:29-10:00 2021-10-20T09:17:29-11:00  21.31308 -157.88873       0   0.0 Hōkūleʻa
  2021-10-20T19:18:21UTC 2021-10-20T09:18:21-10:00 2021-10-20T08:18:21-11:00  21.31305 -157.88873       0   0.0 Hōkūleʻa
  2021-10-20T18:18:47UTC 2021-10-20T08:18:47-10:00 2021-10-20T07:18:47-11:00  21.31305 -157.88873     282   0.0 Hōkūleʻa
  2021-10-20T17:18:30UTC 2021-10-20T07:18:30-10:00 2021-10-20T06:18:30-11:00  21.31303 -157.88862     112   0.0 Hōkūleʻa
  2021-10-20T16:18:34UTC 2021-10-20T06:18:34-10:00 2021-10-20T05:18:34-11:00  21.31306 -157.88871      90   0.0 Hōkūleʻa
  2021-10-20T15:18:31UTC 2021-10-20T05:18:31-10:00 2021-10-20T04:18:31-11:00  21.31306 -157.88873       0   0.0 Hōkūleʻa
  2021-10-20T14:18:47UTC 2021-10-20T04:18:47-10:00 2021-10-20T03:18:47-11:00  21.31306 -157.88873       0   0.0 Hōkūleʻa
  2021-10-20T13:18:28UTC 2021-10-20T03:18:28-10:00 2021-10-20T02:18:28-11:00  21.31306 -157.88873      62   0.0 Hōkūleʻa
  2021-10-20T12:18:32UTC 2021-10-20T02:18:32-10:00 2021-10-20T01:18:32-11:00  21.31305 -157.88875     223   0.0 Hōkūleʻa
  2021-10-20T11:18:27UTC 2021-10-20T01:18:27-10:00 2021-10-20T00:18:27-11:00  21.31307 -157.88873       0   0.0 Hōkūleʻa
  2021-10-20T10:18:37UTC 2021-10-20T00:18:37-10:00 2021-10-19T23:18:37-11:00  21.31307 -157.88873       0   0.0 Hōkūleʻa
  2021-10-20T09:17:32UTC 2021-10-19T23:17:32-10:00 2021-10-19T22:17:32-11:00  21.31307 -157.88873     318   0.0 Hōkūleʻa
  2021-10-20T08:18:23UTC 2021-10-19T22:18:23-10:00 2021-10-19T21:18:23-11:00  21.31305 -157.88871     105   0.0 Hōkūleʻa
  2021-10-20T07:18:26UTC 2021-10-19T21:18:26-10:00 2021-10-19T20:18:26-11:00  21.31306 -157.88875     298   0.0 Hōkūleʻa
  2021-10-20T06:18:42UTC 2021-10-19T20:18:42-10:00 2021-10-19T19:18:42-11:00  21.31305 -157.88873     148   0.0 Hōkūleʻa
  2021-10-20T05:18:32UTC 2021-10-19T19:18:32-10:00 2021-10-19T18:18:32-11:00  21.31308 -157.88875     270   0.0 Hōkūleʻa
  2021-10-20T04:18:33UTC 2021-10-19T18:18:33-10:00 2021-10-19T17:18:33-11:00  21.31308 -157.88873     242   0.0 Hōkūleʻa
  2021-10-20T03:18:31UTC 2021-10-19T17:18:31-10:00 2021-10-19T16:18:31-11:00  21.31310 -157.88868      62   0.0 Hōkūleʻa
  2021-10-20T02:17:49UTC 2021-10-19T16:17:49-10:00 2021-10-19T15:17:49-11:00  21.31309 -157.88871     260   0.0 Hōkūleʻa
  2021-10-20T01:18:35UTC 2021-10-19T15:18:35-10:00 2021-10-19T14:18:35-11:00  21.31310 -157.88864      90   0.0 Hōkūleʻa
  2021-10-20T00:18:32UTC 2021-10-19T14:18:32-10:00 2021-10-19T13:18:32-11:00  21.31310 -157.88871      25   0.0 Hōkūleʻa
  2021-10-19T23:24:06UTC 2021-10-19T13:24:06-10:00 2021-10-19T12:24:06-11:00  21.31306 -157.88873     180   0.0 Hōkūleʻa
  2021-10-19T22:17:42UTC 2021-10-19T12:17:42-10:00 2021-10-19T11:17:42-11:00  21.31307 -157.88873     136   0.0 Hōkūleʻa
  2021-10-19T21:18:30UTC 2021-10-19T11:18:30-10:00 2021-10-19T10:18:30-11:00  21.31309 -157.88875     296   0.0 Hōkūleʻa
  2021-10-19T20:17:30UTC 2021-10-19T10:17:30-10:00 2021-10-19T09:17:30-11:00  21.31308 -157.88873       0   0.0 Hōkūleʻa
  2021-10-19T19:17:41UTC 2021-10-19T09:17:41-10:00 2021-10-19T08:17:41-11:00  21.31307 -157.88873       0   0.0 Hōkūleʻa
  2021-10-19T18:18:30UTC 2021-10-19T08:18:30-10:00 2021-10-19T07:18:30-11:00  21.31306 -157.88873       0   0.0 Hōkūleʻa
  2021-10-19T17:18:30UTC 2021-10-19T07:18:30-10:00 2021-10-19T06:18:30-11:00  21.31306 -157.88873       0   0.0 Hōkūleʻa
  2021-10-19T16:18:47UTC 2021-10-19T06:18:47-10:00 2021-10-19T05:18:47-11:00  21.31306 -157.88873       0   0.0 Hōkūleʻa
  2021-10-19T15:29:21UTC 2021-10-19T05:29:21-10:00 2021-10-19T04:29:21-11:00  21.31305 -157.88873     148   0.0 Hōkūleʻa
  2021-10-19T14:18:37UTC 2021-10-19T04:18:37-10:00 2021-10-19T03:18:37-11:00  21.31308 -157.88875       0   0.0 Hōkūleʻa
  2021-10-19T13:18:32UTC 2021-10-19T03:18:32-10:00 2021-10-19T02:18:32-11:00  21.31305 -157.88875     242   0.0 Hōkūleʻa
  2021-10-19T12:24:01UTC 2021-10-19T02:24:01-10:00 2021-10-19T01:24:01-11:00  21.31306 -157.88873       0   0.0 Hōkūleʻa
  2021-10-19T11:19:28UTC 2021-10-19T01:19:28-10:00 2021-10-19T00:19:28-11:00  21.31306 -157.88873      62   0.0 Hōkūleʻa
  2021-10-19T10:17:37UTC 2021-10-19T00:17:37-10:00 2021-10-18T23:17:37-11:00  21.31305 -157.88875     223   0.0 Hōkūleʻa
  2021-10-19T09:18:23UTC 2021-10-18T23:18:23-10:00 2021-10-18T22:18:23-11:00  21.31307 -157.88873       0   0.0 Hōkūleʻa
  2021-10-19T08:18:44UTC 2021-10-18T22:18:44-10:00 2021-10-18T21:18:44-11:00  21.31305 -157.88873       0   0.0 Hōkūleʻa
  2021-10-19T07:18:38UTC 2021-10-18T21:18:38-10:00 2021-10-18T20:18:38-11:00  21.31300 -157.88873     162   0.0 Hōkūleʻa
  2021-10-19T06:18:32UTC 2021-10-18T20:18:32-10:00 2021-10-18T19:18:32-11:00  21.31307 -157.88875     242   0.0 Hōkūleʻa
  2021-10-19T05:18:32UTC 2021-10-18T19:18:32-10:00 2021-10-18T18:18:32-11:00  21.31308 -157.88873       0   0.0 Hōkūleʻa
  2021-10-19T04:18:49UTC 2021-10-18T18:18:49-10:00 2021-10-18T17:18:49-11:00  21.31308 -157.88873     270   0.0 Hōkūleʻa
  2021-10-19T03:27:06UTC 2021-10-18T17:27:06-10:00 2021-10-18T16:27:06-11:00  21.31308 -157.88871       0   0.0 Hōkūleʻa
  2021-10-19T02:18:30UTC 2021-10-18T16:18:30-10:00 2021-10-18T15:18:30-11:00  21.31305 -157.88871     148   0.0 Hōkūleʻa
  2021-10-19T01:17:32UTC 2021-10-18T15:17:32-10:00 2021-10-18T14:17:32-11:00  21.31311 -157.88875     327   0.0 Hōkūleʻa
  2021-10-19T00:17:40UTC 2021-10-18T14:17:40-10:00 2021-10-18T13:17:40-11:00  21.31308 -157.88873      43   0.0 Hōkūleʻa
  2021-10-18T23:18:31UTC 2021-10-18T13:18:31-10:00 2021-10-18T12:18:31-11:00  21.31306 -157.88875     223   0.0 Hōkūleʻa
  2021-10-18T22:17:31UTC 2021-10-18T12:17:31-10:00 2021-10-18T11:17:31-11:00  21.31308 -157.88873       0   0.0 Hōkūleʻa
  2021-10-18T21:18:24UTC 2021-10-18T11:18:24-10:00 2021-10-18T10:18:24-11:00  21.31307 -157.88873       0   0.0 Hōkūleʻa
  2021-10-18T20:17:38UTC 2021-10-18T10:17:38-10:00 2021-10-18T09:17:38-11:00  21.31307 -157.88873       0   0.0 Hōkūleʻa
  2021-10-18T19:18:46UTC 2021-10-18T09:18:46-10:00 2021-10-18T08:18:46-11:00  21.31304 -157.88873     180   0.0 Hōkūleʻa
  2021-10-18T18:17:28UTC 2021-10-18T08:17:28-10:00 2021-10-18T07:17:28-11:00  21.31305 -157.88873       0   0.0 Hōkūleʻa
  2021-10-18T17:18:22UTC 2021-10-18T07:18:22-10:00 2021-10-18T06:18:22-11:00  21.31305 -157.88873     222   0.0 Hōkūleʻa
  2021-10-18T16:17:42UTC 2021-10-18T06:17:42-10:00 2021-10-18T05:17:42-11:00  21.31307 -157.88871       0   0.0 Hōkūleʻa
  2021-10-18T15:18:29UTC 2021-10-18T05:18:29-10:00 2021-10-18T04:18:29-11:00  21.31305 -157.88871     119   0.0 Hōkūleʻa
  2021-10-18T14:29:17UTC 2021-10-18T04:29:17-10:00 2021-10-18T03:29:17-11:00  21.31306 -157.88873       0   0.0 Hōkūleʻa
  2021-10-18T13:18:28UTC 2021-10-18T03:18:28-10:00 2021-10-18T02:18:28-11:00  21.31305 -157.88873       0   0.0 Hōkūleʻa
  2021-10-18T12:27:51UTC 2021-10-18T02:27:51-10:00 2021-10-18T01:27:51-11:00  21.31304 -157.88873     180   0.0 Hōkūleʻa
  2021-10-18T11:17:21UTC 2021-10-18T01:17:21-10:00 2021-10-18T00:17:21-11:00  21.31306 -157.88873     180   0.0 Hōkūleʻa
  2021-10-18T10:18:24UTC 2021-10-18T00:18:24-10:00 2021-10-17T23:18:24-11:00  21.31307 -157.88873       0   0.0 Hōkūleʻa
  2021-10-18T09:18:24UTC 2021-10-17T23:18:24-10:00 2021-10-17T22:18:24-11:00  21.31307 -157.88873       0   0.0 Hōkūleʻa
  2021-10-18T08:18:46UTC 2021-10-17T22:18:46-10:00 2021-10-17T21:18:46-11:00  21.31305 -157.88873       0   0.0 Hōkūleʻa
  2021-10-18T07:28:15UTC 2021-10-17T21:28:15-10:00 2021-10-17T20:28:15-11:00  21.31303 -157.88873     180   0.0 Hōkūleʻa
  2021-10-18T06:18:30UTC 2021-10-17T20:18:30-10:00 2021-10-17T19:18:30-11:00  21.31305 -157.88873     154   0.0 Hōkūleʻa
  2021-10-18T05:18:21UTC 2021-10-17T19:18:21-10:00 2021-10-17T18:18:21-11:00  21.31309 -157.88875     296   0.0 Hōkūleʻa
  2021-10-18T04:18:44UTC 2021-10-17T18:18:44-10:00 2021-10-17T17:18:44-11:00  21.31308 -157.88873     270   0.0 Hōkūleʻa
  2021-10-18T03:18:46UTC 2021-10-17T17:18:46-10:00 2021-10-17T16:18:46-11:00  21.31308 -157.88866      42   0.0 Hōkūleʻa
  2021-10-18T02:18:22UTC 2021-10-17T16:18:22-10:00 2021-10-17T15:18:22-11:00  21.31306 -157.88868     105   0.0 Hōkūleʻa
  2021-10-18T01:17:50UTC 2021-10-17T15:17:50-10:00 2021-10-17T14:17:50-11:00  21.31307 -157.88873     180   0.0 Hōkūleʻa
  2021-10-18T00:18:50UTC 2021-10-17T14:18:50-10:00 2021-10-17T13:18:50-11:00  21.31309 -157.88873     317   0.0 Hōkūleʻa
  2021-10-17T23:17:24UTC 2021-10-17T13:17:24-10:00 2021-10-17T12:17:24-11:00  21.31307 -157.88871      90   0.0 Hōkūleʻa
  2021-10-17T22:18:31UTC 2021-10-17T12:18:31-10:00 2021-10-17T11:18:31-11:00  21.31307 -157.88873     180   0.0 Hōkūleʻa
  2021-10-17T21:18:56UTC 2021-10-17T11:18:56-10:00 2021-10-17T10:18:56-11:00  21.31308 -157.88873      61   0.0 Hōkūleʻa
  2021-10-17T20:17:37UTC 2021-10-17T10:17:37-10:00 2021-10-17T09:17:37-11:00  21.31306 -157.88877     270   0.0 Hōkūleʻa
  2021-10-17T19:18:33UTC 2021-10-17T09:18:33-10:00 2021-10-17T08:18:33-11:00  21.31306 -157.88871     105   0.0 Hōkūleʻa
  2021-10-17T18:17:38UTC 2021-10-17T08:17:38-10:00 2021-10-17T07:17:38-11:00  21.31307 -157.88875     270   0.0 Hōkūleʻa
  2021-10-17T17:18:23UTC 2021-10-17T07:18:23-10:00 2021-10-17T06:18:23-11:00  21.31307 -157.88873      62   0.0 Hōkūleʻa
  2021-10-17T16:18:40UTC 2021-10-17T06:18:40-10:00 2021-10-17T05:18:40-11:00  21.31306 -157.88875     327   0.0 Hōkūleʻa
  2021-10-17T15:18:36UTC 2021-10-17T05:18:36-10:00 2021-10-17T04:18:36-11:00  21.31303 -157.88873     180   0.0 Hōkūleʻa
  2021-10-17T14:18:30UTC 2021-10-17T04:18:30-10:00 2021-10-17T03:18:30-11:00  21.31307 -157.88873       0   0.0 Hōkūleʻa
  2021-10-17T13:17:26UTC 2021-10-17T03:17:26-10:00 2021-10-17T02:17:26-11:00  21.31303 -157.88873       0   0.0 Hōkūleʻa
  2021-10-17T12:18:41UTC 2021-10-17T02:18:41-10:00 2021-10-17T01:18:41-11:00  21.31303 -157.88873     180   0.0 Hōkūleʻa
  2021-10-17T11:18:29UTC 2021-10-17T01:18:29-10:00 2021-10-17T00:18:29-11:00  21.31304 -157.88873     323   0.0 Hōkūleʻa
  2021-10-17T10:18:27UTC 2021-10-17T00:18:27-10:00 2021-10-16T23:18:27-11:00  21.31293 -157.88864     146   0.0 Hōkūleʻa
  2021-10-17T09:18:31UTC 2021-10-16T23:18:31-10:00 2021-10-16T22:18:31-11:00  21.31305 -157.88873     180   0.0 Hōkūleʻa
  2021-10-17T08:18:46UTC 2021-10-16T22:18:46-10:00 2021-10-16T21:18:46-11:00  21.31307 -157.88873      90   0.0 Hōkūleʻa
  2021-10-17T07:18:35UTC 2021-10-16T21:18:35-10:00 2021-10-16T20:18:35-11:00  21.31307 -157.88877     270   0.0 Hōkūleʻa
  2021-10-17T06:18:31UTC 2021-10-16T20:18:31-10:00 2021-10-16T19:18:31-11:00  21.31307 -157.88873       0   0.0 Hōkūleʻa
  2021-10-17T05:18:32UTC 2021-10-16T19:18:32-10:00 2021-10-16T18:18:32-11:00  21.31305 -157.88873     180   0.0 Hōkūleʻa
  2021-10-17T04:17:45UTC 2021-10-16T18:17:45-10:00 2021-10-16T17:17:45-11:00  21.31306 -157.88873     180   0.0 Hōkūleʻa
  2021-10-17T03:27:04UTC 2021-10-16T17:27:04-10:00 2021-10-16T16:27:04-11:00  21.31310 -157.88873       0   0.0 Hōkūleʻa
  2021-10-17T02:18:30UTC 2021-10-16T16:18:30-10:00 2021-10-16T15:18:30-11:00  21.31308 -157.88873     180   0.0 Hōkūleʻa
  2021-10-17T01:17:24UTC 2021-10-16T15:17:24-10:00 2021-10-16T14:17:24-11:00  21.31311 -157.88873     318   0.0 Hōkūleʻa
  2021-10-17T00:18:49UTC 2021-10-16T14:18:49-10:00 2021-10-16T13:18:49-11:00  21.31309 -157.88871     180   0.0 Hōkūleʻa
  2021-10-16T23:17:22UTC 2021-10-16T13:17:22-10:00 2021-10-16T12:17:22-11:00  21.31310 -157.88871       0   0.0 Hōkūleʻa
  2021-10-16T22:18:32UTC 2021-10-16T12:18:32-10:00 2021-10-16T11:18:32-11:00  21.31310 -157.88871      43   0.0 Hōkūleʻa
  2021-10-16T21:17:30UTC 2021-10-16T11:17:30-10:00 2021-10-16T10:17:30-11:00  21.31308 -157.88873     252   0.0 Hōkūleʻa
  2021-10-16T20:25:52UTC 2021-10-16T10:25:52-10:00 2021-10-16T09:25:52-11:00  21.31311 -157.88862     270   0.0 Hōkūleʻa
  2021-10-16T19:18:25UTC 2021-10-16T09:18:25-10:00 2021-10-16T08:18:25-11:00  21.31311 -157.88860      58   0.0 Hōkūleʻa
  2021-10-16T18:18:32UTC 2021-10-16T08:18:32-10:00 2021-10-16T07:18:32-11:00  21.31304 -157.88873     147   0.0 Hōkūleʻa
  2021-10-16T17:18:31UTC 2021-10-16T07:18:31-10:00 2021-10-16T06:18:31-11:00  21.31307 -157.88875     298   0.0 Hōkūleʻa
  2021-10-16T16:18:50UTC 2021-10-16T06:18:50-10:00 2021-10-16T05:18:50-11:00  21.31306 -157.88873       0   0.0 Hōkūleʻa
  2021-10-16T15:18:32UTC 2021-10-16T05:18:32-10:00 2021-10-16T04:18:32-11:00  21.31306 -157.88873     180   0.0 Hōkūleʻa
  2021-10-16T14:18:30UTC 2021-10-16T04:18:30-10:00 2021-10-16T03:18:30-11:00  21.31308 -157.88873       0   0.0 Hōkūleʻa
  2021-10-16T13:18:23UTC 2021-10-16T03:18:23-10:00 2021-10-16T02:18:23-11:00  21.31306 -157.88873       0   0.0 Hōkūleʻa
  2021-10-16T12:18:40UTC 2021-10-16T02:18:40-10:00 2021-10-16T01:18:40-11:00  21.31305 -157.88873      90   0.0 Hōkūleʻa
  2021-10-16T11:18:48UTC 2021-10-16T01:18:48-10:00 2021-10-16T00:18:48-11:00  21.31305 -157.88877     241   0.0 Hōkūleʻa
  2021-10-16T10:18:28UTC 2021-10-16T00:18:28-10:00 2021-10-15T23:18:28-11:00  21.31306 -157.88875     180   0.0 Hōkūleʻa
  2021-10-16T09:18:24UTC 2021-10-15T23:18:24-10:00 2021-10-15T22:18:24-11:00  21.31307 -157.88875     317   0.0 Hōkūleʻa
  2021-10-16T08:18:39UTC 2021-10-15T22:18:39-10:00 2021-10-15T21:18:39-11:00  21.31305 -157.88873     105   0.0 Hōkūleʻa
  2021-10-16T07:18:40UTC 2021-10-15T21:18:40-10:00 2021-10-15T20:18:40-11:00  21.31306 -157.88877     241   0.0 Hōkūleʻa
  2021-10-16T06:17:32UTC 2021-10-15T20:17:32-10:00 2021-10-15T19:17:32-11:00  21.31308 -157.88873       0   0.0 Hōkūleʻa
  2021-10-16T05:18:22UTC 2021-10-15T19:18:22-10:00 2021-10-15T18:18:22-11:00  21.31306 -157.88873     180   0.0 Hōkūleʻa
  2021-10-16T04:18:41UTC 2021-10-15T18:18:41-10:00 2021-10-15T17:18:41-11:00  21.31308 -157.88873     350   0.0 Hōkūleʻa
  2021-10-16T03:28:35UTC 2021-10-15T17:28:35-10:00 2021-10-15T16:28:35-11:00  21.31297 -157.88871       0   0.0 Hōkūleʻa
  2021-10-16T02:18:37UTC 2021-10-15T16:18:37-10:00 2021-10-15T15:18:37-11:00  21.31297 -157.88871     302   0.0 Hōkūleʻa
  2021-10-16T01:18:54UTC 2021-10-15T15:18:54-10:00 2021-10-15T14:18:54-11:00  21.31291 -157.88860     306   0.0 Hōkūleʻa
  2021-10-16T00:17:40UTC 2021-10-15T14:17:40-10:00 2021-10-15T13:17:40-11:00  21.31286 -157.88853       0   0.0 Hōkūleʻa
  2021-10-15T23:17:31UTC 2021-10-15T13:17:31-10:00 2021-10-15T12:17:31-11:00  21.31285 -157.88853      64   0.0 Hōkūleʻa
  2021-10-15T22:25:39UTC 2021-10-15T12:25:39-10:00 2021-10-15T11:25:39-11:00  21.31284 -157.88856     117   0.0 Hōkūleʻa
  2021-10-15T21:18:31UTC 2021-10-15T11:18:31-10:00 2021-10-15T10:18:31-11:00  21.31285 -157.88858       0   0.0 Hōkūleʻa
  2021-10-15T20:17:43UTC 2021-10-15T10:17:43-10:00 2021-10-15T09:17:43-11:00  21.31284 -157.88858       0   0.0 Hōkūleʻa
  2021-10-15T19:18:44UTC 2021-10-15T09:18:44-10:00 2021-10-15T08:18:44-11:00  21.31283 -157.88858     139   0.0 Hōkūleʻa
  2021-10-15T18:18:35UTC 2021-10-15T08:18:35-10:00 2021-10-15T07:18:35-11:00  21.31297 -157.88871       0   0.0 Hōkūleʻa
  2021-10-15T17:18:28UTC 2021-10-15T07:18:28-10:00 2021-10-15T06:18:28-11:00  21.31297 -157.88871       0   0.0 Hōkūleʻa
  2021-10-15T16:18:45UTC 2021-10-15T06:18:45-10:00 2021-10-15T05:18:45-11:00  21.31297 -157.88871     317   0.0 Hōkūleʻa
  2021-10-15T15:18:38UTC 2021-10-15T05:18:38-10:00 2021-10-15T04:18:38-11:00  21.31284 -157.88858     137   0.0 Hōkūleʻa
  2021-10-15T14:18:30UTC 2021-10-15T04:18:30-10:00 2021-10-15T03:18:30-11:00  21.31297 -157.88871       0   0.0 Hōkūleʻa
  2021-10-15T13:18:31UTC 2021-10-15T03:18:31-10:00 2021-10-15T02:18:31-11:00  21.31297 -157.88871     319   0.0 Hōkūleʻa
  2021-10-15T12:18:49UTC 2021-10-15T02:18:49-10:00 2021-10-15T01:18:49-11:00  21.31283 -157.88858       0   0.0 Hōkūleʻa
  2021-10-15T11:29:34UTC 2021-10-15T01:29:34-10:00 2021-10-15T00:29:34-11:00  21.31283 -157.88858     139   0.0 Hōkūleʻa
  2021-10-15T10:18:25UTC 2021-10-15T00:18:25-10:00 2021-10-14T23:18:25-11:00  21.31297 -157.88871       0   0.0 Hōkūleʻa
  2021-10-15T09:18:30UTC 2021-10-14T23:18:30-10:00 2021-10-14T22:18:30-11:00  21.31297 -157.88871     319   0.0 Hōkūleʻa
  2021-10-15T08:18:44UTC 2021-10-14T22:18:44-10:00 2021-10-14T21:18:44-11:00  21.31283 -157.88858       0   0.0 Hōkūleʻa
  2021-10-15T07:19:33UTC 2021-10-14T21:19:33-10:00 2021-10-14T20:19:33-11:00  21.31283 -157.88858     139   0.0 Hōkūleʻa
  2021-10-15T06:17:40UTC 2021-10-14T20:17:40-10:00 2021-10-14T19:17:40-11:00  21.31297 -157.88871       0   0.0 Hōkūleʻa
  2021-10-15T05:18:21UTC 2021-10-14T19:18:21-10:00 2021-10-14T18:18:21-11:00  21.31297 -157.88871       0   0.0 Hōkūleʻa
  2021-10-15T04:18:48UTC 2021-10-14T18:18:48-10:00 2021-10-14T17:18:48-11:00  21.31297 -157.88871     298   0.0 Hōkūleʻa
  2021-10-15T03:18:33UTC 2021-10-14T17:18:33-10:00 2021-10-14T16:18:33-11:00  21.31289 -157.88853      90   0.0 Hōkūleʻa
  2021-10-15T02:18:28UTC 2021-10-14T16:18:28-10:00 2021-10-14T15:18:28-11:00  21.31289 -157.88856       0   0.0 Hōkūleʻa
  2021-10-15T01:18:33UTC 2021-10-14T15:18:33-10:00 2021-10-14T14:18:33-11:00  21.31284 -157.88856     180   0.0 Hōkūleʻa
  2021-10-15T00:24:41UTC 2021-10-14T14:24:41-10:00 2021-10-14T13:24:41-11:00  21.31285 -157.88856     130   0.0 Hōkūleʻa
  2021-10-14T23:17:21UTC 2021-10-14T13:17:21-10:00 2021-10-14T12:17:21-11:00  21.31297 -157.88871     314   0.0 Hōkūleʻa
  2021-10-14T21:18:31UTC 2021-10-14T11:18:31-10:00 2021-10-14T10:18:31-11:00  21.31285 -157.88858     317   0.0 Hōkūleʻa
  2021-10-14T20:17:39UTC 2021-10-14T10:17:39-10:00 2021-10-14T09:17:39-11:00  21.31283 -157.88856     135   0.0 Hōkūleʻa
  2021-10-14T19:18:24UTC 2021-10-14T09:18:24-10:00 2021-10-14T08:18:24-11:00  21.31297 -157.88871       0   0.0 Hōkūleʻa
  2021-10-14T18:18:33UTC 2021-10-14T08:18:33-10:00 2021-10-14T07:18:33-11:00  21.31297 -157.88871       0   0.0 Hōkūleʻa
  2021-10-14T17:18:30UTC 2021-10-14T07:18:30-10:00 2021-10-14T06:18:30-11:00  21.31297 -157.88871       0   0.0 Hōkūleʻa
  2021-10-14T16:18:41UTC 2021-10-14T06:18:41-10:00 2021-10-14T05:18:41-11:00  21.31297 -157.88871       0   0.0 Hōkūleʻa
  2021-10-14T15:18:38UTC 2021-10-14T05:18:38-10:00 2021-10-14T04:18:38-11:00  21.31297 -157.88871     321   0.0 Hōkūleʻa
  2021-10-14T14:18:32UTC 2021-10-14T04:18:32-10:00 2021-10-14T03:18:32-11:00  21.31282 -157.88858       0   0.0 Hōkūleʻa
  2021-10-14T13:18:34UTC 2021-10-14T03:18:34-10:00 2021-10-14T02:18:34-11:00  21.31282 -157.88858     241   0.0 Hōkūleʻa
  2021-10-14T12:18:41UTC 2021-10-14T02:18:41-10:00 2021-10-14T01:18:41-11:00  21.31283 -157.88856       0   0.0 Hōkūleʻa
  2021-10-14T11:18:38UTC 2021-10-14T01:18:38-10:00 2021-10-14T00:18:38-11:00  21.31282 -157.88856     137   0.0 Hōkūleʻa
  2021-10-14T10:18:35UTC 2021-10-14T00:18:35-10:00 2021-10-13T23:18:35-11:00  21.31297 -157.88871     321   0.0 Hōkūleʻa
  2021-10-14T09:38:34UTC 2021-10-13T23:38:34-10:00 2021-10-13T22:38:34-11:00  21.31282 -157.88858     141   0.0 Hōkūleʻa
  2021-10-14T08:17:47UTC 2021-10-13T22:17:47-10:00 2021-10-13T21:17:47-11:00  21.31297 -157.88871       0   0.0 Hōkūleʻa
  2021-10-14T07:18:29UTC 2021-10-13T21:18:29-10:00 2021-10-13T20:18:29-11:00  21.31297 -157.88871     317   0.0 Hōkūleʻa
  2021-10-14T06:18:25UTC 2021-10-13T20:18:25-10:00 2021-10-13T19:18:25-11:00  21.31286 -157.88860     137   0.0 Hōkūleʻa
  2021-10-14T05:18:30UTC 2021-10-13T19:18:30-10:00 2021-10-13T18:18:30-11:00  21.31297 -157.88871     308   0.0 Hōkūleʻa
  2021-10-14T04:18:47UTC 2021-10-13T18:18:47-10:00 2021-10-13T17:18:47-11:00  21.31288 -157.88858     299   0.0 Hōkūleʻa
  2021-10-14T03:18:35UTC 2021-10-13T17:18:35-10:00 2021-10-13T16:18:35-11:00  21.31285 -157.88853     132   0.0 Hōkūleʻa
  2021-10-14T02:18:30UTC 2021-10-13T16:18:30-10:00 2021-10-13T15:18:30-11:00  21.31291 -157.88860     324   0.0 Hōkūleʻa
  2021-10-14T01:18:29UTC 2021-10-13T15:18:29-10:00 2021-10-13T14:18:29-11:00  21.31285 -157.88856     242   0.0 Hōkūleʻa
  2021-10-14T00:24:53UTC 2021-10-13T14:24:53-10:00 2021-10-13T13:24:53-11:00  21.31286 -157.88853      90   0.0 Hōkūleʻa
  2021-10-13T23:17:51UTC 2021-10-13T13:17:51-10:00 2021-10-13T12:17:51-11:00  21.31286 -157.88856     127   0.0 Hōkūleʻa
  2021-10-13T22:17:25UTC 2021-10-13T12:17:25-10:00 2021-10-13T11:17:25-11:00  21.31297 -157.88871     319   0.0 Hōkūleʻa
  2021-10-13T21:18:23UTC 2021-10-13T11:18:23-10:00 2021-10-13T10:18:23-11:00  21.31285 -157.88860       0   0.0 Hōkūleʻa
  2021-10-13T20:17:44UTC 2021-10-13T10:17:44-10:00 2021-10-13T09:17:44-11:00  21.31284 -157.88860     270   0.0 Hōkūleʻa
  2021-10-13T19:37:11UTC 2021-10-13T09:37:11-10:00 2021-10-13T08:37:11-11:00  21.31284 -157.88856     132   0.0 Hōkūleʻa
  2021-10-13T18:18:32UTC 2021-10-13T08:18:32-10:00 2021-10-13T07:18:32-11:00  21.31297 -157.88871       0   0.0 Hōkūleʻa
  2021-10-13T17:18:32UTC 2021-10-13T07:18:32-10:00 2021-10-13T06:18:32-11:00  21.31297 -157.88871       0   0.0 Hōkūleʻa
  2021-10-13T16:18:47UTC 2021-10-13T06:18:47-10:00 2021-10-13T05:18:47-11:00  21.31297 -157.88871       0   0.0 Hōkūleʻa
  2021-10-13T15:18:39UTC 2021-10-13T05:18:39-10:00 2021-10-13T04:18:39-11:00  21.31297 -157.88871     313   0.0 Hōkūleʻa
  2021-10-13T14:18:29UTC 2021-10-13T04:18:29-10:00 2021-10-13T03:18:29-11:00  21.31288 -157.88860     318   0.0 Hōkūleʻa
  2021-10-13T13:18:41UTC 2021-10-13T03:18:41-10:00 2021-10-13T02:18:41-11:00  21.31283 -157.88856     135   0.0 Hōkūleʻa
  2021-10-13T12:28:35UTC 2021-10-13T02:28:35-10:00 2021-10-13T01:28:35-11:00  21.31297 -157.88871       0   0.0 Hōkūleʻa
  2021-10-13T11:18:36UTC 2021-10-13T01:18:36-10:00 2021-10-13T00:18:36-11:00  21.31297 -157.88871       0   0.0 Hōkūleʻa
  2021-10-13T10:18:36UTC 2021-10-13T00:18:36-10:00 2021-10-12T23:18:36-11:00  21.31297 -157.88871     312   0.0 Hōkūleʻa
  2021-10-13T09:28:48UTC 2021-10-12T23:28:48-10:00 2021-10-12T22:28:48-11:00  21.31284 -157.88856       0   0.0 Hōkūleʻa
  2021-10-13T08:18:39UTC 2021-10-12T22:18:39-10:00 2021-10-12T21:18:39-11:00  21.31283 -157.88856     135   0.0 Hōkūleʻa
  2021-10-13T07:18:36UTC 2021-10-12T21:18:36-10:00 2021-10-12T20:18:36-11:00  21.31297 -157.88871     312   0.0 Hōkūleʻa
  2021-10-13T06:18:33UTC 2021-10-12T20:18:33-10:00 2021-10-12T19:18:33-11:00  21.31284 -157.88856      90   0.0 Hōkūleʻa
  2021-10-13T05:24:05UTC 2021-10-12T19:24:05-10:00 2021-10-12T18:24:05-11:00  21.31284 -157.88858     137   0.0 Hōkūleʻa
  2021-10-13T04:18:37UTC 2021-10-12T18:18:37-10:00 2021-10-12T17:18:37-11:00  21.31297 -157.88871       0   0.0 Hōkūleʻa
  2021-10-13T03:18:40UTC 2021-10-12T17:18:40-10:00 2021-10-12T16:18:40-11:00  21.31297 -157.88871     180   0.0 Hōkūleʻa
  2021-10-13T02:18:30UTC 2021-10-12T16:18:30-10:00 2021-10-12T15:18:30-11:00  21.31300 -157.88871     317   0.0 Hōkūleʻa
  2021-10-13T01:17:57UTC 2021-10-12T15:17:57-10:00 2021-10-12T14:17:57-11:00  21.31285 -157.88856     130   0.0 Hōkūleʻa
  2021-10-13T00:17:41UTC 2021-10-12T14:17:41-10:00 2021-10-12T13:17:41-11:00  21.31297 -157.88871       0   0.0 Hōkūleʻa
  2021-10-12T23:18:31UTC 2021-10-12T13:18:31-10:00 2021-10-12T12:18:31-11:00  21.31297 -157.88871     312   0.0 Hōkūleʻa
  2021-10-12T22:18:32UTC 2021-10-12T12:18:32-10:00 2021-10-12T11:18:32-11:00  21.31284 -157.88856      70   0.0 Hōkūleʻa
  2021-10-12T21:26:17UTC 2021-10-12T11:26:17-10:00 2021-10-12T10:26:17-11:00  21.31282 -157.88862     260   0.0 Hōkūleʻa
  2021-10-12T20:18:38UTC 2021-10-12T10:18:38-10:00 2021-10-12T09:18:38-11:00  21.31283 -157.88856     135   0.0 Hōkūleʻa
  2021-10-12T19:18:00UTC 2021-10-12T09:18:00-10:00 2021-10-12T08:18:00-11:00  21.31297 -157.88871       0   0.0 Hōkūleʻa
  2021-10-12T18:18:25UTC 2021-10-12T08:18:25-10:00 2021-10-12T07:18:25-11:00  21.31297 -157.88871       0   0.0 Hōkūleʻa
  2021-10-12T17:19:28UTC 2021-10-12T07:19:28-10:00 2021-10-12T06:19:28-11:00  21.31297 -157.88871     315   0.0 Hōkūleʻa
  2021-10-12T16:19:02UTC 2021-10-12T06:19:02-10:00 2021-10-12T05:19:02-11:00  21.31283 -157.88856     135   0.0 Hōkūleʻa
  2021-10-12T15:18:38UTC 2021-10-12T05:18:38-10:00 2021-10-12T04:18:38-11:00  21.31297 -157.88871       0   0.0 Hōkūleʻa
  2021-10-12T14:18:22UTC 2021-10-12T04:18:22-10:00 2021-10-12T03:18:22-11:00  21.31297 -157.88871       0   0.0 Hōkūleʻa
  2021-10-12T13:18:29UTC 2021-10-12T03:18:29-10:00 2021-10-12T02:18:29-11:00  21.31297 -157.88871       0   0.0 Hōkūleʻa
  2021-10-12T12:18:48UTC 2021-10-12T02:18:48-10:00 2021-10-12T01:18:48-11:00  21.31297 -157.88871       0   0.0 Hōkūleʻa
  2021-10-12T11:18:36UTC 2021-10-12T01:18:36-10:00 2021-10-12T00:18:36-11:00  21.31297 -157.88871     315   0.0 Hōkūleʻa
  2021-10-12T10:24:01UTC 2021-10-12T00:24:01-10:00 2021-10-11T23:24:01-11:00  21.31283 -157.88856       0   0.0 Hōkūleʻa
  2021-10-12T09:18:21UTC 2021-10-11T23:18:21-10:00 2021-10-11T22:18:21-11:00  21.31282 -157.88856     137   0.0 Hōkūleʻa
  2021-10-12T08:18:39UTC 2021-10-11T22:18:39-10:00 2021-10-11T21:18:39-11:00  21.31297 -157.88871     304   0.0 Hōkūleʻa
  2021-10-12T07:18:32UTC 2021-10-11T21:18:32-10:00 2021-10-11T20:18:32-11:00  21.31288 -157.88856       0   0.0 Hōkūleʻa
  2021-10-12T06:18:30UTC 2021-10-11T20:18:30-10:00 2021-10-11T19:18:30-11:00  21.31284 -157.88856      90   0.0 Hōkūleʻa
  2021-10-12T05:28:22UTC 2021-10-11T19:28:22-10:00 2021-10-11T18:28:22-11:00  21.31284 -157.88858     180   0.0 Hōkūleʻa
  2021-10-12T04:18:37UTC 2021-10-11T18:18:37-10:00 2021-10-11T17:18:37-11:00  21.31290 -157.88858     335   0.0 Hōkūleʻa
  2021-10-12T03:18:44UTC 2021-10-11T17:18:44-10:00 2021-10-11T16:18:44-11:00  21.31285 -157.88856     130   0.0 Hōkūleʻa
  2021-10-12T02:18:30UTC 2021-10-11T16:18:30-10:00 2021-10-11T15:18:30-11:00  21.31297 -157.88871       0   0.0 Hōkūleʻa
  2021-10-12T01:18:33UTC 2021-10-11T15:18:33-10:00 2021-10-11T14:18:33-11:00  21.31297 -157.88871       0   0.0 Hōkūleʻa
  2021-10-12T00:18:58UTC 2021-10-11T14:18:58-10:00 2021-10-11T13:18:58-11:00  21.31297 -157.88871       0   0.0 Hōkūleʻa
  2021-10-11T23:17:38UTC 2021-10-11T13:17:38-10:00 2021-10-11T12:17:38-11:00  21.31297 -157.88871       0   0.0 Hōkūleʻa
  2021-10-11T22:18:24UTC 2021-10-11T12:18:24-10:00 2021-10-11T11:18:24-11:00  21.31297 -157.88871     315   0.0 Hōkūleʻa
  2021-10-11T21:17:51UTC 2021-10-11T11:17:51-10:00 2021-10-11T10:17:51-11:00  21.31283 -157.88856     135   0.0 Hōkūleʻa
  2021-10-11T20:32:03UTC 2021-10-11T10:32:03-10:00 2021-10-11T09:32:03-11:00  21.31297 -157.88871       0   0.0 Hōkūleʻa
  2021-10-11T19:18:42UTC 2021-10-11T09:18:42-10:00 2021-10-11T08:18:42-11:00  21.31297 -157.88871     321   0.0 Hōkūleʻa
  2021-10-11T18:18:30UTC 2021-10-11T08:18:30-10:00 2021-10-11T07:18:30-11:00  21.31282 -157.88858     141   0.0 Hōkūleʻa
  2021-10-11T17:17:36UTC 2021-10-11T07:17:36-10:00 2021-10-11T06:17:36-11:00  21.31297 -157.88871       0   0.0 Hōkūleʻa
  2021-10-11T16:18:41UTC 2021-10-11T06:18:41-10:00 2021-10-11T05:18:41-11:00  21.31297 -157.88871     317   0.0 Hōkūleʻa
  2021-10-11T15:18:30UTC 2021-10-11T05:18:30-10:00 2021-10-11T04:18:30-11:00  21.31284 -157.88858       0   0.0 Hōkūleʻa
  2021-10-11T14:18:36UTC 2021-10-11T04:18:36-10:00 2021-10-11T03:18:36-11:00  21.31283 -157.88858     270   0.0 Hōkūleʻa
  2021-10-11T13:18:34UTC 2021-10-11T03:18:34-10:00 2021-10-11T02:18:34-11:00  21.31283 -157.88856     135   0.0 Hōkūleʻa
  2021-10-11T12:18:48UTC 2021-10-11T02:18:48-10:00 2021-10-11T01:18:48-11:00  21.31297 -157.88871       0   0.0 Hōkūleʻa
  2021-10-11T11:18:30UTC 2021-10-11T01:18:30-10:00 2021-10-11T00:18:30-11:00  21.31297 -157.88871     312   0.0 Hōkūleʻa
  2021-10-11T09:18:27UTC 2021-10-10T23:18:27-10:00 2021-10-10T22:18:27-11:00  21.31284 -157.88856       0   0.0 Hōkūleʻa
  2021-10-11T08:18:47UTC 2021-10-10T22:18:47-10:00 2021-10-10T21:18:47-11:00  21.31282 -157.88856     137   0.0 Hōkūleʻa
  2021-10-11T07:18:37UTC 2021-10-10T21:18:37-10:00 2021-10-10T20:18:37-11:00  21.31297 -157.88871     310   0.0 Hōkūleʻa
  2021-10-11T06:18:24UTC 2021-10-10T20:18:24-10:00 2021-10-10T19:18:24-11:00  21.31289 -157.88860     130   0.0 Hōkūleʻa
  2021-10-11T05:18:32UTC 2021-10-10T19:18:32-10:00 2021-10-10T18:18:32-11:00  21.31297 -157.88871     304   0.0 Hōkūleʻa
  2021-10-11T04:18:49UTC 2021-10-10T18:18:49-10:00 2021-10-10T17:18:49-11:00  21.31288 -157.88856     232   0.0 Hōkūleʻa
  2021-10-11T03:18:34UTC 2021-10-10T17:18:34-10:00 2021-10-10T16:18:34-11:00  21.31291 -157.88851      80   0.0 Hōkūleʻa
  2021-10-11T02:18:31UTC 2021-10-10T16:18:31-10:00 2021-10-10T15:18:31-11:00  21.31290 -157.88858     335   0.0 Hōkūleʻa
  2021-10-11T01:17:34UTC 2021-10-10T15:17:34-10:00 2021-10-10T14:17:34-11:00  21.31285 -157.88856     180   0.0 Hōkūleʻa
  2021-10-11T00:18:41UTC 2021-10-10T14:18:41-10:00 2021-10-10T13:18:41-11:00  21.31286 -157.88856     127   0.0 Hōkūleʻa
  2021-10-10T23:17:38UTC 2021-10-10T13:17:38-10:00 2021-10-10T12:17:38-11:00  21.31297 -157.88871     317   0.0 Hōkūleʻa
  2021-10-10T22:17:24UTC 2021-10-10T12:17:24-10:00 2021-10-10T11:17:24-11:00  21.31282 -157.88856     119   0.0 Hōkūleʻa
  2021-10-10T21:17:24UTC 2021-10-10T11:17:24-10:00 2021-10-10T10:17:24-11:00  21.31283 -157.88858     241   0.0 Hōkūleʻa
  2021-10-10T20:18:46UTC 2021-10-10T10:18:46-10:00 2021-10-10T09:18:46-11:00  21.31284 -157.88856     132   0.0 Hōkūleʻa
  2021-10-10T19:18:42UTC 2021-10-10T09:18:42-10:00 2021-10-10T08:18:42-11:00  21.31297 -157.88871       0   0.0 Hōkūleʻa
  2021-10-10T18:18:25UTC 2021-10-10T08:18:25-10:00 2021-10-10T07:18:25-11:00  21.31297 -157.88871       0   0.0 Hōkūleʻa
  2021-10-10T17:18:31UTC 2021-10-10T07:18:31-10:00 2021-10-10T06:18:31-11:00  21.31297 -157.88871       0   0.0 Hōkūleʻa
  2021-10-10T16:18:49UTC 2021-10-10T06:18:49-10:00 2021-10-10T05:18:49-11:00  21.31297 -157.88871       0   0.0 Hōkūleʻa
  2021-10-10T15:17:30UTC 2021-10-10T05:17:30-10:00 2021-10-10T04:17:30-11:00  21.31297 -157.88871     319   0.0 Hōkūleʻa
  2021-10-10T14:28:52UTC 2021-10-10T04:28:52-10:00 2021-10-10T03:28:52-11:00  21.31283 -157.88858     139   0.0 Hōkūleʻa
  2021-10-10T13:18:41UTC 2021-10-10T03:18:41-10:00 2021-10-10T02:18:41-11:00  21.31297 -157.88871       0   0.0 Hōkūleʻa
  2021-10-10T12:18:32UTC 2021-10-10T02:18:32-10:00 2021-10-10T01:18:32-11:00  21.31297 -157.88871     138   0.0 Hōkūleʻa
  2021-10-10T11:18:26UTC 2021-10-10T01:18:26-10:00 2021-10-10T00:18:26-11:00  21.31299 -157.88873       0   0.0 Hōkūleʻa
  2021-10-10T10:18:49UTC 2021-10-10T00:18:49-10:00 2021-10-09T23:18:49-11:00  21.31299 -157.88873       0   0.0 Hōkūleʻa
  2021-10-10T09:27:39UTC 2021-10-09T23:27:39-10:00 2021-10-09T22:27:39-11:00  21.31299 -157.88873       0   0.0 Hōkūleʻa
  2021-10-10T08:18:30UTC 2021-10-09T22:18:30-10:00 2021-10-09T21:18:30-11:00  21.31299 -157.88873       0   0.0 Hōkūleʻa
  2021-10-10T07:18:32UTC 2021-10-09T21:18:32-10:00 2021-10-09T20:18:32-11:00  21.31299 -157.88873       0   0.0 Hōkūleʻa
  2021-10-10T06:17:39UTC 2021-10-09T20:17:39-10:00 2021-10-09T19:17:39-11:00  21.31299 -157.88873       0   0.0 Hōkūleʻa
  2021-10-10T05:18:29UTC 2021-10-09T19:18:29-10:00 2021-10-09T18:18:29-11:00  21.31299 -157.88873       0   0.0 Hōkūleʻa
  2021-10-10T04:18:32UTC 2021-10-09T18:18:32-10:00 2021-10-09T17:18:32-11:00  21.31299 -157.88873       0   0.0 Hōkūleʻa
  2021-10-10T03:18:33UTC 2021-10-09T17:18:33-10:00 2021-10-09T16:18:33-11:00  21.31299 -157.88873       0   0.0 Hōkūleʻa
  2021-10-10T02:18:47UTC 2021-10-09T16:18:47-10:00 2021-10-09T15:18:47-11:00  21.31299 -157.88873       0   0.0 Hōkūleʻa
  2021-10-10T01:17:37UTC 2021-10-09T15:17:37-10:00 2021-10-09T14:17:37-11:00  21.31299 -157.88873       0   0.0 Hōkūleʻa
  2021-10-10T00:26:03UTC 2021-10-09T14:26:03-10:00 2021-10-09T13:26:03-11:00  21.31299 -157.88873       0   0.0 Hōkūleʻa
  2021-10-09T23:17:27UTC 2021-10-09T13:17:27-10:00 2021-10-09T12:17:27-11:00  21.31299 -157.88873     309   0.0 Hōkūleʻa
  2021-10-09T22:17:48UTC 2021-10-09T12:17:48-10:00 2021-10-09T11:17:48-11:00  21.31286 -157.88856     129   0.0 Hōkūleʻa
  2021-10-09T21:26:25UTC 2021-10-09T11:26:25-10:00 2021-10-09T10:26:25-11:00  21.31299 -157.88873       0   0.0 Hōkūleʻa
  2021-10-09T20:18:21UTC 2021-10-09T10:18:21-10:00 2021-10-09T09:18:21-11:00  21.31299 -157.88873       0   0.0 Hōkūleʻa
  2021-10-09T19:18:32UTC 2021-10-09T09:18:32-10:00 2021-10-09T08:18:32-11:00  21.31299 -157.88873       0   0.0 Hōkūleʻa
  2021-10-09T18:18:49UTC 2021-10-09T08:18:49-10:00 2021-10-09T07:18:49-11:00  21.31299 -157.88873     328   0.0 Hōkūleʻa
  2021-10-09T17:18:29UTC 2021-10-09T07:18:29-10:00 2021-10-09T06:18:29-11:00  21.31283 -157.88862     148   0.0 Hōkūleʻa
  2021-10-09T16:18:32UTC 2021-10-09T06:18:32-10:00 2021-10-09T05:18:32-11:00  21.31299 -157.88873       0   0.0 Hōkūleʻa
  2021-10-09T15:18:31UTC 2021-10-09T05:18:31-10:00 2021-10-09T04:18:31-11:00  21.31299 -157.88873       0   0.0 Hōkūleʻa
  2021-10-09T14:18:43UTC 2021-10-09T04:18:43-10:00 2021-10-09T03:18:43-11:00  21.31299 -157.88873       0   0.0 Hōkūleʻa
  2021-10-09T13:18:27UTC 2021-10-09T03:18:27-10:00 2021-10-09T02:18:27-11:00  21.31299 -157.88873       0   0.0 Hōkūleʻa
  2021-10-09T12:39:44UTC 2021-10-09T02:39:44-10:00 2021-10-09T01:39:44-11:00  21.31299 -157.88873       0   0.0 Hōkūleʻa
  2021-10-09T11:28:53UTC 2021-10-09T01:28:53-10:00 2021-10-09T00:28:53-11:00  21.31299 -157.88873       0   0.0 Hōkūleʻa
  2021-10-09T10:18:28UTC 2021-10-09T00:18:28-10:00 2021-10-08T23:18:28-11:00  21.31299 -157.88873       0   0.0 Hōkūleʻa
  2021-10-09T09:18:29UTC 2021-10-08T23:18:29-10:00 2021-10-08T22:18:29-11:00  21.31299 -157.88873       0   0.0 Hōkūleʻa
  2021-10-09T08:18:47UTC 2021-10-08T22:18:47-10:00 2021-10-08T21:18:47-11:00  21.31299 -157.88873       0   0.0 Hōkūleʻa
  2021-10-09T07:18:29UTC 2021-10-08T21:18:29-10:00 2021-10-08T20:18:29-11:00  21.31299 -157.88873       0   0.0 Hōkūleʻa
  2021-10-09T06:18:30UTC 2021-10-08T20:18:30-10:00 2021-10-08T19:18:30-11:00  21.31299 -157.88873       0   0.0 Hōkūleʻa
  2021-10-09T05:29:53UTC 2021-10-08T19:29:53-10:00 2021-10-08T18:29:53-11:00  21.31299 -157.88873     298   0.0 Hōkūleʻa
  2021-10-09T04:18:39UTC 2021-10-08T18:18:39-10:00 2021-10-08T17:18:39-11:00  21.31291 -157.88856     118   0.0 Hōkūleʻa
  2021-10-09T03:18:35UTC 2021-10-08T17:18:35-10:00 2021-10-08T16:18:35-11:00  21.31299 -157.88873       0   0.0 Hōkūleʻa
  2021-10-09T02:27:42UTC 2021-10-08T16:27:42-10:00 2021-10-08T15:27:42-11:00  21.31299 -157.88873       0   0.0 Hōkūleʻa
  2021-10-09T01:17:32UTC 2021-10-08T15:17:32-10:00 2021-10-08T14:17:32-11:00  21.31299 -157.88873       0   0.0 Hōkūleʻa
  2021-10-09T00:26:05UTC 2021-10-08T14:26:05-10:00 2021-10-08T13:26:05-11:00  21.31299 -157.88873       0   0.0 Hōkūleʻa
  2021-10-08T23:17:23UTC 2021-10-08T13:17:23-10:00 2021-10-08T12:17:23-11:00  21.31299 -157.88873       0   0.0 Hōkūleʻa
  2021-10-08T22:18:24UTC 2021-10-08T12:18:24-10:00 2021-10-08T11:18:24-11:00  21.31299 -157.88873       0   0.0 Hōkūleʻa
  2021-10-08T21:17:22UTC 2021-10-08T11:17:22-10:00 2021-10-08T10:17:22-11:00  21.31299 -157.88873       0   0.0 Hōkūleʻa
  2021-10-08T20:18:44UTC 2021-10-08T10:18:44-10:00 2021-10-08T09:18:44-11:00  21.31299 -157.88873     312   0.0 Hōkūleʻa
  2021-10-08T19:18:36UTC 2021-10-08T09:18:36-10:00 2021-10-08T08:18:36-11:00  21.31289 -157.88860     132   0.0 Hōkūleʻa
  2021-10-08T18:24:53UTC 2021-10-08T08:24:53-10:00 2021-10-08T07:24:53-11:00  21.31299 -157.88873       0   0.0 Hōkūleʻa
  2021-10-08T17:18:31UTC 2021-10-08T07:18:31-10:00 2021-10-08T06:18:31-11:00  21.31299 -157.88873       0   0.0 Hōkūleʻa
  2021-10-08T16:17:41UTC 2021-10-08T06:17:41-10:00 2021-10-08T05:17:41-11:00  21.31299 -157.88873     322   0.0 Hōkūleʻa
  2021-10-08T15:18:30UTC 2021-10-08T05:18:30-10:00 2021-10-08T04:18:30-11:00  21.31286 -157.88862     142   0.0 Hōkūleʻa
  2021-10-08T14:18:37UTC 2021-10-08T04:18:37-10:00 2021-10-08T03:18:37-11:00  21.31299 -157.88873       0   0.0 Hōkūleʻa
  2021-10-08T13:18:24UTC 2021-10-08T03:18:24-10:00 2021-10-08T02:18:24-11:00  21.31299 -157.88873       0   0.0 Hōkūleʻa
  2021-10-08T12:18:46UTC 2021-10-08T02:18:46-10:00 2021-10-08T01:18:46-11:00  21.31299 -157.88873       0   0.0 Hōkūleʻa
  2021-10-08T11:18:47UTC 2021-10-08T01:18:47-10:00 2021-10-08T00:18:47-11:00  21.31299 -157.88873       0   0.0 Hōkūleʻa
  2021-10-08T10:18:27UTC 2021-10-08T00:18:27-10:00 2021-10-07T23:18:27-11:00  21.31299 -157.88873       0   0.0 Hōkūleʻa
  2021-10-08T09:18:32UTC 2021-10-07T23:18:32-10:00 2021-10-07T22:18:32-11:00  21.31299 -157.88873       0   0.0 Hōkūleʻa
  2021-10-08T08:30:05UTC 2021-10-07T22:30:05-10:00 2021-10-07T21:30:05-11:00  21.31299 -157.88873     314   0.0 Hōkūleʻa
  2021-10-08T07:18:37UTC 2021-10-07T21:18:37-10:00 2021-10-07T20:18:37-11:00  21.31288 -157.88860     134   0.0 Hōkūleʻa
  2021-10-08T06:18:24UTC 2021-10-07T20:18:24-10:00 2021-10-07T19:18:24-11:00  21.31299 -157.88873       0   0.0 Hōkūleʻa
  2021-10-08T05:18:30UTC 2021-10-07T19:18:30-10:00 2021-10-07T18:18:30-11:00  21.31299 -157.88873       0   0.0 Hōkūleʻa
  2021-10-08T04:17:40UTC 2021-10-07T18:17:40-10:00 2021-10-07T17:17:40-11:00  21.31299 -157.88873       0   0.0 Hōkūleʻa
  2021-10-08T03:18:30UTC 2021-10-07T17:18:30-10:00 2021-10-07T16:18:30-11:00  21.31299 -157.88873       0   0.0 Hōkūleʻa
  2021-10-08T02:27:40UTC 2021-10-07T16:27:40-10:00 2021-10-07T15:27:40-11:00  21.31299 -157.88873       0   0.0 Hōkūleʻa
  2021-10-08T01:17:33UTC 2021-10-07T15:17:33-10:00 2021-10-07T14:17:33-11:00  21.31299 -157.88873       0   0.0 Hōkūleʻa
  2021-10-08T00:18:41UTC 2021-10-07T14:18:41-10:00 2021-10-07T13:18:41-11:00  21.31299 -157.88873       0   0.0 Hōkūleʻa
  2021-10-07T23:17:33UTC 2021-10-07T13:17:33-10:00 2021-10-07T12:17:33-11:00  21.31299 -157.88873       0   0.0 Hōkūleʻa
  2021-10-07T22:26:23UTC 2021-10-07T12:26:23-10:00 2021-10-07T11:26:23-11:00  21.31299 -157.88873     317   0.0 Hōkūleʻa
  2021-10-07T21:18:29UTC 2021-10-07T11:18:29-10:00 2021-10-07T10:18:29-11:00  21.31284 -157.88858     137   0.0 Hōkūleʻa
  2021-10-07T20:17:48UTC 2021-10-07T10:17:48-10:00 2021-10-07T09:17:48-11:00  21.31299 -157.88873       0   0.0 Hōkūleʻa
  2021-10-07T19:18:32UTC 2021-10-07T09:18:32-10:00 2021-10-07T08:18:32-11:00  21.31299 -157.88873       0   0.0 Hōkūleʻa
  2021-10-07T18:18:31UTC 2021-10-07T08:18:31-10:00 2021-10-07T07:18:31-11:00  21.31299 -157.88873       0   0.0 Hōkūleʻa
  2021-10-07T17:18:38UTC 2021-10-07T07:18:38-10:00 2021-10-07T06:18:38-11:00  21.31299 -157.88873       0   0.0 Hōkūleʻa
  2021-10-07T16:19:59UTC 2021-10-07T06:19:59-10:00 2021-10-07T05:19:59-11:00  21.31299 -157.88873       0   0.0 Hōkūleʻa
  2021-10-07T15:18:32UTC 2021-10-07T05:18:32-10:00 2021-10-07T04:18:32-11:00  21.31299 -157.88873       0   0.0 Hōkūleʻa
  2021-10-07T14:18:47UTC 2021-10-07T04:18:47-10:00 2021-10-07T03:18:47-11:00  21.31299 -157.88873       0   0.0 Hōkūleʻa
  2021-10-07T13:18:35UTC 2021-10-07T03:18:35-10:00 2021-10-07T02:18:35-11:00  21.31299 -157.88873       0   0.0 Hōkūleʻa
  2021-10-07T12:35:32UTC 2021-10-07T02:35:32-10:00 2021-10-07T01:35:32-11:00  21.31299 -157.88873       0   0.0 Hōkūleʻa
  2021-10-07T11:18:46UTC 2021-10-07T01:18:46-10:00 2021-10-07T00:18:46-11:00  21.31299 -157.88873       0   0.0 Hōkūleʻa
  2021-10-07T10:18:36UTC 2021-10-07T00:18:36-10:00 2021-10-06T23:18:36-11:00  21.31299 -157.88873       0   0.0 Hōkūleʻa
  2021-10-07T09:18:30UTC 2021-10-06T23:18:30-10:00 2021-10-06T22:18:30-11:00  21.31299 -157.88873       0   0.0 Hōkūleʻa
  2021-10-07T08:17:46UTC 2021-10-06T22:17:46-10:00 2021-10-06T21:17:46-11:00  21.31299 -157.88873     317   0.0 Hōkūleʻa
  2021-10-07T07:18:24UTC 2021-10-06T21:18:24-10:00 2021-10-06T20:18:24-11:00  21.31286 -157.88860     137   0.0 Hōkūleʻa
  2021-10-07T06:18:23UTC 2021-10-06T20:18:23-10:00 2021-10-06T19:18:23-11:00  21.31299 -157.88873       0   0.0 Hōkūleʻa
  2021-10-07T05:17:37UTC 2021-10-06T19:17:37-10:00 2021-10-06T18:17:37-11:00  21.31299 -157.88873       0   0.0 Hōkūleʻa
  2021-10-07T04:27:48UTC 2021-10-06T18:27:48-10:00 2021-10-06T17:27:48-11:00  21.31299 -157.88873     306   0.0 Hōkūleʻa
  2021-10-07T03:18:24UTC 2021-10-06T17:18:24-10:00 2021-10-06T16:18:24-11:00  21.31288 -157.88856     126   0.0 Hōkūleʻa
  2021-10-07T02:17:46UTC 2021-10-06T16:17:46-10:00 2021-10-06T15:17:46-11:00  21.31299 -157.88873       0   0.0 Hōkūleʻa
  2021-10-07T01:17:37UTC 2021-10-06T15:17:37-10:00 2021-10-06T14:17:37-11:00  21.31299 -157.88873       0   0.0 Hōkūleʻa
  2021-10-07T00:26:16UTC 2021-10-06T14:26:16-10:00 2021-10-06T13:26:16-11:00  21.31299 -157.88873       0   0.0 Hōkūleʻa
  2021-10-06T23:18:21UTC 2021-10-06T13:18:21-10:00 2021-10-06T12:18:21-11:00  21.31299 -157.88873       0   0.0 Hōkūleʻa
  2021-10-06T22:17:45UTC 2021-10-06T12:17:45-10:00 2021-10-06T11:17:45-11:00  21.31299 -157.88873       0   0.0 Hōkūleʻa
  2021-10-06T21:18:33UTC 2021-10-06T11:18:33-10:00 2021-10-06T10:18:33-11:00  21.31299 -157.88873       0   0.0 Hōkūleʻa
  2021-10-06T20:18:29UTC 2021-10-06T10:18:29-10:00 2021-10-06T09:18:29-11:00  21.31299 -157.88873       0   0.0 Hōkūleʻa
  2021-10-06T19:18:50UTC 2021-10-06T09:18:50-10:00 2021-10-06T08:18:50-11:00  21.31299 -157.88873      98   0.0 Hōkūleʻa
  2021-10-06T18:18:38UTC 2021-10-06T08:18:38-10:00 2021-10-06T07:18:38-11:00  21.31302 -157.88888     278   0.0 Hōkūleʻa
  2021-10-06T17:18:30UTC 2021-10-06T07:18:30-10:00 2021-10-06T06:18:30-11:00  21.31299 -157.88873       0   0.0 Hōkūleʻa
  2021-10-06T16:18:43UTC 2021-10-06T06:18:43-10:00 2021-10-06T05:18:43-11:00  21.31299 -157.88873     136   0.0 Hōkūleʻa
  2021-09-30T17:18:31UTC 2021-09-30T07:18:31-10:00 2021-09-30T06:18:31-11:00  21.31302 -157.88875       0   0.0 Hōkūleʻa
  2021-09-30T16:18:37UTC 2021-09-30T06:18:37-10:00 2021-09-30T05:18:37-11:00  21.31302 -157.88875       0   0.0 Hōkūleʻa
  2021-09-30T15:18:35UTC 2021-09-30T05:18:35-10:00 2021-09-30T04:18:35-11:00  21.31302 -157.88875       0   0.0 Hōkūleʻa
  2021-09-30T14:18:37UTC 2021-09-30T04:18:37-10:00 2021-09-30T03:18:37-11:00  21.31302 -157.88875       0   0.0 Hōkūleʻa
  2021-09-30T13:18:24UTC 2021-09-30T03:18:24-10:00 2021-09-30T02:18:24-11:00  21.31302 -157.88875       0   0.0 Hōkūleʻa
  2021-09-30T12:18:50UTC 2021-09-30T02:18:50-10:00 2021-09-30T01:18:50-11:00  21.31302 -157.88875       0   0.0 Hōkūleʻa
  2021-09-30T11:18:36UTC 2021-09-30T01:18:36-10:00 2021-09-30T00:18:36-11:00  21.31302 -157.88875       0   0.0 Hōkūleʻa
  2021-09-30T10:17:33UTC 2021-09-30T00:17:33-10:00 2021-09-29T23:17:33-11:00  21.31302 -157.88875       0   0.0 Hōkūleʻa
  2021-09-30T09:18:41UTC 2021-09-29T23:18:41-10:00 2021-09-29T22:18:41-11:00  21.31302 -157.88875       0   0.0 Hōkūleʻa
  2021-09-30T08:18:22UTC 2021-09-29T22:18:22-10:00 2021-09-29T21:18:22-11:00  21.31302 -157.88875       0   0.0 Hōkūleʻa
  2021-09-30T07:18:32UTC 2021-09-29T21:18:32-10:00 2021-09-29T20:18:32-11:00  21.31302 -157.88875       0   0.0 Hōkūleʻa
  2021-09-30T06:18:50UTC 2021-09-29T20:18:50-10:00 2021-09-29T19:18:50-11:00  21.31302 -157.88875       0   0.0 Hōkūleʻa
  2021-09-30T05:18:37UTC 2021-09-29T19:18:37-10:00 2021-09-29T18:18:37-11:00  21.31302 -157.88875       0   0.0 Hōkūleʻa
  2021-09-30T04:18:33UTC 2021-09-29T18:18:33-10:00 2021-09-29T17:18:33-11:00  21.31302 -157.88875       0   0.0 Hōkūleʻa
  2021-09-30T03:18:32UTC 2021-09-29T17:18:32-10:00 2021-09-29T16:18:32-11:00  21.31302 -157.88875       0   0.0 Hōkūleʻa
  2021-09-30T02:18:45UTC 2021-09-29T16:18:45-10:00 2021-09-29T15:18:45-11:00  21.31302 -157.88875       0   0.0 Hōkūleʻa
  2021-09-30T01:17:26UTC 2021-09-29T15:17:26-10:00 2021-09-29T14:17:26-11:00  21.31302 -157.88875       0   0.0 Hōkūleʻa
  2021-09-30T00:18:30UTC 2021-09-29T14:18:30-10:00 2021-09-29T13:18:30-11:00  21.31302 -157.88875       0   0.0 Hōkūleʻa
  2021-09-29T23:17:29UTC 2021-09-29T13:17:29-10:00 2021-09-29T12:17:29-11:00  21.31302 -157.88875       0   0.0 Hōkūleʻa
  2021-09-29T22:17:42UTC 2021-09-29T12:17:42-10:00 2021-09-29T11:17:42-11:00  21.31302 -157.88875       0   0.0 Hōkūleʻa
  2021-09-29T21:18:30UTC 2021-09-29T11:18:30-10:00 2021-09-29T10:18:30-11:00  21.31302 -157.88875       0   0.0 Hōkūleʻa
  2021-09-29T20:33:04UTC 2021-09-29T10:33:04-10:00 2021-09-29T09:33:04-11:00  21.31302 -157.88875       0   0.0 Hōkūleʻa
  2021-09-29T19:18:33UTC 2021-09-29T09:18:33-10:00 2021-09-29T08:18:33-11:00  21.31302 -157.88875       0   0.0 Hōkūleʻa
  2021-09-29T18:18:46UTC 2021-09-29T08:18:46-10:00 2021-09-29T07:18:46-11:00  21.31302 -157.88875       0   0.0 Hōkūleʻa
  2021-09-29T17:18:24UTC 2021-09-29T07:18:24-10:00 2021-09-29T06:18:24-11:00  21.31302 -157.88875       0   0.0 Hōkūleʻa
  2021-09-29T16:18:28UTC 2021-09-29T06:18:28-10:00 2021-09-29T05:18:28-11:00  21.31302 -157.88875       0   0.0 Hōkūleʻa
  2021-09-29T15:18:49UTC 2021-09-29T05:18:49-10:00 2021-09-29T04:18:49-11:00  21.31302 -157.88875       0   0.0 Hōkūleʻa
  2021-09-29T14:18:30UTC 2021-09-29T04:18:30-10:00 2021-09-29T03:18:30-11:00  21.31302 -157.88875       0   0.0 Hōkūleʻa
  2021-09-29T05:18:28UTC 2021-09-28T19:18:28-10:00 2021-09-28T18:18:28-11:00  21.31302 -157.88875       0   0.0 Hōkūleʻa
  2021-09-29T04:18:47UTC 2021-09-28T18:18:47-10:00 2021-09-28T17:18:47-11:00  21.31302 -157.88875       0   0.0 Hōkūleʻa
  2021-09-29T03:17:47UTC 2021-09-28T17:17:47-10:00 2021-09-28T16:17:47-11:00  21.31302 -157.88875       0   0.0 Hōkūleʻa
  2021-09-29T02:18:30UTC 2021-09-28T16:18:30-10:00 2021-09-28T15:18:30-11:00  21.31302 -157.88875       0   0.0 Hōkūleʻa
  2021-09-29T01:25:38UTC 2021-09-28T15:25:38-10:00 2021-09-28T14:25:38-11:00  21.31302 -157.88875       0   0.0 Hōkūleʻa
  2021-09-29T00:25:44UTC 2021-09-28T14:25:44-10:00 2021-09-28T13:25:44-11:00  21.31302 -157.88875       0   0.0 Hōkūleʻa
  2021-09-28T23:17:35UTC 2021-09-28T13:17:35-10:00 2021-09-28T12:17:35-11:00  21.31302 -157.88875       0   0.0 Hōkūleʻa
  2021-09-28T22:17:32UTC 2021-09-28T12:17:32-10:00 2021-09-28T11:17:32-11:00  21.31302 -157.88875       0   0.0 Hōkūleʻa
  2021-09-28T21:18:24UTC 2021-09-28T11:18:24-10:00 2021-09-28T10:18:24-11:00  21.31302 -157.88875       0   0.0 Hōkūleʻa
  2021-09-28T20:25:22UTC 2021-09-28T10:25:22-10:00 2021-09-28T09:25:22-11:00  21.31302 -157.88875       0   0.0 Hōkūleʻa
  2021-09-28T19:18:36UTC 2021-09-28T09:18:36-10:00 2021-09-28T08:18:36-11:00  21.31302 -157.88875       0   0.0 Hōkūleʻa
  2021-09-28T18:27:51UTC 2021-09-28T08:27:51-10:00 2021-09-28T07:27:51-11:00  21.31302 -157.88875       0   0.0 Hōkūleʻa
  2021-09-28T17:18:23UTC 2021-09-28T07:18:23-10:00 2021-09-28T06:18:23-11:00  21.31302 -157.88875       0   0.0 Hōkūleʻa
  2021-09-28T16:18:44UTC 2021-09-28T06:18:44-10:00 2021-09-28T05:18:44-11:00  21.31302 -157.88875       0   0.0 Hōkūleʻa
  2021-09-28T15:18:44UTC 2021-09-28T05:18:44-10:00 2021-09-28T04:18:44-11:00  21.31302 -157.88875       0   0.0 Hōkūleʻa
  2021-09-28T14:19:37UTC 2021-09-28T04:19:37-10:00 2021-09-28T03:19:37-11:00  21.31302 -157.88875       0   0.0 Hōkūleʻa
  2021-09-28T13:28:37UTC 2021-09-28T03:28:37-10:00 2021-09-28T02:28:37-11:00  21.31302 -157.88875       0   0.0 Hōkūleʻa
  2021-09-28T12:18:47UTC 2021-09-28T02:18:47-10:00 2021-09-28T01:18:47-11:00  21.31302 -157.88875       0   0.0 Hōkūleʻa
  2021-09-28T11:18:36UTC 2021-09-28T01:18:36-10:00 2021-09-28T00:18:36-11:00  21.31302 -157.88875       0   0.0 Hōkūleʻa
  2021-09-28T10:18:32UTC 2021-09-28T00:18:32-10:00 2021-09-27T23:18:32-11:00  21.31302 -157.88875       0   0.0 Hōkūleʻa
  2021-09-28T09:18:32UTC 2021-09-27T23:18:32-10:00 2021-09-27T22:18:32-11:00  21.31302 -157.88875       0   0.0 Hōkūleʻa
  2021-09-28T08:18:53UTC 2021-09-27T22:18:53-10:00 2021-09-27T21:18:53-11:00  21.31302 -157.88875       0   0.0 Hōkūleʻa
  2021-09-28T07:18:24UTC 2021-09-27T21:18:24-10:00 2021-09-27T20:18:24-11:00  21.31302 -157.88875       0   0.0 Hōkūleʻa
  2021-09-28T06:18:31UTC 2021-09-27T20:18:31-10:00 2021-09-27T19:18:31-11:00  21.31302 -157.88875       0   0.0 Hōkūleʻa
  2021-09-28T05:17:20UTC 2021-09-27T19:17:20-10:00 2021-09-27T18:17:20-11:00  21.31302 -157.88875       0   0.0 Hōkūleʻa
  2021-09-28T04:18:37UTC 2021-09-27T18:18:37-10:00 2021-09-27T17:18:37-11:00  21.31302 -157.88875       0   0.0 Hōkūleʻa
  2021-09-28T03:18:49UTC 2021-09-27T17:18:49-10:00 2021-09-27T16:18:49-11:00  21.31302 -157.88875       0   0.0 Hōkūleʻa
  2021-09-28T02:18:30UTC 2021-09-27T16:18:30-10:00 2021-09-27T15:18:30-11:00  21.31302 -157.88875       0   0.0 Hōkūleʻa
  2021-09-28T01:18:33UTC 2021-09-27T15:18:33-10:00 2021-09-27T14:18:33-11:00  21.31302 -157.88875       0   0.0 Hōkūleʻa
  2021-09-28T00:17:48UTC 2021-09-27T14:17:48-10:00 2021-09-27T13:17:48-11:00  21.31302 -157.88875       0   0.0 Hōkūleʻa
  2021-09-27T23:17:29UTC 2021-09-27T13:17:29-10:00 2021-09-27T12:17:29-11:00  21.31302 -157.88875       0   0.0 Hōkūleʻa
  2021-09-27T22:18:24UTC 2021-09-27T12:18:24-10:00 2021-09-27T11:18:24-11:00  21.31302 -157.88875       0   0.0 Hōkūleʻa
  2021-09-27T21:17:31UTC 2021-09-27T11:17:31-10:00 2021-09-27T10:17:31-11:00  21.31302 -157.88875       0   0.0 Hōkūleʻa
  2021-09-27T20:28:41UTC 2021-09-27T10:28:41-10:00 2021-09-27T09:28:41-11:00  21.31302 -157.88875       0   0.0 Hōkūleʻa
  2021-09-27T19:18:27UTC 2021-09-27T09:18:27-10:00 2021-09-27T08:18:27-11:00  21.31302 -157.88875       0   0.0 Hōkūleʻa
  2021-09-27T18:18:34UTC 2021-09-27T08:18:34-10:00 2021-09-27T07:18:34-11:00  21.31302 -157.88875       0   0.0 Hōkūleʻa
  2021-09-27T17:18:36UTC 2021-09-27T07:18:36-10:00 2021-09-27T06:18:36-11:00  21.31302 -157.88875     317   0.0 Hōkūleʻa
  2021-09-27T15:18:43UTC 2021-09-27T05:18:43-10:00 2021-09-27T04:18:43-11:00  21.31286 -157.88860     137   0.0 Hōkūleʻa
  2021-09-27T14:27:58UTC 2021-09-27T04:27:58-10:00 2021-09-27T03:27:58-11:00  21.31302 -157.88875       0   0.0 Hōkūleʻa
  2021-09-27T13:18:26UTC 2021-09-27T03:18:26-10:00 2021-09-27T02:18:26-11:00  21.31302 -157.88875       0   0.0 Hōkūleʻa
  2021-09-27T12:18:40UTC 2021-09-27T02:18:40-10:00 2021-09-27T01:18:40-11:00  21.31302 -157.88875       0   0.0 Hōkūleʻa
  2021-09-27T11:18:38UTC 2021-09-27T01:18:38-10:00 2021-09-27T00:18:38-11:00  21.31302 -157.88875       0   0.0 Hōkūleʻa
  2021-09-27T10:18:30UTC 2021-09-27T00:18:30-10:00 2021-09-26T23:18:30-11:00  21.31302 -157.88875       0   0.0 Hōkūleʻa
  2021-09-27T09:18:33UTC 2021-09-26T23:18:33-10:00 2021-09-26T22:18:33-11:00  21.31302 -157.88875       0   0.0 Hōkūleʻa
  2021-09-27T08:17:47UTC 2021-09-26T22:17:47-10:00 2021-09-26T21:17:47-11:00  21.31302 -157.88875       0   0.0 Hōkūleʻa
  2021-09-27T07:18:29UTC 2021-09-26T21:18:29-10:00 2021-09-26T20:18:29-11:00  21.31302 -157.88875     312   0.0 Hōkūleʻa
  2021-09-27T06:18:25UTC 2021-09-26T20:18:25-10:00 2021-09-26T19:18:25-11:00  21.31289 -157.88860     132   0.0 Hōkūleʻa
  2021-09-27T05:18:30UTC 2021-09-26T19:18:30-10:00 2021-09-26T18:18:30-11:00  21.31302 -157.88875       0   0.0 Hōkūleʻa
  2021-09-27T04:17:41UTC 2021-09-26T18:17:41-10:00 2021-09-26T17:17:41-11:00  21.31302 -157.88875       0   0.0 Hōkūleʻa
  2021-09-27T03:18:30UTC 2021-09-26T17:18:30-10:00 2021-09-26T16:18:30-11:00  21.31302 -157.88875     294   0.0 Hōkūleʻa
  2021-09-27T02:18:38UTC 2021-09-26T16:18:38-10:00 2021-09-26T15:18:38-11:00  21.31295 -157.88860     114   0.0 Hōkūleʻa
  2021-09-27T01:32:07UTC 2021-09-26T15:32:07-10:00 2021-09-26T14:32:07-11:00  21.31302 -157.88875     313   0.0 Hōkūleʻa
  2021-09-26T23:17:49UTC 2021-09-26T13:17:49-10:00 2021-09-26T12:17:49-11:00  21.31284 -157.88856      82   0.0 Hōkūleʻa
  2021-09-26T22:17:37UTC 2021-09-26T12:17:37-10:00 2021-09-26T11:17:37-11:00  21.31282 -157.88873     174   0.0 Hōkūleʻa
  2021-09-26T21:18:24UTC 2021-09-26T11:18:24-10:00 2021-09-26T10:18:24-11:00  21.31302 -157.88875       0   0.0 Hōkūleʻa
  2021-09-26T20:17:38UTC 2021-09-26T10:17:38-10:00 2021-09-26T09:17:38-11:00  21.31302 -157.88875       0   0.0 Hōkūleʻa
  2021-09-26T19:18:43UTC 2021-09-26T09:18:43-10:00 2021-09-26T08:18:43-11:00  21.31302 -157.88875       0   0.0 Hōkūleʻa
  2021-09-26T18:18:31UTC 2021-09-26T08:18:31-10:00 2021-09-26T07:18:31-11:00  21.31302 -157.88875       0   0.0 Hōkūleʻa
  2021-09-26T17:18:24UTC 2021-09-26T07:18:24-10:00 2021-09-26T06:18:24-11:00  21.31302 -157.88875       0   0.0 Hōkūleʻa
  2021-09-26T16:18:46UTC 2021-09-26T06:18:46-10:00 2021-09-26T05:18:46-11:00  21.31302 -157.88875       0   0.0 Hōkūleʻa
  2021-09-26T15:18:30UTC 2021-09-26T05:18:30-10:00 2021-09-26T04:18:30-11:00  21.31302 -157.88875       0   0.0 Hōkūleʻa
  2021-09-26T14:18:37UTC 2021-09-26T04:18:37-10:00 2021-09-26T03:18:37-11:00  21.31302 -157.88875       0   0.0 Hōkūleʻa
  2021-09-26T13:17:33UTC 2021-09-26T03:17:33-10:00 2021-09-26T02:17:33-11:00  21.31302 -157.88875       0   0.0 Hōkūleʻa
  2021-09-26T12:30:45UTC 2021-09-26T02:30:45-10:00 2021-09-26T01:30:45-11:00  21.31302 -157.88875       0   0.0 Hōkūleʻa
  2021-09-26T11:18:35UTC 2021-09-26T01:18:35-10:00 2021-09-26T00:18:35-11:00  21.31302 -157.88875       0   0.0 Hōkūleʻa
  2021-09-26T10:17:35UTC 2021-09-26T00:17:35-10:00 2021-09-25T23:17:35-11:00  21.31302 -157.88875     148   0.0 Hōkūleʻa
  2021-09-26T09:18:23UTC 2021-09-25T23:18:23-10:00 2021-09-25T22:18:23-11:00  21.31305 -157.88877       0   0.0 Hōkūleʻa
  2021-09-26T08:18:49UTC 2021-09-25T22:18:49-10:00 2021-09-25T21:18:49-11:00  21.31305 -157.88877       0   0.0 Hōkūleʻa
  2021-09-26T07:18:33UTC 2021-09-25T21:18:33-10:00 2021-09-25T20:18:33-11:00  21.31305 -157.88877       0   0.0 Hōkūleʻa
  2021-09-26T06:18:24UTC 2021-09-25T20:18:24-10:00 2021-09-25T19:18:24-11:00  21.31305 -157.88877       0   0.0 Hōkūleʻa
  2021-09-26T05:18:32UTC 2021-09-25T19:18:32-10:00 2021-09-25T18:18:32-11:00  21.31305 -157.88877       0   0.0 Hōkūleʻa
  2021-09-26T04:18:45UTC 2021-09-25T18:18:45-10:00 2021-09-25T17:18:45-11:00  21.31305 -157.88877       0   0.0 Hōkūleʻa
  2021-09-26T03:18:38UTC 2021-09-25T17:18:38-10:00 2021-09-25T16:18:38-11:00  21.31305 -157.88877       0   0.0 Hōkūleʻa
  2021-09-26T02:18:21UTC 2021-09-25T16:18:21-10:00 2021-09-25T15:18:21-11:00  21.31305 -157.88877       0   0.0 Hōkūleʻa
  2021-09-26T01:17:52UTC 2021-09-25T15:17:52-10:00 2021-09-25T14:17:52-11:00  21.31305 -157.88877       0   0.0 Hōkūleʻa
  2021-09-26T00:18:48UTC 2021-09-25T14:18:48-10:00 2021-09-25T13:18:48-11:00  21.31305 -157.88877       0   0.0 Hōkūleʻa
  2021-09-25T23:17:35UTC 2021-09-25T13:17:35-10:00 2021-09-25T12:17:35-11:00  21.31305 -157.88877       0   0.0 Hōkūleʻa
  2021-09-25T22:17:37UTC 2021-09-25T12:17:37-10:00 2021-09-25T11:17:37-11:00  21.31305 -157.88877       0   0.0 Hōkūleʻa
  2021-09-25T21:38:30UTC 2021-09-25T11:38:30-10:00 2021-09-25T10:38:30-11:00  21.31305 -157.88877       0   0.0 Hōkūleʻa
  2021-09-25T20:17:45UTC 2021-09-25T10:17:45-10:00 2021-09-25T09:17:45-11:00  21.31305 -157.88877     324   0.0 Hōkūleʻa
  2021-09-25T19:18:33UTC 2021-09-25T09:18:33-10:00 2021-09-25T08:18:33-11:00  21.31291 -157.88866     144   0.0 Hōkūleʻa
  2021-09-25T18:17:32UTC 2021-09-25T08:17:32-10:00 2021-09-25T07:17:32-11:00  21.31305 -157.88877       0   0.0 Hōkūleʻa
  2021-09-25T17:18:23UTC 2021-09-25T07:18:23-10:00 2021-09-25T06:18:23-11:00  21.31305 -157.88877       0   0.0 Hōkūleʻa
  2021-09-25T16:18:37UTC 2021-09-25T06:18:37-10:00 2021-09-25T05:18:37-11:00  21.31305 -157.88877       0   0.0 Hōkūleʻa
  2021-09-25T15:18:35UTC 2021-09-25T05:18:35-10:00 2021-09-25T04:18:35-11:00  21.31305 -157.88877       0   0.0 Hōkūleʻa
  2021-09-25T14:18:30UTC 2021-09-25T04:18:30-10:00 2021-09-25T03:18:30-11:00  21.31305 -157.88877       0   0.0 Hōkūleʻa
  2021-09-25T13:38:09UTC 2021-09-25T03:38:09-10:00 2021-09-25T02:38:09-11:00  21.31305 -157.88877       0   0.0 Hōkūleʻa
  2021-09-25T12:18:48UTC 2021-09-25T02:18:48-10:00 2021-09-25T01:18:48-11:00  21.31305 -157.88877       0   0.0 Hōkūleʻa
  2021-09-25T11:17:37UTC 2021-09-25T01:17:37-10:00 2021-09-25T00:17:37-11:00  21.31305 -157.88877       0   0.0 Hōkūleʻa
  2021-09-25T10:18:23UTC 2021-09-25T00:18:23-10:00 2021-09-24T23:18:23-11:00  21.31305 -157.88877       0   0.0 Hōkūleʻa
  2021-09-25T09:25:10UTC 2021-09-24T23:25:10-10:00 2021-09-24T22:25:10-11:00  21.31305 -157.88877       0   0.0 Hōkūleʻa
  2021-09-25T08:18:49UTC 2021-09-24T22:18:49-10:00 2021-09-24T21:18:49-11:00  21.31305 -157.88877       0   0.0 Hōkūleʻa
  2021-09-25T07:18:24UTC 2021-09-24T21:18:24-10:00 2021-09-24T20:18:24-11:00  21.31305 -157.88877       0   0.0 Hōkūleʻa
  2021-09-25T06:18:24UTC 2021-09-24T20:18:24-10:00 2021-09-24T19:18:24-11:00  21.31305 -157.88877       0   0.0 Hōkūleʻa
  2021-09-25T05:18:32UTC 2021-09-24T19:18:32-10:00 2021-09-24T18:18:32-11:00  21.31305 -157.88877       0   0.0 Hōkūleʻa
  2021-09-25T04:17:47UTC 2021-09-24T18:17:47-10:00 2021-09-24T17:17:47-11:00  21.31305 -157.88877       0   0.0 Hōkūleʻa
  2021-09-25T03:29:27UTC 2021-09-24T17:29:27-10:00 2021-09-24T16:29:27-11:00  21.31305 -157.88877       0   0.0 Hōkūleʻa
  2021-09-25T02:17:30UTC 2021-09-24T16:17:30-10:00 2021-09-24T15:17:30-11:00  21.31305 -157.88877       0   0.0 Hōkūleʻa
  2021-09-25T01:18:24UTC 2021-09-24T15:18:24-10:00 2021-09-24T14:18:24-11:00  21.31305 -157.88877       0   0.0 Hōkūleʻa
  2021-09-25T00:34:58UTC 2021-09-24T14:34:58-10:00 2021-09-24T13:34:58-11:00  21.31305 -157.88877       0   0.0 Hōkūleʻa
  2021-09-24T23:34:29UTC 2021-09-24T13:34:29-10:00 2021-09-24T12:34:29-11:00  21.31305 -157.88877       0   0.0 Hōkūleʻa
  2021-09-24T22:18:23UTC 2021-09-24T12:18:23-10:00 2021-09-24T11:18:23-11:00  21.31305 -157.88877       0   0.0 Hōkūleʻa
  2021-09-24T21:17:31UTC 2021-09-24T11:17:31-10:00 2021-09-24T10:17:31-11:00  21.31305 -157.88877       0   0.0 Hōkūleʻa
  2021-09-24T20:18:47UTC 2021-09-24T10:18:47-10:00 2021-09-24T09:18:47-11:00  21.31305 -157.88877       0   0.0 Hōkūleʻa
  2021-09-24T19:17:24UTC 2021-09-24T09:17:24-10:00 2021-09-24T08:17:24-11:00  21.31305 -157.88877       0   0.0 Hōkūleʻa
  2021-09-24T18:18:30UTC 2021-09-24T08:18:30-10:00 2021-09-24T07:18:30-11:00  21.31305 -157.88877       0   0.0 Hōkūleʻa
  2021-09-24T17:18:29UTC 2021-09-24T07:18:29-10:00 2021-09-24T06:18:29-11:00  21.31305 -157.88877       0   0.0 Hōkūleʻa
  2021-09-24T16:19:45UTC 2021-09-24T06:19:45-10:00 2021-09-24T05:19:45-11:00  21.31305 -157.88877       0   0.0 Hōkūleʻa
  2021-09-24T15:18:38UTC 2021-09-24T05:18:38-10:00 2021-09-24T04:18:38-11:00  21.31305 -157.88877       0   0.0 Hōkūleʻa
  2021-09-24T14:18:37UTC 2021-09-24T04:18:37-10:00 2021-09-24T03:18:37-11:00  21.31305 -157.88877       0   0.0 Hōkūleʻa
  2021-09-24T13:17:34UTC 2021-09-24T03:17:34-10:00 2021-09-24T02:17:34-11:00  21.31305 -157.88877       0   0.0 Hōkūleʻa
  2021-09-24T12:18:40UTC 2021-09-24T02:18:40-10:00 2021-09-24T01:18:40-11:00  21.31305 -157.88877       0   0.0 Hōkūleʻa
  2021-09-24T11:18:30UTC 2021-09-24T01:18:30-10:00 2021-09-24T00:18:30-11:00  21.31305 -157.88877       0   0.0 Hōkūleʻa
  2021-09-24T10:19:29UTC 2021-09-24T00:19:29-10:00 2021-09-23T23:19:29-11:00  21.31305 -157.88877       0   0.0 Hōkūleʻa
  2021-09-24T09:17:37UTC 2021-09-23T23:17:37-10:00 2021-09-23T22:17:37-11:00  21.31305 -157.88877       0   0.0 Hōkūleʻa
  2021-09-24T08:18:38UTC 2021-09-23T22:18:38-10:00 2021-09-23T21:18:38-11:00  21.31305 -157.88877       0   0.0 Hōkūleʻa
  2021-09-24T07:18:27UTC 2021-09-23T21:18:27-10:00 2021-09-23T20:18:27-11:00  21.31305 -157.88877       0   0.0 Hōkūleʻa
  2021-09-24T06:18:30UTC 2021-09-23T20:18:30-10:00 2021-09-23T19:18:30-11:00  21.31305 -157.88877       0   0.0 Hōkūleʻa
  2021-09-24T05:30:35UTC 2021-09-23T19:30:35-10:00 2021-09-23T18:30:35-11:00  21.31305 -157.88877       0   0.0 Hōkūleʻa
  2021-09-24T04:17:41UTC 2021-09-23T18:17:41-10:00 2021-09-23T17:17:41-11:00  21.31305 -157.88877       0   0.0 Hōkūleʻa
  2021-09-24T03:18:31UTC 2021-09-23T17:18:31-10:00 2021-09-23T16:18:31-11:00  21.31305 -157.88877       0   0.0 Hōkūleʻa
  2021-09-24T02:18:27UTC 2021-09-23T16:18:27-10:00 2021-09-23T15:18:27-11:00  21.31305 -157.88877       0   0.0 Hōkūleʻa
  2021-09-24T01:17:32UTC 2021-09-23T15:17:32-10:00 2021-09-23T14:17:32-11:00  21.31305 -157.88877       0   0.0 Hōkūleʻa
  2021-09-24T00:18:40UTC 2021-09-23T14:18:40-10:00 2021-09-23T13:18:40-11:00  21.31305 -157.88877       0   0.0 Hōkūleʻa
  2021-09-23T23:17:32UTC 2021-09-23T13:17:32-10:00 2021-09-23T12:17:32-11:00  21.31305 -157.88877       0   0.0 Hōkūleʻa
  2021-09-23T22:17:29UTC 2021-09-23T12:17:29-10:00 2021-09-23T11:17:29-11:00  21.31305 -157.88877       0   0.0 Hōkūleʻa
  2021-09-23T21:17:24UTC 2021-09-23T11:17:24-10:00 2021-09-23T10:17:24-11:00  21.31305 -157.88877       0   0.0 Hōkūleʻa
  2021-09-23T20:17:45UTC 2021-09-23T10:17:45-10:00 2021-09-23T09:17:45-11:00  21.31305 -157.88877       0   0.0 Hōkūleʻa
  2021-09-23T19:32:15UTC 2021-09-23T09:32:15-10:00 2021-09-23T08:32:15-11:00  21.31305 -157.88877       0   0.0 Hōkūleʻa
  2021-09-23T18:18:30UTC 2021-09-23T08:18:30-10:00 2021-09-23T07:18:30-11:00  21.31305 -157.88877       0   0.0 Hōkūleʻa
  2021-09-23T17:19:29UTC 2021-09-23T07:19:29-10:00 2021-09-23T06:19:29-11:00  21.31305 -157.88877       0   0.0 Hōkūleʻa
  2021-09-23T16:18:53UTC 2021-09-23T06:18:53-10:00 2021-09-23T05:18:53-11:00  21.31305 -157.88877       0   0.0 Hōkūleʻa
  2021-09-23T15:18:48UTC 2021-09-23T05:18:48-10:00 2021-09-23T04:18:48-11:00  21.31305 -157.88877       0   0.0 Hōkūleʻa
  2021-09-23T14:24:26UTC 2021-09-23T04:24:26-10:00 2021-09-23T03:24:26-11:00  21.31305 -157.88877       0   0.0 Hōkūleʻa
  2021-09-23T13:18:30UTC 2021-09-23T03:18:30-10:00 2021-09-23T02:18:30-11:00  21.31305 -157.88877       0   0.0 Hōkūleʻa
  2021-09-23T12:18:49UTC 2021-09-23T02:18:49-10:00 2021-09-23T01:18:49-11:00  21.31305 -157.88877       0   0.0 Hōkūleʻa
  2021-09-23T11:18:37UTC 2021-09-23T01:18:37-10:00 2021-09-23T00:18:37-11:00  21.31305 -157.88877       0   0.0 Hōkūleʻa
  2021-09-23T10:18:27UTC 2021-09-23T00:18:27-10:00 2021-09-22T23:18:27-11:00  21.31305 -157.88877       0   0.0 Hōkūleʻa
  2021-09-23T09:18:23UTC 2021-09-22T23:18:23-10:00 2021-09-22T22:18:23-11:00  21.31305 -157.88877     317   0.0 Hōkūleʻa
  2021-09-23T07:18:46UTC 2021-09-22T21:18:46-10:00 2021-09-22T20:18:46-11:00  21.31281 -157.88853     137   0.0 Hōkūleʻa
  2021-09-23T06:18:30UTC 2021-09-22T20:18:30-10:00 2021-09-22T19:18:30-11:00  21.31305 -157.88877       0   0.0 Hōkūleʻa
  2021-09-23T05:18:20UTC 2021-09-22T19:18:20-10:00 2021-09-22T18:18:20-11:00  21.31305 -157.88877       0   0.0 Hōkūleʻa
  2021-09-23T04:18:49UTC 2021-09-22T18:18:49-10:00 2021-09-22T17:18:49-11:00  21.31305 -157.88877       0   0.0 Hōkūleʻa
  2021-09-23T03:17:36UTC 2021-09-22T17:17:36-10:00 2021-09-22T16:17:36-11:00  21.31305 -157.88877       0   0.0 Hōkūleʻa
  2021-09-23T02:18:22UTC 2021-09-22T16:18:22-10:00 2021-09-22T15:18:22-11:00  21.31305 -157.88877       0   0.0 Hōkūleʻa
  2021-09-23T01:18:34UTC 2021-09-22T15:18:34-10:00 2021-09-22T14:18:34-11:00  21.31305 -157.88877       0   0.0 Hōkūleʻa
  2021-09-23T00:17:47UTC 2021-09-22T14:17:47-10:00 2021-09-22T13:17:47-11:00  21.31305 -157.88877       0   0.0 Hōkūleʻa
  2021-09-22T23:17:24UTC 2021-09-22T13:17:24-10:00 2021-09-22T12:17:24-11:00  21.31305 -157.88877       0   0.0 Hōkūleʻa
  2021-09-22T22:17:25UTC 2021-09-22T12:17:25-10:00 2021-09-22T11:17:25-11:00  21.31305 -157.88877       0   0.0 Hōkūleʻa
  2021-09-22T21:28:40UTC 2021-09-22T11:28:40-10:00 2021-09-22T10:28:40-11:00  21.31305 -157.88877       0   0.0 Hōkūleʻa
  2021-09-22T20:17:30UTC 2021-09-22T10:17:30-10:00 2021-09-22T09:17:30-11:00  21.31305 -157.88877       0   0.0 Hōkūleʻa
  2021-09-22T19:18:20UTC 2021-09-22T09:18:20-10:00 2021-09-22T08:18:20-11:00  21.31305 -157.88877       0   0.0 Hōkūleʻa
  2021-09-22T18:18:56UTC 2021-09-22T08:18:56-10:00 2021-09-22T07:18:56-11:00  21.31305 -157.88877       0   0.0 Hōkūleʻa
  2021-09-22T17:18:57UTC 2021-09-22T07:18:57-10:00 2021-09-22T06:18:57-11:00  21.31305 -157.88877       0   0.0 Hōkūleʻa
  2021-09-22T16:24:55UTC 2021-09-22T06:24:55-10:00 2021-09-22T05:24:55-11:00  21.31305 -157.88877       0   0.0 Hōkūleʻa
  2021-09-22T15:18:25UTC 2021-09-22T05:18:25-10:00 2021-09-22T04:18:25-11:00  21.31305 -157.88877       0   0.0 Hōkūleʻa
  2021-09-22T14:18:39UTC 2021-09-22T04:18:39-10:00 2021-09-22T03:18:39-11:00  21.31305 -157.88877       0   0.0 Hōkūleʻa
  2021-09-22T13:27:06UTC 2021-09-22T03:27:06-10:00 2021-09-22T02:27:06-11:00  21.31305 -157.88877       0   0.0 Hōkūleʻa
  2021-09-22T12:17:32UTC 2021-09-22T02:17:32-10:00 2021-09-22T01:17:32-11:00  21.31305 -157.88877       0   0.0 Hōkūleʻa
  2021-09-22T11:18:21UTC 2021-09-22T01:18:21-10:00 2021-09-22T00:18:21-11:00  21.31305 -157.88877       0   0.0 Hōkūleʻa
  2021-09-22T10:18:37UTC 2021-09-22T00:18:37-10:00 2021-09-21T23:18:37-11:00  21.31305 -157.88877       0   0.0 Hōkūleʻa
  2021-09-22T09:18:34UTC 2021-09-21T23:18:34-10:00 2021-09-21T22:18:34-11:00  21.31305 -157.88877     315   0.0 Hōkūleʻa
  2021-09-22T07:19:29UTC 2021-09-21T21:19:29-10:00 2021-09-21T20:19:29-11:00  21.31284 -157.88856     135   0.0 Hōkūleʻa
  2021-09-22T06:28:03UTC 2021-09-21T20:28:03-10:00 2021-09-21T19:28:03-11:00  21.31305 -157.88877       0   0.0 Hōkūleʻa
  2021-09-22T05:28:15UTC 2021-09-21T19:28:15-10:00 2021-09-21T18:28:15-11:00  21.31305 -157.88877       0   0.0 Hōkūleʻa
  2021-09-22T04:18:24UTC 2021-09-21T18:18:24-10:00 2021-09-21T17:18:24-11:00  21.31305 -157.88877       0   0.0 Hōkūleʻa
  2021-09-22T03:18:32UTC 2021-09-21T17:18:32-10:00 2021-09-21T16:18:32-11:00  21.31305 -157.88877     242   0.0 Hōkūleʻa
  2021-09-22T02:19:05UTC 2021-09-21T16:19:05-10:00 2021-09-21T15:19:05-11:00  21.31309 -157.88868       0   0.0 Hōkūleʻa
  2021-09-22T01:27:05UTC 2021-09-21T15:27:05-10:00 2021-09-21T14:27:05-11:00  21.31307 -157.88868     136   0.0 Hōkūleʻa
  2021-09-22T00:17:32UTC 2021-09-21T14:17:32-10:00 2021-09-21T13:17:32-11:00  21.31309 -157.88871     180   0.0 Hōkūleʻa
  2021-09-21T23:17:23UTC 2021-09-21T13:17:23-10:00 2021-09-21T12:17:23-11:00  21.31310 -157.88871      61   0.0 Hōkūleʻa
  2021-09-21T22:18:40UTC 2021-09-21T12:18:40-10:00 2021-09-21T11:18:40-11:00  21.31309 -157.88873       0   0.0 Hōkūleʻa
  2021-09-21T21:17:38UTC 2021-09-21T11:17:38-10:00 2021-09-21T10:17:38-11:00  21.31308 -157.88873       0   0.0 Hōkūleʻa
  2021-09-21T20:18:32UTC 2021-09-21T10:18:32-10:00 2021-09-21T09:18:32-11:00  21.31308 -157.88873     270   0.0 Hōkūleʻa
  2021-09-21T19:18:33UTC 2021-09-21T09:18:33-10:00 2021-09-21T08:18:33-11:00  21.31308 -157.88871       0   0.0 Hōkūleʻa
  2021-09-21T18:17:46UTC 2021-09-21T08:17:46-10:00 2021-09-21T07:17:46-11:00  21.31308 -157.88871      90   0.0 Hōkūleʻa
  2021-09-21T17:18:22UTC 2021-09-21T07:18:22-10:00 2021-09-21T06:18:22-11:00  21.31308 -157.88873       0   0.0 Hōkūleʻa
  2021-09-21T16:18:25UTC 2021-09-21T06:18:25-10:00 2021-09-21T05:18:25-11:00  21.31307 -157.88873       0   0.0 Hōkūleʻa
  2021-09-21T15:19:32UTC 2021-09-21T05:19:32-10:00 2021-09-21T04:19:32-11:00  21.31307 -157.88873       0   0.0 Hōkūleʻa
  2021-09-21T14:18:48UTC 2021-09-21T04:18:48-10:00 2021-09-21T03:18:48-11:00  21.31307 -157.88873     270   0.0 Hōkūleʻa
  2021-09-21T13:17:34UTC 2021-09-21T03:17:34-10:00 2021-09-21T02:17:34-11:00  21.31307 -157.88871      90   0.0 Hōkūleʻa
  2021-09-21T12:18:24UTC 2021-09-21T02:18:24-10:00 2021-09-21T01:18:24-11:00  21.31307 -157.88873     180   0.0 Hōkūleʻa
  2021-09-21T11:18:30UTC 2021-09-21T01:18:30-10:00 2021-09-21T00:18:30-11:00  21.31308 -157.88873     299   0.0 Hōkūleʻa
  2021-09-21T10:19:45UTC 2021-09-21T00:19:45-10:00 2021-09-20T23:19:45-11:00  21.31307 -157.88871      90   0.0 Hōkūleʻa
  2021-09-21T09:17:41UTC 2021-09-20T23:17:41-10:00 2021-09-20T22:17:41-11:00  21.31307 -157.88873     180   0.0 Hōkūleʻa
  2021-09-21T08:18:22UTC 2021-09-20T22:18:22-10:00 2021-09-20T21:18:22-11:00  21.31309 -157.88873     270   0.0 Hōkūleʻa
  2021-09-21T07:18:32UTC 2021-09-20T21:18:32-10:00 2021-09-20T20:18:32-11:00  21.31309 -157.88871       0   0.0 Hōkūleʻa
  2021-09-21T06:18:40UTC 2021-09-20T20:18:40-10:00 2021-09-20T19:18:40-11:00  21.31308 -157.88871       0   0.0 Hōkūleʻa
  2021-09-21T05:18:38UTC 2021-09-20T19:18:38-10:00 2021-09-20T18:18:38-11:00  21.31306 -157.88871     327   0.0 Hōkūleʻa
  2021-09-21T04:18:33UTC 2021-09-20T18:18:33-10:00 2021-09-20T17:18:33-11:00  21.31303 -157.88868     205   0.0 Hōkūleʻa
  2021-09-21T03:29:46UTC 2021-09-20T17:29:46-10:00 2021-09-20T16:29:46-11:00  21.31311 -157.88864      62   0.0 Hōkūleʻa
  2021-09-21T02:18:46UTC 2021-09-20T16:18:46-10:00 2021-09-20T15:18:46-11:00  21.31307 -157.88873     180   0.0 Hōkūleʻa
  2021-09-21T01:17:33UTC 2021-09-20T15:17:33-10:00 2021-09-20T14:17:33-11:00  21.31311 -157.88873       0   0.0 Hōkūleʻa
  2021-09-21T00:17:24UTC 2021-09-20T14:17:24-10:00 2021-09-20T13:17:24-11:00  21.31309 -157.88873       0   0.0 Hōkūleʻa
  2021-09-20T23:18:31UTC 2021-09-20T13:18:31-10:00 2021-09-20T12:18:31-11:00  21.31308 -157.88873     116   0.0 Hōkūleʻa
  2021-09-20T22:17:49UTC 2021-09-20T12:17:49-10:00 2021-09-20T11:17:49-11:00  21.31309 -157.88875      63   0.0 Hōkūleʻa
  2021-09-20T21:17:24UTC 2021-09-20T11:17:24-10:00 2021-09-20T10:17:24-11:00  21.31308 -157.88877     256   0.0 Hōkūleʻa
  2021-09-20T20:18:21UTC 2021-09-20T10:18:21-10:00 2021-09-20T09:18:21-11:00  21.31309 -157.88873       0   0.0 Hōkūleʻa
  2021-09-20T19:17:31UTC 2021-09-20T09:17:31-10:00 2021-09-20T08:17:31-11:00  21.31308 -157.88873       0   0.0 Hōkūleʻa
  2021-09-20T18:18:40UTC 2021-09-20T08:18:40-10:00 2021-09-20T07:18:40-11:00  21.31307 -157.88873       0   0.0 Hōkūleʻa
  2021-09-20T17:18:37UTC 2021-09-20T07:18:37-10:00 2021-09-20T06:18:37-11:00  21.31307 -157.88873       0   0.0 Hōkūleʻa
  2021-09-20T16:18:32UTC 2021-09-20T06:18:32-10:00 2021-09-20T05:18:32-11:00  21.31305 -157.88873     180   0.0 Hōkūleʻa
  2021-09-20T15:18:31UTC 2021-09-20T05:18:31-10:00 2021-09-20T04:18:31-11:00  21.31308 -157.88873       0   0.0 Hōkūleʻa
  2021-09-20T14:18:39UTC 2021-09-20T04:18:39-10:00 2021-09-20T03:18:39-11:00  21.31306 -157.88873      75   0.0 Hōkūleʻa
  2021-09-20T13:18:24UTC 2021-09-20T03:18:24-10:00 2021-09-20T02:18:24-11:00  21.31305 -157.88877     180   0.0 Hōkūleʻa
  2021-09-20T12:18:33UTC 2021-09-20T02:18:33-10:00 2021-09-20T01:18:33-11:00  21.31306 -157.88877     255   0.0 Hōkūleʻa
  2021-09-20T11:18:32UTC 2021-09-20T01:18:32-10:00 2021-09-20T00:18:32-11:00  21.31307 -157.88873       0   0.0 Hōkūleʻa
  2021-09-20T10:18:44UTC 2021-09-20T00:18:44-10:00 2021-09-19T23:18:44-11:00  21.31307 -157.88873      61   0.0 Hōkūleʻa
  2021-09-20T09:18:46UTC 2021-09-19T23:18:46-10:00 2021-09-19T22:18:46-11:00  21.31305 -157.88877     222   0.0 Hōkūleʻa
  2021-09-20T08:18:26UTC 2021-09-19T22:18:26-10:00 2021-09-19T21:18:26-11:00  21.31307 -157.88875     180   0.0 Hōkūleʻa
  2021-09-20T07:18:35UTC 2021-09-19T21:18:35-10:00 2021-09-19T20:18:35-11:00  21.31308 -157.88875     298   0.0 Hōkūleʻa
  2021-09-20T06:25:57UTC 2021-09-19T20:25:57-10:00 2021-09-19T19:25:57-11:00  21.31307 -157.88873       0   0.0 Hōkūleʻa
  2021-09-20T05:17:27UTC 2021-09-19T19:17:27-10:00 2021-09-19T18:17:27-11:00  21.31305 -157.88873     180   0.0 Hōkūleʻa
  2021-09-20T04:18:25UTC 2021-09-19T18:18:25-10:00 2021-09-19T17:18:25-11:00  21.31306 -157.88873     180   0.0 Hōkūleʻa
  2021-09-20T03:18:31UTC 2021-09-19T17:18:31-10:00 2021-09-19T16:18:31-11:00  21.31307 -157.88873     180   0.0 Hōkūleʻa
  2021-09-20T02:17:38UTC 2021-09-19T16:17:38-10:00 2021-09-19T15:17:38-11:00  21.31309 -157.88873       0   0.0 Hōkūleʻa
  2021-09-20T01:26:05UTC 2021-09-19T15:26:05-10:00 2021-09-19T14:26:05-11:00  21.31306 -157.88873     105   0.0 Hōkūleʻa
  2021-09-20T00:17:32UTC 2021-09-19T14:17:32-10:00 2021-09-19T13:17:32-11:00  21.31307 -157.88877     255   0.0 Hōkūleʻa
  2021-09-19T23:18:28UTC 2021-09-19T13:18:28-10:00 2021-09-19T12:18:28-11:00  21.31308 -157.88873      62   0.0 Hōkūleʻa
  2021-09-19T22:17:49UTC 2021-09-19T12:17:49-10:00 2021-09-19T11:17:49-11:00  21.31307 -157.88875     260   0.0 Hōkūleʻa
  2021-09-19T21:17:29UTC 2021-09-19T11:17:29-10:00 2021-09-19T10:17:29-11:00  21.31308 -157.88868      90   0.0 Hōkūleʻa
  2021-09-19T20:18:31UTC 2021-09-19T10:18:31-10:00 2021-09-19T09:18:31-11:00  21.31308 -157.88873       0   0.0 Hōkūleʻa
  2021-09-19T19:18:33UTC 2021-09-19T09:18:33-10:00 2021-09-19T08:18:33-11:00  21.31307 -157.88873      90   0.0 Hōkūleʻa
  2021-09-19T18:18:48UTC 2021-09-19T08:18:48-10:00 2021-09-19T07:18:48-11:00  21.31307 -157.88875     119   0.0 Hōkūleʻa
  2021-09-19T17:18:37UTC 2021-09-19T07:18:37-10:00 2021-09-19T06:18:37-11:00  21.31308 -157.88877       0   0.0 Hōkūleʻa
  2021-09-19T16:18:31UTC 2021-09-19T06:18:31-10:00 2021-09-19T05:18:31-11:00  21.31307 -157.88877     285   0.0 Hōkūleʻa
  2021-09-19T15:19:32UTC 2021-09-19T05:19:32-10:00 2021-09-19T04:19:32-11:00  21.31306 -157.88873       0   0.0 Hōkūleʻa
  2021-09-19T14:18:45UTC 2021-09-19T04:18:45-10:00 2021-09-19T03:18:45-11:00  21.31304 -157.88873     147   0.0 Hōkūleʻa
  2021-09-19T13:18:33UTC 2021-09-19T03:18:33-10:00 2021-09-19T02:18:33-11:00  21.31307 -157.88875     255   0.0 Hōkūleʻa
  2021-09-19T12:18:40UTC 2021-09-19T02:18:40-10:00 2021-09-19T01:18:40-11:00  21.31308 -157.88871      42   0.0 Hōkūleʻa
  2021-09-19T11:27:16UTC 2021-09-19T01:27:16-10:00 2021-09-19T00:27:16-11:00  21.31306 -157.88873     180   0.0 Hōkūleʻa
  2021-09-19T10:18:37UTC 2021-09-19T00:18:37-10:00 2021-09-18T23:18:37-11:00  21.31307 -157.88873      90   0.0 Hōkūleʻa
  2021-09-19T09:18:42UTC 2021-09-18T23:18:42-10:00 2021-09-18T22:18:42-11:00  21.31307 -157.88877     241   0.0 Hōkūleʻa
  2021-09-19T08:18:32UTC 2021-09-18T22:18:32-10:00 2021-09-18T21:18:32-11:00  21.31308 -157.88875     270   0.0 Hōkūleʻa
  2021-09-19T07:29:15UTC 2021-09-18T21:29:15-10:00 2021-09-18T20:29:15-11:00  21.31308 -157.88873       0   0.0 Hōkūleʻa
  2021-09-19T06:18:40UTC 2021-09-18T20:18:40-10:00 2021-09-18T19:18:40-11:00  21.31307 -157.88873       0   0.0 Hōkūleʻa
  2021-09-19T05:18:39UTC 2021-09-18T19:18:39-10:00 2021-09-18T18:18:39-11:00  21.31305 -157.88873     180   0.0 Hōkūleʻa
  2021-09-19T04:17:27UTC 2021-09-18T18:17:27-10:00 2021-09-18T17:17:27-11:00  21.31306 -157.88873       0   0.0 Hōkūleʻa
  2021-09-19T03:18:24UTC 2021-09-18T17:18:24-10:00 2021-09-18T16:18:24-11:00  21.31306 -157.88873     180   0.0 Hōkūleʻa
  2021-09-19T02:17:44UTC 2021-09-18T16:17:44-10:00 2021-09-18T15:17:44-11:00  21.31309 -157.88873      33   0.0 Hōkūleʻa
  2021-09-19T01:18:33UTC 2021-09-18T15:18:33-10:00 2021-09-18T14:18:33-11:00  21.31306 -157.88875     223   0.0 Hōkūleʻa
  2021-09-19T00:17:32UTC 2021-09-18T14:17:32-10:00 2021-09-18T13:17:32-11:00  21.31308 -157.88873     116   0.0 Hōkūleʻa
  2021-09-18T23:17:23UTC 2021-09-18T13:17:23-10:00 2021-09-18T12:17:23-11:00  21.31309 -157.88875     270   0.0 Hōkūleʻa
  2021-09-18T22:17:40UTC 2021-09-18T12:17:40-10:00 2021-09-18T11:17:40-11:00  21.31309 -157.88873     308   0.0 Hōkūleʻa
  2021-09-18T21:17:40UTC 2021-09-18T11:17:40-10:00 2021-09-18T10:17:40-11:00  21.31306 -157.88868     105   0.0 Hōkūleʻa
  2021-09-18T20:18:30UTC 2021-09-18T10:18:30-10:00 2021-09-18T09:18:30-11:00  21.31307 -157.88873       0   0.0 Hōkūleʻa
  2021-09-18T19:18:31UTC 2021-09-18T09:18:31-10:00 2021-09-18T08:18:31-11:00  21.31307 -157.88873       0   0.0 Hōkūleʻa
  2021-09-18T18:17:40UTC 2021-09-18T08:17:40-10:00 2021-09-18T07:17:40-11:00  21.31307 -157.88873     180   0.0 Hōkūleʻa
  2021-09-18T17:18:30UTC 2021-09-18T07:18:30-10:00 2021-09-18T06:18:30-11:00  21.31308 -157.88873       0   0.0 Hōkūleʻa
  2021-09-18T16:18:33UTC 2021-09-18T06:18:33-10:00 2021-09-18T05:18:33-11:00  21.31308 -157.88873       0   0.0 Hōkūleʻa
  2021-09-18T15:18:33UTC 2021-09-18T05:18:33-10:00 2021-09-18T04:18:33-11:00  21.31307 -157.88873       0   0.0 Hōkūleʻa
  2021-09-18T14:18:46UTC 2021-09-18T04:18:46-10:00 2021-09-18T03:18:46-11:00  21.31306 -157.88873       0   0.0 Hōkūleʻa
  2021-09-18T13:18:35UTC 2021-09-18T03:18:35-10:00 2021-09-18T02:18:35-11:00  21.31306 -157.88873     212   0.0 Hōkūleʻa
  2021-09-18T12:18:24UTC 2021-09-18T02:18:24-10:00 2021-09-18T01:18:24-11:00  21.31309 -157.88871      62   0.0 Hōkūleʻa
  2021-09-18T11:18:30UTC 2021-09-18T01:18:30-10:00 2021-09-18T00:18:30-11:00  21.31307 -157.88875       0   0.0 Hōkūleʻa
  2021-09-18T10:18:46UTC 2021-09-18T00:18:46-10:00 2021-09-17T23:18:46-11:00  21.31307 -157.88875       0   0.0 Hōkūleʻa
  2021-09-18T09:26:31UTC 2021-09-17T23:26:31-10:00 2021-09-17T22:26:31-11:00  21.31307 -157.88875     242   0.0 Hōkūleʻa
  2021-09-18T08:24:48UTC 2021-09-17T22:24:48-10:00 2021-09-17T21:24:48-11:00  21.31308 -157.88873     136   0.0 Hōkūleʻa
  2021-09-18T07:18:32UTC 2021-09-17T21:18:32-10:00 2021-09-17T20:18:32-11:00  21.31310 -157.88875     327   0.0 Hōkūleʻa
  2021-09-18T06:28:25UTC 2021-09-17T20:28:25-10:00 2021-09-17T19:28:25-11:00  21.31307 -157.88873     241   0.0 Hōkūleʻa
  2021-09-18T05:18:31UTC 2021-09-17T19:18:31-10:00 2021-09-17T18:18:31-11:00  21.31308 -157.88871     117   0.0 Hōkūleʻa
  2021-09-18T04:18:28UTC 2021-09-17T18:18:28-10:00 2021-09-17T17:18:28-11:00  21.31309 -157.88873     180   0.0 Hōkūleʻa
  2021-09-18T03:17:32UTC 2021-09-17T17:17:32-10:00 2021-09-17T16:17:32-11:00  21.31310 -157.88873       0   0.0 Hōkūleʻa
  2021-09-18T02:17:40UTC 2021-09-17T16:17:40-10:00 2021-09-17T15:17:40-11:00  21.31310 -157.88873       0   0.0 Hōkūleʻa
  2021-09-18T01:18:25UTC 2021-09-17T15:18:25-10:00 2021-09-17T14:18:25-11:00  21.31308 -157.88873       0   0.0 Hōkūleʻa
  2021-09-18T00:17:24UTC 2021-09-17T14:17:24-10:00 2021-09-17T13:17:24-11:00  21.31308 -157.88873       0   0.0 Hōkūleʻa
  2021-09-17T23:18:28UTC 2021-09-17T13:18:28-10:00 2021-09-17T12:18:28-11:00  21.31307 -157.88873       0   0.0 Hōkūleʻa
  2021-09-17T22:26:13UTC 2021-09-17T12:26:13-10:00 2021-09-17T11:26:13-11:00  21.31307 -157.88873      82   0.0 Hōkūleʻa
  2021-09-17T21:17:35UTC 2021-09-17T11:17:35-10:00 2021-09-17T10:17:35-11:00  21.31306 -157.88881     255   0.0 Hōkūleʻa
  2021-09-17T20:18:21UTC 2021-09-17T10:18:21-10:00 2021-09-17T09:18:21-11:00  21.31308 -157.88873     180   0.0 Hōkūleʻa
  2021-09-17T19:18:45UTC 2021-09-17T09:18:45-10:00 2021-09-17T08:18:45-11:00  21.31309 -157.88873       0   0.0 Hōkūleʻa
  2021-09-17T18:18:48UTC 2021-09-17T08:18:48-10:00 2021-09-17T07:18:48-11:00  21.31309 -157.88873       0   0.0 Hōkūleʻa
  2021-09-17T17:18:30UTC 2021-09-17T07:18:30-10:00 2021-09-17T06:18:30-11:00  21.31308 -157.88873      62   0.0 Hōkūleʻa
  2021-09-17T16:30:02UTC 2021-09-17T06:30:02-10:00 2021-09-17T05:30:02-11:00  21.31307 -157.88875     270   0.0 Hōkūleʻa
  2021-09-17T15:18:30UTC 2021-09-17T05:18:30-10:00 2021-09-17T04:18:30-11:00  21.31307 -157.88873      62   0.0 Hōkūleʻa
  2021-09-17T14:18:38UTC 2021-09-17T04:18:38-10:00 2021-09-17T03:18:38-11:00  21.31306 -157.88875     298   0.0 Hōkūleʻa
  2021-09-17T13:18:24UTC 2021-09-17T03:18:24-10:00 2021-09-17T02:18:24-11:00  21.31305 -157.88873     180   0.0 Hōkūleʻa
  2021-09-17T12:18:33UTC 2021-09-17T02:18:33-10:00 2021-09-17T01:18:33-11:00  21.31306 -157.88873     180   0.0 Hōkūleʻa
  2021-09-17T11:18:32UTC 2021-09-17T01:18:32-10:00 2021-09-17T00:18:32-11:00  21.31307 -157.88873       0   0.0 Hōkūleʻa
  2021-09-17T10:18:36UTC 2021-09-17T00:18:36-10:00 2021-09-16T23:18:36-11:00  21.31307 -157.88873     105   0.0 Hōkūleʻa
  2021-09-17T09:17:31UTC 2021-09-16T23:17:31-10:00 2021-09-16T22:17:31-11:00  21.31308 -157.88877     180   0.0 Hōkūleʻa
  2021-09-17T08:18:22UTC 2021-09-16T22:18:22-10:00 2021-09-16T21:18:22-11:00  21.31311 -157.88877     299   0.0 Hōkūleʻa
  2021-09-17T07:18:24UTC 2021-09-16T21:18:24-10:00 2021-09-16T20:18:24-11:00  21.31309 -157.88873       0   0.0 Hōkūleʻa
  2021-09-17T06:18:39UTC 2021-09-16T20:18:39-10:00 2021-09-16T19:18:39-11:00  21.31307 -157.88873     180   0.0 Hōkūleʻa
  2021-09-17T05:18:30UTC 2021-09-16T19:18:30-10:00 2021-09-16T18:18:30-11:00  21.31308 -157.88873     335   0.0 Hōkūleʻa
  2021-09-17T04:18:35UTC 2021-09-16T18:18:35-10:00 2021-09-16T17:18:35-11:00  21.31304 -157.88871     180   0.0 Hōkūleʻa
  2021-09-17T03:18:31UTC 2021-09-16T17:18:31-10:00 2021-09-16T16:18:31-11:00  21.31308 -157.88871     155   0.0 Hōkūleʻa
  2021-09-17T02:17:46UTC 2021-09-16T16:17:46-10:00 2021-09-16T15:17:46-11:00  21.31312 -157.88873       0   0.0 Hōkūleʻa
  2021-09-17T01:18:35UTC 2021-09-16T15:18:35-10:00 2021-09-16T14:18:35-11:00  21.31311 -157.88873       0   0.0 Hōkūleʻa
  2021-09-17T00:18:32UTC 2021-09-16T14:18:32-10:00 2021-09-16T13:18:32-11:00  21.31308 -157.88873      90   0.0 Hōkūleʻa
  2021-09-16T23:17:27UTC 2021-09-16T13:17:27-10:00 2021-09-16T12:17:27-11:00  21.31308 -157.88875       0   0.0 Hōkūleʻa
  2021-09-16T22:18:37UTC 2021-09-16T12:18:37-10:00 2021-09-16T11:18:37-11:00  21.31307 -157.88875     160   0.0 Hōkūleʻa
  2021-09-16T21:17:41UTC 2021-09-16T11:17:41-10:00 2021-09-16T10:17:41-11:00  21.31312 -157.88877     323   0.0 Hōkūleʻa
  2021-09-16T20:26:34UTC 2021-09-16T10:26:34-10:00 2021-09-16T09:26:34-11:00  21.31307 -157.88873       0   0.0 Hōkūleʻa
  2021-09-16T19:18:30UTC 2021-09-16T09:18:30-10:00 2021-09-16T08:18:30-11:00  21.31306 -157.88873     180   0.0 Hōkūleʻa
  2021-09-16T18:18:50UTC 2021-09-16T08:18:50-10:00 2021-09-16T07:18:50-11:00  21.31307 -157.88873     143   0.0 Hōkūleʻa
  2021-09-16T17:17:39UTC 2021-09-16T07:17:39-10:00 2021-09-16T06:17:39-11:00  21.31312 -157.88877       0   0.0 Hōkūleʻa
  2021-09-16T16:18:22UTC 2021-09-16T06:18:22-10:00 2021-09-16T05:18:22-11:00  21.31307 -157.88877     299   0.0 Hōkūleʻa
  2021-09-16T15:18:24UTC 2021-09-16T05:18:24-10:00 2021-09-16T04:18:24-11:00  21.31306 -157.88875     242   0.0 Hōkūleʻa
  2021-09-16T14:18:39UTC 2021-09-16T04:18:39-10:00 2021-09-16T03:18:39-11:00  21.31307 -157.88873       0   0.0 Hōkūleʻa
  2021-09-16T13:17:34UTC 2021-09-16T03:17:34-10:00 2021-09-16T02:17:34-11:00  21.31307 -157.88873       0   0.0 Hōkūleʻa
  2021-09-16T12:18:24UTC 2021-09-16T02:18:24-10:00 2021-09-16T01:18:24-11:00  21.31307 -157.88873     180   0.0 Hōkūleʻa
  2021-09-16T11:18:28UTC 2021-09-16T01:18:28-10:00 2021-09-16T00:18:28-11:00  21.31308 -157.88873       0   0.0 Hōkūleʻa
  2021-09-16T10:18:42UTC 2021-09-16T00:18:42-10:00 2021-09-15T23:18:42-11:00  21.31307 -157.88873      90   0.0 Hōkūleʻa
  2021-09-16T09:18:32UTC 2021-09-15T23:18:32-10:00 2021-09-15T22:18:32-11:00  21.31307 -157.88877     180   0.0 Hōkūleʻa
  2021-09-16T08:19:30UTC 2021-09-15T22:19:30-10:00 2021-09-15T21:19:30-11:00  21.31309 -157.88877       0   0.0 Hōkūleʻa
  2021-09-16T07:17:33UTC 2021-09-15T21:17:33-10:00 2021-09-15T20:17:33-11:00  21.31309 -157.88877     298   0.0 Hōkūleʻa
  2021-09-16T06:19:41UTC 2021-09-15T20:19:41-10:00 2021-09-15T19:19:41-11:00  21.31307 -157.88873      90   0.0 Hōkūleʻa
  2021-09-16T05:18:45UTC 2021-09-15T19:18:45-10:00 2021-09-15T18:18:45-11:00  21.31307 -157.88877     280   0.0 Hōkūleʻa
  2021-09-16T04:17:32UTC 2021-09-15T18:17:32-10:00 2021-09-15T17:17:32-11:00  21.31306 -157.88871     138   0.0 Hōkūleʻa
  2021-09-16T03:18:24UTC 2021-09-15T17:18:24-10:00 2021-09-15T16:18:24-11:00  21.31308 -157.88873     180   0.0 Hōkūleʻa
  2021-09-16T02:26:25UTC 2021-09-15T16:26:25-10:00 2021-09-15T15:26:25-11:00  21.31309 -157.88873     270   0.0 Hōkūleʻa
  2021-09-16T01:17:33UTC 2021-09-15T15:17:33-10:00 2021-09-15T14:17:33-11:00  21.31309 -157.88871      90   0.0 Hōkūleʻa
  2021-09-16T00:18:30UTC 2021-09-15T14:18:30-10:00 2021-09-15T13:18:30-11:00  21.31309 -157.88873       0   0.0 Hōkūleʻa
  2021-09-15T23:17:31UTC 2021-09-15T13:17:31-10:00 2021-09-15T12:17:31-11:00  21.31308 -157.88873       0   0.0 Hōkūleʻa
  2021-09-15T22:17:40UTC 2021-09-15T12:17:40-10:00 2021-09-15T11:17:40-11:00  21.31307 -157.88873     180   0.0 Hōkūleʻa
  2021-09-15T21:17:31UTC 2021-09-15T11:17:31-10:00 2021-09-15T10:17:31-11:00  21.31309 -157.88873       0   0.0 Hōkūleʻa
  2021-09-15T20:25:42UTC 2021-09-15T10:25:42-10:00 2021-09-15T09:25:42-11:00  21.31307 -157.88873       0   0.0 Hōkūleʻa
  2021-09-15T19:18:31UTC 2021-09-15T09:18:31-10:00 2021-09-15T08:18:31-11:00  21.31307 -157.88873       0   0.0 Hōkūleʻa
  2021-09-15T18:17:48UTC 2021-09-15T08:17:48-10:00 2021-09-15T07:17:48-11:00  21.31307 -157.88873     128   0.0 Hōkūleʻa
  2021-09-15T17:18:30UTC 2021-09-15T07:18:30-10:00 2021-09-15T06:18:30-11:00  21.31310 -157.88877     333   0.0 Hōkūleʻa
  2021-09-15T16:18:36UTC 2021-09-15T06:18:36-10:00 2021-09-15T05:18:36-11:00  21.31298 -157.88871     155   0.0 Hōkūleʻa
  2021-09-15T15:18:30UTC 2021-09-15T05:18:30-10:00 2021-09-15T04:18:30-11:00  21.31307 -157.88875       0   0.0 Hōkūleʻa
  2021-09-15T14:18:39UTC 2021-09-15T04:18:39-10:00 2021-09-15T03:18:39-11:00  21.31307 -157.88875     242   0.0 Hōkūleʻa
  2021-09-15T13:18:25UTC 2021-09-15T03:18:25-10:00 2021-09-15T02:18:25-11:00  21.31308 -157.88873       0   0.0 Hōkūleʻa
  2021-09-15T12:18:32UTC 2021-09-15T02:18:32-10:00 2021-09-15T01:18:32-11:00  21.31308 -157.88873       0   0.0 Hōkūleʻa
  2021-09-15T11:18:29UTC 2021-09-15T01:18:29-10:00 2021-09-15T00:18:29-11:00  21.31308 -157.88873       0   0.0 Hōkūleʻa
  2021-09-15T10:18:50UTC 2021-09-15T00:18:50-10:00 2021-09-14T23:18:50-11:00  21.31308 -157.88873      90   0.0 Hōkūleʻa
  2021-09-15T09:17:30UTC 2021-09-14T23:17:30-10:00 2021-09-14T22:17:30-11:00  21.31308 -157.88877     243   0.0 Hōkūleʻa
  2021-09-15T08:18:23UTC 2021-09-14T22:18:23-10:00 2021-09-14T21:18:23-11:00  21.31309 -157.88875       0   0.0 Hōkūleʻa
  2021-09-15T07:18:32UTC 2021-09-14T21:18:32-10:00 2021-09-14T20:18:32-11:00  21.31308 -157.88875     244   0.0 Hōkūleʻa
  2021-09-15T06:18:42UTC 2021-09-14T20:18:42-10:00 2021-09-14T19:18:42-11:00  21.31309 -157.88873     241   0.0 Hōkūleʻa
  2021-09-15T05:24:22UTC 2021-09-14T19:24:22-10:00 2021-09-14T18:24:22-11:00  21.31310 -157.88871       0   0.0 Hōkūleʻa
  2021-09-15T04:18:32UTC 2021-09-14T18:18:32-10:00 2021-09-14T17:18:32-11:00  21.31310 -157.88871      43   0.0 Hōkūleʻa
  2021-09-15T03:17:41UTC 2021-09-14T17:17:41-10:00 2021-09-14T16:17:41-11:00  21.31308 -157.88873     243   0.0 Hōkūleʻa
  2021-09-15T02:18:27UTC 2021-09-14T16:18:27-10:00 2021-09-14T15:18:27-11:00  21.31309 -157.88871      63   0.0 Hōkūleʻa
  2021-09-15T01:26:55UTC 2021-09-14T15:26:55-10:00 2021-09-14T14:26:55-11:00  21.31308 -157.88873       0   0.0 Hōkūleʻa
  2021-09-15T00:17:40UTC 2021-09-14T14:17:40-10:00 2021-09-14T13:17:40-11:00  21.31308 -157.88873     180   0.0 Hōkūleʻa
  2021-09-14T23:17:29UTC 2021-09-14T13:17:29-10:00 2021-09-14T12:17:29-11:00  21.31310 -157.88873      44   0.0 Hōkūleʻa
  2021-09-14T22:18:33UTC 2021-09-14T12:18:33-10:00 2021-09-14T11:18:33-11:00  21.31308 -157.88875     270   0.0 Hōkūleʻa
  2021-09-14T21:17:32UTC 2021-09-14T11:17:32-10:00 2021-09-14T10:17:32-11:00  21.31308 -157.88871      61   0.0 Hōkūleʻa
  2021-09-14T20:17:45UTC 2021-09-14T10:17:45-10:00 2021-09-14T09:17:45-11:00  21.31307 -157.88873     105   0.0 Hōkūleʻa
  2021-09-14T19:18:27UTC 2021-09-14T09:18:27-10:00 2021-09-14T08:18:27-11:00  21.31308 -157.88877     309   0.0 Hōkūleʻa
  2021-09-14T18:18:33UTC 2021-09-14T08:18:33-10:00 2021-09-14T07:18:33-11:00  21.31305 -157.88873     148   0.0 Hōkūleʻa
  2021-09-14T17:18:29UTC 2021-09-14T07:18:29-10:00 2021-09-14T06:18:29-11:00  21.31308 -157.88875       0   0.0 Hōkūleʻa
  2021-09-14T16:18:45UTC 2021-09-14T06:18:45-10:00 2021-09-14T05:18:45-11:00  21.31307 -157.88875      70   0.0 Hōkūleʻa
  2021-09-14T15:17:37UTC 2021-09-14T05:17:37-10:00 2021-09-14T04:17:37-11:00  21.31305 -157.88881     255   0.0 Hōkūleʻa
  2021-09-14T14:18:29UTC 2021-09-14T04:18:29-10:00 2021-09-14T03:18:29-11:00  21.31307 -157.88873     118   0.0 Hōkūleʻa
  2021-09-14T13:18:25UTC 2021-09-14T03:18:25-10:00 2021-09-14T02:18:25-11:00  21.31308 -157.88875     298   0.0 Hōkūleʻa
  2021-09-14T12:18:48UTC 2021-09-14T02:18:48-10:00 2021-09-14T01:18:48-11:00  21.31307 -157.88873     100   0.0 Hōkūleʻa
  2021-09-14T11:18:27UTC 2021-09-14T01:18:27-10:00 2021-09-14T00:18:27-11:00  21.31308 -157.88879     270   0.0 Hōkūleʻa
  2021-09-14T10:18:27UTC 2021-09-14T00:18:27-10:00 2021-09-13T23:18:27-11:00  21.31308 -157.88873     104   0.0 Hōkūleʻa
  2021-09-14T09:18:31UTC 2021-09-13T23:18:31-10:00 2021-09-13T22:18:31-11:00  21.31309 -157.88877     298   0.0 Hōkūleʻa
  2021-09-14T08:18:53UTC 2021-09-13T22:18:53-10:00 2021-09-13T21:18:53-11:00  21.31307 -157.88873       0   0.0 Hōkūleʻa
  2021-09-14T07:18:35UTC 2021-09-13T21:18:35-10:00 2021-09-13T20:18:35-11:00  21.31306 -157.88873     180   0.0 Hōkūleʻa
  2021-09-14T06:25:04UTC 2021-09-13T20:25:04-10:00 2021-09-13T19:25:04-11:00  21.31307 -157.88873     180   0.0 Hōkūleʻa
  2021-09-14T05:18:30UTC 2021-09-13T19:18:30-10:00 2021-09-13T18:18:30-11:00  21.31310 -157.88873       0   0.0 Hōkūleʻa
  2021-09-14T04:18:47UTC 2021-09-13T18:18:47-10:00 2021-09-13T17:18:47-11:00  21.31307 -157.88873      61   0.0 Hōkūleʻa
  2021-09-14T03:18:39UTC 2021-09-13T17:18:39-10:00 2021-09-13T16:18:39-11:00  21.31305 -157.88877     212   0.0 Hōkūleʻa
  2021-09-14T02:17:30UTC 2021-09-13T16:17:30-10:00 2021-09-13T15:17:30-11:00  21.31311 -157.88873       0   0.0 Hōkūleʻa
  2021-09-14T01:18:27UTC 2021-09-13T15:18:27-10:00 2021-09-13T14:18:27-11:00  21.31308 -157.88873       0   0.0 Hōkūleʻa
  2021-09-14T00:18:47UTC 2021-09-13T14:18:47-10:00 2021-09-13T13:18:47-11:00  21.31308 -157.88873      84   0.0 Hōkūleʻa
  2021-09-13T23:17:38UTC 2021-09-13T13:17:38-10:00 2021-09-13T12:17:38-11:00  21.31307 -157.88883     258   0.0 Hōkūleʻa
  2021-09-13T22:17:24UTC 2021-09-13T12:17:24-10:00 2021-09-13T11:17:24-11:00  21.31309 -157.88873       0   0.0 Hōkūleʻa
  2021-09-13T21:18:32UTC 2021-09-13T11:18:32-10:00 2021-09-13T10:18:32-11:00  21.31307 -157.88873     180   0.0 Hōkūleʻa
  2021-09-13T20:17:46UTC 2021-09-13T10:17:46-10:00 2021-09-13T09:17:46-11:00  21.31309 -157.88873      62   0.0 Hōkūleʻa
  2021-09-13T19:18:32UTC 2021-09-13T09:18:32-10:00 2021-09-13T08:18:32-11:00  21.31307 -157.88877     308   0.0 Hōkūleʻa
  2021-09-13T18:18:32UTC 2021-09-13T08:18:32-10:00 2021-09-13T07:18:32-11:00  21.31304 -157.88873     180   0.0 Hōkūleʻa
  2021-09-13T17:26:34UTC 2021-09-13T07:26:34-10:00 2021-09-13T06:26:34-11:00  21.31306 -157.88873     118   0.0 Hōkūleʻa
  2021-09-13T16:29:41UTC 2021-09-13T06:29:41-10:00 2021-09-13T05:29:41-11:00  21.31307 -157.88875     262   0.0 Hōkūleʻa
  2021-09-13T15:18:31UTC 2021-09-13T05:18:31-10:00 2021-09-13T04:18:31-11:00  21.31308 -157.88866      61   0.0 Hōkūleʻa
  2021-09-13T14:18:37UTC 2021-09-13T04:18:37-10:00 2021-09-13T03:18:37-11:00  21.31305 -157.88873     165   0.0 Hōkūleʻa
  2021-09-13T13:17:33UTC 2021-09-13T03:17:33-10:00 2021-09-13T02:17:33-11:00  21.31312 -157.88875     342   0.0 Hōkūleʻa
  2021-09-13T12:18:40UTC 2021-09-13T02:18:40-10:00 2021-09-13T01:18:40-11:00  21.31306 -157.88873     212   0.0 Hōkūleʻa
  2021-09-13T11:18:33UTC 2021-09-13T01:18:33-10:00 2021-09-13T00:18:33-11:00  21.31309 -157.88871      76   0.0 Hōkūleʻa
  2021-09-13T10:17:24UTC 2021-09-13T00:17:24-10:00 2021-09-12T23:17:24-11:00  21.31308 -157.88875     298   0.0 Hōkūleʻa
  2021-09-13T09:18:24UTC 2021-09-12T23:18:24-10:00 2021-09-12T22:18:24-11:00  21.31307 -157.88873     118   0.0 Hōkūleʻa
  2021-09-13T08:25:39UTC 2021-09-12T22:25:39-10:00 2021-09-12T21:25:39-11:00  21.31308 -157.88875     317   0.0 Hōkūleʻa
  2021-09-13T07:18:37UTC 2021-09-12T21:18:37-10:00 2021-09-12T20:18:37-11:00  21.31306 -157.88873     137   0.0 Hōkūleʻa
  2021-09-13T06:18:24UTC 2021-09-12T20:18:24-10:00 2021-09-12T19:18:24-11:00  21.31308 -157.88875     244   0.0 Hōkūleʻa
  2021-09-13T05:18:30UTC 2021-09-12T19:18:30-10:00 2021-09-12T18:18:30-11:00  21.31309 -157.88873       0   0.0 Hōkūleʻa
  2021-09-13T04:17:42UTC 2021-09-12T18:17:42-10:00 2021-09-12T17:17:42-11:00  21.31309 -157.88873     250   0.0 Hōkūleʻa
  2021-09-13T03:19:30UTC 2021-09-12T17:19:30-10:00 2021-09-12T16:19:30-11:00  21.31311 -157.88866      75   0.0 Hōkūleʻa
  2021-09-13T02:28:24UTC 2021-09-12T16:28:24-10:00 2021-09-12T15:28:24-11:00  21.31310 -157.88871      61   0.0 Hōkūleʻa
  2021-09-13T01:17:23UTC 2021-09-12T15:17:23-10:00 2021-09-12T14:17:23-11:00  21.31309 -157.88873       0   0.0 Hōkūleʻa
  2021-09-13T00:17:40UTC 2021-09-12T14:17:40-10:00 2021-09-12T13:17:40-11:00  21.31309 -157.88873     148   0.0 Hōkūleʻa
  2021-09-12T23:18:31UTC 2021-09-12T13:18:31-10:00 2021-09-12T12:18:31-11:00  21.31312 -157.88875       0   0.0 Hōkūleʻa
  2021-09-12T22:17:33UTC 2021-09-12T12:17:33-10:00 2021-09-12T11:17:33-11:00  21.31308 -157.88875     270   0.0 Hōkūleʻa
  2021-09-12T21:17:31UTC 2021-09-12T11:17:31-10:00 2021-09-12T10:17:31-11:00  21.31308 -157.88873       0   0.0 Hōkūleʻa
  2021-09-12T20:18:40UTC 2021-09-12T10:18:40-10:00 2021-09-12T09:18:40-11:00  21.31308 -157.88873     136   0.0 Hōkūleʻa
  2021-09-12T19:33:50UTC 2021-09-12T09:33:50-10:00 2021-09-12T08:33:50-11:00  21.31310 -157.88875     310   0.0 Hōkūleʻa
  2021-09-12T18:17:39UTC 2021-09-12T08:17:39-10:00 2021-09-12T07:17:39-11:00  21.31302 -157.88864     129   0.0 Hōkūleʻa
  2021-09-12T17:18:28UTC 2021-09-12T07:18:28-10:00 2021-09-12T06:18:28-11:00  21.31308 -157.88873       0   0.0 Hōkūleʻa
  2021-09-12T16:18:41UTC 2021-09-12T06:18:41-10:00 2021-09-12T05:18:41-11:00  21.31307 -157.88873      33   0.0 Hōkūleʻa
  2021-09-12T15:18:38UTC 2021-09-12T05:18:38-10:00 2021-09-12T04:18:38-11:00  21.31304 -157.88875     148   0.0 Hōkūleʻa
  2021-09-12T14:18:22UTC 2021-09-12T04:18:22-10:00 2021-09-12T03:18:22-11:00  21.31307 -157.88877     270   0.0 Hōkūleʻa
  2021-09-12T13:18:33UTC 2021-09-12T03:18:33-10:00 2021-09-12T02:18:33-11:00  21.31307 -157.88873       0   0.0 Hōkūleʻa
  2021-09-12T12:18:49UTC 2021-09-12T02:18:49-10:00 2021-09-12T01:18:49-11:00  21.31306 -157.88873     180   0.0 Hōkūleʻa
  2021-09-12T11:18:22UTC 2021-09-12T01:18:22-10:00 2021-09-12T00:18:22-11:00  21.31309 -157.88873       0   0.0 Hōkūleʻa
  2021-09-12T10:18:32UTC 2021-09-12T00:18:32-10:00 2021-09-11T23:18:32-11:00  21.31308 -157.88873     180   0.0 Hōkūleʻa
  2021-09-12T09:17:32UTC 2021-09-11T23:17:32-10:00 2021-09-11T22:17:32-11:00  21.31309 -157.88873     180   0.0 Hōkūleʻa
  2021-09-12T08:18:39UTC 2021-09-11T22:18:39-10:00 2021-09-11T21:18:39-11:00  21.31311 -157.88873     310   0.0 Hōkūleʻa
  2021-09-12T07:18:27UTC 2021-09-11T21:18:27-10:00 2021-09-11T20:18:27-11:00  21.31299 -157.88858     118   0.0 Hōkūleʻa
  2021-09-12T06:26:07UTC 2021-09-11T20:26:07-10:00 2021-09-11T19:26:07-11:00  21.31307 -157.88873     242   0.0 Hōkūleʻa
  2021-09-12T05:18:22UTC 2021-09-11T19:18:22-10:00 2021-09-11T18:18:22-11:00  21.31309 -157.88868     118   0.0 Hōkūleʻa
  2021-09-12T04:18:44UTC 2021-09-11T18:18:44-10:00 2021-09-11T17:18:44-11:00  21.31310 -157.88871     119   0.0 Hōkūleʻa
  2021-09-12T02:18:25UTC 2021-09-11T16:18:25-10:00 2021-09-11T15:18:25-11:00  21.31311 -157.88873       0   0.0 Hōkūleʻa
  2021-09-12T01:17:31UTC 2021-09-11T15:17:31-10:00 2021-09-11T14:17:31-11:00  21.31309 -157.88873      90   0.0 Hōkūleʻa
  2021-09-12T00:17:39UTC 2021-09-11T14:17:39-10:00 2021-09-11T13:17:39-11:00  21.31309 -157.88875      80   0.0 Hōkūleʻa
  2021-09-11T23:18:30UTC 2021-09-11T13:18:30-10:00 2021-09-11T12:18:30-11:00  21.31307 -157.88888     262   0.0 Hōkūleʻa
  2021-09-11T22:17:33UTC 2021-09-11T12:17:33-10:00 2021-09-11T11:17:33-11:00  21.31309 -157.88873       0   0.0 Hōkūleʻa
  2021-09-11T21:18:41UTC 2021-09-11T11:18:41-10:00 2021-09-11T10:18:41-11:00  21.31308 -157.88873       0   0.0 Hōkūleʻa
  2021-09-11T20:17:38UTC 2021-09-11T10:17:38-10:00 2021-09-11T09:17:38-11:00  21.31307 -157.88873      90   0.0 Hōkūleʻa
  2021-09-11T19:18:34UTC 2021-09-11T09:18:34-10:00 2021-09-11T08:18:34-11:00  21.31307 -157.88877     241   0.0 Hōkūleʻa
  2021-09-11T18:17:29UTC 2021-09-11T08:17:29-10:00 2021-09-11T07:17:29-11:00  21.31308 -157.88875     298   0.0 Hōkūleʻa
  2021-09-11T17:19:24UTC 2021-09-11T07:19:24-10:00 2021-09-11T06:19:24-11:00  21.31307 -157.88873      90   0.0 Hōkūleʻa
  2021-09-11T16:18:49UTC 2021-09-11T06:18:49-10:00 2021-09-11T05:18:49-11:00  21.31307 -157.88875      32   0.0 Hōkūleʻa
  2021-09-11T15:18:40UTC 2021-09-11T05:18:40-10:00 2021-09-11T04:18:40-11:00  21.31304 -157.88877     212   0.0 Hōkūleʻa
  2021-09-11T14:18:36UTC 2021-09-11T04:18:36-10:00 2021-09-11T03:18:36-11:00  21.31310 -157.88873       0   0.0 Hōkūleʻa
  2021-09-11T13:18:24UTC 2021-09-11T03:18:24-10:00 2021-09-11T02:18:24-11:00  21.31306 -157.88873       0   0.0 Hōkūleʻa
  2021-09-11T12:18:48UTC 2021-09-11T02:18:48-10:00 2021-09-11T01:18:48-11:00  21.31306 -157.88873     180   0.0 Hōkūleʻa
  2021-09-11T11:18:38UTC 2021-09-11T01:18:38-10:00 2021-09-11T00:18:38-11:00  21.31308 -157.88873     116   0.0 Hōkūleʻa
  2021-09-11T10:18:32UTC 2021-09-11T00:18:32-10:00 2021-09-10T23:18:32-11:00  21.31309 -157.88875       0   0.0 Hōkūleʻa
  2021-09-11T09:27:19UTC 2021-09-10T23:27:19-10:00 2021-09-10T22:27:19-11:00  21.31308 -157.88875     270   0.0 Hōkūleʻa
  2021-09-11T08:18:38UTC 2021-09-10T22:18:38-10:00 2021-09-10T21:18:38-11:00  21.31308 -157.88873     312   0.0 Hōkūleʻa
  2021-09-11T07:18:34UTC 2021-09-10T21:18:34-10:00 2021-09-10T20:18:34-11:00  21.31303 -157.88866     143   0.0 Hōkūleʻa
  2021-09-11T06:18:33UTC 2021-09-10T20:18:33-10:00 2021-09-10T19:18:33-11:00  21.31308 -157.88871     117   0.0 Hōkūleʻa
  2021-09-11T05:18:29UTC 2021-09-10T19:18:29-10:00 2021-09-10T18:18:29-11:00  21.31309 -157.88873     180   0.0 Hōkūleʻa
  2021-09-11T04:18:43UTC 2021-09-10T18:18:43-10:00 2021-09-10T17:18:43-11:00  21.31310 -157.88873     270   0.0 Hōkūleʻa
  2021-09-11T03:18:37UTC 2021-09-10T17:18:37-10:00 2021-09-10T16:18:37-11:00  21.31310 -157.88864      82   0.0 Hōkūleʻa
  2021-09-11T02:17:30UTC 2021-09-10T16:17:30-10:00 2021-09-10T15:17:30-11:00  21.31309 -157.88873       0   0.0 Hōkūleʻa
  2021-09-11T01:18:24UTC 2021-09-10T15:18:24-10:00 2021-09-10T14:18:24-11:00  21.31308 -157.88873       0   0.0 Hōkūleʻa
  2021-09-11T00:17:47UTC 2021-09-10T14:17:47-10:00 2021-09-10T13:17:47-11:00  21.31308 -157.88873      61   0.0 Hōkūleʻa
  2021-09-10T23:18:30UTC 2021-09-10T13:18:30-10:00 2021-09-10T12:18:30-11:00  21.31306 -157.88877     241   0.0 Hōkūleʻa
  2021-09-10T22:17:24UTC 2021-09-10T12:17:24-10:00 2021-09-10T11:17:24-11:00  21.31308 -157.88873     180   0.0 Hōkūleʻa
  2021-09-10T21:18:29UTC 2021-09-10T11:18:29-10:00 2021-09-10T10:18:29-11:00  21.31310 -157.88873       0   0.0 Hōkūleʻa
  2021-09-10T20:18:46UTC 2021-09-10T10:18:46-10:00 2021-09-10T09:18:46-11:00  21.31308 -157.88873     104   0.0 Hōkūleʻa
  2021-09-10T19:18:32UTC 2021-09-10T09:18:32-10:00 2021-09-10T08:18:32-11:00  21.31309 -157.88877     308   0.0 Hōkūleʻa
  2021-09-10T18:18:32UTC 2021-09-10T08:18:32-10:00 2021-09-10T07:18:32-11:00  21.31306 -157.88873     180   0.0 Hōkūleʻa
  2021-09-10T17:18:47UTC 2021-09-10T07:18:47-10:00 2021-09-10T06:18:47-11:00  21.31307 -157.88873      90   0.0 Hōkūleʻa
  2021-09-10T16:18:46UTC 2021-09-10T06:18:46-10:00 2021-09-10T05:18:46-11:00  21.31307 -157.88875     270   0.0 Hōkūleʻa
  2021-09-10T15:18:30UTC 2021-09-10T05:18:30-10:00 2021-09-10T04:18:30-11:00  21.31307 -157.88871      61   0.0 Hōkūleʻa
  2021-09-10T14:18:30UTC 2021-09-10T04:18:30-10:00 2021-09-10T03:18:30-11:00  21.31305 -157.88875     138   0.0 Hōkūleʻa
  2021-09-10T13:18:24UTC 2021-09-10T03:18:24-10:00 2021-09-10T02:18:24-11:00  21.31307 -157.88877     270   0.0 Hōkūleʻa
  2021-09-10T12:18:47UTC 2021-09-10T02:18:47-10:00 2021-09-10T01:18:47-11:00  21.31307 -157.88873     270   0.0 Hōkūleʻa
  2021-09-10T11:17:28UTC 2021-09-10T01:17:28-10:00 2021-09-10T00:17:28-11:00  21.31307 -157.88868     118   0.0 Hōkūleʻa
  2021-09-10T10:18:23UTC 2021-09-10T00:18:23-10:00 2021-09-09T23:18:23-11:00  21.31311 -157.88877     328   0.0 Hōkūleʻa
  2021-09-10T09:18:24UTC 2021-09-09T23:18:24-10:00 2021-09-09T22:18:24-11:00  21.31308 -157.88875     180   0.0 Hōkūleʻa
  2021-09-10T08:18:48UTC 2021-09-09T22:18:48-10:00 2021-09-09T21:18:48-11:00  21.31309 -157.88875     312   0.0 Hōkūleʻa
  2021-09-10T07:18:36UTC 2021-09-09T21:18:36-10:00 2021-09-09T20:18:36-11:00  21.31298 -157.88862     137   0.0 Hōkūleʻa
  2021-09-10T06:18:32UTC 2021-09-09T20:18:32-10:00 2021-09-09T19:18:32-11:00  21.31307 -157.88871       0   0.0 Hōkūleʻa
  2021-09-10T05:18:31UTC 2021-09-09T19:18:31-10:00 2021-09-09T18:18:31-11:00  21.31307 -157.88871     137   0.0 Hōkūleʻa
  2021-09-10T04:18:44UTC 2021-09-09T18:18:44-10:00 2021-09-09T17:18:44-11:00  21.31309 -157.88873     284   0.0 Hōkūleʻa
  2021-09-10T03:18:33UTC 2021-09-09T17:18:33-10:00 2021-09-09T16:18:33-11:00  21.31308 -157.88868     180   0.0 Hōkūleʻa
  2021-09-10T02:18:31UTC 2021-09-09T16:18:31-10:00 2021-09-09T15:18:31-11:00  21.31310 -157.88868      62   0.0 Hōkūleʻa
  2021-09-10T01:17:30UTC 2021-09-09T15:17:30-10:00 2021-09-09T14:17:30-11:00  21.31307 -157.88875     224   0.0 Hōkūleʻa
  2021-09-10T00:17:49UTC 2021-09-09T14:17:49-10:00 2021-09-09T13:17:49-11:00  21.31309 -157.88873      44   0.0 Hōkūleʻa
  2021-09-09T23:18:37UTC 2021-09-09T13:18:37-10:00 2021-09-09T12:18:37-11:00  21.31307 -157.88875     298   0.0 Hōkūleʻa
  2021-09-09T22:17:26UTC 2021-09-09T12:17:26-10:00 2021-09-09T11:17:26-11:00  21.31306 -157.88873     180   0.0 Hōkūleʻa
  2021-09-09T21:17:24UTC 2021-09-09T11:17:24-10:00 2021-09-09T10:17:24-11:00  21.31308 -157.88873      62   0.0 Hōkūleʻa
  2021-09-09T20:24:41UTC 2021-09-09T10:24:41-10:00 2021-09-09T09:24:41-11:00  21.31307 -157.88875     298   0.0 Hōkūleʻa
  2021-09-09T19:17:33UTC 2021-09-09T09:17:33-10:00 2021-09-09T08:17:33-11:00  21.31306 -157.88873     118   0.0 Hōkūleʻa
  2021-09-09T18:25:27UTC 2021-09-09T08:25:27-10:00 2021-09-09T07:25:27-11:00  21.31307 -157.88875     180   0.0 Hōkūleʻa
  2021-09-09T17:18:29UTC 2021-09-09T07:18:29-10:00 2021-09-09T06:18:29-11:00  21.31308 -157.88875       0   0.0 Hōkūleʻa
  2021-09-09T16:18:46UTC 2021-09-09T06:18:46-10:00 2021-09-09T05:18:46-11:00  21.31307 -157.88875     250   0.0 Hōkūleʻa
  2021-09-09T15:18:38UTC 2021-09-09T05:18:38-10:00 2021-09-09T04:18:38-11:00  21.31311 -157.88862      56   0.0 Hōkūleʻa
  2021-09-09T14:18:29UTC 2021-09-09T04:18:29-10:00 2021-09-09T03:18:29-11:00  21.31306 -157.88871     138   0.0 Hōkūleʻa
  2021-09-09T13:18:24UTC 2021-09-09T03:18:24-10:00 2021-09-09T02:18:24-11:00  21.31308 -157.88873      62   0.0 Hōkūleʻa
  2021-09-09T12:17:47UTC 2021-09-09T02:17:47-10:00 2021-09-09T01:17:47-11:00  21.31307 -157.88875     270   0.0 Hōkūleʻa
  2021-09-09T11:25:06UTC 2021-09-09T01:25:06-10:00 2021-09-09T00:25:06-11:00  21.31307 -157.88873       0   0.0 Hōkūleʻa
  2021-09-09T10:18:31UTC 2021-09-09T00:18:31-10:00 2021-09-08T23:18:31-11:00  21.31306 -157.88873     180   0.0 Hōkūleʻa
  2021-09-09T09:18:31UTC 2021-09-08T23:18:31-10:00 2021-09-08T22:18:31-11:00  21.31307 -157.88873     118   0.0 Hōkūleʻa
  2021-09-09T08:17:43UTC 2021-09-08T22:17:43-10:00 2021-09-08T21:17:43-11:00  21.31308 -157.88875     298   0.0 Hōkūleʻa
  2021-09-09T07:18:29UTC 2021-09-08T21:18:29-10:00 2021-09-08T20:18:29-11:00  21.31307 -157.88873     180   0.0 Hōkūleʻa
  2021-09-09T06:18:38UTC 2021-09-08T20:18:38-10:00 2021-09-08T19:18:38-11:00  21.31308 -157.88873       0   0.0 Hōkūleʻa
  2021-09-09T05:18:29UTC 2021-09-08T19:18:29-10:00 2021-09-08T18:18:29-11:00  21.31306 -157.88873     317   0.0 Hōkūleʻa
  2021-09-09T04:18:37UTC 2021-09-08T18:18:37-10:00 2021-09-08T17:18:37-11:00  21.31304 -157.88871     223   0.0 Hōkūleʻa
  2021-09-09T03:27:53UTC 2021-09-08T17:27:53-10:00 2021-09-08T16:27:53-11:00  21.31308 -157.88866      99   0.0 Hōkūleʻa
  2021-09-09T02:18:29UTC 2021-09-08T16:18:29-10:00 2021-09-08T15:18:29-11:00  21.31309 -157.88873       0   0.0 Hōkūleʻa
  2021-09-09T01:18:24UTC 2021-09-08T15:18:24-10:00 2021-09-08T14:18:24-11:00  21.31307 -157.88873     136   0.0 Hōkūleʻa
  2021-09-09T00:17:47UTC 2021-09-08T14:17:47-10:00 2021-09-08T13:17:47-11:00  21.31309 -157.88875      20   0.0 Hōkūleʻa
  2021-09-08T23:17:30UTC 2021-09-08T13:17:30-10:00 2021-09-08T12:17:30-11:00  21.31304 -157.88877     223   0.0 Hōkūleʻa
  2021-09-08T22:18:33UTC 2021-09-08T12:18:33-10:00 2021-09-08T11:18:33-11:00  21.31308 -157.88873     180   0.0 Hōkūleʻa
  2021-09-08T21:17:32UTC 2021-09-08T11:17:32-10:00 2021-09-08T10:17:32-11:00  21.31309 -157.88873       0   0.0 Hōkūleʻa
  2021-09-08T20:18:47UTC 2021-09-08T10:18:47-10:00 2021-09-08T09:18:47-11:00  21.31307 -157.88873       0   0.0 Hōkūleʻa
  2021-09-08T19:17:33UTC 2021-09-08T09:17:33-10:00 2021-09-08T08:17:33-11:00  21.31306 -157.88873     180   0.0 Hōkūleʻa
  2021-09-08T18:18:30UTC 2021-09-08T08:18:30-10:00 2021-09-08T07:18:30-11:00  21.31307 -157.88873       0   0.0 Hōkūleʻa
  2021-09-08T17:18:28UTC 2021-09-08T07:18:28-10:00 2021-09-08T06:18:28-11:00  21.31307 -157.88873       0   0.0 Hōkūleʻa
  2021-09-08T16:19:48UTC 2021-09-08T06:19:48-10:00 2021-09-08T05:19:48-11:00  21.31307 -157.88873      52   0.0 Hōkūleʻa
  2021-09-08T15:18:38UTC 2021-09-08T05:18:38-10:00 2021-09-08T04:18:38-11:00  21.31304 -157.88877     232   0.0 Hōkūleʻa
  2021-09-08T14:17:35UTC 2021-09-08T04:17:35-10:00 2021-09-08T03:17:35-11:00  21.31307 -157.88873      62   0.0 Hōkūleʻa
  2021-09-08T13:19:24UTC 2021-09-08T03:19:24-10:00 2021-09-08T02:19:24-11:00  21.31306 -157.88875     242   0.0 Hōkūleʻa
  2021-09-08T12:18:46UTC 2021-09-08T02:18:46-10:00 2021-09-08T01:18:46-11:00  21.31307 -157.88873       0   0.0 Hōkūleʻa
  2021-09-08T11:18:37UTC 2021-09-08T01:18:37-10:00 2021-09-08T00:18:37-11:00  21.31305 -157.88873     137   0.0 Hōkūleʻa
  2021-09-08T10:18:33UTC 2021-09-08T00:18:33-10:00 2021-09-07T23:18:33-11:00  21.31307 -157.88875     224   0.0 Hōkūleʻa
  2021-09-08T09:18:31UTC 2021-09-07T23:18:31-10:00 2021-09-07T22:18:31-11:00  21.31309 -157.88873       0   0.0 Hōkūleʻa
  2021-09-08T08:18:47UTC 2021-09-07T22:18:47-10:00 2021-09-07T21:18:47-11:00  21.31308 -157.88873     307   0.0 Hōkūleʻa
  2021-09-08T07:19:36UTC 2021-09-07T21:19:36-10:00 2021-09-07T20:19:36-11:00  21.31300 -157.88862     137   0.0 Hōkūleʻa
  2021-09-08T06:27:51UTC 2021-09-07T20:27:51-10:00 2021-09-07T19:27:51-11:00  21.31307 -157.88868     137   0.0 Hōkūleʻa
  2021-09-08T05:18:21UTC 2021-09-07T19:18:21-10:00 2021-09-07T18:18:21-11:00  21.31311 -157.88873       0   0.0 Hōkūleʻa
  2021-09-08T04:17:48UTC 2021-09-07T18:17:48-10:00 2021-09-07T17:17:48-11:00  21.31306 -157.88873     180   0.0 Hōkūleʻa
  2021-09-08T03:18:23UTC 2021-09-07T17:18:23-10:00 2021-09-07T16:18:23-11:00  21.31310 -157.88873       0   0.0 Hōkūleʻa
  2021-09-08T02:17:31UTC 2021-09-07T16:17:31-10:00 2021-09-07T15:17:31-11:00  21.31309 -157.88873       0   0.0 Hōkūleʻa
  2021-09-08T01:18:25UTC 2021-09-07T15:18:25-10:00 2021-09-07T14:18:25-11:00  21.31308 -157.88873       0   0.0 Hōkūleʻa
  2021-09-08T00:17:46UTC 2021-09-07T14:17:46-10:00 2021-09-07T13:17:46-11:00  21.31308 -157.88873       0   0.0 Hōkūleʻa
  2021-09-07T23:17:36UTC 2021-09-07T13:17:36-10:00 2021-09-07T12:17:36-11:00  21.31306 -157.88873       0   0.0 Hōkūleʻa
  2021-09-07T22:17:32UTC 2021-09-07T12:17:32-10:00 2021-09-07T11:17:32-11:00  21.31306 -157.88873     180   0.0 Hōkūleʻa
  2021-09-07T21:18:24UTC 2021-09-07T11:18:24-10:00 2021-09-07T10:18:24-11:00  21.31307 -157.88873       0   0.0 Hōkūleʻa
  2021-09-07T20:17:39UTC 2021-09-07T10:17:39-10:00 2021-09-07T09:17:39-11:00  21.31307 -157.88873       0   0.0 Hōkūleʻa
  2021-09-07T19:27:06UTC 2021-09-07T09:27:06-10:00 2021-09-07T08:27:06-11:00  21.31307 -157.88873     118   0.0 Hōkūleʻa
  2021-09-07T18:18:24UTC 2021-09-07T08:18:24-10:00 2021-09-07T07:18:24-11:00  21.31308 -157.88875     270   0.0 Hōkūleʻa
  2021-09-07T17:25:16UTC 2021-09-07T07:25:16-10:00 2021-09-07T06:25:16-11:00  21.31308 -157.88873      90   0.0 Hōkūleʻa
  2021-09-07T16:18:11UTC 2021-09-07T06:18:11-10:00 2021-09-07T05:18:11-11:00  21.31308 -157.88875      25   0.0 Hōkūleʻa
  2021-09-07T15:18:30UTC 2021-09-07T05:18:30-10:00 2021-09-07T04:18:30-11:00  21.31304 -157.88877     256   0.0 Hōkūleʻa
  2021-09-07T14:18:27UTC 2021-09-07T04:18:27-10:00 2021-09-07T03:18:27-11:00  21.31305 -157.88873     118   0.0 Hōkūleʻa
  2021-09-07T13:18:24UTC 2021-09-07T03:18:24-10:00 2021-09-07T02:18:24-11:00  21.31306 -157.88875     180   0.0 Hōkūleʻa
  2021-09-07T12:18:47UTC 2021-09-07T02:18:47-10:00 2021-09-07T01:18:47-11:00  21.31307 -157.88875       0   0.0 Hōkūleʻa
  2021-09-07T11:18:41UTC 2021-09-07T01:18:41-10:00 2021-09-07T00:18:41-11:00  21.31307 -157.88875      90   0.0 Hōkūleʻa
  2021-09-07T10:18:27UTC 2021-09-07T00:18:27-10:00 2021-09-06T23:18:27-11:00  21.31307 -157.88877     223   0.0 Hōkūleʻa
  2021-09-07T09:18:24UTC 2021-09-06T23:18:24-10:00 2021-09-06T22:18:24-11:00  21.31309 -157.88875     270   0.0 Hōkūleʻa
  2021-09-07T08:19:47UTC 2021-09-06T22:19:47-10:00 2021-09-06T21:19:47-11:00  21.31309 -157.88873     314   0.0 Hōkūleʻa
  2021-09-07T07:18:37UTC 2021-09-06T21:18:37-10:00 2021-09-06T20:18:37-11:00  21.31299 -157.88862     148   0.0 Hōkūleʻa
  2021-09-07T06:18:32UTC 2021-09-06T20:18:32-10:00 2021-09-06T19:18:32-11:00  21.31309 -157.88868      52   0.0 Hōkūleʻa
  2021-09-07T05:18:31UTC 2021-09-06T19:18:31-10:00 2021-09-06T18:18:31-11:00  21.31306 -157.88873     180   0.0 Hōkūleʻa
  2021-09-07T04:17:48UTC 2021-09-06T18:17:48-10:00 2021-09-06T17:17:48-11:00  21.31308 -157.88873     243   0.0 Hōkūleʻa
  2021-09-07T03:18:24UTC 2021-09-06T17:18:24-10:00 2021-09-06T16:18:24-11:00  21.31309 -157.88871      90   0.0 Hōkūleʻa
  2021-09-07T02:17:29UTC 2021-09-06T16:17:29-10:00 2021-09-06T15:17:29-11:00  21.31309 -157.88873      44   0.0 Hōkūleʻa
  2021-09-07T01:18:24UTC 2021-09-06T15:18:24-10:00 2021-09-06T14:18:24-11:00  21.31307 -157.88875     270   0.0 Hōkūleʻa
  2021-09-07T00:17:48UTC 2021-09-06T14:17:48-10:00 2021-09-06T13:17:48-11:00  21.31307 -157.88873     100   0.0 Hōkūleʻa
  2021-09-06T23:18:30UTC 2021-09-06T13:18:30-10:00 2021-09-06T12:18:30-11:00  21.31308 -157.88879     261   0.0 Hōkūleʻa
  2021-09-06T22:17:33UTC 2021-09-06T12:17:33-10:00 2021-09-06T11:17:33-11:00  21.31309 -157.88873       0   0.0 Hōkūleʻa
  2021-09-06T21:18:33UTC 2021-09-06T11:18:33-10:00 2021-09-06T10:18:33-11:00  21.31307 -157.88873     180   0.0 Hōkūleʻa
  2021-09-06T20:17:48UTC 2021-09-06T10:17:48-10:00 2021-09-06T09:17:48-11:00  21.31308 -157.88873     104   0.0 Hōkūleʻa
  2021-09-06T19:18:38UTC 2021-09-06T09:18:38-10:00 2021-09-06T08:18:38-11:00  21.31309 -157.88877       0   0.0 Hōkūleʻa
  2021-09-06T18:28:04UTC 2021-09-06T08:28:04-10:00 2021-09-06T07:28:04-11:00  21.31306 -157.88877     255   0.0 Hōkūleʻa
  2021-09-06T17:18:22UTC 2021-09-06T07:18:22-10:00 2021-09-06T06:18:22-11:00  21.31307 -157.88873     118   0.0 Hōkūleʻa
  2021-09-06T16:27:48UTC 2021-09-06T06:27:48-10:00 2021-09-06T05:27:48-11:00  21.31308 -157.88875      52   0.0 Hōkūleʻa
  2021-09-06T15:18:30UTC 2021-09-06T05:18:30-10:00 2021-09-06T04:18:30-11:00  21.31297 -157.88890     235   0.0 Hōkūleʻa
  2021-09-06T14:18:29UTC 2021-09-06T04:18:29-10:00 2021-09-06T03:18:29-11:00  21.31306 -157.88877     270   0.0 Hōkūleʻa
  2021-09-06T13:18:29UTC 2021-09-06T03:18:29-10:00 2021-09-06T02:18:29-11:00  21.31306 -157.88873     118   0.0 Hōkūleʻa
  2021-09-06T12:18:48UTC 2021-09-06T02:18:48-10:00 2021-09-06T01:18:48-11:00  21.31307 -157.88875     270   0.0 Hōkūleʻa
  2021-09-06T11:18:21UTC 2021-09-06T01:18:21-10:00 2021-09-06T00:18:21-11:00  21.31307 -157.88873       0   0.0 Hōkūleʻa
  2021-09-06T10:18:32UTC 2021-09-06T00:18:32-10:00 2021-09-05T23:18:32-11:00  21.31307 -157.88873     118   0.0 Hōkūleʻa
  2021-09-06T09:18:33UTC 2021-09-05T23:18:33-10:00 2021-09-05T22:18:33-11:00  21.31308 -157.88875       0   0.0 Hōkūleʻa
  2021-09-06T08:18:49UTC 2021-09-05T22:18:49-10:00 2021-09-05T21:18:49-11:00  21.31308 -157.88875     317   0.0 Hōkūleʻa
  2021-09-06T07:18:34UTC 2021-09-05T21:18:34-10:00 2021-09-05T20:18:34-11:00  21.31306 -157.88873     180   0.0 Hōkūleʻa
  2021-09-06T06:18:39UTC 2021-09-05T20:18:39-10:00 2021-09-05T19:18:39-11:00  21.31307 -157.88873       0   0.0 Hōkūleʻa
  2021-09-06T05:18:30UTC 2021-09-05T19:18:30-10:00 2021-09-05T18:18:30-11:00  21.31306 -157.88873     180   0.0 Hōkūleʻa
  2021-09-06T04:17:38UTC 2021-09-05T18:17:38-10:00 2021-09-05T17:17:38-11:00  21.31307 -157.88873     242   0.0 Hōkūleʻa
  2021-09-06T03:26:18UTC 2021-09-05T17:26:18-10:00 2021-09-05T16:26:18-11:00  21.31309 -157.88868      52   0.0 Hōkūleʻa
  2021-09-06T02:18:28UTC 2021-09-05T16:18:28-10:00 2021-09-05T15:18:28-11:00  21.31306 -157.88873     180   0.0 Hōkūleʻa
  2021-09-06T01:17:33UTC 2021-09-05T15:17:33-10:00 2021-09-05T14:17:33-11:00  21.31308 -157.88873     180   0.0 Hōkūleʻa
  2021-09-06T00:17:51UTC 2021-09-05T14:17:51-10:00 2021-09-05T13:17:51-11:00  21.31311 -157.88873       0   0.0 Hōkūleʻa
  2021-09-05T23:17:30UTC 2021-09-05T13:17:30-10:00 2021-09-05T12:17:30-11:00  21.31306 -157.88873     255   0.0 Hōkūleʻa
  2021-09-05T22:18:33UTC 2021-09-05T12:18:33-10:00 2021-09-05T11:18:33-11:00  21.31307 -157.88868     128   0.0 Hōkūleʻa
  2021-09-05T21:17:21UTC 2021-09-05T11:17:21-10:00 2021-09-05T10:17:21-11:00  21.31310 -157.88873       0   0.0 Hōkūleʻa
  2021-09-05T20:17:47UTC 2021-09-05T10:17:47-10:00 2021-09-05T09:17:47-11:00  21.31309 -157.88873       0   0.0 Hōkūleʻa
  2021-09-05T19:18:34UTC 2021-09-05T09:18:34-10:00 2021-09-05T08:18:34-11:00  21.31308 -157.88873     116   0.0 Hōkūleʻa
  2021-09-05T18:17:31UTC 2021-09-05T08:17:31-10:00 2021-09-05T07:17:31-11:00  21.31309 -157.88875       0   0.0 Hōkūleʻa
  2021-09-05T17:18:22UTC 2021-09-05T07:18:22-10:00 2021-09-05T06:18:22-11:00  21.31306 -157.88875     180   0.0 Hōkūleʻa
  2021-09-05T16:18:43UTC 2021-09-05T06:18:43-10:00 2021-09-05T05:18:43-11:00  21.31307 -157.88875      51   0.0 Hōkūleʻa
  2021-09-05T15:19:38UTC 2021-09-05T05:19:38-10:00 2021-09-05T04:19:38-11:00  21.31300 -157.88883     236   0.0 Hōkūleʻa
  2021-09-05T14:18:31UTC 2021-09-05T04:18:31-10:00 2021-09-05T03:18:31-11:00  21.31306 -157.88875       0   0.0 Hōkūleʻa
  2021-09-05T13:18:33UTC 2021-09-05T03:18:33-10:00 2021-09-05T02:18:33-11:00  21.31306 -157.88875     242   0.0 Hōkūleʻa
  2021-09-05T12:18:47UTC 2021-09-05T02:18:47-10:00 2021-09-05T01:18:47-11:00  21.31307 -157.88873     118   0.0 Hōkūleʻa
  2021-09-05T11:18:36UTC 2021-09-05T01:18:36-10:00 2021-09-05T00:18:36-11:00  21.31308 -157.88875      90   0.0 Hōkūleʻa
  2021-09-05T10:17:33UTC 2021-09-05T00:17:33-10:00 2021-09-04T23:17:33-11:00  21.31308 -157.88877     180   0.0 Hōkūleʻa
  2021-09-05T09:18:24UTC 2021-09-04T23:18:24-10:00 2021-09-04T22:18:24-11:00  21.31310 -157.88877     308   0.0 Hōkūleʻa
  2021-09-05T08:18:42UTC 2021-09-04T22:18:42-10:00 2021-09-04T21:18:42-11:00  21.31307 -157.88873     298   0.0 Hōkūleʻa
  2021-09-05T07:17:26UTC 2021-09-04T21:17:26-10:00 2021-09-04T20:17:26-11:00  21.31304 -157.88866     118   0.0 Hōkūleʻa
  2021-09-05T06:18:25UTC 2021-09-04T20:18:25-10:00 2021-09-04T19:18:25-11:00  21.31307 -157.88873     180   0.0 Hōkūleʻa
  2021-09-05T05:18:29UTC 2021-09-04T19:18:29-10:00 2021-09-04T18:18:29-11:00  21.31308 -157.88873     180   0.0 Hōkūleʻa
  2021-09-05T04:18:45UTC 2021-09-04T18:18:45-10:00 2021-09-04T17:18:45-11:00  21.31310 -157.88873     299   0.0 Hōkūleʻa
  2021-09-05T03:18:38UTC 2021-09-04T17:18:38-10:00 2021-09-04T16:18:38-11:00  21.31309 -157.88871       0   0.0 Hōkūleʻa
  2021-09-05T02:26:17UTC 2021-09-04T16:26:17-10:00 2021-09-04T15:26:17-11:00  21.31309 -157.88871      63   0.0 Hōkūleʻa
  2021-09-05T01:18:25UTC 2021-09-04T15:18:25-10:00 2021-09-04T14:18:25-11:00  21.31308 -157.88873     180   0.0 Hōkūleʻa
  2021-09-05T00:17:49UTC 2021-09-04T14:17:49-10:00 2021-09-04T13:17:49-11:00  21.31310 -157.88873      62   0.0 Hōkūleʻa
  2021-09-04T23:17:45UTC 2021-09-04T13:17:45-10:00 2021-09-04T12:17:45-11:00  21.31309 -157.88875       0   0.0 Hōkūleʻa
  2021-09-04T22:18:40UTC 2021-09-04T12:18:40-10:00 2021-09-04T11:18:40-11:00  21.31305 -157.88875     212   0.0 Hōkūleʻa
  2021-09-04T21:17:49UTC 2021-09-04T11:17:49-10:00 2021-09-04T10:17:49-11:00  21.31308 -157.88873       0   0.0 Hōkūleʻa
  2021-09-04T20:25:14UTC 2021-09-04T10:25:14-10:00 2021-09-04T09:25:14-11:00  21.31308 -157.88873       0   0.0 Hōkūleʻa
  2021-09-04T19:17:24UTC 2021-09-04T09:17:24-10:00 2021-09-04T08:17:24-11:00  21.31307 -157.88873       0   0.0 Hōkūleʻa
  2021-09-04T18:18:41UTC 2021-09-04T08:18:41-10:00 2021-09-04T07:18:41-11:00  21.31306 -157.88873     137   0.0 Hōkūleʻa
  2021-09-04T18:10:46UTC 2021-09-04T08:10:46-10:00 2021-09-04T07:10:46-11:00  21.31305 -157.88838     352   0.0 Hikianalia
  2021-09-04T17:31:39UTC 2021-09-04T07:31:39-10:00 2021-09-04T06:31:39-11:00  21.31290 -157.88836       0   0.0 Hikianalia
  2021-09-04T17:18:57UTC 2021-09-04T07:18:57-10:00 2021-09-04T06:18:57-11:00  21.31310 -157.88877     328   0.0 Hōkūleʻa
  2021-09-04T16:18:33UTC 2021-09-04T06:18:33-10:00 2021-09-04T05:18:33-11:00  21.31304 -157.88873     136   0.0 Hōkūleʻa
  2021-09-04T16:11:48UTC 2021-09-04T06:11:48-10:00 2021-09-04T05:11:48-11:00  21.31290 -157.88836      80   0.0 Hikianalia
  2021-09-04T15:18:24UTC 2021-09-04T05:18:24-10:00 2021-09-04T04:18:24-11:00  21.31306 -157.88875       0   0.0 Hōkūleʻa
  2021-09-04T15:11:09UTC 2021-09-04T05:11:09-10:00 2021-09-04T04:11:09-11:00  21.31289 -157.88843     342   0.0 Hikianalia
  2021-09-04T14:17:38UTC 2021-09-04T04:17:38-10:00 2021-09-04T03:17:38-11:00  21.31306 -157.88875     285   0.0 Hōkūleʻa
  2021-09-04T14:10:35UTC 2021-09-04T04:10:35-10:00 2021-09-04T03:10:35-11:00  21.31282 -157.88841     255   0.0 Hikianalia
  2021-09-04T13:18:27UTC 2021-09-04T03:18:27-10:00 2021-09-04T02:18:27-11:00  21.31305 -157.88871      90   0.0 Hōkūleʻa
  2021-09-04T13:10:41UTC 2021-09-04T03:10:41-10:00 2021-09-04T02:10:41-11:00  21.31283 -157.88836     180   0.0 Hikianalia
  2021-09-04T12:18:33UTC 2021-09-04T02:18:33-10:00 2021-09-04T01:18:33-11:00  21.31305 -157.88873     180   0.0 Hōkūleʻa
  2021-09-04T12:11:18UTC 2021-09-04T02:11:18-10:00 2021-09-04T01:11:18-11:00  21.31293 -157.88836     276   0.0 Hikianalia
  2021-09-04T11:22:10UTC 2021-09-04T01:22:10-10:00 2021-09-04T00:22:10-11:00  21.31292 -157.88825      73   0.0 Hikianalia
  2021-09-04T11:18:22UTC 2021-09-04T01:18:22-10:00 2021-09-04T00:18:22-11:00  21.31307 -157.88873      90   0.0 Hōkūleʻa
  2021-09-04T10:18:41UTC 2021-09-04T00:18:41-10:00 2021-09-03T23:18:41-11:00  21.31307 -157.88875     119   0.0 Hōkūleʻa
  2021-09-04T09:18:31UTC 2021-09-03T23:18:31-10:00 2021-09-03T22:18:31-11:00  21.31308 -157.88877     180   0.0 Hōkūleʻa
  2021-09-04T09:11:06UTC 2021-09-03T23:11:06-10:00 2021-09-03T22:11:06-11:00  21.31288 -157.88841     234   0.0 Hikianalia
  2021-09-04T08:18:29UTC 2021-09-03T22:18:29-10:00 2021-09-03T21:18:29-11:00  21.31311 -157.88877     308   0.0 Hōkūleʻa
  2021-09-04T08:11:24UTC 2021-09-03T22:11:24-10:00 2021-09-03T21:11:24-11:00  21.31292 -157.88834     143   0.0 Hikianalia
  2021-09-04T07:18:32UTC 2021-09-03T21:18:32-10:00 2021-09-03T20:18:32-11:00  21.31308 -157.88873       0   0.0 Hōkūleʻa
  2021-09-04T07:10:49UTC 2021-09-03T21:10:49-10:00 2021-09-03T20:10:49-11:00  21.31297 -157.88838       0   0.0 Hikianalia
  2021-09-04T06:18:47UTC 2021-09-03T20:18:47-10:00 2021-09-03T19:18:47-11:00  21.31308 -157.88873     102   0.0 Hōkūleʻa
  2021-09-04T06:09:45UTC 2021-09-03T20:09:45-10:00 2021-09-03T19:09:45-11:00  21.31297 -157.88838     137   0.0 Hikianalia
  2021-09-04T05:18:37UTC 2021-09-03T19:18:37-10:00 2021-09-03T18:18:37-11:00  21.31310 -157.88883     278   0.0 Hōkūleʻa
  2021-09-04T05:10:38UTC 2021-09-03T19:10:38-10:00 2021-09-03T18:10:38-11:00  21.31308 -157.88849     321   0.0 Hikianalia
  2021-09-04T04:18:33UTC 2021-09-03T18:18:33-10:00 2021-09-03T17:18:33-11:00  21.31309 -157.88875     260   0.0 Hōkūleʻa
  2021-09-04T04:11:14UTC 2021-09-03T18:11:14-10:00 2021-09-03T17:11:14-11:00  21.31291 -157.88834     252   0.0 Hikianalia
  2021-09-04T03:20:36UTC 2021-09-03T17:20:36-10:00 2021-09-03T16:20:36-11:00  21.31294 -157.88823      69   0.0 Hikianalia
  2021-09-04T03:17:29UTC 2021-09-03T17:17:29-10:00 2021-09-03T16:17:29-11:00  21.31310 -157.88868      75   0.0 Hōkūleʻa
  2021-09-04T02:18:39UTC 2021-09-03T16:18:39-10:00 2021-09-03T15:18:39-11:00  21.31309 -157.88873       0   0.0 Hōkūleʻa
  2021-09-04T02:10:42UTC 2021-09-03T16:10:42-10:00 2021-09-03T15:10:42-11:00  21.31289 -157.88838     201   0.0 Hikianalia
  2021-09-04T01:18:33UTC 2021-09-03T15:18:33-10:00 2021-09-03T14:18:33-11:00  21.31308 -157.88873     180   0.0 Hōkūleʻa
  2021-09-04T00:18:33UTC 2021-09-03T14:18:33-10:00 2021-09-03T13:18:33-11:00  21.31309 -157.88873       0   0.0 Hōkūleʻa
  2021-09-04T00:10:47UTC 2021-09-03T14:10:47-10:00 2021-09-03T13:10:47-11:00  21.31294 -157.88836      90   0.0 Hikianalia
  2021-09-03T23:17:27UTC 2021-09-03T13:17:27-10:00 2021-09-03T12:17:27-11:00  21.31309 -157.88873       0   0.0 Hōkūleʻa
  2021-09-03T23:09:43UTC 2021-09-03T13:09:43-10:00 2021-09-03T12:09:43-11:00  21.31294 -157.88856     276   0.0 Hikianalia
  2021-09-03T22:17:47UTC 2021-09-03T12:17:47-10:00 2021-09-03T11:17:47-11:00  21.31309 -157.88873     317   0.0 Hōkūleʻa
  2021-09-03T22:10:14UTC 2021-09-03T12:10:14-10:00 2021-09-03T11:10:14-11:00  21.31292 -157.88834     256   0.0 Hikianalia
  2021-09-03T21:22:07UTC 2021-09-03T11:22:07-10:00 2021-09-03T10:22:07-11:00  21.31293 -157.88830      84   0.0 Hikianalia
  2021-09-03T21:18:29UTC 2021-09-03T11:18:29-10:00 2021-09-03T10:18:29-11:00  21.31307 -157.88871       0   0.0 Hōkūleʻa
  2021-09-03T20:17:27UTC 2021-09-03T10:17:27-10:00 2021-09-03T09:17:27-11:00  21.31307 -157.88871      42   0.0 Hōkūleʻa
  2021-09-03T20:09:47UTC 2021-09-03T10:09:47-10:00 2021-09-03T09:09:47-11:00  21.31292 -157.88841     247   0.0 Hikianalia
  2021-09-03T19:18:27UTC 2021-09-03T09:18:27-10:00 2021-09-03T08:18:27-11:00  21.31305 -157.88873     180   0.0 Hōkūleʻa
  2021-09-03T19:10:38UTC 2021-09-03T09:10:38-10:00 2021-09-03T08:10:38-11:00  21.31296 -157.88830      61   0.0 Hikianalia
  2021-09-03T18:23:31UTC 2021-09-03T08:23:31-10:00 2021-09-03T07:23:31-11:00  21.31293 -157.88836     154   0.0 Hikianalia
  2021-09-03T18:18:49UTC 2021-09-03T08:18:49-10:00 2021-09-03T07:18:49-11:00  21.31307 -157.88873       0   0.0 Hōkūleʻa
  2021-09-03T17:19:36UTC 2021-09-03T07:19:36-10:00 2021-09-03T06:19:36-11:00  21.31304 -157.88873     136   0.0 Hōkūleʻa
  2021-09-03T17:11:15UTC 2021-09-03T07:11:15-10:00 2021-09-03T06:11:15-11:00  21.31297 -157.88838     298   0.0 Hikianalia
  2021-09-03T16:17:41UTC 2021-09-03T06:17:41-10:00 2021-09-03T05:17:41-11:00  21.31306 -157.88875     316   0.0 Hōkūleʻa
  2021-09-03T16:10:39UTC 2021-09-03T06:10:39-10:00 2021-09-03T05:10:39-11:00  21.31295 -157.88834      20   0.0 Hikianalia
  2021-09-03T15:18:23UTC 2021-09-03T05:18:23-10:00 2021-09-03T04:18:23-11:00  21.31304 -157.88873     180   0.0 Hōkūleʻa
  2021-09-03T15:11:12UTC 2021-09-03T05:11:12-10:00 2021-09-03T04:11:12-11:00  21.31290 -157.88836     165   0.0 Hikianalia
  2021-09-03T14:18:45UTC 2021-09-03T04:18:45-10:00 2021-09-03T03:18:45-11:00  21.31305 -157.88873     180   0.0 Hōkūleʻa
  2021-09-03T14:10:50UTC 2021-09-03T04:10:50-10:00 2021-09-03T03:10:50-11:00  21.31297 -157.88838      17   0.0 Hikianalia
  2021-09-03T13:18:28UTC 2021-09-03T03:18:28-10:00 2021-09-03T02:18:28-11:00  21.31307 -157.88873      43   0.0 Hōkūleʻa
  2021-09-03T13:09:45UTC 2021-09-03T03:09:45-10:00 2021-09-03T02:09:45-11:00  21.31291 -157.88841     270   0.0 Hikianalia
  2021-09-03T12:18:30UTC 2021-09-03T02:18:30-10:00 2021-09-03T01:18:30-11:00  21.31305 -157.88875     212   0.0 Hōkūleʻa
  2021-09-03T12:12:09UTC 2021-09-03T02:12:09-10:00 2021-09-03T01:12:09-11:00  21.31291 -157.88836       0   0.0 Hikianalia
  2021-09-03T11:18:21UTC 2021-09-03T01:18:21-10:00 2021-09-03T00:18:21-11:00  21.31308 -157.88873       0   0.0 Hōkūleʻa
  2021-09-03T11:11:16UTC 2021-09-03T01:11:16-10:00 2021-09-03T00:11:16-11:00  21.31291 -157.88836      94   0.0 Hikianalia
  2021-09-03T10:18:41UTC 2021-09-03T00:18:41-10:00 2021-09-02T23:18:41-11:00  21.31306 -157.88873     180   0.0 Hōkūleʻa
  2021-09-03T10:11:15UTC 2021-09-03T00:11:15-10:00 2021-09-02T23:11:15-11:00  21.31292 -157.88851     235   0.0 Hikianalia
  2021-09-03T09:18:34UTC 2021-09-02T23:18:34-10:00 2021-09-02T22:18:34-11:00  21.31307 -157.88873     180   0.0 Hōkūleʻa
  2021-09-03T08:18:31UTC 2021-09-02T22:18:31-10:00 2021-09-02T21:18:31-11:00  21.31308 -157.88873      62   0.0 Hōkūleʻa
  2021-09-03T08:10:44UTC 2021-09-02T22:10:44-10:00 2021-09-02T21:10:44-11:00  21.31296 -157.88845     261   0.0 Hikianalia
  2021-09-03T07:18:29UTC 2021-09-02T21:18:29-10:00 2021-09-02T20:18:29-11:00  21.31307 -157.88875     270   0.0 Hōkūleʻa
  2021-09-03T07:10:44UTC 2021-09-02T21:10:44-10:00 2021-09-02T20:10:44-11:00  21.31297 -157.88838     342   0.0 Hikianalia
  2021-09-03T06:17:46UTC 2021-09-02T20:17:46-10:00 2021-09-02T19:17:46-11:00  21.31307 -157.88873     180   0.0 Hōkūleʻa
  2021-09-03T06:11:08UTC 2021-09-02T20:11:08-10:00 2021-09-02T19:11:08-11:00  21.31291 -157.88836     162   0.0 Hikianalia
  2021-09-03T05:18:24UTC 2021-09-02T19:18:24-10:00 2021-09-02T18:18:24-11:00  21.31309 -157.88873      64   0.0 Hōkūleʻa
  2021-09-03T05:10:57UTC 2021-09-02T19:10:57-10:00 2021-09-02T18:10:57-11:00  21.31297 -157.88838     118   0.0 Hikianalia
  2021-09-03T04:18:32UTC 2021-09-02T18:18:32-10:00 2021-09-02T17:18:32-11:00  21.31308 -157.88875     270   0.0 Hōkūleʻa
  2021-09-03T04:10:40UTC 2021-09-02T18:10:40-10:00 2021-09-02T17:10:40-11:00  21.31300 -157.88845     314   0.0 Hikianalia
  2021-09-03T03:18:32UTC 2021-09-02T17:18:32-10:00 2021-09-02T16:18:32-11:00  21.31308 -157.88871      90   0.0 Hōkūleʻa
  2021-09-03T03:09:42UTC 2021-09-02T17:09:42-10:00 2021-09-02T16:09:42-11:00  21.31291 -157.88834     180   0.0 Hikianalia
  2021-09-03T02:25:41UTC 2021-09-02T16:25:41-10:00 2021-09-02T15:25:41-11:00  21.31295 -157.88834       0   0.0 Hikianalia
  2021-09-03T02:18:47UTC 2021-09-02T16:18:47-10:00 2021-09-02T15:18:47-11:00  21.31308 -157.88873     270   0.0 Hōkūleʻa
  2021-09-03T01:17:33UTC 2021-09-02T15:17:33-10:00 2021-09-02T14:17:33-11:00  21.31308 -157.88871      80   0.0 Hōkūleʻa
  2021-09-03T01:10:45UTC 2021-09-02T15:10:45-10:00 2021-09-02T14:10:45-11:00  21.31291 -157.88834      86   0.0 Hikianalia
  2021-09-03T00:18:33UTC 2021-09-02T14:18:33-10:00 2021-09-02T13:18:33-11:00  21.31307 -157.88877     242   0.0 Hōkūleʻa
  2021-09-03T00:09:46UTC 2021-09-02T14:09:46-10:00 2021-09-02T13:09:46-11:00  21.31290 -157.88849     264   0.0 Hikianalia
  2021-09-02T23:17:47UTC 2021-09-02T13:17:47-10:00 2021-09-02T12:17:47-11:00  21.31291 -157.88838     227   0.0 Hikianalia
  2021-09-02T23:17:21UTC 2021-09-02T13:17:21-10:00 2021-09-02T12:17:21-11:00  21.31309 -157.88873       0   0.0 Hōkūleʻa
  2021-09-02T22:17:42UTC 2021-09-02T12:17:42-10:00 2021-09-02T11:17:42-11:00  21.31306 -157.88873       0   0.0 Hōkūleʻa
  2021-09-02T22:10:40UTC 2021-09-02T12:10:40-10:00 2021-09-02T11:10:40-11:00  21.31298 -157.88830      48   0.0 Hikianalia
  2021-09-02T21:18:38UTC 2021-09-02T11:18:38-10:00 2021-09-02T10:18:38-11:00  21.31305 -157.88873       0   0.0 Hōkūleʻa
  2021-09-02T21:10:17UTC 2021-09-02T11:10:17-10:00 2021-09-02T10:10:17-11:00  21.31293 -157.88836     154   0.0 Hikianalia
  2021-09-02T20:19:48UTC 2021-09-02T10:19:48-10:00 2021-09-02T09:19:48-11:00  21.31297 -157.88838       0   0.0 Hikianalia
  2021-09-02T20:17:40UTC 2021-09-02T10:17:40-10:00 2021-09-02T09:17:40-11:00  21.31305 -157.88873     180   0.0 Hōkūleʻa
  2021-09-02T19:19:12UTC 2021-09-02T09:19:12-10:00 2021-09-02T08:19:12-11:00  21.31293 -157.88838     308   0.0 Hikianalia
  2021-09-02T19:18:33UTC 2021-09-02T09:18:33-10:00 2021-09-02T08:18:33-11:00  21.31306 -157.88873     180   0.0 Hōkūleʻa
  2021-09-02T18:18:48UTC 2021-09-02T08:18:48-10:00 2021-09-02T07:18:48-11:00  21.31308 -157.88873      75   0.0 Hōkūleʻa
  2021-09-02T18:11:11UTC 2021-09-02T08:11:11-10:00 2021-09-02T07:11:11-11:00  21.31290 -157.88834     119   0.0 Hikianalia
  2021-09-02T17:18:38UTC 2021-09-02T07:18:38-10:00 2021-09-02T06:18:38-11:00  21.31307 -157.88877       0   0.0 Hōkūleʻa
  2021-09-02T17:11:08UTC 2021-09-02T07:11:08-10:00 2021-09-02T06:11:08-11:00  21.31291 -157.88836     270   0.0 Hikianalia
  2021-09-02T16:28:29UTC 2021-09-02T06:28:29-10:00 2021-09-02T05:28:29-11:00  21.31307 -157.88877     328   0.0 Hōkūleʻa
  2021-09-02T16:10:45UTC 2021-09-02T06:10:45-10:00 2021-09-02T05:10:45-11:00  21.31291 -157.88834      90   0.0 Hikianalia
  2021-09-02T15:22:07UTC 2021-09-02T05:22:07-10:00 2021-09-02T04:22:07-11:00  21.31291 -157.88836     137   0.0 Hikianalia
  2021-09-02T15:18:31UTC 2021-09-02T05:18:31-10:00 2021-09-02T04:18:31-11:00  21.31304 -157.88875     213   0.0 Hōkūleʻa
  2021-09-02T14:18:46UTC 2021-09-02T04:18:46-10:00 2021-09-02T03:18:46-11:00  21.31307 -157.88873       0   0.0 Hōkūleʻa
  2021-09-02T14:11:25UTC 2021-09-02T04:11:25-10:00 2021-09-02T03:11:25-11:00  21.31306 -157.88851     317   0.0 Hikianalia
  2021-09-02T13:18:33UTC 2021-09-02T03:18:33-10:00 2021-09-02T02:18:33-11:00  21.31304 -157.88873     147   0.0 Hōkūleʻa
  2021-09-02T13:11:15UTC 2021-09-02T03:11:15-10:00 2021-09-02T02:11:15-11:00  21.31289 -157.88834     186   0.0 Hikianalia
  2021-09-02T12:18:24UTC 2021-09-02T02:18:24-10:00 2021-09-02T01:18:24-11:00  21.31307 -157.88875     242   0.0 Hōkūleʻa
  2021-09-02T12:10:45UTC 2021-09-02T02:10:45-10:00 2021-09-02T01:10:45-11:00  21.31308 -157.88832      34   0.0 Hikianalia
  2021-09-02T11:18:32UTC 2021-09-02T01:18:32-10:00 2021-09-02T00:18:32-11:00  21.31308 -157.88873      62   0.0 Hōkūleʻa
  2021-09-02T11:10:44UTC 2021-09-02T01:10:44-10:00 2021-09-02T00:10:44-11:00  21.31293 -157.88843     289   0.0 Hikianalia
  2021-09-02T10:17:37UTC 2021-09-02T00:17:37-10:00 2021-09-01T23:17:37-11:00  21.31307 -157.88875     148   0.0 Hōkūleʻa
  2021-09-02T10:11:15UTC 2021-09-02T00:11:15-10:00 2021-09-01T23:11:15-11:00  21.31291 -157.88836     299   0.0 Hikianalia
  2021-09-02T09:18:24UTC 2021-09-01T23:18:24-10:00 2021-09-01T22:18:24-11:00  21.31310 -157.88877     308   0.0 Hōkūleʻa
  2021-09-02T09:11:09UTC 2021-09-01T23:11:09-10:00 2021-09-01T22:11:09-11:00  21.31290 -157.88834     126   0.0 Hikianalia
  2021-09-02T08:18:21UTC 2021-09-01T22:18:21-10:00 2021-09-01T21:18:21-11:00  21.31307 -157.88873       0   0.0 Hōkūleʻa
  2021-09-02T08:10:42UTC 2021-09-01T22:10:42-10:00 2021-09-01T21:10:42-11:00  21.31294 -157.88841     276   0.0 Hikianalia
  2021-09-02T07:29:03UTC 2021-09-01T21:29:03-10:00 2021-09-01T20:29:03-11:00  21.31293 -157.88830     149   0.0 Hikianalia
  2021-09-02T07:18:42UTC 2021-09-01T21:18:42-10:00 2021-09-01T20:18:42-11:00  21.31307 -157.88873     223   0.0 Hōkūleʻa
  2021-09-02T06:18:41UTC 2021-09-01T20:18:41-10:00 2021-09-01T19:18:41-11:00  21.31309 -157.88871       0   0.0 Hōkūleʻa
  2021-09-02T06:10:08UTC 2021-09-01T20:10:08-10:00 2021-09-01T19:10:08-11:00  21.31296 -157.88832      99   0.0 Hikianalia
  2021-09-02T05:17:36UTC 2021-09-01T19:17:36-10:00 2021-09-01T18:17:36-11:00  21.31305 -157.88871       0   0.0 Hōkūleʻa
  2021-09-02T05:11:45UTC 2021-09-01T19:11:45-10:00 2021-09-01T18:11:45-11:00  21.31297 -157.88838       0   0.0 Hikianalia
  2021-09-02T04:21:59UTC 2021-09-01T18:21:59-10:00 2021-09-01T17:21:59-11:00  21.31293 -157.88838     255   0.0 Hikianalia
  2021-09-02T04:18:24UTC 2021-09-01T18:18:24-10:00 2021-09-01T17:18:24-11:00  21.31305 -157.88871     180   0.0 Hōkūleʻa
  2021-09-02T03:18:30UTC 2021-09-01T17:18:30-10:00 2021-09-01T16:18:30-11:00  21.31311 -157.88871      32   0.0 Hōkūleʻa
  2021-09-02T03:10:17UTC 2021-09-01T17:10:17-10:00 2021-09-01T16:10:17-11:00  21.31294 -157.88834     180   0.0 Hikianalia
  2021-09-02T02:18:48UTC 2021-09-01T16:18:48-10:00 2021-09-01T15:18:48-11:00  21.31308 -157.88873       0   0.0 Hōkūleʻa
  2021-09-02T02:11:08UTC 2021-09-01T16:11:08-10:00 2021-09-01T15:11:08-11:00  21.31295 -157.88834     118   0.0 Hikianalia
  2021-09-02T01:17:23UTC 2021-09-01T15:17:23-10:00 2021-09-01T14:17:23-11:00  21.31308 -157.88873       0   0.0 Hōkūleʻa
  2021-09-02T01:09:45UTC 2021-09-01T15:09:45-10:00 2021-09-01T14:09:45-11:00  21.31297 -157.88838     323   0.0 Hikianalia
  2021-09-02T00:18:24UTC 2021-09-01T14:18:24-10:00 2021-09-01T13:18:24-11:00  21.31308 -157.88873      75   0.0 Hōkūleʻa
  2021-09-02T00:11:05UTC 2021-09-01T14:11:05-10:00 2021-09-01T13:11:05-11:00  21.31292 -157.88834      86   0.0 Hikianalia
  2021-09-01T23:17:39UTC 2021-09-01T13:17:39-10:00 2021-09-01T12:17:39-11:00  21.31307 -157.88877     255   0.0 Hōkūleʻa
  2021-09-01T23:10:15UTC 2021-09-01T13:10:15-10:00 2021-09-01T12:10:15-11:00  21.31291 -157.88849     237   0.0 Hikianalia
  2021-09-01T22:17:41UTC 2021-09-01T12:17:41-10:00 2021-09-01T11:17:41-11:00  21.31308 -157.88873      90   0.0 Hōkūleʻa
  2021-09-01T22:10:56UTC 2021-09-01T12:10:56-10:00 2021-09-01T11:10:56-11:00  21.31297 -157.88838      43   0.0 Hikianalia
  2021-09-01T21:18:41UTC 2021-09-01T11:18:41-10:00 2021-09-01T10:18:41-11:00  21.31308 -157.88877     309   0.0 Hōkūleʻa
  2021-09-01T20:17:39UTC 2021-09-01T10:17:39-10:00 2021-09-01T09:17:39-11:00  21.31305 -157.88873     180   0.0 Hōkūleʻa
  2021-09-01T20:10:17UTC 2021-09-01T10:10:17-10:00 2021-09-01T09:10:17-11:00  21.31295 -157.88841     313   0.0 Hikianalia
  2021-09-01T19:18:34UTC 2021-09-01T09:18:34-10:00 2021-09-01T08:18:34-11:00  21.31307 -157.88873       0   0.0 Hōkūleʻa
  2021-09-01T19:10:46UTC 2021-09-01T09:10:46-10:00 2021-09-01T08:10:46-11:00  21.31288 -157.88832     128   0.0 Hikianalia
  2021-09-01T18:17:40UTC 2021-09-01T08:17:40-10:00 2021-09-01T07:17:40-11:00  21.31307 -157.88873       0   0.0 Hōkūleʻa
  2021-09-01T18:11:10UTC 2021-09-01T08:11:10-10:00 2021-09-01T07:11:10-11:00  21.31291 -157.88836     212   0.0 Hikianalia
  2021-09-01T17:18:36UTC 2021-09-01T07:18:36-10:00 2021-09-01T06:18:36-11:00  21.31305 -157.88873     180   0.0 Hōkūleʻa
  2021-09-01T17:10:42UTC 2021-09-01T07:10:42-10:00 2021-09-01T06:10:42-11:00  21.31294 -157.88834      32   0.0 Hikianalia
  2021-09-01T16:23:11UTC 2021-09-01T06:23:11-10:00 2021-09-01T05:23:11-11:00  21.31288 -157.88838       0   0.0 Hikianalia
  2021-09-01T16:18:32UTC 2021-09-01T06:18:32-10:00 2021-09-01T05:18:32-11:00  21.31308 -157.88873       0   0.0 Hōkūleʻa
  2021-09-01T15:18:30UTC 2021-09-01T05:18:30-10:00 2021-09-01T04:18:30-11:00  21.31307 -157.88873       0   0.0 Hōkūleʻa
  2021-09-01T15:10:55UTC 2021-09-01T05:10:55-10:00 2021-09-01T04:10:55-11:00  21.31284 -157.88838     180   0.0 Hikianalia
  2021-09-01T14:18:39UTC 2021-09-01T04:18:39-10:00 2021-09-01T03:18:39-11:00  21.31306 -157.88873     255   0.0 Hōkūleʻa
  2021-09-01T14:10:35UTC 2021-09-01T04:10:35-10:00 2021-09-01T03:10:35-11:00  21.31297 -157.88838     328   0.0 Hikianalia
  2021-09-01T13:18:34UTC 2021-09-01T03:18:34-10:00 2021-09-01T02:18:34-11:00  21.31307 -157.88868      62   0.0 Hōkūleʻa
  2021-09-01T13:10:13UTC 2021-09-01T03:10:13-10:00 2021-09-01T02:10:13-11:00  21.31291 -157.88834     142   0.0 Hikianalia
  2021-09-01T12:22:58UTC 2021-09-01T02:22:58-10:00 2021-09-01T01:22:58-11:00  21.31304 -157.88845     328   0.0 Hikianalia
  2021-09-01T12:18:33UTC 2021-09-01T02:18:33-10:00 2021-09-01T01:18:33-11:00  21.31306 -157.88871      90   0.0 Hōkūleʻa
  2021-09-01T11:19:31UTC 2021-09-01T01:19:31-10:00 2021-09-01T00:19:31-11:00  21.31294 -157.88838     298   0.0 Hikianalia
  2021-09-01T11:18:30UTC 2021-09-01T01:18:30-10:00 2021-09-01T00:18:30-11:00  21.31306 -157.88873     180   0.0 Hōkūleʻa
  2021-09-01T10:19:37UTC 2021-09-01T00:19:37-10:00 2021-08-31T23:19:37-11:00  21.31307 -157.88873       0   0.0 Hōkūleʻa
  2021-09-01T10:11:12UTC 2021-09-01T00:11:12-10:00 2021-08-31T23:11:12-11:00  21.31293 -157.88836     160   0.1 Hikianalia
  2021-09-01T09:18:41UTC 2021-08-31T23:18:41-10:00 2021-08-31T22:18:41-11:00  21.31306 -157.88873       0   0.0 Hōkūleʻa
  2021-09-01T09:10:40UTC 2021-08-31T23:10:40-10:00 2021-08-31T22:10:40-11:00  21.31518 -157.88924     345   0.2 Hikianalia
  2021-09-01T08:18:28UTC 2021-08-31T22:18:28-10:00 2021-08-31T21:18:28-11:00  21.31305 -157.88873     180   0.0 Hōkūleʻa
  2021-09-01T08:11:15UTC 2021-08-31T22:11:15-10:00 2021-08-31T21:11:15-11:00  21.31264 -157.88849       0   0.0 Hikianalia
  2021-09-01T07:17:32UTC 2021-08-31T21:17:32-10:00 2021-08-31T20:17:32-11:00  21.31306 -157.88873     222   0.0 Hōkūleʻa
  2021-09-01T07:10:55UTC 2021-08-31T21:10:55-10:00 2021-08-31T20:10:55-11:00  21.31264 -157.88849       0   0.0 Hikianalia
  2021-09-01T06:22:33UTC 2021-08-31T20:22:33-10:00 2021-08-31T19:22:33-11:00  21.31264 -157.88849      59   0.0 Hikianalia
  2021-09-01T06:18:40UTC 2021-08-31T20:18:40-10:00 2021-08-31T19:18:40-11:00  21.31308 -157.88871      47   0.0 Hōkūleʻa
  2021-09-01T04:18:32UTC 2021-08-31T18:18:32-10:00 2021-08-31T17:18:32-11:00  21.31300 -157.88879     149   0.0 Hōkūleʻa
  2021-09-01T04:11:20UTC 2021-08-31T18:11:20-10:00 2021-08-31T17:11:20-11:00  21.31198 -157.88967      47   0.5 Hikianalia
  2021-09-01T03:18:22UTC 2021-08-31T17:18:22-10:00 2021-08-31T16:18:22-11:00  21.31304 -157.88881       0   0.0 Hōkūleʻa
  2021-09-01T03:10:51UTC 2021-08-31T17:10:51-10:00 2021-08-31T16:10:51-11:00  21.30658 -157.89594     226   0.6 Hikianalia
  2021-09-01T02:17:37UTC 2021-08-31T16:17:37-10:00 2021-08-31T15:17:37-11:00  21.31303 -157.88881     137   0.0 Hōkūleʻa
  2021-09-01T02:10:43UTC 2021-08-31T16:10:43-10:00 2021-08-31T15:10:43-11:00  21.31313 -157.88862     118   0.0 Hikianalia
  2021-09-01T01:18:33UTC 2021-08-31T15:18:33-10:00 2021-08-31T14:18:33-11:00  21.31305 -157.88883     317   0.0 Hōkūleʻa
  2021-09-01T01:10:48UTC 2021-08-31T15:10:48-10:00 2021-08-31T14:10:48-11:00  21.31319 -157.88873     308   0.0 Hikianalia
  2021-09-01T00:18:31UTC 2021-08-31T14:18:31-10:00 2021-08-31T13:18:31-11:00  21.31303 -157.88881      90   0.0 Hōkūleʻa
  2021-09-01T00:11:17UTC 2021-08-31T14:11:17-10:00 2021-08-31T13:11:17-11:00  21.31312 -157.88864       7   0.0 Hikianalia
  2021-08-31T23:17:22UTC 2021-08-31T13:17:22-10:00 2021-08-31T12:17:22-11:00  21.31303 -157.88883       0   0.0 Hōkūleʻa
  2021-08-31T23:09:35UTC 2021-08-31T13:09:35-10:00 2021-08-31T12:09:35-11:00  21.31295 -157.88866     192   0.0 Hikianalia
  2021-08-31T22:17:46UTC 2021-08-31T12:17:46-10:00 2021-08-31T11:17:46-11:00  21.31302 -157.88883     280   0.0 Hōkūleʻa
  2021-08-31T22:10:39UTC 2021-08-31T12:10:39-10:00 2021-08-31T11:10:39-11:00  21.31313 -157.88862     303   0.0 Hikianalia
  2021-08-31T21:18:30UTC 2021-08-31T11:18:30-10:00 2021-08-31T10:18:30-11:00  21.31300 -157.88877     100   0.0 Hōkūleʻa
  2021-08-31T21:10:46UTC 2021-08-31T11:10:46-10:00 2021-08-31T10:10:46-11:00  21.31307 -157.88851     113   0.0 Hikianalia
  2021-08-31T20:17:21UTC 2021-08-31T10:17:21-10:00 2021-08-31T09:17:21-11:00  21.31302 -157.88883     180   0.0 Hōkūleʻa
  2021-08-31T20:10:18UTC 2021-08-31T10:10:18-10:00 2021-08-31T09:10:18-11:00  21.31311 -157.88862     100   0.0 Hikianalia
  2021-08-31T19:18:27UTC 2021-08-31T09:18:27-10:00 2021-08-31T08:18:27-11:00  21.31303 -157.88883     299   0.0 Hōkūleʻa
  2021-08-31T19:10:48UTC 2021-08-31T09:10:48-10:00 2021-08-31T08:10:48-11:00  21.31312 -157.88868     294   0.0 Hikianalia
  2021-08-31T18:20:39UTC 2021-08-31T08:20:39-10:00 2021-08-31T07:20:39-11:00  21.31307 -157.88856      90   0.0 Hikianalia
  2021-08-31T18:18:48UTC 2021-08-31T08:18:48-10:00 2021-08-31T07:18:48-11:00  21.31302 -157.88881      90   0.0 Hōkūleʻa
  2021-08-31T17:18:32UTC 2021-08-31T07:18:32-10:00 2021-08-31T06:18:32-11:00  21.31302 -157.88883     222   0.0 Hōkūleʻa
  2021-08-31T17:09:46UTC 2021-08-31T07:09:46-10:00 2021-08-31T06:09:46-11:00  21.31307 -157.88862     180   0.0 Hikianalia
  2021-08-31T16:18:34UTC 2021-08-31T06:18:34-10:00 2021-08-31T05:18:34-11:00  21.31304 -157.88881      61   0.0 Hōkūleʻa
  2021-08-31T16:11:07UTC 2021-08-31T06:11:07-10:00 2021-08-31T05:11:07-11:00  21.31310 -157.88862     180   0.0 Hikianalia
  2021-08-31T15:19:31UTC 2021-08-31T05:19:31-10:00 2021-08-31T04:19:31-11:00  21.31303 -157.88883     299   0.0 Hōkūleʻa
  2021-08-31T15:10:38UTC 2021-08-31T05:10:38-10:00 2021-08-31T04:10:38-11:00  21.31327 -157.88862      34   0.0 Hikianalia
  2021-08-31T14:18:47UTC 2021-08-31T04:18:47-10:00 2021-08-31T03:18:47-11:00  21.31302 -157.88881      43   0.0 Hōkūleʻa
  2021-08-31T14:10:43UTC 2021-08-31T04:10:43-10:00 2021-08-31T03:10:43-11:00  21.31312 -157.88873     304   0.0 Hikianalia
  2021-08-31T13:18:48UTC 2021-08-31T03:18:48-10:00 2021-08-31T02:18:48-11:00  21.31307 -157.88864     180   0.0 Hikianalia
  2021-08-31T13:17:37UTC 2021-08-31T03:17:37-10:00 2021-08-31T02:17:37-11:00  21.31299 -157.88883       0   0.0 Hōkūleʻa
  2021-08-31T12:18:23UTC 2021-08-31T02:18:23-10:00 2021-08-31T01:18:23-11:00  21.31299 -157.88883     180   0.0 Hōkūleʻa
  2021-08-31T12:11:04UTC 2021-08-31T02:11:04-10:00 2021-08-31T01:11:04-11:00  21.31310 -157.88864     266   0.0 Hikianalia
  2021-08-31T11:18:23UTC 2021-08-31T01:18:23-10:00 2021-08-31T00:18:23-11:00  21.31303 -157.88883       0   0.0 Hōkūleʻa
  2021-08-31T11:10:40UTC 2021-08-31T01:10:40-10:00 2021-08-31T00:10:40-11:00  21.31311 -157.88849     101   0.0 Hikianalia
  2021-08-31T10:18:41UTC 2021-08-31T00:18:41-10:00 2021-08-30T23:18:41-11:00  21.31302 -157.88883     180   0.0 Hōkūleʻa
  2021-08-31T10:16:34UTC 2021-08-31T00:16:34-10:00 2021-08-30T23:16:34-11:00  21.31314 -157.88866     316   0.0 Hikianalia
  2021-08-31T09:18:38UTC 2021-08-30T23:18:38-10:00 2021-08-30T22:18:38-11:00  21.31303 -157.88883     299   0.0 Hōkūleʻa
  2021-08-31T09:10:47UTC 2021-08-30T23:10:47-10:00 2021-08-30T22:10:47-11:00  21.31308 -157.88860     147   0.0 Hikianalia
  2021-08-31T08:18:37UTC 2021-08-30T22:18:37-10:00 2021-08-30T21:18:37-11:00  21.31302 -157.88881       0   0.0 Hōkūleʻa
  2021-08-31T08:11:11UTC 2021-08-30T22:11:11-10:00 2021-08-30T21:11:11-11:00  21.31311 -157.88862       0   0.0 Hikianalia
  2021-08-31T07:18:33UTC 2021-08-30T21:18:33-10:00 2021-08-30T20:18:33-11:00  21.31302 -157.88881       0   0.0 Hōkūleʻa
  2021-08-31T07:10:48UTC 2021-08-30T21:10:48-10:00 2021-08-30T20:10:48-11:00  21.31310 -157.88862     180   0.0 Hikianalia
  2021-08-31T06:18:49UTC 2021-08-30T20:18:49-10:00 2021-08-30T19:18:49-11:00  21.31302 -157.88881     299   0.0 Hōkūleʻa
  2021-08-31T06:10:45UTC 2021-08-30T20:10:45-10:00 2021-08-30T19:10:45-11:00  21.31312 -157.88862       0   0.0 Hikianalia
  2021-08-31T05:18:36UTC 2021-08-30T19:18:36-10:00 2021-08-30T18:18:36-11:00  21.31300 -157.88879       0   0.0 Hōkūleʻa
  2021-08-31T05:11:16UTC 2021-08-30T19:11:16-10:00 2021-08-30T18:11:16-11:00  21.31310 -157.88862       0   0.0 Hikianalia
  2021-08-31T04:18:26UTC 2021-08-30T18:18:26-10:00 2021-08-30T17:18:26-11:00  21.31300 -157.88879      90   0.0 Hōkūleʻa
  2021-08-31T04:17:34UTC 2021-08-30T18:17:34-10:00 2021-08-30T17:17:34-11:00  21.31310 -157.88862     180   0.0 Hikianalia
  2021-08-31T03:17:32UTC 2021-08-30T17:17:32-10:00 2021-08-30T16:17:32-11:00  21.31300 -157.88881     119   0.0 Hōkūleʻa
  2021-08-31T03:10:43UTC 2021-08-30T17:10:43-10:00 2021-08-30T16:10:43-11:00  21.31313 -157.88862     316   0.0 Hikianalia
  2021-08-31T02:22:03UTC 2021-08-30T16:22:03-10:00 2021-08-30T15:22:03-11:00  21.31311 -157.88860     136   0.0 Hikianalia
  2021-08-31T02:18:43UTC 2021-08-30T16:18:43-10:00 2021-08-30T15:18:43-11:00  21.31302 -157.88883      90   0.0 Hōkūleʻa
  2021-08-31T01:17:34UTC 2021-08-30T15:17:34-10:00 2021-08-30T14:17:34-11:00  21.31302 -157.88898     278   0.0 Hōkūleʻa
  2021-08-31T01:09:48UTC 2021-08-30T15:09:48-10:00 2021-08-30T14:09:48-11:00  21.31313 -157.88862       0   0.0 Hikianalia
  2021-08-31T00:17:33UTC 2021-08-30T14:17:33-10:00 2021-08-30T13:17:33-11:00  21.31299 -157.88883     180   0.0 Hōkūleʻa
  2021-08-31T00:10:38UTC 2021-08-30T14:10:38-10:00 2021-08-30T13:10:38-11:00  21.31313 -157.88862       0   0.0 Hikianalia
  2021-08-30T23:18:23UTC 2021-08-30T13:18:23-10:00 2021-08-30T12:18:23-11:00  21.31300 -157.88883     180   0.0 Hōkūleʻa
  2021-08-30T23:10:49UTC 2021-08-30T13:10:49-10:00 2021-08-30T12:10:49-11:00  21.31313 -157.88862       0   0.0 Hikianalia
  2021-08-30T22:25:04UTC 2021-08-30T12:25:04-10:00 2021-08-30T11:25:04-11:00  21.31303 -157.88883     118   0.0 Hōkūleʻa
  2021-08-30T22:10:14UTC 2021-08-30T12:10:14-10:00 2021-08-30T11:10:14-11:00  21.31310 -157.88862     180   0.0 Hikianalia
  2021-08-30T21:17:38UTC 2021-08-30T11:17:38-10:00 2021-08-30T10:17:38-11:00  21.31304 -157.88886     298   0.0 Hōkūleʻa
  2021-08-30T21:11:16UTC 2021-08-30T11:11:16-10:00 2021-08-30T10:11:16-11:00  21.31313 -157.88862       0   0.0 Hikianalia
  2021-08-30T20:18:32UTC 2021-08-30T10:18:32-10:00 2021-08-30T09:18:32-11:00  21.31303 -157.88883       0   0.0 Hōkūleʻa
  2021-08-30T20:10:48UTC 2021-08-30T10:10:48-10:00 2021-08-30T09:10:48-11:00  21.31313 -157.88862      32   0.0 Hikianalia
  2021-08-30T19:18:45UTC 2021-08-30T09:18:45-10:00 2021-08-30T08:18:45-11:00  21.31303 -157.88883       0   0.0 Hōkūleʻa
  2021-08-30T19:09:46UTC 2021-08-30T09:09:46-10:00 2021-08-30T08:09:46-11:00  21.31304 -157.88868     223   0.0 Hikianalia
  2021-08-30T18:17:48UTC 2021-08-30T08:17:48-10:00 2021-08-30T07:17:48-11:00  21.31303 -157.88883       0   0.0 Hōkūleʻa
  2021-08-30T18:11:15UTC 2021-08-30T08:11:15-10:00 2021-08-30T07:11:15-11:00  21.31310 -157.88862     105   0.0 Hikianalia
  2021-08-30T17:18:30UTC 2021-08-30T07:18:30-10:00 2021-08-30T06:18:30-11:00  21.31302 -157.88883       0   0.0 Hōkūleʻa
  2021-08-30T17:10:57UTC 2021-08-30T07:10:57-10:00 2021-08-30T06:10:57-11:00  21.31311 -157.88866       0   0.0 Hikianalia
  2021-08-30T16:18:24UTC 2021-08-30T06:18:24-10:00 2021-08-30T05:18:24-11:00  21.31302 -157.88883       0   0.0 Hōkūleʻa
  2021-08-30T16:11:17UTC 2021-08-30T06:11:17-10:00 2021-08-30T05:11:17-11:00  21.31311 -157.88866     335   0.0 Hikianalia
  2021-08-30T15:18:22UTC 2021-08-30T05:18:22-10:00 2021-08-30T04:18:22-11:00  21.31300 -157.88883       0   0.0 Hōkūleʻa
  2021-08-30T15:10:47UTC 2021-08-30T05:10:47-10:00 2021-08-30T04:10:47-11:00  21.31298 -157.88860     163   0.0 Hikianalia
  2021-08-30T14:18:47UTC 2021-08-30T04:18:47-10:00 2021-08-30T03:18:47-11:00  21.31300 -157.88883      90   0.0 Hōkūleʻa
  2021-08-30T14:11:14UTC 2021-08-30T04:11:14-10:00 2021-08-30T03:11:14-11:00  21.31311 -157.88864       0   0.0 Hikianalia
  2021-08-30T13:17:32UTC 2021-08-30T03:17:32-10:00 2021-08-30T02:17:32-11:00  21.31300 -157.88886     223   0.0 Hōkūleʻa
  2021-08-30T13:10:40UTC 2021-08-30T03:10:40-10:00 2021-08-30T02:10:40-11:00  21.31311 -157.88864     234   0.0 Hikianalia
  2021-08-30T12:18:24UTC 2021-08-30T02:18:24-10:00 2021-08-30T01:18:24-11:00  21.31303 -157.88883     299   0.0 Hōkūleʻa
  2021-08-30T12:09:37UTC 2021-08-30T02:09:37-10:00 2021-08-30T01:09:37-11:00  21.31315 -157.88858     180   0.0 Hikianalia
  2021-08-30T11:18:32UTC 2021-08-30T01:18:32-10:00 2021-08-30T00:18:32-11:00  21.31302 -157.88881     119   0.0 Hōkūleʻa
  2021-08-30T11:10:36UTC 2021-08-30T01:10:36-10:00 2021-08-30T00:10:36-11:00  21.31317 -157.88858      37   0.0 Hikianalia
  2021-08-30T10:18:50UTC 2021-08-30T00:18:50-10:00 2021-08-29T23:18:50-11:00  21.31303 -157.88883     180   0.0 Hōkūleʻa
  2021-08-30T10:11:11UTC 2021-08-30T00:11:11-10:00 2021-08-29T23:11:11-11:00  21.31311 -157.88862     180   0.0 Hikianalia
  2021-08-30T09:18:29UTC 2021-08-29T23:18:29-10:00 2021-08-29T22:18:29-11:00  21.31304 -157.88883     317   0.0 Hōkūleʻa
  2021-08-30T09:10:39UTC 2021-08-29T23:10:39-10:00 2021-08-29T22:10:39-11:00  21.31313 -157.88862       0   0.0 Hikianalia
  2021-08-30T08:18:23UTC 2021-08-29T22:18:23-10:00 2021-08-29T21:18:23-11:00  21.31297 -157.88877     154   0.0 Hōkūleʻa
  2021-08-30T08:10:42UTC 2021-08-29T22:10:42-10:00 2021-08-29T21:10:42-11:00  21.31313 -157.88862     296   0.0 Hikianalia
  2021-08-30T07:17:24UTC 2021-08-29T21:17:24-10:00 2021-08-29T20:17:24-11:00  21.31302 -157.88879     119   0.0 Hōkūleʻa
  2021-08-30T07:11:21UTC 2021-08-29T21:11:21-10:00 2021-08-29T20:11:21-11:00  21.31312 -157.88860     172   0.2 Hikianalia
  2021-08-30T06:18:40UTC 2021-08-29T20:18:40-10:00 2021-08-29T19:18:40-11:00  21.31303 -157.88881     137   0.0 Hōkūleʻa
  2021-08-30T06:09:45UTC 2021-08-29T20:09:45-10:00 2021-08-29T19:09:45-11:00  21.31627 -157.88907      55   0.1 Hikianalia
  2021-08-30T05:18:21UTC 2021-08-29T19:18:21-10:00 2021-08-29T18:18:21-11:00  21.31309 -157.88888     313   0.0 Hōkūleʻa
  2021-08-30T05:10:43UTC 2021-08-29T19:10:43-10:00 2021-08-29T18:10:43-11:00  21.31558 -157.89010     331   0.2 Hikianalia
  2021-08-30T04:18:30UTC 2021-08-29T18:18:30-10:00 2021-08-29T17:18:30-11:00  21.31302 -157.88879     119   0.0 Hōkūleʻa
  2021-08-30T04:11:12UTC 2021-08-29T18:11:12-10:00 2021-08-29T17:11:12-11:00  21.31311 -157.88862       0   0.0 Hikianalia
  2021-08-30T03:18:31UTC 2021-08-29T17:18:31-10:00 2021-08-29T16:18:31-11:00  21.31303 -157.88881       0   0.0 Hōkūleʻa
  2021-08-30T03:09:45UTC 2021-08-29T17:09:45-10:00 2021-08-29T16:09:45-11:00  21.31311 -157.88862       0   0.0 Hikianalia
  2021-08-30T02:17:47UTC 2021-08-29T16:17:47-10:00 2021-08-29T15:17:47-11:00  21.31302 -157.88881     119   0.0 Hōkūleʻa
  2021-08-30T02:10:36UTC 2021-08-29T16:10:36-10:00 2021-08-29T15:10:36-11:00  21.31311 -157.88862       0   0.0 Hikianalia
  2021-08-30T01:17:37UTC 2021-08-29T15:17:37-10:00 2021-08-29T14:17:37-11:00  21.31303 -157.88883     105   0.0 Hōkūleʻa
  2021-08-30T01:10:46UTC 2021-08-29T15:10:46-10:00 2021-08-29T14:10:46-11:00  21.31311 -157.88862     270   0.0 Hikianalia
  2021-08-30T00:18:25UTC 2021-08-29T14:18:25-10:00 2021-08-29T13:18:25-11:00  21.31304 -157.88888     285   0.0 Hōkūleʻa
  2021-08-30T00:10:12UTC 2021-08-29T14:10:12-10:00 2021-08-29T13:10:12-11:00  21.31311 -157.88860      90   0.0 Hikianalia
  2021-08-29T23:23:04UTC 2021-08-29T13:23:04-10:00 2021-08-29T12:23:04-11:00  21.31303 -157.88883     270   0.0 Hōkūleʻa
  2021-08-29T23:09:45UTC 2021-08-29T13:09:45-10:00 2021-08-29T12:09:45-11:00  21.31311 -157.88862       0   0.0 Hikianalia
  2021-08-29T22:18:49UTC 2021-08-29T12:18:49-10:00 2021-08-29T11:18:49-11:00  21.31303 -157.88881       0   0.0 Hōkūleʻa
  2021-08-29T22:10:45UTC 2021-08-29T12:10:45-10:00 2021-08-29T11:10:45-11:00  21.31311 -157.88862     118   0.0 Hikianalia
  2021-08-29T21:17:32UTC 2021-08-29T11:17:32-10:00 2021-08-29T10:17:32-11:00  21.31300 -157.88881     138   0.0 Hōkūleʻa
  2021-08-29T21:09:44UTC 2021-08-29T11:09:44-10:00 2021-08-29T10:09:44-11:00  21.31317 -157.88873     298   0.0 Hikianalia
  2021-08-29T20:17:30UTC 2021-08-29T10:17:30-10:00 2021-08-29T09:17:30-11:00  21.31303 -157.88883       0   0.0 Hōkūleʻa
  2021-08-29T20:10:10UTC 2021-08-29T10:10:10-10:00 2021-08-29T09:10:10-11:00  21.31311 -157.88862      84   0.0 Hikianalia
  2021-08-29T19:18:26UTC 2021-08-29T09:18:26-10:00 2021-08-29T08:18:26-11:00  21.31302 -157.88883     270   0.0 Hōkūleʻa
  2021-08-29T19:10:40UTC 2021-08-29T09:10:40-10:00 2021-08-29T08:10:40-11:00  21.31310 -157.88873     242   0.0 Hikianalia
  2021-08-29T18:17:50UTC 2021-08-29T08:17:50-10:00 2021-08-29T07:17:50-11:00  21.31302 -157.88881      90   0.0 Hōkūleʻa
  2021-08-29T18:10:56UTC 2021-08-29T08:10:56-10:00 2021-08-29T07:10:56-11:00  21.31314 -157.88864     270   0.0 Hikianalia
  2021-08-29T17:18:29UTC 2021-08-29T07:18:29-10:00 2021-08-29T06:18:29-11:00  21.31302 -157.88886       0   0.0 Hōkūleʻa
  2021-08-29T17:10:42UTC 2021-08-29T07:10:42-10:00 2021-08-29T06:10:42-11:00  21.31314 -157.88862      20   0.0 Hikianalia
  2021-08-29T16:18:32UTC 2021-08-29T06:18:32-10:00 2021-08-29T05:18:32-11:00  21.31300 -157.88886     242   0.0 Hōkūleʻa
  2021-08-29T16:10:15UTC 2021-08-29T06:10:15-10:00 2021-08-29T05:10:15-11:00  21.31309 -157.88864       0   0.0 Hikianalia
  2021-08-29T15:24:54UTC 2021-08-29T05:24:54-10:00 2021-08-29T04:24:54-11:00  21.31302 -157.88883     299   0.0 Hōkūleʻa
  2021-08-29T15:10:37UTC 2021-08-29T05:10:37-10:00 2021-08-29T04:10:37-11:00  21.31304 -157.88864     205   0.0 Hikianalia
  2021-08-29T14:18:39UTC 2021-08-29T04:18:39-10:00 2021-08-29T03:18:39-11:00  21.31300 -157.88881      90   0.0 Hōkūleʻa
  2021-08-29T14:11:44UTC 2021-08-29T04:11:44-10:00 2021-08-29T03:11:44-11:00  21.31308 -157.88862       0   0.0 Hikianalia
  2021-08-29T13:18:34UTC 2021-08-29T03:18:34-10:00 2021-08-29T02:18:34-11:00  21.31300 -157.88883     180   0.0 Hōkūleʻa
  2021-08-29T13:10:47UTC 2021-08-29T03:10:47-10:00 2021-08-29T02:10:47-11:00  21.31308 -157.88862     180   0.0 Hikianalia
  2021-08-29T12:18:24UTC 2021-08-29T02:18:24-10:00 2021-08-29T01:18:24-11:00  21.31304 -157.88883       0   0.0 Hōkūleʻa
  2021-08-29T12:11:19UTC 2021-08-29T02:11:19-10:00 2021-08-29T01:11:19-11:00  21.31312 -157.88862     100   0.0 Hikianalia
  2021-08-29T11:18:29UTC 2021-08-29T01:18:29-10:00 2021-08-29T00:18:29-11:00  21.31303 -157.88883     180   0.0 Hōkūleʻa
  2021-08-29T11:09:45UTC 2021-08-29T01:09:45-10:00 2021-08-29T00:09:45-11:00  21.31314 -157.88875     285   0.0 Hikianalia
  2021-08-29T10:18:43UTC 2021-08-29T00:18:43-10:00 2021-08-28T23:18:43-11:00  21.31304 -157.88883     310   0.0 Hōkūleʻa
  2021-08-29T10:10:38UTC 2021-08-29T00:10:38-10:00 2021-08-28T23:10:38-11:00  21.31311 -157.88862     180   0.0 Hikianalia
  2021-08-29T09:18:31UTC 2021-08-28T23:18:31-10:00 2021-08-28T22:18:31-11:00  21.31300 -157.88879      90   0.0 Hōkūleʻa
  2021-08-29T09:10:43UTC 2021-08-28T23:10:43-10:00 2021-08-28T22:10:43-11:00  21.31313 -157.88862       0   0.0 Hikianalia
  2021-08-29T08:18:33UTC 2021-08-28T22:18:33-10:00 2021-08-28T21:18:33-11:00  21.31300 -157.88881     180   0.0 Hōkūleʻa
  2021-08-29T08:11:06UTC 2021-08-28T22:11:06-10:00 2021-08-28T21:11:06-11:00  21.31311 -157.88862     180   0.0 Hikianalia
  2021-08-29T07:18:34UTC 2021-08-28T21:18:34-10:00 2021-08-28T20:18:34-11:00  21.31303 -157.88881     270   0.0 Hōkūleʻa
  2021-08-29T07:10:46UTC 2021-08-28T21:10:46-10:00 2021-08-28T20:10:46-11:00  21.31313 -157.88862     351   0.0 Hikianalia
  2021-08-29T06:17:49UTC 2021-08-28T20:17:49-10:00 2021-08-28T19:17:49-11:00  21.31303 -157.88879      20   2.5 Hōkūleʻa
  2021-08-29T06:10:47UTC 2021-08-28T20:10:47-10:00 2021-08-28T19:10:47-11:00  21.31300 -157.88860     191   0.0 Hikianalia
  2021-08-29T05:18:29UTC 2021-08-28T19:18:29-10:00 2021-08-28T18:18:29-11:00  21.27344 -157.90381     329   6.7 Hōkūleʻa
  2021-08-29T05:11:16UTC 2021-08-28T19:11:16-10:00 2021-08-28T18:11:16-11:00  21.31310 -157.88858     191   0.0 Hikianalia
  2021-08-29T04:18:40UTC 2021-08-28T18:18:40-10:00 2021-08-28T17:18:40-11:00  21.17874 -157.84214     171   5.2 Hōkūleʻa
  2021-08-29T04:10:40UTC 2021-08-28T18:10:40-10:00 2021-08-28T17:10:40-11:00  21.31320 -157.88856      36   0.0 Hikianalia
  2021-08-29T03:18:39UTC 2021-08-28T17:18:39-10:00 2021-08-28T16:18:39-11:00  21.26465 -157.85744     149   3.3 Hōkūleʻa
  2021-08-29T03:09:49UTC 2021-08-28T17:09:49-10:00 2021-08-28T16:09:49-11:00  21.31306 -157.88866     235   0.0 Hikianalia
  2021-08-29T02:17:38UTC 2021-08-28T16:17:38-10:00 2021-08-28T15:17:38-11:00  21.31300 -157.88877     137   0.0 Hōkūleʻa
  2021-08-29T02:10:09UTC 2021-08-28T16:10:09-10:00 2021-08-28T15:10:09-11:00  21.31310 -157.88860     298   0.0 Hikianalia
  2021-08-29T01:18:32UTC 2021-08-28T15:18:32-10:00 2021-08-28T14:18:32-11:00  21.31305 -157.88881     119   0.0 Hōkūleʻa
  2021-08-29T01:10:38UTC 2021-08-28T15:10:38-10:00 2021-08-28T14:10:38-11:00  21.31305 -157.88849     167   0.0 Hikianalia
  2021-08-29T00:17:32UTC 2021-08-28T14:17:32-10:00 2021-08-28T13:17:32-11:00  21.31306 -157.88883     286   0.0 Hōkūleʻa
  2021-08-29T00:10:46UTC 2021-08-28T14:10:46-10:00 2021-08-28T13:10:46-11:00  21.31313 -157.88851     102   0.0 Hikianalia
  2021-08-28T23:18:31UTC 2021-08-28T13:18:31-10:00 2021-08-28T12:18:31-11:00  21.31305 -157.88879      32   0.0 Hōkūleʻa
  2021-08-28T23:10:16UTC 2021-08-28T13:10:16-10:00 2021-08-28T12:10:16-11:00  21.31315 -157.88862     180   0.0 Hikianalia
  2021-08-28T22:17:48UTC 2021-08-28T12:17:48-10:00 2021-08-28T11:17:48-11:00  21.31302 -157.88881     148   0.0 Hōkūleʻa
  2021-08-28T22:10:49UTC 2021-08-28T12:10:49-10:00 2021-08-28T11:10:49-11:00  21.31320 -157.88862       0   0.0 Hikianalia
  2021-08-28T21:17:29UTC 2021-08-28T11:17:29-10:00 2021-08-28T10:17:29-11:00  21.31308 -157.88886      61   0.0 Hōkūleʻa
  2021-08-28T21:09:45UTC 2021-08-28T11:09:45-10:00 2021-08-28T10:09:45-11:00  21.31313 -157.88862     180   0.0 Hikianalia
  2021-08-28T20:17:22UTC 2021-08-28T10:17:22-10:00 2021-08-28T09:17:22-11:00  21.31307 -157.88888     285   0.0 Hōkūleʻa
  2021-08-28T20:10:17UTC 2021-08-28T10:10:17-10:00 2021-08-28T09:10:17-11:00  21.31314 -157.88862       0   0.0 Hikianalia
  2021-08-28T19:18:24UTC 2021-08-28T09:18:24-10:00 2021-08-28T08:18:24-11:00  21.31306 -157.88883       0   0.0 Hōkūleʻa
  2021-08-28T19:10:39UTC 2021-08-28T09:10:39-10:00 2021-08-28T08:10:39-11:00  21.31311 -157.88862     285   0.0 Hikianalia
  2021-08-28T18:18:57UTC 2021-08-28T08:18:57-10:00 2021-08-28T07:18:57-11:00  21.31303 -157.88883      90   0.0 Hōkūleʻa
  2021-08-28T18:10:46UTC 2021-08-28T08:10:46-10:00 2021-08-28T07:10:46-11:00  21.31310 -157.88858     100   0.0 Hikianalia
  2021-08-28T17:17:35UTC 2021-08-28T07:17:35-10:00 2021-08-28T06:17:35-11:00  21.31303 -157.88886     251   0.0 Hōkūleʻa
  2021-08-28T17:10:45UTC 2021-08-28T07:10:45-10:00 2021-08-28T06:10:45-11:00  21.31311 -157.88864       0   0.0 Hikianalia
  2021-08-28T16:18:23UTC 2021-08-28T06:18:23-10:00 2021-08-28T05:18:23-11:00  21.31305 -157.88879      51   0.0 Hōkūleʻa
  2021-08-28T16:11:15UTC 2021-08-28T06:11:15-10:00 2021-08-28T05:11:15-11:00  21.31311 -157.88864     270   0.0 Hikianalia
  2021-08-28T15:18:24UTC 2021-08-28T05:18:24-10:00 2021-08-28T04:18:24-11:00  21.31302 -157.88883     270   0.0 Hōkūleʻa
  2021-08-28T15:10:38UTC 2021-08-28T05:10:38-10:00 2021-08-28T04:10:38-11:00  21.31311 -157.88856       0   0.0 Hikianalia
  2021-08-28T14:18:45UTC 2021-08-28T04:18:45-10:00 2021-08-28T03:18:45-11:00  21.31302 -157.88881     241   0.0 Hōkūleʻa
  2021-08-28T14:10:52UTC 2021-08-28T04:10:52-10:00 2021-08-28T03:10:52-11:00  21.31310 -157.88856      86   0.0 Hikianalia
  2021-08-28T13:17:26UTC 2021-08-28T03:17:26-10:00 2021-08-28T02:17:26-11:00  21.31303 -157.88879      90   0.0 Hōkūleʻa
  2021-08-28T13:09:37UTC 2021-08-28T03:09:37-10:00 2021-08-28T02:09:37-11:00  21.31309 -157.88873     252   0.0 Hikianalia
  2021-08-28T12:18:24UTC 2021-08-28T02:18:24-10:00 2021-08-28T01:18:24-11:00  21.31303 -157.88881       0   0.0 Hōkūleʻa
  2021-08-28T12:11:06UTC 2021-08-28T02:11:06-10:00 2021-08-28T01:11:06-11:00  21.31312 -157.88862      97   0.0 Hikianalia
  2021-08-28T11:18:32UTC 2021-08-28T01:18:32-10:00 2021-08-28T00:18:32-11:00  21.31303 -157.88881      61   0.0 Hōkūleʻa
  2021-08-28T11:10:40UTC 2021-08-28T01:10:40-10:00 2021-08-28T00:10:40-11:00  21.31313 -157.88871     260   0.0 Hikianalia
  2021-08-28T10:18:44UTC 2021-08-28T00:18:44-10:00 2021-08-27T23:18:44-11:00  21.31302 -157.88883     147   0.0 Hōkūleʻa
  2021-08-28T10:10:41UTC 2021-08-28T00:10:41-10:00 2021-08-27T23:10:41-11:00  21.31314 -157.88864     343   0.0 Hikianalia
  2021-08-28T09:18:33UTC 2021-08-27T23:18:33-10:00 2021-08-27T22:18:33-11:00  21.31305 -157.88886     298   0.0 Hōkūleʻa
  2021-08-28T09:11:46UTC 2021-08-27T23:11:46-10:00 2021-08-27T22:11:46-11:00  21.31308 -157.88862     180   0.0 Hikianalia
  2021-08-28T08:18:30UTC 2021-08-27T22:18:30-10:00 2021-08-27T21:18:30-11:00  21.31303 -157.88881       0   0.0 Hōkūleʻa
  2021-08-28T08:10:24UTC 2021-08-27T22:10:24-10:00 2021-08-27T21:10:24-11:00  21.31313 -157.88862     234   0.0 Hikianalia
  2021-08-28T07:18:23UTC 2021-08-27T21:18:23-10:00 2021-08-27T20:18:23-11:00  21.31303 -157.88881       0   0.0 Hōkūleʻa
  2021-08-28T07:11:39UTC 2021-08-27T21:11:39-10:00 2021-08-27T20:11:39-11:00  21.31318 -157.88856     351   0.0 Hikianalia
  2021-08-28T06:18:39UTC 2021-08-27T20:18:39-10:00 2021-08-27T19:18:39-11:00  21.31302 -157.88881     155   0.0 Hōkūleʻa
  2021-08-28T06:10:46UTC 2021-08-27T20:10:46-10:00 2021-08-27T19:10:46-11:00  21.31305 -157.88853     139   0.0 Hikianalia
  2021-08-28T05:21:28UTC 2021-08-27T19:21:28-10:00 2021-08-27T18:21:28-11:00  21.31319 -157.88866     328   0.0 Hikianalia
  2021-08-28T05:17:38UTC 2021-08-27T19:17:38-10:00 2021-08-27T18:17:38-11:00  21.31306 -157.88883       0   0.0 Hōkūleʻa
  2021-08-28T04:18:24UTC 2021-08-27T18:18:24-10:00 2021-08-27T17:18:24-11:00  21.31303 -157.88883     242   0.0 Hōkūleʻa
  2021-08-28T04:11:08UTC 2021-08-27T18:11:08-10:00 2021-08-27T17:11:08-11:00  21.31312 -157.88862       0   0.0 Hikianalia
  2021-08-28T03:18:28UTC 2021-08-27T17:18:28-10:00 2021-08-27T16:18:28-11:00  21.31305 -157.88879      62   0.0 Hōkūleʻa
  2021-08-28T03:10:46UTC 2021-08-27T17:10:46-10:00 2021-08-27T16:10:46-11:00  21.31311 -157.88862     341   0.0 Hikianalia
  2021-08-28T02:17:46UTC 2021-08-27T16:17:46-10:00 2021-08-27T15:17:46-11:00  21.31303 -157.88883     105   0.0 Hōkūleʻa
  2021-08-28T02:10:45UTC 2021-08-27T16:10:45-10:00 2021-08-27T15:10:45-11:00  21.31294 -157.88856     180   0.0 Hikianalia
  2021-08-28T01:18:32UTC 2021-08-27T15:18:32-10:00 2021-08-27T14:18:32-11:00  21.31304 -157.88888       0   0.0 Hōkūleʻa
  2021-08-28T01:09:49UTC 2021-08-27T15:09:49-10:00 2021-08-27T14:09:49-11:00  21.31312 -157.88856     102   0.0 Hikianalia
  2021-08-28T00:17:34UTC 2021-08-27T14:17:34-10:00 2021-08-27T13:17:34-11:00  21.31302 -157.88888     285   0.0 Hōkūleʻa
  2021-08-28T00:10:10UTC 2021-08-27T14:10:10-10:00 2021-08-27T13:10:10-11:00  21.31314 -157.88866       0   0.0 Hikianalia
  2021-08-27T23:17:23UTC 2021-08-27T13:17:23-10:00 2021-08-27T12:17:23-11:00  21.31300 -157.88883     180   0.0 Hōkūleʻa
  2021-08-27T23:10:44UTC 2021-08-27T13:10:44-10:00 2021-08-27T12:10:44-11:00  21.31313 -157.88866     270   0.0 Hikianalia
  2021-08-27T22:17:38UTC 2021-08-27T12:17:38-10:00 2021-08-27T11:17:38-11:00  21.31302 -157.88883      90   0.0 Hōkūleʻa
  2021-08-27T22:10:14UTC 2021-08-27T12:10:14-10:00 2021-08-27T11:10:14-11:00  21.31313 -157.88862       0   0.0 Hikianalia
  2021-08-27T21:18:51UTC 2021-08-27T11:18:51-10:00 2021-08-27T10:18:51-11:00  21.31311 -157.88862     242   0.0 Hikianalia
  2021-08-27T21:18:38UTC 2021-08-27T11:18:38-10:00 2021-08-27T10:18:38-11:00  21.31302 -157.88886     242   0.0 Hōkūleʻa
  2021-08-27T20:17:30UTC 2021-08-27T10:17:30-10:00 2021-08-27T09:17:30-11:00  21.31303 -157.88883     270   0.0 Hōkūleʻa
  2021-08-27T20:10:18UTC 2021-08-27T10:10:18-10:00 2021-08-27T09:10:18-11:00  21.31312 -157.88860     116   0.0 Hikianalia
  2021-08-27T19:18:30UTC 2021-08-27T09:18:30-10:00 2021-08-27T08:18:30-11:00  21.31303 -157.88881     119   0.0 Hōkūleʻa
  2021-08-27T19:17:18UTC 2021-08-27T09:17:18-10:00 2021-08-27T08:17:18-11:00  21.31313 -157.88862       0   0.0 Hikianalia
  2021-08-27T18:17:39UTC 2021-08-27T08:17:39-10:00 2021-08-27T07:17:39-11:00  21.31304 -157.88883     180   0.0 Hōkūleʻa
  2021-08-27T18:11:18UTC 2021-08-27T08:11:18-10:00 2021-08-27T07:11:18-11:00  21.31313 -157.88862       0   0.0 Hikianalia
  2021-08-27T17:18:27UTC 2021-08-27T07:18:27-10:00 2021-08-27T06:18:27-11:00  21.31305 -157.88883       0   0.0 Hōkūleʻa
  2021-08-27T17:11:02UTC 2021-08-27T07:11:02-10:00 2021-08-27T06:11:02-11:00  21.31311 -157.88862     137   0.0 Hikianalia
  2021-08-27T16:18:25UTC 2021-08-27T06:18:25-10:00 2021-08-27T05:18:25-11:00  21.31304 -157.88883       0   0.0 Hōkūleʻa
  2021-08-27T16:11:16UTC 2021-08-27T06:11:16-10:00 2021-08-27T05:11:16-11:00  21.31313 -157.88864     347   0.0 Hikianalia
  2021-08-27T15:18:32UTC 2021-08-27T05:18:32-10:00 2021-08-27T04:18:32-11:00  21.31304 -157.88883     180   0.0 Hōkūleʻa
  2021-08-27T15:10:46UTC 2021-08-27T05:10:46-10:00 2021-08-27T04:10:46-11:00  21.31305 -157.88862     163   0.0 Hikianalia
  2021-08-27T14:18:47UTC 2021-08-27T04:18:47-10:00 2021-08-27T03:18:47-11:00  21.31305 -157.88883     318   0.0 Hōkūleʻa
  2021-08-27T14:10:14UTC 2021-08-27T04:10:14-10:00 2021-08-27T03:10:14-11:00  21.31311 -157.88864     241   0.0 Hikianalia
  2021-08-27T13:18:42UTC 2021-08-27T03:18:42-10:00 2021-08-27T02:18:42-11:00  21.31300 -157.88879     138   0.0 Hōkūleʻa
  2021-08-27T13:10:50UTC 2021-08-27T03:10:50-10:00 2021-08-27T02:10:50-11:00  21.31312 -157.88862      61   0.0 Hikianalia
  2021-08-27T12:18:32UTC 2021-08-27T02:18:32-10:00 2021-08-27T01:18:32-11:00  21.31305 -157.88883       0   0.0 Hōkūleʻa
  2021-08-27T12:10:55UTC 2021-08-27T02:10:55-10:00 2021-08-27T01:10:55-11:00  21.31311 -157.88864     241   0.0 Hikianalia
  2021-08-27T11:18:28UTC 2021-08-27T01:18:28-10:00 2021-08-27T00:18:28-11:00  21.31305 -157.88883       0   0.0 Hōkūleʻa
  2021-08-27T11:11:18UTC 2021-08-27T01:11:18-10:00 2021-08-27T00:11:18-11:00  21.31312 -157.88862     134   0.1 Hikianalia
  2021-08-27T10:18:49UTC 2021-08-27T00:18:49-10:00 2021-08-26T23:18:49-11:00  21.31305 -157.88883       0   0.0 Hōkūleʻa
  2021-08-27T10:10:49UTC 2021-08-27T00:10:49-10:00 2021-08-26T23:10:49-11:00  21.31461 -157.89029     250   0.0 Hikianalia
  2021-08-27T09:32:19UTC 2021-08-26T23:32:19-10:00 2021-08-26T22:32:19-11:00  21.31479 -157.88978     327   0.1 Hikianalia
  2021-08-27T09:18:30UTC 2021-08-26T23:18:30-10:00 2021-08-26T22:18:30-11:00  21.31304 -157.88883       0   0.0 Hōkūleʻa
  2021-08-27T08:18:23UTC 2021-08-26T22:18:23-10:00 2021-08-26T21:18:23-11:00  21.31304 -157.88883     270   0.0 Hōkūleʻa
  2021-08-27T08:11:09UTC 2021-08-26T22:11:09-10:00 2021-08-26T21:11:09-11:00  21.31313 -157.88864       0   0.0 Hikianalia
  2021-08-27T07:18:32UTC 2021-08-26T21:18:32-10:00 2021-08-26T20:18:32-11:00  21.31304 -157.88881     180   0.0 Hōkūleʻa
  2021-08-27T07:10:47UTC 2021-08-26T21:10:47-10:00 2021-08-26T20:10:47-11:00  21.31312 -157.88864       0   0.0 Hikianalia
  2021-08-27T06:18:45UTC 2021-08-26T20:18:45-10:00 2021-08-26T19:18:45-11:00  21.31305 -157.88881     138   0.0 Hōkūleʻa
  2021-08-27T06:10:47UTC 2021-08-26T20:10:47-10:00 2021-08-26T19:10:47-11:00  21.31312 -157.88864       0   0.0 Hikianalia
  2021-08-27T05:18:35UTC 2021-08-26T19:18:35-10:00 2021-08-26T18:18:35-11:00  21.31307 -157.88883     318   0.0 Hōkūleʻa
  2021-08-27T05:10:35UTC 2021-08-26T19:10:35-10:00 2021-08-26T18:10:35-11:00  21.31312 -157.88864     243   0.0 Hikianalia
  2021-08-27T04:18:33UTC 2021-08-26T18:18:33-10:00 2021-08-26T17:18:33-11:00  21.31305 -157.88881     241   0.0 Hōkūleʻa
  2021-08-27T04:11:17UTC 2021-08-26T18:11:17-10:00 2021-08-26T17:11:17-11:00  21.31313 -157.88862     296   0.0 Hikianalia
  2021-08-27T03:18:29UTC 2021-08-26T17:18:29-10:00 2021-08-26T16:18:29-11:00  21.31306 -157.88879      43   0.0 Hōkūleʻa
  2021-08-27T03:09:54UTC 2021-08-26T17:09:54-10:00 2021-08-26T16:09:54-11:00  21.31312 -157.88860      90   0.0 Hikianalia
  2021-08-27T02:17:48UTC 2021-08-26T16:17:48-10:00 2021-08-26T15:17:48-11:00  21.31304 -157.88881      90   0.0 Hōkūleʻa
  2021-08-27T02:10:42UTC 2021-08-26T16:10:42-10:00 2021-08-26T15:10:42-11:00  21.31312 -157.88864       0   0.0 Hikianalia
  2021-08-27T01:18:38UTC 2021-08-26T15:18:38-10:00 2021-08-26T14:18:38-11:00  21.31304 -157.88888     116   0.0 Hōkūleʻa
  2021-08-27T01:10:47UTC 2021-08-26T15:10:47-10:00 2021-08-26T14:10:47-11:00  21.31312 -157.88864     212   0.0 Hikianalia
  2021-08-27T00:17:32UTC 2021-08-26T14:17:32-10:00 2021-08-26T13:17:32-11:00  21.31305 -157.88890     270   0.0 Hōkūleʻa
  2021-08-27T00:10:09UTC 2021-08-26T14:10:09-10:00 2021-08-26T13:10:09-11:00  21.31315 -157.88862      32   0.0 Hikianalia
  2021-08-26T23:18:28UTC 2021-08-26T13:18:28-10:00 2021-08-26T12:18:28-11:00  21.31305 -157.88883     270   0.0 Hōkūleʻa
  2021-08-26T23:09:49UTC 2021-08-26T13:09:49-10:00 2021-08-26T12:09:49-11:00  21.31312 -157.88864       0   0.0 Hikianalia
  2021-08-26T22:17:49UTC 2021-08-26T12:17:49-10:00 2021-08-26T11:17:49-11:00  21.31305 -157.88881     123   0.0 Hōkūleʻa
  2021-08-26T22:10:46UTC 2021-08-26T12:10:46-10:00 2021-08-26T11:10:46-11:00  21.31312 -157.88864     159   0.0 Hikianalia
  2021-08-26T21:18:39UTC 2021-08-26T11:18:39-10:00 2021-08-26T10:18:39-11:00  21.31318 -157.88866     317   0.0 Hikianalia
  2021-08-26T21:17:39UTC 2021-08-26T11:17:39-10:00 2021-08-26T10:17:39-11:00  21.31311 -157.88892     304   0.0 Hōkūleʻa
  2021-08-26T20:27:52UTC 2021-08-26T10:27:52-10:00 2021-08-26T09:27:52-11:00  21.31306 -157.88883       0   0.0 Hōkūleʻa
  2021-08-26T20:10:11UTC 2021-08-26T10:10:11-10:00 2021-08-26T09:10:11-11:00  21.31313 -157.88862      90   0.0 Hikianalia
  2021-08-26T19:18:24UTC 2021-08-26T09:18:24-10:00 2021-08-26T08:18:24-11:00  21.31306 -157.88883       0   0.0 Hōkūleʻa
  2021-08-26T19:10:49UTC 2021-08-26T09:10:49-10:00 2021-08-26T08:10:49-11:00  21.31313 -157.88864     222   0.0 Hikianalia
  2021-08-26T18:17:40UTC 2021-08-26T08:17:40-10:00 2021-08-26T07:17:40-11:00  21.31305 -157.88883       0   0.0 Hōkūleʻa
  2021-08-26T18:10:47UTC 2021-08-26T08:10:47-10:00 2021-08-26T07:10:47-11:00  21.31315 -157.88862       0   0.0 Hikianalia
  2021-08-26T17:18:30UTC 2021-08-26T07:18:30-10:00 2021-08-26T06:18:30-11:00  21.31305 -157.88883       0   0.0 Hōkūleʻa
  2021-08-26T17:10:40UTC 2021-08-26T07:10:40-10:00 2021-08-26T06:10:40-11:00  21.31315 -157.88862      32   0.0 Hikianalia
  2021-08-26T16:25:39UTC 2021-08-26T06:25:39-10:00 2021-08-26T05:25:39-11:00  21.31304 -157.88883       0   0.0 Hōkūleʻa
  2021-08-26T16:10:17UTC 2021-08-26T06:10:17-10:00 2021-08-26T05:10:17-11:00  21.31312 -157.88864     280   0.0 Hikianalia
  2021-08-26T15:18:30UTC 2021-08-26T05:18:30-10:00 2021-08-26T04:18:30-11:00  21.31303 -157.88883     180   0.0 Hōkūleʻa
  2021-08-26T15:10:39UTC 2021-08-26T05:10:39-10:00 2021-08-26T04:10:39-11:00  21.31310 -157.88851     118   0.0 Hikianalia
  2021-08-26T14:18:46UTC 2021-08-26T04:18:46-10:00 2021-08-26T03:18:46-11:00  21.31304 -157.88883     299   0.0 Hōkūleʻa
  2021-08-26T14:10:39UTC 2021-08-26T04:10:39-10:00 2021-08-26T03:10:39-11:00  21.31313 -157.88858      52   0.0 Hikianalia
  2021-08-26T13:18:32UTC 2021-08-26T03:18:32-10:00 2021-08-26T02:18:32-11:00  21.31303 -157.88881     137   0.0 Hōkūleʻa
  2021-08-26T13:10:39UTC 2021-08-26T03:10:39-10:00 2021-08-26T02:10:39-11:00  21.31310 -157.88862     138   0.0 Hikianalia
  2021-08-26T12:18:24UTC 2021-08-26T02:18:24-10:00 2021-08-26T01:18:24-11:00  21.31305 -157.88883     270   0.0 Hōkūleʻa
  2021-08-26T12:11:17UTC 2021-08-26T02:11:17-10:00 2021-08-26T01:11:17-11:00  21.31312 -157.88864     116   0.0 Hikianalia
  2021-08-26T11:18:27UTC 2021-08-26T01:18:27-10:00 2021-08-26T00:18:27-11:00  21.31305 -157.88881      90   0.0 Hōkūleʻa
  2021-08-26T11:11:25UTC 2021-08-26T01:11:25-10:00 2021-08-26T00:11:25-11:00  21.31313 -157.88866     302   0.0 Hikianalia
  2021-08-26T10:18:44UTC 2021-08-26T00:18:44-10:00 2021-08-25T23:18:44-11:00  21.31305 -157.88883     180   0.0 Hōkūleʻa
  2021-08-26T10:10:39UTC 2021-08-26T00:10:39-10:00 2021-08-25T23:10:39-11:00  21.31306 -157.88853     127   0.0 Hikianalia
  2021-08-26T09:18:38UTC 2021-08-25T23:18:38-10:00 2021-08-25T22:18:38-11:00  21.31306 -157.88883       0   0.0 Hōkūleʻa
  2021-08-26T09:11:17UTC 2021-08-25T23:11:17-10:00 2021-08-25T22:11:17-11:00  21.31313 -157.88864     297   0.0 Hikianalia
  2021-08-26T08:18:24UTC 2021-08-25T22:18:24-10:00 2021-08-25T21:18:24-11:00  21.31306 -157.88883     299   0.0 Hōkūleʻa
  2021-08-26T08:11:18UTC 2021-08-25T22:11:18-10:00 2021-08-25T21:11:18-11:00  21.31312 -157.88862      90   0.0 Hikianalia
  2021-08-26T07:18:32UTC 2021-08-25T21:18:32-10:00 2021-08-25T20:18:32-11:00  21.31305 -157.88881       0   0.0 Hōkūleʻa
  2021-08-26T07:10:40UTC 2021-08-25T21:10:40-10:00 2021-08-25T20:10:40-11:00  21.31312 -157.88864       0   0.0 Hikianalia
  2021-08-26T06:18:49UTC 2021-08-25T20:18:49-10:00 2021-08-25T19:18:49-11:00  21.31304 -157.88881     180   0.0 Hōkūleʻa
  2021-08-26T06:10:43UTC 2021-08-25T20:10:43-10:00 2021-08-25T19:10:43-11:00  21.31312 -157.88864     243   0.0 Hikianalia
  2021-08-26T05:18:29UTC 2021-08-25T19:18:29-10:00 2021-08-25T18:18:29-11:00  21.31305 -157.88881     119   0.0 Hōkūleʻa
  2021-08-26T05:11:09UTC 2021-08-25T19:11:09-10:00 2021-08-25T18:11:09-11:00  21.31313 -157.88862      78   0.0 Hikianalia
  2021-08-26T04:17:33UTC 2021-08-25T18:17:33-10:00 2021-08-25T17:17:33-11:00  21.31306 -157.88883       0   0.0 Hōkūleʻa
  2021-08-26T04:16:45UTC 2021-08-25T18:16:45-10:00 2021-08-25T17:16:45-11:00  21.31311 -157.88873     244   0.0 Hikianalia
  2021-08-26T03:36:29UTC 2021-08-25T17:36:29-10:00 2021-08-25T16:36:29-11:00  21.31305 -157.88883     270   0.0 Hōkūleʻa
  2021-08-26T03:10:40UTC 2021-08-25T17:10:40-10:00 2021-08-25T16:10:40-11:00  21.31321 -157.88851      47   0.0 Hikianalia
  2021-08-26T02:17:39UTC 2021-08-25T16:17:39-10:00 2021-08-25T15:17:39-11:00  21.31305 -157.88879     119   0.0 Hōkūleʻa
  2021-08-26T02:10:16UTC 2021-08-25T16:10:16-10:00 2021-08-25T15:10:16-11:00  21.31313 -157.88860      85   0.0 Hikianalia
  2021-08-26T01:17:27UTC 2021-08-25T15:17:27-10:00 2021-08-25T14:17:27-11:00  21.31307 -157.88883       0   0.0 Hōkūleʻa
  2021-08-26T01:10:39UTC 2021-08-25T15:10:39-10:00 2021-08-25T14:10:39-11:00  21.31312 -157.88873     260   0.0 Hikianalia
  2021-08-26T00:18:30UTC 2021-08-25T14:18:30-10:00 2021-08-25T13:18:30-11:00  21.31306 -157.88883     286   0.0 Hōkūleʻa
  2021-08-26T00:10:48UTC 2021-08-25T14:10:48-10:00 2021-08-25T13:10:48-11:00  21.31314 -157.88860      80   0.0 Hikianalia
  2021-08-25T23:17:30UTC 2021-08-25T13:17:30-10:00 2021-08-25T12:17:30-11:00  21.31305 -157.88879     119   0.0 Hōkūleʻa
  2021-08-25T23:10:18UTC 2021-08-25T13:10:18-10:00 2021-08-25T12:10:18-11:00  21.31312 -157.88873     163   0.0 Hikianalia
  2021-08-25T22:18:10UTC 2021-08-25T12:18:10-10:00 2021-08-25T11:18:10-11:00  21.31306 -157.88881     118   0.0 Hōkūleʻa
  2021-08-25T22:09:38UTC 2021-08-25T12:09:38-10:00 2021-08-25T11:09:38-11:00  21.31325 -157.88877     310   0.0 Hikianalia
  2021-08-25T21:17:39UTC 2021-08-25T11:17:39-10:00 2021-08-25T10:17:39-11:00  21.31309 -157.88888       0   0.0 Hōkūleʻa
  2021-08-25T21:10:46UTC 2021-08-25T11:10:46-10:00 2021-08-25T10:10:46-11:00  21.31313 -157.88862       0   0.0 Hikianalia
  2021-08-25T20:18:23UTC 2021-08-25T10:18:23-10:00 2021-08-25T09:18:23-11:00  21.31306 -157.88888     280   0.0 Hōkūleʻa
  2021-08-25T20:10:43UTC 2021-08-25T10:10:43-10:00 2021-08-25T09:10:43-11:00  21.31312 -157.88862     307   0.0 Hikianalia
  2021-08-25T19:17:26UTC 2021-08-25T09:17:26-10:00 2021-08-25T08:17:26-11:00  21.31305 -157.88881       0   0.0 Hōkūleʻa
  2021-08-25T19:09:40UTC 2021-08-25T09:09:40-10:00 2021-08-25T08:09:40-11:00  21.31305 -157.88851     137   0.0 Hikianalia
  2021-08-25T18:18:49UTC 2021-08-25T08:18:49-10:00 2021-08-25T07:18:49-11:00  21.31305 -157.88881      90   0.0 Hōkūleʻa
  2021-08-25T18:10:44UTC 2021-08-25T08:10:44-10:00 2021-08-25T07:10:44-11:00  21.31313 -157.88860      64   0.0 Hikianalia
  2021-08-25T17:18:37UTC 2021-08-25T07:18:37-10:00 2021-08-25T06:18:37-11:00  21.31305 -157.88883     180   0.0 Hōkūleʻa
  2021-08-25T17:11:08UTC 2021-08-25T07:11:08-10:00 2021-08-25T06:11:08-11:00  21.31312 -157.88862       0   0.0 Hikianalia
  2021-08-25T16:18:32UTC 2021-08-25T06:18:32-10:00 2021-08-25T05:18:32-11:00  21.31306 -157.88883       0   0.0 Hōkūleʻa
  2021-08-25T16:11:15UTC 2021-08-25T06:11:15-10:00 2021-08-25T05:11:15-11:00  21.31312 -157.88862     180   0.0 Hikianalia
  2021-08-25T15:18:33UTC 2021-08-25T05:18:33-10:00 2021-08-25T04:18:33-11:00  21.31304 -157.88883       0   0.0 Hōkūleʻa
  2021-08-25T15:10:38UTC 2021-08-25T05:10:38-10:00 2021-08-25T04:10:38-11:00  21.31313 -157.88862      76   0.0 Hikianalia
  2021-08-25T14:18:39UTC 2021-08-25T04:18:39-10:00 2021-08-25T03:18:39-11:00  21.31304 -157.88883     270   0.0 Hōkūleʻa
  2021-08-25T14:10:46UTC 2021-08-25T04:10:46-10:00 2021-08-25T03:10:46-11:00  21.31312 -157.88866     256   0.0 Hikianalia
  2021-08-25T13:18:33UTC 2021-08-25T03:18:33-10:00 2021-08-25T02:18:33-11:00  21.31304 -157.88881       0   0.0 Hōkūleʻa
  2021-08-25T13:09:46UTC 2021-08-25T03:09:46-10:00 2021-08-25T02:09:46-11:00  21.31313 -157.88862       0   0.0 Hikianalia
  2021-08-25T12:27:11UTC 2021-08-25T02:27:11-10:00 2021-08-25T01:27:11-11:00  21.31304 -157.88881     180   0.0 Hōkūleʻa
  2021-08-25T12:11:09UTC 2021-08-25T02:11:09-10:00 2021-08-25T01:11:09-11:00  21.31311 -157.88862     217   0.0 Hikianalia
  2021-08-25T11:18:49UTC 2021-08-25T01:18:49-10:00 2021-08-25T00:18:49-11:00  21.31317 -157.88858      62   0.0 Hikianalia
  2021-08-25T11:18:31UTC 2021-08-25T01:18:31-10:00 2021-08-25T00:18:31-11:00  21.31306 -157.88881      90   0.0 Hōkūleʻa
  2021-08-25T10:18:43UTC 2021-08-25T00:18:43-10:00 2021-08-24T23:18:43-11:00  21.31306 -157.88883     137   0.0 Hōkūleʻa
  2021-08-25T10:10:49UTC 2021-08-25T00:10:49-10:00 2021-08-24T23:10:49-11:00  21.31313 -157.88864       0   0.0 Hikianalia
  2021-08-25T09:18:29UTC 2021-08-24T23:18:29-10:00 2021-08-24T22:18:29-11:00  21.31308 -157.88886     328   0.0 Hōkūleʻa
  2021-08-25T09:10:54UTC 2021-08-24T23:10:54-10:00 2021-08-24T22:10:54-11:00  21.31312 -157.88864     180   0.0 Hikianalia
  2021-08-25T08:18:32UTC 2021-08-24T22:18:32-10:00 2021-08-24T21:18:32-11:00  21.31305 -157.88883     297   0.0 Hōkūleʻa
  2021-08-25T08:11:18UTC 2021-08-24T22:11:18-10:00 2021-08-24T21:11:18-11:00  21.31313 -157.88864       0   0.0 Hikianalia
  2021-08-25T07:18:24UTC 2021-08-24T21:18:24-10:00 2021-08-24T20:18:24-11:00  21.31304 -157.88881     180   0.0 Hōkūleʻa
  2021-08-25T07:10:48UTC 2021-08-24T21:10:48-10:00 2021-08-24T20:10:48-11:00  21.31312 -157.88864       0   0.0 Hikianalia
  2021-08-25T06:18:47UTC 2021-08-24T20:18:47-10:00 2021-08-24T19:18:47-11:00  21.31305 -157.88881     340   0.0 Hōkūleʻa
  2021-08-25T06:10:46UTC 2021-08-24T20:10:46-10:00 2021-08-24T19:10:46-11:00  21.31312 -157.88864       0   0.0 Hikianalia
  2021-08-25T05:17:31UTC 2021-08-24T19:17:31-10:00 2021-08-24T18:17:31-11:00  21.31299 -157.88879     138   0.0 Hōkūleʻa
  2021-08-25T05:10:45UTC 2021-08-24T19:10:45-10:00 2021-08-24T18:10:45-11:00  21.31312 -157.88864     243   0.0 Hikianalia
  2021-08-25T04:18:24UTC 2021-08-24T18:18:24-10:00 2021-08-24T17:18:24-11:00  21.31304 -157.88883     243   0.0 Hōkūleʻa
  2021-08-25T04:10:15UTC 2021-08-24T18:10:15-10:00 2021-08-24T17:10:15-11:00  21.31313 -157.88862      63   0.0 Hikianalia
  2021-08-25T03:18:32UTC 2021-08-24T17:18:32-10:00 2021-08-24T16:18:32-11:00  21.31305 -157.88881       0   0.0 Hōkūleʻa
  2021-08-25T03:10:37UTC 2021-08-24T17:10:37-10:00 2021-08-24T16:10:37-11:00  21.31312 -157.88864       0   0.0 Hikianalia
  2021-08-25T02:17:46UTC 2021-08-24T16:17:46-10:00 2021-08-24T15:17:46-11:00  21.31305 -157.88881     100   0.0 Hōkūleʻa
  2021-08-25T02:10:45UTC 2021-08-24T16:10:45-10:00 2021-08-24T15:10:45-11:00  21.31312 -157.88864       0   0.0 Hikianalia
  2021-08-25T01:18:34UTC 2021-08-24T15:18:34-10:00 2021-08-24T14:18:34-11:00  21.31306 -157.88888       0   0.0 Hōkūleʻa
  2021-08-25T01:09:38UTC 2021-08-24T15:09:38-10:00 2021-08-24T14:09:38-11:00  21.31312 -157.88864     243   0.0 Hikianalia
  2021-08-25T00:17:34UTC 2021-08-24T14:17:34-10:00 2021-08-24T13:17:34-11:00  21.31303 -157.88888     242   0.0 Hōkūleʻa
  2021-08-25T00:10:20UTC 2021-08-24T14:10:20-10:00 2021-08-24T13:10:20-11:00  21.31313 -157.88862      63   0.0 Hikianalia
  2021-08-24T23:18:32UTC 2021-08-24T13:18:32-10:00 2021-08-24T12:18:32-11:00  21.31305 -157.88883       0   0.0 Hōkūleʻa
  2021-08-24T23:09:45UTC 2021-08-24T13:09:45-10:00 2021-08-24T12:09:45-11:00  21.31312 -157.88864     134   0.0 Hikianalia
  2021-08-24T22:17:42UTC 2021-08-24T12:17:42-10:00 2021-08-24T11:17:42-11:00  21.31305 -157.88883     318   0.0 Hōkūleʻa
  2021-08-24T22:10:38UTC 2021-08-24T12:10:38-10:00 2021-08-24T11:10:38-11:00  21.31326 -157.88879     313   0.0 Hikianalia
  2021-08-24T21:17:30UTC 2021-08-24T11:17:30-10:00 2021-08-24T10:17:30-11:00  21.31300 -157.88879     130   0.0 Hōkūleʻa
  2021-08-24T21:10:45UTC 2021-08-24T11:10:45-10:00 2021-08-24T10:10:45-11:00  21.31319 -157.88871     308   0.0 Hikianalia
  2021-08-24T20:18:32UTC 2021-08-24T10:18:32-10:00 2021-08-24T09:18:32-11:00  21.31304 -157.88883     180   0.0 Hōkūleʻa
  2021-08-24T20:10:18UTC 2021-08-24T10:10:18-10:00 2021-08-24T09:10:18-11:00  21.31312 -157.88862     180   0.0 Hikianalia
  2021-08-24T19:17:32UTC 2021-08-24T09:17:32-10:00 2021-08-24T08:17:32-11:00  21.31306 -157.88883       0   0.0 Hōkūleʻa
  2021-08-24T19:10:48UTC 2021-08-24T09:10:48-10:00 2021-08-24T08:10:48-11:00  21.31313 -157.88862     180   0.0 Hikianalia
  2021-08-24T18:18:40UTC 2021-08-24T08:18:40-10:00 2021-08-24T07:18:40-11:00  21.31305 -157.88883       0   0.0 Hōkūleʻa
  2021-08-24T18:09:47UTC 2021-08-24T08:09:47-10:00 2021-08-24T07:09:47-11:00  21.31317 -157.88862      76   0.0 Hikianalia
  2021-08-24T17:17:21UTC 2021-08-24T07:17:21-10:00 2021-08-24T06:17:21-11:00  21.31305 -157.88883       0   0.0 Hōkūleʻa
  2021-08-24T17:10:35UTC 2021-08-24T07:10:35-10:00 2021-08-24T06:10:35-11:00  21.31315 -157.88866     334   0.0 Hikianalia
  2021-08-24T16:18:24UTC 2021-08-24T06:18:24-10:00 2021-08-24T05:18:24-11:00  21.31305 -157.88883     317   0.0 Hōkūleʻa
  2021-08-24T16:11:09UTC 2021-08-24T06:11:09-10:00 2021-08-24T05:11:09-11:00  21.31311 -157.88864     180   0.0 Hikianalia
  2021-08-24T15:18:24UTC 2021-08-24T05:18:24-10:00 2021-08-24T04:18:24-11:00  21.31303 -157.88881      90   0.0 Hōkūleʻa
  2021-08-24T15:10:46UTC 2021-08-24T05:10:46-10:00 2021-08-24T04:10:46-11:00  21.31313 -157.88864     317   0.0 Hikianalia
  2021-08-24T14:18:45UTC 2021-08-24T04:18:45-10:00 2021-08-24T03:18:45-11:00  21.31303 -157.88883      90   0.0 Hōkūleʻa
  2021-08-24T14:10:36UTC 2021-08-24T04:10:36-10:00 2021-08-24T03:10:36-11:00  21.31309 -157.88860     129   0.0 Hikianalia
  2021-08-24T13:27:29UTC 2021-08-24T03:27:29-10:00 2021-08-24T02:27:29-11:00  21.31303 -157.88894     265   0.0 Hōkūleʻa
  2021-08-24T13:10:48UTC 2021-08-24T03:10:48-10:00 2021-08-24T02:10:48-11:00  21.31312 -157.88864       0   0.0 Hikianalia
  2021-08-24T12:17:29UTC 2021-08-24T02:17:29-10:00 2021-08-24T01:17:29-11:00  21.31304 -157.88881      90   0.0 Hōkūleʻa
  2021-08-24T12:11:18UTC 2021-08-24T02:11:18-10:00 2021-08-24T01:11:18-11:00  21.31311 -157.88864      90   0.0 Hikianalia
  2021-08-24T11:18:22UTC 2021-08-24T01:18:22-10:00 2021-08-24T00:18:22-11:00  21.31304 -157.88883     180   0.0 Hōkūleʻa
  2021-08-24T11:10:35UTC 2021-08-24T01:10:35-10:00 2021-08-24T00:10:35-11:00  21.31311 -157.88868     270   0.0 Hikianalia
  2021-08-24T10:18:49UTC 2021-08-24T00:18:49-10:00 2021-08-23T23:18:49-11:00  21.31305 -157.88883       0   0.0 Hōkūleʻa
  2021-08-24T10:10:47UTC 2021-08-24T00:10:47-10:00 2021-08-23T23:10:47-11:00  21.31311 -157.88862     180   0.0 Hikianalia
  2021-08-24T09:18:30UTC 2021-08-23T23:18:30-10:00 2021-08-23T22:18:30-11:00  21.31305 -157.88883       0   0.0 Hōkūleʻa
  2021-08-24T09:11:13UTC 2021-08-23T23:11:13-10:00 2021-08-23T22:11:13-11:00  21.31312 -157.88862     180   0.0 Hikianalia
  2021-08-24T08:18:23UTC 2021-08-23T22:18:23-10:00 2021-08-23T21:18:23-11:00  21.31304 -157.88883     270   0.0 Hōkūleʻa
  2021-08-24T08:11:17UTC 2021-08-23T22:11:17-10:00 2021-08-23T21:11:17-11:00  21.31313 -157.88862     180   0.0 Hikianalia
  2021-08-24T07:18:32UTC 2021-08-23T21:18:32-10:00 2021-08-23T20:18:32-11:00  21.31304 -157.88881      42   0.0 Hōkūleʻa
  2021-08-24T07:11:46UTC 2021-08-23T21:11:46-10:00 2021-08-23T20:11:46-11:00  21.31314 -157.88862       0   0.0 Hikianalia
  2021-08-24T06:18:47UTC 2021-08-23T20:18:47-10:00 2021-08-23T19:18:47-11:00  21.31302 -157.88883     260   0.0 Hōkūleʻa
  2021-08-24T06:10:25UTC 2021-08-23T20:10:25-10:00 2021-08-23T19:10:25-11:00  21.31309 -157.88862     138   0.0 Hikianalia
  2021-08-24T05:18:29UTC 2021-08-23T19:18:29-10:00 2021-08-23T18:18:29-11:00  21.31303 -157.88877     180   0.0 Hōkūleʻa
  2021-08-24T05:10:36UTC 2021-08-23T19:10:36-10:00 2021-08-23T18:10:36-11:00  21.31311 -157.88864     255   0.0 Hikianalia
  2021-08-24T04:17:32UTC 2021-08-23T18:17:32-10:00 2021-08-23T17:17:32-11:00  21.31307 -157.88877      43   0.0 Hōkūleʻa
  2021-08-24T04:10:47UTC 2021-08-23T18:10:47-10:00 2021-08-23T17:10:47-11:00  21.31312 -157.88860     136   0.0 Hikianalia
  2021-08-24T03:18:24UTC 2021-08-23T17:18:24-10:00 2021-08-23T16:18:24-11:00  21.31305 -157.88879      90   0.0 Hōkūleʻa
  2021-08-24T03:11:14UTC 2021-08-23T17:11:14-10:00 2021-08-23T16:11:14-11:00  21.31314 -157.88862     264   0.0 Hikianalia
  2021-08-24T02:18:47UTC 2021-08-23T16:18:47-10:00 2021-08-23T15:18:47-11:00  21.31315 -157.88851      75   0.0 Hikianalia
  2021-08-24T02:18:47UTC 2021-08-23T16:18:47-10:00 2021-08-23T15:18:47-11:00  21.31305 -157.88883      90   0.0 Hōkūleʻa
  2021-08-24T01:18:38UTC 2021-08-23T15:18:38-10:00 2021-08-23T14:18:38-11:00  21.31305 -157.88888     270   0.0 Hōkūleʻa
  2021-08-24T01:10:45UTC 2021-08-23T15:10:45-10:00 2021-08-23T14:10:45-11:00  21.31314 -157.88856      80   0.0 Hikianalia
  2021-08-24T00:17:29UTC 2021-08-23T14:17:29-10:00 2021-08-23T13:17:29-11:00  21.31305 -157.88883     284   0.0 Hōkūleʻa
  2021-08-24T00:10:17UTC 2021-08-23T14:10:17-10:00 2021-08-23T13:10:17-11:00  21.31313 -157.88862       0   0.0 Hikianalia
  2021-08-23T23:18:30UTC 2021-08-23T13:18:30-10:00 2021-08-23T12:18:30-11:00  21.31304 -157.88879     118   0.0 Hōkūleʻa
  2021-08-23T23:10:09UTC 2021-08-23T13:10:09-10:00 2021-08-23T12:10:09-11:00  21.31312 -157.88862     118   0.0 Hikianalia
  2021-08-23T22:29:57UTC 2021-08-23T12:29:57-10:00 2021-08-23T11:29:57-11:00  21.31321 -157.88879     295   0.0 Hikianalia
  2021-08-23T22:18:46UTC 2021-08-23T12:18:46-10:00 2021-08-23T11:18:46-11:00  21.31306 -157.88883     324   0.0 Hōkūleʻa
  2021-08-23T21:17:39UTC 2021-08-23T11:17:39-10:00 2021-08-23T10:17:39-11:00  21.31300 -157.88879     138   0.0 Hōkūleʻa
  2021-08-23T21:10:46UTC 2021-08-23T11:10:46-10:00 2021-08-23T10:10:46-11:00  21.31313 -157.88862       0   0.0 Hikianalia
  2021-08-23T20:18:29UTC 2021-08-23T10:18:29-10:00 2021-08-23T09:18:29-11:00  21.31305 -157.88883     118   0.0 Hōkūleʻa
  2021-08-23T20:10:20UTC 2021-08-23T10:10:20-10:00 2021-08-23T09:10:20-11:00  21.31312 -157.88862     148   0.0 Hikianalia
  2021-08-23T19:19:07UTC 2021-08-23T09:19:07-10:00 2021-08-23T08:19:07-11:00  21.31315 -157.88864      90   0.0 Hikianalia
  2021-08-23T19:18:32UTC 2021-08-23T09:18:32-10:00 2021-08-23T08:18:32-11:00  21.31306 -157.88886     316   0.0 Hōkūleʻa
  2021-08-23T18:17:40UTC 2021-08-23T08:17:40-10:00 2021-08-23T07:17:40-11:00  21.31304 -157.88883      90   0.0 Hōkūleʻa
  2021-08-23T18:10:47UTC 2021-08-23T08:10:47-10:00 2021-08-23T07:10:47-11:00  21.31315 -157.88866       0   0.0 Hikianalia
  2021-08-23T17:18:30UTC 2021-08-23T07:18:30-10:00 2021-08-23T06:18:30-11:00  21.31304 -157.88888     256   0.0 Hōkūleʻa
  2021-08-23T17:10:40UTC 2021-08-23T07:10:40-10:00 2021-08-23T06:10:40-11:00  21.31308 -157.88866     223   0.0 Hikianalia
  2021-08-23T16:25:20UTC 2021-08-23T06:25:20-10:00 2021-08-23T05:25:20-11:00  21.31305 -157.88883       0   0.0 Hōkūleʻa
  2021-08-23T16:11:15UTC 2021-08-23T06:11:15-10:00 2021-08-23T05:11:15-11:00  21.31312 -157.88862     351   0.0 Hikianalia
  2021-08-23T15:18:31UTC 2021-08-23T05:18:31-10:00 2021-08-23T04:18:31-11:00  21.31304 -157.88883     299   0.0 Hōkūleʻa
  2021-08-23T15:10:46UTC 2021-08-23T05:10:46-10:00 2021-08-23T04:10:46-11:00  21.31299 -157.88860     180   0.0 Hikianalia
  2021-08-23T14:18:40UTC 2021-08-23T04:18:40-10:00 2021-08-23T03:18:40-11:00  21.31303 -157.88881     255   0.0 Hōkūleʻa
  2021-08-23T14:11:05UTC 2021-08-23T04:11:05-10:00 2021-08-23T03:11:05-11:00  21.31315 -157.88860      99   0.0 Hikianalia
  2021-08-23T13:17:34UTC 2021-08-23T03:17:34-10:00 2021-08-23T02:17:34-11:00  21.31304 -157.88877      80   0.0 Hōkūleʻa
  2021-08-23T13:10:39UTC 2021-08-23T03:10:39-10:00 2021-08-23T02:10:39-11:00  21.31317 -157.88866     308   0.0 Hikianalia
  2021-08-23T12:18:26UTC 2021-08-23T02:18:26-10:00 2021-08-23T01:18:26-11:00  21.31303 -157.88883       0   0.0 Hōkūleʻa
  2021-08-23T12:11:19UTC 2021-08-23T02:11:19-10:00 2021-08-23T01:11:19-11:00  21.31313 -157.88862       0   0.0 Hikianalia
  2021-08-23T11:18:32UTC 2021-08-23T01:18:32-10:00 2021-08-23T00:18:32-11:00  21.31303 -157.88883     180   0.0 Hōkūleʻa
  2021-08-23T11:11:17UTC 2021-08-23T01:11:17-10:00 2021-08-23T00:11:17-11:00  21.31312 -157.88862      90   0.0 Hikianalia
  2021-08-23T10:18:44UTC 2021-08-23T00:18:44-10:00 2021-08-22T23:18:44-11:00  21.31305 -157.88883     180   0.0 Hōkūleʻa
  2021-08-23T10:17:20UTC 2021-08-23T00:17:20-10:00 2021-08-22T23:17:20-11:00  21.31312 -157.88864       0   0.0 Hikianalia
  2021-08-23T09:18:38UTC 2021-08-22T23:18:38-10:00 2021-08-22T22:18:38-11:00  21.31307 -157.88883       0   0.0 Hōkūleʻa
  2021-08-23T09:10:39UTC 2021-08-22T23:10:39-10:00 2021-08-22T22:10:39-11:00  21.31312 -157.88864     243   0.0 Hikianalia
  2021-08-23T08:26:42UTC 2021-08-22T22:26:42-10:00 2021-08-22T21:26:42-11:00  21.31313 -157.88862       0   0.0 Hikianalia
  2021-08-23T08:18:29UTC 2021-08-22T22:18:29-10:00 2021-08-22T21:18:29-11:00  21.31307 -157.88883     270   0.0 Hōkūleʻa
  2021-08-23T07:18:32UTC 2021-08-22T21:18:32-10:00 2021-08-22T20:18:32-11:00  21.31307 -157.88881       0   0.0 Hōkūleʻa
  2021-08-23T07:10:40UTC 2021-08-22T21:10:40-10:00 2021-08-22T20:10:40-11:00  21.31309 -157.88862     149   0.0 Hikianalia
  2021-08-23T06:18:49UTC 2021-08-22T20:18:49-10:00 2021-08-22T19:18:49-11:00  21.31306 -157.88881     138   0.0 Hōkūleʻa
  2021-08-23T06:10:46UTC 2021-08-22T20:10:46-10:00 2021-08-22T19:10:46-11:00  21.31312 -157.88864     136   0.0 Hikianalia
  2021-08-23T05:26:51UTC 2021-08-22T19:26:51-10:00 2021-08-22T18:26:51-11:00  21.31308 -157.88883     270   0.0 Hōkūleʻa
  2021-08-23T05:10:44UTC 2021-08-22T19:10:44-10:00 2021-08-22T18:10:44-11:00  21.31319 -157.88871     292   0.0 Hikianalia
  2021-08-23T04:18:33UTC 2021-08-22T18:18:33-10:00 2021-08-22T17:18:33-11:00  21.31308 -157.88881       0   0.0 Hōkūleʻa
  2021-08-23T04:11:32UTC 2021-08-22T18:11:32-10:00 2021-08-22T17:11:32-11:00  21.31315 -157.88862      32   0.0 Hikianalia
  2021-08-23T03:18:31UTC 2021-08-22T17:18:31-10:00 2021-08-22T16:18:31-11:00  21.31307 -157.88881      90   0.0 Hōkūleʻa
  2021-08-23T03:10:46UTC 2021-08-22T17:10:46-10:00 2021-08-22T16:10:46-11:00  21.31312 -157.88864      15   0.0 Hikianalia
  2021-08-23T02:17:39UTC 2021-08-22T16:17:39-10:00 2021-08-22T15:17:39-11:00  21.31307 -157.88883      43   0.0 Hōkūleʻa
  2021-08-23T02:10:48UTC 2021-08-22T16:10:48-10:00 2021-08-22T15:10:48-11:00  21.31305 -157.88866     193   0.0 Hikianalia
  2021-08-23T01:19:00UTC 2021-08-22T15:19:00-10:00 2021-08-22T14:19:00-11:00  21.31313 -157.88864     311   0.0 Hikianalia
  2021-08-23T01:18:24UTC 2021-08-22T15:18:24-10:00 2021-08-22T14:18:24-11:00  21.31305 -157.88886     270   0.0 Hōkūleʻa
  2021-08-23T00:17:32UTC 2021-08-22T14:17:32-10:00 2021-08-22T13:17:32-11:00  21.31305 -157.88883     270   0.0 Hōkūleʻa
  2021-08-23T00:09:47UTC 2021-08-22T14:09:47-10:00 2021-08-22T13:09:47-11:00  21.31308 -157.88858     180   0.0 Hikianalia
  2021-08-22T23:18:47UTC 2021-08-22T13:18:47-10:00 2021-08-22T12:18:47-11:00  21.31305 -157.88881       0   0.0 Hōkūleʻa
  2021-08-22T23:10:15UTC 2021-08-22T13:10:15-10:00 2021-08-22T12:10:15-11:00  21.31313 -157.88858      81   0.0 Hikianalia
  2021-08-22T22:17:35UTC 2021-08-22T12:17:35-10:00 2021-08-22T11:17:35-11:00  21.31305 -157.88881       0   0.0 Hōkūleʻa
  2021-08-22T22:10:48UTC 2021-08-22T12:10:48-10:00 2021-08-22T11:10:48-11:00  21.31312 -157.88864     197   0.0 Hikianalia
  2021-08-22T21:17:36UTC 2021-08-22T11:17:36-10:00 2021-08-22T10:17:36-11:00  21.31305 -157.88881      90   0.0 Hōkūleʻa
  2021-08-22T21:10:45UTC 2021-08-22T11:10:45-10:00 2021-08-22T10:10:45-11:00  21.31319 -157.88862       0   0.0 Hikianalia
  2021-08-22T20:17:40UTC 2021-08-22T10:17:40-10:00 2021-08-22T09:17:40-11:00  21.31305 -157.88883     180   0.0 Hōkūleʻa
  2021-08-22T20:10:14UTC 2021-08-22T10:10:14-10:00 2021-08-22T09:10:14-11:00  21.31312 -157.88862       0   0.0 Hikianalia
  2021-08-22T19:18:24UTC 2021-08-22T09:18:24-10:00 2021-08-22T08:18:24-11:00  21.31307 -157.88883       0   0.0 Hōkūleʻa
  2021-08-22T19:09:40UTC 2021-08-22T09:09:40-10:00 2021-08-22T08:09:40-11:00  21.31310 -157.88862      90   0.0 Hikianalia
  2021-08-22T18:18:33UTC 2021-08-22T08:18:33-10:00 2021-08-22T07:18:33-11:00  21.31303 -157.88883     180   0.0 Hōkūleʻa
  2021-08-22T18:10:38UTC 2021-08-22T08:10:38-10:00 2021-08-22T07:10:38-11:00  21.31310 -157.88866       0   0.0 Hikianalia
  2021-08-22T17:28:26UTC 2021-08-22T07:28:26-10:00 2021-08-22T06:28:26-11:00  21.31305 -157.88883       0   0.0 Hōkūleʻa
  2021-08-22T17:10:43UTC 2021-08-22T07:10:43-10:00 2021-08-22T06:10:43-11:00  21.31309 -157.88866     241   0.0 Hikianalia
  2021-08-22T16:18:46UTC 2021-08-22T06:18:46-10:00 2021-08-22T05:18:46-11:00  21.31303 -157.88883     180   0.0 Hōkūleʻa
  2021-08-22T16:10:16UTC 2021-08-22T06:10:16-10:00 2021-08-22T05:10:16-11:00  21.31311 -157.88862      90   0.0 Hikianalia
  2021-08-22T15:28:54UTC 2021-08-22T05:28:54-10:00 2021-08-22T04:28:54-11:00  21.31311 -157.88864     241   0.0 Hikianalia
  2021-08-22T15:18:32UTC 2021-08-22T05:18:32-10:00 2021-08-22T04:18:32-11:00  21.31304 -157.88883     270   0.0 Hōkūleʻa
  2021-08-22T14:18:22UTC 2021-08-22T04:18:22-10:00 2021-08-22T03:18:22-11:00  21.31304 -157.88879     118   0.0 Hōkūleʻa
  2021-08-22T14:11:08UTC 2021-08-22T04:11:08-10:00 2021-08-22T03:11:08-11:00  21.31312 -157.88862      75   0.0 Hikianalia
  2021-08-22T13:18:33UTC 2021-08-22T03:18:33-10:00 2021-08-22T02:18:33-11:00  21.31306 -157.88883     299   0.0 Hōkūleʻa
  2021-08-22T13:10:48UTC 2021-08-22T03:10:48-10:00 2021-08-22T02:10:48-11:00  21.31311 -157.88866     255   0.0 Hikianalia
  2021-08-22T12:18:48UTC 2021-08-22T02:18:48-10:00 2021-08-22T01:18:48-11:00  21.31305 -157.88881      63   0.0 Hōkūleʻa
  2021-08-22T12:10:46UTC 2021-08-22T02:10:46-10:00 2021-08-22T01:10:46-11:00  21.31312 -157.88862       0   0.0 Hikianalia
  2021-08-22T11:19:29UTC 2021-08-22T01:19:29-10:00 2021-08-22T00:19:29-11:00  21.31304 -157.88883     180   0.0 Hōkūleʻa
  2021-08-22T11:11:17UTC 2021-08-22T01:11:17-10:00 2021-08-22T00:11:17-11:00  21.31312 -157.88862     145   0.0 Hikianalia
  2021-08-22T10:18:33UTC 2021-08-22T00:18:33-10:00 2021-08-21T23:18:33-11:00  21.31305 -157.88883     297   0.0 Hōkūleʻa
  2021-08-22T10:10:45UTC 2021-08-22T00:10:45-10:00 2021-08-21T23:10:45-11:00  21.31321 -157.88868     332   0.0 Hikianalia
  2021-08-22T09:18:32UTC 2021-08-21T23:18:32-10:00 2021-08-21T22:18:32-11:00  21.31304 -157.88881     180   0.0 Hōkūleʻa
  2021-08-22T09:10:46UTC 2021-08-21T23:10:46-10:00 2021-08-21T22:10:46-11:00  21.31313 -157.88864     297   0.0 Hikianalia
  2021-08-22T08:18:49UTC 2021-08-21T22:18:49-10:00 2021-08-21T21:18:49-11:00  21.31305 -157.88881     297   0.0 Hōkūleʻa
  2021-08-22T08:11:09UTC 2021-08-21T22:11:09-10:00 2021-08-21T21:11:09-11:00  21.31312 -157.88862     242   0.0 Hikianalia
  2021-08-22T07:18:34UTC 2021-08-21T21:18:34-10:00 2021-08-21T20:18:34-11:00  21.31304 -157.88879     104   0.0 Hōkūleʻa
  2021-08-22T07:09:40UTC 2021-08-21T21:09:40-10:00 2021-08-21T20:09:40-11:00  21.31314 -157.88858      20   0.0 Hikianalia
  2021-08-22T06:18:30UTC 2021-08-21T20:18:30-10:00 2021-08-21T19:18:30-11:00  21.31305 -157.88883     270   0.0 Hōkūleʻa
  2021-08-22T06:10:41UTC 2021-08-21T20:10:41-10:00 2021-08-21T19:10:41-11:00  21.31309 -157.88860     167   0.0 Hikianalia
  2021-08-22T05:18:30UTC 2021-08-21T19:18:30-10:00 2021-08-21T18:18:30-11:00  21.31305 -157.88881     180   0.0 Hōkūleʻa
  2021-08-22T05:10:48UTC 2021-08-21T19:10:48-10:00 2021-08-21T18:10:48-11:00  21.31318 -157.88862       0   0.0 Hikianalia
  2021-08-22T04:17:49UTC 2021-08-21T18:17:49-10:00 2021-08-21T17:17:49-11:00  21.31306 -157.88881      61   0.0 Hōkūleʻa
  2021-08-22T04:11:16UTC 2021-08-21T18:11:16-10:00 2021-08-21T17:11:16-11:00  21.31314 -157.88862     180   0.0 Hikianalia
  2021-08-22T03:18:24UTC 2021-08-21T17:18:24-10:00 2021-08-21T16:18:24-11:00  21.31305 -157.88883     180   0.0 Hōkūleʻa
  2021-08-22T03:10:46UTC 2021-08-21T17:10:46-10:00 2021-08-21T16:10:46-11:00  21.31315 -157.88862      61   0.0 Hikianalia
  2021-08-22T02:17:21UTC 2021-08-21T16:17:21-10:00 2021-08-21T15:17:21-11:00  21.31306 -157.88883     270   0.0 Hōkūleʻa
  2021-08-22T02:11:07UTC 2021-08-21T16:11:07-10:00 2021-08-21T15:11:07-11:00  21.31314 -157.88864      62   0.0 Hikianalia
  2021-08-22T01:18:24UTC 2021-08-21T15:18:24-10:00 2021-08-21T14:18:24-11:00  21.31306 -157.88881      90   0.0 Hōkūleʻa
  2021-08-22T01:09:46UTC 2021-08-21T15:09:46-10:00 2021-08-21T14:09:46-11:00  21.31313 -157.88866     255   0.0 Hikianalia
  2021-08-22T00:18:49UTC 2021-08-21T14:18:49-10:00 2021-08-21T13:18:49-11:00  21.31306 -157.88883     299   0.0 Hōkūleʻa
  2021-08-22T00:11:18UTC 2021-08-21T14:11:18-10:00 2021-08-21T13:11:18-11:00  21.31314 -157.88862       0   0.0 Hikianalia
  2021-08-21T23:17:38UTC 2021-08-21T13:17:38-10:00 2021-08-21T12:17:38-11:00  21.31305 -157.88881     241   0.0 Hōkūleʻa
  2021-08-21T23:10:14UTC 2021-08-21T13:10:14-10:00 2021-08-21T12:10:14-11:00  21.31313 -157.88862      90   0.0 Hikianalia
  2021-08-21T22:18:32UTC 2021-08-21T12:18:32-10:00 2021-08-21T11:18:32-11:00  21.31306 -157.88879      61   0.0 Hōkūleʻa
  2021-08-21T22:10:49UTC 2021-08-21T12:10:49-10:00 2021-08-21T11:10:49-11:00  21.31313 -157.88866     180   0.0 Hikianalia
  2021-08-21T21:17:31UTC 2021-08-21T11:17:31-10:00 2021-08-21T10:17:31-11:00  21.31305 -157.88881       0   0.0 Hōkūleʻa
  2021-08-21T21:09:45UTC 2021-08-21T11:09:45-10:00 2021-08-21T10:09:45-11:00  21.31314 -157.88866     298   0.0 Hikianalia
  2021-08-21T20:18:39UTC 2021-08-21T10:18:39-10:00 2021-08-21T09:18:39-11:00  21.31305 -157.88881       0   0.0 Hōkūleʻa
  2021-08-21T20:11:08UTC 2021-08-21T10:11:08-10:00 2021-08-21T09:11:08-11:00  21.31312 -157.88862     148   0.0 Hikianalia
  2021-08-21T19:18:32UTC 2021-08-21T09:18:32-10:00 2021-08-21T08:18:32-11:00  21.31305 -157.88881     138   0.0 Hōkūleʻa
  2021-08-21T19:10:47UTC 2021-08-21T09:10:47-10:00 2021-08-21T08:10:47-11:00  21.31319 -157.88866     339   0.0 Hikianalia
  2021-08-21T18:18:31UTC 2021-08-21T08:18:31-10:00 2021-08-21T07:18:31-11:00  21.31308 -157.88862     117   0.0 Hikianalia
  2021-08-21T18:17:44UTC 2021-08-21T08:17:44-10:00 2021-08-21T07:17:44-11:00  21.31307 -157.88883       0   0.0 Hōkūleʻa
  2021-08-21T17:18:22UTC 2021-08-21T07:18:22-10:00 2021-08-21T06:18:22-11:00  21.31305 -157.88883       0   0.0 Hōkūleʻa
  2021-08-21T17:10:35UTC 2021-08-21T07:10:35-10:00 2021-08-21T06:10:35-11:00  21.31309 -157.88864     222   0.0 Hikianalia
  2021-08-21T16:18:49UTC 2021-08-21T06:18:49-10:00 2021-08-21T05:18:49-11:00  21.31303 -157.88883     180   0.0 Hōkūleʻa
  2021-08-21T16:11:08UTC 2021-08-21T06:11:08-10:00 2021-08-21T05:11:08-11:00  21.31311 -157.88862      90   0.0 Hikianalia
  2021-08-21T15:28:20UTC 2021-08-21T05:28:20-10:00 2021-08-21T04:28:20-11:00  21.31311 -157.88864     205   0.0 Hikianalia
  2021-08-21T15:18:32UTC 2021-08-21T05:18:32-10:00 2021-08-21T04:18:32-11:00  21.31304 -157.88883     180   0.0 Hōkūleʻa
  2021-08-21T14:19:37UTC 2021-08-21T04:19:37-10:00 2021-08-21T03:19:37-11:00  21.31305 -157.88883       0   0.0 Hōkūleʻa
  2021-08-21T14:10:47UTC 2021-08-21T04:10:47-10:00 2021-08-21T03:10:47-11:00  21.31320 -157.88860      37   0.0 Hikianalia
  2021-08-21T13:18:33UTC 2021-08-21T03:18:33-10:00 2021-08-21T02:18:33-11:00  21.31305 -157.88883       0   0.0 Hōkūleʻa
  2021-08-21T13:10:37UTC 2021-08-21T03:10:37-10:00 2021-08-21T02:10:37-11:00  21.31314 -157.88864     299   0.0 Hikianalia
  2021-08-21T12:17:47UTC 2021-08-21T02:17:47-10:00 2021-08-21T01:17:47-11:00  21.31305 -157.88883     270   0.0 Hōkūleʻa
  2021-08-21T12:10:20UTC 2021-08-21T02:10:20-10:00 2021-08-21T01:10:20-11:00  21.31313 -157.88862     155   0.0 Hikianalia
  2021-08-21T11:19:22UTC 2021-08-21T01:19:22-10:00 2021-08-21T00:19:22-11:00  21.31305 -157.88881      90   0.0 Hōkūleʻa
  2021-08-21T11:10:36UTC 2021-08-21T01:10:36-10:00 2021-08-21T00:10:36-11:00  21.31318 -157.88864      44   0.0 Hikianalia
  2021-08-21T10:18:30UTC 2021-08-21T00:18:30-10:00 2021-08-20T23:18:30-11:00  21.31305 -157.88883       0   0.0 Hōkūleʻa
  2021-08-21T10:10:43UTC 2021-08-21T00:10:43-10:00 2021-08-20T23:10:43-11:00  21.31315 -157.88866     317   0.0 Hikianalia
  2021-08-21T09:18:34UTC 2021-08-20T23:18:34-10:00 2021-08-20T22:18:34-11:00  21.31305 -157.88883     297   0.0 Hōkūleʻa
  2021-08-21T09:10:46UTC 2021-08-20T23:10:46-10:00 2021-08-20T22:10:46-11:00  21.31311 -157.88862     180   0.0 Hikianalia
  2021-08-21T08:18:46UTC 2021-08-20T22:18:46-10:00 2021-08-20T21:18:46-11:00  21.31304 -157.88881     180   0.0 Hōkūleʻa
  2021-08-21T08:11:08UTC 2021-08-20T22:11:08-10:00 2021-08-20T21:11:08-11:00  21.31313 -157.88862       0   0.0 Hikianalia
  2021-08-21T07:18:32UTC 2021-08-20T21:18:32-10:00 2021-08-20T20:18:32-11:00  21.31305 -157.88881     317   0.0 Hōkūleʻa
  2021-08-21T07:11:16UTC 2021-08-20T21:11:16-10:00 2021-08-20T20:11:16-11:00  21.31313 -157.88862      90   0.0 Hikianalia
  2021-08-21T06:20:57UTC 2021-08-20T20:20:57-10:00 2021-08-20T19:20:57-11:00  21.31313 -157.88866     270   0.0 Hikianalia
  2021-08-21T06:18:31UTC 2021-08-20T20:18:31-10:00 2021-08-20T19:18:31-11:00  21.31300 -157.88877     143   0.0 Hōkūleʻa
  2021-08-21T05:18:29UTC 2021-08-20T19:18:29-10:00 2021-08-20T18:18:29-11:00  21.31306 -157.88881     119   0.0 Hōkūleʻa
  2021-08-21T05:11:09UTC 2021-08-20T19:11:09-10:00 2021-08-20T18:11:09-11:00  21.31313 -157.88862     180   0.0 Hikianalia
  2021-08-21T04:25:05UTC 2021-08-20T18:25:05-10:00 2021-08-20T17:25:05-11:00  21.31307 -157.88883       0   0.0 Hōkūleʻa
  2021-08-21T04:09:40UTC 2021-08-20T18:09:40-10:00 2021-08-20T17:09:40-11:00  21.31318 -157.88862      32   0.0 Hikianalia
  2021-08-21T03:17:24UTC 2021-08-20T17:17:24-10:00 2021-08-20T16:17:24-11:00  21.31305 -157.88883       0   0.0 Hōkūleʻa
  2021-08-21T03:10:38UTC 2021-08-20T17:10:38-10:00 2021-08-20T16:10:38-11:00  21.31311 -157.88866     232   0.0 Hikianalia
  2021-08-21T02:18:30UTC 2021-08-20T16:18:30-10:00 2021-08-20T15:18:30-11:00  21.31305 -157.88883     180   0.0 Hōkūleʻa
  2021-08-21T02:10:39UTC 2021-08-20T16:10:39-10:00 2021-08-20T15:10:39-11:00  21.31314 -157.88862      35   0.0 Hikianalia
  2021-08-21T01:18:40UTC 2021-08-20T15:18:40-10:00 2021-08-20T14:18:40-11:00  21.31307 -157.88883       0   0.0 Hōkūleʻa
  2021-08-21T01:10:48UTC 2021-08-20T15:10:48-10:00 2021-08-20T14:10:48-11:00  21.31306 -157.88868     205   0.0 Hikianalia
  2021-08-21T00:17:48UTC 2021-08-20T14:17:48-10:00 2021-08-20T13:17:48-11:00  21.31305 -157.88883     297   0.0 Hōkūleʻa
  2021-08-21T00:09:46UTC 2021-08-20T14:09:46-10:00 2021-08-20T13:09:46-11:00  21.31314 -157.88864     299   0.0 Hikianalia
  2021-08-20T23:17:38UTC 2021-08-20T13:17:38-10:00 2021-08-20T12:17:38-11:00  21.31304 -157.88881     148   0.0 Hōkūleʻa
  2021-08-20T23:11:16UTC 2021-08-20T13:11:16-10:00 2021-08-20T12:11:16-11:00  21.31313 -157.88862     296   0.0 Hikianalia
  2021-08-20T22:18:33UTC 2021-08-20T12:18:33-10:00 2021-08-20T11:18:33-11:00  21.31307 -157.88883       0   0.0 Hōkūleʻa
  2021-08-20T22:10:16UTC 2021-08-20T12:10:16-10:00 2021-08-20T11:10:16-11:00  21.31312 -157.88860      99   0.0 Hikianalia
  2021-08-20T21:17:33UTC 2021-08-20T11:17:33-10:00 2021-08-20T10:17:33-11:00  21.31305 -157.88883       0   0.0 Hōkūleʻa
  2021-08-20T21:09:46UTC 2021-08-20T11:09:46-10:00 2021-08-20T10:09:46-11:00  21.31313 -157.88866     284   0.0 Hikianalia
  2021-08-20T20:18:49UTC 2021-08-20T10:18:49-10:00 2021-08-20T09:18:49-11:00  21.31305 -157.88883     180   0.0 Hōkūleʻa
  2021-08-20T20:10:15UTC 2021-08-20T10:10:15-10:00 2021-08-20T09:10:15-11:00  21.31312 -157.88862     317   0.0 Hikianalia
  2021-08-20T19:17:45UTC 2021-08-20T09:17:45-10:00 2021-08-20T08:17:45-11:00  21.31306 -157.88883     328   0.0 Hōkūleʻa
  2021-08-20T19:10:39UTC 2021-08-20T09:10:39-10:00 2021-08-20T08:10:39-11:00  21.31308 -157.88858     118   0.0 Hikianalia
  2021-08-20T18:18:31UTC 2021-08-20T08:18:31-10:00 2021-08-20T07:18:31-11:00  21.31303 -157.88881      90   0.0 Hōkūleʻa
  2021-08-20T18:10:38UTC 2021-08-20T08:10:38-10:00 2021-08-20T07:10:38-11:00  21.31312 -157.88866     232   0.0 Hikianalia
  2021-08-20T17:17:21UTC 2021-08-20T07:17:21-10:00 2021-08-20T06:17:21-11:00  21.31303 -157.88883       0   0.0 Hōkūleʻa
  2021-08-20T17:10:44UTC 2021-08-20T07:10:44-10:00 2021-08-20T06:10:44-11:00  21.31315 -157.88862       0   0.0 Hikianalia
  2021-08-20T16:18:41UTC 2021-08-20T06:18:41-10:00 2021-08-20T05:18:41-11:00  21.31303 -157.88883     223   0.0 Hōkūleʻa
  2021-08-20T16:10:05UTC 2021-08-20T06:10:05-10:00 2021-08-20T05:10:05-11:00  21.31313 -157.88862     308   0.0 Hikianalia
  2021-08-20T15:18:29UTC 2021-08-20T05:18:29-10:00 2021-08-20T04:18:29-11:00  21.31305 -157.88881       0   0.0 Hōkūleʻa
  2021-08-20T15:11:38UTC 2021-08-20T05:11:38-10:00 2021-08-20T04:11:38-11:00  21.31310 -157.88858      90   0.0 Hikianalia
  2021-08-20T14:18:23UTC 2021-08-20T04:18:23-10:00 2021-08-20T03:18:23-11:00  21.31304 -157.88881     117   0.0 Hōkūleʻa
  2021-08-20T14:09:48UTC 2021-08-20T04:09:48-10:00 2021-08-20T03:09:48-11:00  21.31310 -157.88866     255   0.0 Hikianalia
  2021-08-20T13:18:24UTC 2021-08-20T03:18:24-10:00 2021-08-20T02:18:24-11:00  21.31305 -157.88883       0   0.0 Hōkūleʻa
  2021-08-20T13:10:39UTC 2021-08-20T03:10:39-10:00 2021-08-20T02:10:39-11:00  21.31312 -157.88858      90   0.0 Hikianalia
  2021-08-20T12:19:59UTC 2021-08-20T02:19:59-10:00 2021-08-20T01:19:59-11:00  21.31305 -157.88883       0   0.0 Hōkūleʻa
  2021-08-20T12:11:11UTC 2021-08-20T02:11:11-10:00 2021-08-20T01:11:11-11:00  21.31312 -157.88862     180   0.0 Hikianalia
  2021-08-20T11:28:14UTC 2021-08-20T01:28:14-10:00 2021-08-20T00:28:14-11:00  21.31305 -157.88883     270   0.0 Hōkūleʻa
  2021-08-20T11:10:44UTC 2021-08-20T01:10:44-10:00 2021-08-20T00:10:44-11:00  21.31317 -157.88862      25   0.0 Hikianalia
  2021-08-20T10:18:27UTC 2021-08-20T00:18:27-10:00 2021-08-19T23:18:27-11:00  21.31305 -157.88881     138   0.0 Hōkūleʻa
  2021-08-20T10:11:16UTC 2021-08-20T00:11:16-10:00 2021-08-19T23:11:16-11:00  21.31312 -157.88864     270   0.0 Hikianalia
  2021-08-20T09:18:32UTC 2021-08-19T23:18:32-10:00 2021-08-19T22:18:32-11:00  21.31307 -157.88883     328   0.0 Hōkūleʻa
  2021-08-20T09:10:39UTC 2021-08-19T23:10:39-10:00 2021-08-19T22:10:39-11:00  21.31312 -157.88862      61   0.0 Hikianalia
  2021-08-20T08:18:47UTC 2021-08-19T22:18:47-10:00 2021-08-19T21:18:47-11:00  21.31304 -157.88881     205   0.0 Hōkūleʻa
  2021-08-20T08:10:44UTC 2021-08-19T22:10:44-10:00 2021-08-19T21:10:44-11:00  21.31310 -157.88866     232   0.0 Hikianalia
  2021-08-20T07:19:35UTC 2021-08-19T21:19:35-10:00 2021-08-19T20:19:35-11:00  21.31308 -157.88879       0   0.0 Hōkūleʻa
  2021-08-20T07:09:46UTC 2021-08-19T21:09:46-10:00 2021-08-19T20:09:46-11:00  21.31313 -157.88862       0   0.0 Hikianalia
  2021-08-20T06:27:25UTC 2021-08-19T20:27:25-10:00 2021-08-19T19:27:25-11:00  21.31302 -157.88879     129   0.0 Hōkūleʻa
  2021-08-20T06:11:11UTC 2021-08-19T20:11:11-10:00 2021-08-19T19:11:11-11:00  21.31312 -157.88862     104   0.0 Hikianalia
  2021-08-20T05:18:21UTC 2021-08-19T19:18:21-10:00 2021-08-19T18:18:21-11:00  21.31305 -157.88883     270   0.0 Hōkūleʻa
  2021-08-20T05:11:44UTC 2021-08-19T19:11:44-10:00 2021-08-19T18:11:44-11:00  21.31313 -157.88866     284   0.0 Hikianalia
  2021-08-20T04:18:44UTC 2021-08-19T18:18:44-10:00 2021-08-19T17:18:44-11:00  21.31305 -157.88881     270   0.0 Hōkūleʻa
  2021-08-20T04:10:25UTC 2021-08-19T18:10:25-10:00 2021-08-19T17:10:25-11:00  21.31312 -157.88862     104   0.0 Hikianalia
  2021-08-20T03:18:42UTC 2021-08-19T17:18:42-10:00 2021-08-19T16:18:42-11:00  21.31305 -157.88879       0   0.0 Hōkūleʻa
  2021-08-20T03:10:39UTC 2021-08-19T17:10:39-10:00 2021-08-19T16:10:39-11:00  21.31313 -157.88866       0   0.0 Hikianalia
  2021-08-20T02:18:30UTC 2021-08-19T16:18:30-10:00 2021-08-19T15:18:30-11:00  21.31304 -157.88879     117   0.0 Hōkūleʻa
  2021-08-20T02:10:58UTC 2021-08-19T16:10:58-10:00 2021-08-19T15:10:58-11:00  21.31313 -157.88866       0   0.0 Hikianalia
  2021-08-20T01:25:09UTC 2021-08-19T15:25:09-10:00 2021-08-19T14:25:09-11:00  21.31305 -157.88881     119   0.0 Hōkūleʻa
  2021-08-20T01:09:40UTC 2021-08-19T15:09:40-10:00 2021-08-19T14:09:40-11:00  21.31313 -157.88866     270   0.0 Hikianalia
  2021-08-20T00:18:49UTC 2021-08-19T14:18:49-10:00 2021-08-19T13:18:49-11:00  21.31306 -157.88883     280   0.0 Hōkūleʻa
  2021-08-20T00:17:58UTC 2021-08-19T14:17:58-10:00 2021-08-19T13:17:58-11:00  21.31313 -157.88862      90   0.0 Hikianalia
  2021-08-19T23:25:55UTC 2021-08-19T13:25:55-10:00 2021-08-19T12:25:55-11:00  21.31305 -157.88877      90   0.0 Hōkūleʻa
  2021-08-19T23:10:48UTC 2021-08-19T13:10:48-10:00 2021-08-19T12:10:48-11:00  21.31313 -157.88866     113   0.0 Hikianalia
  2021-08-19T22:18:32UTC 2021-08-19T12:18:32-10:00 2021-08-19T11:18:32-11:00  21.31305 -157.88881      90   0.0 Hōkūleʻa
  2021-08-19T22:09:37UTC 2021-08-19T12:09:37-10:00 2021-08-19T11:09:37-11:00  21.31318 -157.88877     274   0.0 Hikianalia
  2021-08-19T21:18:33UTC 2021-08-19T11:18:33-10:00 2021-08-19T10:18:33-11:00  21.31305 -157.88883       0   0.0 Hōkūleʻa
  2021-08-19T21:10:38UTC 2021-08-19T11:10:38-10:00 2021-08-19T10:10:38-11:00  21.31317 -157.88862       0   0.0 Hikianalia
  2021-08-19T20:17:46UTC 2021-08-19T10:17:46-10:00 2021-08-19T09:17:46-11:00  21.31305 -157.88883       0   0.0 Hōkūleʻa
  2021-08-19T20:10:17UTC 2021-08-19T10:10:17-10:00 2021-08-19T09:10:17-11:00  21.31313 -157.88862     121   0.0 Hikianalia
  2021-08-19T19:18:35UTC 2021-08-19T09:18:35-10:00 2021-08-19T08:18:35-11:00  21.31305 -157.88883     297   0.0 Hōkūleʻa
  2021-08-19T19:10:42UTC 2021-08-19T09:10:42-10:00 2021-08-19T08:10:42-11:00  21.31323 -157.88879     301   0.0 Hikianalia
  2021-08-19T18:18:33UTC 2021-08-19T08:18:33-10:00 2021-08-19T07:18:33-11:00  21.31304 -157.88881      42   0.0 Hōkūleʻa
  2021-08-19T18:10:45UTC 2021-08-19T08:10:45-10:00 2021-08-19T07:10:45-11:00  21.31314 -157.88864     328   0.0 Hikianalia
  2021-08-19T17:18:32UTC 2021-08-19T07:18:32-10:00 2021-08-19T06:18:32-11:00  21.31302 -157.88883     222   0.0 Hōkūleʻa
  2021-08-19T17:11:08UTC 2021-08-19T07:11:08-10:00 2021-08-19T06:11:08-11:00  21.31311 -157.88862     118   0.0 Hikianalia
  2021-08-19T16:17:45UTC 2021-08-19T06:17:45-10:00 2021-08-19T05:17:45-11:00  21.31304 -157.88881     180   0.0 Hōkūleʻa
  2021-08-19T16:11:04UTC 2021-08-19T06:11:04-10:00 2021-08-19T05:11:04-11:00  21.31313 -157.88866     316   0.0 Hikianalia
  2021-08-19T15:18:24UTC 2021-08-19T05:18:24-10:00 2021-08-19T04:18:24-11:00  21.31307 -157.88881      32   0.0 Hōkūleʻa
  2021-08-19T15:11:04UTC 2021-08-19T05:11:04-10:00 2021-08-19T04:11:04-11:00  21.31311 -157.88864     136   0.0 Hikianalia
  2021-08-19T14:18:30UTC 2021-08-19T04:18:30-10:00 2021-08-19T03:18:30-11:00  21.31304 -157.88883     270   0.0 Hōkūleʻa
  2021-08-19T14:10:49UTC 2021-08-19T04:10:49-10:00 2021-08-19T03:10:49-11:00  21.31313 -157.88866       0   0.0 Hikianalia
  2021-08-19T13:18:32UTC 2021-08-19T03:18:32-10:00 2021-08-19T02:18:32-11:00  21.31304 -157.88881       0   0.0 Hōkūleʻa
  2021-08-19T13:10:47UTC 2021-08-19T03:10:47-10:00 2021-08-19T02:10:47-11:00  21.31313 -157.88866     284   0.0 Hikianalia
  2021-08-19T12:18:45UTC 2021-08-19T02:18:45-10:00 2021-08-19T01:18:45-11:00  21.31304 -157.88881      42   0.0 Hōkūleʻa
  2021-08-19T12:11:18UTC 2021-08-19T02:11:18-10:00 2021-08-19T01:11:18-11:00  21.31312 -157.88862     145   0.0 Hikianalia
  2021-08-19T11:18:26UTC 2021-08-19T01:18:26-10:00 2021-08-19T00:18:26-11:00  21.31302 -157.88883     212   0.0 Hōkūleʻa
  2021-08-19T11:10:42UTC 2021-08-19T01:10:42-10:00 2021-08-19T00:10:42-11:00  21.31329 -157.88875       0   0.0 Hikianalia
  2021-08-19T10:18:20UTC 2021-08-19T00:18:20-10:00 2021-08-18T23:18:20-11:00  21.31305 -157.88881       0   0.0 Hōkūleʻa
  2021-08-19T10:09:47UTC 2021-08-19T00:09:47-10:00 2021-08-18T23:09:47-11:00  21.31326 -157.88875     325   0.0 Hikianalia
  2021-08-19T09:18:24UTC 2021-08-18T23:18:24-10:00 2021-08-18T22:18:24-11:00  21.31305 -157.88881       0   0.0 Hōkūleʻa
  2021-08-19T09:10:38UTC 2021-08-18T23:10:38-10:00 2021-08-18T22:10:38-11:00  21.31309 -157.88862     180   0.0 Hikianalia
  2021-08-19T08:18:56UTC 2021-08-18T22:18:56-10:00 2021-08-18T21:18:56-11:00  21.31304 -157.88881     299   0.0 Hōkūleʻa
  2021-08-19T08:17:47UTC 2021-08-18T22:17:47-10:00 2021-08-18T21:17:47-11:00  21.31313 -157.88862      49   0.0 Hikianalia
  2021-08-19T07:28:41UTC 2021-08-18T21:28:41-10:00 2021-08-18T20:28:41-11:00  21.31303 -157.88879       0   0.0 Hōkūleʻa
  2021-08-19T07:10:46UTC 2021-08-18T21:10:46-10:00 2021-08-18T20:10:46-11:00  21.31308 -157.88868     195   0.0 Hikianalia
  2021-08-19T06:18:31UTC 2021-08-18T20:18:31-10:00 2021-08-18T19:18:31-11:00  21.31302 -157.88879     180   0.0 Hōkūleʻa
  2021-08-19T06:10:39UTC 2021-08-18T20:10:39-10:00 2021-08-18T19:10:39-11:00  21.31323 -157.88864     350   0.0 Hikianalia
  2021-08-19T05:18:33UTC 2021-08-18T19:18:33-10:00 2021-08-18T18:18:33-11:00  21.31303 -157.88879     201   0.0 Hōkūleʻa
  2021-08-19T05:11:15UTC 2021-08-18T19:11:15-10:00 2021-08-18T18:11:15-11:00  21.31312 -157.88862     331   0.0 Hikianalia
  2021-08-19T04:20:35UTC 2021-08-18T18:20:35-10:00 2021-08-18T17:20:35-11:00  21.31302 -157.88856     128   0.0 Hikianalia
  2021-08-19T04:17:49UTC 2021-08-18T18:17:49-10:00 2021-08-18T17:17:49-11:00  21.31308 -157.88877      26   0.0 Hōkūleʻa
  2021-08-19T03:18:24UTC 2021-08-18T17:18:24-10:00 2021-08-18T16:18:24-11:00  21.31304 -157.88879     137   0.0 Hōkūleʻa
  2021-08-19T03:10:38UTC 2021-08-18T17:10:38-10:00 2021-08-18T16:10:38-11:00  21.31312 -157.88871     248   0.0 Hikianalia
  2021-08-19T02:17:29UTC 2021-08-18T16:17:29-10:00 2021-08-18T15:17:29-11:00  21.31306 -157.88881       0   0.0 Hōkūleʻa
  2021-08-19T02:10:07UTC 2021-08-18T16:10:07-10:00 2021-08-18T15:10:07-11:00  21.31315 -157.88862      10   0.0 Hikianalia
  2021-08-19T01:18:32UTC 2021-08-18T15:18:32-10:00 2021-08-18T14:18:32-11:00  21.31305 -157.88881      90   0.0 Hōkūleʻa
  2021-08-19T01:10:48UTC 2021-08-18T15:10:48-10:00 2021-08-18T14:10:48-11:00  21.31305 -157.88864     180   0.0 Hikianalia
  2021-08-19T00:20:43UTC 2021-08-18T14:20:43-10:00 2021-08-18T13:20:43-11:00  21.31313 -157.88864     335   0.0 Hikianalia
  2021-08-19T00:17:48UTC 2021-08-18T14:17:48-10:00 2021-08-18T13:17:48-11:00  21.31305 -157.88883     270   0.0 Hōkūleʻa
  2021-08-18T23:17:51UTC 2021-08-18T13:17:51-10:00 2021-08-18T12:17:51-11:00  21.31305 -157.88881     180   0.0 Hōkūleʻa
  2021-08-18T23:09:47UTC 2021-08-18T13:09:47-10:00 2021-08-18T12:09:47-11:00  21.31309 -157.88862     180   0.0 Hikianalia
  2021-08-18T22:18:32UTC 2021-08-18T12:18:32-10:00 2021-08-18T11:18:32-11:00  21.31306 -157.88881       0   0.0 Hōkūleʻa
  2021-08-18T22:11:18UTC 2021-08-18T12:11:18-10:00 2021-08-18T11:11:18-11:00  21.31314 -157.88862      75   0.0 Hikianalia
  2021-08-18T21:17:33UTC 2021-08-18T11:17:33-10:00 2021-08-18T10:17:33-11:00  21.31305 -157.88881      90   0.0 Hōkūleʻa
  2021-08-18T21:09:51UTC 2021-08-18T11:09:51-10:00 2021-08-18T10:09:51-11:00  21.31313 -157.88866     328   0.0 Hikianalia
  2021-08-18T20:17:38UTC 2021-08-18T10:17:38-10:00 2021-08-18T09:17:38-11:00  21.31305 -157.88883     297   0.0 Hōkūleʻa
  2021-08-18T20:10:42UTC 2021-08-18T10:10:42-10:00 2021-08-18T09:10:42-11:00  21.31307 -157.88862     180   0.0 Hikianalia
  2021-08-18T19:18:29UTC 2021-08-18T09:18:29-10:00 2021-08-18T08:18:29-11:00  21.31304 -157.88881      61   0.0 Hōkūleʻa
  2021-08-18T19:10:15UTC 2021-08-18T09:10:15-10:00 2021-08-18T08:10:15-11:00  21.31313 -157.88862     119   0.0 Hikianalia
  2021-08-18T18:17:30UTC 2021-08-18T08:17:30-10:00 2021-08-18T07:17:30-11:00  21.31303 -157.88883     180   0.0 Hōkūleʻa
  2021-08-18T18:11:27UTC 2021-08-18T08:11:27-10:00 2021-08-18T07:11:27-11:00  21.31314 -157.88864      71   0.0 Hikianalia
  2021-08-18T17:18:24UTC 2021-08-18T07:18:24-10:00 2021-08-18T06:18:24-11:00  21.31305 -157.88883       0   0.0 Hōkūleʻa
  2021-08-18T17:17:45UTC 2021-08-18T07:17:45-10:00 2021-08-18T06:17:45-11:00  21.31309 -157.88881     258   0.0 Hikianalia
  2021-08-18T16:18:47UTC 2021-08-18T06:18:47-10:00 2021-08-18T05:18:47-11:00  21.31304 -157.88883     270   0.0 Hōkūleʻa
  2021-08-18T16:17:35UTC 2021-08-18T06:17:35-10:00 2021-08-18T05:17:35-11:00  21.31312 -157.88864     298   0.0 Hikianalia
  2021-08-18T15:18:33UTC 2021-08-18T05:18:33-10:00 2021-08-18T04:18:33-11:00  21.31304 -157.88881      90   0.0 Hōkūleʻa
  2021-08-18T15:10:50UTC 2021-08-18T05:10:50-10:00 2021-08-18T04:10:50-11:00  21.31308 -157.88856      97   0.0 Hikianalia
  2021-08-18T14:18:22UTC 2021-08-18T04:18:22-10:00 2021-08-18T03:18:22-11:00  21.31304 -157.88883       0   0.0 Hōkūleʻa
  2021-08-18T14:10:45UTC 2021-08-18T04:10:45-10:00 2021-08-18T03:10:45-11:00  21.31309 -157.88864      90   0.0 Hikianalia
  2021-08-18T13:18:32UTC 2021-08-18T03:18:32-10:00 2021-08-18T02:18:32-11:00  21.31303 -157.88883     270   0.0 Hōkūleʻa
  2021-08-18T13:10:46UTC 2021-08-18T03:10:46-10:00 2021-08-18T02:10:46-11:00  21.31309 -157.88866     241   0.0 Hikianalia
  2021-08-18T12:18:48UTC 2021-08-18T02:18:48-10:00 2021-08-18T01:18:48-11:00  21.31303 -157.88881     137   0.0 Hōkūleʻa
  2021-08-18T12:11:18UTC 2021-08-18T02:11:18-10:00 2021-08-18T01:11:18-11:00  21.31311 -157.88862     118   0.0 Hikianalia
  2021-08-18T11:17:21UTC 2021-08-18T01:17:21-10:00 2021-08-18T00:17:21-11:00  21.31305 -157.88883       0   0.0 Hōkūleʻa
  2021-08-18T11:10:36UTC 2021-08-18T01:10:36-10:00 2021-08-18T00:10:36-11:00  21.31313 -157.88866     180   0.0 Hikianalia
  2021-08-18T10:18:24UTC 2021-08-18T00:18:24-10:00 2021-08-17T23:18:24-11:00  21.31304 -157.88883     180   0.0 Hōkūleʻa
  2021-08-18T10:09:38UTC 2021-08-18T00:09:38-10:00 2021-08-17T23:09:38-11:00  21.31315 -157.88866     327   0.0 Hikianalia
  2021-08-18T09:18:31UTC 2021-08-17T23:18:31-10:00 2021-08-17T22:18:31-11:00  21.31305 -157.88883       0   0.0 Hōkūleʻa
  2021-08-18T09:11:09UTC 2021-08-17T23:11:09-10:00 2021-08-17T22:11:09-11:00  21.31312 -157.88864     335   0.0 Hikianalia
  2021-08-18T08:18:48UTC 2021-08-17T22:18:48-10:00 2021-08-17T21:18:48-11:00  21.31305 -157.88883     241   0.0 Hōkūleʻa
  2021-08-18T08:10:38UTC 2021-08-17T22:10:38-10:00 2021-08-17T21:10:38-11:00  21.31308 -157.88862     224   0.0 Hikianalia
  2021-08-18T07:17:28UTC 2021-08-17T21:17:28-10:00 2021-08-17T20:17:28-11:00  21.31306 -157.88881       0   0.0 Hōkūleʻa
  2021-08-18T07:10:47UTC 2021-08-17T21:10:47-10:00 2021-08-17T20:10:47-11:00  21.31310 -157.88860     147   0.0 Hikianalia
  2021-08-18T06:22:06UTC 2021-08-17T20:22:06-10:00 2021-08-17T19:22:06-11:00  21.31313 -157.88862     180   0.0 Hikianalia
  2021-08-18T06:18:24UTC 2021-08-17T20:18:24-10:00 2021-08-17T19:18:24-11:00  21.31302 -157.88881     180   0.0 Hōkūleʻa
  2021-08-18T05:18:28UTC 2021-08-17T19:18:28-10:00 2021-08-17T18:18:28-11:00  21.31305 -157.88881     180   0.0 Hōkūleʻa
  2021-08-18T05:10:36UTC 2021-08-17T19:10:36-10:00 2021-08-17T18:10:36-11:00  21.31317 -157.88862       0   0.0 Hikianalia
  2021-08-18T04:18:44UTC 2021-08-17T18:18:44-10:00 2021-08-17T17:18:44-11:00  21.31306 -157.88881     180   0.0 Hōkūleʻa
  2021-08-18T04:10:38UTC 2021-08-17T18:10:38-10:00 2021-08-17T17:10:38-11:00  21.31317 -157.88862       0   0.0 Hikianalia
  2021-08-18T03:18:32UTC 2021-08-17T17:18:32-10:00 2021-08-17T16:18:32-11:00  21.31307 -157.88881       0   0.0 Hōkūleʻa
  2021-08-18T03:10:17UTC 2021-08-17T17:10:17-10:00 2021-08-17T16:10:17-11:00  21.31313 -157.88862     242   0.0 Hikianalia
  2021-08-18T02:18:24UTC 2021-08-17T16:18:24-10:00 2021-08-17T15:18:24-11:00  21.31306 -157.88881     180   0.0 Hōkūleʻa
  2021-08-18T02:10:08UTC 2021-08-17T16:10:08-10:00 2021-08-17T15:10:08-11:00  21.31314 -157.88860      80   0.0 Hikianalia
  2021-08-18T01:17:34UTC 2021-08-17T15:17:34-10:00 2021-08-17T14:17:34-11:00  21.31307 -157.88881       0   0.0 Hōkūleʻa
  2021-08-18T01:10:39UTC 2021-08-17T15:10:39-10:00 2021-08-17T14:10:39-11:00  21.31313 -157.88866       0   0.0 Hikianalia
  2021-08-18T00:19:50UTC 2021-08-17T14:19:50-10:00 2021-08-17T13:19:50-11:00  21.31313 -157.88866     270   0.0 Hikianalia
  2021-08-18T00:17:39UTC 2021-08-17T14:17:39-10:00 2021-08-17T13:17:39-11:00  21.31306 -157.88881      61   0.0 Hōkūleʻa
  2021-08-17T23:18:30UTC 2021-08-17T13:18:30-10:00 2021-08-17T12:18:30-11:00  21.31305 -157.88883     270   0.0 Hōkūleʻa
  2021-08-17T23:10:09UTC 2021-08-17T13:10:09-10:00 2021-08-17T12:10:09-11:00  21.31313 -157.88862      90   0.0 Hikianalia
  2021-08-17T22:18:33UTC 2021-08-17T12:18:33-10:00 2021-08-17T11:18:33-11:00  21.31305 -157.88879       0   0.0 Hōkūleʻa
  2021-08-17T22:10:48UTC 2021-08-17T12:10:48-10:00 2021-08-17T11:10:48-11:00  21.31313 -157.88866     125   0.0 Hikianalia
  2021-08-17T21:17:32UTC 2021-08-17T11:17:32-10:00 2021-08-17T10:17:32-11:00  21.31304 -157.88879     117   0.0 Hōkūleʻa
  2021-08-17T21:10:46UTC 2021-08-17T11:10:46-10:00 2021-08-17T10:10:46-11:00  21.31323 -157.88881     301   0.0 Hikianalia
  2021-08-17T20:19:13UTC 2021-08-17T10:19:13-10:00 2021-08-17T09:19:13-11:00  21.31305 -157.88881     119   0.0 Hōkūleʻa
  2021-08-17T20:10:16UTC 2021-08-17T10:10:16-10:00 2021-08-17T09:10:16-11:00  21.31312 -157.88862     340   0.0 Hikianalia
  2021-08-17T19:17:33UTC 2021-08-17T09:17:33-10:00 2021-08-17T08:17:33-11:00  21.31306 -157.88883     298   0.0 Hōkūleʻa
  2021-08-17T19:09:49UTC 2021-08-17T09:09:49-10:00 2021-08-17T08:09:49-11:00  21.31302 -157.88858     146   0.0 Hikianalia
  2021-08-17T18:18:32UTC 2021-08-17T08:18:32-10:00 2021-08-17T07:18:32-11:00  21.31304 -157.88879      90   0.0 Hōkūleʻa
  2021-08-17T18:10:37UTC 2021-08-17T08:10:37-10:00 2021-08-17T07:10:37-11:00  21.31313 -157.88866       0   0.0 Hikianalia
  2021-08-17T17:18:29UTC 2021-08-17T07:18:29-10:00 2021-08-17T06:18:29-11:00  21.31304 -157.88883     299   0.0 Hōkūleʻa
  2021-08-17T17:10:36UTC 2021-08-17T07:10:36-10:00 2021-08-17T06:10:36-11:00  21.31310 -157.88866     255   0.0 Hikianalia
  2021-08-17T16:18:41UTC 2021-08-17T06:18:41-10:00 2021-08-17T05:18:41-11:00  21.31303 -157.88881     180   0.0 Hōkūleʻa
  2021-08-17T16:11:13UTC 2021-08-17T06:11:13-10:00 2021-08-17T05:11:13-11:00  21.31311 -157.88862      82   0.0 Hikianalia
  2021-08-17T15:27:12UTC 2021-08-17T05:27:12-10:00 2021-08-17T04:27:12-11:00  21.31305 -157.88881       0   0.0 Hōkūleʻa
  2021-08-17T15:10:38UTC 2021-08-17T05:10:38-10:00 2021-08-17T04:10:38-11:00  21.31310 -157.88871     298   0.0 Hikianalia
  2021-08-17T14:18:32UTC 2021-08-17T04:18:32-10:00 2021-08-17T03:18:32-11:00  21.31304 -157.88881     117   0.0 Hōkūleʻa
  2021-08-17T14:09:45UTC 2021-08-17T04:09:45-10:00 2021-08-17T03:09:45-11:00  21.31305 -157.88860     165   0.0 Hikianalia
  2021-08-17T13:18:27UTC 2021-08-17T03:18:27-10:00 2021-08-17T02:18:27-11:00  21.31305 -157.88883       0   0.0 Hōkūleʻa
  2021-08-17T13:10:39UTC 2021-08-17T03:10:39-10:00 2021-08-17T02:10:39-11:00  21.31312 -157.88862       0   0.0 Hikianalia
  2021-08-17T12:18:48UTC 2021-08-17T02:18:48-10:00 2021-08-17T01:18:48-11:00  21.31305 -157.88883     127   0.0 Hōkūleʻa
  2021-08-17T12:11:11UTC 2021-08-17T02:11:11-10:00 2021-08-17T01:11:11-11:00  21.31311 -157.88862     118   0.0 Hikianalia
  2021-08-17T11:18:35UTC 2021-08-17T01:18:35-10:00 2021-08-17T00:18:35-11:00  21.31312 -157.88894     305   0.0 Hōkūleʻa
  2021-08-17T11:10:48UTC 2021-08-17T01:10:48-10:00 2021-08-17T00:10:48-11:00  21.31319 -157.88877     279   0.0 Hikianalia
  2021-08-17T10:18:30UTC 2021-08-17T00:18:30-10:00 2021-08-16T23:18:30-11:00  21.31303 -157.88879     137   0.0 Hōkūleʻa
  2021-08-17T10:10:47UTC 2021-08-17T00:10:47-10:00 2021-08-16T23:10:47-11:00  21.31317 -157.88862       0   0.0 Hikianalia
  2021-08-17T09:18:32UTC 2021-08-16T23:18:32-10:00 2021-08-16T22:18:32-11:00  21.31305 -157.88881       0   0.0 Hōkūleʻa
  2021-08-17T09:10:45UTC 2021-08-16T23:10:45-10:00 2021-08-16T22:10:45-11:00  21.31313 -157.88862       0   0.0 Hikianalia
  2021-08-17T08:18:47UTC 2021-08-16T22:18:47-10:00 2021-08-16T21:18:47-11:00  21.31304 -157.88881     180   0.0 Hōkūleʻa
  2021-08-17T08:11:18UTC 2021-08-16T22:11:18-10:00 2021-08-16T21:11:18-11:00  21.31311 -157.88862     141   0.0 Hikianalia
  2021-08-17T07:18:24UTC 2021-08-16T21:18:24-10:00 2021-08-16T20:18:24-11:00  21.31305 -157.88881       0   0.0 Hōkūleʻa
  2021-08-17T07:10:46UTC 2021-08-16T21:10:46-10:00 2021-08-16T20:10:46-11:00  21.31319 -157.88868     319   0.0 Hikianalia
  2021-08-17T06:17:32UTC 2021-08-16T20:17:32-10:00 2021-08-16T19:17:32-11:00  21.31303 -157.88881     180   0.0 Hōkūleʻa
  2021-08-17T06:10:46UTC 2021-08-16T20:10:46-10:00 2021-08-16T19:10:46-11:00  21.31305 -157.88856     137   0.0 Hikianalia
  2021-08-17T05:18:38UTC 2021-08-16T19:18:38-10:00 2021-08-16T18:18:38-11:00  21.31305 -157.88881     284   0.0 Hōkūleʻa
  2021-08-17T05:11:15UTC 2021-08-16T19:11:15-10:00 2021-08-16T18:11:15-11:00  21.31311 -157.88862     270   0.0 Hikianalia
  2021-08-17T04:18:32UTC 2021-08-16T18:18:32-10:00 2021-08-16T17:18:32-11:00  21.31304 -157.88877     118   0.0 Hōkūleʻa
  2021-08-17T04:10:39UTC 2021-08-16T18:10:39-10:00 2021-08-16T17:10:39-11:00  21.31311 -157.88858      90   0.0 Hikianalia
  2021-08-17T03:25:36UTC 2021-08-16T17:25:36-10:00 2021-08-16T16:25:36-11:00  21.31306 -157.88881       0   0.0 Hōkūleʻa
  2021-08-17T03:11:10UTC 2021-08-16T17:11:10-10:00 2021-08-16T16:11:10-11:00  21.31311 -157.88862     118   0.0 Hikianalia
  2021-08-17T02:18:48UTC 2021-08-16T16:18:48-10:00 2021-08-16T15:18:48-11:00  21.31306 -157.88881      75   0.0 Hōkūleʻa
  2021-08-17T02:09:45UTC 2021-08-16T16:09:45-10:00 2021-08-16T15:09:45-11:00  21.31313 -157.88866       0   0.0 Hikianalia
  2021-08-17T01:18:28UTC 2021-08-16T15:18:28-10:00 2021-08-16T14:18:28-11:00  21.31304 -157.88890     251   0.0 Hōkūleʻa
  2021-08-17T01:10:39UTC 2021-08-16T15:10:39-10:00 2021-08-16T14:10:39-11:00  21.31313 -157.88866     308   0.0 Hikianalia
  2021-08-17T00:27:11UTC 2021-08-16T14:27:11-10:00 2021-08-16T13:27:11-11:00  21.31306 -157.88883     299   0.0 Hōkūleʻa
  2021-08-17T00:11:28UTC 2021-08-16T14:11:28-10:00 2021-08-16T13:11:28-11:00  21.31310 -157.88862     128   0.0 Hikianalia
  2021-08-16T23:17:29UTC 2021-08-16T13:17:29-10:00 2021-08-16T12:17:29-11:00  21.31305 -157.88881       0   0.0 Hōkūleʻa
  2021-08-16T23:09:48UTC 2021-08-16T13:09:48-10:00 2021-08-16T12:09:48-11:00  21.31313 -157.88866     102   0.0 Hikianalia
  2021-08-16T22:21:55UTC 2021-08-16T12:21:55-10:00 2021-08-16T11:21:55-11:00  21.31315 -157.88877     287   0.0 Hikianalia
  2021-08-16T22:18:42UTC 2021-08-16T12:18:42-10:00 2021-08-16T11:18:42-11:00  21.31305 -157.88881      90   0.0 Hōkūleʻa
  2021-08-16T21:17:42UTC 2021-08-16T11:17:42-10:00 2021-08-16T10:17:42-11:00  21.31305 -157.88883       0   0.0 Hōkūleʻa
  2021-08-16T21:10:10UTC 2021-08-16T11:10:10-10:00 2021-08-16T10:10:10-11:00  21.31311 -157.88862     118   0.0 Hikianalia
  2021-08-16T20:18:31UTC 2021-08-16T10:18:31-10:00 2021-08-16T09:18:31-11:00  21.31304 -157.88883     180   0.0 Hōkūleʻa
  2021-08-16T20:09:50UTC 2021-08-16T10:09:50-10:00 2021-08-16T09:09:50-11:00  21.31313 -157.88866     319   0.0 Hikianalia
  2021-08-16T19:17:33UTC 2021-08-16T09:17:33-10:00 2021-08-16T08:17:33-11:00  21.31306 -157.88883       0   0.0 Hōkūleʻa
  2021-08-16T19:10:37UTC 2021-08-16T09:10:37-10:00 2021-08-16T08:10:37-11:00  21.31299 -157.88853     143   0.0 Hikianalia
  2021-08-16T18:18:40UTC 2021-08-16T08:18:40-10:00 2021-08-16T07:18:40-11:00  21.31304 -157.88883     280   0.0 Hōkūleʻa
  2021-08-16T18:10:10UTC 2021-08-16T08:10:10-10:00 2021-08-16T07:10:10-11:00  21.31310 -157.88862      61   0.0 Hikianalia
  2021-08-16T17:18:41UTC 2021-08-16T07:18:41-10:00 2021-08-16T06:18:41-11:00  21.31303 -157.88877      54   0.0 Hōkūleʻa
  2021-08-16T17:11:16UTC 2021-08-16T07:11:16-10:00 2021-08-16T06:11:16-11:00  21.31309 -157.88864      15   0.0 Hikianalia
  2021-08-16T16:18:37UTC 2021-08-16T06:18:37-10:00 2021-08-16T05:18:37-11:00  21.31298 -157.88883     212   0.0 Hōkūleʻa
  2021-08-16T16:10:46UTC 2021-08-16T06:10:46-10:00 2021-08-16T05:10:46-11:00  21.31302 -157.88866     217   0.0 Hikianalia
  2021-08-16T15:18:24UTC 2021-08-16T05:18:24-10:00 2021-08-16T04:18:24-11:00  21.31302 -157.88881     285   0.0 Hōkūleʻa
  2021-08-16T15:10:45UTC 2021-08-16T05:10:45-10:00 2021-08-16T04:10:45-11:00  21.31307 -157.88862     180   0.0 Hikianalia
  2021-08-16T14:18:45UTC 2021-08-16T04:18:45-10:00 2021-08-16T03:18:45-11:00  21.31300 -157.88877     118   0.0 Hōkūleʻa
  2021-08-16T14:11:09UTC 2021-08-16T04:11:09-10:00 2021-08-16T03:11:09-11:00  21.31310 -157.88862     280   0.0 Hikianalia
  2021-08-16T13:18:27UTC 2021-08-16T03:18:27-10:00 2021-08-16T02:18:27-11:00  21.31302 -157.88879      90   0.0 Hōkūleʻa
  2021-08-16T13:10:47UTC 2021-08-16T03:10:47-10:00 2021-08-16T02:10:47-11:00  21.31309 -157.88856     102   0.0 Hikianalia
  2021-08-16T12:18:23UTC 2021-08-16T02:18:23-10:00 2021-08-16T01:18:23-11:00  21.31302 -157.88881     299   0.0 Hōkūleʻa
  2021-08-16T12:10:49UTC 2021-08-16T02:10:49-10:00 2021-08-16T01:10:49-11:00  21.31311 -157.88866     137   0.0 Hikianalia
  2021-08-16T11:26:34UTC 2021-08-16T01:26:34-10:00 2021-08-16T00:26:34-11:00  21.31300 -157.88879     138   0.0 Hōkūleʻa
  2021-08-16T11:10:43UTC 2021-08-16T01:10:43-10:00 2021-08-16T00:10:43-11:00  21.31313 -157.88868     284   0.0 Hikianalia
  2021-08-16T10:18:00UTC 2021-08-16T00:18:00-10:00 2021-08-15T23:18:00-11:00  21.31303 -157.88881     299   0.0 Hōkūleʻa
  2021-08-16T10:11:06UTC 2021-08-16T00:11:06-10:00 2021-08-15T23:11:06-11:00  21.31312 -157.88864     299   0.0 Hikianalia
  2021-08-16T09:18:29UTC 2021-08-15T23:18:29-10:00 2021-08-15T22:18:29-11:00  21.31302 -157.88879       0   0.0 Hōkūleʻa
  2021-08-16T09:11:01UTC 2021-08-15T23:11:01-10:00 2021-08-15T22:11:01-11:00  21.31311 -157.88862     180   0.0 Hikianalia
  2021-08-16T08:18:32UTC 2021-08-15T22:18:32-10:00 2021-08-15T21:18:32-11:00  21.31302 -157.88879     327   0.0 Hōkūleʻa
  2021-08-16T08:10:17UTC 2021-08-15T22:10:17-10:00 2021-08-15T21:10:17-11:00  21.31312 -157.88862      75   0.0 Hikianalia
  2021-08-16T07:18:32UTC 2021-08-15T21:18:32-10:00 2021-08-15T20:18:32-11:00  21.31298 -157.88877     147   0.0 Hōkūleʻa
  2021-08-16T07:10:39UTC 2021-08-15T21:10:39-10:00 2021-08-15T20:10:39-11:00  21.31311 -157.88866     280   0.0 Hikianalia
  2021-08-16T06:18:49UTC 2021-08-15T20:18:49-10:00 2021-08-15T19:18:49-11:00  21.31302 -157.88879       0   0.0 Hōkūleʻa
  2021-08-16T06:10:46UTC 2021-08-15T20:10:46-10:00 2021-08-15T19:10:46-11:00  21.31310 -157.88860      90   0.0 Hikianalia
  2021-08-16T05:18:28UTC 2021-08-15T19:18:28-10:00 2021-08-15T18:18:28-11:00  21.31299 -157.88879     224   0.0 Hōkūleʻa
  2021-08-16T05:11:17UTC 2021-08-15T19:11:17-10:00 2021-08-15T18:11:17-11:00  21.31310 -157.88862     232   0.0 Hikianalia
  2021-08-16T04:17:25UTC 2021-08-15T18:17:25-10:00 2021-08-15T17:17:25-11:00  21.31302 -157.88877       0   0.0 Hōkūleʻa
  2021-08-16T04:10:48UTC 2021-08-15T18:10:48-10:00 2021-08-15T17:10:48-11:00  21.31313 -157.88858      43   0.0 Hikianalia
  2021-08-16T03:18:24UTC 2021-08-15T17:18:24-10:00 2021-08-15T16:18:24-11:00  21.31300 -157.88877     137   0.0 Hōkūleʻa
  2021-08-16T03:11:11UTC 2021-08-15T17:11:11-10:00 2021-08-15T16:11:11-11:00  21.31311 -157.88860     109   0.0 Hikianalia
  2021-08-16T02:17:45UTC 2021-08-15T16:17:45-10:00 2021-08-15T15:17:45-11:00  21.31303 -157.88879     119   0.0 Hōkūleʻa
  2021-08-16T02:09:51UTC 2021-08-15T16:09:51-10:00 2021-08-15T15:09:51-11:00  21.31313 -157.88866     285   0.0 Hikianalia
  2021-08-16T01:18:33UTC 2021-08-15T15:18:33-10:00 2021-08-15T14:18:33-11:00  21.31304 -157.88881     299   0.0 Hōkūleʻa
  2021-08-16T01:10:47UTC 2021-08-15T15:10:47-10:00 2021-08-15T14:10:47-11:00  21.31309 -157.88849     112   0.0 Hikianalia
  2021-08-16T00:31:43UTC 2021-08-15T14:31:43-10:00 2021-08-15T13:31:43-11:00  21.31312 -157.88858      97   0.0 Hikianalia
  2021-08-16T00:17:31UTC 2021-08-15T14:17:31-10:00 2021-08-15T13:17:31-11:00  21.31303 -157.88879       0   0.0 Hōkūleʻa
  2021-08-15T23:18:37UTC 2021-08-15T13:18:37-10:00 2021-08-15T12:18:37-11:00  21.31302 -157.88879       0   0.0 Hōkūleʻa
  2021-08-15T23:18:20UTC 2021-08-15T13:18:20-10:00 2021-08-15T12:18:20-11:00  21.31313 -157.88866     270   0.0 Hikianalia
  2021-08-15T22:27:03UTC 2021-08-15T12:27:03-10:00 2021-08-15T11:27:03-11:00  21.31302 -157.88879       0   0.0 Hōkūleʻa
  2021-08-15T22:09:59UTC 2021-08-15T12:09:59-10:00 2021-08-15T11:09:59-11:00  21.31313 -157.88864     297   0.0 Hikianalia
  2021-08-15T21:17:32UTC 2021-08-15T11:17:32-10:00 2021-08-15T10:17:32-11:00  21.31302 -157.88879      43   0.0 Hōkūleʻa
  2021-08-15T21:09:39UTC 2021-08-15T11:09:39-10:00 2021-08-15T10:09:39-11:00  21.31312 -157.88862       0   0.0 Hikianalia
  2021-08-15T20:17:38UTC 2021-08-15T10:17:38-10:00 2021-08-15T09:17:38-11:00  21.31299 -157.88881     280   0.0 Hōkūleʻa
  2021-08-15T20:10:09UTC 2021-08-15T10:10:09-10:00 2021-08-15T09:10:09-11:00  21.31312 -157.88862     306   0.0 Hikianalia
  2021-08-15T19:18:40UTC 2021-08-15T09:18:40-10:00 2021-08-15T08:18:40-11:00  21.31298 -157.88875     137   0.0 Hōkūleʻa
  2021-08-15T19:10:47UTC 2021-08-15T09:10:47-10:00 2021-08-15T08:10:47-11:00  21.31308 -157.88856     105   0.0 Hikianalia
  2021-08-15T18:18:31UTC 2021-08-15T08:18:31-10:00 2021-08-15T07:18:31-11:00  21.31303 -157.88879     119   0.0 Hōkūleʻa
  2021-08-15T18:09:47UTC 2021-08-15T08:09:47-10:00 2021-08-15T07:09:47-11:00  21.31310 -157.88864     205   0.0 Hikianalia
  2021-08-15T17:17:30UTC 2021-08-15T07:17:30-10:00 2021-08-15T06:17:30-11:00  21.31304 -157.88881       0   0.0 Hōkūleʻa
  2021-08-15T17:10:38UTC 2021-08-15T07:10:38-10:00 2021-08-15T06:10:38-11:00  21.31314 -157.88862       0   0.0 Hikianalia
  2021-08-15T16:18:37UTC 2021-08-15T06:18:37-10:00 2021-08-15T05:18:37-11:00  21.31302 -157.88881     317   0.0 Hōkūleʻa
  2021-08-15T16:11:08UTC 2021-08-15T06:11:08-10:00 2021-08-15T05:11:08-11:00  21.31310 -157.88862     242   0.0 Hikianalia
  2021-08-15T15:21:24UTC 2021-08-15T05:21:24-10:00 2021-08-15T04:21:24-11:00  21.31313 -157.88856      62   0.0 Hikianalia
  2021-08-15T15:18:30UTC 2021-08-15T05:18:30-10:00 2021-08-15T04:18:30-11:00  21.31299 -157.88879      74   0.0 Hōkūleʻa
  2021-08-15T14:18:29UTC 2021-08-15T04:18:29-10:00 2021-08-15T03:18:29-11:00  21.31298 -157.88883     212   0.0 Hōkūleʻa
  2021-08-15T14:10:43UTC 2021-08-15T04:10:43-10:00 2021-08-15T03:10:43-11:00  21.31310 -157.88862     180   0.0 Hikianalia
  2021-08-15T13:18:31UTC 2021-08-15T03:18:31-10:00 2021-08-15T02:18:31-11:00  21.31302 -157.88881     270   0.0 Hōkūleʻa
  2021-08-15T13:10:47UTC 2021-08-15T03:10:47-10:00 2021-08-15T02:10:47-11:00  21.31312 -157.88862       0   0.0 Hikianalia
  2021-08-15T12:18:39UTC 2021-08-15T02:18:39-10:00 2021-08-15T01:18:39-11:00  21.31302 -157.88879      61   0.0 Hōkūleʻa
  2021-08-15T12:11:09UTC 2021-08-15T02:11:09-10:00 2021-08-15T01:11:09-11:00  21.31309 -157.88862     134   0.0 Hikianalia
  2021-08-15T11:18:37UTC 2021-08-15T01:18:37-10:00 2021-08-15T00:18:37-11:00  21.31300 -157.88881       0   0.0 Hōkūleʻa
  2021-08-15T11:10:50UTC 2021-08-15T01:10:50-10:00 2021-08-15T00:10:50-11:00  21.31319 -157.88873     314   0.0 Hikianalia
  2021-08-15T10:18:32UTC 2021-08-15T00:18:32-10:00 2021-08-14T23:18:32-11:00  21.31299 -157.88881     223   0.0 Hōkūleʻa
  2021-08-15T10:10:40UTC 2021-08-15T00:10:40-10:00 2021-08-14T23:10:40-11:00  21.31309 -157.88862     180   0.0 Hikianalia
  2021-08-15T09:18:31UTC 2021-08-14T23:18:31-10:00 2021-08-14T22:18:31-11:00  21.31302 -157.88879       0   0.0 Hōkūleʻa
  2021-08-15T09:10:48UTC 2021-08-14T23:10:48-10:00 2021-08-14T22:10:48-11:00  21.31310 -157.88862      25   1.1 Hikianalia
  2021-08-15T08:18:38UTC 2021-08-14T22:18:38-10:00 2021-08-14T21:18:38-11:00  21.31300 -157.88879     180   0.0 Hōkūleʻa
  2021-08-15T08:11:14UTC 2021-08-14T22:11:14-10:00 2021-08-14T21:11:14-11:00  21.29616 -157.89701     303   7.5 Hikianalia
  2021-08-15T07:18:42UTC 2021-08-14T21:18:42-10:00 2021-08-14T20:18:42-11:00  21.31303 -157.88879       0   0.0 Hōkūleʻa
  2021-08-15T07:10:47UTC 2021-08-14T21:10:47-10:00 2021-08-14T20:10:47-11:00  21.22743 -157.78313     294   9.6 Hikianalia
  2021-08-15T06:17:32UTC 2021-08-14T20:17:32-10:00 2021-08-14T19:17:32-11:00  21.31300 -157.88879     270   0.0 Hōkūleʻa
  2021-08-15T06:10:52UTC 2021-08-14T20:10:52-10:00 2021-08-14T19:10:52-11:00  21.16338 -157.62585     293   8.9 Hikianalia
  2021-08-15T05:18:21UTC 2021-08-14T19:18:21-10:00 2021-08-14T18:18:21-11:00  21.31300 -157.88877     119   0.0 Hōkūleʻa
  2021-08-15T05:09:51UTC 2021-08-14T19:09:51-10:00 2021-08-14T19:09:51-10:00  21.10558 -157.47732     287   7.0 Hikianalia
  2021-08-15T04:18:42UTC 2021-08-14T18:18:42-10:00 2021-08-14T17:18:42-11:00  21.31303 -157.88881     270   0.0 Hōkūleʻa
  2021-08-15T03:18:33UTC 2021-08-14T17:18:33-10:00 2021-08-14T16:18:33-11:00  21.31303 -157.88877     118   0.0 Hōkūleʻa
  2021-08-15T02:17:28UTC 2021-08-14T16:17:28-10:00 2021-08-14T15:17:28-11:00  21.31305 -157.88881       0   0.0 Hōkūleʻa
  2021-08-15T02:09:43UTC 2021-08-14T16:09:43-10:00 2021-08-14T16:09:43-10:00  21.00466 -157.11762     281   6.5 Hikianalia
  2021-08-15T01:18:25UTC 2021-08-14T15:18:25-10:00 2021-08-14T14:18:25-11:00  21.31302 -157.88881       0   0.0 Hōkūleʻa
  2021-08-15T01:10:47UTC 2021-08-14T15:10:47-10:00 2021-08-14T15:10:47-10:00  20.98381 -157.00596     286   7.2 Hikianalia
  2021-08-15T00:17:45UTC 2021-08-14T14:17:45-10:00 2021-08-14T13:17:45-11:00  21.31302 -157.88881     270   0.0 Hōkūleʻa
  2021-08-15T00:10:20UTC 2021-08-14T14:10:20-10:00 2021-08-14T14:10:20-10:00  20.94978 -156.88193     284   7.6 Hikianalia
  2021-08-14T23:18:28UTC 2021-08-14T13:18:28-10:00 2021-08-14T12:18:28-11:00  21.31302 -157.88877      90   0.0 Hōkūleʻa
  2021-08-14T23:09:51UTC 2021-08-14T13:09:51-10:00 2021-08-14T13:09:51-10:00  20.91775 -156.74924     290   3.7 Hikianalia
  2021-08-14T22:17:22UTC 2021-08-14T12:17:22-10:00 2021-08-14T11:17:22-11:00  21.31302 -157.88881     241   0.0 Hōkūleʻa
  2021-08-14T22:09:48UTC 2021-08-14T12:09:48-10:00 2021-08-14T12:09:48-10:00  20.89673 -156.68708     217   0.0 Hikianalia
  2021-08-14T21:17:24UTC 2021-08-14T11:17:24-10:00 2021-08-14T10:17:24-11:00  21.31303 -157.88879      61   0.0 Hōkūleʻa
  2021-08-14T21:10:47UTC 2021-08-14T11:10:47-10:00 2021-08-14T11:10:47-10:00  20.89683 -156.68699      46   0.0 Hikianalia
  2021-08-14T20:17:47UTC 2021-08-14T10:17:47-10:00 2021-08-14T09:17:47-11:00  21.31302 -157.88881      43   0.0 Hōkūleʻa
  2021-08-14T20:11:22UTC 2021-08-14T10:11:22-10:00 2021-08-14T10:11:22-10:00  20.89672 -156.68712     265   0.0 Hikianalia
  2021-08-14T19:18:36UTC 2021-08-14T09:18:36-10:00 2021-08-14T08:18:36-11:00  21.31299 -157.88883       0   0.0 Hōkūleʻa
  2021-08-14T19:09:48UTC 2021-08-14T09:09:48-10:00 2021-08-14T09:09:48-10:00  20.89673 -156.68699      78   0.0 Hikianalia
  2021-08-14T18:18:33UTC 2021-08-14T08:18:33-10:00 2021-08-14T07:18:33-11:00  21.31299 -157.88883     243   0.0 Hōkūleʻa
  2021-08-14T18:10:39UTC 2021-08-14T08:10:39-10:00 2021-08-14T08:10:39-10:00  20.89663 -156.68746      42   1.1 Hikianalia
  2021-08-14T17:18:30UTC 2021-08-14T07:18:30-10:00 2021-08-14T06:18:30-11:00  21.31300 -157.88881       0   0.0 Hōkūleʻa
  2021-08-14T17:10:50UTC 2021-08-14T07:10:50-10:00 2021-08-14T07:10:50-10:00  20.88324 -156.70040      25   3.6 Hikianalia
  2021-08-14T16:18:38UTC 2021-08-14T06:18:38-10:00 2021-08-14T05:18:38-11:00  21.31300 -157.88881     180   0.0 Hōkūleʻa
  2021-08-14T16:11:14UTC 2021-08-14T06:11:14-10:00 2021-08-14T06:11:14-10:00  20.82942 -156.72718      40   3.8 Hikianalia
  2021-08-14T15:26:48UTC 2021-08-14T05:26:48-10:00 2021-08-14T04:26:48-11:00  21.31302 -157.88881     299   0.0 Hōkūleʻa
  2021-08-14T15:10:43UTC 2021-08-14T05:10:43-10:00 2021-08-14T05:10:43-10:00  20.78004 -156.77164      47   4.1 Hikianalia
  2021-08-14T14:18:27UTC 2021-08-14T04:18:27-10:00 2021-08-14T03:18:27-11:00  21.31300 -157.88879       0   0.0 Hōkūleʻa
  2021-08-14T14:09:49UTC 2021-08-14T04:09:49-10:00 2021-08-14T04:09:49-10:00  20.73303 -156.82524      70   3.8 Hikianalia
  2021-08-14T13:18:32UTC 2021-08-14T03:18:32-10:00 2021-08-14T02:18:32-11:00  21.31300 -157.88879      90   0.0 Hōkūleʻa
  2021-08-14T13:10:40UTC 2021-08-14T03:10:40-10:00 2021-08-14T03:10:40-10:00  20.71158 -156.88719     106   4.0 Hikianalia
  2021-08-14T12:18:48UTC 2021-08-14T02:18:48-10:00 2021-08-14T01:18:48-11:00  21.31300 -157.88881     180   0.0 Hōkūleʻa
  2021-08-14T11:17:22UTC 2021-08-14T01:17:22-10:00 2021-08-14T00:17:22-11:00  21.31303 -157.88881       0   0.0 Hōkūleʻa
  2021-08-14T11:11:51UTC 2021-08-14T01:11:51-10:00 2021-08-14T01:11:51-10:00  20.74764 -157.02285     133   5.2 Hikianalia
  2021-08-14T10:18:20UTC 2021-08-14T00:18:20-10:00 2021-08-13T23:18:20-11:00  21.31300 -157.88881       0   0.0 Hōkūleʻa
  2021-08-14T10:10:51UTC 2021-08-14T00:10:51-10:00 2021-08-14T00:10:51-10:00  20.80705 -157.09138     131   4.9 Hikianalia
  2021-08-14T09:29:40UTC 2021-08-13T23:29:40-10:00 2021-08-13T22:29:40-11:00  21.31300 -157.88881     241   0.0 Hōkūleʻa
  2021-08-14T09:10:48UTC 2021-08-13T23:10:48-10:00 2021-08-13T23:10:48-10:00  20.86097 -157.15792     130   4.0 Hikianalia
  2021-08-14T08:17:44UTC 2021-08-13T22:17:44-10:00 2021-08-13T21:17:44-11:00  21.31302 -157.88879     138   0.0 Hōkūleʻa
  2021-08-14T08:10:18UTC 2021-08-13T22:10:18-10:00 2021-08-13T22:10:18-10:00  20.90472 -157.21318     131   4.4 Hikianalia
  2021-08-14T07:19:24UTC 2021-08-13T21:19:24-10:00 2021-08-13T20:19:24-11:00  21.31304 -157.88881     318   0.0 Hōkūleʻa
  2021-08-14T06:17:44UTC 2021-08-13T20:17:44-10:00 2021-08-13T19:17:44-11:00  21.31302 -157.88879     242   0.0 Hōkūleʻa
  2021-08-14T05:18:21UTC 2021-08-13T19:18:21-10:00 2021-08-13T18:18:21-11:00  21.31303 -157.88877      90   0.0 Hōkūleʻa
  2021-08-14T04:18:41UTC 2021-08-13T18:18:41-10:00 2021-08-13T17:18:41-11:00  21.31303 -157.88879       0   0.0 Hōkūleʻa
  2021-08-14T04:10:12UTC 2021-08-13T18:10:12-10:00 2021-08-13T18:10:12-10:00  21.09868 -157.44822     130   5.3 Hikianalia
  2021-08-14T03:17:30UTC 2021-08-13T17:17:30-10:00 2021-08-13T16:17:30-11:00  21.31303 -157.88879     119   0.0 Hōkūleʻa
  2021-08-14T03:10:43UTC 2021-08-13T17:10:43-10:00 2021-08-13T16:10:43-11:00  21.15446 -157.51974     128   5.4 Hikianalia
  2021-08-14T02:18:33UTC 2021-08-13T16:18:33-10:00 2021-08-13T15:18:33-11:00  21.31304 -157.88881      61   0.0 Hōkūleʻa
  2021-08-14T02:09:46UTC 2021-08-13T16:09:46-10:00 2021-08-13T15:09:46-11:00  21.21052 -157.59628     117   4.4 Hikianalia
  2021-08-14T01:17:32UTC 2021-08-13T15:17:32-10:00 2021-08-13T14:17:32-11:00  21.31303 -157.88883     180   0.0 Hōkūleʻa
  2021-08-14T01:10:14UTC 2021-08-13T15:10:14-10:00 2021-08-13T14:10:14-11:00  21.24344 -157.66664      93   5.8 Hikianalia
  2021-08-14T00:17:40UTC 2021-08-13T14:17:40-10:00 2021-08-13T13:17:40-11:00  21.31305 -157.88883     318   0.0 Hōkūleʻa
  2021-08-14T00:10:39UTC 2021-08-13T14:10:39-10:00 2021-08-13T13:10:39-11:00  21.24817 -157.77011     105   6.1 Hikianalia
  2021-08-13T23:27:14UTC 2021-08-13T13:27:14-10:00 2021-08-13T12:27:14-11:00  21.31300 -157.88879     242   0.0 Hōkūleʻa
  2021-08-13T23:10:15UTC 2021-08-13T13:10:15-10:00 2021-08-13T12:10:15-11:00  21.27550 -157.87626     163   2.4 Hikianalia
  2021-08-13T22:17:32UTC 2021-08-13T12:17:32-10:00 2021-08-13T11:17:32-11:00  21.31302 -157.88877      75   0.0 Hōkūleʻa
  2021-08-13T22:10:51UTC 2021-08-13T12:10:51-10:00 2021-08-13T11:10:51-11:00  21.31310 -157.88862     270   0.0 Hikianalia
  2021-08-13T21:17:41UTC 2021-08-13T11:17:41-10:00 2021-08-13T10:17:41-11:00  21.31300 -157.88881     180   0.0 Hōkūleʻa
  2021-08-13T21:09:45UTC 2021-08-13T11:09:45-10:00 2021-08-13T10:09:45-11:00  21.31310 -157.88853      98   0.0 Hikianalia
  2021-08-13T20:18:46UTC 2021-08-13T10:18:46-10:00 2021-08-13T09:18:46-11:00  21.31303 -157.88881       0   0.0 Hōkūleʻa
  2021-08-13T20:11:16UTC 2021-08-13T10:11:16-10:00 2021-08-13T09:11:16-11:00  21.31311 -157.88862     137   0.0 Hikianalia
  2021-08-13T19:18:44UTC 2021-08-13T09:18:44-10:00 2021-08-13T08:18:44-11:00  21.31300 -157.88881      90   0.0 Hōkūleʻa
  2021-08-13T19:17:08UTC 2021-08-13T09:17:08-10:00 2021-08-13T08:17:08-11:00  21.31313 -157.88864     343   0.0 Hikianalia
  2021-08-13T18:25:16UTC 2021-08-13T08:25:16-10:00 2021-08-13T07:25:16-11:00  21.31300 -157.88883       0   0.0 Hōkūleʻa
  2021-08-13T18:10:38UTC 2021-08-13T08:10:38-10:00 2021-08-13T07:10:38-11:00  21.31307 -157.88862     180   0.0 Hikianalia
  2021-08-13T17:18:30UTC 2021-08-13T07:18:30-10:00 2021-08-13T06:18:30-11:00  21.31300 -157.88883       0   0.0 Hōkūleʻa
  2021-08-13T17:11:16UTC 2021-08-13T07:11:16-10:00 2021-08-13T06:11:16-11:00  21.31310 -157.88862      52   0.0 Hikianalia
  2021-08-13T16:18:47UTC 2021-08-13T06:18:47-10:00 2021-08-13T05:18:47-11:00  21.31299 -157.88883     180   0.0 Hōkūleʻa
  2021-08-13T16:11:14UTC 2021-08-13T06:11:14-10:00 2021-08-13T05:11:14-11:00  21.31307 -157.88866     224   0.0 Hikianalia
  2021-08-13T15:17:36UTC 2021-08-13T05:17:36-10:00 2021-08-13T04:17:36-11:00  21.31302 -157.88883     299   0.0 Hōkūleʻa
  2021-08-13T15:10:37UTC 2021-08-13T05:10:37-10:00 2021-08-13T04:10:37-11:00  21.31309 -157.88864      26   0.0 Hikianalia
  2021-08-13T14:18:23UTC 2021-08-13T04:18:23-10:00 2021-08-13T03:18:23-11:00  21.31300 -157.88881     180   0.0 Hōkūleʻa
  2021-08-13T14:10:41UTC 2021-08-13T04:10:41-10:00 2021-08-13T03:10:41-11:00  21.31305 -157.88866       0   0.0 Hikianalia
  2021-08-13T13:18:24UTC 2021-08-13T03:18:24-10:00 2021-08-13T02:18:24-11:00  21.31302 -157.88881       0   0.0 Hōkūleʻa
  2021-08-13T13:10:48UTC 2021-08-13T03:10:48-10:00 2021-08-13T02:10:48-11:00  21.31304 -157.88866     198   0.0 Hikianalia
  2021-08-13T12:18:47UTC 2021-08-13T02:18:47-10:00 2021-08-13T01:18:47-11:00  21.31300 -157.88881     270   0.0 Hōkūleʻa
  2021-08-13T12:11:18UTC 2021-08-13T02:11:18-10:00 2021-08-13T01:11:18-11:00  21.31310 -157.88864     317   0.0 Hikianalia
  2021-08-13T11:18:32UTC 2021-08-13T01:18:32-10:00 2021-08-13T00:18:32-11:00  21.31300 -157.88879      63   0.0 Hōkūleʻa
  2021-08-13T11:10:38UTC 2021-08-13T01:10:38-10:00 2021-08-13T00:10:38-11:00  21.31302 -157.88856     137   0.0 Hikianalia
  2021-08-13T10:18:35UTC 2021-08-13T00:18:35-10:00 2021-08-12T23:18:35-11:00  21.31299 -157.88881       0   0.0 Hōkūleʻa
  2021-08-13T10:10:49UTC 2021-08-13T00:10:49-10:00 2021-08-12T23:10:49-11:00  21.31310 -157.88864     270   0.0 Hikianalia
  2021-08-13T09:18:32UTC 2021-08-12T23:18:32-10:00 2021-08-12T22:18:32-11:00  21.31299 -157.88881     180   0.0 Hōkūleʻa
  2021-08-13T09:11:12UTC 2021-08-12T23:11:12-10:00 2021-08-12T22:11:12-11:00  21.31310 -157.88862       0   0.0 Hikianalia
  2021-08-13T08:18:45UTC 2021-08-12T22:18:45-10:00 2021-08-12T21:18:45-11:00  21.31302 -157.88881       0   0.0 Hōkūleʻa
  2021-08-13T08:11:09UTC 2021-08-12T22:11:09-10:00 2021-08-12T21:11:09-11:00  21.31310 -157.88862     312   0.2 Hikianalia
  2021-08-13T07:18:28UTC 2021-08-12T21:18:28-10:00 2021-08-12T20:18:28-11:00  21.31300 -157.88881     165   0.0 Hōkūleʻa
  2021-08-13T07:09:55UTC 2021-08-12T21:09:55-10:00 2021-08-12T20:09:55-11:00  21.31066 -157.88568     131   0.2 Hikianalia
  2021-08-13T06:19:30UTC 2021-08-12T20:19:30-10:00 2021-08-12T19:19:30-11:00  21.31308 -157.88883       0   0.0 Hōkūleʻa
  2021-08-13T06:10:47UTC 2021-08-12T20:10:47-10:00 2021-08-12T19:10:47-11:00  21.31299 -157.88856     157   0.0 Hikianalia
  2021-08-13T05:18:32UTC 2021-08-12T19:18:32-10:00 2021-08-12T18:18:32-11:00  21.31302 -157.88883     270   0.0 Hōkūleʻa
  2021-08-13T05:10:43UTC 2021-08-12T19:10:43-10:00 2021-08-12T18:10:43-11:00  21.31313 -157.88862       0   0.0 Hikianalia
  2021-08-13T04:17:46UTC 2021-08-12T18:17:46-10:00 2021-08-12T17:17:46-11:00  21.31302 -157.88881     285   0.0 Hōkūleʻa
  2021-08-13T04:11:17UTC 2021-08-12T18:11:17-10:00 2021-08-12T17:11:17-11:00  21.31313 -157.88862       0   0.0 Hikianalia
  2021-08-13T03:18:31UTC 2021-08-12T17:18:31-10:00 2021-08-12T16:18:31-11:00  21.31300 -157.88877     105   0.0 Hōkūleʻa
  2021-08-13T03:17:32UTC 2021-08-12T17:17:32-10:00 2021-08-12T16:17:32-11:00  21.31313 -157.88862       0   0.0 Hikianalia
  2021-08-13T02:18:29UTC 2021-08-12T16:18:29-10:00 2021-08-12T15:18:29-11:00  21.31302 -157.88881       0   0.0 Hōkūleʻa
  2021-08-13T02:10:36UTC 2021-08-12T16:10:36-10:00 2021-08-12T15:10:36-11:00  21.31313 -157.88862       0   0.0 Hikianalia
  2021-08-13T01:18:33UTC 2021-08-12T15:18:33-10:00 2021-08-12T14:18:33-11:00  21.31299 -157.88881     243   0.0 Hōkūleʻa
  2021-08-13T01:10:47UTC 2021-08-12T15:10:47-10:00 2021-08-12T14:10:47-11:00  21.31313 -157.88862       0   0.0 Hikianalia
  2021-08-13T00:17:47UTC 2021-08-12T14:17:47-10:00 2021-08-12T13:17:47-11:00  21.31300 -157.88879     110   0.0 Hōkūleʻa
  2021-08-13T00:10:18UTC 2021-08-12T14:10:18-10:00 2021-08-12T13:10:18-11:00  21.31310 -157.88862     180   0.0 Hikianalia
  2021-08-12T23:17:35UTC 2021-08-12T13:17:35-10:00 2021-08-12T12:17:35-11:00  21.31303 -157.88886     298   0.0 Hōkūleʻa
  2021-08-12T23:09:44UTC 2021-08-12T13:09:44-10:00 2021-08-12T12:09:44-11:00  21.31313 -157.88862       0   0.0 Hikianalia
  2021-08-12T22:17:46UTC 2021-08-12T12:17:46-10:00 2021-08-12T11:17:46-11:00  21.31302 -157.88883     270   0.0 Hōkūleʻa
  2021-08-12T22:09:49UTC 2021-08-12T12:09:49-10:00 2021-08-12T11:09:49-11:00  21.31313 -157.88862     124   0.0 Hikianalia
  2021-08-12T21:18:24UTC 2021-08-12T11:18:24-10:00 2021-08-12T10:18:24-11:00  21.31302 -157.88881       0   0.0 Hōkūleʻa
  2021-08-12T21:10:19UTC 2021-08-12T11:10:19-10:00 2021-08-12T10:10:19-11:00  21.31319 -157.88871     293   0.0 Hikianalia
  2021-08-12T20:17:38UTC 2021-08-12T10:17:38-10:00 2021-08-12T09:17:38-11:00  21.31302 -157.88881     298   0.0 Hōkūleʻa
  2021-08-12T20:10:08UTC 2021-08-12T10:10:08-10:00 2021-08-12T09:10:08-11:00  21.31314 -157.88860      71   0.0 Hikianalia
  2021-08-12T19:17:35UTC 2021-08-12T09:17:35-10:00 2021-08-12T08:17:35-11:00  21.31299 -157.88877      90   0.0 Hōkūleʻa
  2021-08-12T19:10:38UTC 2021-08-12T09:10:38-10:00 2021-08-12T08:10:38-11:00  21.31312 -157.88866     244   0.0 Hikianalia
  2021-08-12T18:18:34UTC 2021-08-12T08:18:34-10:00 2021-08-12T07:18:34-11:00  21.31299 -157.88881     180   0.0 Hōkūleʻa
  2021-08-12T18:10:45UTC 2021-08-12T08:10:45-10:00 2021-08-12T07:10:45-11:00  21.31313 -157.88864      44   0.0 Hikianalia
  2021-08-12T17:18:31UTC 2021-08-12T07:18:31-10:00 2021-08-12T06:18:31-11:00  21.31302 -157.88881     119   0.0 Hōkūleʻa
  2021-08-12T17:10:16UTC 2021-08-12T07:10:16-10:00 2021-08-12T06:10:16-11:00  21.31311 -157.88866      10   0.0 Hikianalia
  2021-08-12T16:18:43UTC 2021-08-12T06:18:43-10:00 2021-08-12T05:18:43-11:00  21.31303 -157.88883     180   0.0 Hōkūleʻa
  2021-08-12T16:10:41UTC 2021-08-12T06:10:41-10:00 2021-08-12T05:10:41-11:00  21.31300 -157.88868     200   0.0 Hikianalia
  2021-08-12T15:18:38UTC 2021-08-12T05:18:38-10:00 2021-08-12T04:18:38-11:00  21.31304 -157.88883       0   0.0 Hōkūleʻa
  2021-08-12T15:11:14UTC 2021-08-12T05:11:14-10:00 2021-08-12T04:11:14-11:00  21.31311 -157.88864     180   0.0 Hikianalia
  2021-08-12T14:18:21UTC 2021-08-12T04:18:21-10:00 2021-08-12T03:18:21-11:00  21.31304 -157.88883       0   0.0 Hōkūleʻa
  2021-08-12T14:10:36UTC 2021-08-12T04:10:36-10:00 2021-08-12T03:10:36-11:00  21.31313 -157.88864     317   0.0 Hikianalia
  2021-08-12T13:18:29UTC 2021-08-12T03:18:29-10:00 2021-08-12T02:18:29-11:00  21.31304 -157.88883       0   0.0 Hōkūleʻa
  2021-08-12T13:11:15UTC 2021-08-12T03:11:15-10:00 2021-08-12T02:11:15-11:00  21.31311 -157.88862     180   0.0 Hikianalia
  2021-08-12T12:18:49UTC 2021-08-12T02:18:49-10:00 2021-08-12T01:18:49-11:00  21.31303 -157.88883       0   0.0 Hōkūleʻa
  2021-08-12T12:10:45UTC 2021-08-12T02:10:45-10:00 2021-08-12T01:10:45-11:00  21.31320 -157.88862      13   0.0 Hikianalia
  2021-08-12T11:17:21UTC 2021-08-12T01:17:21-10:00 2021-08-12T00:17:21-11:00  21.31303 -157.88883     180   0.0 Hōkūleʻa
  2021-08-12T11:10:43UTC 2021-08-12T01:10:43-10:00 2021-08-12T00:10:43-11:00  21.31311 -157.88864     223   0.0 Hikianalia
  2021-08-12T10:18:24UTC 2021-08-12T00:18:24-10:00 2021-08-11T23:18:24-11:00  21.31305 -157.88883     317   0.0 Hōkūleʻa
  2021-08-12T10:12:12UTC 2021-08-12T00:12:12-10:00 2021-08-11T23:12:12-11:00  21.31313 -157.88862       0   0.0 Hikianalia
  2021-08-12T09:18:23UTC 2021-08-11T23:18:23-10:00 2021-08-11T22:18:23-11:00  21.31303 -157.88881       0   0.0 Hōkūleʻa
  2021-08-12T09:09:55UTC 2021-08-11T23:09:55-10:00 2021-08-11T22:09:55-11:00  21.31313 -157.88862      63   0.0 Hikianalia
  2021-08-12T08:18:47UTC 2021-08-11T22:18:47-10:00 2021-08-11T21:18:47-11:00  21.31303 -157.88881     180   0.0 Hōkūleʻa
  2021-08-12T08:10:42UTC 2021-08-11T22:10:42-10:00 2021-08-11T21:10:42-11:00  21.31312 -157.88864     243   0.0 Hikianalia
  2021-08-12T07:18:42UTC 2021-08-11T21:18:42-10:00 2021-08-11T20:18:42-11:00  21.31304 -157.88881       0   0.0 Hōkūleʻa
  2021-08-12T07:11:13UTC 2021-08-11T21:11:13-10:00 2021-08-11T20:11:13-11:00  21.31313 -157.88862     154   0.2 Hikianalia
  2021-08-12T06:18:33UTC 2021-08-11T20:18:33-10:00 2021-08-11T19:18:33-11:00  21.31302 -157.88881       0   0.0 Hōkūleʻa
  2021-08-12T06:10:51UTC 2021-08-11T20:10:51-10:00 2021-08-11T19:10:51-11:00  21.31540 -157.88982     334   0.1 Hikianalia
  2021-08-12T05:18:30UTC 2021-08-11T19:18:30-10:00 2021-08-11T18:18:30-11:00  21.31302 -157.88881     148   0.0 Hōkūleʻa
  2021-08-12T05:09:41UTC 2021-08-11T19:09:41-10:00 2021-08-11T18:09:41-11:00  21.31311 -157.88862       0   0.0 Hikianalia
  2021-08-12T04:18:41UTC 2021-08-11T18:18:41-10:00 2021-08-11T17:18:41-11:00  21.31305 -157.88883     105   0.0 Hōkūleʻa
  2021-08-12T04:11:06UTC 2021-08-11T18:11:06-10:00 2021-08-11T17:11:06-11:00  21.31311 -157.88862       0   0.0 Hikianalia
  2021-08-12T03:17:38UTC 2021-08-11T17:17:38-10:00 2021-08-11T16:17:38-11:00  21.31306 -157.88888       0   0.0 Hōkūleʻa
  2021-08-12T03:10:44UTC 2021-08-11T17:10:44-10:00 2021-08-11T16:10:44-11:00  21.31311 -157.88862       0   0.0 Hikianalia
  2021-08-12T02:18:22UTC 2021-08-11T16:18:22-10:00 2021-08-11T15:18:22-11:00  21.31303 -157.88888     270   0.0 Hōkūleʻa
  2021-08-12T02:09:35UTC 2021-08-11T16:09:35-10:00 2021-08-11T15:09:35-11:00  21.31311 -157.88862       0   0.0 Hikianalia
  2021-08-12T01:18:33UTC 2021-08-11T15:18:33-10:00 2021-08-11T14:18:33-11:00  21.31303 -157.88883     180   0.0 Hōkūleʻa
  2021-08-12T01:10:37UTC 2021-08-11T15:10:37-10:00 2021-08-11T14:10:37-11:00  21.31311 -157.88862      90   0.0 Hikianalia
  2021-08-12T00:17:48UTC 2021-08-11T14:17:48-10:00 2021-08-11T13:17:48-11:00  21.31304 -157.88883     180   0.0 Hōkūleʻa
  2021-08-12T00:10:17UTC 2021-08-11T14:10:17-10:00 2021-08-11T13:10:17-11:00  21.31311 -157.88864     270   0.0 Hikianalia
  2021-08-11T23:18:38UTC 2021-08-11T13:18:38-10:00 2021-08-11T12:18:38-11:00  21.31305 -157.88883       0   0.0 Hōkūleʻa
  2021-08-11T23:09:48UTC 2021-08-11T13:09:48-10:00 2021-08-11T12:09:48-11:00  21.31311 -157.88862     303   0.0 Hikianalia
  2021-08-11T22:17:34UTC 2021-08-11T12:17:34-10:00 2021-08-11T11:17:34-11:00  21.31304 -157.88883       0   0.0 Hōkūleʻa
  2021-08-11T22:10:44UTC 2021-08-11T12:10:44-10:00 2021-08-11T11:10:44-11:00  21.31305 -157.88851     118   0.0 Hikianalia
  2021-08-11T21:17:34UTC 2021-08-11T11:17:34-10:00 2021-08-11T10:17:34-11:00  21.31303 -157.88883     180   0.0 Hōkūleʻa
  2021-08-11T21:10:47UTC 2021-08-11T11:10:47-10:00 2021-08-11T10:10:47-11:00  21.31311 -157.88864     180   0.0 Hikianalia
  2021-08-11T20:18:48UTC 2021-08-11T10:18:48-10:00 2021-08-11T09:18:48-11:00  21.31304 -157.88883       0   0.0 Hōkūleʻa
  2021-08-11T20:10:15UTC 2021-08-11T10:10:15-10:00 2021-08-11T09:10:15-11:00  21.31314 -157.88864     169   0.0 Hikianalia
  2021-08-11T19:17:42UTC 2021-08-11T09:17:42-10:00 2021-08-11T08:17:42-11:00  21.31302 -157.88883       0   0.0 Hōkūleʻa
  2021-08-11T19:10:52UTC 2021-08-11T09:10:52-10:00 2021-08-11T08:10:52-11:00  21.31325 -157.88866     350   0.0 Hikianalia
  2021-08-11T18:18:32UTC 2021-08-11T08:18:32-10:00 2021-08-11T07:18:32-11:00  21.31302 -157.88883     180   0.0 Hōkūleʻa
  2021-08-11T18:09:37UTC 2021-08-11T08:09:37-10:00 2021-08-11T07:09:37-11:00  21.31313 -157.88864      33   0.0 Hikianalia
  2021-08-11T17:18:33UTC 2021-08-11T07:18:33-10:00 2021-08-11T06:18:33-11:00  21.31303 -157.88883      62   0.0 Hōkūleʻa
  2021-08-11T17:10:36UTC 2021-08-11T07:10:36-10:00 2021-08-11T06:10:36-11:00  21.31310 -157.88866     180   0.0 Hikianalia
  2021-08-11T16:18:44UTC 2021-08-11T06:18:44-10:00 2021-08-11T05:18:44-11:00  21.31302 -157.88886     262   0.0 Hōkūleʻa
  2021-08-11T16:11:12UTC 2021-08-11T06:11:12-10:00 2021-08-11T05:11:12-11:00  21.31311 -157.88866     255   0.0 Hikianalia
  2021-08-11T15:18:35UTC 2021-08-11T05:18:35-10:00 2021-08-11T04:18:35-11:00  21.31303 -157.88877      80   0.0 Hōkūleʻa
  2021-08-11T15:10:46UTC 2021-08-11T05:10:46-10:00 2021-08-11T04:10:46-11:00  21.31312 -157.88862     117   0.0 Hikianalia
  2021-08-11T14:18:30UTC 2021-08-11T04:18:30-10:00 2021-08-11T03:18:30-11:00  21.31302 -157.88883     180   0.0 Hōkūleʻa
  2021-08-11T14:10:35UTC 2021-08-11T04:10:35-10:00 2021-08-11T03:10:35-11:00  21.31313 -157.88864      44   0.0 Hikianalia
  2021-08-11T13:17:32UTC 2021-08-11T03:17:32-10:00 2021-08-11T02:17:32-11:00  21.31303 -157.88883       0   0.0 Hōkūleʻa
  2021-08-11T13:10:55UTC 2021-08-11T03:10:55-10:00 2021-08-11T02:10:55-11:00  21.31311 -157.88866     242   0.0 Hikianalia
  2021-08-11T12:18:41UTC 2021-08-11T02:18:41-10:00 2021-08-11T01:18:41-11:00  21.31303 -157.88883     180   0.0 Hōkūleʻa
  2021-08-11T12:11:11UTC 2021-08-11T02:11:11-10:00 2021-08-11T01:11:11-11:00  21.31313 -157.88862      43   0.0 Hikianalia
  2021-08-11T11:18:22UTC 2021-08-11T01:18:22-10:00 2021-08-11T00:18:22-11:00  21.31304 -157.88883     180   0.0 Hōkūleʻa
  2021-08-11T11:10:44UTC 2021-08-11T01:10:44-10:00 2021-08-11T00:10:44-11:00  21.31311 -157.88864     223   0.0 Hikianalia
  2021-08-11T10:18:33UTC 2021-08-11T00:18:33-10:00 2021-08-10T23:18:33-11:00  21.31306 -157.88883       0   0.0 Hōkūleʻa
  2021-08-11T10:10:48UTC 2021-08-11T00:10:48-10:00 2021-08-10T23:10:48-11:00  21.31313 -157.88862      90   0.0 Hikianalia
  2021-08-11T09:18:49UTC 2021-08-10T23:18:49-10:00 2021-08-10T22:18:49-11:00  21.31304 -157.88883       0   0.0 Hōkūleʻa
  2021-08-11T09:10:55UTC 2021-08-10T23:10:55-10:00 2021-08-10T22:10:55-11:00  21.31313 -157.88868     298   0.0 Hikianalia
  2021-08-11T08:18:30UTC 2021-08-10T22:18:30-10:00 2021-08-10T21:18:30-11:00  21.31304 -157.88883     180   0.0 Hōkūleʻa
  2021-08-11T08:11:20UTC 2021-08-10T22:11:20-10:00 2021-08-10T21:11:20-11:00  21.31311 -157.88864     270   0.0 Hikianalia
  2021-08-11T07:18:32UTC 2021-08-10T21:18:32-10:00 2021-08-10T20:18:32-11:00  21.31305 -157.88883     317   0.0 Hōkūleʻa
  2021-08-11T07:10:50UTC 2021-08-10T21:10:50-10:00 2021-08-10T20:10:50-11:00  21.31311 -157.88862       0   0.0 Hikianalia
  2021-08-11T06:18:49UTC 2021-08-10T20:18:49-10:00 2021-08-10T19:18:49-11:00  21.31303 -157.88881     270   0.0 Hōkūleʻa
  2021-08-11T06:10:46UTC 2021-08-10T20:10:46-10:00 2021-08-10T19:10:46-11:00  21.31311 -157.88862     180   0.0 Hikianalia
  2021-08-11T05:18:35UTC 2021-08-10T19:18:35-10:00 2021-08-10T18:18:35-11:00  21.31313 -157.88862       0   0.0 Hikianalia
  2021-08-11T05:17:30UTC 2021-08-10T19:17:30-10:00 2021-08-10T18:17:30-11:00  21.31303 -157.88877     105   0.0 Hōkūleʻa
  2021-08-11T04:18:25UTC 2021-08-10T18:18:25-10:00 2021-08-10T17:18:25-11:00  21.31304 -157.88881       0   0.0 Hōkūleʻa
  2021-08-11T04:10:49UTC 2021-08-10T18:10:49-10:00 2021-08-10T17:10:49-11:00  21.31311 -157.88862       0   0.0 Hikianalia
  2021-08-11T03:18:30UTC 2021-08-10T17:18:30-10:00 2021-08-10T16:18:30-11:00  21.31304 -157.88881      90   0.0 Hōkūleʻa
  2021-08-11T03:10:46UTC 2021-08-10T17:10:46-10:00 2021-08-10T16:10:46-11:00  21.31307 -157.88862     163   0.0 Hikianalia
  2021-08-11T02:26:30UTC 2021-08-10T16:26:30-10:00 2021-08-10T15:26:30-11:00  21.31304 -157.88883       0   0.0 Hōkūleʻa
  2021-08-11T02:11:15UTC 2021-08-10T16:11:15-10:00 2021-08-10T15:11:15-11:00  21.31313 -157.88864      64   0.0 Hikianalia
  2021-08-11T01:17:32UTC 2021-08-10T15:17:32-10:00 2021-08-10T14:17:32-11:00  21.31304 -157.88883       0   0.0 Hōkūleʻa
  2021-08-11T01:10:17UTC 2021-08-10T15:10:17-10:00 2021-08-10T14:10:17-11:00  21.31312 -157.88866     285   0.0 Hikianalia
  2021-08-11T00:18:25UTC 2021-08-10T14:18:25-10:00 2021-08-10T13:18:25-11:00  21.31303 -157.88883     223   0.0 Hōkūleʻa
  2021-08-11T00:10:00UTC 2021-08-10T14:10:00-10:00 2021-08-10T13:10:00-11:00  21.31311 -157.88862       0   0.0 Hikianalia
  2021-08-10T23:18:33UTC 2021-08-10T13:18:33-10:00 2021-08-10T12:18:33-11:00  21.31305 -157.88881       0   0.0 Hōkūleʻa
  2021-08-10T23:10:45UTC 2021-08-10T13:10:45-10:00 2021-08-10T12:10:45-11:00  21.31311 -157.88862     148   0.0 Hikianalia
  2021-08-10T22:18:47UTC 2021-08-10T12:18:47-10:00 2021-08-10T11:18:47-11:00  21.31304 -157.88881     117   0.0 Hōkūleʻa
  2021-08-10T22:11:13UTC 2021-08-10T12:11:13-10:00 2021-08-10T11:11:13-11:00  21.31314 -157.88864     328   0.0 Hikianalia
  2021-08-10T21:17:41UTC 2021-08-10T11:17:41-10:00 2021-08-10T10:17:41-11:00  21.31305 -157.88883     297   0.0 Hōkūleʻa
  2021-08-10T21:17:37UTC 2021-08-10T11:17:37-10:00 2021-08-10T10:17:37-11:00  21.31311 -157.88862     333   0.0 Hikianalia
  2021-08-10T20:18:22UTC 2021-08-10T10:18:22-10:00 2021-08-10T09:18:22-11:00  21.31304 -157.88881      61   0.0 Hōkūleʻa
  2021-08-10T20:10:40UTC 2021-08-10T10:10:40-10:00 2021-08-10T09:10:40-11:00  21.31299 -157.88856     143   0.0 Hikianalia
  2021-08-10T19:18:33UTC 2021-08-10T09:18:33-10:00 2021-08-10T08:18:33-11:00  21.31303 -157.88883       0   0.0 Hōkūleʻa
  2021-08-10T19:09:47UTC 2021-08-10T09:09:47-10:00 2021-08-10T08:09:47-11:00  21.31310 -157.88864     180   0.0 Hikianalia
  2021-08-10T18:17:41UTC 2021-08-10T08:17:41-10:00 2021-08-10T07:17:41-11:00  21.31303 -157.88883     309   0.0 Hōkūleʻa
  2021-08-10T18:10:10UTC 2021-08-10T08:10:10-10:00 2021-08-10T07:10:10-11:00  21.31312 -157.88864     105   0.0 Hikianalia
  2021-08-10T17:18:34UTC 2021-08-10T07:18:34-10:00 2021-08-10T06:18:34-11:00  21.31299 -157.88879     118   0.0 Hōkūleʻa
  2021-08-10T17:10:35UTC 2021-08-10T07:10:35-10:00 2021-08-10T06:10:35-11:00  21.31314 -157.88873     278   0.0 Hikianalia
  2021-08-10T16:18:24UTC 2021-08-10T06:18:24-10:00 2021-08-10T05:18:24-11:00  21.31302 -157.88883     180   0.0 Hōkūleʻa
  2021-08-10T16:10:39UTC 2021-08-10T06:10:39-10:00 2021-08-10T05:10:39-11:00  21.31313 -157.88864     317   0.0 Hikianalia
  2021-08-10T15:18:23UTC 2021-08-10T05:18:23-10:00 2021-08-10T04:18:23-11:00  21.31303 -157.88883       0   0.0 Hōkūleʻa
  2021-08-10T15:17:56UTC 2021-08-10T05:17:56-10:00 2021-08-10T04:17:56-11:00  21.31311 -157.88862      90   0.0 Hikianalia
  2021-08-10T14:17:47UTC 2021-08-10T04:17:47-10:00 2021-08-10T03:17:47-11:00  21.31302 -157.88883     118   0.0 Hōkūleʻa
  2021-08-10T14:11:09UTC 2021-08-10T04:11:09-10:00 2021-08-10T03:11:09-11:00  21.31311 -157.88866      90   0.0 Hikianalia
  2021-08-10T13:18:27UTC 2021-08-10T03:18:27-10:00 2021-08-10T02:18:27-11:00  21.31303 -157.88886     317   0.0 Hōkūleʻa
  2021-08-10T13:10:39UTC 2021-08-10T03:10:39-10:00 2021-08-10T02:10:39-11:00  21.31311 -157.88868     270   0.0 Hikianalia
  2021-08-10T12:18:32UTC 2021-08-10T02:18:32-10:00 2021-08-10T01:18:32-11:00  21.31300 -157.88883     180   0.0 Hōkūleʻa
  2021-08-10T12:11:17UTC 2021-08-10T02:11:17-10:00 2021-08-10T01:11:17-11:00  21.31311 -157.88864     328   0.0 Hikianalia
  2021-08-10T11:18:24UTC 2021-08-10T01:18:24-10:00 2021-08-10T00:18:24-11:00  21.31302 -157.88883     180   0.0 Hōkūleʻa
  2021-08-10T11:10:43UTC 2021-08-10T01:10:43-10:00 2021-08-10T00:10:43-11:00  21.31308 -157.88862     180   0.0 Hikianalia
  2021-08-10T10:18:41UTC 2021-08-10T00:18:41-10:00 2021-08-09T23:18:41-11:00  21.31303 -157.88883     306   0.0 Hōkūleʻa
  2021-08-10T10:10:40UTC 2021-08-10T00:10:40-10:00 2021-08-09T23:10:40-11:00  21.31310 -157.88862      90   0.0 Hikianalia
  2021-08-10T09:30:08UTC 2021-08-09T23:30:08-10:00 2021-08-09T22:30:08-11:00  21.31310 -157.88864     241   0.0 Hikianalia
  2021-08-10T09:18:38UTC 2021-08-09T23:18:38-10:00 2021-08-09T22:18:38-11:00  21.31298 -157.88877     137   0.0 Hōkūleʻa
  2021-08-10T08:18:30UTC 2021-08-09T22:18:30-10:00 2021-08-09T21:18:30-11:00  21.31305 -157.88883     328   0.0 Hōkūleʻa
  2021-08-10T08:11:09UTC 2021-08-09T22:11:09-10:00 2021-08-09T21:11:09-11:00  21.31311 -157.88862       0   0.0 Hikianalia
  2021-08-10T07:18:29UTC 2021-08-09T21:18:29-10:00 2021-08-09T20:18:29-11:00  21.31302 -157.88881     299   0.0 Hōkūleʻa
  2021-08-10T07:10:46UTC 2021-08-09T21:10:46-10:00 2021-08-09T20:10:46-11:00  21.31310 -157.88862     180   0.0 Hikianalia
  2021-08-10T06:18:41UTC 2021-08-09T20:18:41-10:00 2021-08-09T19:18:41-11:00  21.31300 -157.88879      90   0.0 Hōkūleʻa
  2021-08-10T06:10:38UTC 2021-08-09T20:10:38-10:00 2021-08-09T19:10:38-11:00  21.31312 -157.88862     180   0.0 Hikianalia
  2021-08-10T05:23:31UTC 2021-08-09T19:23:31-10:00 2021-08-09T18:23:31-11:00  21.31313 -157.88862       0   0.0 Hikianalia
  2021-08-10T05:18:36UTC 2021-08-09T19:18:36-10:00 2021-08-09T18:18:36-11:00  21.31300 -157.88883     197   0.0 Hōkūleʻa
  2021-08-10T04:17:31UTC 2021-08-09T18:17:31-10:00 2021-08-09T17:17:31-11:00  21.31307 -157.88881      42   0.0 Hōkūleʻa
  2021-08-10T04:10:47UTC 2021-08-09T18:10:47-10:00 2021-08-09T17:10:47-11:00  21.31311 -157.88862     332   0.0 Hikianalia
  2021-08-10T03:18:23UTC 2021-08-09T17:18:23-10:00 2021-08-09T16:18:23-11:00  21.31305 -157.88883       0   0.0 Hōkūleʻa
  2021-08-10T03:10:46UTC 2021-08-09T17:10:46-10:00 2021-08-09T16:10:46-11:00  21.31304 -157.88858     155   0.0 Hikianalia
  2021-08-10T02:18:45UTC 2021-08-09T16:18:45-10:00 2021-08-09T15:18:45-11:00  21.31305 -157.88883     289   0.0 Hōkūleʻa
  2021-08-10T02:10:09UTC 2021-08-09T16:10:09-10:00 2021-08-09T15:10:09-11:00  21.31312 -157.88862     180   0.0 Hikianalia
  2021-08-10T01:17:43UTC 2021-08-09T15:17:43-10:00 2021-08-09T14:17:43-11:00  21.31303 -157.88877      90   0.0 Hōkūleʻa
  2021-08-10T01:10:38UTC 2021-08-09T15:10:38-10:00 2021-08-09T14:10:38-11:00  21.31318 -157.88862     219   0.0 Hikianalia
  2021-08-10T00:18:33UTC 2021-08-09T14:18:33-10:00 2021-08-09T13:18:33-11:00  21.31303 -157.88879     119   0.0 Hōkūleʻa
  2021-08-10T00:09:42UTC 2021-08-09T14:09:42-10:00 2021-08-09T13:09:42-11:00  21.31325 -157.88856      32   0.0 Hikianalia
  2021-08-09T23:17:31UTC 2021-08-09T13:17:31-10:00 2021-08-09T12:17:31-11:00  21.31304 -157.88881       0   0.0 Hōkūleʻa
  2021-08-09T23:10:45UTC 2021-08-09T13:10:45-10:00 2021-08-09T12:10:45-11:00  21.31315 -157.88862       0   0.0 Hikianalia
  2021-08-09T22:18:46UTC 2021-08-09T12:18:46-10:00 2021-08-09T11:18:46-11:00  21.31302 -157.88881     119   0.0 Hōkūleʻa
  2021-08-09T22:10:17UTC 2021-08-09T12:10:17-10:00 2021-08-09T11:10:17-11:00  21.31311 -157.88862     119   0.0 Hikianalia
  2021-08-09T21:17:42UTC 2021-08-09T11:17:42-10:00 2021-08-09T10:17:42-11:00  21.31303 -157.88883     270   0.0 Hōkūleʻa
  2021-08-09T21:10:30UTC 2021-08-09T11:10:30-10:00 2021-08-09T10:10:30-11:00  21.31312 -157.88864     330   0.0 Hikianalia
  2021-08-09T20:18:21UTC 2021-08-09T10:18:21-10:00 2021-08-09T09:18:21-11:00  21.31303 -157.88881     119   0.0 Hōkūleʻa
  2021-08-09T20:09:41UTC 2021-08-09T10:09:41-10:00 2021-08-09T09:09:41-11:00  21.31298 -157.88856     137   0.0 Hikianalia
  2021-08-09T19:20:45UTC 2021-08-09T09:20:45-10:00 2021-08-09T08:20:45-11:00  21.31307 -157.88864     180   0.0 Hikianalia
  2021-08-09T19:17:32UTC 2021-08-09T09:17:32-10:00 2021-08-09T08:17:32-11:00  21.31304 -157.88883       0   0.0 Hōkūleʻa
  2021-08-09T18:18:48UTC 2021-08-09T08:18:48-10:00 2021-08-09T07:18:48-11:00  21.31303 -157.88883     309   0.0 Hōkūleʻa
  2021-08-09T18:11:17UTC 2021-08-09T08:11:17-10:00 2021-08-09T07:11:17-11:00  21.31311 -157.88864     290   0.0 Hikianalia
  2021-08-09T17:18:35UTC 2021-08-09T07:18:35-10:00 2021-08-09T06:18:35-11:00  21.31299 -157.88879     117   0.0 Hōkūleʻa
  2021-08-09T17:10:58UTC 2021-08-09T07:10:58-10:00 2021-08-09T06:10:58-11:00  21.31309 -157.88858      62   0.0 Hikianalia
  2021-08-09T16:18:24UTC 2021-08-09T06:18:24-10:00 2021-08-09T05:18:24-11:00  21.31300 -157.88881       0   0.0 Hōkūleʻa
  2021-08-09T16:10:39UTC 2021-08-09T06:10:39-10:00 2021-08-09T05:10:39-11:00  21.31307 -157.88862     180   0.0 Hikianalia
  2021-08-09T15:18:34UTC 2021-08-09T05:18:34-10:00 2021-08-09T04:18:34-11:00  21.31300 -157.88881      90   0.0 Hōkūleʻa
  2021-08-09T15:11:12UTC 2021-08-09T05:11:12-10:00 2021-08-09T04:11:12-11:00  21.31310 -157.88862     119   0.0 Hikianalia
  2021-08-09T14:18:49UTC 2021-08-09T04:18:49-10:00 2021-08-09T03:18:49-11:00  21.31300 -157.88883      90   0.0 Hōkūleʻa
  2021-08-09T14:10:43UTC 2021-08-09T04:10:43-10:00 2021-08-09T03:10:43-11:00  21.31311 -157.88864     270   0.0 Hikianalia
  2021-08-09T13:18:51UTC 2021-08-09T03:18:51-10:00 2021-08-09T02:18:51-11:00  21.31300 -157.88886     284   0.0 Hōkūleʻa
  2021-08-09T13:11:15UTC 2021-08-09T03:11:15-10:00 2021-08-09T02:11:15-11:00  21.31311 -157.88862       0   0.0 Hikianalia
  2021-08-09T12:18:33UTC 2021-08-09T02:18:33-10:00 2021-08-09T01:18:33-11:00  21.31299 -157.88881     148   0.0 Hōkūleʻa
  2021-08-09T12:10:46UTC 2021-08-09T02:10:46-10:00 2021-08-09T01:10:46-11:00  21.31302 -157.88862     171   0.0 Hikianalia
  2021-08-09T11:18:31UTC 2021-08-09T01:18:31-10:00 2021-08-09T00:18:31-11:00  21.31303 -157.88883     318   0.0 Hōkūleʻa
  2021-08-09T11:10:43UTC 2021-08-09T01:10:43-10:00 2021-08-09T00:10:43-11:00  21.31313 -157.88864       0   0.0 Hikianalia
  2021-08-09T10:18:37UTC 2021-08-09T00:18:37-10:00 2021-08-08T23:18:37-11:00  21.31300 -157.88881     305   0.0 Hōkūleʻa
  2021-08-09T10:11:06UTC 2021-08-09T00:11:06-10:00 2021-08-08T23:11:06-11:00  21.31310 -157.88864     328   0.0 Hikianalia
  2021-08-09T09:18:35UTC 2021-08-08T23:18:35-10:00 2021-08-08T22:18:35-11:00  21.31296 -157.88875     137   0.0 Hōkūleʻa
  2021-08-09T09:11:46UTC 2021-08-08T23:11:46-10:00 2021-08-08T22:11:46-11:00  21.31307 -157.88862     224   0.0 Hikianalia
  2021-08-09T08:18:22UTC 2021-08-08T22:18:22-10:00 2021-08-08T21:18:22-11:00  21.31298 -157.88877     118   0.0 Hōkūleʻa
  2021-08-09T08:11:41UTC 2021-08-08T22:11:41-10:00 2021-08-08T21:11:41-11:00  21.31309 -157.88860     317   0.0 Hikianalia
  2021-08-09T07:18:33UTC 2021-08-08T21:18:33-10:00 2021-08-08T20:18:33-11:00  21.31300 -157.88881       0   0.0 Hōkūleʻa
  2021-08-09T07:10:48UTC 2021-08-08T21:10:48-10:00 2021-08-08T20:10:48-11:00  21.31307 -157.88858     105   0.0 Hikianalia
  2021-08-09T06:18:49UTC 2021-08-08T20:18:49-10:00 2021-08-08T19:18:49-11:00  21.31299 -157.88881     242   0.0 Hōkūleʻa
  2021-08-09T06:11:17UTC 2021-08-08T20:11:17-10:00 2021-08-08T19:11:17-11:00  21.31308 -157.88862     270   0.0 Hikianalia
  2021-08-09T05:26:21UTC 2021-08-08T19:26:21-10:00 2021-08-08T18:26:21-11:00  21.31308 -157.88860     105   0.0 Hikianalia
  2021-08-09T05:18:37UTC 2021-08-08T19:18:37-10:00 2021-08-08T18:18:37-11:00  21.31302 -157.88877     105   0.0 Hōkūleʻa
  2021-08-09T04:18:30UTC 2021-08-08T18:18:30-10:00 2021-08-08T17:18:30-11:00  21.31303 -157.88881     119   0.0 Hōkūleʻa
  2021-08-09T04:10:39UTC 2021-08-08T18:10:39-10:00 2021-08-08T17:10:39-11:00  21.31310 -157.88868     260   0.0 Hikianalia
  2021-08-09T03:17:33UTC 2021-08-08T17:17:33-10:00 2021-08-08T16:17:33-11:00  21.31304 -157.88883     299   0.0 Hōkūleʻa
  2021-08-09T03:10:11UTC 2021-08-08T17:10:11-10:00 2021-08-08T16:10:11-11:00  21.31311 -157.88862       0   0.0 Hikianalia
  2021-08-09T02:18:39UTC 2021-08-08T16:18:39-10:00 2021-08-08T15:18:39-11:00  21.31303 -157.88881     270   0.0 Hōkūleʻa
  2021-08-09T02:10:36UTC 2021-08-08T16:10:36-10:00 2021-08-08T15:10:36-11:00  21.31311 -157.88862      43   0.0 Hikianalia
  2021-08-09T01:17:41UTC 2021-08-08T15:17:41-10:00 2021-08-08T14:17:41-11:00  21.31303 -157.88862      84   0.0 Hōkūleʻa
  2021-08-09T01:09:47UTC 2021-08-08T15:09:47-10:00 2021-08-08T14:09:47-11:00  21.31300 -157.88873     226   0.0 Hikianalia
  2021-08-09T00:27:54UTC 2021-08-08T14:27:54-10:00 2021-08-08T13:27:54-11:00  21.31300 -157.88883     284   0.0 Hōkūleʻa
  2021-08-09T00:10:09UTC 2021-08-08T14:10:09-10:00 2021-08-08T13:10:09-11:00  21.31310 -157.88862       0   0.0 Hikianalia
  2021-08-08T23:18:28UTC 2021-08-08T13:18:28-10:00 2021-08-08T12:18:28-11:00  21.31299 -157.88879     148   0.0 Hōkūleʻa
  2021-08-08T23:10:40UTC 2021-08-08T13:10:40-10:00 2021-08-08T12:10:40-11:00  21.31310 -157.88862     180   0.0 Hikianalia
  2021-08-08T22:17:49UTC 2021-08-08T12:17:49-10:00 2021-08-08T11:17:49-11:00  21.31303 -157.88881      61   0.0 Hōkūleʻa
  2021-08-08T22:10:09UTC 2021-08-08T12:10:09-10:00 2021-08-08T11:10:09-11:00  21.31311 -157.88862       0   0.0 Hikianalia
  2021-08-08T21:17:32UTC 2021-08-08T11:17:32-10:00 2021-08-08T10:17:32-11:00  21.31302 -157.88883     222   0.0 Hōkūleʻa
  2021-08-08T21:10:09UTC 2021-08-08T11:10:09-10:00 2021-08-08T10:10:09-11:00  21.31310 -157.88862     180   0.0 Hikianalia
  2021-08-08T20:18:32UTC 2021-08-08T10:18:32-10:00 2021-08-08T09:18:32-11:00  21.31304 -157.88881      31   0.0 Hōkūleʻa
  2021-08-08T20:11:23UTC 2021-08-08T10:11:23-10:00 2021-08-08T09:11:23-11:00  21.31311 -157.88862      90   0.0 Hikianalia
  2021-08-08T19:17:30UTC 2021-08-08T09:17:30-10:00 2021-08-08T08:17:30-11:00  21.31300 -157.88883     180   0.0 Hōkūleʻa
  2021-08-08T19:10:16UTC 2021-08-08T09:10:16-10:00 2021-08-08T08:10:16-11:00  21.31311 -157.88864     270   0.0 Hikianalia
  2021-08-08T18:18:41UTC 2021-08-08T08:18:41-10:00 2021-08-08T07:18:41-11:00  21.31303 -157.88883     309   0.0 Hōkūleʻa
  2021-08-08T18:10:38UTC 2021-08-08T08:10:38-10:00 2021-08-08T07:10:38-11:00  21.31311 -157.88862       0   0.0 Hikianalia
  2021-08-08T17:18:38UTC 2021-08-08T07:18:38-10:00 2021-08-08T06:18:38-11:00  21.31299 -157.88879     129   0.0 Hōkūleʻa
  2021-08-08T17:11:14UTC 2021-08-08T07:11:14-10:00 2021-08-08T06:11:14-11:00  21.31311 -157.88862     317   0.0 Hikianalia
  2021-08-08T16:18:27UTC 2021-08-08T06:18:27-10:00 2021-08-08T05:18:27-11:00  21.31303 -157.88883       0   0.0 Hōkūleʻa
  2021-08-08T16:10:46UTC 2021-08-08T06:10:46-10:00 2021-08-08T05:10:46-11:00  21.31309 -157.88860     125   0.0 Hikianalia
  2021-08-08T15:18:31UTC 2021-08-08T05:18:31-10:00 2021-08-08T04:18:31-11:00  21.31299 -157.88883     180   0.0 Hōkūleʻa
  2021-08-08T15:10:38UTC 2021-08-08T05:10:38-10:00 2021-08-08T04:10:38-11:00  21.31313 -157.88866     334   0.0 Hikianalia
  2021-08-08T14:18:46UTC 2021-08-08T04:18:46-10:00 2021-08-08T03:18:46-11:00  21.31300 -157.88883     298   0.0 Hōkūleʻa
  2021-08-08T14:11:18UTC 2021-08-08T04:11:18-10:00 2021-08-08T03:11:18-11:00  21.31309 -157.88864     255   0.0 Hikianalia
  2021-08-08T13:17:37UTC 2021-08-08T03:17:37-10:00 2021-08-08T02:17:37-11:00  21.31297 -157.88877     137   0.0 Hōkūleʻa
  2021-08-08T13:10:46UTC 2021-08-08T03:10:46-10:00 2021-08-08T02:10:46-11:00  21.31310 -157.88860      62   0.0 Hikianalia
  2021-08-08T12:18:24UTC 2021-08-08T02:18:24-10:00 2021-08-08T01:18:24-11:00  21.31302 -157.88881     138   0.0 Hōkūleʻa
  2021-08-08T12:10:37UTC 2021-08-08T02:10:37-10:00 2021-08-08T01:10:37-11:00  21.31309 -157.88862     180   0.0 Hikianalia
  2021-08-08T11:18:33UTC 2021-08-08T01:18:33-10:00 2021-08-08T00:18:33-11:00  21.31304 -157.88883       0   0.0 Hōkūleʻa
  2021-08-08T11:16:36UTC 2021-08-08T01:16:36-10:00 2021-08-08T00:16:36-11:00  21.31311 -157.88862       0   0.0 Hikianalia
  2021-08-08T10:18:37UTC 2021-08-08T00:18:37-10:00 2021-08-07T23:18:37-11:00  21.31300 -157.88883     289   0.0 Hōkūleʻa
  2021-08-08T10:11:15UTC 2021-08-08T00:11:15-10:00 2021-08-07T23:11:15-11:00  21.31311 -157.88862      52   0.0 Hikianalia
  2021-08-08T09:18:30UTC 2021-08-07T23:18:30-10:00 2021-08-07T22:18:30-11:00  21.31298 -157.88877     137   0.0 Hōkūleʻa
  2021-08-08T09:10:38UTC 2021-08-07T23:10:38-10:00 2021-08-07T22:10:38-11:00  21.31308 -157.88866     256   0.0 Hikianalia
  2021-08-08T08:18:33UTC 2021-08-07T22:18:33-10:00 2021-08-07T21:18:33-11:00  21.31303 -157.88881       0   0.0 Hōkūleʻa
  2021-08-08T08:16:36UTC 2021-08-07T22:16:36-10:00 2021-08-07T21:16:36-11:00  21.31309 -157.88862      71   0.0 Hikianalia
  2021-08-08T07:17:32UTC 2021-08-07T21:17:32-10:00 2021-08-07T20:17:32-11:00  21.31300 -157.88881     180   0.0 Hōkūleʻa
  2021-08-08T07:10:40UTC 2021-08-07T21:10:40-10:00 2021-08-07T20:10:40-11:00  21.31307 -157.88868     212   0.0 Hikianalia
  2021-08-08T06:28:27UTC 2021-08-07T20:28:27-10:00 2021-08-07T19:28:27-11:00  21.31302 -157.88881     242   0.0 Hōkūleʻa
  2021-08-08T06:10:46UTC 2021-08-07T20:10:46-10:00 2021-08-07T19:10:46-11:00  21.31310 -157.88866     241   0.0 Hikianalia
  2021-08-08T05:17:27UTC 2021-08-07T19:17:27-10:00 2021-08-07T18:17:27-11:00  21.31305 -157.88875      71   0.0 Hōkūleʻa
  2021-08-08T05:10:38UTC 2021-08-07T19:10:38-10:00 2021-08-07T18:10:38-11:00  21.31312 -157.88862       0   0.0 Hikianalia
  2021-08-08T04:18:25UTC 2021-08-07T18:18:25-10:00 2021-08-07T17:18:25-11:00  21.31303 -157.88881       0   0.0 Hōkūleʻa
  2021-08-08T04:10:06UTC 2021-08-07T18:10:06-10:00 2021-08-07T17:10:06-11:00  21.31310 -157.88862     312   0.0 Hikianalia
  2021-08-08T03:18:33UTC 2021-08-07T17:18:33-10:00 2021-08-07T16:18:33-11:00  21.31303 -157.88881      90   0.0 Hōkūleʻa
  2021-08-08T03:10:45UTC 2021-08-07T17:10:45-10:00 2021-08-07T16:10:45-11:00  21.31305 -157.88856     132   0.0 Hikianalia
  2021-08-08T02:17:47UTC 2021-08-07T16:17:47-10:00 2021-08-07T15:17:47-11:00  21.31303 -157.88883     254   0.0 Hōkūleʻa
  2021-08-08T02:10:16UTC 2021-08-07T16:10:16-10:00 2021-08-07T15:10:16-11:00  21.31310 -157.88862     180   0.0 Hikianalia
  2021-08-08T01:17:27UTC 2021-08-07T15:17:27-10:00 2021-08-07T14:17:27-11:00  21.31304 -157.88879      61   0.0 Hōkūleʻa
  2021-08-08T01:10:47UTC 2021-08-07T15:10:47-10:00 2021-08-07T14:10:47-11:00  21.31314 -157.88862     327   0.0 Hikianalia
  2021-08-08T00:18:24UTC 2021-08-07T14:18:24-10:00 2021-08-07T13:18:24-11:00  21.31302 -157.88883     270   0.0 Hōkūleʻa
  2021-08-08T00:09:37UTC 2021-08-07T14:09:37-10:00 2021-08-07T13:09:37-11:00  21.31311 -157.88860      52   0.0 Hikianalia
  2021-08-07T23:17:33UTC 2021-08-07T13:17:33-10:00 2021-08-07T12:17:33-11:00  21.31302 -157.88879      90   0.0 Hōkūleʻa
  2021-08-07T23:10:40UTC 2021-08-07T13:10:40-10:00 2021-08-07T12:10:40-11:00  21.31308 -157.88864     232   0.0 Hikianalia
  2021-08-07T22:17:49UTC 2021-08-07T12:17:49-10:00 2021-08-07T11:17:49-11:00  21.31302 -157.88881     138   0.0 Hōkūleʻa
  2021-08-07T22:10:12UTC 2021-08-07T12:10:12-10:00 2021-08-07T11:10:12-11:00  21.31311 -157.88860     118   0.0 Hikianalia
  2021-08-07T21:25:45UTC 2021-08-07T11:25:45-10:00 2021-08-07T10:25:45-11:00  21.31304 -157.88883     318   0.0 Hōkūleʻa
  2021-08-07T21:10:18UTC 2021-08-07T11:10:18-10:00 2021-08-07T10:10:18-11:00  21.31312 -157.88862     123   0.0 Hikianalia
  2021-08-07T20:18:30UTC 2021-08-07T10:18:30-10:00 2021-08-07T09:18:30-11:00  21.31302 -157.88881      90   0.0 Hōkūleʻa
  2021-08-07T20:10:43UTC 2021-08-07T10:10:43-10:00 2021-08-07T09:10:43-11:00  21.31319 -157.88873     311   0.0 Hikianalia
  2021-08-07T19:17:33UTC 2021-08-07T09:17:33-10:00 2021-08-07T08:17:33-11:00  21.31302 -157.88883       0   0.0 Hōkūleʻa
  2021-08-07T19:10:05UTC 2021-08-07T09:10:05-10:00 2021-08-07T08:10:05-11:00  21.31310 -157.88862     128   0.0 Hikianalia
  2021-08-07T18:18:49UTC 2021-08-07T08:18:49-10:00 2021-08-07T07:18:49-11:00  21.31300 -157.88883       0   0.0 Hōkūleʻa
  2021-08-07T18:10:44UTC 2021-08-07T08:10:44-10:00 2021-08-07T07:10:44-11:00  21.31313 -157.88866     347   0.0 Hikianalia
  2021-08-07T17:18:36UTC 2021-08-07T07:18:36-10:00 2021-08-07T06:18:36-11:00  21.31300 -157.88883     297   0.0 Hōkūleʻa
  2021-08-07T17:10:42UTC 2021-08-07T07:10:42-10:00 2021-08-07T06:10:42-11:00  21.31305 -157.88864     205   0.0 Hikianalia
  2021-08-07T16:18:29UTC 2021-08-07T06:18:29-10:00 2021-08-07T05:18:29-11:00  21.31299 -157.88881     180   0.0 Hōkūleʻa
  2021-08-07T16:11:13UTC 2021-08-07T06:11:13-10:00 2021-08-07T05:11:13-11:00  21.31309 -157.88862      90   0.0 Hikianalia
  2021-08-07T15:17:49UTC 2021-08-07T05:17:49-10:00 2021-08-07T04:17:49-11:00  21.31302 -157.88881      48   0.0 Hōkūleʻa
  2021-08-07T15:10:49UTC 2021-08-07T05:10:49-10:00 2021-08-07T04:10:49-11:00  21.31309 -157.88868     200   0.0 Hikianalia
  2021-08-07T14:18:30UTC 2021-08-07T04:18:30-10:00 2021-08-07T03:18:30-11:00  21.31291 -157.88894     232   0.0 Hōkūleʻa
  2021-08-07T14:10:36UTC 2021-08-07T04:10:36-10:00 2021-08-07T03:10:36-11:00  21.31314 -157.88866     317   0.0 Hikianalia
  2021-08-07T13:18:24UTC 2021-08-07T03:18:24-10:00 2021-08-07T02:18:24-11:00  21.31300 -157.88881     119   0.0 Hōkūleʻa
  2021-08-07T13:10:41UTC 2021-08-07T03:10:41-10:00 2021-08-07T02:10:41-11:00  21.31310 -157.88862       0   0.0 Hikianalia
  2021-08-07T12:18:46UTC 2021-08-07T02:18:46-10:00 2021-08-07T01:18:46-11:00  21.31302 -157.88883       0   0.0 Hōkūleʻa
  2021-08-07T12:11:19UTC 2021-08-07T02:11:19-10:00 2021-08-07T01:11:19-11:00  21.31310 -157.88862       0   0.0 Hikianalia
  2021-08-07T11:18:38UTC 2021-08-07T01:18:38-10:00 2021-08-07T00:18:38-11:00  21.31300 -157.88883       0   0.0 Hōkūleʻa
  2021-08-07T11:10:49UTC 2021-08-07T01:10:49-10:00 2021-08-07T00:10:49-11:00  21.31309 -157.88862     141   0.0 Hikianalia
  2021-08-07T10:18:24UTC 2021-08-07T00:18:24-10:00 2021-08-06T23:18:24-11:00  21.31300 -157.88883     241   0.0 Hōkūleʻa
  2021-08-07T10:10:47UTC 2021-08-07T00:10:47-10:00 2021-08-06T23:10:47-11:00  21.31317 -157.88868     325   0.0 Hikianalia
  2021-08-07T09:18:30UTC 2021-08-06T23:18:30-10:00 2021-08-06T22:18:30-11:00  21.31302 -157.88881       0   0.0 Hōkūleʻa
  2021-08-07T09:10:46UTC 2021-08-06T23:10:46-10:00 2021-08-06T22:10:46-11:00  21.31308 -157.88862     180   0.0 Hikianalia
  2021-08-07T08:17:48UTC 2021-08-06T22:17:48-10:00 2021-08-06T21:17:48-11:00  21.31302 -157.88881     328   0.0 Hōkūleʻa
  2021-08-07T08:11:15UTC 2021-08-06T22:11:15-10:00 2021-08-06T21:11:15-11:00  21.31311 -157.88862     354   0.0 Hikianalia
  2021-08-07T07:18:32UTC 2021-08-06T21:18:32-10:00 2021-08-06T20:18:32-11:00  21.31298 -157.88879     242   0.0 Hōkūleʻa
  2021-08-07T07:10:47UTC 2021-08-06T21:10:47-10:00 2021-08-06T20:10:47-11:00  21.31292 -157.88860     174   0.0 Hikianalia
  2021-08-07T06:18:32UTC 2021-08-06T20:18:32-10:00 2021-08-06T19:18:32-11:00  21.31299 -157.88877      90   0.0 Hōkūleʻa
  2021-08-07T06:09:37UTC 2021-08-06T20:09:37-10:00 2021-08-06T19:09:37-11:00  21.31311 -157.88862     242   0.0 Hikianalia
  2021-08-07T05:18:36UTC 2021-08-06T19:18:36-10:00 2021-08-06T18:18:36-11:00  21.31299 -157.88883     322   2.6 Hōkūleʻa
  2021-08-07T05:11:10UTC 2021-08-06T19:11:10-10:00 2021-08-06T18:11:10-11:00  21.31312 -157.88860      62   0.0 Hikianalia
  2021-08-07T04:18:52UTC 2021-08-06T18:18:52-10:00 2021-08-06T17:18:52-11:00  21.27897 -157.86079     142   2.6 Hōkūleʻa
  2021-08-07T04:10:55UTC 2021-08-06T18:10:55-10:00 2021-08-06T17:10:55-11:00  21.31311 -157.88862       0   0.0 Hikianalia
  2021-08-07T03:18:33UTC 2021-08-06T17:18:33-10:00 2021-08-06T16:18:33-11:00  21.31296 -157.88886     206   0.0 Hōkūleʻa
  2021-08-07T03:10:46UTC 2021-08-06T17:10:46-10:00 2021-08-06T16:10:46-11:00  21.31311 -157.88862     148   0.0 Hikianalia
  2021-08-07T02:25:32UTC 2021-08-06T16:25:32-10:00 2021-08-06T15:25:32-11:00  21.31300 -157.88883     180   0.0 Hōkūleʻa
  2021-08-07T02:20:05UTC 2021-08-06T16:20:05-10:00 2021-08-06T15:20:05-11:00  21.31314 -157.88864     328   0.0 Hikianalia
  2021-08-07T01:17:31UTC 2021-08-06T15:17:31-10:00 2021-08-06T14:17:31-11:00  21.31302 -157.88883     299   0.0 Hōkūleʻa
  2021-08-07T01:10:39UTC 2021-08-06T15:10:39-10:00 2021-08-06T14:10:39-11:00  21.31311 -157.88862       0   0.0 Hikianalia
  2021-08-07T00:18:49UTC 2021-08-06T14:18:49-10:00 2021-08-06T13:18:49-11:00  21.31300 -157.88881     297   0.0 Hōkūleʻa
  2021-08-07T00:09:43UTC 2021-08-06T14:09:43-10:00 2021-08-06T13:09:43-11:00  21.31311 -157.88862       0   0.0 Hikianalia
  2021-08-06T23:17:29UTC 2021-08-06T13:17:29-10:00 2021-08-06T12:17:29-11:00  21.31299 -157.88879     143   0.0 Hōkūleʻa
  2021-08-06T23:10:45UTC 2021-08-06T13:10:45-10:00 2021-08-06T12:10:45-11:00  21.31311 -157.88862     180   0.0 Hikianalia
  2021-08-06T22:17:44UTC 2021-08-06T12:17:44-10:00 2021-08-06T11:17:44-11:00  21.31305 -157.88883       0   0.0 Hōkūleʻa
  2021-08-06T22:10:14UTC 2021-08-06T12:10:14-10:00 2021-08-06T11:10:14-11:00  21.31313 -157.88862       0   0.0 Hikianalia
  2021-08-06T21:18:30UTC 2021-08-06T11:18:30-10:00 2021-08-06T10:18:30-11:00  21.31304 -157.88883     243   0.0 Hōkūleʻa
  2021-08-06T21:09:44UTC 2021-08-06T11:09:44-10:00 2021-08-06T10:09:44-11:00  21.31311 -157.88862     180   0.0 Hikianalia
  2021-08-06T20:17:46UTC 2021-08-06T10:17:46-10:00 2021-08-06T09:17:46-11:00  21.31305 -157.88881      43   0.0 Hōkūleʻa
  2021-08-06T20:10:43UTC 2021-08-06T10:10:43-10:00 2021-08-06T09:10:43-11:00  21.31314 -157.88862       0   0.0 Hikianalia
  2021-08-06T19:17:27UTC 2021-08-06T09:17:27-10:00 2021-08-06T08:17:27-11:00  21.31303 -157.88883       0   0.0 Hōkūleʻa
  2021-08-06T19:10:15UTC 2021-08-06T09:10:15-10:00 2021-08-06T08:10:15-11:00  21.31310 -157.88862     180   0.0 Hikianalia
  2021-08-06T18:19:34UTC 2021-08-06T08:19:34-10:00 2021-08-06T07:19:34-11:00  21.31319 -157.88862       0   0.0 Hikianalia
  2021-08-06T18:18:32UTC 2021-08-06T08:18:32-10:00 2021-08-06T07:18:32-11:00  21.31302 -157.88883       0   0.0 Hōkūleʻa
  2021-08-06T17:18:31UTC 2021-08-06T07:18:31-10:00 2021-08-06T06:18:31-11:00  21.31302 -157.88883     180   0.0 Hōkūleʻa
  2021-08-06T17:11:15UTC 2021-08-06T07:11:15-10:00 2021-08-06T06:11:15-11:00  21.31311 -157.88862      43   0.0 Hikianalia
  2021-08-06T16:18:44UTC 2021-08-06T06:18:44-10:00 2021-08-06T05:18:44-11:00  21.31303 -157.88883      33   0.0 Hōkūleʻa
  2021-08-06T16:10:46UTC 2021-08-06T06:10:46-10:00 2021-08-06T05:10:46-11:00  21.31307 -157.88866     255   0.0 Hikianalia
  2021-08-06T15:18:34UTC 2021-08-06T05:18:34-10:00 2021-08-06T04:18:34-11:00  21.31299 -157.88886     213   0.0 Hōkūleʻa
  2021-08-06T15:10:46UTC 2021-08-06T05:10:46-10:00 2021-08-06T04:10:46-11:00  21.31309 -157.88858     119   0.0 Hikianalia
  2021-08-06T14:18:22UTC 2021-08-06T04:18:22-10:00 2021-08-06T03:18:22-11:00  21.31303 -157.88883       0   0.0 Hōkūleʻa
  2021-08-06T14:11:16UTC 2021-08-06T04:11:16-10:00 2021-08-06T03:11:16-11:00  21.31311 -157.88862       0   0.0 Hikianalia
  2021-08-06T13:18:32UTC 2021-08-06T03:18:32-10:00 2021-08-06T02:18:32-11:00  21.31303 -157.88883     180   0.0 Hōkūleʻa
  2021-08-06T13:11:17UTC 2021-08-06T03:11:17-10:00 2021-08-06T02:11:17-11:00  21.31310 -157.88862     323   0.0 Hikianalia
  2021-08-06T12:18:48UTC 2021-08-06T02:18:48-10:00 2021-08-06T01:18:48-11:00  21.31304 -157.88883       0   0.0 Hōkūleʻa
  2021-08-06T12:10:43UTC 2021-08-06T02:10:43-10:00 2021-08-06T01:10:43-11:00  21.31299 -157.88853     139   0.0 Hikianalia
  2021-08-06T11:18:31UTC 2021-08-06T01:18:31-10:00 2021-08-06T00:18:31-11:00  21.31303 -157.88883     180   0.0 Hōkūleʻa
  2021-08-06T11:10:46UTC 2021-08-06T01:10:46-10:00 2021-08-06T00:10:46-11:00  21.31313 -157.88866     316   0.0 Hikianalia
  2021-08-06T10:18:24UTC 2021-08-06T00:18:24-10:00 2021-08-05T23:18:24-11:00  21.31305 -157.88883       0   0.0 Hōkūleʻa
  2021-08-06T10:11:06UTC 2021-08-06T00:11:06-10:00 2021-08-05T23:11:06-11:00  21.31311 -157.88864     299   0.0 Hikianalia
  2021-08-06T09:17:30UTC 2021-08-05T23:17:30-10:00 2021-08-05T22:17:30-11:00  21.31303 -157.88883       0   0.0 Hōkūleʻa
  2021-08-06T09:10:12UTC 2021-08-05T23:10:12-10:00 2021-08-05T22:10:12-11:00  21.31310 -157.88862     328   0.0 Hikianalia
  2021-08-06T08:18:38UTC 2021-08-05T22:18:38-10:00 2021-08-05T21:18:38-11:00  21.31303 -157.88883     180   0.0 Hōkūleʻa
  2021-08-06T08:10:42UTC 2021-08-05T22:10:42-10:00 2021-08-05T21:10:42-11:00  21.31300 -157.88856     180   0.0 Hikianalia
  2021-08-06T07:28:42UTC 2021-08-05T21:28:42-10:00 2021-08-05T20:28:42-11:00  21.31307 -157.88883       0   0.0 Hōkūleʻa
  2021-08-06T07:10:39UTC 2021-08-05T21:10:39-10:00 2021-08-05T20:10:39-11:00  21.31302 -157.88856     141   0.0 Hikianalia
  2021-08-06T06:18:39UTC 2021-08-05T20:18:39-10:00 2021-08-05T19:18:39-11:00  21.31303 -157.88883     223   0.0 Hōkūleʻa
  2021-08-06T06:11:10UTC 2021-08-05T20:11:10-10:00 2021-08-05T19:11:10-11:00  21.31309 -157.88862     137   0.0 Hikianalia
  2021-08-06T05:21:16UTC 2021-08-05T19:21:16-10:00 2021-08-05T18:21:16-11:00  21.31313 -157.88866     128   0.0 Hikianalia
  2021-08-06T05:18:32UTC 2021-08-05T19:18:32-10:00 2021-08-05T18:18:32-11:00  21.31305 -157.88881      90   0.0 Hōkūleʻa
  2021-08-06T04:18:39UTC 2021-08-05T18:18:39-10:00 2021-08-05T17:18:39-11:00  21.31305 -157.88883     180   0.0 Hōkūleʻa
  2021-08-06T04:10:46UTC 2021-08-05T18:10:46-10:00 2021-08-05T17:10:46-11:00  21.31317 -157.88871     231   0.0 Hikianalia
  2021-08-06T03:17:32UTC 2021-08-05T17:17:32-10:00 2021-08-05T16:17:32-11:00  21.31307 -157.88883       0   0.0 Hōkūleʻa
  2021-08-06T03:10:46UTC 2021-08-05T17:10:46-10:00 2021-08-05T16:10:46-11:00  21.31320 -157.88866     345   0.0 Hikianalia
  2021-08-06T02:17:21UTC 2021-08-05T16:17:21-10:00 2021-08-05T15:17:21-11:00  21.31305 -157.88883       0   0.0 Hōkūleʻa
  2021-08-06T02:11:15UTC 2021-08-05T16:11:15-10:00 2021-08-05T15:11:15-11:00  21.31312 -157.88864     339   0.0 Hikianalia
  2021-08-06T01:18:43UTC 2021-08-05T15:18:43-10:00 2021-08-05T14:18:43-11:00  21.31292 -157.88856     163   0.0 Hikianalia
  2021-08-06T01:18:23UTC 2021-08-05T15:18:23-10:00 2021-08-05T14:18:23-11:00  21.31305 -157.88883       0   0.0 Hōkūleʻa
  2021-08-06T00:17:48UTC 2021-08-05T14:17:48-10:00 2021-08-05T13:17:48-11:00  21.31305 -157.88883     306   0.0 Hōkūleʻa
  2021-08-06T00:09:45UTC 2021-08-05T14:09:45-10:00 2021-08-05T13:09:45-11:00  21.31311 -157.88862     321   0.0 Hikianalia
  2021-08-05T23:27:26UTC 2021-08-05T13:27:26-10:00 2021-08-05T12:27:26-11:00  21.31300 -157.88877     119   0.0 Hōkūleʻa
  2021-08-05T23:10:44UTC 2021-08-05T13:10:44-10:00 2021-08-05T12:10:44-11:00  21.31304 -157.88856     141   0.0 Hikianalia
  2021-08-05T22:17:24UTC 2021-08-05T12:17:24-10:00 2021-08-05T11:17:24-11:00  21.31303 -157.88881       0   0.0 Hōkūleʻa
  2021-08-05T22:10:08UTC 2021-08-05T12:10:08-10:00 2021-08-05T11:10:08-11:00  21.31311 -157.88862       0   0.0 Hikianalia
  2021-08-05T21:17:24UTC 2021-08-05T11:17:24-10:00 2021-08-05T10:17:24-11:00  21.31303 -157.88881     180   0.0 Hōkūleʻa
  2021-08-05T21:10:09UTC 2021-08-05T11:10:09-10:00 2021-08-05T10:10:09-11:00  21.31311 -157.88862     148   0.0 Hikianalia
  2021-08-05T20:18:47UTC 2021-08-05T10:18:47-10:00 2021-08-05T09:18:47-11:00  21.31305 -157.88881      90   0.0 Hōkūleʻa
  2021-08-05T20:11:14UTC 2021-08-05T10:11:14-10:00 2021-08-05T09:11:14-11:00  21.31314 -157.88864       0   0.0 Hikianalia
  2021-08-05T19:17:35UTC 2021-08-05T09:17:35-10:00 2021-08-05T08:17:35-11:00  21.31305 -157.88883       0   0.0 Hōkūleʻa
  2021-08-05T19:10:13UTC 2021-08-05T09:10:13-10:00 2021-08-05T08:10:13-11:00  21.31311 -157.88864     270   0.0 Hikianalia
  2021-08-05T18:18:31UTC 2021-08-05T08:18:31-10:00 2021-08-05T07:18:31-11:00  21.31303 -157.88883     180   0.0 Hōkūleʻa
  2021-08-05T18:10:08UTC 2021-08-05T08:10:08-10:00 2021-08-05T07:10:08-11:00  21.31311 -157.88862      61   0.0 Hikianalia
  2021-08-05T17:18:29UTC 2021-08-05T07:18:29-10:00 2021-08-05T06:18:29-11:00  21.31305 -157.88883       0   0.0 Hōkūleʻa
  2021-08-05T17:11:09UTC 2021-08-05T07:11:09-10:00 2021-08-05T06:11:09-11:00  21.31310 -157.88864       0   0.0 Hikianalia
  2021-08-05T16:18:46UTC 2021-08-05T06:18:46-10:00 2021-08-05T05:18:46-11:00  21.31303 -157.88883       0   0.0 Hōkūleʻa
  2021-08-05T16:10:47UTC 2021-08-05T06:10:47-10:00 2021-08-05T05:10:47-11:00  21.31308 -157.88864     154   0.0 Hikianalia
  2021-08-05T15:18:32UTC 2021-08-05T05:18:32-10:00 2021-08-05T04:18:32-11:00  21.31303 -157.88883     180   0.0 Hōkūleʻa
  2021-08-05T15:10:43UTC 2021-08-05T05:10:43-10:00 2021-08-05T04:10:43-11:00  21.31312 -157.88866     180   0.0 Hikianalia
  2021-08-05T14:18:35UTC 2021-08-05T04:18:35-10:00 2021-08-05T03:18:35-11:00  21.31306 -157.88883     328   0.0 Hōkūleʻa
  2021-08-05T14:11:17UTC 2021-08-05T04:11:17-10:00 2021-08-05T03:11:17-11:00  21.31313 -157.88866     308   0.0 Hikianalia
  2021-08-05T13:18:33UTC 2021-08-05T03:18:33-10:00 2021-08-05T02:18:33-11:00  21.31303 -157.88881      90   0.0 Hōkūleʻa
  2021-08-05T13:11:14UTC 2021-08-05T03:11:14-10:00 2021-08-05T02:11:14-11:00  21.31310 -157.88862     308   0.0 Hikianalia
  2021-08-05T12:18:40UTC 2021-08-05T02:18:40-10:00 2021-08-05T01:18:40-11:00  21.31303 -157.88883     137   0.0 Hōkūleʻa
  2021-08-05T12:09:36UTC 2021-08-05T02:09:36-10:00 2021-08-05T01:09:36-11:00  21.31307 -157.88858     270   0.0 Hikianalia
  2021-08-05T11:18:37UTC 2021-08-05T01:18:37-10:00 2021-08-05T00:18:37-11:00  21.31307 -157.88888     299   0.0 Hōkūleʻa
  2021-08-05T11:10:35UTC 2021-08-05T01:10:35-10:00 2021-08-05T00:10:35-11:00  21.31307 -157.88856     118   0.0 Hikianalia
  2021-08-05T10:18:32UTC 2021-08-05T00:18:32-10:00 2021-08-04T23:18:32-11:00  21.31306 -157.88886     327   0.0 Hōkūleʻa
  2021-08-05T10:11:15UTC 2021-08-05T00:11:15-10:00 2021-08-04T23:11:15-11:00  21.31311 -157.88864     299   0.0 Hikianalia
  2021-08-05T09:18:25UTC 2021-08-04T23:18:25-10:00 2021-08-04T22:18:25-11:00  21.31303 -157.88883     223   0.0 Hōkūleʻa
  2021-08-05T09:11:05UTC 2021-08-04T23:11:05-10:00 2021-08-04T22:11:05-11:00  21.31310 -157.88862     137   0.0 Hikianalia
  2021-08-05T08:18:49UTC 2021-08-04T22:18:49-10:00 2021-08-04T21:18:49-11:00  21.31305 -157.88881       0   0.0 Hōkūleʻa
  2021-08-05T08:10:46UTC 2021-08-04T22:10:46-10:00 2021-08-04T21:10:46-11:00  21.31317 -157.88868     321   0.0 Hikianalia
  2021-08-05T07:18:30UTC 2021-08-04T21:18:30-10:00 2021-08-04T20:18:30-11:00  21.31304 -157.88881       0   0.0 Hōkūleʻa
  2021-08-05T07:10:51UTC 2021-08-04T21:10:51-10:00 2021-08-04T20:10:51-11:00  21.31309 -157.88862     180   0.0 Hikianalia
  2021-08-05T06:18:32UTC 2021-08-04T20:18:32-10:00 2021-08-04T19:18:32-11:00  21.31303 -157.88881     223   0.0 Hōkūleʻa
  2021-08-05T06:11:19UTC 2021-08-04T20:11:19-10:00 2021-08-04T19:11:19-11:00  21.31313 -157.88862      90   0.0 Hikianalia
  2021-08-05T05:17:32UTC 2021-08-04T19:17:32-10:00 2021-08-04T18:17:32-11:00  21.31305 -157.88879      76   0.0 Hōkūleʻa
  2021-08-05T05:09:41UTC 2021-08-04T19:09:41-10:00 2021-08-04T18:09:41-11:00  21.31313 -157.88864       0   0.0 Hikianalia
  2021-08-05T04:18:41UTC 2021-08-04T18:18:41-10:00 2021-08-04T17:18:41-11:00  21.31304 -157.88883      90   0.0 Hōkūleʻa
  2021-08-05T04:10:39UTC 2021-08-04T18:10:39-10:00 2021-08-04T17:10:39-11:00  21.31311 -157.88864     212   0.0 Hikianalia
  2021-08-05T03:18:31UTC 2021-08-04T17:18:31-10:00 2021-08-04T16:18:31-11:00  21.31304 -157.88888     242   0.0 Hōkūleʻa
  2021-08-05T03:11:14UTC 2021-08-04T17:11:14-10:00 2021-08-04T16:11:14-11:00  21.31314 -157.88862       0   0.0 Hikianalia
  2021-08-05T02:17:32UTC 2021-08-04T16:17:32-10:00 2021-08-04T15:17:32-11:00  21.31306 -157.88883       0   0.0 Hōkūleʻa
  2021-08-05T02:10:16UTC 2021-08-04T16:10:16-10:00 2021-08-04T15:10:16-11:00  21.31314 -157.88862      48   0.0 Hikianalia
  2021-08-05T01:18:32UTC 2021-08-04T15:18:32-10:00 2021-08-04T14:18:32-11:00  21.31306 -157.88883       0   0.0 Hōkūleʻa
  2021-08-05T01:10:48UTC 2021-08-04T15:10:48-10:00 2021-08-04T14:10:48-11:00  21.31304 -157.88875     232   0.0 Hikianalia
  2021-08-05T00:17:41UTC 2021-08-04T14:17:41-10:00 2021-08-04T13:17:41-11:00  21.31305 -157.88883     295   0.0 Hōkūleʻa
  2021-08-05T00:10:05UTC 2021-08-04T14:10:05-10:00 2021-08-04T13:10:05-11:00  21.31313 -157.88862       0   0.0 Hikianalia
  2021-08-04T23:17:39UTC 2021-08-04T13:17:39-10:00 2021-08-04T12:17:39-11:00  21.31297 -157.88866     120   0.0 Hōkūleʻa
  2021-08-04T23:10:43UTC 2021-08-04T13:10:43-10:00 2021-08-04T12:10:43-11:00  21.31310 -157.88862     213   0.0 Hikianalia
  2021-08-04T22:18:32UTC 2021-08-04T12:18:32-10:00 2021-08-04T11:18:32-11:00  21.31309 -157.88888     308   0.0 Hōkūleʻa
  2021-08-04T22:09:45UTC 2021-08-04T12:09:45-10:00 2021-08-04T11:09:45-11:00  21.31313 -157.88860      64   0.0 Hikianalia
  2021-08-04T21:17:32UTC 2021-08-04T11:17:32-10:00 2021-08-04T10:17:32-11:00  21.31306 -157.88883     317   0.0 Hōkūleʻa
  2021-08-04T21:10:08UTC 2021-08-04T11:10:08-10:00 2021-08-04T10:10:08-11:00  21.31312 -157.88862      90   0.0 Hikianalia
  2021-08-04T20:18:45UTC 2021-08-04T10:18:45-10:00 2021-08-04T09:18:45-11:00  21.31304 -157.88881     117   0.0 Hōkūleʻa
  2021-08-04T20:10:14UTC 2021-08-04T10:10:14-10:00 2021-08-04T09:10:14-11:00  21.31312 -157.88866     285   0.0 Hikianalia
  2021-08-04T19:17:35UTC 2021-08-04T09:17:35-10:00 2021-08-04T08:17:35-11:00  21.31305 -157.88883       0   0.0 Hōkūleʻa
  2021-08-04T19:10:39UTC 2021-08-04T09:10:39-10:00 2021-08-04T08:10:39-11:00  21.31311 -157.88862       0   0.0 Hikianalia
  2021-08-04T18:18:34UTC 2021-08-04T08:18:34-10:00 2021-08-04T07:18:34-11:00  21.31304 -157.88883       0   0.0 Hōkūleʻa
  2021-08-04T18:10:16UTC 2021-08-04T08:10:16-10:00 2021-08-04T07:10:16-11:00  21.31310 -157.88862     143   0.0 Hikianalia
  2021-08-04T17:18:22UTC 2021-08-04T07:18:22-10:00 2021-08-04T06:18:22-11:00  21.31304 -157.88883       0   0.0 Hōkūleʻa
  2021-08-04T17:10:41UTC 2021-08-04T07:10:41-10:00 2021-08-04T06:10:41-11:00  21.31315 -157.88866     317   0.0 Hikianalia
  2021-08-04T16:18:49UTC 2021-08-04T06:18:49-10:00 2021-08-04T05:18:49-11:00  21.31303 -157.88883       0   0.0 Hōkūleʻa
  2021-08-04T16:11:12UTC 2021-08-04T06:11:12-10:00 2021-08-04T05:11:12-11:00  21.31311 -157.88862       0   0.0 Hikianalia
  2021-08-04T15:26:20UTC 2021-08-04T05:26:20-10:00 2021-08-04T04:26:20-11:00  21.31303 -157.88883       0   0.0 Hōkūleʻa
  2021-08-04T15:11:11UTC 2021-08-04T05:11:11-10:00 2021-08-04T04:11:11-11:00  21.31309 -157.88862     180   0.0 Hikianalia
  2021-08-04T14:18:30UTC 2021-08-04T04:18:30-10:00 2021-08-04T03:18:30-11:00  21.31303 -157.88883     180   0.0 Hōkūleʻa
  2021-08-04T14:10:47UTC 2021-08-04T04:10:47-10:00 2021-08-04T03:10:47-11:00  21.31311 -157.88862       0   0.0 Hikianalia
  2021-08-04T13:17:24UTC 2021-08-04T03:17:24-10:00 2021-08-04T02:17:24-11:00  21.31304 -157.88883       0   0.0 Hōkūleʻa
  2021-08-04T13:10:39UTC 2021-08-04T03:10:39-10:00 2021-08-04T02:10:39-11:00  21.31307 -157.88862     180   0.0 Hikianalia
  2021-08-04T12:18:41UTC 2021-08-04T02:18:41-10:00 2021-08-04T01:18:41-11:00  21.31303 -157.88883       0   0.0 Hōkūleʻa
  2021-08-04T12:11:16UTC 2021-08-04T02:11:16-10:00 2021-08-04T01:11:16-11:00  21.31311 -157.88862     137   0.0 Hikianalia
  2021-08-04T11:18:29UTC 2021-08-04T01:18:29-10:00 2021-08-04T00:18:29-11:00  21.31302 -157.88883     180   0.0 Hōkūleʻa
  2021-08-04T11:10:45UTC 2021-08-04T01:10:45-10:00 2021-08-04T00:10:45-11:00  21.31313 -157.88864     317   0.0 Hikianalia
  2021-08-04T10:18:32UTC 2021-08-04T00:18:32-10:00 2021-08-03T23:18:32-11:00  21.31305 -157.88883     270   0.0 Hōkūleʻa
  2021-08-04T10:10:48UTC 2021-08-04T00:10:48-10:00 2021-08-03T23:10:48-11:00  21.31305 -157.88856     127   0.0 Hikianalia
  2021-08-04T09:18:29UTC 2021-08-03T23:18:29-10:00 2021-08-03T22:18:29-11:00  21.31305 -157.88881      43   0.0 Hōkūleʻa
  2021-08-04T09:10:42UTC 2021-08-03T23:10:42-10:00 2021-08-03T22:10:42-11:00  21.31312 -157.88866     299   0.0 Hikianalia
  2021-08-04T08:18:39UTC 2021-08-03T22:18:39-10:00 2021-08-03T21:18:39-11:00  21.31303 -157.88883     318   0.0 Hōkūleʻa
  2021-08-04T08:11:16UTC 2021-08-03T22:11:16-10:00 2021-08-03T21:11:16-11:00  21.31310 -157.88862     333   0.0 Hikianalia
  2021-08-04T07:18:30UTC 2021-08-03T21:18:30-10:00 2021-08-03T20:18:30-11:00  21.31300 -157.88881     149   0.0 Hōkūleʻa
  2021-08-04T07:10:48UTC 2021-08-03T21:10:48-10:00 2021-08-03T20:10:48-11:00  21.31298 -157.88856     163   0.0 Hikianalia
  2021-08-04T06:18:38UTC 2021-08-03T20:18:38-10:00 2021-08-03T19:18:38-11:00  21.31304 -157.88883       0   0.0 Hōkūleʻa
  2021-08-04T06:10:46UTC 2021-08-03T20:10:46-10:00 2021-08-03T19:10:46-11:00  21.31305 -157.88858     148   0.0 Hikianalia
  2021-08-04T05:18:28UTC 2021-08-03T19:18:28-10:00 2021-08-03T18:18:28-11:00  21.31304 -157.88883       0   0.0 Hōkūleʻa
  2021-08-04T05:11:18UTC 2021-08-03T19:11:18-10:00 2021-08-03T18:11:18-11:00  21.31311 -157.88862       0   0.0 Hikianalia
  2021-08-04T04:17:46UTC 2021-08-03T18:17:46-10:00 2021-08-03T17:17:46-11:00  21.31304 -157.88883       0   0.0 Hōkūleʻa
  2021-08-04T04:11:16UTC 2021-08-03T18:11:16-10:00 2021-08-03T17:11:16-11:00  21.31309 -157.88862     180   0.0 Hikianalia
  2021-08-04T03:18:33UTC 2021-08-03T17:18:33-10:00 2021-08-03T16:18:33-11:00  21.31304 -157.88883       0   0.0 Hōkūleʻa
  2021-08-04T03:09:46UTC 2021-08-03T17:09:46-10:00 2021-08-03T16:09:46-11:00  21.31311 -157.88862       0   0.0 Hikianalia
  2021-08-04T02:17:32UTC 2021-08-03T16:17:32-10:00 2021-08-03T15:17:32-11:00  21.31304 -157.88883       0   0.0 Hōkūleʻa
  2021-08-04T02:10:40UTC 2021-08-03T16:10:40-10:00 2021-08-03T15:10:40-11:00  21.31311 -157.88862       0   0.0 Hikianalia
  2021-08-04T01:18:24UTC 2021-08-03T15:18:24-10:00 2021-08-03T14:18:24-11:00  21.31304 -157.88883     180   0.0 Hōkūleʻa
  2021-08-04T01:09:47UTC 2021-08-03T15:09:47-10:00 2021-08-03T14:09:47-11:00  21.31311 -157.88862      61   0.0 Hikianalia
  2021-08-04T00:17:41UTC 2021-08-03T14:17:41-10:00 2021-08-03T13:17:41-11:00  21.31305 -157.88883       0   0.0 Hōkūleʻa
  2021-08-04T00:11:20UTC 2021-08-03T14:11:20-10:00 2021-08-03T13:11:20-11:00  21.31310 -157.88864     241   0.0 Hikianalia
  2021-08-03T23:17:38UTC 2021-08-03T13:17:38-10:00 2021-08-03T12:17:38-11:00  21.31303 -157.88883     180   0.0 Hōkūleʻa
  2021-08-03T23:09:47UTC 2021-08-03T13:09:47-10:00 2021-08-03T12:09:47-11:00  21.31311 -157.88862       0   0.0 Hikianalia
  2021-08-03T22:17:31UTC 2021-08-03T12:17:31-10:00 2021-08-03T11:17:31-11:00  21.31305 -157.88883     317   0.0 Hōkūleʻa
  2021-08-03T22:10:48UTC 2021-08-03T12:10:48-10:00 2021-08-03T11:10:48-11:00  21.31311 -157.88862      90   0.0 Hikianalia
  2021-08-03T21:18:31UTC 2021-08-03T11:18:31-10:00 2021-08-03T10:18:31-11:00  21.31303 -157.88881     180   0.0 Hōkūleʻa
  2021-08-03T21:10:45UTC 2021-08-03T11:10:45-10:00 2021-08-03T10:10:45-11:00  21.31311 -157.88873     270   0.0 Hikianalia
  2021-08-03T20:17:48UTC 2021-08-03T10:17:48-10:00 2021-08-03T09:17:48-11:00  21.31304 -157.88881       0   0.0 Hōkūleʻa
  2021-08-03T20:10:34UTC 2021-08-03T10:10:34-10:00 2021-08-03T09:10:34-11:00  21.31311 -157.88864     242   0.0 Hikianalia
  2021-08-03T19:18:25UTC 2021-08-03T09:18:25-10:00 2021-08-03T08:18:25-11:00  21.31303 -157.88881       0   0.0 Hōkūleʻa
  2021-08-03T19:10:06UTC 2021-08-03T09:10:06-10:00 2021-08-03T08:10:06-11:00  21.31313 -157.88860      49   0.0 Hikianalia
  2021-08-03T18:18:33UTC 2021-08-03T08:18:33-10:00 2021-08-03T07:18:33-11:00  21.31303 -157.88881      61   0.0 Hōkūleʻa
  2021-08-03T18:10:46UTC 2021-08-03T08:10:46-10:00 2021-08-03T07:10:46-11:00  21.31308 -157.88866     208   0.0 Hikianalia
  2021-08-03T17:18:50UTC 2021-08-03T07:18:50-10:00 2021-08-03T06:18:50-11:00  21.31302 -157.88883     270   0.0 Hōkūleʻa
  2021-08-03T17:10:48UTC 2021-08-03T07:10:48-10:00 2021-08-03T06:10:48-11:00  21.31315 -157.88862       0   0.0 Hikianalia
  2021-08-03T16:18:24UTC 2021-08-03T06:18:24-10:00 2021-08-03T05:18:24-11:00  21.31302 -157.88881      90   0.0 Hōkūleʻa
  2021-08-03T16:11:14UTC 2021-08-03T06:11:14-10:00 2021-08-03T05:11:14-11:00  21.31311 -157.88862       0   0.0 Hikianalia
  2021-08-03T15:17:30UTC 2021-08-03T05:17:30-10:00 2021-08-03T04:17:30-11:00  21.31302 -157.88883     180   0.0 Hōkūleʻa
  2021-08-03T15:10:44UTC 2021-08-03T05:10:44-10:00 2021-08-03T04:10:44-11:00  21.31311 -157.88862       0   0.0 Hikianalia
  2021-08-03T14:22:22UTC 2021-08-03T04:22:22-10:00 2021-08-03T03:22:22-11:00  21.31311 -157.88862       0   0.0 Hikianalia
  2021-08-03T14:18:40UTC 2021-08-03T04:18:40-10:00 2021-08-03T03:18:40-11:00  21.31304 -157.88883       0   0.0 Hōkūleʻa
  2021-08-03T13:18:35UTC 2021-08-03T03:18:35-10:00 2021-08-03T02:18:35-11:00  21.31302 -157.88883     180   0.0 Hōkūleʻa
  2021-08-03T13:11:19UTC 2021-08-03T03:11:19-10:00 2021-08-03T02:11:19-11:00  21.31311 -157.88862     292   0.1 Hikianalia
  2021-08-03T12:18:31UTC 2021-08-03T02:18:31-10:00 2021-08-03T01:18:31-11:00  21.31303 -157.88883     180   0.0 Hōkūleʻa
  2021-08-03T12:10:38UTC 2021-08-03T02:10:38-10:00 2021-08-03T01:10:38-11:00  21.31235 -157.88660     108   0.1 Hikianalia
  2021-08-03T11:18:31UTC 2021-08-03T01:18:31-10:00 2021-08-03T00:18:31-11:00  21.31304 -157.88883     180   0.0 Hōkūleʻa
  2021-08-03T11:10:41UTC 2021-08-03T01:10:41-10:00 2021-08-03T00:10:41-11:00  21.31300 -157.88873     214   0.0 Hikianalia
  2021-08-03T10:18:44UTC 2021-08-03T00:18:44-10:00 2021-08-02T23:18:44-11:00  21.31305 -157.88883     180   0.0 Hōkūleʻa
  2021-08-03T10:11:41UTC 2021-08-03T00:11:41-10:00 2021-08-02T23:11:41-11:00  21.31312 -157.88864     328   0.0 Hikianalia
  2021-08-03T09:19:34UTC 2021-08-02T23:19:34-10:00 2021-08-02T22:19:34-11:00  21.31306 -157.88883     270   0.0 Hōkūleʻa
  2021-08-03T09:10:46UTC 2021-08-02T23:10:46-10:00 2021-08-02T22:10:46-11:00  21.31306 -157.88860      66   0.0 Hikianalia
  2021-08-03T08:18:39UTC 2021-08-02T22:18:39-10:00 2021-08-02T21:18:39-11:00  21.31306 -157.88881     180   0.0 Hōkūleʻa
  2021-08-03T08:09:49UTC 2021-08-02T22:09:49-10:00 2021-08-02T21:09:49-11:00  21.31300 -157.88873     266   0.0 Hikianalia
  2021-08-03T07:18:27UTC 2021-08-02T21:18:27-10:00 2021-08-02T20:18:27-11:00  21.31307 -157.88881       0   0.0 Hōkūleʻa
  2021-08-03T07:10:39UTC 2021-08-02T21:10:39-10:00 2021-08-02T20:10:39-11:00  21.31302 -157.88856     145   0.0 Hikianalia
  2021-08-03T06:18:49UTC 2021-08-02T20:18:49-10:00 2021-08-02T19:18:49-11:00  21.31303 -157.88881     119   0.0 Hōkūleʻa
  2021-08-03T06:11:18UTC 2021-08-02T20:11:18-10:00 2021-08-02T19:11:18-11:00  21.31310 -157.88862      46   0.0 Hikianalia
  2021-08-03T05:17:38UTC 2021-08-02T19:17:38-10:00 2021-08-02T18:17:38-11:00  21.31304 -157.88883     299   0.0 Hōkūleʻa
  2021-08-03T05:10:45UTC 2021-08-02T19:10:45-10:00 2021-08-02T18:10:45-11:00  21.31300 -157.88873     323   0.0 Hikianalia
  2021-08-03T04:18:27UTC 2021-08-02T18:18:27-10:00 2021-08-02T17:18:27-11:00  21.31303 -157.88881     223   0.0 Hōkūleʻa
  2021-08-03T04:10:48UTC 2021-08-02T18:10:48-10:00 2021-08-02T17:10:48-11:00  21.31290 -157.88864     195   0.0 Hikianalia
  2021-08-03T03:18:32UTC 2021-08-02T17:18:32-10:00 2021-08-02T16:18:32-11:00  21.31305 -157.88879      90   0.0 Hōkūleʻa
  2021-08-03T03:10:46UTC 2021-08-02T17:10:46-10:00 2021-08-02T16:10:46-11:00  21.31312 -157.88858      97   0.0 Hikianalia
  2021-08-03T02:17:46UTC 2021-08-02T16:17:46-10:00 2021-08-02T15:17:46-11:00  21.31305 -157.88883       0   0.0 Hōkūleʻa
  2021-08-03T02:10:45UTC 2021-08-02T16:10:45-10:00 2021-08-02T15:10:45-11:00  21.31313 -157.88866      25   0.0 Hikianalia
  2021-08-03T01:17:24UTC 2021-08-02T15:17:24-10:00 2021-08-02T14:17:24-11:00  21.31304 -157.88883       0   0.0 Hōkūleʻa
  2021-08-03T01:10:47UTC 2021-08-02T15:10:47-10:00 2021-08-02T14:10:47-11:00  21.31300 -157.88873     226   0.0 Hikianalia
  2021-08-03T00:18:30UTC 2021-08-02T14:18:30-10:00 2021-08-02T13:18:30-11:00  21.31302 -157.88883     212   0.0 Hōkūleʻa
  2021-08-03T00:10:12UTC 2021-08-02T14:10:12-10:00 2021-08-02T13:10:12-11:00  21.31310 -157.88862      46   0.0 Hikianalia
  2021-08-02T23:17:31UTC 2021-08-02T13:17:31-10:00 2021-08-02T12:17:31-11:00  21.31305 -157.88881      63   0.0 Hōkūleʻa
  2021-08-02T23:09:56UTC 2021-08-02T13:09:56-10:00 2021-08-02T12:09:56-11:00  21.31300 -157.88873       0   0.0 Hikianalia
  2021-08-02T22:17:45UTC 2021-08-02T12:17:45-10:00 2021-08-02T11:17:45-11:00  21.31304 -157.88883     290   0.0 Hōkūleʻa
  2021-08-02T22:10:48UTC 2021-08-02T12:10:48-10:00 2021-08-02T11:10:48-11:00  21.31300 -157.88873     226   0.0 Hikianalia
  2021-08-02T21:18:24UTC 2021-08-02T11:18:24-10:00 2021-08-02T10:18:24-11:00  21.31302 -157.88877     119   0.0 Hōkūleʻa
  2021-08-02T21:09:37UTC 2021-08-02T11:09:37-10:00 2021-08-02T10:09:37-11:00  21.31310 -157.88862     119   0.0 Hikianalia
  2021-08-02T20:17:29UTC 2021-08-02T10:17:29-10:00 2021-08-02T09:17:29-11:00  21.31304 -157.88881     180   0.0 Hōkūleʻa
  2021-08-02T20:11:16UTC 2021-08-02T10:11:16-10:00 2021-08-02T09:11:16-11:00  21.31311 -157.88864      56   0.0 Hikianalia
  2021-08-02T19:18:24UTC 2021-08-02T09:18:24-10:00 2021-08-02T08:18:24-11:00  21.31305 -157.88881      63   0.0 Hōkūleʻa
  2021-08-02T19:10:48UTC 2021-08-02T09:10:48-10:00 2021-08-02T08:10:48-11:00  21.31306 -157.88873     205   0.0 Hikianalia
  2021-08-02T18:18:45UTC 2021-08-02T08:18:45-10:00 2021-08-02T07:18:45-11:00  21.31304 -157.88883     212   0.0 Hōkūleʻa
  2021-08-02T18:09:48UTC 2021-08-02T08:09:48-10:00 2021-08-02T07:09:48-11:00  21.31310 -157.88871     262   0.0 Hikianalia
  2021-08-02T17:18:37UTC 2021-08-02T07:18:37-10:00 2021-08-02T06:18:37-11:00  21.31313 -157.88877      25   0.0 Hōkūleʻa
  2021-08-02T17:10:35UTC 2021-08-02T07:10:35-10:00 2021-08-02T06:10:35-11:00  21.31311 -157.88862      75   0.0 Hikianalia
  2021-08-02T16:18:40UTC 2021-08-02T06:18:40-10:00 2021-08-02T05:18:40-11:00  21.31300 -157.88883     180   0.0 Hōkūleʻa
  2021-08-02T16:11:17UTC 2021-08-02T06:11:17-10:00 2021-08-02T05:11:17-11:00  21.31310 -157.88866     270   0.0 Hikianalia
  2021-08-02T15:18:24UTC 2021-08-02T05:18:24-10:00 2021-08-02T04:18:24-11:00  21.31302 -157.88883     241   0.0 Hōkūleʻa
  2021-08-02T15:10:43UTC 2021-08-02T05:10:43-10:00 2021-08-02T04:10:43-11:00  21.31310 -157.88856      72   0.0 Hikianalia
  2021-08-02T14:18:56UTC 2021-08-02T04:18:56-10:00 2021-08-02T03:18:56-11:00  21.31303 -157.88881     270   0.0 Hōkūleʻa
  2021-08-02T14:10:44UTC 2021-08-02T04:10:44-10:00 2021-08-02T03:10:44-11:00  21.31307 -157.88866     180   0.0 Hikianalia
  2021-08-02T13:18:37UTC 2021-08-02T03:18:37-10:00 2021-08-02T02:18:37-11:00  21.31303 -157.88879     106   0.0 Hōkūleʻa
  2021-08-02T13:10:48UTC 2021-08-02T03:10:48-10:00 2021-08-02T02:10:48-11:00  21.31310 -157.88866     255   0.0 Hikianalia
  2021-08-02T12:27:36UTC 2021-08-02T02:27:36-10:00 2021-08-02T01:27:36-11:00  21.31304 -157.88883     299   0.0 Hōkūleʻa
  2021-08-02T12:11:17UTC 2021-08-02T02:11:17-10:00 2021-08-02T01:11:17-11:00  21.31311 -157.88862     334   0.0 Hikianalia
  2021-08-02T11:18:21UTC 2021-08-02T01:18:21-10:00 2021-08-02T00:18:21-11:00  21.31303 -157.88881      90   0.0 Hōkūleʻa
  2021-08-02T11:10:36UTC 2021-08-02T01:10:36-10:00 2021-08-02T00:10:36-11:00  21.31307 -157.88860     148   0.0 Hikianalia
  2021-08-02T10:18:38UTC 2021-08-02T00:18:38-10:00 2021-08-01T23:18:38-11:00  21.31317 -157.88866     316   0.0 Hikianalia
  2021-08-02T10:18:38UTC 2021-08-02T00:18:38-10:00 2021-08-01T23:18:38-11:00  21.31303 -157.88883     180   0.0 Hōkūleʻa
  2021-08-02T09:18:30UTC 2021-08-01T23:18:30-10:00 2021-08-01T22:18:30-11:00  21.31305 -157.88883     270   0.0 Hōkūleʻa
  2021-08-02T09:10:38UTC 2021-08-01T23:10:38-10:00 2021-08-01T22:10:38-11:00  21.31310 -157.88860      90   0.0 Hikianalia
  2021-08-02T08:17:38UTC 2021-08-01T22:17:38-10:00 2021-08-01T21:17:38-11:00  21.31305 -157.88881       0   0.0 Hōkūleʻa
  2021-08-02T08:11:15UTC 2021-08-01T22:11:15-10:00 2021-08-01T21:11:15-11:00  21.31310 -157.88862      46   0.0 Hikianalia
  2021-08-02T07:18:25UTC 2021-08-01T21:18:25-10:00 2021-08-01T20:18:25-11:00  21.31299 -157.88881     180   0.0 Hōkūleʻa
  2021-08-02T07:10:45UTC 2021-08-01T21:10:45-10:00 2021-08-01T20:10:45-11:00  21.31300 -157.88873     223   0.0 Hikianalia
  2021-08-02T06:18:41UTC 2021-08-01T20:18:41-10:00 2021-08-01T19:18:41-11:00  21.31303 -157.88881     223   0.0 Hōkūleʻa
  2021-08-02T06:11:17UTC 2021-08-01T20:11:17-10:00 2021-08-01T19:11:17-11:00  21.31311 -157.88862      43   0.0 Hikianalia
  2021-08-02T05:18:56UTC 2021-08-01T19:18:56-10:00 2021-08-01T18:18:56-11:00  21.31300 -157.88873       0   0.0 Hikianalia
  2021-08-02T05:18:30UTC 2021-08-01T19:18:30-10:00 2021-08-01T18:18:30-11:00  21.31305 -157.88879      90   0.0 Hōkūleʻa
  2021-08-02T04:17:33UTC 2021-08-01T18:17:33-10:00 2021-08-01T17:17:33-11:00  21.31305 -157.88881       0   0.0 Hōkūleʻa
  2021-08-02T04:10:47UTC 2021-08-01T18:10:47-10:00 2021-08-01T17:10:47-11:00  21.31300 -157.88873       0   0.0 Hikianalia
  2021-08-02T03:18:24UTC 2021-08-01T17:18:24-10:00 2021-08-01T16:18:24-11:00  21.31305 -157.88881      90   0.0 Hōkūleʻa
  2021-08-02T03:10:46UTC 2021-08-01T17:10:46-10:00 2021-08-01T16:10:46-11:00  21.31300 -157.88873     205   0.0 Hikianalia
  2021-08-02T02:18:49UTC 2021-08-01T16:18:49-10:00 2021-08-01T15:18:49-11:00  21.31305 -157.88883     284   0.0 Hōkūleʻa
  2021-08-02T02:10:19UTC 2021-08-01T16:10:19-10:00 2021-08-01T15:10:19-11:00  21.31313 -157.88866      25   0.0 Hikianalia
  2021-08-02T01:17:35UTC 2021-08-01T15:17:35-10:00 2021-08-01T14:17:35-11:00  21.31304 -157.88879     317   0.0 Hōkūleʻa
  2021-08-02T01:10:49UTC 2021-08-01T15:10:49-10:00 2021-08-01T14:10:49-11:00  21.31300 -157.88873       0   0.0 Hikianalia
  2021-08-02T00:17:32UTC 2021-08-01T14:17:32-10:00 2021-08-01T13:17:32-11:00  21.31302 -157.88877     118   0.0 Hōkūleʻa
  2021-08-02T00:09:46UTC 2021-08-01T14:09:46-10:00 2021-08-01T13:09:46-11:00  21.31300 -157.88873       0   0.0 Hikianalia
  2021-08-01T23:18:30UTC 2021-08-01T13:18:30-10:00 2021-08-01T12:18:30-11:00  21.31303 -157.88879       0   0.0 Hōkūleʻa
  2021-08-01T23:10:35UTC 2021-08-01T13:10:35-10:00 2021-08-01T12:10:35-11:00  21.31300 -157.88873     223   0.0 Hikianalia
  2021-08-01T22:17:48UTC 2021-08-01T12:17:48-10:00 2021-08-01T11:17:48-11:00  21.31303 -157.88879     123   0.0 Hōkūleʻa
  2021-08-01T22:10:20UTC 2021-08-01T12:10:20-10:00 2021-08-01T11:10:20-11:00  21.31311 -157.88862     100   0.0 Hikianalia
  2021-08-01T21:17:25UTC 2021-08-01T11:17:25-10:00 2021-08-01T10:17:25-11:00  21.31309 -157.88890     305   0.0 Hōkūleʻa
  2021-08-01T21:10:47UTC 2021-08-01T11:10:47-10:00 2021-08-01T10:10:47-11:00  21.31313 -157.88875     255   0.0 Hikianalia
  2021-08-01T20:18:45UTC 2021-08-01T10:18:45-10:00 2021-08-01T09:18:45-11:00  21.31305 -157.88883     297   0.0 Hōkūleʻa
  2021-08-01T20:09:49UTC 2021-08-01T10:09:49-10:00 2021-08-01T09:09:49-11:00  21.31315 -157.88866     317   0.0 Hikianalia
  2021-08-01T19:18:33UTC 2021-08-01T09:18:33-10:00 2021-08-01T08:18:33-11:00  21.31304 -157.88881      42   0.0 Hōkūleʻa
  2021-08-01T19:10:50UTC 2021-08-01T09:10:50-10:00 2021-08-01T08:10:50-11:00  21.31311 -157.88862       0   0.0 Hikianalia
  2021-08-01T18:17:49UTC 2021-08-01T08:17:49-10:00 2021-08-01T07:17:49-11:00  21.31302 -157.88883      75   0.0 Hōkūleʻa
  2021-08-01T18:11:18UTC 2021-08-01T08:11:18-10:00 2021-08-01T07:11:18-11:00  21.31311 -157.88862      43   0.0 Hikianalia
  2021-08-01T17:18:31UTC 2021-08-01T07:18:31-10:00 2021-08-01T06:18:31-11:00  21.31300 -157.88888     241   0.0 Hōkūleʻa
  2021-08-01T17:10:36UTC 2021-08-01T07:10:36-10:00 2021-08-01T06:10:36-11:00  21.31303 -157.88871     236   0.0 Hikianalia
  2021-08-01T16:26:41UTC 2021-08-01T06:26:41-10:00 2021-08-01T05:26:41-11:00  21.31303 -157.88883     299   0.0 Hōkūleʻa
  2021-08-01T16:10:48UTC 2021-08-01T06:10:48-10:00 2021-08-01T05:10:48-11:00  21.31308 -157.88862     137   0.0 Hikianalia
  2021-08-01T15:18:34UTC 2021-08-01T05:18:34-10:00 2021-08-01T04:18:34-11:00  21.31302 -157.88881     119   0.0 Hōkūleʻa
  2021-08-01T15:10:56UTC 2021-08-01T05:10:56-10:00 2021-08-01T04:10:56-11:00  21.31310 -157.88864     241   0.0 Hikianalia
  2021-08-01T14:18:41UTC 2021-08-01T04:18:41-10:00 2021-08-01T03:18:41-11:00  21.31303 -157.88883      90   0.0 Hōkūleʻa
  2021-08-01T14:11:19UTC 2021-08-01T04:11:19-10:00 2021-08-01T03:11:19-11:00  21.31311 -157.88862     255   0.0 Hikianalia
  2021-08-01T13:18:26UTC 2021-08-01T03:18:26-10:00 2021-08-01T02:18:26-11:00  21.31303 -157.88886     298   0.0 Hōkūleʻa
  2021-08-01T13:09:41UTC 2021-08-01T03:09:41-10:00 2021-08-01T02:09:41-11:00  21.31312 -157.88858      37   0.0 Hikianalia
  2021-08-01T12:18:31UTC 2021-08-01T02:18:31-10:00 2021-08-01T01:18:31-11:00  21.31302 -157.88883     180   0.0 Hōkūleʻa
  2021-08-01T12:10:39UTC 2021-08-01T02:10:39-10:00 2021-08-01T01:10:39-11:00  21.31307 -157.88862     180   0.0 Hikianalia
  2021-08-01T11:18:30UTC 2021-08-01T01:18:30-10:00 2021-08-01T00:18:30-11:00  21.31304 -157.88883     299   0.0 Hōkūleʻa
  2021-08-01T11:10:47UTC 2021-08-01T01:10:47-10:00 2021-08-01T00:10:47-11:00  21.31308 -157.88862     180   0.0 Hikianalia
  2021-08-01T10:17:47UTC 2021-08-01T00:17:47-10:00 2021-07-31T23:17:47-11:00  21.31303 -157.88881     180   0.0 Hōkūleʻa
  2021-08-01T10:11:09UTC 2021-08-01T00:11:09-10:00 2021-07-31T23:11:09-11:00  21.31310 -157.88862       0   0.0 Hikianalia
  2021-08-01T09:18:25UTC 2021-07-31T23:18:25-10:00 2021-07-31T22:18:25-11:00  21.31305 -157.88881     328   0.0 Hōkūleʻa
  2021-08-01T09:10:38UTC 2021-07-31T23:10:38-10:00 2021-07-31T22:10:38-11:00  21.31310 -157.88862       0   0.0 Hikianalia
  2021-08-01T08:18:34UTC 2021-07-31T22:18:34-10:00 2021-07-31T21:18:34-11:00  21.31302 -157.88879      90   0.0 Hōkūleʻa
  2021-08-01T08:10:45UTC 2021-07-31T22:10:45-10:00 2021-07-31T21:10:45-11:00  21.31306 -157.88862     180   0.0 Hikianalia
  2021-08-01T07:18:34UTC 2021-07-31T21:18:34-10:00 2021-07-31T20:18:34-11:00  21.31302 -157.88881     222   0.0 Hōkūleʻa
  2021-08-01T07:11:07UTC 2021-07-31T21:11:07-10:00 2021-07-31T20:11:07-11:00  21.31310 -157.88862      46   0.0 Hikianalia
  2021-08-01T06:17:40UTC 2021-07-31T20:17:40-10:00 2021-07-31T19:17:40-11:00  21.31304 -157.88879      90   0.0 Hōkūleʻa
  2021-08-01T06:10:52UTC 2021-07-31T20:10:52-10:00 2021-07-31T19:10:52-11:00  21.31300 -157.88873     233   0.0 Hikianalia
  2021-08-01T05:18:22UTC 2021-07-31T19:18:22-10:00 2021-07-31T18:18:22-11:00  21.31304 -157.88886     270   0.0 Hōkūleʻa
  2021-08-01T05:10:45UTC 2021-07-31T19:10:45-10:00 2021-07-31T18:10:45-11:00  21.31308 -157.88862     180   0.0 Hikianalia
  2021-08-01T04:18:35UTC 2021-07-31T18:18:35-10:00 2021-07-31T17:18:35-11:00  21.31304 -157.88883     223   0.0 Hōkūleʻa
  2021-08-01T04:10:09UTC 2021-07-31T18:10:09-10:00 2021-07-31T17:10:09-11:00  21.31311 -157.88862      43   0.0 Hikianalia
  2021-08-01T03:18:32UTC 2021-07-31T17:18:32-10:00 2021-07-31T16:18:32-11:00  21.31306 -157.88881      43   0.0 Hōkūleʻa
  2021-08-01T03:10:45UTC 2021-07-31T17:10:45-10:00 2021-07-31T16:10:45-11:00  21.31300 -157.88873     212   0.0 Hikianalia
  2021-08-01T02:17:39UTC 2021-07-31T16:17:39-10:00 2021-07-31T15:17:39-11:00  21.31304 -157.88883     256   0.0 Hōkūleʻa
  2021-08-01T02:10:20UTC 2021-07-31T16:10:20-10:00 2021-07-31T15:10:20-11:00  21.31310 -157.88866      32   0.0 Hikianalia
  2021-08-01T01:17:36UTC 2021-07-31T15:17:36-10:00 2021-07-31T14:17:36-11:00  21.31305 -157.88879      43   0.0 Hōkūleʻa
  2021-08-01T01:10:41UTC 2021-07-31T15:10:41-10:00 2021-07-31T14:10:41-11:00  21.31300 -157.88873       0   0.0 Hikianalia
  2021-08-01T00:18:31UTC 2021-07-31T14:18:31-10:00 2021-07-31T13:18:31-11:00  21.31303 -157.88881     180   0.0 Hōkūleʻa
  2021-08-01T00:10:45UTC 2021-07-31T14:10:45-10:00 2021-07-31T13:10:45-11:00  21.31300 -157.88873       0   0.0 Hikianalia
  2021-07-31T23:17:30UTC 2021-07-31T13:17:30-10:00 2021-07-31T12:17:30-11:00  21.31304 -157.88881     117   0.0 Hōkūleʻa
  2021-07-31T23:09:46UTC 2021-07-31T13:09:46-10:00 2021-07-31T12:09:46-11:00  21.31300 -157.88873     223   0.0 Hikianalia
  2021-07-31T22:17:47UTC 2021-07-31T12:17:47-10:00 2021-07-31T11:17:47-11:00  21.31305 -157.88883     118   0.0 Hōkūleʻa
  2021-07-31T22:10:15UTC 2021-07-31T12:10:15-10:00 2021-07-31T11:10:15-11:00  21.31311 -157.88862       0   0.0 Hikianalia
  2021-07-31T21:18:32UTC 2021-07-31T11:18:32-10:00 2021-07-31T10:18:32-11:00  21.31306 -157.88886     316   0.0 Hōkūleʻa
  2021-07-31T21:10:48UTC 2021-07-31T11:10:48-10:00 2021-07-31T10:10:48-11:00  21.31306 -157.88862     316   0.0 Hikianalia
  2021-07-31T20:18:04UTC 2021-07-31T10:18:04-10:00 2021-07-31T09:18:04-11:00  21.31304 -157.88860     148   0.0 Hikianalia
  2021-07-31T20:17:32UTC 2021-07-31T10:17:32-10:00 2021-07-31T09:17:32-11:00  21.31304 -157.88883       0   0.0 Hōkūleʻa
  2021-07-31T19:18:25UTC 2021-07-31T09:18:25-10:00 2021-07-31T08:18:25-11:00  21.31303 -157.88883       0   0.0 Hōkūleʻa
  2021-07-31T19:10:46UTC 2021-07-31T09:10:46-10:00 2021-07-31T08:10:46-11:00  21.31310 -157.88864     180   0.0 Hikianalia
  2021-07-31T18:17:42UTC 2021-07-31T08:17:42-10:00 2021-07-31T07:17:42-11:00  21.31303 -157.88883       0   0.0 Hōkūleʻa
  2021-07-31T18:10:11UTC 2021-07-31T08:10:11-10:00 2021-07-31T07:10:11-11:00  21.31311 -157.88864       0   0.0 Hikianalia
  2021-07-31T17:19:56UTC 2021-07-31T07:19:56-10:00 2021-07-31T06:19:56-11:00  21.31308 -157.88864     212   0.0 Hikianalia
  2021-07-31T17:18:37UTC 2021-07-31T07:18:37-10:00 2021-07-31T06:18:37-11:00  21.31299 -157.88883     180   0.0 Hōkūleʻa
  2021-07-31T16:18:34UTC 2021-07-31T06:18:34-10:00 2021-07-31T05:18:34-11:00  21.31302 -157.88883     299   0.0 Hōkūleʻa
  2021-07-31T16:10:34UTC 2021-07-31T06:10:34-10:00 2021-07-31T05:10:34-11:00  21.31311 -157.88862       0   0.0 Hikianalia
  2021-07-31T15:17:25UTC 2021-07-31T05:17:25-10:00 2021-07-31T04:17:25-11:00  21.31300 -157.88881     149   0.0 Hōkūleʻa
  2021-07-31T15:10:39UTC 2021-07-31T05:10:39-10:00 2021-07-31T04:10:39-11:00  21.31308 -157.88862     270   0.0 Hikianalia
  2021-07-31T14:18:39UTC 2021-07-31T04:18:39-10:00 2021-07-31T03:18:39-11:00  21.31304 -157.88883      43   0.0 Hōkūleʻa
  2021-07-31T14:10:42UTC 2021-07-31T04:10:42-10:00 2021-07-31T03:10:42-11:00  21.31308 -157.88856     138   0.0 Hikianalia
  2021-07-31T13:18:36UTC 2021-07-31T03:18:36-10:00 2021-07-31T02:18:36-11:00  21.31302 -157.88886     241   0.0 Hōkūleʻa
  2021-07-31T13:10:46UTC 2021-07-31T03:10:46-10:00 2021-07-31T02:10:46-11:00  21.31312 -157.88860      90   0.0 Hikianalia
  2021-07-31T12:18:33UTC 2021-07-31T02:18:33-10:00 2021-07-31T01:18:33-11:00  21.31304 -157.88881       0   0.0 Hōkūleʻa
  2021-07-31T12:11:20UTC 2021-07-31T02:11:20-10:00 2021-07-31T01:11:20-11:00  21.31312 -157.88862     306   0.0 Hikianalia
  2021-07-31T11:18:31UTC 2021-07-31T01:18:31-10:00 2021-07-31T00:18:31-11:00  21.31303 -157.88881     180   0.0 Hōkūleʻa
  2021-07-31T11:10:45UTC 2021-07-31T01:10:45-10:00 2021-07-31T00:10:45-11:00  21.31308 -157.88856     131   0.0 Hikianalia
  2021-07-31T10:18:41UTC 2021-07-31T00:18:41-10:00 2021-07-30T23:18:41-11:00  21.31304 -157.88881       0   0.0 Hōkūleʻa
  2021-07-31T10:10:49UTC 2021-07-31T00:10:49-10:00 2021-07-30T23:10:49-11:00  21.31313 -157.88862       0   0.0 Hikianalia
  2021-07-31T09:18:33UTC 2021-07-30T23:18:33-10:00 2021-07-30T22:18:33-11:00  21.31304 -157.88881     299   0.0 Hōkūleʻa
  2021-07-31T09:10:39UTC 2021-07-30T23:10:39-10:00 2021-07-30T22:10:39-11:00  21.31311 -157.88862       0   0.0 Hikianalia
  2021-07-31T08:27:50UTC 2021-07-30T22:27:50-10:00 2021-07-30T21:27:50-11:00  21.31303 -157.88879       0   0.0 Hōkūleʻa
  2021-07-31T08:11:16UTC 2021-07-30T22:11:16-10:00 2021-07-30T21:11:16-11:00  21.31311 -157.88862      43   0.0 Hikianalia
  2021-07-31T07:18:26UTC 2021-07-30T21:18:26-10:00 2021-07-30T20:18:26-11:00  21.31300 -157.88879     180   0.0 Hōkūleʻa
  2021-07-31T07:09:53UTC 2021-07-30T21:09:53-10:00 2021-07-30T20:09:53-11:00  21.31300 -157.88873     255   0.0 Hikianalia
  2021-07-31T06:18:48UTC 2021-07-30T20:18:48-10:00 2021-07-30T19:18:48-11:00  21.31302 -157.88879     180   0.0 Hōkūleʻa
  2021-07-31T06:10:36UTC 2021-07-30T20:10:36-10:00 2021-07-30T19:10:36-11:00  21.31305 -157.88856     137   0.0 Hikianalia
  2021-07-31T05:18:28UTC 2021-07-30T19:18:28-10:00 2021-07-30T18:18:28-11:00  21.31304 -157.88879      42   0.0 Hōkūleʻa
  2021-07-31T05:10:47UTC 2021-07-30T19:10:47-10:00 2021-07-30T18:10:47-11:00  21.31311 -157.88862     180   0.0 Hikianalia
  2021-07-31T04:18:34UTC 2021-07-30T18:18:34-10:00 2021-07-30T17:18:34-11:00  21.31302 -157.88881     255   0.0 Hōkūleʻa
  2021-07-31T04:11:14UTC 2021-07-30T18:11:14-10:00 2021-07-30T17:11:14-11:00  21.31312 -157.88862     109   0.0 Hikianalia
  2021-07-31T03:18:31UTC 2021-07-30T17:18:31-10:00 2021-07-30T16:18:31-11:00  21.31303 -157.88877      80   0.0 Hōkūleʻa
  2021-07-31T03:10:45UTC 2021-07-30T17:10:45-10:00 2021-07-30T16:10:45-11:00  21.31314 -157.88868     298   0.0 Hikianalia
  2021-07-31T02:18:48UTC 2021-07-30T16:18:48-10:00 2021-07-30T15:18:48-11:00  21.31302 -157.88883       0   0.0 Hōkūleʻa
  2021-07-31T02:10:18UTC 2021-07-30T16:10:18-10:00 2021-07-30T15:10:18-11:00  21.31311 -157.88862      37   0.0 Hikianalia
  2021-07-31T01:17:26UTC 2021-07-30T15:17:26-10:00 2021-07-30T14:17:26-11:00  21.31302 -157.88883     241   0.0 Hōkūleʻa
  2021-07-31T01:09:39UTC 2021-07-30T15:09:39-10:00 2021-07-30T14:09:39-11:00  21.31295 -157.88875     200   0.0 Hikianalia
  2021-07-31T00:18:33UTC 2021-07-30T14:18:33-10:00 2021-07-30T13:18:33-11:00  21.31303 -157.88881     299   0.0 Hōkūleʻa
  2021-07-31T00:10:47UTC 2021-07-30T14:10:47-10:00 2021-07-30T13:10:47-11:00  21.31312 -157.88868     270   0.0 Hikianalia
  2021-07-30T23:17:33UTC 2021-07-30T13:17:33-10:00 2021-07-30T12:17:33-11:00  21.31302 -157.88879       0   0.0 Hōkūleʻa
  2021-07-30T23:10:19UTC 2021-07-30T13:10:19-10:00 2021-07-30T12:10:19-11:00  21.31312 -157.88862     104   0.0 Hikianalia
  2021-07-30T22:26:58UTC 2021-07-30T12:26:58-10:00 2021-07-30T11:26:58-11:00  21.31302 -157.88879     126   0.0 Hōkūleʻa
  2021-07-30T22:11:21UTC 2021-07-30T12:11:21-10:00 2021-07-30T11:11:21-11:00  21.31313 -157.88866     223   0.0 Hikianalia
  2021-07-30T21:17:26UTC 2021-07-30T11:17:26-10:00 2021-07-30T10:17:26-11:00  21.31306 -157.88886     312   0.0 Hōkūleʻa
  2021-07-30T21:09:47UTC 2021-07-30T11:09:47-10:00 2021-07-30T10:09:47-11:00  21.31318 -157.88862       0   0.0 Hikianalia
  2021-07-30T20:18:23UTC 2021-07-30T10:18:23-10:00 2021-07-30T09:18:23-11:00  21.31300 -157.88879     119   0.0 Hōkūleʻa
  2021-07-30T20:11:09UTC 2021-07-30T10:11:09-10:00 2021-07-30T09:11:09-11:00  21.31312 -157.88862     298   0.0 Hikianalia
  2021-07-30T19:18:33UTC 2021-07-30T09:18:33-10:00 2021-07-30T08:18:33-11:00  21.31302 -157.88881       0   0.0 Hōkūleʻa
  2021-07-30T19:09:47UTC 2021-07-30T09:09:47-10:00 2021-07-30T08:09:47-11:00  21.31311 -157.88860      75   0.0 Hikianalia
  2021-07-30T18:25:46UTC 2021-07-30T08:25:46-10:00 2021-07-30T07:25:46-11:00  21.31302 -157.88881     128   0.0 Hōkūleʻa
  2021-07-30T18:11:16UTC 2021-07-30T08:11:16-10:00 2021-07-30T07:11:16-11:00  21.31309 -157.88868     348   0.0 Hikianalia
  2021-07-30T17:17:30UTC 2021-07-30T07:17:30-10:00 2021-07-30T06:17:30-11:00  21.31305 -157.88886     217   0.0 Hōkūleʻa
  2021-07-30T17:10:44UTC 2021-07-30T07:10:44-10:00 2021-07-30T06:10:44-11:00  21.31299 -157.88866     111   0.0 Hikianalia
  2021-07-30T16:18:26UTC 2021-07-30T06:18:26-10:00 2021-07-30T05:18:26-11:00  21.31310 -157.88881     180   0.0 Hōkūleʻa
  2021-07-30T16:10:43UTC 2021-07-30T06:10:43-10:00 2021-07-30T05:10:43-11:00  21.31305 -157.88881     298   0.0 Hikianalia
  2021-07-30T15:18:33UTC 2021-07-30T05:18:33-10:00 2021-07-30T04:18:33-11:00  21.31311 -157.88881     270   0.0 Hōkūleʻa
  2021-07-30T15:10:47UTC 2021-07-30T05:10:47-10:00 2021-07-30T04:10:47-11:00  21.31303 -157.88877     270   0.0 Hikianalia
  2021-07-30T14:18:46UTC 2021-07-30T04:18:46-10:00 2021-07-30T03:18:46-11:00  21.31311 -157.88879     327   0.0 Hōkūleʻa
  2021-07-30T14:11:15UTC 2021-07-30T04:11:15-10:00 2021-07-30T03:11:15-11:00  21.31303 -157.88875     119   0.0 Hikianalia
  2021-07-30T13:18:28UTC 2021-07-30T03:18:28-10:00 2021-07-30T02:18:28-11:00  21.31308 -157.88877     128   0.0 Hōkūleʻa
  2021-07-30T13:10:50UTC 2021-07-30T03:10:50-10:00 2021-07-30T02:10:50-11:00  21.31304 -157.88877     309   0.0 Hikianalia
  2021-07-30T12:25:04UTC 2021-07-30T02:25:04-10:00 2021-07-30T01:25:04-11:00  21.31311 -157.88881     270   0.0 Hōkūleʻa
  2021-07-30T12:10:47UTC 2021-07-30T02:10:47-10:00 2021-07-30T01:10:47-11:00  21.31300 -157.88873       0   0.0 Hikianalia
  2021-07-30T11:18:24UTC 2021-07-30T01:18:24-10:00 2021-07-30T00:18:24-11:00  21.31311 -157.88879       0   0.0 Hōkūleʻa
  2021-07-30T11:11:40UTC 2021-07-30T01:11:40-10:00 2021-07-30T00:11:40-11:00  21.31300 -157.88873     154   0.0 Hikianalia
  2021-07-30T10:25:26UTC 2021-07-30T00:25:26-10:00 2021-07-29T23:25:26-11:00  21.31310 -157.88879     349   0.0 Hōkūleʻa
  2021-07-30T10:10:53UTC 2021-07-30T00:10:53-10:00 2021-07-29T23:10:53-11:00  21.31305 -157.88875     334   0.0 Hikianalia
  2021-07-30T09:18:25UTC 2021-07-29T23:18:25-10:00 2021-07-29T22:18:25-11:00  21.31299 -157.88877     170   0.0 Hōkūleʻa
  2021-07-30T09:10:46UTC 2021-07-29T23:10:46-10:00 2021-07-29T22:10:46-11:00  21.31300 -157.88873      90   0.0 Hikianalia
  2021-07-30T08:18:31UTC 2021-07-29T22:18:31-10:00 2021-07-29T21:18:31-11:00  21.31311 -157.88879     119   0.0 Hōkūleʻa
  2021-07-30T08:10:44UTC 2021-07-29T22:10:44-10:00 2021-07-29T21:10:44-11:00  21.31300 -157.88877     153   0.0 Hikianalia
  2021-07-30T07:18:28UTC 2021-07-29T21:18:28-10:00 2021-07-29T20:18:28-11:00  21.31312 -157.88881     299   0.0 Hōkūleʻa
  2021-07-30T07:10:47UTC 2021-07-29T21:10:47-10:00 2021-07-29T20:10:47-11:00  21.31312 -157.88883     311   0.0 Hikianalia
  2021-07-30T06:18:39UTC 2021-07-29T20:18:39-10:00 2021-07-29T19:18:39-11:00  21.31310 -157.88877     180   0.0 Hōkūleʻa
  2021-07-30T06:11:19UTC 2021-07-29T20:11:19-10:00 2021-07-29T19:11:19-11:00  21.31304 -157.88873     232   0.0 Hikianalia
  2021-07-30T05:18:31UTC 2021-07-29T19:18:31-10:00 2021-07-29T18:18:31-11:00  21.31311 -157.88877      90   0.0 Hōkūleʻa
  2021-07-30T05:10:44UTC 2021-07-29T19:10:44-10:00 2021-07-29T18:10:44-11:00  21.31310 -157.88864      24   0.0 Hikianalia
  2021-07-30T04:17:35UTC 2021-07-29T18:17:35-10:00 2021-07-29T17:17:35-11:00  21.31311 -157.88879     270   0.0 Hōkūleʻa
  2021-07-30T04:10:50UTC 2021-07-29T18:10:50-10:00 2021-07-29T17:10:50-11:00  21.31296 -157.88871     167   0.0 Hikianalia
  2021-07-30T03:18:27UTC 2021-07-29T17:18:27-10:00 2021-07-29T16:18:27-11:00  21.31311 -157.88877       0   0.0 Hōkūleʻa
  2021-07-30T03:10:49UTC 2021-07-29T17:10:49-10:00 2021-07-29T16:10:49-11:00  21.31305 -157.88873      90   0.0 Hikianalia
  2021-07-30T02:17:50UTC 2021-07-29T16:17:50-10:00 2021-07-29T15:17:50-11:00  21.31311 -157.88877     180   0.0 Hōkūleʻa
  2021-07-30T02:10:19UTC 2021-07-29T16:10:19-10:00 2021-07-29T15:10:19-11:00  21.31305 -157.88875     311   0.0 Hikianalia
  2021-07-30T01:18:37UTC 2021-07-29T15:18:37-10:00 2021-07-29T14:18:37-11:00  21.31312 -157.88877       0   0.0 Hōkūleʻa
  2021-07-30T01:10:40UTC 2021-07-29T15:10:40-10:00 2021-07-29T14:10:40-11:00  21.31299 -157.88868     159   0.0 Hikianalia
  2021-07-30T00:21:03UTC 2021-07-29T14:21:03-10:00 2021-07-29T13:21:03-11:00  21.31305 -157.88871     270   0.0 Hikianalia
  2021-07-30T00:17:30UTC 2021-07-29T14:17:30-10:00 2021-07-29T13:17:30-11:00  21.31311 -157.88877       0   0.0 Hōkūleʻa
  2021-07-29T23:18:23UTC 2021-07-29T13:18:23-10:00 2021-07-29T12:18:23-11:00  21.31311 -157.88877       0   0.0 Hōkūleʻa
  2021-07-29T23:09:36UTC 2021-07-29T13:09:36-10:00 2021-07-29T12:09:36-11:00  21.31305 -157.88868     105   0.0 Hikianalia
  2021-07-29T22:17:44UTC 2021-07-29T12:17:44-10:00 2021-07-29T11:17:44-11:00  21.31310 -157.88877     180   0.0 Hōkūleʻa
  2021-07-29T22:10:08UTC 2021-07-29T12:10:08-10:00 2021-07-29T11:10:08-11:00  21.31306 -157.88873     319   0.0 Hikianalia
  2021-07-29T21:17:32UTC 2021-07-29T11:17:32-10:00 2021-07-29T10:17:32-11:00  21.31311 -157.88877     118   0.0 Hōkūleʻa
  2021-07-29T21:10:47UTC 2021-07-29T11:10:47-10:00 2021-07-29T10:10:47-11:00  21.31290 -157.88858     139   0.0 Hikianalia
  2021-07-29T20:18:30UTC 2021-07-29T10:18:30-10:00 2021-07-29T09:18:30-11:00  21.31313 -157.88881     317   0.0 Hōkūleʻa
  2021-07-29T20:09:43UTC 2021-07-29T10:09:43-10:00 2021-07-29T09:09:43-11:00  21.31306 -157.88873       0   0.0 Hikianalia
  2021-07-29T19:18:33UTC 2021-07-29T09:18:33-10:00 2021-07-29T08:18:33-11:00  21.31311 -157.88879       0   0.0 Hōkūleʻa
  2021-07-29T19:10:40UTC 2021-07-29T09:10:40-10:00 2021-07-29T08:10:40-11:00  21.31305 -157.88873      44   0.0 Hikianalia
  2021-07-29T18:17:49UTC 2021-07-29T08:17:49-10:00 2021-07-29T07:17:49-11:00  21.31310 -157.88879      61   0.0 Hōkūleʻa
  2021-07-29T18:10:18UTC 2021-07-29T08:10:18-10:00 2021-07-29T07:10:18-11:00  21.31303 -157.88875     206   0.0 Hikianalia
  2021-07-29T17:18:23UTC 2021-07-29T07:18:23-10:00 2021-07-29T06:18:23-11:00  21.31309 -157.88881     222   0.0 Hōkūleʻa
  2021-07-29T17:10:41UTC 2021-07-29T07:10:41-10:00 2021-07-29T06:10:41-11:00  21.31307 -157.88873       0   0.0 Hikianalia
  2021-07-29T16:18:32UTC 2021-07-29T06:18:32-10:00 2021-07-29T05:18:32-11:00  21.31311 -157.88879     242   0.0 Hōkūleʻa
  2021-07-29T16:10:40UTC 2021-07-29T06:10:40-10:00 2021-07-29T05:10:40-11:00  21.31305 -157.88873      44   0.0 Hikianalia
  2021-07-29T15:18:30UTC 2021-07-29T05:18:30-10:00 2021-07-29T04:18:30-11:00  21.31312 -157.88877      75   0.0 Hōkūleʻa
  2021-07-29T15:18:30UTC 2021-07-29T05:18:30-10:00 2021-07-29T04:18:30-11:00  21.31303 -157.88875     213   0.0 Hikianalia
  2021-07-29T14:18:49UTC 2021-07-29T04:18:49-10:00 2021-07-29T03:18:49-11:00  21.31311 -157.88881      61   0.0 Hōkūleʻa
  2021-07-29T14:11:20UTC 2021-07-29T04:11:20-10:00 2021-07-29T03:11:20-11:00  21.31306 -157.88873      44   0.0 Hikianalia
  2021-07-29T13:18:36UTC 2021-07-29T03:18:36-10:00 2021-07-29T02:18:36-11:00  21.31310 -157.88883     280   0.0 Hōkūleʻa
  2021-07-29T13:10:41UTC 2021-07-29T03:10:41-10:00 2021-07-29T02:10:41-11:00  21.31304 -157.88875      61   0.0 Hikianalia
  2021-07-29T12:19:32UTC 2021-07-29T02:19:32-10:00 2021-07-29T01:19:32-11:00  21.31309 -157.88877     137   0.0 Hōkūleʻa
  2021-07-29T12:10:40UTC 2021-07-29T02:10:40-10:00 2021-07-29T01:10:40-11:00  21.31303 -157.88877     205   0.0 Hikianalia
  2021-07-29T11:18:31UTC 2021-07-29T01:18:31-10:00 2021-07-29T00:18:31-11:00  21.31311 -157.88879     180   0.0 Hōkūleʻa
  2021-07-29T11:10:44UTC 2021-07-29T01:10:44-10:00 2021-07-29T00:10:44-11:00  21.31307 -157.88875      61   0.0 Hikianalia
  2021-07-29T10:18:55UTC 2021-07-29T00:18:55-10:00 2021-07-28T23:18:55-11:00  21.31312 -157.88879     298   0.0 Hōkūleʻa
  2021-07-29T10:10:16UTC 2021-07-29T00:10:16-10:00 2021-07-28T23:10:16-11:00  21.31306 -157.88877     214   0.0 Hikianalia
  2021-07-29T09:18:34UTC 2021-07-28T23:18:34-10:00 2021-07-28T22:18:34-11:00  21.31311 -157.88877      62   0.0 Hōkūleʻa
  2021-07-29T09:10:55UTC 2021-07-28T23:10:55-10:00 2021-07-28T22:10:55-11:00  21.31318 -157.88868      27   0.0 Hikianalia
  2021-07-29T08:17:31UTC 2021-07-28T22:17:31-10:00 2021-07-28T21:17:31-11:00  21.31310 -157.88879      90   0.0 Hōkūleʻa
  2021-07-29T08:10:09UTC 2021-07-28T22:10:09-10:00 2021-07-28T21:10:09-11:00  21.31302 -157.88877     299   0.0 Hikianalia
  2021-07-29T07:18:26UTC 2021-07-28T21:18:26-10:00 2021-07-28T20:18:26-11:00  21.31310 -157.88881       0   0.0 Hōkūleʻa
  2021-07-29T07:11:08UTC 2021-07-28T21:11:08-10:00 2021-07-28T20:11:08-11:00  21.31300 -157.88875     250   0.0 Hikianalia
  2021-07-29T06:18:49UTC 2021-07-28T20:18:49-10:00 2021-07-28T19:18:49-11:00  21.31309 -157.88881     241   0.0 Hōkūleʻa
  2021-07-29T06:10:39UTC 2021-07-28T20:10:39-10:00 2021-07-28T19:10:39-11:00  21.31305 -157.88862      86   0.0 Hikianalia
  2021-07-29T05:18:23UTC 2021-07-28T19:18:23-10:00 2021-07-28T18:18:23-11:00  21.31310 -157.88879      90   0.0 Hōkūleʻa
  2021-07-29T05:10:37UTC 2021-07-28T19:10:37-10:00 2021-07-28T18:10:37-11:00  21.31304 -157.88877     180   0.0 Hikianalia
  2021-07-29T04:18:34UTC 2021-07-28T18:18:34-10:00 2021-07-28T17:18:34-11:00  21.31310 -157.88881       0   0.0 Hōkūleʻa
  2021-07-29T04:11:21UTC 2021-07-28T18:11:21-10:00 2021-07-28T17:11:21-11:00  21.31305 -157.88877     317   0.0 Hikianalia
  2021-07-29T03:18:34UTC 2021-07-28T17:18:34-10:00 2021-07-28T16:18:34-11:00  21.31310 -157.88881       0   0.0 Hōkūleʻa
  2021-07-29T03:09:46UTC 2021-07-28T17:09:46-10:00 2021-07-28T16:09:46-11:00  21.31300 -157.88873     180   0.0 Hikianalia
  2021-07-29T02:19:16UTC 2021-07-28T16:19:16-10:00 2021-07-28T15:19:16-11:00  21.31303 -157.88873       0   0.0 Hikianalia
  2021-07-29T02:18:50UTC 2021-07-28T16:18:50-10:00 2021-07-28T15:18:50-11:00  21.31310 -157.88881     270   0.0 Hōkūleʻa
  2021-07-29T01:17:36UTC 2021-07-28T15:17:36-10:00 2021-07-28T14:17:36-11:00  21.31310 -157.88879     242   0.0 Hōkūleʻa
  2021-07-29T01:10:42UTC 2021-07-28T15:10:42-10:00 2021-07-28T14:10:42-11:00  21.31300 -157.88873       0   0.0 Hikianalia
  2021-07-29T00:18:34UTC 2021-07-28T14:18:34-10:00 2021-07-28T13:18:34-11:00  21.31311 -157.88877     118   0.0 Hōkūleʻa
  2021-07-29T00:09:43UTC 2021-07-28T14:09:43-10:00 2021-07-28T13:09:43-11:00  21.31300 -157.88873       0   0.0 Hikianalia
  2021-07-28T23:18:32UTC 2021-07-28T13:18:32-10:00 2021-07-28T12:18:32-11:00  21.31313 -157.88881     328   0.0 Hōkūleʻa
  2021-07-28T23:10:45UTC 2021-07-28T13:10:45-10:00 2021-07-28T12:10:45-11:00  21.31300 -157.88873     137   0.0 Hikianalia
  2021-07-28T22:18:44UTC 2021-07-28T12:18:44-10:00 2021-07-28T11:18:44-11:00  21.31310 -157.88879       0   0.0 Hōkūleʻa
  2021-07-28T22:11:19UTC 2021-07-28T12:11:19-10:00 2021-07-28T11:11:19-11:00  21.31303 -157.88875     317   0.0 Hikianalia
  2021-07-28T21:17:34UTC 2021-07-28T11:17:34-10:00 2021-07-28T10:17:34-11:00  21.31310 -157.88879      90   0.0 Hōkūleʻa
  2021-07-28T21:09:47UTC 2021-07-28T11:09:47-10:00 2021-07-28T10:09:47-11:00  21.31300 -157.88873     339   0.0 Hikianalia
  2021-07-28T20:25:58UTC 2021-07-28T10:25:58-10:00 2021-07-28T09:25:58-11:00  21.31310 -157.88881     180   0.0 Hōkūleʻa
  2021-07-28T20:10:37UTC 2021-07-28T10:10:37-10:00 2021-07-28T09:10:37-11:00  21.31284 -157.88866     125   0.0 Hikianalia
  2021-07-28T19:18:27UTC 2021-07-28T09:18:27-10:00 2021-07-28T08:18:27-11:00  21.31311 -157.88881       0   0.0 Hōkūleʻa
  2021-07-28T19:09:42UTC 2021-07-28T09:09:42-10:00 2021-07-28T08:09:42-11:00  21.31298 -157.88888     246   0.0 Hikianalia
  2021-07-28T18:17:47UTC 2021-07-28T08:17:47-10:00 2021-07-28T07:17:47-11:00  21.31309 -157.88881      90   0.0 Hōkūleʻa
  2021-07-28T18:11:19UTC 2021-07-28T08:11:19-10:00 2021-07-28T07:11:19-11:00  21.31304 -157.88875       0   0.0 Hikianalia
  2021-07-28T17:28:32UTC 2021-07-28T07:28:32-10:00 2021-07-28T06:28:32-11:00  21.31309 -157.88883       0   0.0 Hōkūleʻa
  2021-07-28T17:10:46UTC 2021-07-28T07:10:46-10:00 2021-07-28T06:10:46-11:00  21.31304 -157.88875       0   0.0 Hikianalia
  2021-07-28T16:17:34UTC 2021-07-28T06:17:34-10:00 2021-07-28T05:17:34-11:00  21.31309 -157.88883     270   0.0 Hōkūleʻa
  2021-07-28T16:10:48UTC 2021-07-28T06:10:48-10:00 2021-07-28T05:10:48-11:00  21.31300 -157.88875       0   0.0 Hikianalia
  2021-07-28T15:18:25UTC 2021-07-28T05:18:25-10:00 2021-07-28T04:18:25-11:00  21.31309 -157.88879      90   0.0 Hōkūleʻa
  2021-07-28T15:10:46UTC 2021-07-28T05:10:46-10:00 2021-07-28T04:10:46-11:00  21.31296 -157.88875     180   0.0 Hikianalia
  2021-07-28T14:18:48UTC 2021-07-28T04:18:48-10:00 2021-07-28T03:18:48-11:00  21.31309 -157.88881      90   0.0 Hōkūleʻa
  2021-07-28T14:11:09UTC 2021-07-28T04:11:09-10:00 2021-07-28T03:11:09-11:00  21.31304 -157.88875     328   0.0 Hikianalia
  2021-07-28T13:18:26UTC 2021-07-28T03:18:26-10:00 2021-07-28T02:18:26-11:00  21.31309 -157.88886     284   0.0 Hōkūleʻa
  2021-07-28T13:10:46UTC 2021-07-28T03:10:46-10:00 2021-07-28T02:10:46-11:00  21.31300 -157.88873      90   0.0 Hikianalia
  2021-07-28T12:18:32UTC 2021-07-28T02:18:32-10:00 2021-07-28T01:18:32-11:00  21.31308 -157.88881     180   0.0 Hōkūleʻa
  2021-07-28T12:10:47UTC 2021-07-28T02:10:47-10:00 2021-07-28T01:10:47-11:00  21.31300 -157.88877     180   0.0 Hikianalia
  2021-07-28T11:18:29UTC 2021-07-28T01:18:29-10:00 2021-07-28T00:18:29-11:00  21.31309 -157.88881       0   0.0 Hōkūleʻa
  2021-07-28T11:10:43UTC 2021-07-28T01:10:43-10:00 2021-07-28T00:10:43-11:00  21.31303 -157.88877     241   0.0 Hikianalia
  2021-07-28T10:18:50UTC 2021-07-28T00:18:50-10:00 2021-07-27T23:18:50-11:00  21.31308 -157.88881       0   0.0 Hōkūleʻa
  2021-07-28T10:10:13UTC 2021-07-28T00:10:13-10:00 2021-07-27T23:10:13-11:00  21.31304 -157.88875     313   0.0 Hikianalia
  2021-07-28T09:18:31UTC 2021-07-27T23:18:31-10:00 2021-07-27T22:18:31-11:00  21.31308 -157.88881       0   0.0 Hōkūleʻa
  2021-07-28T09:10:53UTC 2021-07-27T23:10:53-10:00 2021-07-27T22:10:53-11:00  21.31296 -157.88866     128   0.0 Hikianalia
  2021-07-28T08:18:37UTC 2021-07-27T22:18:37-10:00 2021-07-27T21:18:37-11:00  21.31306 -157.88881     285   0.0 Hōkūleʻa
  2021-07-28T08:10:58UTC 2021-07-27T22:10:58-10:00 2021-07-27T21:10:58-11:00  21.31303 -157.88875     335   0.1 Hikianalia
  2021-07-28T07:18:25UTC 2021-07-27T21:18:25-10:00 2021-07-27T20:18:25-11:00  21.31305 -157.88877     137   0.0 Hōkūleʻa
  2021-07-28T07:10:42UTC 2021-07-27T21:10:42-10:00 2021-07-27T20:10:42-11:00  21.31086 -157.88765     155   0.1 Hikianalia
  2021-07-28T06:18:50UTC 2021-07-27T20:18:50-10:00 2021-07-27T19:18:50-11:00  21.31309 -157.88881     119   0.0 Hōkūleʻa
  2021-07-28T06:11:12UTC 2021-07-27T20:11:12-10:00 2021-07-27T19:11:12-11:00  21.31304 -157.88875     235   0.0 Hikianalia
  2021-07-28T05:18:31UTC 2021-07-27T19:18:31-10:00 2021-07-27T18:18:31-11:00  21.31310 -157.88883     298   0.0 Hōkūleʻa
  2021-07-28T05:10:55UTC 2021-07-27T19:10:55-10:00 2021-07-27T18:10:55-11:00  21.31312 -157.88862       0   0.0 Hikianalia
  2021-07-28T04:17:32UTC 2021-07-27T18:17:32-10:00 2021-07-27T17:17:32-11:00  21.31308 -157.88879     137   0.0 Hōkūleʻa
  2021-07-28T04:09:50UTC 2021-07-27T18:09:50-10:00 2021-07-27T17:09:50-11:00  21.31312 -157.88862       0   0.0 Hikianalia
  2021-07-28T03:18:26UTC 2021-07-27T17:18:26-10:00 2021-07-27T16:18:26-11:00  21.31310 -157.88881       0   0.0 Hōkūleʻa
  2021-07-28T03:10:39UTC 2021-07-27T17:10:39-10:00 2021-07-27T16:10:39-11:00  21.31312 -157.88862      59   0.0 Hikianalia
  2021-07-28T02:17:48UTC 2021-07-27T16:17:48-10:00 2021-07-27T15:17:48-11:00  21.31308 -157.88881     137   0.0 Hōkūleʻa
  2021-07-28T02:10:18UTC 2021-07-27T16:10:18-10:00 2021-07-27T15:10:18-11:00  21.31304 -157.88877     239   0.0 Hikianalia
  2021-07-28T01:18:25UTC 2021-07-27T15:18:25-10:00 2021-07-27T14:18:25-11:00  21.31310 -157.88883     309   0.0 Hōkūleʻa
  2021-07-28T01:10:50UTC 2021-07-27T15:10:50-10:00 2021-07-27T14:10:50-11:00  21.31312 -157.88862       0   0.0 Hikianalia
  2021-07-28T00:17:31UTC 2021-07-27T14:17:31-10:00 2021-07-27T13:17:31-11:00  21.31307 -157.88879     180   0.0 Hōkūleʻa
  2021-07-28T00:09:46UTC 2021-07-27T14:09:46-10:00 2021-07-27T13:09:46-11:00  21.31312 -157.88862       0   0.0 Hikianalia
  2021-07-27T23:25:26UTC 2021-07-27T13:25:26-10:00 2021-07-27T12:25:26-11:00  21.31308 -157.88879       0   0.0 Hōkūleʻa
  2021-07-27T23:10:45UTC 2021-07-27T13:10:45-10:00 2021-07-27T12:10:45-11:00  21.31312 -157.88862      55   0.0 Hikianalia
  2021-07-27T22:25:22UTC 2021-07-27T12:25:22-10:00 2021-07-27T11:25:22-11:00  21.31308 -157.88879     117   0.0 Hōkūleʻa
  2021-07-27T22:10:12UTC 2021-07-27T12:10:12-10:00 2021-07-27T11:10:12-11:00  21.31303 -157.88877     235   0.0 Hikianalia
  2021-07-27T21:20:09UTC 2021-07-27T11:20:09-10:00 2021-07-27T10:20:09-11:00  21.31312 -157.88862      14   0.0 Hikianalia
  2021-07-27T21:17:33UTC 2021-07-27T11:17:33-10:00 2021-07-27T10:17:33-11:00  21.31309 -157.88881       0   0.0 Hōkūleʻa
  2021-07-27T20:18:31UTC 2021-07-27T10:18:31-10:00 2021-07-27T09:18:31-11:00  21.31308 -157.88881     117   0.0 Hōkūleʻa
  2021-07-27T20:10:36UTC 2021-07-27T10:10:36-10:00 2021-07-27T09:10:36-11:00  21.31296 -157.88866     118   0.0 Hikianalia
  2021-07-27T19:17:34UTC 2021-07-27T09:17:34-10:00 2021-07-27T08:17:34-11:00  21.31309 -157.88883     297   0.0 Hōkūleʻa
  2021-07-27T19:09:49UTC 2021-07-27T09:09:49-10:00 2021-07-27T08:09:49-11:00  21.31302 -157.88877     180   0.0 Hikianalia
  2021-07-27T18:18:48UTC 2021-07-27T08:18:48-10:00 2021-07-27T07:18:48-11:00  21.31308 -157.88881      10   0.0 Hōkūleʻa
  2021-07-27T18:11:15UTC 2021-07-27T08:11:15-10:00 2021-07-27T07:11:15-11:00  21.31304 -157.88877     233   0.0 Hikianalia
  2021-07-27T17:18:31UTC 2021-07-27T07:18:31-10:00 2021-07-27T06:18:31-11:00  21.31297 -157.88883     180   0.0 Hōkūleʻa
  2021-07-27T17:10:43UTC 2021-07-27T07:10:43-10:00 2021-07-27T06:10:43-11:00  21.31314 -157.88862       0   0.0 Hikianalia
  2021-07-27T16:18:34UTC 2021-07-27T06:18:34-10:00 2021-07-27T05:18:34-11:00  21.31300 -157.88883     180   0.0 Hōkūleʻa
  2021-07-27T16:10:07UTC 2021-07-27T06:10:07-10:00 2021-07-27T05:10:07-11:00  21.31310 -157.88862     148   0.0 Hikianalia
  2021-07-27T15:18:42UTC 2021-07-27T05:18:42-10:00 2021-07-27T04:18:42-11:00  21.31302 -157.88883     105   0.0 Hōkūleʻa
  2021-07-27T15:10:39UTC 2021-07-27T05:10:39-10:00 2021-07-27T04:10:39-11:00  21.31313 -157.88864     297   0.0 Hikianalia
  2021-07-27T14:18:38UTC 2021-07-27T04:18:38-10:00 2021-07-27T03:18:38-11:00  21.31304 -157.88892     299   0.0 Hōkūleʻa
  2021-07-27T14:10:41UTC 2021-07-27T04:10:41-10:00 2021-07-27T03:10:41-11:00  21.31312 -157.88862       0   0.0 Hikianalia
  2021-07-27T13:20:10UTC 2021-07-27T03:20:10-10:00 2021-07-27T02:20:10-11:00  21.31312 -157.88862     310   0.2 Hikianalia
  2021-07-27T13:18:33UTC 2021-07-27T03:18:33-10:00 2021-07-27T02:18:33-11:00  21.31300 -157.88886     242   0.0 Hōkūleʻa
  2021-07-27T12:28:10UTC 2021-07-27T02:28:10-10:00 2021-07-27T01:28:10-11:00  21.31302 -157.88883       0   0.0 Hōkūleʻa
  2021-07-27T12:10:53UTC 2021-07-27T02:10:53-10:00 2021-07-27T01:10:53-11:00  21.31084 -157.88568      96   0.1 Hikianalia
  2021-07-27T11:19:57UTC 2021-07-27T01:19:57-10:00 2021-07-27T00:19:57-11:00  21.31095 -157.88673     141   0.1 Hikianalia
  2021-07-27T11:18:31UTC 2021-07-27T01:18:31-10:00 2021-07-27T00:18:31-11:00  21.31302 -157.88883     180   0.0 Hōkūleʻa
  2021-07-27T10:38:23UTC 2021-07-27T00:38:23-10:00 2021-07-26T23:38:23-11:00  21.31303 -157.88883       0   0.0 Hōkūleʻa
  2021-07-27T10:11:17UTC 2021-07-27T00:11:17-10:00 2021-07-26T23:11:17-11:00  21.31313 -157.88862     288   0.0 Hikianalia
  2021-07-27T09:18:31UTC 2021-07-26T23:18:31-10:00 2021-07-26T22:18:31-11:00  21.31303 -157.88883       0   0.0 Hōkūleʻa
  2021-07-27T09:10:47UTC 2021-07-26T23:10:47-10:00 2021-07-26T22:10:47-11:00  21.31310 -157.88851       0   0.0 Hikianalia
  2021-07-27T08:18:46UTC 2021-07-26T22:18:46-10:00 2021-07-26T21:18:46-11:00  21.31302 -157.88883     180   0.0 Hōkūleʻa
  2021-07-27T08:10:41UTC 2021-07-26T22:10:41-10:00 2021-07-26T21:10:41-11:00  21.31310 -157.88851      96   0.0 Hikianalia
  2021-07-27T07:18:34UTC 2021-07-26T21:18:34-10:00 2021-07-26T20:18:34-11:00  21.31303 -157.88883       0   0.0 Hōkūleʻa
  2021-07-27T07:11:19UTC 2021-07-26T21:11:19-10:00 2021-07-26T20:11:19-11:00  21.31311 -157.88862     276   0.0 Hikianalia
  2021-07-27T06:18:32UTC 2021-07-26T20:18:32-10:00 2021-07-26T19:18:32-11:00  21.31302 -157.88883     180   0.0 Hōkūleʻa
  2021-07-27T06:09:49UTC 2021-07-26T20:09:49-10:00 2021-07-26T19:09:49-11:00  21.31310 -157.88851       0   0.0 Hikianalia
  2021-07-27T05:18:31UTC 2021-07-26T19:18:31-10:00 2021-07-26T18:18:31-11:00  21.31303 -157.88883       0   0.0 Hōkūleʻa
  2021-07-27T05:10:37UTC 2021-07-26T19:10:37-10:00 2021-07-26T18:10:37-11:00  21.31310 -157.88851     108   0.0 Hikianalia
  2021-07-27T04:28:33UTC 2021-07-26T18:28:33-10:00 2021-07-26T17:28:33-11:00  21.31302 -157.88883     147   0.0 Hōkūleʻa
  2021-07-27T04:11:13UTC 2021-07-26T18:11:13-10:00 2021-07-26T17:11:13-11:00  21.31313 -157.88862     288   0.0 Hikianalia
  2021-07-27T03:17:27UTC 2021-07-26T17:17:27-10:00 2021-07-26T16:17:27-11:00  21.31305 -157.88886     289   0.0 Hōkūleʻa
  2021-07-27T03:09:38UTC 2021-07-26T17:09:38-10:00 2021-07-26T16:09:38-11:00  21.31310 -157.88851       0   0.0 Hikianalia
  2021-07-27T02:18:29UTC 2021-07-26T16:18:29-10:00 2021-07-26T15:18:29-11:00  21.31303 -157.88879      61   0.0 Hōkūleʻa
  2021-07-27T02:10:41UTC 2021-07-26T16:10:41-10:00 2021-07-26T15:10:41-11:00  21.31310 -157.88851      29   0.0 Hikianalia
  2021-07-27T01:18:33UTC 2021-07-26T15:18:33-10:00 2021-07-26T14:18:33-11:00  21.31300 -157.88883     180   0.0 Hōkūleʻa
  2021-07-27T01:09:49UTC 2021-07-26T15:09:49-10:00 2021-07-26T14:09:49-11:00  21.31299 -157.88858     163   0.0 Hikianalia
  2021-07-27T00:17:49UTC 2021-07-26T14:17:49-10:00 2021-07-26T13:17:49-11:00  21.31302 -157.88883       0   0.0 Hōkūleʻa
  2021-07-27T00:10:10UTC 2021-07-26T14:10:10-10:00 2021-07-26T13:10:10-11:00  21.31312 -157.88862       0   0.0 Hikianalia
  2021-07-26T23:17:38UTC 2021-07-26T13:17:38-10:00 2021-07-26T12:17:38-11:00  21.31302 -157.88883     309   0.0 Hōkūleʻa
  2021-07-26T23:10:39UTC 2021-07-26T13:10:39-10:00 2021-07-26T12:10:39-11:00  21.31310 -157.88862     180   0.0 Hikianalia
  2021-07-26T22:18:30UTC 2021-07-26T12:18:30-10:00 2021-07-26T11:18:30-11:00  21.31298 -157.88879     129   0.0 Hōkūleʻa
  2021-07-26T22:10:08UTC 2021-07-26T12:10:08-10:00 2021-07-26T11:10:08-11:00  21.31312 -157.88862       0   0.0 Hikianalia
  2021-07-26T21:17:30UTC 2021-07-26T11:17:30-10:00 2021-07-26T10:17:30-11:00  21.31302 -157.88883     180   0.0 Hōkūleʻa
  2021-07-26T21:10:19UTC 2021-07-26T11:10:19-10:00 2021-07-26T10:10:19-11:00  21.31312 -157.88862     282   0.0 Hikianalia
  2021-07-26T20:17:46UTC 2021-07-26T10:17:46-10:00 2021-07-26T09:17:46-11:00  21.31303 -157.88883       0   0.0 Hōkūleʻa
  2021-07-26T20:09:50UTC 2021-07-26T10:09:50-10:00 2021-07-26T09:09:50-11:00  21.31310 -157.88851      98   0.0 Hikianalia
  2021-07-26T19:18:39UTC 2021-07-26T09:18:39-10:00 2021-07-26T08:18:39-11:00  21.31302 -157.88883     180   0.0 Hōkūleʻa
  2021-07-26T19:10:43UTC 2021-07-26T09:10:43-10:00 2021-07-26T08:10:43-11:00  21.31312 -157.88868     299   0.0 Hikianalia
  2021-07-26T18:17:36UTC 2021-07-26T08:17:36-10:00 2021-07-26T07:17:36-11:00  21.31303 -157.88883       0   0.0 Hōkūleʻa
  2021-07-26T18:10:19UTC 2021-07-26T08:10:19-10:00 2021-07-26T07:10:19-11:00  21.31311 -157.88866     105   0.0 Hikianalia
  2021-07-26T17:18:22UTC 2021-07-26T07:18:22-10:00 2021-07-26T06:18:22-11:00  21.31298 -157.88883     180   0.0 Hōkūleʻa
  2021-07-26T17:10:42UTC 2021-07-26T07:10:42-10:00 2021-07-26T06:10:42-11:00  21.31312 -157.88871     309   0.0 Hikianalia
  2021-07-26T16:18:45UTC 2021-07-26T06:18:45-10:00 2021-07-26T05:18:45-11:00  21.31300 -157.88883      75   0.0 Hōkūleʻa
  2021-07-26T16:10:49UTC 2021-07-26T06:10:49-10:00 2021-07-26T05:10:49-11:00  21.31306 -157.88862     180   0.0 Hikianalia
  2021-07-26T15:18:31UTC 2021-07-26T05:18:31-10:00 2021-07-26T04:18:31-11:00  21.31298 -157.88892     255   0.0 Hōkūleʻa
  2021-07-26T15:10:47UTC 2021-07-26T05:10:47-10:00 2021-07-26T04:10:47-11:00  21.31308 -157.88862     180   0.0 Hikianalia
  2021-07-26T14:21:51UTC 2021-07-26T04:21:51-10:00 2021-07-26T03:21:51-11:00  21.31311 -157.88862      90   0.0 Hikianalia
  2021-07-26T14:17:31UTC 2021-07-26T04:17:31-10:00 2021-07-26T03:17:31-11:00  21.31300 -157.88883     118   0.0 Hōkūleʻa
  2021-07-26T13:18:25UTC 2021-07-26T03:18:25-10:00 2021-07-26T02:18:25-11:00  21.31302 -157.88886     270   0.0 Hōkūleʻa
  2021-07-26T13:10:41UTC 2021-07-26T03:10:41-10:00 2021-07-26T02:10:41-11:00  21.31311 -157.88868     251   0.0 Hikianalia
  2021-07-26T12:18:40UTC 2021-07-26T02:18:40-10:00 2021-07-26T01:18:40-11:00  21.31302 -157.88883     118   0.0 Hōkūleʻa
  2021-07-26T12:10:45UTC 2021-07-26T02:10:45-10:00 2021-07-26T01:10:45-11:00  21.31313 -157.88862       0   0.0 Hikianalia
  2021-07-26T11:18:31UTC 2021-07-26T01:18:31-10:00 2021-07-26T00:18:31-11:00  21.31303 -157.88886     298   0.0 Hōkūleʻa
  2021-07-26T11:11:19UTC 2021-07-26T01:11:19-10:00 2021-07-26T00:11:19-11:00  21.31311 -157.88862     276   0.0 Hikianalia
  2021-07-26T10:18:34UTC 2021-07-26T00:18:34-10:00 2021-07-25T23:18:34-11:00  21.31302 -157.88883       0   0.0 Hōkūleʻa
  2021-07-26T10:18:19UTC 2021-07-26T00:18:19-10:00 2021-07-25T23:18:19-11:00  21.31310 -157.88851      98   0.0 Hikianalia
  2021-07-26T09:25:29UTC 2021-07-25T23:25:29-10:00 2021-07-25T22:25:29-11:00  21.31300 -157.88883       0   0.0 Hōkūleʻa
  2021-07-26T09:10:45UTC 2021-07-25T23:10:45-10:00 2021-07-25T22:10:45-11:00  21.31311 -157.88860      90   0.0 Hikianalia
  2021-07-26T08:18:45UTC 2021-07-25T22:18:45-10:00 2021-07-25T21:18:45-11:00  21.31299 -157.88883     328   0.0 Hōkūleʻa
  2021-07-26T08:11:17UTC 2021-07-25T22:11:17-10:00 2021-07-25T21:11:17-11:00  21.31311 -157.88862     180   0.0 Hikianalia
  2021-07-26T07:18:34UTC 2021-07-25T21:18:34-10:00 2021-07-25T20:18:34-11:00  21.31296 -157.88881     155   0.0 Hōkūleʻa
  2021-07-26T07:12:08UTC 2021-07-25T21:12:08-10:00 2021-07-25T20:12:08-11:00  21.31317 -157.88862     338   0.0 Hikianalia
  2021-07-26T06:18:32UTC 2021-07-25T20:18:32-10:00 2021-07-25T19:18:32-11:00  21.31300 -157.88883       0   0.0 Hōkūleʻa
  2021-07-26T06:09:57UTC 2021-07-25T20:09:57-10:00 2021-07-25T19:09:57-11:00  21.31302 -157.88856     180   0.0 Hikianalia
  2021-07-26T05:18:23UTC 2021-07-25T19:18:23-10:00 2021-07-25T18:18:23-11:00  21.31299 -157.88883     180   0.0 Hōkūleʻa
  2021-07-26T05:10:41UTC 2021-07-25T19:10:41-10:00 2021-07-25T18:10:41-11:00  21.31317 -157.88856      43   0.0 Hikianalia
  2021-07-26T04:18:41UTC 2021-07-25T18:18:41-10:00 2021-07-25T17:18:41-11:00  21.31302 -157.88883      62   0.0 Hōkūleʻa
  2021-07-26T04:11:08UTC 2021-07-25T18:11:08-10:00 2021-07-25T17:11:08-11:00  21.31310 -157.88862       0   0.0 Hikianalia
  2021-07-26T03:17:39UTC 2021-07-25T17:17:39-10:00 2021-07-25T16:17:39-11:00  21.31299 -157.88888     270   0.0 Hōkūleʻa
  2021-07-26T03:09:49UTC 2021-07-25T17:09:49-10:00 2021-07-25T16:09:49-11:00  21.31310 -157.88862      61   0.0 Hikianalia
  2021-07-26T02:26:50UTC 2021-07-25T16:26:50-10:00 2021-07-25T15:26:50-11:00  21.31299 -157.88886     298   0.0 Hōkūleʻa
  2021-07-26T02:10:51UTC 2021-07-25T16:10:51-10:00 2021-07-25T15:10:51-11:00  21.31309 -157.88864     264   0.0 Hikianalia
  2021-07-26T01:18:25UTC 2021-07-25T15:18:25-10:00 2021-07-25T14:18:25-11:00  21.31298 -157.88883       0   0.0 Hōkūleʻa
  2021-07-26T01:10:08UTC 2021-07-25T15:10:08-10:00 2021-07-25T14:10:08-11:00  21.31312 -157.88830     338   2.9 Hikianalia
  2021-07-26T00:17:47UTC 2021-07-25T14:17:47-10:00 2021-07-25T13:17:47-11:00  21.31298 -157.88883     136   0.0 Hōkūleʻa
  2021-07-26T00:09:53UTC 2021-07-25T14:09:53-10:00 2021-07-25T13:09:53-11:00  21.26773 -157.86903     325   1.8 Hikianalia
  2021-07-25T23:17:30UTC 2021-07-25T13:17:30-10:00 2021-07-25T12:17:30-11:00  21.31300 -157.88886     296   0.0 Hōkūleʻa
  2021-07-25T23:09:41UTC 2021-07-25T13:09:41-10:00 2021-07-25T12:09:41-11:00  21.24246 -157.84989     127   2.9 Hikianalia
  2021-07-25T22:18:26UTC 2021-07-25T12:18:26-10:00 2021-07-25T11:18:26-11:00  21.31299 -157.88883       0   0.0 Hōkūleʻa
  2021-07-25T22:10:21UTC 2021-07-25T12:10:21-10:00 2021-07-25T11:10:21-11:00  21.27137 -157.89092     183   2.5 Hikianalia
  2021-07-25T21:17:34UTC 2021-07-25T11:17:34-10:00 2021-07-25T10:17:34-11:00  21.31297 -157.88883     180   0.0 Hōkūleʻa
  2021-07-25T21:10:57UTC 2021-07-25T11:10:57-10:00 2021-07-25T10:10:57-11:00  21.31336 -157.88875       0   0.0 Hikianalia
  2021-07-25T20:17:49UTC 2021-07-25T10:17:49-10:00 2021-07-25T09:17:49-11:00  21.31299 -157.88883     180   0.0 Hōkūleʻa
  2021-07-25T20:09:44UTC 2021-07-25T10:09:44-10:00 2021-07-25T09:09:44-11:00  21.31336 -157.88875       0   0.0 Hikianalia
  2021-07-25T19:17:37UTC 2021-07-25T09:17:37-10:00 2021-07-25T08:17:37-11:00  21.31302 -157.88883     241   0.0 Hōkūleʻa
  2021-07-25T19:10:49UTC 2021-07-25T09:10:49-10:00 2021-07-25T08:10:49-11:00  21.31336 -157.88875       0   0.0 Hikianalia
  2021-07-25T18:18:25UTC 2021-07-25T08:18:25-10:00 2021-07-25T07:18:25-11:00  21.31303 -157.88881      42   0.0 Hōkūleʻa
  2021-07-25T18:11:12UTC 2021-07-25T08:11:12-10:00 2021-07-25T07:11:12-11:00  21.31336 -157.88875     295   0.0 Hikianalia
  2021-07-25T17:18:31UTC 2021-07-25T07:18:31-10:00 2021-07-25T06:18:31-11:00  21.31300 -157.88883       0   0.0 Hōkūleʻa
  2021-07-25T17:10:49UTC 2021-07-25T07:10:49-10:00 2021-07-25T06:10:49-11:00  21.31329 -157.88860     115   0.0 Hikianalia
  2021-07-25T16:18:53UTC 2021-07-25T06:18:53-10:00 2021-07-25T05:18:53-11:00  21.31300 -157.88883     180   0.0 Hōkūleʻa
  2021-07-25T16:10:47UTC 2021-07-25T06:10:47-10:00 2021-07-25T05:10:47-11:00  21.31336 -157.88875       0   0.0 Hikianalia
  2021-07-25T15:18:37UTC 2021-07-25T05:18:37-10:00 2021-07-25T04:18:37-11:00  21.31302 -157.88883     270   0.0 Hōkūleʻa
  2021-07-25T15:11:19UTC 2021-07-25T05:11:19-10:00 2021-07-25T04:11:19-11:00  21.31336 -157.88875       0   0.0 Hikianalia
  2021-07-25T14:18:34UTC 2021-07-25T04:18:34-10:00 2021-07-25T03:18:34-11:00  21.31302 -157.88881      90   0.0 Hōkūleʻa
  2021-07-25T14:12:19UTC 2021-07-25T04:12:19-10:00 2021-07-25T03:12:19-11:00  21.31336 -157.88875       0   0.0 Hikianalia
  2021-07-25T13:18:33UTC 2021-07-25T03:18:33-10:00 2021-07-25T02:18:33-11:00  21.31302 -157.88883     241   0.0 Hōkūleʻa
  2021-07-25T13:10:57UTC 2021-07-25T03:10:57-10:00 2021-07-25T02:10:57-11:00  21.31336 -157.88875       0   0.0 Hikianalia
  2021-07-25T12:18:42UTC 2021-07-25T02:18:42-10:00 2021-07-25T01:18:42-11:00  21.31303 -157.88881     328   0.0 Hōkūleʻa
  2021-07-25T12:10:48UTC 2021-07-25T02:10:48-10:00 2021-07-25T01:10:48-11:00  21.31336 -157.88875       0   0.0 Hikianalia
  2021-07-25T11:17:39UTC 2021-07-25T01:17:39-10:00 2021-07-25T00:17:39-11:00  21.31299 -157.88879     104   0.0 Hōkūleʻa
  2021-07-25T11:09:53UTC 2021-07-25T01:09:53-10:00 2021-07-25T00:09:53-11:00  21.31336 -157.88875       0   0.0 Hikianalia
  2021-07-25T10:26:29UTC 2021-07-25T00:26:29-10:00 2021-07-24T23:26:29-11:00  21.31336 -157.88875     305   0.0 Hikianalia
  2021-07-25T10:18:29UTC 2021-07-25T00:18:29-10:00 2021-07-24T23:18:29-11:00  21.31300 -157.88883     180   0.0 Hōkūleʻa
  2021-07-25T09:18:25UTC 2021-07-24T23:18:25-10:00 2021-07-24T22:18:25-11:00  21.31302 -157.88883     180   0.0 Hōkūleʻa
  2021-07-25T09:10:47UTC 2021-07-24T23:10:47-10:00 2021-07-24T22:10:47-11:00  21.31327 -157.88862     125   0.0 Hikianalia
  2021-07-25T08:18:49UTC 2021-07-24T22:18:49-10:00 2021-07-24T21:18:49-11:00  21.31303 -157.88883     309   0.0 Hōkūleʻa
  2021-07-25T08:10:44UTC 2021-07-24T22:10:44-10:00 2021-07-24T21:10:44-11:00  21.31336 -157.88875       0   0.0 Hikianalia
  2021-07-25T07:18:25UTC 2021-07-24T21:18:25-10:00 2021-07-24T20:18:25-11:00  21.31299 -157.88879     137   0.0 Hōkūleʻa
  2021-07-25T07:10:41UTC 2021-07-24T21:10:41-10:00 2021-07-24T20:10:41-11:00  21.31336 -157.88875       0   0.0 Hikianalia
  2021-07-25T06:18:33UTC 2021-07-24T20:18:33-10:00 2021-07-24T19:18:33-11:00  21.31302 -157.88881     299   0.0 Hōkūleʻa
  2021-07-25T06:11:19UTC 2021-07-24T20:11:19-10:00 2021-07-24T19:11:19-11:00  21.31336 -157.88875     194   0.0 Hikianalia
  2021-07-25T05:28:01UTC 2021-07-24T19:28:01-10:00 2021-07-24T18:28:01-11:00  21.31300 -157.88879     138   0.0 Hōkūleʻa
  2021-07-25T05:10:50UTC 2021-07-24T19:10:50-10:00 2021-07-24T18:10:50-11:00  21.31344 -157.88873      21   0.0 Hikianalia
  2021-07-25T04:17:49UTC 2021-07-24T18:17:49-10:00 2021-07-24T17:17:49-11:00  21.31303 -157.88881      90   0.0 Hōkūleʻa
  2021-07-25T04:09:42UTC 2021-07-24T18:09:42-10:00 2021-07-24T17:09:42-11:00  21.31334 -157.88877     341   0.0 Hikianalia
  2021-07-25T03:18:33UTC 2021-07-24T17:18:33-10:00 2021-07-24T16:18:33-11:00  21.31303 -157.88894     270   0.0 Hōkūleʻa
  2021-07-25T03:10:39UTC 2021-07-24T17:10:39-10:00 2021-07-24T16:10:39-11:00  21.31317 -157.88871     168   0.0 Hikianalia
  2021-07-25T02:17:53UTC 2021-07-24T16:17:53-10:00 2021-07-24T15:17:53-11:00  21.31303 -157.88883       0   0.0 Hōkūleʻa
  2021-07-25T02:11:18UTC 2021-07-24T16:11:18-10:00 2021-07-24T15:11:18-11:00  21.31336 -157.88875       0   0.0 Hikianalia
  2021-07-25T01:17:24UTC 2021-07-24T15:17:24-10:00 2021-07-24T14:17:24-11:00  21.31303 -157.88883     299   0.0 Hōkūleʻa
  2021-07-25T01:09:47UTC 2021-07-24T15:09:47-10:00 2021-07-24T14:09:47-11:00  21.31336 -157.88875       0   0.0 Hikianalia
  2021-07-25T00:18:51UTC 2021-07-24T14:18:51-10:00 2021-07-24T13:18:51-11:00  21.31302 -157.88881     241   0.0 Hōkūleʻa
  2021-07-25T00:17:33UTC 2021-07-24T14:17:33-10:00 2021-07-24T13:17:33-11:00  21.31336 -157.88875       0   0.0 Hikianalia
  2021-07-24T23:17:33UTC 2021-07-24T13:17:33-10:00 2021-07-24T12:17:33-11:00  21.31304 -157.88877      70   0.0 Hōkūleʻa
  2021-07-24T23:09:46UTC 2021-07-24T13:09:46-10:00 2021-07-24T12:09:46-11:00  21.31336 -157.88875       0   0.0 Hikianalia
  2021-07-24T22:18:33UTC 2021-07-24T12:18:33-10:00 2021-07-24T11:18:33-11:00  21.31302 -157.88883     180   0.0 Hōkūleʻa
  2021-07-24T22:10:12UTC 2021-07-24T12:10:12-10:00 2021-07-24T11:10:12-11:00  21.31336 -157.88875       0   0.0 Hikianalia
  2021-07-24T21:17:36UTC 2021-07-24T11:17:36-10:00 2021-07-24T10:17:36-11:00  21.31304 -157.88883       0   0.0 Hōkūleʻa
  2021-07-24T21:10:48UTC 2021-07-24T11:10:48-10:00 2021-07-24T10:10:48-11:00  21.31336 -157.88875       0   0.0 Hikianalia
  2021-07-24T20:17:39UTC 2021-07-24T10:17:39-10:00 2021-07-24T09:17:39-11:00  21.31303 -157.88883       0   0.0 Hōkūleʻa
  2021-07-24T20:16:56UTC 2021-07-24T10:16:56-10:00 2021-07-24T09:16:56-11:00  21.31336 -157.88875       0   0.0 Hikianalia
  2021-07-24T19:17:36UTC 2021-07-24T09:17:36-10:00 2021-07-24T08:17:36-11:00  21.31302 -157.88883     180   0.0 Hōkūleʻa
  2021-07-24T19:10:48UTC 2021-07-24T09:10:48-10:00 2021-07-24T08:10:48-11:00  21.31336 -157.88875       0   0.0 Hikianalia
  2021-07-24T18:18:32UTC 2021-07-24T08:18:32-10:00 2021-07-24T07:18:32-11:00  21.31303 -157.88883       0   0.0 Hōkūleʻa
  2021-07-24T18:11:14UTC 2021-07-24T08:11:14-10:00 2021-07-24T07:11:14-11:00  21.31336 -157.88875       0   0.0 Hikianalia
  2021-07-24T17:18:27UTC 2021-07-24T07:18:27-10:00 2021-07-24T06:18:27-11:00  21.31302 -157.88883       0   0.0 Hōkūleʻa
  2021-07-24T17:10:43UTC 2021-07-24T07:10:43-10:00 2021-07-24T06:10:43-11:00  21.31336 -157.88875       0   0.0 Hikianalia
  2021-07-24T16:18:46UTC 2021-07-24T06:18:46-10:00 2021-07-24T05:18:46-11:00  21.31302 -157.88883     270   0.0 Hōkūleʻa
  2021-07-24T16:10:50UTC 2021-07-24T06:10:50-10:00 2021-07-24T05:10:50-11:00  21.31336 -157.88875       0   0.0 Hikianalia
  2021-07-24T15:18:33UTC 2021-07-24T05:18:33-10:00 2021-07-24T04:18:33-11:00  21.31302 -157.88879     106   0.0 Hōkūleʻa
  2021-07-24T15:10:39UTC 2021-07-24T05:10:39-10:00 2021-07-24T04:10:39-11:00  21.31336 -157.88875       0   0.0 Hikianalia
  2021-07-24T14:18:29UTC 2021-07-24T04:18:29-10:00 2021-07-24T03:18:29-11:00  21.31303 -157.88883       0   0.0 Hōkūleʻa
  2021-07-24T14:11:17UTC 2021-07-24T04:11:17-10:00 2021-07-24T03:11:17-11:00  21.31336 -157.88875       0   0.0 Hikianalia
  2021-07-24T13:18:48UTC 2021-07-24T03:18:48-10:00 2021-07-24T02:18:48-11:00  21.31302 -157.88883     148   0.0 Hōkūleʻa
  2021-07-24T13:10:41UTC 2021-07-24T03:10:41-10:00 2021-07-24T02:10:41-11:00  21.31336 -157.88875       0   0.0 Hikianalia
  2021-07-24T12:26:28UTC 2021-07-24T02:26:28-10:00 2021-07-24T01:26:28-11:00  21.31308 -157.88888     323   0.0 Hōkūleʻa
  2021-07-24T12:10:49UTC 2021-07-24T02:10:49-10:00 2021-07-24T01:10:49-11:00  21.31336 -157.88875       0   0.0 Hikianalia
  2021-07-24T11:18:24UTC 2021-07-24T01:18:24-10:00 2021-07-24T00:18:24-11:00  21.31303 -157.88883     270   0.0 Hōkūleʻa
  2021-07-24T11:10:48UTC 2021-07-24T01:10:48-10:00 2021-07-24T00:10:48-11:00  21.31336 -157.88875       0   0.0 Hikianalia
  2021-07-24T10:19:00UTC 2021-07-24T00:19:00-10:00 2021-07-23T23:19:00-11:00  21.31303 -157.88881      61   0.0 Hōkūleʻa
  2021-07-24T10:11:08UTC 2021-07-24T00:11:08-10:00 2021-07-23T23:11:08-11:00  21.31336 -157.88875       0   0.0 Hikianalia
  2021-07-24T09:18:32UTC 2021-07-23T23:18:32-10:00 2021-07-23T22:18:32-11:00  21.31300 -157.88886     223   0.0 Hōkūleʻa
  2021-07-24T09:10:48UTC 2021-07-23T23:10:48-10:00 2021-07-23T22:10:48-11:00  21.31336 -157.88875       0   0.0 Hikianalia
  2021-07-24T08:18:22UTC 2021-07-23T22:18:22-10:00 2021-07-23T21:18:22-11:00  21.31303 -157.88883     318   0.0 Hōkūleʻa
  2021-07-24T08:10:44UTC 2021-07-23T22:10:44-10:00 2021-07-23T21:10:44-11:00  21.31336 -157.88875       0   0.0 Hikianalia
  2021-07-24T07:20:48UTC 2021-07-23T21:20:48-10:00 2021-07-23T20:20:48-11:00  21.31336 -157.88875       0   0.0 Hikianalia
  2021-07-24T07:17:30UTC 2021-07-23T21:17:30-10:00 2021-07-23T20:17:30-11:00  21.31300 -157.88881     180   0.0 Hōkūleʻa
  2021-07-24T06:18:43UTC 2021-07-23T20:18:43-10:00 2021-07-23T19:18:43-11:00  21.31302 -157.88881      90   0.0 Hōkūleʻa
  2021-07-24T06:11:15UTC 2021-07-23T20:11:15-10:00 2021-07-23T19:11:15-11:00  21.31336 -157.88875       0   0.0 Hikianalia
  2021-07-24T05:18:34UTC 2021-07-23T19:18:34-10:00 2021-07-23T18:18:34-11:00  21.31302 -157.88883     180   0.0 Hōkūleʻa
  2021-07-24T05:10:44UTC 2021-07-23T19:10:44-10:00 2021-07-23T18:10:44-11:00  21.31336 -157.88875       0   0.0 Hikianalia
  2021-07-24T04:18:35UTC 2021-07-23T18:18:35-10:00 2021-07-23T17:18:35-11:00  21.31303 -157.88883     180   0.0 Hōkūleʻa
  2021-07-24T04:10:48UTC 2021-07-23T18:10:48-10:00 2021-07-23T17:10:48-11:00  21.31336 -157.88875       0   0.0 Hikianalia
  2021-07-24T03:18:34UTC 2021-07-23T17:18:34-10:00 2021-07-23T16:18:34-11:00  21.31304 -157.88883       0   0.0 Hōkūleʻa
  2021-07-24T03:10:45UTC 2021-07-23T17:10:45-10:00 2021-07-23T16:10:45-11:00  21.31336 -157.88875       0   0.0 Hikianalia
  2021-07-24T02:17:47UTC 2021-07-23T16:17:47-10:00 2021-07-23T15:17:47-11:00  21.31303 -157.88883     254   0.0 Hōkūleʻa
  2021-07-24T02:10:15UTC 2021-07-23T16:10:15-10:00 2021-07-23T15:10:15-11:00  21.31336 -157.88875       0   0.0 Hikianalia
  2021-07-24T01:18:38UTC 2021-07-23T15:18:38-10:00 2021-07-23T14:18:38-11:00  21.31304 -157.88879      61   0.0 Hōkūleʻa
  2021-07-24T01:10:50UTC 2021-07-23T15:10:50-10:00 2021-07-23T14:10:50-11:00  21.31336 -157.88875     321   0.0 Hikianalia
  2021-07-24T00:24:32UTC 2021-07-23T14:24:32-10:00 2021-07-23T13:24:32-11:00  21.31302 -157.88883       0   0.0 Hōkūleʻa
  2021-07-24T00:10:46UTC 2021-07-23T14:10:46-10:00 2021-07-23T13:10:46-11:00  21.31328 -157.88868     141   0.0 Hikianalia
  2021-07-23T23:17:36UTC 2021-07-23T13:17:36-10:00 2021-07-23T12:17:36-11:00  21.31302 -157.88883     180   0.0 Hōkūleʻa
  2021-07-23T23:09:43UTC 2021-07-23T13:09:43-10:00 2021-07-23T12:09:43-11:00  21.31336 -157.88875       0   0.0 Hikianalia
  2021-07-23T22:17:46UTC 2021-07-23T12:17:46-10:00 2021-07-23T11:17:46-11:00  21.31303 -157.88883     180   0.0 Hōkūleʻa
  2021-07-23T22:10:08UTC 2021-07-23T12:10:08-10:00 2021-07-23T11:10:08-11:00  21.31336 -157.88875       0   0.0 Hikianalia
  2021-07-23T21:18:39UTC 2021-07-23T11:18:39-10:00 2021-07-23T10:18:39-11:00  21.31305 -157.88883       0   0.0 Hōkūleʻa
  2021-07-23T21:10:37UTC 2021-07-23T11:10:37-10:00 2021-07-23T10:10:37-11:00  21.31336 -157.88875       0   0.0 Hikianalia
  2021-07-23T20:17:22UTC 2021-07-23T10:17:22-10:00 2021-07-23T09:17:22-11:00  21.31304 -157.88883       0   0.0 Hōkūleʻa
  2021-07-23T20:10:49UTC 2021-07-23T10:10:49-10:00 2021-07-23T09:10:49-11:00  21.31336 -157.88875       0   0.0 Hikianalia
  2021-07-23T19:18:33UTC 2021-07-23T09:18:33-10:00 2021-07-23T08:18:33-11:00  21.31304 -157.88883       0   0.0 Hōkūleʻa
  2021-07-23T19:10:47UTC 2021-07-23T09:10:47-10:00 2021-07-23T08:10:47-11:00  21.31336 -157.88875       0   0.0 Hikianalia
  2021-07-23T18:18:49UTC 2021-07-23T08:18:49-10:00 2021-07-23T07:18:49-11:00  21.31302 -157.88883     180   0.0 Hōkūleʻa
  2021-07-23T18:10:21UTC 2021-07-23T08:10:21-10:00 2021-07-23T07:10:21-11:00  21.31336 -157.88875       0   0.0 Hikianalia
  2021-07-23T17:18:29UTC 2021-07-23T07:18:29-10:00 2021-07-23T06:18:29-11:00  21.31304 -157.88883     243   0.0 Hōkūleʻa
  2021-07-23T17:18:02UTC 2021-07-23T07:18:02-10:00 2021-07-23T06:18:02-11:00  21.31336 -157.88875       0   0.0 Hikianalia
  2021-07-23T16:18:25UTC 2021-07-23T06:18:25-10:00 2021-07-23T05:18:25-11:00  21.31305 -157.88881      43   0.0 Hōkūleʻa
  2021-07-23T16:11:15UTC 2021-07-23T06:11:15-10:00 2021-07-23T05:11:15-11:00  21.31336 -157.88875       0   0.0 Hikianalia
  2021-07-23T15:18:33UTC 2021-07-23T05:18:33-10:00 2021-07-23T04:18:33-11:00  21.31303 -157.88883       0   0.0 Hōkūleʻa
  2021-07-23T15:10:48UTC 2021-07-23T05:10:48-10:00 2021-07-23T04:10:48-11:00  21.31336 -157.88875       0   0.0 Hikianalia
  2021-07-23T14:18:51UTC 2021-07-23T04:18:51-10:00 2021-07-23T03:18:51-11:00  21.31303 -157.88883       0   0.0 Hōkūleʻa
  2021-07-23T14:10:41UTC 2021-07-23T04:10:41-10:00 2021-07-23T03:10:41-11:00  21.31336 -157.88875       0   0.0 Hikianalia
  2021-07-23T13:18:34UTC 2021-07-23T03:18:34-10:00 2021-07-23T02:18:34-11:00  21.31300 -157.88883     180   0.0 Hōkūleʻa
  2021-07-23T13:11:15UTC 2021-07-23T03:11:15-10:00 2021-07-23T02:11:15-11:00  21.31336 -157.88875       0   0.0 Hikianalia
  2021-07-23T12:17:33UTC 2021-07-23T02:17:33-10:00 2021-07-23T01:17:33-11:00  21.31304 -157.88883       0   0.0 Hōkūleʻa
  2021-07-23T12:10:48UTC 2021-07-23T02:10:48-10:00 2021-07-23T01:10:48-11:00  21.31336 -157.88875       0   0.0 Hikianalia
  2021-07-23T11:20:34UTC 2021-07-23T01:20:34-10:00 2021-07-23T00:20:34-11:00  21.31336 -157.88875       0   0.0 Hikianalia
  2021-07-23T11:18:25UTC 2021-07-23T01:18:25-10:00 2021-07-23T00:18:25-11:00  21.31304 -157.88883       0   0.0 Hōkūleʻa
  2021-07-23T10:18:42UTC 2021-07-23T00:18:42-10:00 2021-07-22T23:18:42-11:00  21.31303 -157.88883     286   0.0 Hōkūleʻa
  2021-07-23T10:11:15UTC 2021-07-23T00:11:15-10:00 2021-07-22T23:11:15-11:00  21.31336 -157.88875       0   0.0 Hikianalia
  2021-07-23T09:17:26UTC 2021-07-22T23:17:26-10:00 2021-07-22T22:17:26-11:00  21.31302 -157.88879     119   0.0 Hōkūleʻa
  2021-07-23T09:10:45UTC 2021-07-22T23:10:45-10:00 2021-07-22T22:10:45-11:00  21.31336 -157.88875       0   0.0 Hikianalia
  2021-07-23T08:21:33UTC 2021-07-22T22:21:33-10:00 2021-07-22T21:21:33-11:00  21.31336 -157.88875       0   0.0 Hikianalia
  2021-07-23T08:18:23UTC 2021-07-22T22:18:23-10:00 2021-07-22T21:18:23-11:00  21.31303 -157.88881      90   0.0 Hōkūleʻa
  2021-07-23T07:18:21UTC 2021-07-22T21:18:21-10:00 2021-07-22T20:18:21-11:00  21.31303 -157.88883     270   0.0 Hōkūleʻa
  2021-07-23T07:10:47UTC 2021-07-22T21:10:47-10:00 2021-07-22T20:10:47-11:00  21.31336 -157.88875       0   0.0 Hikianalia
  2021-07-23T06:18:49UTC 2021-07-22T20:18:49-10:00 2021-07-22T19:18:49-11:00  21.31303 -157.88881      61   0.0 Hōkūleʻa
  2021-07-23T06:10:18UTC 2021-07-22T20:10:18-10:00 2021-07-22T19:10:18-11:00  21.31336 -157.88875       0   0.0 Hikianalia
  2021-07-23T05:17:22UTC 2021-07-22T19:17:22-10:00 2021-07-22T18:17:22-11:00  21.31302 -157.88883     222   0.0 Hōkūleʻa
  2021-07-23T05:10:41UTC 2021-07-22T19:10:41-10:00 2021-07-22T18:10:41-11:00  21.31336 -157.88875       0   0.0 Hikianalia
  2021-07-23T04:18:25UTC 2021-07-22T18:18:25-10:00 2021-07-22T17:18:25-11:00  21.31304 -157.88881     180   0.0 Hōkūleʻa
  2021-07-23T04:10:46UTC 2021-07-22T18:10:46-10:00 2021-07-22T17:10:46-11:00  21.31336 -157.88875      95   0.0 Hikianalia
  2021-07-23T03:18:34UTC 2021-07-22T17:18:34-10:00 2021-07-22T16:18:34-11:00  21.31305 -157.88881      43   0.0 Hōkūleʻa
  2021-07-23T03:10:54UTC 2021-07-22T17:10:54-10:00 2021-07-22T16:10:54-11:00  21.31337 -157.88888     317   0.0 Hikianalia
  2021-07-23T02:17:50UTC 2021-07-22T16:17:50-10:00 2021-07-22T15:17:50-11:00  21.31303 -157.88883     260   0.0 Hōkūleʻa
  2021-07-23T02:10:19UTC 2021-07-22T16:10:19-10:00 2021-07-22T15:10:19-11:00  21.31311 -157.88862     269   0.1 Hikianalia
  2021-07-23T01:18:28UTC 2021-07-22T15:18:28-10:00 2021-07-22T14:18:28-11:00  21.31304 -157.88877      90   0.0 Hōkūleʻa
  2021-07-23T01:10:42UTC 2021-07-22T15:10:42-10:00 2021-07-22T14:10:42-11:00  21.31315 -157.88639      89   0.1 Hikianalia
  2021-07-23T00:17:32UTC 2021-07-22T14:17:32-10:00 2021-07-22T13:17:32-11:00  21.31304 -157.88883       0   0.0 Hōkūleʻa
  2021-07-23T00:09:48UTC 2021-07-22T14:09:48-10:00 2021-07-22T13:09:48-11:00  21.31310 -157.88862     161   0.0 Hikianalia
  2021-07-22T23:18:39UTC 2021-07-22T13:18:39-10:00 2021-07-22T12:18:39-11:00  21.31302 -157.88883     180   0.0 Hōkūleʻa
  2021-07-22T23:10:37UTC 2021-07-22T13:10:37-10:00 2021-07-22T12:10:37-11:00  21.31322 -157.88866     339   0.0 Hikianalia
  2021-07-22T22:17:42UTC 2021-07-22T12:17:42-10:00 2021-07-22T11:17:42-11:00  21.31303 -157.88883     180   0.0 Hōkūleʻa
  2021-07-22T22:10:08UTC 2021-07-22T12:10:08-10:00 2021-07-22T11:10:08-11:00  21.31311 -157.88862      25   0.0 Hikianalia
  2021-07-22T21:17:36UTC 2021-07-22T11:17:36-10:00 2021-07-22T10:17:36-11:00  21.31304 -157.88883     180   0.0 Hōkūleʻa
  2021-07-22T21:09:45UTC 2021-07-22T11:09:45-10:00 2021-07-22T10:09:45-11:00  21.31303 -157.88866     203   0.0 Hikianalia
  2021-07-22T20:17:31UTC 2021-07-22T10:17:31-10:00 2021-07-22T09:17:31-11:00  21.31305 -157.88883       0   0.0 Hōkūleʻa
  2021-07-22T20:11:01UTC 2021-07-22T10:11:01-10:00 2021-07-22T09:11:01-11:00  21.31312 -157.88862       0   0.0 Hikianalia
  2021-07-22T19:18:34UTC 2021-07-22T09:18:34-10:00 2021-07-22T08:18:34-11:00  21.31303 -157.88883       0   0.0 Hōkūleʻa
  2021-07-22T19:10:08UTC 2021-07-22T09:10:08-10:00 2021-07-22T08:10:08-11:00  21.31309 -157.88862     149   0.0 Hikianalia
  2021-07-22T18:17:50UTC 2021-07-22T08:17:50-10:00 2021-07-22T07:17:50-11:00  21.31302 -157.88883     299   0.0 Hōkūleʻa
  2021-07-22T18:11:06UTC 2021-07-22T08:11:06-10:00 2021-07-22T07:11:06-11:00  21.31312 -157.88864     318   0.0 Hikianalia
  2021-07-22T17:18:34UTC 2021-07-22T07:18:34-10:00 2021-07-22T06:18:34-11:00  21.31300 -157.88881     270   0.0 Hōkūleʻa
  2021-07-22T17:10:49UTC 2021-07-22T07:10:49-10:00 2021-07-22T06:10:49-11:00  21.31310 -157.88862       0   0.0 Hikianalia
  2021-07-22T16:18:34UTC 2021-07-22T06:18:34-10:00 2021-07-22T05:18:34-11:00  21.31300 -157.88879     106   0.0 Hōkūleʻa
  2021-07-22T16:10:49UTC 2021-07-22T06:10:49-10:00 2021-07-22T05:10:49-11:00  21.31310 -157.88862       0   0.0 Hikianalia
  2021-07-22T15:18:33UTC 2021-07-22T05:18:33-10:00 2021-07-22T04:18:33-11:00  21.31302 -157.88883       0   0.0 Hōkūleʻa
  2021-07-22T15:09:47UTC 2021-07-22T05:09:47-10:00 2021-07-22T04:09:47-11:00  21.31310 -157.88862      61   0.0 Hikianalia
  2021-07-22T14:18:47UTC 2021-07-22T04:18:47-10:00 2021-07-22T03:18:47-11:00  21.31302 -157.88883       0   0.0 Hōkūleʻa
  2021-07-22T14:11:10UTC 2021-07-22T04:11:10-10:00 2021-07-22T03:11:10-11:00  21.31309 -157.88864     241   0.0 Hikianalia
  2021-07-22T13:18:35UTC 2021-07-22T03:18:35-10:00 2021-07-22T02:18:35-11:00  21.31298 -157.88883     180   0.0 Hōkūleʻa
  2021-07-22T13:10:48UTC 2021-07-22T03:10:48-10:00 2021-07-22T02:10:48-11:00  21.31310 -157.88862     316   0.0 Hikianalia
  2021-07-22T12:18:34UTC 2021-07-22T02:18:34-10:00 2021-07-22T01:18:34-11:00  21.31303 -157.88883       0   0.0 Hōkūleʻa
  2021-07-22T12:10:46UTC 2021-07-22T02:10:46-10:00 2021-07-22T01:10:46-11:00  21.31308 -157.88860     136   0.0 Hikianalia
  2021-07-22T11:26:45UTC 2021-07-22T01:26:45-10:00 2021-07-22T00:26:45-11:00  21.31303 -157.88883       0   0.0 Hōkūleʻa
  2021-07-22T11:10:37UTC 2021-07-22T01:10:37-10:00 2021-07-22T00:10:37-11:00  21.31310 -157.88862     180   0.0 Hikianalia
  2021-07-22T10:18:45UTC 2021-07-22T00:18:45-10:00 2021-07-21T23:18:45-11:00  21.31303 -157.88883     299   0.0 Hōkūleʻa
  2021-07-22T10:11:16UTC 2021-07-22T00:11:16-10:00 2021-07-21T23:11:16-11:00  21.31312 -157.88862     137   0.0 Hikianalia
  2021-07-22T09:18:31UTC 2021-07-21T23:18:31-10:00 2021-07-21T22:18:31-11:00  21.31302 -157.88881     299   0.0 Hōkūleʻa
  2021-07-22T09:10:47UTC 2021-07-21T23:10:47-10:00 2021-07-21T22:10:47-11:00  21.31319 -157.88868     325   0.0 Hikianalia
  2021-07-22T08:18:32UTC 2021-07-21T22:18:32-10:00 2021-07-21T21:18:32-11:00  21.31300 -157.88879      90   0.0 Hōkūleʻa
  2021-07-22T08:10:49UTC 2021-07-21T22:10:49-10:00 2021-07-21T21:10:49-11:00  21.31310 -157.88862     228   0.0 Hikianalia
  2021-07-22T07:18:34UTC 2021-07-21T21:18:34-10:00 2021-07-21T20:18:34-11:00  21.31300 -157.88881     180   0.0 Hōkūleʻa
  2021-07-22T07:10:47UTC 2021-07-21T21:10:47-10:00 2021-07-21T20:10:47-11:00  21.31315 -157.88856      54   0.0 Hikianalia
  2021-07-22T06:18:41UTC 2021-07-21T20:18:41-10:00 2021-07-21T19:18:41-11:00  21.31303 -157.88881      61   0.0 Hōkūleʻa
  2021-07-22T06:11:10UTC 2021-07-21T20:11:10-10:00 2021-07-21T19:11:10-11:00  21.31311 -157.88862     328   0.0 Hikianalia
  2021-07-22T05:18:33UTC 2021-07-21T19:18:33-10:00 2021-07-21T18:18:33-11:00  21.31302 -157.88883       0   0.0 Hōkūleʻa
  2021-07-22T05:10:55UTC 2021-07-21T19:10:55-10:00 2021-07-21T18:10:55-11:00  21.31305 -157.88858     143   0.0 Hikianalia
  2021-07-22T04:17:32UTC 2021-07-21T18:17:32-10:00 2021-07-21T17:17:32-11:00  21.31302 -157.88883     180   0.0 Hōkūleʻa
  2021-07-22T04:11:01UTC 2021-07-21T18:11:01-10:00 2021-07-21T17:11:01-11:00  21.31310 -157.88862     295   0.0 Hikianalia
  2021-07-22T03:18:27UTC 2021-07-21T17:18:27-10:00 2021-07-21T16:18:27-11:00  21.31304 -157.88883       0   0.0 Hōkūleʻa
  2021-07-22T03:10:58UTC 2021-07-21T17:10:58-10:00 2021-07-21T16:10:58-11:00  21.31303 -157.88845     118   0.0 Hikianalia
  2021-07-22T02:17:51UTC 2021-07-21T16:17:51-10:00 2021-07-21T15:17:51-11:00  21.31303 -157.88883     241   0.0 Hōkūleʻa
  2021-07-22T02:10:18UTC 2021-07-21T16:10:18-10:00 2021-07-21T15:10:18-11:00  21.31310 -157.88860     189   0.0 Hikianalia
  2021-07-22T01:17:34UTC 2021-07-21T15:17:34-10:00 2021-07-21T14:17:34-11:00  21.31304 -157.88881      90   0.0 Hōkūleʻa
  2021-07-22T01:10:48UTC 2021-07-21T15:10:48-10:00 2021-07-21T14:10:48-11:00  21.31323 -157.88858      56   0.0 Hikianalia
  2021-07-22T00:18:25UTC 2021-07-21T14:18:25-10:00 2021-07-21T13:18:25-11:00  21.31304 -157.88883     270   0.0 Hōkūleʻa
  2021-07-22T00:09:45UTC 2021-07-21T14:09:45-10:00 2021-07-21T13:09:45-11:00  21.31318 -157.88866     332   0.0 Hikianalia
  2021-07-21T23:17:29UTC 2021-07-21T13:17:29-10:00 2021-07-21T12:17:29-11:00  21.31304 -157.88881       0   0.0 Hōkūleʻa
  2021-07-21T23:10:43UTC 2021-07-21T13:10:43-10:00 2021-07-21T12:10:43-11:00  21.31310 -157.88862     180   0.0 Hikianalia
  2021-07-21T22:17:50UTC 2021-07-21T12:17:50-10:00 2021-07-21T11:17:50-11:00  21.31303 -157.88881     137   0.0 Hōkūleʻa
  2021-07-21T22:10:20UTC 2021-07-21T12:10:20-10:00 2021-07-21T11:10:20-11:00  21.31311 -157.88862     312   0.0 Hikianalia
  2021-07-21T21:18:31UTC 2021-07-21T11:18:31-10:00 2021-07-21T10:18:31-11:00  21.31305 -157.88883     317   0.0 Hōkūleʻa
  2021-07-21T21:11:06UTC 2021-07-21T11:11:06-10:00 2021-07-21T10:11:06-11:00  21.31306 -157.88856     132   0.0 Hikianalia
  2021-07-21T20:17:34UTC 2021-07-21T10:17:34-10:00 2021-07-21T09:17:34-11:00  21.31303 -157.88881       0   0.0 Hōkūleʻa
  2021-07-21T20:10:09UTC 2021-07-21T10:10:09-10:00 2021-07-21T09:10:09-11:00  21.31311 -157.88862     137   0.0 Hikianalia
  2021-07-21T19:18:33UTC 2021-07-21T09:18:33-10:00 2021-07-21T08:18:33-11:00  21.31303 -157.88881      61   0.0 Hōkūleʻa
  2021-07-21T19:10:43UTC 2021-07-21T09:10:43-10:00 2021-07-21T08:10:43-11:00  21.31318 -157.88868     317   0.0 Hikianalia
  2021-07-21T18:18:42UTC 2021-07-21T08:18:42-10:00 2021-07-21T07:18:42-11:00  21.31302 -157.88883     118   0.0 Hōkūleʻa
  2021-07-21T18:11:18UTC 2021-07-21T08:11:18-10:00 2021-07-21T07:11:18-11:00  21.31311 -157.88862      61   0.0 Hikianalia
  2021-07-21T17:17:33UTC 2021-07-21T07:17:33-10:00 2021-07-21T06:17:33-11:00  21.31303 -157.88886     270   0.0 Hōkūleʻa
  2021-07-21T17:09:49UTC 2021-07-21T07:09:49-10:00 2021-07-21T06:09:49-11:00  21.31310 -157.88864     105   0.0 Hikianalia
  2021-07-21T16:19:25UTC 2021-07-21T06:19:25-10:00 2021-07-21T05:19:25-11:00  21.31303 -157.88883       0   0.0 Hōkūleʻa
  2021-07-21T16:10:41UTC 2021-07-21T06:10:41-10:00 2021-07-21T05:10:41-11:00  21.31311 -157.88868     290   0.0 Hikianalia
  2021-07-21T15:18:42UTC 2021-07-21T05:18:42-10:00 2021-07-21T04:18:42-11:00  21.31302 -157.88883       0   0.0 Hōkūleʻa
  2021-07-21T15:10:43UTC 2021-07-21T05:10:43-10:00 2021-07-21T04:10:43-11:00  21.31309 -157.88862     180   0.0 Hikianalia
  2021-07-21T14:18:47UTC 2021-07-21T04:18:47-10:00 2021-07-21T03:18:47-11:00  21.31302 -157.88883     105   0.0 Hōkūleʻa
  2021-07-21T14:11:19UTC 2021-07-21T04:11:19-10:00 2021-07-21T03:11:19-11:00  21.31312 -157.88862     322   0.0 Hikianalia
  2021-07-21T13:18:33UTC 2021-07-21T03:18:33-10:00 2021-07-21T02:18:33-11:00  21.31303 -157.88888     270   0.0 Hōkūleʻa
  2021-07-21T13:10:40UTC 2021-07-21T03:10:40-10:00 2021-07-21T02:10:40-11:00  21.31305 -157.88856     105   0.0 Hikianalia
  2021-07-21T12:18:36UTC 2021-07-21T02:18:36-10:00 2021-07-21T01:18:36-11:00  21.31303 -157.88883       0   0.0 Hōkūleʻa
  2021-07-21T12:10:44UTC 2021-07-21T02:10:44-10:00 2021-07-21T01:10:44-11:00  21.31307 -157.88864     205   0.0 Hikianalia
  2021-07-21T11:18:33UTC 2021-07-21T01:18:33-10:00 2021-07-21T00:18:33-11:00  21.31303 -157.88883     270   0.0 Hōkūleʻa
  2021-07-21T11:10:43UTC 2021-07-21T01:10:43-10:00 2021-07-21T00:10:43-11:00  21.31311 -157.88862     180   0.0 Hikianalia
  2021-07-21T10:29:05UTC 2021-07-21T00:29:05-10:00 2021-07-20T23:29:05-11:00  21.31303 -157.88881      90   0.0 Hōkūleʻa
  2021-07-21T10:11:15UTC 2021-07-21T00:11:15-10:00 2021-07-20T23:11:15-11:00  21.31312 -157.88862     317   0.0 Hikianalia
  2021-07-21T09:18:30UTC 2021-07-20T23:18:30-10:00 2021-07-20T22:18:30-11:00  21.31303 -157.88883       0   0.0 Hōkūleʻa
  2021-07-21T09:10:48UTC 2021-07-20T23:10:48-10:00 2021-07-20T22:10:48-11:00  21.31306 -157.88856     118   0.0 Hikianalia
  2021-07-21T08:18:22UTC 2021-07-20T22:18:22-10:00 2021-07-20T21:18:22-11:00  21.31300 -157.88883     222   0.0 Hōkūleʻa
  2021-07-21T08:10:52UTC 2021-07-20T22:10:52-10:00 2021-07-20T21:10:52-11:00  21.31309 -157.88862     180   0.0 Hikianalia
  2021-07-21T07:18:36UTC 2021-07-20T21:18:36-10:00 2021-07-20T20:18:36-11:00  21.31303 -157.88881       0   0.0 Hōkūleʻa
  2021-07-21T07:11:00UTC 2021-07-20T21:11:00-10:00 2021-07-20T20:11:00-11:00  21.31310 -157.88862     180   0.0 Hikianalia
  2021-07-21T06:18:41UTC 2021-07-20T20:18:41-10:00 2021-07-20T19:18:41-11:00  21.31302 -157.88881      43   0.0 Hōkūleʻa
  2021-07-21T06:11:23UTC 2021-07-20T20:11:23-10:00 2021-07-20T19:11:23-11:00  21.31312 -157.88862     236   0.1 Hikianalia
  2021-07-21T05:18:33UTC 2021-07-20T19:18:33-10:00 2021-07-20T18:18:33-11:00  21.31299 -157.88883     231   0.0 Hōkūleʻa
  2021-07-21T05:09:53UTC 2021-07-20T19:09:53-10:00 2021-07-20T18:09:53-11:00  21.31442 -157.88656      56   0.1 Hikianalia
  2021-07-21T04:17:34UTC 2021-07-20T18:17:34-10:00 2021-07-20T17:17:34-11:00  21.31303 -157.88879     118   0.0 Hōkūleʻa
  2021-07-21T04:10:39UTC 2021-07-20T18:10:39-10:00 2021-07-20T17:10:39-11:00  21.31310 -157.88862       0   0.0 Hikianalia
  2021-07-21T03:18:25UTC 2021-07-20T17:18:25-10:00 2021-07-20T16:18:25-11:00  21.31305 -157.88883     328   0.0 Hōkūleʻa
  2021-07-21T03:10:47UTC 2021-07-20T17:10:47-10:00 2021-07-20T16:10:47-11:00  21.31310 -157.88862     258   0.0 Hikianalia
  2021-07-21T02:17:39UTC 2021-07-20T16:17:39-10:00 2021-07-20T15:17:39-11:00  21.31302 -157.88881     270   0.0 Hōkūleʻa
  2021-07-21T02:11:17UTC 2021-07-20T16:11:17-10:00 2021-07-20T15:11:17-11:00  21.31312 -157.88851      78   0.0 Hikianalia
  2021-07-21T01:18:38UTC 2021-07-20T15:18:38-10:00 2021-07-20T14:18:38-11:00  21.31302 -157.88877     105   0.0 Hōkūleʻa
  2021-07-21T01:10:50UTC 2021-07-20T15:10:50-10:00 2021-07-20T14:10:50-11:00  21.31310 -157.88862       0   0.0 Hikianalia
  2021-07-21T00:19:00UTC 2021-07-20T14:19:00-10:00 2021-07-20T13:19:00-11:00  21.31303 -157.88881       0   0.0 Hōkūleʻa
  2021-07-21T00:09:58UTC 2021-07-20T14:09:58-10:00 2021-07-20T13:09:58-11:00  21.31310 -157.88862       0   0.0 Hikianalia
  2021-07-20T23:17:32UTC 2021-07-20T13:17:32-10:00 2021-07-20T12:17:32-11:00  21.31303 -157.88881       0   0.0 Hōkūleʻa
  2021-07-20T23:10:48UTC 2021-07-20T13:10:48-10:00 2021-07-20T12:10:48-11:00  21.31310 -157.88862     180   0.0 Hikianalia
  2021-07-20T22:18:38UTC 2021-07-20T12:18:38-10:00 2021-07-20T11:18:38-11:00  21.31303 -157.88881     137   0.0 Hōkūleʻa
  2021-07-20T22:10:15UTC 2021-07-20T12:10:15-10:00 2021-07-20T11:10:15-11:00  21.31312 -157.88862     317   0.0 Hikianalia
  2021-07-20T21:17:39UTC 2021-07-20T11:17:39-10:00 2021-07-20T10:17:39-11:00  21.31305 -157.88883       0   0.0 Hōkūleʻa
  2021-07-20T21:09:47UTC 2021-07-20T11:09:47-10:00 2021-07-20T10:09:47-11:00  21.31299 -157.88849     122   0.0 Hikianalia
  2021-07-20T20:17:36UTC 2021-07-20T10:17:36-10:00 2021-07-20T09:17:36-11:00  21.31303 -157.88883       0   0.0 Hōkūleʻa
  2021-07-20T20:09:40UTC 2021-07-20T10:09:40-10:00 2021-07-20T09:09:40-11:00  21.31307 -157.88862     180   0.0 Hikianalia
  2021-07-20T19:18:42UTC 2021-07-20T09:18:42-10:00 2021-07-20T08:18:42-11:00  21.31302 -157.88883     180   0.0 Hōkūleʻa
  2021-07-20T19:10:47UTC 2021-07-20T09:10:47-10:00 2021-07-20T08:10:47-11:00  21.31311 -157.88862       0   0.0 Hikianalia
  2021-07-20T18:18:50UTC 2021-07-20T08:18:50-10:00 2021-07-20T07:18:50-11:00  21.31303 -157.88883       0   0.0 Hōkūleʻa
  2021-07-20T18:11:12UTC 2021-07-20T08:11:12-10:00 2021-07-20T07:11:12-11:00  21.31311 -157.88862       0   0.0 Hikianalia
  2021-07-20T17:18:33UTC 2021-07-20T07:18:33-10:00 2021-07-20T06:18:33-11:00  21.31300 -157.88883     241   0.0 Hōkūleʻa
  2021-07-20T17:17:45UTC 2021-07-20T07:17:45-10:00 2021-07-20T06:17:45-11:00  21.31309 -157.88862     180   0.0 Hikianalia
  2021-07-20T16:18:25UTC 2021-07-20T06:18:25-10:00 2021-07-20T05:18:25-11:00  21.31302 -157.88881      61   0.0 Hōkūleʻa
  2021-07-20T16:10:42UTC 2021-07-20T06:10:42-10:00 2021-07-20T05:10:42-11:00  21.31312 -157.88862     317   0.0 Hikianalia
  2021-07-20T15:18:42UTC 2021-07-20T05:18:42-10:00 2021-07-20T04:18:42-11:00  21.31300 -157.88883     180   0.0 Hōkūleʻa
  2021-07-20T15:10:45UTC 2021-07-20T05:10:45-10:00 2021-07-20T04:10:45-11:00  21.31310 -157.88860      90   0.0 Hikianalia
  2021-07-20T14:18:49UTC 2021-07-20T04:18:49-10:00 2021-07-20T03:18:49-11:00  21.31303 -157.88883     118   0.0 Hōkūleʻa
  2021-07-20T14:12:10UTC 2021-07-20T04:12:10-10:00 2021-07-20T03:12:10-11:00  21.31310 -157.88864     241   0.0 Hikianalia
  2021-07-20T13:18:28UTC 2021-07-20T03:18:28-10:00 2021-07-20T02:18:28-11:00  21.31305 -157.88888     284   0.0 Hōkūleʻa
  2021-07-20T13:11:26UTC 2021-07-20T03:11:26-10:00 2021-07-20T02:11:26-11:00  21.31311 -157.88862       0   0.0 Hikianalia
  2021-07-20T12:18:25UTC 2021-07-20T02:18:25-10:00 2021-07-20T01:18:25-11:00  21.31304 -157.88883     318   0.0 Hōkūleʻa
  2021-07-20T12:10:45UTC 2021-07-20T02:10:45-10:00 2021-07-20T01:10:45-11:00  21.31310 -157.88862       0   0.0 Hikianalia
  2021-07-20T11:27:33UTC 2021-07-20T01:27:33-10:00 2021-07-20T00:27:33-11:00  21.31310 -157.88862       0   0.0 Hikianalia
  2021-07-20T11:19:07UTC 2021-07-20T01:19:07-10:00 2021-07-20T00:19:07-11:00  21.31302 -157.88881     180   0.0 Hōkūleʻa
  2021-07-20T10:18:46UTC 2021-07-20T00:18:46-10:00 2021-07-19T23:18:46-11:00  21.31303 -157.88881     180   0.0 Hōkūleʻa
  2021-07-20T10:11:15UTC 2021-07-20T00:11:15-10:00 2021-07-19T23:11:15-11:00  21.31310 -157.88862     289   0.0 Hikianalia
  2021-07-20T09:18:34UTC 2021-07-19T23:18:34-10:00 2021-07-19T22:18:34-11:00  21.31305 -157.88881     138   0.0 Hōkūleʻa
  2021-07-20T09:10:47UTC 2021-07-19T23:10:47-10:00 2021-07-19T22:10:47-11:00  21.31308 -157.88856     109   0.0 Hikianalia
  2021-07-20T08:18:30UTC 2021-07-19T22:18:30-10:00 2021-07-19T21:18:30-11:00  21.31307 -157.88883     324   0.0 Hōkūleʻa
  2021-07-20T08:10:44UTC 2021-07-19T22:10:44-10:00 2021-07-19T21:10:44-11:00  21.31310 -157.88862       0   0.0 Hikianalia
  2021-07-20T07:18:25UTC 2021-07-19T21:18:25-10:00 2021-07-19T20:18:25-11:00  21.31302 -157.88879     119   0.0 Hōkūleʻa
  2021-07-20T07:10:56UTC 2021-07-19T21:10:56-10:00 2021-07-19T20:10:56-11:00  21.31305 -157.88862     198   0.0 Hikianalia
  2021-07-20T06:18:50UTC 2021-07-19T20:18:50-10:00 2021-07-19T19:18:50-11:00  21.31303 -157.88881      90   0.0 Hōkūleʻa
  2021-07-20T06:11:12UTC 2021-07-19T20:11:12-10:00 2021-07-19T19:11:12-11:00  21.31311 -157.88860      11   0.0 Hikianalia
  2021-07-20T05:17:32UTC 2021-07-19T19:17:32-10:00 2021-07-19T18:17:32-11:00  21.31303 -157.88883     270   0.0 Hōkūleʻa
  2021-07-20T05:09:49UTC 2021-07-19T19:09:49-10:00 2021-07-19T18:09:49-11:00  21.31300 -157.88862     180   0.0 Hikianalia
  2021-07-20T04:18:25UTC 2021-07-19T18:18:25-10:00 2021-07-19T17:18:25-11:00  21.31303 -157.88881      90   0.0 Hōkūleʻa
  2021-07-20T04:10:40UTC 2021-07-19T18:10:40-10:00 2021-07-19T17:10:40-11:00  21.31309 -157.88862     180   0.0 Hikianalia
  2021-07-20T03:18:31UTC 2021-07-19T17:18:31-10:00 2021-07-19T16:18:31-11:00  21.31303 -157.88883       0   0.0 Hōkūleʻa
  2021-07-20T03:10:14UTC 2021-07-19T17:10:14-10:00 2021-07-19T16:10:14-11:00  21.31310 -157.88862     158   0.0 Hikianalia
  2021-07-20T02:17:46UTC 2021-07-19T16:17:46-10:00 2021-07-19T15:17:46-11:00  21.31303 -157.88883     299   0.0 Hōkūleʻa
  2021-07-20T02:11:10UTC 2021-07-19T16:11:10-10:00 2021-07-19T15:11:10-11:00  21.31325 -157.88868     338   0.0 Hikianalia
  2021-07-20T01:18:33UTC 2021-07-19T15:18:33-10:00 2021-07-19T14:18:33-11:00  21.31302 -157.88881       0   0.0 Hōkūleʻa
  2021-07-20T01:09:49UTC 2021-07-19T15:09:49-10:00 2021-07-19T14:09:49-11:00  21.31310 -157.88862     155   0.0 Hikianalia
  2021-07-20T00:17:34UTC 2021-07-19T14:17:34-10:00 2021-07-19T13:17:34-11:00  21.31300 -157.88881       0   0.0 Hōkūleʻa
  2021-07-20T00:10:09UTC 2021-07-19T14:10:09-10:00 2021-07-19T13:10:09-11:00  21.31314 -157.88864      52   0.0 Hikianalia
  2021-07-19T23:17:58UTC 2021-07-19T13:17:58-10:00 2021-07-19T12:17:58-11:00  21.31300 -157.88881     180   0.0 Hōkūleʻa
  2021-07-19T23:09:58UTC 2021-07-19T13:09:58-10:00 2021-07-19T12:09:58-11:00  21.31308 -157.88873     294   0.0 Hikianalia
  2021-07-19T22:18:45UTC 2021-07-19T12:18:45-10:00 2021-07-19T11:18:45-11:00  21.31302 -157.88881       0   0.0 Hōkūleʻa
  2021-07-19T22:10:48UTC 2021-07-19T12:10:48-10:00 2021-07-19T11:10:48-11:00  21.31298 -157.88849     137   0.0 Hikianalia
  2021-07-19T21:17:33UTC 2021-07-19T11:17:33-10:00 2021-07-19T10:17:33-11:00  21.31302 -157.88881       0   0.0 Hōkūleʻa
  2021-07-19T21:10:17UTC 2021-07-19T11:10:17-10:00 2021-07-19T10:10:17-11:00  21.31311 -157.88862       0   0.0 Hikianalia
  2021-07-19T20:18:32UTC 2021-07-19T10:18:32-10:00 2021-07-19T09:18:32-11:00  21.31302 -157.88881     119   0.0 Hōkūleʻa
  2021-07-19T20:10:42UTC 2021-07-19T10:10:42-10:00 2021-07-19T09:10:42-11:00  21.31310 -157.88862     180   0.0 Hikianalia
  2021-07-19T19:17:25UTC 2021-07-19T09:17:25-10:00 2021-07-19T08:17:25-11:00  21.31303 -157.88883       0   0.0 Hōkūleʻa
  2021-07-19T19:10:13UTC 2021-07-19T09:10:13-10:00 2021-07-19T08:10:13-11:00  21.31313 -157.88862       0   0.0 Hikianalia
  2021-07-19T18:18:42UTC 2021-07-19T08:18:42-10:00 2021-07-19T07:18:42-11:00  21.31302 -157.88883     299   0.0 Hōkūleʻa
  2021-07-19T18:11:06UTC 2021-07-19T08:11:06-10:00 2021-07-19T07:11:06-11:00  21.31310 -157.88862     306   0.0 Hikianalia
  2021-07-19T17:18:33UTC 2021-07-19T07:18:33-10:00 2021-07-19T06:18:33-11:00  21.31300 -157.88881     180   0.0 Hōkūleʻa
  2021-07-19T17:10:43UTC 2021-07-19T07:10:43-10:00 2021-07-19T06:10:43-11:00  21.31306 -157.88856     114   0.0 Hikianalia
  2021-07-19T16:18:34UTC 2021-07-19T06:18:34-10:00 2021-07-19T05:18:34-11:00  21.31303 -157.88881      61   0.0 Hōkūleʻa
  2021-07-19T16:09:47UTC 2021-07-19T06:09:47-10:00 2021-07-19T05:09:47-11:00  21.31311 -157.88868     328   0.0 Hikianalia
  2021-07-19T15:18:33UTC 2021-07-19T05:18:33-10:00 2021-07-19T04:18:33-11:00  21.31302 -157.88883     270   0.0 Hōkūleʻa
  2021-07-19T15:10:36UTC 2021-07-19T05:10:36-10:00 2021-07-19T04:10:36-11:00  21.31308 -157.88866     242   0.0 Hikianalia
  2021-07-19T14:18:40UTC 2021-07-19T04:18:40-10:00 2021-07-19T03:18:40-11:00  21.31302 -157.88881     119   0.0 Hōkūleʻa
  2021-07-19T14:11:11UTC 2021-07-19T04:11:11-10:00 2021-07-19T03:11:11-11:00  21.31310 -157.88862     148   0.0 Hikianalia
  2021-07-19T13:18:33UTC 2021-07-19T03:18:33-10:00 2021-07-19T02:18:33-11:00  21.31304 -157.88886     298   0.0 Hōkūleʻa
  2021-07-19T13:10:48UTC 2021-07-19T03:10:48-10:00 2021-07-19T02:10:48-11:00  21.31313 -157.88864     340   0.0 Hikianalia
  2021-07-19T12:18:32UTC 2021-07-19T02:18:32-10:00 2021-07-19T01:18:32-11:00  21.31303 -157.88883       0   0.0 Hōkūleʻa
  2021-07-19T12:10:47UTC 2021-07-19T02:10:47-10:00 2021-07-19T01:10:47-11:00  21.31308 -157.88862     180   0.0 Hikianalia
  2021-07-19T11:18:34UTC 2021-07-19T01:18:34-10:00 2021-07-19T00:18:34-11:00  21.31302 -157.88883     180   0.0 Hōkūleʻa
  2021-07-19T11:10:37UTC 2021-07-19T01:10:37-10:00 2021-07-19T00:10:37-11:00  21.31312 -157.88862       0   0.0 Hikianalia
  2021-07-19T10:18:46UTC 2021-07-19T00:18:46-10:00 2021-07-18T23:18:46-11:00  21.31303 -157.88883     180   0.0 Hōkūleʻa
  2021-07-19T10:11:18UTC 2021-07-19T00:11:18-10:00 2021-07-18T23:11:18-11:00  21.31310 -157.88862     180   0.0 Hikianalia
  2021-07-19T09:18:34UTC 2021-07-18T23:18:34-10:00 2021-07-18T22:18:34-11:00  21.31305 -157.88883     180   0.0 Hōkūleʻa
  2021-07-19T09:10:10UTC 2021-07-18T23:10:10-10:00 2021-07-18T22:10:10-11:00  21.31311 -157.88862       0   0.0 Hikianalia
  2021-07-19T08:18:32UTC 2021-07-18T22:18:32-10:00 2021-07-18T21:18:32-11:00  21.31307 -157.88883       0   0.0 Hōkūleʻa
  2021-07-19T08:12:08UTC 2021-07-18T22:12:08-10:00 2021-07-18T21:12:08-11:00  21.31310 -157.88862       0   0.0 Hikianalia
  2021-07-19T07:18:47UTC 2021-07-18T21:18:47-10:00 2021-07-18T20:18:47-11:00  21.31300 -157.88883     222   0.0 Hōkūleʻa
  2021-07-19T07:10:42UTC 2021-07-18T21:10:42-10:00 2021-07-18T20:10:42-11:00  21.31308 -157.88862     292   0.0 Hikianalia
  2021-07-19T06:18:43UTC 2021-07-18T20:18:43-10:00 2021-07-18T19:18:43-11:00  21.31303 -157.88881     299   0.0 Hōkūleʻa
  2021-07-19T06:10:39UTC 2021-07-18T20:10:39-10:00 2021-07-18T19:10:39-11:00  21.31305 -157.88853     137   0.0 Hikianalia
  2021-07-19T05:18:29UTC 2021-07-18T19:18:29-10:00 2021-07-18T18:18:29-11:00  21.31302 -157.88879     119   0.0 Hōkūleʻa
  2021-07-19T05:11:19UTC 2021-07-18T19:11:19-10:00 2021-07-18T18:11:19-11:00  21.31311 -157.88860       0   0.0 Hikianalia
  2021-07-19T04:17:25UTC 2021-07-18T18:17:25-10:00 2021-07-18T17:17:25-11:00  21.31303 -157.88881      90   0.0 Hōkūleʻa
  2021-07-19T04:10:58UTC 2021-07-18T18:10:58-10:00 2021-07-18T17:10:58-11:00  21.31311 -157.88860       0   0.0 Hikianalia
  2021-07-19T03:18:31UTC 2021-07-18T17:18:31-10:00 2021-07-18T16:18:31-11:00  21.31303 -157.88883     299   0.0 Hōkūleʻa
  2021-07-19T03:10:52UTC 2021-07-18T17:10:52-10:00 2021-07-18T16:10:52-11:00  21.31311 -157.88860       0   0.0 Hikianalia
  2021-07-19T02:18:48UTC 2021-07-18T16:18:48-10:00 2021-07-18T15:18:48-11:00  21.31302 -157.88881      90   0.0 Hōkūleʻa
  2021-07-19T02:10:16UTC 2021-07-18T16:10:16-10:00 2021-07-18T15:10:16-11:00  21.31311 -157.88860     335   0.0 Hikianalia
  2021-07-19T01:17:32UTC 2021-07-18T15:17:32-10:00 2021-07-18T14:17:32-11:00  21.31302 -157.88888     241   0.0 Hōkūleʻa
  2021-07-19T01:10:51UTC 2021-07-18T15:10:51-10:00 2021-07-18T14:10:51-11:00  21.31307 -157.88858     155   0.0 Hikianalia
  2021-07-19T00:17:25UTC 2021-07-18T14:17:25-10:00 2021-07-18T13:17:25-11:00  21.31304 -157.88883       0   0.0 Hōkūleʻa
  2021-07-19T00:10:48UTC 2021-07-18T14:10:48-10:00 2021-07-18T13:10:48-11:00  21.31311 -157.88860      62   0.0 Hikianalia
  2021-07-18T23:18:30UTC 2021-07-18T13:18:30-10:00 2021-07-18T12:18:30-11:00  21.31303 -157.88883       0   0.0 Hōkūleʻa
  2021-07-18T23:10:18UTC 2021-07-18T13:10:18-10:00 2021-07-18T12:10:18-11:00  21.31310 -157.88862       0   0.0 Hikianalia
  2021-07-18T22:27:14UTC 2021-07-18T12:27:14-10:00 2021-07-18T11:27:14-11:00  21.31303 -157.88883     290   0.0 Hōkūleʻa
  2021-07-18T22:10:49UTC 2021-07-18T12:10:49-10:00 2021-07-18T11:10:49-11:00  21.31310 -157.88862     298   0.0 Hikianalia
  2021-07-18T21:18:37UTC 2021-07-18T11:18:37-10:00 2021-07-18T10:18:37-11:00  21.31300 -157.88877     110   0.0 Hōkūleʻa
  2021-07-18T21:09:45UTC 2021-07-18T11:09:45-10:00 2021-07-18T10:09:45-11:00  21.31309 -157.88860     118   0.0 Hikianalia
  2021-07-18T20:17:27UTC 2021-07-18T10:17:27-10:00 2021-07-18T09:17:27-11:00  21.31303 -157.88883       0   0.0 Hōkūleʻa
  2021-07-18T20:10:09UTC 2021-07-18T10:10:09-10:00 2021-07-18T09:10:09-11:00  21.31310 -157.88862       0   0.0 Hikianalia
  2021-07-18T19:17:33UTC 2021-07-18T09:17:33-10:00 2021-07-18T08:17:33-11:00  21.31302 -157.88883       0   0.0 Hōkūleʻa
  2021-07-18T19:10:47UTC 2021-07-18T09:10:47-10:00 2021-07-18T08:10:47-11:00  21.31308 -157.88862     180   0.0 Hikianalia
  2021-07-18T18:18:41UTC 2021-07-18T08:18:41-10:00 2021-07-18T07:18:41-11:00  21.31302 -157.88883       0   0.0 Hōkūleʻa
  2021-07-18T18:10:46UTC 2021-07-18T08:10:46-10:00 2021-07-18T07:10:46-11:00  21.31313 -157.88862       0   0.0 Hikianalia
  2021-07-18T17:18:31UTC 2021-07-18T07:18:31-10:00 2021-07-18T06:18:31-11:00  21.31300 -157.88883       0   0.0 Hōkūleʻa
  2021-07-18T17:11:17UTC 2021-07-18T07:11:17-10:00 2021-07-18T06:11:17-11:00  21.31309 -157.88862     138   0.0 Hikianalia
  2021-07-18T16:18:34UTC 2021-07-18T06:18:34-10:00 2021-07-18T05:18:34-11:00  21.31299 -157.88883     180   0.0 Hōkūleʻa
  2021-07-18T16:10:41UTC 2021-07-18T06:10:41-10:00 2021-07-18T05:10:41-11:00  21.31311 -157.88864     180   0.0 Hikianalia
  2021-07-18T15:18:25UTC 2021-07-18T05:18:25-10:00 2021-07-18T04:18:25-11:00  21.31302 -157.88883       0   0.0 Hōkūleʻa
  2021-07-18T15:09:46UTC 2021-07-18T05:09:46-10:00 2021-07-18T04:09:46-11:00  21.31313 -157.88864       0   0.0 Hikianalia
  2021-07-18T14:19:48UTC 2021-07-18T04:19:48-10:00 2021-07-18T03:19:48-11:00  21.31302 -157.88883       0   0.0 Hōkūleʻa
  2021-07-18T14:11:09UTC 2021-07-18T04:11:09-10:00 2021-07-18T03:11:09-11:00  21.31311 -157.88864       0   0.0 Hikianalia
  2021-07-18T13:18:43UTC 2021-07-18T03:18:43-10:00 2021-07-18T02:18:43-11:00  21.31300 -157.88883     180   0.0 Hōkūleʻa
  2021-07-18T13:10:49UTC 2021-07-18T03:10:49-10:00 2021-07-18T02:10:49-11:00  21.31311 -157.88864     337   0.0 Hikianalia
  2021-07-18T12:17:34UTC 2021-07-18T02:17:34-10:00 2021-07-18T01:17:34-11:00  21.31302 -157.88883       0   0.0 Hōkūleʻa
  2021-07-18T12:10:40UTC 2021-07-18T02:10:40-10:00 2021-07-18T01:10:40-11:00  21.31302 -157.88860     155   0.0 Hikianalia
  2021-07-18T11:18:24UTC 2021-07-18T01:18:24-10:00 2021-07-18T00:18:24-11:00  21.31302 -157.88883       0   0.0 Hōkūleʻa
  2021-07-18T11:10:37UTC 2021-07-18T01:10:37-10:00 2021-07-18T00:10:37-11:00  21.31314 -157.88866     285   0.0 Hikianalia
  2021-07-18T10:18:50UTC 2021-07-18T00:18:50-10:00 2021-07-17T23:18:50-11:00  21.31300 -157.88883     241   0.0 Hōkūleʻa
  2021-07-18T10:11:14UTC 2021-07-18T00:11:14-10:00 2021-07-17T23:11:14-11:00  21.31313 -157.88862     126   0.0 Hikianalia
  2021-07-18T09:18:32UTC 2021-07-17T23:18:32-10:00 2021-07-17T22:18:32-11:00  21.31302 -157.88881      90   0.0 Hōkūleʻa
  2021-07-18T09:09:47UTC 2021-07-17T23:09:47-10:00 2021-07-17T22:09:47-11:00  21.31318 -157.88868     321   0.0 Hikianalia
  2021-07-18T08:18:22UTC 2021-07-17T22:18:22-10:00 2021-07-17T21:18:22-11:00  21.31302 -157.88883     299   0.0 Hōkūleʻa
  2021-07-18T08:10:36UTC 2021-07-17T22:10:36-10:00 2021-07-17T21:10:36-11:00  21.31310 -157.88862     180   0.0 Hikianalia
  2021-07-18T07:17:42UTC 2021-07-17T21:17:42-10:00 2021-07-17T20:17:42-11:00  21.31300 -157.88881     222   0.0 Hōkūleʻa
  2021-07-18T07:10:48UTC 2021-07-17T21:10:48-10:00 2021-07-17T20:10:48-11:00  21.31313 -157.88862       0   0.0 Hikianalia
  2021-07-18T06:18:26UTC 2021-07-17T20:18:26-10:00 2021-07-17T19:18:26-11:00  21.31303 -157.88879      74   0.0 Hōkūleʻa
  2021-07-18T06:11:19UTC 2021-07-17T20:11:19-10:00 2021-07-17T19:11:19-11:00  21.31312 -157.88862     298   0.0 Hikianalia
  2021-07-18T05:18:23UTC 2021-07-17T19:18:23-10:00 2021-07-17T18:18:23-11:00  21.31302 -157.88883     241   0.0 Hōkūleʻa
  2021-07-18T05:11:17UTC 2021-07-17T19:11:17-10:00 2021-07-17T18:11:17-11:00  21.31311 -157.88860      62   0.0 Hikianalia
  2021-07-18T04:18:50UTC 2021-07-17T18:18:50-10:00 2021-07-17T17:18:50-11:00  21.31303 -157.88881     270   0.0 Hōkūleʻa
  2021-07-18T04:10:41UTC 2021-07-17T18:10:41-10:00 2021-07-17T17:10:41-11:00  21.31310 -157.88862     212   0.0 Hikianalia
  2021-07-18T03:18:39UTC 2021-07-17T17:18:39-10:00 2021-07-17T16:18:39-11:00  21.31303 -157.88877      61   0.0 Hōkūleʻa
  2021-07-18T03:10:04UTC 2021-07-17T17:10:04-10:00 2021-07-17T16:10:04-11:00  21.31317 -157.88858      44   0.0 Hikianalia
  2021-07-18T02:17:22UTC 2021-07-17T16:17:22-10:00 2021-07-17T15:17:22-11:00  21.31300 -157.88881     180   0.0 Hōkūleʻa
  2021-07-18T02:10:10UTC 2021-07-17T16:10:10-10:00 2021-07-17T15:10:10-11:00  21.31312 -157.88862       0   0.0 Hikianalia
  2021-07-18T01:18:34UTC 2021-07-17T15:18:34-10:00 2021-07-17T14:18:34-11:00  21.31302 -157.88881     180   0.0 Hōkūleʻa
  2021-07-18T01:17:35UTC 2021-07-17T15:17:35-10:00 2021-07-17T14:17:35-11:00  21.31310 -157.88862       0   0.0 Hikianalia
  2021-07-18T00:17:50UTC 2021-07-17T14:17:50-10:00 2021-07-17T13:17:50-11:00  21.31303 -157.88881      61   0.0 Hōkūleʻa
  2021-07-18T00:10:40UTC 2021-07-17T14:10:40-10:00 2021-07-17T13:10:40-11:00  21.31310 -157.88862      13   0.0 Hikianalia
  2021-07-17T23:17:33UTC 2021-07-17T13:17:33-10:00 2021-07-17T12:17:33-11:00  21.31302 -157.88883     180   0.0 Hōkūleʻa
  2021-07-17T23:09:47UTC 2021-07-17T13:09:47-10:00 2021-07-17T12:09:47-11:00  21.31302 -157.88864     180   0.0 Hikianalia
  2021-07-17T22:18:28UTC 2021-07-17T12:18:28-10:00 2021-07-17T11:18:28-11:00  21.31303 -157.88883       0   0.0 Hōkūleʻa
  2021-07-17T22:10:15UTC 2021-07-17T12:10:15-10:00 2021-07-17T11:10:15-11:00  21.31310 -157.88864     315   0.0 Hikianalia
  2021-07-17T21:17:30UTC 2021-07-17T11:17:30-10:00 2021-07-17T10:17:30-11:00  21.31303 -157.88883     270   0.0 Hōkūleʻa
  2021-07-17T21:10:39UTC 2021-07-17T11:10:39-10:00 2021-07-17T10:10:39-11:00  21.31298 -157.88851     140   0.0 Hikianalia
  2021-07-17T20:17:39UTC 2021-07-17T10:17:39-10:00 2021-07-17T09:17:39-11:00  21.31303 -157.88881     257   0.0 Hōkūleʻa
  2021-07-17T20:10:47UTC 2021-07-17T10:10:47-10:00 2021-07-17T09:10:47-11:00  21.31310 -157.88862      90   0.0 Hikianalia
  2021-07-17T19:18:35UTC 2021-07-17T09:18:35-10:00 2021-07-17T08:18:35-11:00  21.31307 -157.88862      67   0.0 Hōkūleʻa
  2021-07-17T19:09:38UTC 2021-07-17T09:09:38-10:00 2021-07-17T08:09:38-11:00  21.31310 -157.88866     270   0.0 Hikianalia
  2021-07-17T18:18:39UTC 2021-07-17T08:18:39-10:00 2021-07-17T07:18:39-11:00  21.31298 -157.88883     180   0.0 Hōkūleʻa
  2021-07-17T18:11:13UTC 2021-07-17T08:11:13-10:00 2021-07-17T07:11:13-11:00  21.31310 -157.88862     123   0.0 Hikianalia
  2021-07-17T17:18:33UTC 2021-07-17T07:18:33-10:00 2021-07-17T06:18:33-11:00  21.31303 -157.88883       0   0.0 Hōkūleʻa
  2021-07-17T17:10:48UTC 2021-07-17T07:10:48-10:00 2021-07-17T06:10:48-11:00  21.31317 -157.88873     321   0.0 Hikianalia
  2021-07-17T16:18:42UTC 2021-07-17T06:18:42-10:00 2021-07-17T05:18:42-11:00  21.31302 -157.88883     105   0.0 Hōkūleʻa
  2021-07-17T16:10:50UTC 2021-07-17T06:10:50-10:00 2021-07-17T05:10:50-11:00  21.31309 -157.88866     242   0.0 Hikianalia
  2021-07-17T15:18:31UTC 2021-07-17T05:18:31-10:00 2021-07-17T04:18:31-11:00  21.31303 -157.88888     308   0.0 Hōkūleʻa
  2021-07-17T15:09:39UTC 2021-07-17T05:09:39-10:00 2021-07-17T04:09:39-11:00  21.31313 -157.88858      76   0.0 Hikianalia
  2021-07-17T14:18:27UTC 2021-07-17T04:18:27-10:00 2021-07-17T03:18:27-11:00  21.31299 -157.88883     223   0.0 Hōkūleʻa
  2021-07-17T14:11:10UTC 2021-07-17T04:11:10-10:00 2021-07-17T03:11:10-11:00  21.31312 -157.88862     180   0.0 Hikianalia
  2021-07-17T13:17:32UTC 2021-07-17T03:17:32-10:00 2021-07-17T02:17:32-11:00  21.31302 -157.88881       0   0.0 Hōkūleʻa
  2021-07-17T13:10:49UTC 2021-07-17T03:10:49-10:00 2021-07-17T02:10:49-11:00  21.31315 -157.88862     331   0.0 Hikianalia
  2021-07-17T12:26:36UTC 2021-07-17T02:26:36-10:00 2021-07-17T01:26:36-11:00  21.31300 -157.88881     155   0.0 Hōkūleʻa
  2021-07-17T12:10:40UTC 2021-07-17T02:10:40-10:00 2021-07-17T01:10:40-11:00  21.31305 -157.88856     132   0.0 Hikianalia
  2021-07-17T11:18:28UTC 2021-07-17T01:18:28-10:00 2021-07-17T00:18:28-11:00  21.31305 -157.88883     340   0.0 Hōkūleʻa
  2021-07-17T11:10:45UTC 2021-07-17T01:10:45-10:00 2021-07-17T00:10:45-11:00  21.31310 -157.88862     180   0.0 Hikianalia
  2021-07-17T10:18:26UTC 2021-07-17T00:18:26-10:00 2021-07-16T23:18:26-11:00  21.31299 -157.88881     137   0.0 Hōkūleʻa
  2021-07-17T10:11:15UTC 2021-07-17T00:11:15-10:00 2021-07-16T23:11:15-11:00  21.31311 -157.88862     137   0.0 Hikianalia
  2021-07-17T09:18:34UTC 2021-07-16T23:18:34-10:00 2021-07-16T22:18:34-11:00  21.31302 -157.88883     299   0.0 Hōkūleʻa
  2021-07-17T09:11:13UTC 2021-07-16T23:11:13-10:00 2021-07-16T22:11:13-11:00  21.31313 -157.88864     137   0.0 Hikianalia
  2021-07-17T08:18:48UTC 2021-07-16T22:18:48-10:00 2021-07-16T21:18:48-11:00  21.31300 -157.88881     270   0.0 Hōkūleʻa
  2021-07-17T08:10:59UTC 2021-07-16T22:10:59-10:00 2021-07-16T21:10:59-11:00  21.31318 -157.88868     325   0.0 Hikianalia
  2021-07-17T07:18:44UTC 2021-07-16T21:18:44-10:00 2021-07-16T20:18:44-11:00  21.31309 -157.88862     180   0.0 Hikianalia
  2021-07-17T07:18:36UTC 2021-07-16T21:18:36-10:00 2021-07-16T20:18:36-11:00  21.31300 -157.88877     100   0.0 Hōkūleʻa
  2021-07-17T06:18:33UTC 2021-07-16T20:18:33-10:00 2021-07-16T19:18:33-11:00  21.31302 -157.88883     299   0.0 Hōkūleʻa
  2021-07-17T06:11:13UTC 2021-07-16T20:11:13-10:00 2021-07-16T19:11:13-11:00  21.31310 -157.88862     186   0.0 Hikianalia
  2021-07-17T05:17:33UTC 2021-07-16T19:17:33-10:00 2021-07-16T18:17:33-11:00  21.31300 -157.88881     180   0.0 Hōkūleʻa
  2021-07-17T05:10:49UTC 2021-07-16T19:10:49-10:00 2021-07-16T18:10:49-11:00  21.31328 -157.88860       7   0.0 Hikianalia
  2021-07-17T04:18:42UTC 2021-07-16T18:18:42-10:00 2021-07-16T17:18:42-11:00  21.31303 -157.88881     119   0.0 Hōkūleʻa
  2021-07-17T04:10:15UTC 2021-07-16T18:10:15-10:00 2021-07-16T17:10:15-11:00  21.31312 -157.88862      16   0.0 Hikianalia
  2021-07-17T03:18:31UTC 2021-07-16T17:18:31-10:00 2021-07-16T16:18:31-11:00  21.31304 -157.88883     270   0.0 Hōkūleʻa
  2021-07-17T03:10:38UTC 2021-07-16T17:10:38-10:00 2021-07-16T16:10:38-11:00  21.31298 -157.88866     255   0.0 Hikianalia
  2021-07-17T02:21:03UTC 2021-07-16T16:21:03-10:00 2021-07-16T15:21:03-11:00  21.31299 -157.88862     180   0.0 Hikianalia
  2021-07-17T02:17:36UTC 2021-07-16T16:17:36-10:00 2021-07-16T15:17:36-11:00  21.31304 -157.88881       0   0.0 Hōkūleʻa
  2021-07-17T01:18:26UTC 2021-07-16T15:18:26-10:00 2021-07-16T14:18:26-11:00  21.31302 -157.88881     180   0.0 Hōkūleʻa
  2021-07-17T01:10:18UTC 2021-07-16T15:10:18-10:00 2021-07-16T14:10:18-11:00  21.31311 -157.88862     180   0.0 Hikianalia
  2021-07-17T00:17:49UTC 2021-07-16T14:17:49-10:00 2021-07-16T13:17:49-11:00  21.31303 -157.88881     285   0.0 Hōkūleʻa
  2021-07-17T00:10:11UTC 2021-07-16T14:10:11-10:00 2021-07-16T13:10:11-11:00  21.31313 -157.88862       0   0.0 Hikianalia
  2021-07-16T23:18:31UTC 2021-07-16T13:18:31-10:00 2021-07-16T12:18:31-11:00  21.31302 -157.88877     126   0.0 Hōkūleʻa
  2021-07-16T23:10:37UTC 2021-07-16T13:10:37-10:00 2021-07-16T12:10:37-11:00  21.31310 -157.88862     180   0.0 Hikianalia
  2021-07-16T22:17:31UTC 2021-07-16T12:17:31-10:00 2021-07-16T11:17:31-11:00  21.31306 -157.88883       0   0.0 Hōkūleʻa
  2021-07-16T22:10:18UTC 2021-07-16T12:10:18-10:00 2021-07-16T11:10:18-11:00  21.31312 -157.88862     335   0.0 Hikianalia
  2021-07-16T21:17:33UTC 2021-07-16T11:17:33-10:00 2021-07-16T10:17:33-11:00  21.31303 -157.88883       0   0.0 Hōkūleʻa
  2021-07-16T21:10:45UTC 2021-07-16T11:10:45-10:00 2021-07-16T10:10:45-11:00  21.31299 -157.88856     151   0.0 Hikianalia
  2021-07-16T20:18:48UTC 2021-07-16T10:18:48-10:00 2021-07-16T09:18:48-11:00  21.31302 -157.88883      80   0.0 Hōkūleʻa
  2021-07-16T20:10:08UTC 2021-07-16T10:10:08-10:00 2021-07-16T09:10:08-11:00  21.31310 -157.88862     180   0.0 Hikianalia
  2021-07-16T19:17:50UTC 2021-07-16T09:17:50-10:00 2021-07-16T08:17:50-11:00  21.31300 -157.88890     258   0.0 Hōkūleʻa
  2021-07-16T19:11:16UTC 2021-07-16T09:11:16-10:00 2021-07-16T08:11:16-11:00  21.31312 -157.88862      32   0.0 Hikianalia
  2021-07-16T18:18:31UTC 2021-07-16T08:18:31-10:00 2021-07-16T07:18:31-11:00  21.31303 -157.88879      61   0.0 Hōkūleʻa
  2021-07-16T18:10:53UTC 2021-07-16T08:10:53-10:00 2021-07-16T07:10:53-11:00  21.31306 -157.88866     298   0.0 Hikianalia
  2021-07-16T17:18:29UTC 2021-07-16T07:18:29-10:00 2021-07-16T06:18:29-11:00  21.31300 -157.88883       0   0.0 Hōkūleʻa
  2021-07-16T17:10:44UTC 2021-07-16T07:10:44-10:00 2021-07-16T06:10:44-11:00  21.31300 -157.88856     148   0.0 Hikianalia
  2021-07-16T16:18:48UTC 2021-07-16T06:18:48-10:00 2021-07-16T05:18:48-11:00  21.31299 -157.88883     299   0.0 Hōkūleʻa
  2021-07-16T16:11:17UTC 2021-07-16T06:11:17-10:00 2021-07-16T05:11:17-11:00  21.31310 -157.88862      96   0.0 Hikianalia
  2021-07-16T15:18:40UTC 2021-07-16T05:18:40-10:00 2021-07-16T04:18:40-11:00  21.31298 -157.88881       0   0.0 Hōkūleʻa
  2021-07-16T15:10:49UTC 2021-07-16T05:10:49-10:00 2021-07-16T04:10:49-11:00  21.31311 -157.88873     276   0.0 Hikianalia
  2021-07-16T14:18:31UTC 2021-07-16T04:18:31-10:00 2021-07-16T03:18:31-11:00  21.31298 -157.88881     137   0.0 Hōkūleʻa
  2021-07-16T14:10:43UTC 2021-07-16T04:10:43-10:00 2021-07-16T03:10:43-11:00  21.31310 -157.88862     298   0.0 Hikianalia
  2021-07-16T13:18:33UTC 2021-07-16T03:18:33-10:00 2021-07-16T02:18:33-11:00  21.31300 -157.88883     297   0.0 Hōkūleʻa
  2021-07-16T13:10:47UTC 2021-07-16T03:10:47-10:00 2021-07-16T02:10:47-11:00  21.31307 -157.88856     132   0.0 Hikianalia
  2021-07-16T12:21:44UTC 2021-07-16T02:21:44-10:00 2021-07-16T01:21:44-11:00  21.31312 -157.88862       0   0.0 Hikianalia
  2021-07-16T12:17:42UTC 2021-07-16T02:17:42-10:00 2021-07-16T01:17:42-11:00  21.31299 -157.88881     299   0.0 Hōkūleʻa
  2021-07-16T11:18:29UTC 2021-07-16T01:18:29-10:00 2021-07-16T00:18:29-11:00  21.31298 -157.88879     180   0.0 Hōkūleʻa
  2021-07-16T11:10:44UTC 2021-07-16T01:10:44-10:00 2021-07-16T00:10:44-11:00  21.31312 -157.88862     242   0.0 Hikianalia
  2021-07-16T10:18:28UTC 2021-07-16T00:18:28-10:00 2021-07-15T23:18:28-11:00  21.31302 -157.88879       0   0.0 Hōkūleʻa
  2021-07-16T10:10:47UTC 2021-07-16T00:10:47-10:00 2021-07-15T23:10:47-11:00  21.31314 -157.88858      43   0.0 Hikianalia
  2021-07-16T09:18:34UTC 2021-07-15T23:18:34-10:00 2021-07-15T22:18:34-11:00  21.31298 -157.88879      90   0.0 Hōkūleʻa
  2021-07-16T09:11:19UTC 2021-07-15T23:11:19-10:00 2021-07-15T22:11:19-11:00  21.31310 -157.88862     308   0.0 Hikianalia
  2021-07-16T08:18:46UTC 2021-07-15T22:18:46-10:00 2021-07-15T21:18:46-11:00  21.31298 -157.88881     270   0.0 Hōkūleʻa
  2021-07-16T08:10:50UTC 2021-07-15T22:10:50-10:00 2021-07-15T21:10:50-11:00  21.31307 -157.88858     118   0.0 Hikianalia
  2021-07-16T07:18:46UTC 2021-07-15T21:18:46-10:00 2021-07-15T20:18:46-11:00  21.31298 -157.88873     109   0.0 Hōkūleʻa
  2021-07-16T07:10:48UTC 2021-07-15T21:10:48-10:00 2021-07-15T20:10:48-11:00  21.31310 -157.88864     255   0.0 Hikianalia
  2021-07-16T06:18:26UTC 2021-07-15T20:18:26-10:00 2021-07-15T19:18:26-11:00  21.31300 -157.88879      41   0.5 Hōkūleʻa
  2021-07-16T06:11:12UTC 2021-07-15T20:11:12-10:00 2021-07-15T19:11:12-11:00  21.31311 -157.88860     317   0.0 Hikianalia
  2021-07-16T05:18:39UTC 2021-07-15T19:18:39-10:00 2021-07-15T18:18:39-11:00  21.30620 -157.89512     346   3.4 Hōkūleʻa
  2021-07-16T05:10:36UTC 2021-07-15T19:10:36-10:00 2021-07-15T18:10:36-11:00  21.31303 -157.88851     141   0.0 Hikianalia
  2021-07-16T04:18:52UTC 2021-07-15T18:18:52-10:00 2021-07-15T17:18:52-11:00  21.25127 -157.88057     173   3.6 Hōkūleʻa
  2021-07-16T04:11:18UTC 2021-07-15T18:11:18-10:00 2021-07-15T17:11:18-11:00  21.31312 -157.88860      43   0.0 Hikianalia
  2021-07-16T03:17:33UTC 2021-07-15T17:17:33-10:00 2021-07-15T16:17:33-11:00  21.31311 -157.88862       0   0.0 Hōkūleʻa
  2021-07-16T03:09:48UTC 2021-07-15T17:09:48-10:00 2021-07-15T16:09:48-11:00  21.31310 -157.88862     166   0.0 Hikianalia
  2021-07-16T02:18:23UTC 2021-07-15T16:18:23-10:00 2021-07-15T15:18:23-11:00  21.31311 -157.88862       0   0.0 Hōkūleʻa
  2021-07-16T02:10:37UTC 2021-07-15T16:10:37-10:00 2021-07-15T15:10:37-11:00  21.31326 -157.88866      62   0.0 Hikianalia
  2021-07-16T01:17:36UTC 2021-07-15T15:17:36-10:00 2021-07-15T14:17:36-11:00  21.31311 -157.88862       0   0.0 Hōkūleʻa
  2021-07-16T01:09:45UTC 2021-07-15T15:09:45-10:00 2021-07-15T14:09:45-11:00  21.31323 -157.88873     322   0.0 Hikianalia
  2021-07-16T00:24:45UTC 2021-07-15T14:24:45-10:00 2021-07-15T13:24:45-11:00  21.31311 -157.88862       0   0.0 Hōkūleʻa
  2021-07-16T00:10:12UTC 2021-07-15T14:10:12-10:00 2021-07-15T13:10:12-11:00  21.31310 -157.88862       0   0.0 Hikianalia
  2021-07-15T23:18:57UTC 2021-07-15T13:18:57-10:00 2021-07-15T12:18:57-11:00  21.31311 -157.88862      65   0.0 Hōkūleʻa
  2021-07-15T23:10:47UTC 2021-07-15T13:10:47-10:00 2021-07-15T12:10:47-11:00  21.31310 -157.88862     312   0.0 Hikianalia
  2021-07-15T22:17:34UTC 2021-07-15T12:17:34-10:00 2021-07-15T11:17:34-11:00  21.31303 -157.88881     245   0.0 Hōkūleʻa
  2021-07-15T22:10:48UTC 2021-07-15T12:10:48-10:00 2021-07-15T11:10:48-11:00  21.31305 -157.88856     119   0.0 Hikianalia
  2021-07-15T21:17:32UTC 2021-07-15T11:17:32-10:00 2021-07-15T10:17:32-11:00  21.31311 -157.88862       0   0.0 Hōkūleʻa
  2021-07-15T21:09:47UTC 2021-07-15T11:09:47-10:00 2021-07-15T10:09:47-11:00  21.31308 -157.88862     180   0.0 Hikianalia
  2021-07-15T20:18:47UTC 2021-07-15T10:18:47-10:00 2021-07-15T09:18:47-11:00  21.31311 -157.88862       0   0.0 Hōkūleʻa
  2021-07-15T20:10:15UTC 2021-07-15T10:10:15-10:00 2021-07-15T09:10:15-11:00  21.31309 -157.88862      90   0.0 Hikianalia
  2021-07-15T19:17:42UTC 2021-07-15T09:17:42-10:00 2021-07-15T08:17:42-11:00  21.31311 -157.88862       0   0.0 Hōkūleʻa
  2021-07-15T19:10:40UTC 2021-07-15T09:10:40-10:00 2021-07-15T08:10:40-11:00  21.31309 -157.88877     260   0.0 Hikianalia
  2021-07-15T18:20:40UTC 2021-07-15T08:20:40-10:00 2021-07-15T07:20:40-11:00  21.31310 -157.88871     280   0.0 Hikianalia
  2021-07-15T18:17:26UTC 2021-07-15T08:17:26-10:00 2021-07-15T07:17:26-11:00  21.31311 -157.88862       0   0.0 Hōkūleʻa
  2021-07-15T17:18:25UTC 2021-07-15T07:18:25-10:00 2021-07-15T06:18:25-11:00  21.31311 -157.88862       0   0.0 Hōkūleʻa
  2021-07-15T17:11:17UTC 2021-07-15T07:11:17-10:00 2021-07-15T06:11:17-11:00  21.31309 -157.88864     105   0.0 Hikianalia
  2021-07-15T16:18:48UTC 2021-07-15T06:18:48-10:00 2021-07-15T05:18:48-11:00  21.31311 -157.88862       0   0.0 Hōkūleʻa
  2021-07-15T16:10:45UTC 2021-07-15T06:10:45-10:00 2021-07-15T05:10:45-11:00  21.31310 -157.88868      62   0.0 Hikianalia
  2021-07-15T15:18:33UTC 2021-07-15T05:18:33-10:00 2021-07-15T04:18:33-11:00  21.31311 -157.88862       0   0.0 Hōkūleʻa
  2021-07-15T15:10:39UTC 2021-07-15T05:10:39-10:00 2021-07-15T04:10:39-11:00  21.31309 -157.88871     260   0.0 Hikianalia
  2021-07-15T14:17:22UTC 2021-07-15T04:17:22-10:00 2021-07-15T03:17:22-11:00  21.31311 -157.88862       0   0.0 Hōkūleʻa
  2021-07-15T14:11:17UTC 2021-07-15T04:11:17-10:00 2021-07-15T03:11:17-11:00  21.31310 -157.88864     351   0.0 Hikianalia
  2021-07-15T13:18:25UTC 2021-07-15T03:18:25-10:00 2021-07-15T02:18:25-11:00  21.31311 -157.88862       0   0.0 Hōkūleʻa
  2021-07-15T13:10:49UTC 2021-07-15T03:10:49-10:00 2021-07-15T02:10:49-11:00  21.31297 -157.88862     180   0.0 Hikianalia
  2021-07-15T12:24:19UTC 2021-07-15T02:24:19-10:00 2021-07-15T01:24:19-11:00  21.31311 -157.88862       0   0.0 Hōkūleʻa
  2021-07-15T12:10:57UTC 2021-07-15T02:10:57-10:00 2021-07-15T01:10:57-11:00  21.31309 -157.88862     119   0.0 Hikianalia
  2021-07-15T11:18:38UTC 2021-07-15T01:18:38-10:00 2021-07-15T00:18:38-11:00  21.31311 -157.88862      59   0.0 Hōkūleʻa
  2021-07-15T11:10:59UTC 2021-07-15T01:10:59-10:00 2021-07-15T00:10:59-11:00  21.31310 -157.88864       0   0.0 Hikianalia
  2021-07-15T10:18:39UTC 2021-07-15T00:18:39-10:00 2021-07-14T23:18:39-11:00  21.31303 -157.88877     239   0.0 Hōkūleʻa
  2021-07-15T10:11:19UTC 2021-07-15T00:11:19-10:00 2021-07-14T23:11:19-11:00  21.31310 -157.88864     327   0.1 Hikianalia
  2021-07-15T09:35:49UTC 2021-07-14T23:35:49-10:00 2021-07-14T22:35:49-11:00  21.31311 -157.88862       0   0.0 Hōkūleʻa
  2021-07-15T09:10:53UTC 2021-07-14T23:10:53-10:00 2021-07-14T22:10:53-11:00  21.31112 -157.88729     157   0.1 Hikianalia
  2021-07-15T08:18:45UTC 2021-07-14T22:18:45-10:00 2021-07-14T21:18:45-11:00  21.31311 -157.88862       0   0.0 Hōkūleʻa
  2021-07-15T08:11:02UTC 2021-07-14T22:11:02-10:00 2021-07-14T21:11:02-11:00  21.31298 -157.88815     285   0.1 Hikianalia
  2021-07-15T07:18:28UTC 2021-07-14T21:18:28-10:00 2021-07-14T20:18:28-11:00  21.31311 -157.88862      67   0.0 Hōkūleʻa
  2021-07-15T07:10:42UTC 2021-07-14T21:10:42-10:00 2021-07-14T20:10:42-11:00  21.31274 -157.88714     105   0.1 Hikianalia
  2021-07-15T06:18:42UTC 2021-07-14T20:18:42-10:00 2021-07-14T19:18:42-11:00  21.31304 -157.88881     247   0.0 Hōkūleʻa
  2021-07-15T06:11:19UTC 2021-07-14T20:11:19-10:00 2021-07-14T19:11:19-11:00  21.31311 -157.88862     218   0.1 Hikianalia
  2021-07-15T05:26:16UTC 2021-07-14T19:26:16-10:00 2021-07-14T18:26:16-11:00  21.31311 -157.88862       0   0.0 Hōkūleʻa
  2021-07-15T05:09:53UTC 2021-07-14T19:09:53-10:00 2021-07-14T18:09:53-11:00  21.31506 -157.88701      40   0.2 Hikianalia
  2021-07-15T04:18:45UTC 2021-07-14T18:18:45-10:00 2021-07-14T17:18:45-11:00  21.31311 -157.88862       0   0.0 Hōkūleʻa
  2021-07-15T04:10:39UTC 2021-07-14T18:10:39-10:00 2021-07-14T17:10:39-11:00  21.31303 -157.88886       0   0.0 Hikianalia
  2021-07-15T03:17:34UTC 2021-07-14T17:17:34-10:00 2021-07-14T16:17:34-11:00  21.31311 -157.88862       0   0.0 Hōkūleʻa
  2021-07-15T03:10:47UTC 2021-07-14T17:10:47-10:00 2021-07-14T16:10:47-11:00  21.31303 -157.88886       0   0.0 Hikianalia
  2021-07-15T02:18:22UTC 2021-07-14T16:18:22-10:00 2021-07-14T15:18:22-11:00  21.31311 -157.88862       0   0.0 Hōkūleʻa
  2021-07-15T02:10:10UTC 2021-07-14T16:10:10-10:00 2021-07-14T15:10:10-11:00  21.31303 -157.88886       0   0.0 Hikianalia
  2021-07-15T01:18:27UTC 2021-07-14T15:18:27-10:00 2021-07-14T14:18:27-11:00  21.31311 -157.88862       0   0.0 Hōkūleʻa
  2021-07-15T01:10:49UTC 2021-07-14T15:10:49-10:00 2021-07-14T14:10:49-11:00  21.31303 -157.88886       0   0.0 Hikianalia
  2021-07-15T00:17:48UTC 2021-07-14T14:17:48-10:00 2021-07-14T13:17:48-11:00  21.31311 -157.88862       0   0.0 Hōkūleʻa
  2021-07-15T00:09:47UTC 2021-07-14T14:09:47-10:00 2021-07-14T13:09:47-11:00  21.31303 -157.88886       0   0.0 Hikianalia
  2021-07-14T23:17:41UTC 2021-07-14T13:17:41-10:00 2021-07-14T12:17:41-11:00  21.31311 -157.88862      50   0.0 Hōkūleʻa
  2021-07-14T23:10:45UTC 2021-07-14T13:10:45-10:00 2021-07-14T12:10:45-11:00  21.31303 -157.88886       0   0.0 Hikianalia
  2021-07-14T22:18:33UTC 2021-07-14T12:18:33-10:00 2021-07-14T11:18:33-11:00  21.31299 -157.88877     230   0.0 Hōkūleʻa
  2021-07-14T22:10:17UTC 2021-07-14T12:10:17-10:00 2021-07-14T11:10:17-11:00  21.31303 -157.88886       0   0.0 Hikianalia
  2021-07-14T21:17:31UTC 2021-07-14T11:17:31-10:00 2021-07-14T10:17:31-11:00  21.31311 -157.88862       0   0.0 Hōkūleʻa
  2021-07-14T21:10:41UTC 2021-07-14T11:10:41-10:00 2021-07-14T10:10:41-11:00  21.31303 -157.88886       0   0.0 Hikianalia
  2021-07-14T20:17:44UTC 2021-07-14T10:17:44-10:00 2021-07-14T09:17:44-11:00  21.31311 -157.88862       0   0.0 Hōkūleʻa
  2021-07-14T20:10:58UTC 2021-07-14T10:10:58-10:00 2021-07-14T09:10:58-11:00  21.31303 -157.88886     263   0.0 Hikianalia
  2021-07-14T19:17:33UTC 2021-07-14T09:17:33-10:00 2021-07-14T08:17:33-11:00  21.31311 -157.88862       0   0.0 Hōkūleʻa
  2021-07-14T19:09:48UTC 2021-07-14T09:09:48-10:00 2021-07-14T08:09:48-11:00  21.31305 -157.88866      83   0.0 Hikianalia
  2021-07-14T18:18:34UTC 2021-07-14T08:18:34-10:00 2021-07-14T07:18:34-11:00  21.31311 -157.88862       0   0.0 Hōkūleʻa
  2021-07-14T18:11:19UTC 2021-07-14T08:11:19-10:00 2021-07-14T07:11:19-11:00  21.31303 -157.88886       0   0.0 Hikianalia
  2021-07-14T17:17:33UTC 2021-07-14T07:17:33-10:00 2021-07-14T06:17:33-11:00  21.31311 -157.88862       0   0.0 Hōkūleʻa
  2021-07-14T17:10:37UTC 2021-07-14T07:10:37-10:00 2021-07-14T06:10:37-11:00  21.31303 -157.88886     251   0.0 Hikianalia
  2021-07-14T16:18:41UTC 2021-07-14T06:18:41-10:00 2021-07-14T05:18:41-11:00  21.31311 -157.88862       0   0.0 Hōkūleʻa
  2021-07-14T16:10:48UTC 2021-07-14T06:10:48-10:00 2021-07-14T05:10:48-11:00  21.31309 -157.88866      71   0.0 Hikianalia
  2021-07-14T15:18:39UTC 2021-07-14T05:18:39-10:00 2021-07-14T04:18:39-11:00  21.31311 -157.88862       0   0.0 Hōkūleʻa
  2021-07-14T15:10:46UTC 2021-07-14T05:10:46-10:00 2021-07-14T04:10:46-11:00  21.31303 -157.88886       0   0.0 Hikianalia
  2021-07-14T14:18:25UTC 2021-07-14T04:18:25-10:00 2021-07-14T03:18:25-11:00  21.31311 -157.88862       0   0.0 Hōkūleʻa
  2021-07-14T14:11:17UTC 2021-07-14T04:11:17-10:00 2021-07-14T03:11:17-11:00  21.31303 -157.88886       0   0.0 Hikianalia
  2021-07-14T13:27:38UTC 2021-07-14T03:27:38-10:00 2021-07-14T02:27:38-11:00  21.31311 -157.88862       0   0.0 Hōkūleʻa
  2021-07-14T13:10:56UTC 2021-07-14T03:10:56-10:00 2021-07-14T02:10:56-11:00  21.31303 -157.88886       0   0.0 Hikianalia
  2021-07-14T12:18:49UTC 2021-07-14T02:18:49-10:00 2021-07-14T01:18:49-11:00  21.31311 -157.88862       0   0.0 Hōkūleʻa
  2021-07-14T12:10:47UTC 2021-07-14T02:10:47-10:00 2021-07-14T01:10:47-11:00  21.31303 -157.88886       0   0.0 Hikianalia
  2021-07-14T11:18:42UTC 2021-07-14T01:18:42-10:00 2021-07-14T00:18:42-11:00  21.31311 -157.88862      62   0.0 Hōkūleʻa
  2021-07-14T11:11:12UTC 2021-07-14T01:11:12-10:00 2021-07-14T00:11:12-11:00  21.31303 -157.88886       0   0.0 Hikianalia
  2021-07-14T10:18:33UTC 2021-07-14T00:18:33-10:00 2021-07-13T23:18:33-11:00  21.31303 -157.88879     242   0.0 Hōkūleʻa
  2021-07-14T10:10:42UTC 2021-07-14T00:10:42-10:00 2021-07-13T23:10:42-11:00  21.31303 -157.88886       0   0.0 Hikianalia
  2021-07-14T09:18:33UTC 2021-07-13T23:18:33-10:00 2021-07-13T22:18:33-11:00  21.31311 -157.88862       0   0.0 Hōkūleʻa
  2021-07-14T09:10:39UTC 2021-07-13T23:10:39-10:00 2021-07-13T22:10:39-11:00  21.31303 -157.88886       0   0.0 Hikianalia
  2021-07-14T08:18:51UTC 2021-07-13T22:18:51-10:00 2021-07-13T21:18:51-11:00  21.31311 -157.88862      56   0.0 Hōkūleʻa
  2021-07-14T08:11:16UTC 2021-07-13T22:11:16-10:00 2021-07-13T21:11:16-11:00  21.31303 -157.88886       0   0.0 Hikianalia
  2021-07-14T07:18:37UTC 2021-07-13T21:18:37-10:00 2021-07-13T20:18:37-11:00  21.31300 -157.88879     180   0.0 Hōkūleʻa
  2021-07-14T07:10:49UTC 2021-07-13T21:10:49-10:00 2021-07-13T20:10:49-11:00  21.31303 -157.88886       0   0.0 Hikianalia
  2021-07-14T06:18:25UTC 2021-07-13T20:18:25-10:00 2021-07-13T19:18:25-11:00  21.31303 -157.88879     242   0.0 Hōkūleʻa
  2021-07-14T06:10:50UTC 2021-07-13T20:10:50-10:00 2021-07-13T19:10:50-11:00  21.31303 -157.88886       0   0.0 Hikianalia
  2021-07-14T05:17:31UTC 2021-07-13T19:17:31-10:00 2021-07-13T18:17:31-11:00  21.31311 -157.88862       0   0.0 Hōkūleʻa
  2021-07-14T05:10:39UTC 2021-07-13T19:10:39-10:00 2021-07-13T18:10:39-11:00  21.31303 -157.88886       0   0.0 Hikianalia
  2021-07-14T04:18:38UTC 2021-07-13T18:18:38-10:00 2021-07-13T17:18:38-11:00  21.31311 -157.88862       0   0.0 Hōkūleʻa
  2021-07-14T04:10:17UTC 2021-07-13T18:10:17-10:00 2021-07-13T17:10:17-11:00  21.31303 -157.88886       0   0.0 Hikianalia
  2021-07-14T03:17:32UTC 2021-07-13T17:17:32-10:00 2021-07-13T16:17:32-11:00  21.31311 -157.88862       0   0.0 Hōkūleʻa
  2021-07-14T03:10:40UTC 2021-07-13T17:10:40-10:00 2021-07-13T16:10:40-11:00  21.31303 -157.88886       0   0.0 Hikianalia
  2021-07-14T02:18:33UTC 2021-07-13T16:18:33-10:00 2021-07-13T15:18:33-11:00  21.31311 -157.88862      65   0.0 Hōkūleʻa
  2021-07-14T02:10:16UTC 2021-07-13T16:10:16-10:00 2021-07-13T15:10:16-11:00  21.31303 -157.88886       0   0.0 Hikianalia
  2021-07-14T01:27:13UTC 2021-07-13T15:27:13-10:00 2021-07-13T14:27:13-11:00  21.31303 -157.88886       0   0.0 Hikianalia
  2021-07-14T01:17:36UTC 2021-07-13T15:17:36-10:00 2021-07-13T14:17:36-11:00  21.31303 -157.88881     245   0.0 Hōkūleʻa
  2021-07-14T00:18:42UTC 2021-07-13T14:18:42-10:00 2021-07-13T13:18:42-11:00  21.31311 -157.88862       0   0.0 Hōkūleʻa
  2021-07-14T00:10:16UTC 2021-07-13T14:10:16-10:00 2021-07-13T13:10:16-11:00  21.31303 -157.88886       0   0.0 Hikianalia
  2021-07-13T23:17:33UTC 2021-07-13T13:17:33-10:00 2021-07-13T12:17:33-11:00  21.31311 -157.88862      65   0.0 Hōkūleʻa
  2021-07-13T23:10:10UTC 2021-07-13T13:10:10-10:00 2021-07-13T12:10:10-11:00  21.31303 -157.88886       0   0.0 Hikianalia
  2021-07-13T22:18:32UTC 2021-07-13T12:18:32-10:00 2021-07-13T11:18:32-11:00  21.31303 -157.88881     245   0.0 Hōkūleʻa
  2021-07-13T22:10:52UTC 2021-07-13T12:10:52-10:00 2021-07-13T11:10:52-11:00  21.31303 -157.88886     247   0.0 Hikianalia
  2021-07-13T21:17:33UTC 2021-07-13T11:17:33-10:00 2021-07-13T10:17:33-11:00  21.31311 -157.88862      65   0.0 Hōkūleʻa
  2021-07-13T21:10:19UTC 2021-07-13T11:10:19-10:00 2021-07-13T10:10:19-11:00  21.31310 -157.88866      67   0.0 Hikianalia
  2021-07-13T20:18:46UTC 2021-07-13T10:18:46-10:00 2021-07-13T09:18:46-11:00  21.31303 -157.88881     245   0.0 Hōkūleʻa
  2021-07-13T20:09:42UTC 2021-07-13T10:09:42-10:00 2021-07-13T09:09:42-11:00  21.31303 -157.88886       0   0.0 Hikianalia
  2021-07-13T19:17:39UTC 2021-07-13T09:17:39-10:00 2021-07-13T08:17:39-11:00  21.31311 -157.88862       0   0.0 Hōkūleʻa
  2021-07-13T19:10:48UTC 2021-07-13T09:10:48-10:00 2021-07-13T08:10:48-11:00  21.31303 -157.88886       0   0.0 Hikianalia
  2021-07-13T18:18:34UTC 2021-07-13T08:18:34-10:00 2021-07-13T07:18:34-11:00  21.31311 -157.88862       0   0.0 Hōkūleʻa
  2021-07-13T18:11:17UTC 2021-07-13T08:11:17-10:00 2021-07-13T07:11:17-11:00  21.31303 -157.88886       0   0.0 Hikianalia
  2021-07-13T17:18:28UTC 2021-07-13T07:18:28-10:00 2021-07-13T06:18:28-11:00  21.31311 -157.88862       0   0.0 Hōkūleʻa
  2021-07-13T17:10:41UTC 2021-07-13T07:10:41-10:00 2021-07-13T06:10:41-11:00  21.31303 -157.88886     267   0.0 Hikianalia
  2021-07-13T16:18:48UTC 2021-07-13T06:18:48-10:00 2021-07-13T05:18:48-11:00  21.31311 -157.88862      56   0.0 Hōkūleʻa
  2021-07-13T16:10:49UTC 2021-07-13T06:10:49-10:00 2021-07-13T05:10:49-11:00  21.31304 -157.88866      87   0.0 Hikianalia
  2021-07-13T15:18:37UTC 2021-07-13T05:18:37-10:00 2021-07-13T04:18:37-11:00  21.31300 -157.88879       0   0.0 Hōkūleʻa
  2021-07-13T15:10:48UTC 2021-07-13T05:10:48-10:00 2021-07-13T04:10:48-11:00  21.31303 -157.88886       0   0.0 Hikianalia
  2021-07-13T14:18:30UTC 2021-07-13T04:18:30-10:00 2021-07-13T03:18:30-11:00  21.31300 -157.88879     236   0.0 Hōkūleʻa
  2021-07-13T14:10:19UTC 2021-07-13T04:10:19-10:00 2021-07-13T03:10:19-11:00  21.31303 -157.88886     270   0.0 Hikianalia
  2021-07-13T13:18:28UTC 2021-07-13T03:18:28-10:00 2021-07-13T02:18:28-11:00  21.31311 -157.88862       0   0.0 Hōkūleʻa
  2021-07-13T13:11:39UTC 2021-07-13T03:11:39-10:00 2021-07-13T02:11:39-11:00  21.31303 -157.88866      90   0.0 Hikianalia
  2021-07-13T12:18:47UTC 2021-07-13T02:18:47-10:00 2021-07-13T01:18:47-11:00  21.31311 -157.88862       0   0.0 Hōkūleʻa
  2021-07-13T12:09:55UTC 2021-07-13T02:09:55-10:00 2021-07-13T01:09:55-11:00  21.31303 -157.88886     242   0.0 Hikianalia
  2021-07-13T11:18:39UTC 2021-07-13T01:18:39-10:00 2021-07-13T00:18:39-11:00  21.31311 -157.88862       0   0.0 Hōkūleʻa
  2021-07-13T11:10:37UTC 2021-07-13T01:10:37-10:00 2021-07-13T00:10:37-11:00  21.31312 -157.88866      62   0.0 Hikianalia
  2021-07-13T10:17:33UTC 2021-07-13T00:17:33-10:00 2021-07-12T23:17:33-11:00  21.31311 -157.88862       0   0.0 Hōkūleʻa
  2021-07-13T10:11:14UTC 2021-07-13T00:11:14-10:00 2021-07-12T23:11:14-11:00  21.31303 -157.88886       0   0.0 Hikianalia
  2021-07-13T09:18:25UTC 2021-07-12T23:18:25-10:00 2021-07-12T22:18:25-11:00  21.31311 -157.88862       0   0.0 Hōkūleʻa
  2021-07-13T09:10:46UTC 2021-07-12T23:10:46-10:00 2021-07-12T22:10:46-11:00  21.31303 -157.88886       0   0.0 Hikianalia
  2021-07-13T08:18:41UTC 2021-07-12T22:18:41-10:00 2021-07-12T21:18:41-11:00  21.31311 -157.88862       0   0.0 Hōkūleʻa
  2021-07-13T08:10:39UTC 2021-07-12T22:10:39-10:00 2021-07-12T21:10:39-11:00  21.31303 -157.88886       0   0.0 Hikianalia
  2021-07-13T07:17:38UTC 2021-07-12T21:17:38-10:00 2021-07-12T20:17:38-11:00  21.31311 -157.88862       0   0.0 Hōkūleʻa
  2021-07-13T07:10:48UTC 2021-07-12T21:10:48-10:00 2021-07-12T20:10:48-11:00  21.31303 -157.88886       0   0.0 Hikianalia
  2021-07-13T06:18:25UTC 2021-07-12T20:18:25-10:00 2021-07-12T19:18:25-11:00  21.31311 -157.88862       0   0.0 Hōkūleʻa
  2021-07-13T06:10:11UTC 2021-07-12T20:10:11-10:00 2021-07-12T19:10:11-11:00  21.31303 -157.88886       0   0.0 Hikianalia
  2021-07-13T05:18:30UTC 2021-07-12T19:18:30-10:00 2021-07-12T18:18:30-11:00  21.31311 -157.88862      65   0.0 Hōkūleʻa
  2021-07-13T05:10:51UTC 2021-07-12T19:10:51-10:00 2021-07-12T18:10:51-11:00  21.31303 -157.88886       0   0.0 Hikianalia
  2021-07-13T04:18:47UTC 2021-07-12T18:18:47-10:00 2021-07-12T17:18:47-11:00  21.31303 -157.88881     245   0.0 Hōkūleʻa
  2021-07-13T04:10:47UTC 2021-07-12T18:10:47-10:00 2021-07-12T17:10:47-11:00  21.31303 -157.88886       0   0.0 Hikianalia
  2021-07-13T03:17:32UTC 2021-07-12T17:17:32-10:00 2021-07-12T16:17:32-11:00  21.31311 -157.88862       0   0.0 Hōkūleʻa
  2021-07-13T03:17:18UTC 2021-07-12T17:17:18-10:00 2021-07-12T16:17:18-11:00  21.31303 -157.88886       0   0.0 Hikianalia
  2021-07-13T02:18:26UTC 2021-07-12T16:18:26-10:00 2021-07-12T15:18:26-11:00  21.31311 -157.88862      62   0.0 Hōkūleʻa
  2021-07-13T02:10:18UTC 2021-07-12T16:10:18-10:00 2021-07-12T15:10:18-11:00  21.31303 -157.88886       0   0.0 Hikianalia
  2021-07-13T01:17:24UTC 2021-07-12T15:17:24-10:00 2021-07-12T14:17:24-11:00  21.31303 -157.88879       0   0.0 Hōkūleʻa
  2021-07-13T01:09:46UTC 2021-07-12T15:09:46-10:00 2021-07-12T14:09:46-11:00  21.31303 -157.88886       0   0.0 Hikianalia
  2021-07-13T00:18:52UTC 2021-07-12T14:18:52-10:00 2021-07-12T13:18:52-11:00  21.31302 -157.88879     239   0.0 Hōkūleʻa
  2021-07-13T00:10:50UTC 2021-07-12T14:10:50-10:00 2021-07-12T13:10:50-11:00  21.31303 -157.88886       0   0.0 Hikianalia
  2021-07-12T23:18:22UTC 2021-07-12T13:18:22-10:00 2021-07-12T12:18:22-11:00  21.31311 -157.88862      59   0.0 Hōkūleʻa
  2021-07-12T23:10:44UTC 2021-07-12T13:10:44-10:00 2021-07-12T12:10:44-11:00  21.31303 -157.88886       0   0.0 Hikianalia
  2021-07-12T22:17:34UTC 2021-07-12T12:17:34-10:00 2021-07-12T11:17:34-11:00  21.31302 -157.88879     239   0.0 Hōkūleʻa
  2021-07-12T22:10:16UTC 2021-07-12T12:10:16-10:00 2021-07-12T11:10:16-11:00  21.31303 -157.88886     308   0.0 Hikianalia
  2021-07-12T21:18:34UTC 2021-07-12T11:18:34-10:00 2021-07-12T10:18:34-11:00  21.31311 -157.88862       0   0.0 Hōkūleʻa
  2021-07-12T21:10:46UTC 2021-07-12T11:10:46-10:00 2021-07-12T10:10:46-11:00  21.31296 -157.88877     128   0.0 Hikianalia
  2021-07-12T20:17:48UTC 2021-07-12T10:17:48-10:00 2021-07-12T09:17:48-11:00  21.31311 -157.88862       0   0.0 Hōkūleʻa
  2021-07-12T20:11:15UTC 2021-07-12T10:11:15-10:00 2021-07-12T09:11:15-11:00  21.31303 -157.88886       0   0.0 Hikianalia
  2021-07-12T19:17:46UTC 2021-07-12T09:17:46-10:00 2021-07-12T08:17:46-11:00  21.31303 -157.88886       0   0.0 Hikianalia
  2021-07-12T19:17:30UTC 2021-07-12T09:17:30-10:00 2021-07-12T08:17:30-11:00  21.31311 -157.88862       0   0.0 Hōkūleʻa
  2021-07-12T18:18:25UTC 2021-07-12T08:18:25-10:00 2021-07-12T07:18:25-11:00  21.31311 -157.88862       0   0.0 Hōkūleʻa
  2021-07-12T18:10:48UTC 2021-07-12T08:10:48-10:00 2021-07-12T07:10:48-11:00  21.31303 -157.88886       0   0.0 Hikianalia
  2021-07-12T17:17:22UTC 2021-07-12T07:17:22-10:00 2021-07-12T06:17:22-11:00  21.31311 -157.88862       0   0.0 Hōkūleʻa
  2021-07-12T17:10:48UTC 2021-07-12T07:10:48-10:00 2021-07-12T06:10:48-11:00  21.31303 -157.88886       0   0.0 Hikianalia
  2021-07-12T16:18:37UTC 2021-07-12T06:18:37-10:00 2021-07-12T05:18:37-11:00  21.31311 -157.88862       0   0.0 Hōkūleʻa
  2021-07-12T16:11:13UTC 2021-07-12T06:11:13-10:00 2021-07-12T05:11:13-11:00  21.31303 -157.88886       0   0.0 Hikianalia
  2021-07-12T15:18:25UTC 2021-07-12T05:18:25-10:00 2021-07-12T04:18:25-11:00  21.31311 -157.88862       0   0.0 Hōkūleʻa
  2021-07-12T15:10:47UTC 2021-07-12T05:10:47-10:00 2021-07-12T04:10:47-11:00  21.31303 -157.88886       0   0.0 Hikianalia
  2021-07-12T14:18:30UTC 2021-07-12T04:18:30-10:00 2021-07-12T03:18:30-11:00  21.31311 -157.88862       0   0.0 Hōkūleʻa
  2021-07-12T14:10:46UTC 2021-07-12T04:10:46-10:00 2021-07-12T03:10:46-11:00  21.31303 -157.88886       0   0.0 Hikianalia
  2021-07-12T13:18:34UTC 2021-07-12T03:18:34-10:00 2021-07-12T02:18:34-11:00  21.31311 -157.88862       0   0.0 Hōkūleʻa
  2021-07-12T13:10:48UTC 2021-07-12T03:10:48-10:00 2021-07-12T02:10:48-11:00  21.31303 -157.88886       0   0.0 Hikianalia
  2021-07-12T12:17:40UTC 2021-07-12T02:17:40-10:00 2021-07-12T01:17:40-11:00  21.31311 -157.88862       0   0.0 Hōkūleʻa
  2021-07-12T12:11:21UTC 2021-07-12T02:11:21-10:00 2021-07-12T01:11:21-11:00  21.31303 -157.88886       0   0.0 Hikianalia
  2021-07-12T11:18:31UTC 2021-07-12T01:18:31-10:00 2021-07-12T00:18:31-11:00  21.31311 -157.88862       0   0.0 Hōkūleʻa
  2021-07-12T11:10:42UTC 2021-07-12T01:10:42-10:00 2021-07-12T00:10:42-11:00  21.31303 -157.88886       0   0.0 Hikianalia
  2021-07-12T10:18:35UTC 2021-07-12T00:18:35-10:00 2021-07-11T23:18:35-11:00  21.31311 -157.88862       0   0.0 Hōkūleʻa
  2021-07-12T10:11:26UTC 2021-07-12T00:11:26-10:00 2021-07-11T23:11:26-11:00  21.31303 -157.88886       0   0.0 Hikianalia
  2021-07-12T09:18:31UTC 2021-07-11T23:18:31-10:00 2021-07-11T22:18:31-11:00  21.31311 -157.88862       0   0.0 Hōkūleʻa
  2021-07-12T09:10:45UTC 2021-07-11T23:10:45-10:00 2021-07-11T22:10:45-11:00  21.31303 -157.88886       0   0.0 Hikianalia
  2021-07-12T08:18:48UTC 2021-07-11T22:18:48-10:00 2021-07-11T21:18:48-11:00  21.31311 -157.88862       0   0.0 Hōkūleʻa
  2021-07-12T08:10:45UTC 2021-07-11T22:10:45-10:00 2021-07-11T21:10:45-11:00  21.31303 -157.88886       0   0.0 Hikianalia
  2021-07-12T07:18:32UTC 2021-07-11T21:18:32-10:00 2021-07-11T20:18:32-11:00  21.31311 -157.88862       0   0.0 Hōkūleʻa
  2021-07-12T07:11:08UTC 2021-07-11T21:11:08-10:00 2021-07-11T20:11:08-11:00  21.31303 -157.88886       0   0.0 Hikianalia
  2021-07-12T06:18:31UTC 2021-07-11T20:18:31-10:00 2021-07-11T19:18:31-11:00  21.31311 -157.88862       0   0.0 Hōkūleʻa
  2021-07-12T06:10:50UTC 2021-07-11T20:10:50-10:00 2021-07-11T19:10:50-11:00  21.31303 -157.88886     298   0.0 Hikianalia
  2021-07-12T05:18:26UTC 2021-07-11T19:18:26-10:00 2021-07-11T18:18:26-11:00  21.31311 -157.88862       0   0.0 Hōkūleʻa
  2021-07-12T05:10:47UTC 2021-07-11T19:10:47-10:00 2021-07-11T18:10:47-11:00  21.31295 -157.88871     118   0.0 Hikianalia
  2021-07-12T04:18:40UTC 2021-07-11T18:18:40-10:00 2021-07-11T17:18:40-11:00  21.31311 -157.88862       0   0.0 Hōkūleʻa
  2021-07-12T04:11:21UTC 2021-07-11T18:11:21-10:00 2021-07-11T17:11:21-11:00  21.31303 -157.88886       0   0.0 Hikianalia
  2021-07-12T03:17:40UTC 2021-07-11T17:17:40-10:00 2021-07-11T16:17:40-11:00  21.31311 -157.88862       0   0.0 Hōkūleʻa
  2021-07-12T03:10:46UTC 2021-07-11T17:10:46-10:00 2021-07-11T16:10:46-11:00  21.31303 -157.88886       0   0.0 Hikianalia
  2021-07-12T02:18:23UTC 2021-07-11T16:18:23-10:00 2021-07-11T15:18:23-11:00  21.31311 -157.88862      56   0.0 Hōkūleʻa
  2021-07-12T02:09:43UTC 2021-07-11T16:09:43-10:00 2021-07-11T15:09:43-11:00  21.31303 -157.88886       0   0.0 Hikianalia
  2021-07-12T01:17:26UTC 2021-07-11T15:17:26-10:00 2021-07-11T14:17:26-11:00  21.31300 -157.88879     180   0.0 Hōkūleʻa
  2021-07-12T01:10:39UTC 2021-07-11T15:10:39-10:00 2021-07-11T14:10:39-11:00  21.31303 -157.88886       0   0.0 Hikianalia
  2021-07-12T00:17:49UTC 2021-07-11T14:17:49-10:00 2021-07-11T13:17:49-11:00  21.31302 -157.88879     298   0.0 Hōkūleʻa
  2021-07-12T00:10:11UTC 2021-07-11T14:10:11-10:00 2021-07-11T13:10:11-11:00  21.31303 -157.88886       0   0.0 Hikianalia
  2021-07-11T23:17:31UTC 2021-07-11T13:17:31-10:00 2021-07-11T12:17:31-11:00  21.31300 -157.88877     232   0.0 Hōkūleʻa
  2021-07-11T23:10:51UTC 2021-07-11T13:10:51-10:00 2021-07-11T12:10:51-11:00  21.31303 -157.88886       0   0.0 Hikianalia
  2021-07-11T22:18:25UTC 2021-07-11T12:18:25-10:00 2021-07-11T11:18:25-11:00  21.31311 -157.88862      62   0.0 Hōkūleʻa
  2021-07-11T22:09:53UTC 2021-07-11T12:09:53-10:00 2021-07-11T11:09:53-11:00  21.31303 -157.88886       0   0.0 Hikianalia
  2021-07-11T21:17:34UTC 2021-07-11T11:17:34-10:00 2021-07-11T10:17:34-11:00  21.31302 -157.88881     242   0.0 Hōkūleʻa
  2021-07-11T21:10:10UTC 2021-07-11T11:10:10-10:00 2021-07-11T10:10:10-11:00  21.31303 -157.88886       0   0.0 Hikianalia
  2021-07-11T20:17:39UTC 2021-07-11T10:17:39-10:00 2021-07-11T09:17:39-11:00  21.31311 -157.88862      65   0.0 Hōkūleʻa
  2021-07-11T20:10:47UTC 2021-07-11T10:10:47-10:00 2021-07-11T09:10:47-11:00  21.31303 -157.88886       0   0.0 Hikianalia
  2021-07-11T19:18:36UTC 2021-07-11T09:18:36-10:00 2021-07-11T08:18:36-11:00  21.31303 -157.88881     245   0.0 Hōkūleʻa
  2021-07-11T19:10:07UTC 2021-07-11T09:10:07-10:00 2021-07-11T08:10:07-11:00  21.31303 -157.88886     260   0.0 Hikianalia
  2021-07-11T18:18:30UTC 2021-07-11T08:18:30-10:00 2021-07-11T07:18:30-11:00  21.31311 -157.88862       0   0.0 Hōkūleʻa
  2021-07-11T18:10:29UTC 2021-07-11T08:10:29-10:00 2021-07-11T07:10:29-11:00  21.31306 -157.88866      80   0.0 Hikianalia
  2021-07-11T17:18:29UTC 2021-07-11T07:18:29-10:00 2021-07-11T06:18:29-11:00  21.31311 -157.88862       0   0.0 Hōkūleʻa
  2021-07-11T17:10:44UTC 2021-07-11T07:10:44-10:00 2021-07-11T06:10:44-11:00  21.31303 -157.88886       0   0.0 Hikianalia
  2021-07-11T16:24:29UTC 2021-07-11T06:24:29-10:00 2021-07-11T05:24:29-11:00  21.31311 -157.88862       0   0.0 Hōkūleʻa
  2021-07-11T16:10:48UTC 2021-07-11T06:10:48-10:00 2021-07-11T05:10:48-11:00  21.31303 -157.88886       0   0.0 Hikianalia
  2021-07-11T15:18:26UTC 2021-07-11T05:18:26-10:00 2021-07-11T04:18:26-11:00  21.31311 -157.88862       0   0.0 Hōkūleʻa
  2021-07-11T15:10:39UTC 2021-07-11T05:10:39-10:00 2021-07-11T04:10:39-11:00  21.31303 -157.88886       0   0.0 Hikianalia
  2021-07-11T14:18:31UTC 2021-07-11T04:18:31-10:00 2021-07-11T03:18:31-11:00  21.31311 -157.88862       0   0.0 Hōkūleʻa
  2021-07-11T14:11:17UTC 2021-07-11T04:11:17-10:00 2021-07-11T03:11:17-11:00  21.31303 -157.88886       0   0.0 Hikianalia
  2021-07-11T13:18:34UTC 2021-07-11T03:18:34-10:00 2021-07-11T02:18:34-11:00  21.31311 -157.88862       0   0.0 Hōkūleʻa
  2021-07-11T13:10:49UTC 2021-07-11T03:10:49-10:00 2021-07-11T02:10:49-11:00  21.31303 -157.88886       0   0.0 Hikianalia
  2021-07-11T12:18:50UTC 2021-07-11T02:18:50-10:00 2021-07-11T01:18:50-11:00  21.31311 -157.88862       0   0.0 Hōkūleʻa
  2021-07-11T12:10:38UTC 2021-07-11T02:10:38-10:00 2021-07-11T01:10:38-11:00  21.31303 -157.88886       0   0.0 Hikianalia
  2021-07-11T11:18:36UTC 2021-07-11T01:18:36-10:00 2021-07-11T00:18:36-11:00  21.31311 -157.88862      59   0.0 Hōkūleʻa
  2021-07-11T11:10:45UTC 2021-07-11T01:10:45-10:00 2021-07-11T00:10:45-11:00  21.31303 -157.88886       0   0.0 Hikianalia
  2021-07-11T10:18:34UTC 2021-07-11T00:18:34-10:00 2021-07-10T23:18:34-11:00  21.31302 -157.88879     239   0.0 Hōkūleʻa
  2021-07-11T10:11:15UTC 2021-07-11T00:11:15-10:00 2021-07-10T23:11:15-11:00  21.31303 -157.88886       0   0.0 Hikianalia
  2021-07-11T09:18:25UTC 2021-07-10T23:18:25-10:00 2021-07-10T22:18:25-11:00  21.31311 -157.88862       0   0.0 Hōkūleʻa
  2021-07-11T09:10:39UTC 2021-07-10T23:10:39-10:00 2021-07-10T22:10:39-11:00  21.31303 -157.88886       0   0.0 Hikianalia
  2021-07-11T08:18:48UTC 2021-07-10T22:18:48-10:00 2021-07-10T21:18:48-11:00  21.31311 -157.88862       0   0.0 Hōkūleʻa
  2021-07-11T08:11:16UTC 2021-07-10T22:11:16-10:00 2021-07-10T21:11:16-11:00  21.31303 -157.88886       0   0.0 Hikianalia
  2021-07-11T07:17:28UTC 2021-07-10T21:17:28-10:00 2021-07-10T20:17:28-11:00  21.31311 -157.88862       0   0.0 Hōkūleʻa
  2021-07-11T07:10:47UTC 2021-07-10T21:10:47-10:00 2021-07-10T20:10:47-11:00  21.31303 -157.88886       0   0.0 Hikianalia
  2021-07-11T06:18:25UTC 2021-07-10T20:18:25-10:00 2021-07-10T19:18:25-11:00  21.31311 -157.88862       0   0.0 Hōkūleʻa
  2021-07-11T06:09:47UTC 2021-07-10T20:09:47-10:00 2021-07-10T19:09:47-11:00  21.31303 -157.88886       0   0.0 Hikianalia
  2021-07-11T05:18:40UTC 2021-07-10T19:18:40-10:00 2021-07-10T18:18:40-11:00  21.31311 -157.88862       0   0.0 Hōkūleʻa
  2021-07-11T05:10:37UTC 2021-07-10T19:10:37-10:00 2021-07-10T18:10:37-11:00  21.31303 -157.88886       0   0.0 Hikianalia
  2021-07-11T04:17:41UTC 2021-07-10T18:17:41-10:00 2021-07-10T17:17:41-11:00  21.31311 -157.88862       0   0.0 Hōkūleʻa
  2021-07-11T04:11:18UTC 2021-07-10T18:11:18-10:00 2021-07-10T17:11:18-11:00  21.31303 -157.88886      47   0.0 Hikianalia
  2021-07-11T03:18:31UTC 2021-07-10T17:18:31-10:00 2021-07-10T16:18:31-11:00  21.31311 -157.88862      55   0.0 Hōkūleʻa
  2021-07-11T03:10:47UTC 2021-07-10T17:10:47-10:00 2021-07-10T16:10:47-11:00  21.31295 -157.88894     263   0.0 Hikianalia
  2021-07-11T02:17:36UTC 2021-07-10T16:17:36-10:00 2021-07-10T15:17:36-11:00  21.31302 -157.88877     105   0.0 Hōkūleʻa
  2021-07-11T02:10:54UTC 2021-07-10T16:10:54-10:00 2021-07-10T15:10:54-11:00  21.31298 -157.88866     103   0.0 Hikianalia
  2021-07-11T01:18:33UTC 2021-07-10T15:18:33-10:00 2021-07-10T14:18:33-11:00  21.31303 -157.88881     245   0.0 Hōkūleʻa
  2021-07-11T01:10:18UTC 2021-07-10T15:10:18-10:00 2021-07-10T14:10:18-11:00  21.31303 -157.88886       0   0.0 Hikianalia
  2021-07-11T00:18:03UTC 2021-07-10T14:18:03-10:00 2021-07-10T13:18:03-11:00  21.31311 -157.88862       0   0.0 Hōkūleʻa
  2021-07-11T00:10:36UTC 2021-07-10T14:10:36-10:00 2021-07-10T13:10:36-11:00  21.31303 -157.88886       0   0.0 Hikianalia
  2021-07-10T23:18:28UTC 2021-07-10T13:18:28-10:00 2021-07-10T12:18:28-11:00  21.31311 -157.88862       0   0.0 Hōkūleʻa
  2021-07-10T23:10:48UTC 2021-07-10T13:10:48-10:00 2021-07-10T12:10:48-11:00  21.31303 -157.88886       0   0.0 Hikianalia
  2021-07-10T22:17:33UTC 2021-07-10T12:17:33-10:00 2021-07-10T11:17:33-11:00  21.31311 -157.88862       0   0.0 Hōkūleʻa
  2021-07-10T22:10:16UTC 2021-07-10T12:10:16-10:00 2021-07-10T11:10:16-11:00  21.31303 -157.88886       0   0.0 Hikianalia
  2021-07-10T21:18:33UTC 2021-07-10T11:18:33-10:00 2021-07-10T10:18:33-11:00  21.31311 -157.88862      56   0.0 Hōkūleʻa
  2021-07-10T21:10:17UTC 2021-07-10T11:10:17-10:00 2021-07-10T10:10:17-11:00  21.31303 -157.88886       0   0.0 Hikianalia
  2021-07-10T20:19:06UTC 2021-07-10T10:19:06-10:00 2021-07-10T09:19:06-11:00  21.31300 -157.88879     223   0.0 Hōkūleʻa
  2021-07-10T20:10:49UTC 2021-07-10T10:10:49-10:00 2021-07-10T09:10:49-11:00  21.31303 -157.88886       0   0.0 Hikianalia
  2021-07-10T19:17:36UTC 2021-07-10T09:17:36-10:00 2021-07-10T08:17:36-11:00  21.31305 -157.88875     238   0.0 Hōkūleʻa
  2021-07-10T19:10:49UTC 2021-07-10T09:10:49-10:00 2021-07-10T08:10:49-11:00  21.31303 -157.88886     119   0.0 Hikianalia
  2021-07-10T18:18:31UTC 2021-07-10T08:18:31-10:00 2021-07-10T07:18:31-11:00  21.31312 -157.88862     180   0.0 Hōkūleʻa
  2021-07-10T18:10:30UTC 2021-07-10T08:10:30-10:00 2021-07-10T07:10:30-11:00  21.31304 -157.88888       0   0.0 Hikianalia
  2021-07-10T17:18:24UTC 2021-07-10T07:18:24-10:00 2021-07-10T06:18:24-11:00  21.31313 -157.88862       0   0.0 Hōkūleʻa
  2021-07-10T17:10:44UTC 2021-07-10T07:10:44-10:00 2021-07-10T06:10:44-11:00  21.31302 -157.88888      32   0.0 Hikianalia
  2021-07-10T16:30:10UTC 2021-07-10T06:30:10-10:00 2021-07-10T05:30:10-11:00  21.31313 -157.88862      63   0.0 Hōkūleʻa
  2021-07-10T16:10:49UTC 2021-07-10T06:10:49-10:00 2021-07-10T05:10:49-11:00  21.31292 -157.88894     216   0.0 Hikianalia
  2021-07-10T15:18:32UTC 2021-07-10T05:18:32-10:00 2021-07-10T04:18:32-11:00  21.31312 -157.88864     180   0.0 Hōkūleʻa
  2021-07-10T15:10:48UTC 2021-07-10T05:10:48-10:00 2021-07-10T04:10:48-11:00  21.31300 -157.88888     241   0.0 Hikianalia
  2021-07-10T14:18:23UTC 2021-07-10T04:18:23-10:00 2021-07-10T03:18:23-11:00  21.31313 -157.88864     270   0.0 Hōkūleʻa
  2021-07-10T14:11:45UTC 2021-07-10T04:11:45-10:00 2021-07-10T03:11:45-11:00  21.31303 -157.88883     180   0.0 Hikianalia
  2021-07-10T13:18:34UTC 2021-07-10T03:18:34-10:00 2021-07-10T02:18:34-11:00  21.31313 -157.88862     180   0.0 Hōkūleʻa
  2021-07-10T13:10:40UTC 2021-07-10T03:10:40-10:00 2021-07-10T02:10:40-11:00  21.31304 -157.88883       0   0.0 Hikianalia
  2021-07-10T12:19:16UTC 2021-07-10T02:19:16-10:00 2021-07-10T01:19:16-11:00  21.31314 -157.88862     317   0.0 Hōkūleʻa
  2021-07-10T12:11:20UTC 2021-07-10T02:11:20-10:00 2021-07-10T01:11:20-11:00  21.31302 -157.88883     118   0.0 Hikianalia
  2021-07-10T11:18:39UTC 2021-07-10T01:18:39-10:00 2021-07-10T00:18:39-11:00  21.31310 -157.88858     137   0.0 Hōkūleʻa
  2021-07-10T11:10:54UTC 2021-07-10T01:10:54-10:00 2021-07-10T00:10:54-11:00  21.31303 -157.88886       0   0.0 Hikianalia
  2021-07-10T10:17:24UTC 2021-07-10T00:17:24-10:00 2021-07-09T23:17:24-11:00  21.31314 -157.88862       0   0.0 Hōkūleʻa
  2021-07-10T10:09:46UTC 2021-07-10T00:09:46-10:00 2021-07-09T23:09:46-11:00  21.31303 -157.88886       0   0.0 Hikianalia
  2021-07-10T09:18:25UTC 2021-07-09T23:18:25-10:00 2021-07-09T22:18:25-11:00  21.31313 -157.88862       0   0.0 Hōkūleʻa
  2021-07-10T09:10:39UTC 2021-07-09T23:10:39-10:00 2021-07-09T22:10:39-11:00  21.31303 -157.88886     317   0.0 Hikianalia
  2021-07-10T08:18:48UTC 2021-07-09T22:18:48-10:00 2021-07-09T21:18:48-11:00  21.31312 -157.88862     180   0.0 Hōkūleʻa
  2021-07-10T08:11:17UTC 2021-07-09T22:11:17-10:00 2021-07-09T21:11:17-11:00  21.31300 -157.88883     137   0.0 Hikianalia
  2021-07-10T07:18:37UTC 2021-07-09T21:18:37-10:00 2021-07-09T20:18:37-11:00  21.31313 -157.88862       0   0.0 Hōkūleʻa
  2021-07-10T07:10:51UTC 2021-07-09T21:10:51-10:00 2021-07-09T20:10:51-11:00  21.31303 -157.88886       0   0.0 Hikianalia
  2021-07-10T06:18:36UTC 2021-07-09T20:18:36-10:00 2021-07-09T19:18:36-11:00  21.31312 -157.88862       0   0.0 Hōkūleʻa
  2021-07-10T06:10:48UTC 2021-07-09T20:10:48-10:00 2021-07-09T19:10:48-11:00  21.31303 -157.88886     174   0.0 Hikianalia
  2021-07-10T05:18:20UTC 2021-07-09T19:18:20-10:00 2021-07-09T18:18:20-11:00  21.31311 -157.88862     155   0.0 Hōkūleʻa
  2021-07-10T05:10:41UTC 2021-07-09T19:10:41-10:00 2021-07-09T18:10:41-11:00  21.31321 -157.88888     354   0.0 Hikianalia
  2021-07-10T04:21:12UTC 2021-07-09T18:21:12-10:00 2021-07-09T17:21:12-11:00  21.31303 -157.88886       0   0.0 Hikianalia
  2021-07-10T04:18:48UTC 2021-07-09T18:18:48-10:00 2021-07-09T17:18:48-11:00  21.31315 -157.88864     335   0.0 Hōkūleʻa
  2021-07-10T03:17:27UTC 2021-07-09T17:17:27-10:00 2021-07-09T16:17:27-11:00  21.31311 -157.88862       0   0.0 Hōkūleʻa
  2021-07-10T03:10:45UTC 2021-07-09T17:10:45-10:00 2021-07-09T16:10:45-11:00  21.31303 -157.88886     301   0.0 Hikianalia
  2021-07-10T02:18:19UTC 2021-07-09T16:18:19-10:00 2021-07-09T15:18:19-11:00  21.31311 -157.88862     180   0.0 Hōkūleʻa
  2021-07-10T02:09:49UTC 2021-07-09T16:09:49-10:00 2021-07-09T15:09:49-11:00  21.31294 -157.88871     121   0.0 Hikianalia
  2021-07-10T01:17:53UTC 2021-07-09T15:17:53-10:00 2021-07-09T14:17:53-11:00  21.31314 -157.88862       0   0.0 Hōkūleʻa
  2021-07-10T01:10:40UTC 2021-07-09T15:10:40-10:00 2021-07-09T14:10:40-11:00  21.31303 -157.88886     317   0.0 Hikianalia
  2021-07-10T00:17:33UTC 2021-07-09T14:17:33-10:00 2021-07-09T13:17:33-11:00  21.31311 -157.88862       0   0.0 Hōkūleʻa
  2021-07-10T00:10:13UTC 2021-07-09T14:10:13-10:00 2021-07-09T13:10:13-11:00  21.31300 -157.88883     180   0.0 Hikianalia
  2021-07-09T23:18:19UTC 2021-07-09T13:18:19-10:00 2021-07-09T12:18:19-11:00  21.31311 -157.88862     180   0.0 Hōkūleʻa
  2021-07-09T23:10:10UTC 2021-07-09T13:10:10-10:00 2021-07-09T12:10:10-11:00  21.31302 -157.88883      33   0.0 Hikianalia
  2021-07-09T22:17:50UTC 2021-07-09T12:17:50-10:00 2021-07-09T11:17:50-11:00  21.31315 -157.88862       0   0.0 Hōkūleʻa
  2021-07-09T22:09:42UTC 2021-07-09T12:09:42-10:00 2021-07-09T11:09:42-11:00  21.31298 -157.88886      43   0.0 Hikianalia
  2021-07-09T21:18:33UTC 2021-07-09T11:18:33-10:00 2021-07-09T10:18:33-11:00  21.31311 -157.88862     131   0.0 Hōkūleʻa
  2021-07-09T21:10:48UTC 2021-07-09T11:10:48-10:00 2021-07-09T10:10:48-11:00  21.31296 -157.88888     224   0.0 Hikianalia
  2021-07-09T20:17:30UTC 2021-07-09T10:17:30-10:00 2021-07-09T09:17:30-11:00  21.31320 -157.88873     317   0.0 Hōkūleʻa
  2021-07-09T20:10:41UTC 2021-07-09T10:10:41-10:00 2021-07-09T09:10:41-11:00  21.31300 -157.88883     180   0.0 Hikianalia
  2021-07-09T19:18:19UTC 2021-07-09T09:18:19-10:00 2021-07-09T08:18:19-11:00  21.31311 -157.88864     241   0.0 Hōkūleʻa
  2021-07-09T19:10:08UTC 2021-07-09T09:10:08-10:00 2021-07-09T08:10:08-11:00  21.31304 -157.88883      26   0.0 Hikianalia
  2021-07-09T18:17:47UTC 2021-07-09T08:17:47-10:00 2021-07-09T07:17:47-11:00  21.31312 -157.88862       0   0.0 Hōkūleʻa
  2021-07-09T18:10:39UTC 2021-07-09T08:10:39-10:00 2021-07-09T07:10:39-11:00  21.31299 -157.88886     201   0.0 Hikianalia
  2021-07-09T17:18:22UTC 2021-07-09T07:18:22-10:00 2021-07-09T06:18:22-11:00  21.31311 -157.88862       0   0.0 Hōkūleʻa
  2021-07-09T17:10:01UTC 2021-07-09T07:10:01-10:00 2021-07-09T06:10:01-11:00  21.31305 -157.88883      43   0.0 Hikianalia
  2021-07-09T16:18:28UTC 2021-07-09T06:18:28-10:00 2021-07-09T05:18:28-11:00  21.31311 -157.88862     180   0.0 Hōkūleʻa
  2021-07-09T16:11:08UTC 2021-07-09T06:11:08-10:00 2021-07-09T05:11:08-11:00  21.31300 -157.88888     279   0.0 Hikianalia
  2021-07-09T15:18:51UTC 2021-07-09T05:18:51-10:00 2021-07-09T04:18:51-11:00  21.31312 -157.88862     132   0.1 Hōkūleʻa
  2021-07-09T15:10:47UTC 2021-07-09T05:10:47-10:00 2021-07-09T04:10:47-11:00  21.31299 -157.88881      42   0.0 Hikianalia
  2021-07-09T14:18:26UTC 2021-07-09T04:18:26-10:00 2021-07-09T03:18:26-11:00  21.31461 -157.89040     315   0.1 Hōkūleʻa
  2021-07-09T14:10:36UTC 2021-07-09T04:10:36-10:00 2021-07-09T03:10:36-11:00  21.31297 -157.88883     180   0.0 Hikianalia
  2021-07-09T13:18:27UTC 2021-07-09T03:18:27-10:00 2021-07-09T02:18:27-11:00  21.31300 -157.88868     205   0.0 Hōkūleʻa
  2021-07-09T13:09:40UTC 2021-07-09T03:09:40-10:00 2021-07-09T02:09:40-11:00  21.31299 -157.88883     116   0.0 Hikianalia
  2021-07-09T12:18:48UTC 2021-07-09T02:18:48-10:00 2021-07-09T01:18:48-11:00  21.31313 -157.88862     325   0.0 Hōkūleʻa
  2021-07-09T12:11:10UTC 2021-07-09T02:11:10-10:00 2021-07-09T01:11:10-11:00  21.31300 -157.88886     129   0.0 Hikianalia
  2021-07-09T11:18:21UTC 2021-07-09T01:18:21-10:00 2021-07-09T00:18:21-11:00  21.31305 -157.88856     142   0.0 Hōkūleʻa
  2021-07-09T11:11:42UTC 2021-07-09T01:11:42-10:00 2021-07-09T00:11:42-11:00  21.31310 -157.88898     307   0.0 Hikianalia
  2021-07-09T10:18:26UTC 2021-07-09T00:18:26-10:00 2021-07-08T23:18:26-11:00  21.31312 -157.88862       0   0.0 Hōkūleʻa
  2021-07-09T10:10:49UTC 2021-07-09T00:10:49-10:00 2021-07-08T23:10:49-11:00  21.31303 -157.88888     232   0.0 Hikianalia
  2021-07-09T09:18:25UTC 2021-07-08T23:18:25-10:00 2021-07-08T22:18:25-11:00  21.31312 -157.88862     270   0.0 Hōkūleʻa
  2021-07-09T09:10:16UTC 2021-07-08T23:10:16-10:00 2021-07-08T22:10:16-11:00  21.31306 -157.88883      33   0.0 Hikianalia
  2021-07-09T08:17:45UTC 2021-07-08T22:17:45-10:00 2021-07-08T21:17:45-11:00  21.31312 -157.88860     136   0.0 Hōkūleʻa
  2021-07-09T08:10:38UTC 2021-07-08T22:10:38-10:00 2021-07-08T21:10:38-11:00  21.31303 -157.88886       0   0.0 Hikianalia
  2021-07-09T07:27:25UTC 2021-07-08T21:27:25-10:00 2021-07-08T20:27:25-11:00  21.31319 -157.88866     208   0.0 Hōkūleʻa
  2021-07-09T07:09:41UTC 2021-07-08T21:09:41-10:00 2021-07-08T20:09:41-11:00  21.31303 -157.88886     298   0.0 Hikianalia
  2021-07-09T06:18:26UTC 2021-07-08T20:18:26-10:00 2021-07-08T19:18:26-11:00  21.31326 -157.88862      40   0.0 Hōkūleʻa
  2021-07-09T06:11:10UTC 2021-07-08T20:11:10-10:00 2021-07-08T19:11:10-11:00  21.31302 -157.88883     118   0.0 Hikianalia
  2021-07-09T05:18:28UTC 2021-07-08T19:18:28-10:00 2021-07-08T18:18:28-11:00  21.31317 -157.88871     285   0.0 Hōkūleʻa
  2021-07-09T05:10:45UTC 2021-07-08T19:10:45-10:00 2021-07-08T18:10:45-11:00  21.31303 -157.88886     319   0.0 Hikianalia
  2021-07-09T04:18:40UTC 2021-07-08T18:18:40-10:00 2021-07-08T17:18:40-11:00  21.31314 -157.88862      32   0.0 Hōkūleʻa
  2021-07-09T04:10:48UTC 2021-07-08T18:10:48-10:00 2021-07-08T17:10:48-11:00  21.31289 -157.88873     131   0.0 Hikianalia
  2021-07-09T03:17:41UTC 2021-07-08T17:17:41-10:00 2021-07-08T16:17:41-11:00  21.31311 -157.88864     229   0.0 Hōkūleʻa
  2021-07-09T03:10:46UTC 2021-07-08T17:10:46-10:00 2021-07-08T16:10:46-11:00  21.31297 -157.88883     180   0.0 Hikianalia
  2021-07-09T02:18:23UTC 2021-07-08T16:18:23-10:00 2021-07-08T15:18:23-11:00  21.31317 -157.88858      75   0.0 Hōkūleʻa
  2021-07-09T02:10:19UTC 2021-07-08T16:10:19-10:00 2021-07-08T15:10:19-11:00  21.31300 -157.88883     143   0.0 Hikianalia
  2021-07-09T01:17:27UTC 2021-07-08T15:17:27-10:00 2021-07-08T14:17:27-11:00  21.31314 -157.88866     289   0.0 Hōkūleʻa
  2021-07-09T01:09:51UTC 2021-07-08T15:09:51-10:00 2021-07-08T14:09:51-11:00  21.31306 -157.88888       0   0.0 Hikianalia
  2021-07-09T00:17:50UTC 2021-07-08T14:17:50-10:00 2021-07-08T13:17:50-11:00  21.31312 -157.88860     148   0.0 Hōkūleʻa
  2021-07-09T00:10:47UTC 2021-07-08T14:10:47-10:00 2021-07-08T13:10:47-11:00  21.31306 -157.88888     328   0.0 Hikianalia
  2021-07-08T23:17:20UTC 2021-07-08T13:17:20-10:00 2021-07-08T12:17:20-11:00  21.31319 -157.88864       0   0.0 Hōkūleʻa
  2021-07-08T23:09:45UTC 2021-07-08T13:09:45-10:00 2021-07-08T12:09:45-11:00  21.31299 -157.88883     180   0.0 Hikianalia
  2021-07-08T22:18:26UTC 2021-07-08T12:18:26-10:00 2021-07-08T11:18:26-11:00  21.31311 -157.88864     241   0.0 Hōkūleʻa
  2021-07-08T22:10:19UTC 2021-07-08T12:10:19-10:00 2021-07-08T11:10:19-11:00  21.31302 -157.88883     335   0.0 Hikianalia
  2021-07-08T21:24:46UTC 2021-07-08T11:24:46-10:00 2021-07-08T10:24:46-11:00  21.31312 -157.88862     215   0.0 Hōkūleʻa
  2021-07-08T21:11:06UTC 2021-07-08T11:11:06-10:00 2021-07-08T10:11:06-11:00  21.31297 -157.88881     132   0.0 Hikianalia
  2021-07-08T20:17:31UTC 2021-07-08T10:17:31-10:00 2021-07-08T09:17:31-11:00  21.31321 -157.88856      62   0.0 Hōkūleʻa
  2021-07-08T20:09:48UTC 2021-07-08T10:09:48-10:00 2021-07-08T09:09:48-11:00  21.31303 -157.88888     308   0.0 Hikianalia
  2021-07-08T19:18:28UTC 2021-07-08T09:18:28-10:00 2021-07-08T08:18:28-11:00  21.31315 -157.88866     308   0.0 Hōkūleʻa
  2021-07-08T19:11:20UTC 2021-07-08T09:11:20-10:00 2021-07-08T08:11:20-11:00  21.31299 -157.88883      90   0.0 Hikianalia
  2021-07-08T18:18:47UTC 2021-07-08T08:18:47-10:00 2021-07-08T07:18:47-11:00  21.31312 -157.88862       0   0.0 Hōkūleʻa
  2021-07-08T18:09:47UTC 2021-07-08T08:09:47-10:00 2021-07-08T07:09:47-11:00  21.31299 -157.88886     118   0.0 Hikianalia
  2021-07-08T17:17:29UTC 2021-07-08T07:17:29-10:00 2021-07-08T06:17:29-11:00  21.31311 -157.88862     327   0.0 Hōkūleʻa
  2021-07-08T17:10:36UTC 2021-07-08T07:10:36-10:00 2021-07-08T06:10:36-11:00  21.31302 -157.88890     262   0.0 Hikianalia
  2021-07-08T16:18:18UTC 2021-07-08T06:18:18-10:00 2021-07-08T05:18:18-11:00  21.31308 -157.88860     162   0.0 Hōkūleʻa
  2021-07-08T16:11:16UTC 2021-07-08T06:11:16-10:00 2021-07-08T05:11:16-11:00  21.31303 -157.88881      90   0.0 Hikianalia
  2021-07-08T15:18:42UTC 2021-07-08T05:18:42-10:00 2021-07-08T04:18:42-11:00  21.31314 -157.88862      61   0.0 Hōkūleʻa
  2021-07-08T15:10:10UTC 2021-07-08T05:10:10-10:00 2021-07-08T04:10:10-11:00  21.31303 -157.88886       0   0.0 Hikianalia
  2021-07-08T14:18:29UTC 2021-07-08T04:18:29-10:00 2021-07-08T03:18:29-11:00  21.31313 -157.88864     270   0.0 Hōkūleʻa
  2021-07-08T14:10:37UTC 2021-07-08T04:10:37-10:00 2021-07-08T03:10:37-11:00  21.31302 -157.88886     242   0.0 Hikianalia
  2021-07-08T13:18:29UTC 2021-07-08T03:18:29-10:00 2021-07-08T02:18:29-11:00  21.31313 -157.88862       0   0.0 Hōkūleʻa
  2021-07-08T13:10:48UTC 2021-07-08T03:10:48-10:00 2021-07-08T02:10:48-11:00  21.31303 -157.88883       0   0.0 Hikianalia
  2021-07-08T12:18:50UTC 2021-07-08T02:18:50-10:00 2021-07-08T01:18:50-11:00  21.31312 -157.88862      90   0.0 Hōkūleʻa
  2021-07-08T12:11:10UTC 2021-07-08T02:11:10-10:00 2021-07-08T01:11:10-11:00  21.31300 -157.88883     180   0.0 Hikianalia
  2021-07-08T11:18:28UTC 2021-07-08T01:18:28-10:00 2021-07-08T00:18:28-11:00  21.31312 -157.88866     270   0.0 Hōkūleʻa
  2021-07-08T11:11:19UTC 2021-07-08T01:11:19-10:00 2021-07-08T00:11:19-11:00  21.31302 -157.88883      80   0.0 Hikianalia
  2021-07-08T10:18:22UTC 2021-07-08T00:18:22-10:00 2021-07-07T23:18:22-11:00  21.31312 -157.88860     116   0.0 Hōkūleʻa
  2021-07-08T10:10:48UTC 2021-07-08T00:10:48-10:00 2021-07-07T23:10:48-11:00  21.31300 -157.88890     192   0.0 Hikianalia
  2021-07-08T09:18:51UTC 2021-07-07T23:18:51-10:00 2021-07-07T22:18:51-11:00  21.31313 -157.88862     296   0.0 Hōkūleʻa
  2021-07-08T09:10:39UTC 2021-07-07T23:10:39-10:00 2021-07-07T22:10:39-11:00  21.31310 -157.88888     337   0.0 Hikianalia
  2021-07-08T08:28:16UTC 2021-07-07T22:28:16-10:00 2021-07-07T21:28:16-11:00  21.31312 -157.88860     252   0.1 Hōkūleʻa
  2021-07-08T08:11:09UTC 2021-07-07T22:11:09-10:00 2021-07-07T21:11:09-11:00  21.31300 -157.88883     260   0.0 Hikianalia
  2021-07-08T07:18:28UTC 2021-07-07T21:18:28-10:00 2021-07-07T20:18:28-11:00  21.31378 -157.88645      72   0.1 Hōkūleʻa
  2021-07-08T07:10:47UTC 2021-07-07T21:10:47-10:00 2021-07-07T20:10:47-11:00  21.31302 -157.88877     113   0.0 Hikianalia
  2021-07-08T06:18:43UTC 2021-07-07T20:18:43-10:00 2021-07-07T19:18:43-11:00  21.31311 -157.88862     224   0.1 Hōkūleʻa
  2021-07-08T06:10:48UTC 2021-07-07T20:10:48-10:00 2021-07-07T19:10:48-11:00  21.31306 -157.88888     308   0.0 Hikianalia
  2021-07-08T05:18:23UTC 2021-07-07T19:18:23-10:00 2021-07-07T18:18:23-11:00  21.31457 -157.88714      44   0.1 Hōkūleʻa
  2021-07-08T05:10:18UTC 2021-07-07T19:10:18-10:00 2021-07-07T18:10:18-11:00  21.31303 -157.88883      90   0.0 Hikianalia
  2021-07-08T04:17:28UTC 2021-07-07T18:17:28-10:00 2021-07-07T17:17:28-11:00  21.31311 -157.88862     180   0.0 Hōkūleʻa
  2021-07-08T04:10:42UTC 2021-07-07T18:10:42-10:00 2021-07-07T17:10:42-11:00  21.31303 -157.88886       0   0.0 Hikianalia
  2021-07-08T03:18:18UTC 2021-07-07T17:18:18-10:00 2021-07-07T16:18:18-11:00  21.31313 -157.88862       0   0.0 Hōkūleʻa
  2021-07-08T03:10:47UTC 2021-07-07T17:10:47-10:00 2021-07-07T16:10:47-11:00  21.31303 -157.88886     270   0.0 Hikianalia
  2021-07-08T02:18:49UTC 2021-07-07T16:18:49-10:00 2021-07-07T15:18:49-11:00  21.31313 -157.88862       0   0.0 Hōkūleʻa
  2021-07-08T02:10:17UTC 2021-07-07T16:10:17-10:00 2021-07-07T15:10:17-11:00  21.31303 -157.88883      90   0.0 Hikianalia
  2021-07-08T01:17:26UTC 2021-07-07T15:17:26-10:00 2021-07-07T14:17:26-11:00  21.31311 -157.88862       0   0.0 Hōkūleʻa
  2021-07-08T01:10:52UTC 2021-07-07T15:10:52-10:00 2021-07-07T14:10:52-11:00  21.31303 -157.88886       0   0.0 Hikianalia
  2021-07-08T00:18:36UTC 2021-07-07T14:18:36-10:00 2021-07-07T13:18:36-11:00  21.31311 -157.88862       0   0.0 Hōkūleʻa
  2021-07-08T00:10:50UTC 2021-07-07T14:10:50-10:00 2021-07-07T13:10:50-11:00  21.31303 -157.88886       0   0.0 Hikianalia
  2021-07-07T23:17:28UTC 2021-07-07T13:17:28-10:00 2021-07-07T12:17:28-11:00  21.31311 -157.88862     180   0.0 Hōkūleʻa
  2021-07-07T23:09:44UTC 2021-07-07T13:09:44-10:00 2021-07-07T12:09:44-11:00  21.31303 -157.88886     298   0.0 Hikianalia
  2021-07-07T22:17:46UTC 2021-07-07T12:17:46-10:00 2021-07-07T11:17:46-11:00  21.31314 -157.88862       0   0.0 Hōkūleʻa
  2021-07-07T22:10:21UTC 2021-07-07T12:10:21-10:00 2021-07-07T11:10:21-11:00  21.31302 -157.88883     118   0.0 Hikianalia
  2021-07-07T21:18:17UTC 2021-07-07T11:18:17-10:00 2021-07-07T10:18:17-11:00  21.31311 -157.88862     148   0.0 Hōkūleʻa
  2021-07-07T21:10:59UTC 2021-07-07T11:10:59-10:00 2021-07-07T10:10:59-11:00  21.31303 -157.88886      90   0.0 Hikianalia
  2021-07-07T20:17:29UTC 2021-07-07T10:17:29-10:00 2021-07-07T09:17:29-11:00  21.31318 -157.88866     328   0.0 Hōkūleʻa
  2021-07-07T20:09:43UTC 2021-07-07T10:09:43-10:00 2021-07-07T09:09:43-11:00  21.31303 -157.88890     270   0.0 Hikianalia
  2021-07-07T19:18:26UTC 2021-07-07T09:18:26-10:00 2021-07-07T08:18:26-11:00  21.31311 -157.88862     180   0.0 Hōkūleʻa
  2021-07-07T19:10:48UTC 2021-07-07T09:10:48-10:00 2021-07-07T08:10:48-11:00  21.31303 -157.88883       0   0.0 Hikianalia
  2021-07-07T18:17:48UTC 2021-07-07T08:17:48-10:00 2021-07-07T07:17:48-11:00  21.31312 -157.88862      85   0.0 Hōkūleʻa
  2021-07-07T18:10:19UTC 2021-07-07T08:10:19-10:00 2021-07-07T07:10:19-11:00  21.31300 -157.88883     180   0.0 Hikianalia
  2021-07-07T17:18:21UTC 2021-07-07T07:18:21-10:00 2021-07-07T06:18:21-11:00  21.31311 -157.88875     270   0.0 Hōkūleʻa
  2021-07-07T17:10:41UTC 2021-07-07T07:10:41-10:00 2021-07-07T06:10:41-11:00  21.31304 -157.88883      61   0.0 Hikianalia
  2021-07-07T16:18:26UTC 2021-07-07T06:18:26-10:00 2021-07-07T05:18:26-11:00  21.31311 -157.88862     242   0.0 Hōkūleʻa
  2021-07-07T16:10:40UTC 2021-07-07T06:10:40-10:00 2021-07-07T05:10:40-11:00  21.31302 -157.88888       0   0.0 Hikianalia
  2021-07-07T15:18:28UTC 2021-07-07T05:18:28-10:00 2021-07-07T04:18:28-11:00  21.31314 -157.88856      80   0.0 Hōkūleʻa
  2021-07-07T15:10:46UTC 2021-07-07T05:10:46-10:00 2021-07-07T04:10:46-11:00  21.31299 -157.88888     243   0.0 Hikianalia
  2021-07-07T14:18:40UTC 2021-07-07T04:18:40-10:00 2021-07-07T03:18:40-11:00  21.31313 -157.88862       0   0.0 Hōkūleʻa
  2021-07-07T14:11:29UTC 2021-07-07T04:11:29-10:00 2021-07-07T03:11:29-11:00  21.31300 -157.88886     160   0.0 Hikianalia
  2021-07-07T13:18:20UTC 2021-07-07T03:18:20-10:00 2021-07-07T02:18:20-11:00  21.31311 -157.88862       0   0.0 Hōkūleʻa
  2021-07-07T13:10:39UTC 2021-07-07T03:10:39-10:00 2021-07-07T02:10:39-11:00  21.31306 -157.88888       0   0.0 Hikianalia
  2021-07-07T12:18:27UTC 2021-07-07T02:18:27-10:00 2021-07-07T01:18:27-11:00  21.31311 -157.88862     180   0.0 Hōkūleʻa
  2021-07-07T12:09:38UTC 2021-07-07T02:09:38-10:00 2021-07-07T01:09:38-11:00  21.31306 -157.88888     317   0.0 Hikianalia
  2021-07-07T11:18:46UTC 2021-07-07T01:18:46-10:00 2021-07-07T00:18:46-11:00  21.31312 -157.88862       0   0.0 Hōkūleʻa
  2021-07-07T11:10:37UTC 2021-07-07T01:10:37-10:00 2021-07-07T00:10:37-11:00  21.31304 -157.88886     299   0.0 Hikianalia
  2021-07-07T10:17:28UTC 2021-07-07T00:17:28-10:00 2021-07-06T23:17:28-11:00  21.31311 -157.88862       0   0.0 Hōkūleʻa
  2021-07-07T10:11:14UTC 2021-07-07T00:11:14-10:00 2021-07-06T23:11:14-11:00  21.31302 -157.88881     105   0.0 Hikianalia
  2021-07-07T09:18:17UTC 2021-07-06T23:18:17-10:00 2021-07-06T22:18:17-11:00  21.31311 -157.88862       0   0.0 Hōkūleʻa
  2021-07-07T09:10:45UTC 2021-07-06T23:10:45-10:00 2021-07-06T22:10:45-11:00  21.31303 -157.88886     148   0.0 Hikianalia
  2021-07-07T08:18:40UTC 2021-07-06T22:18:40-10:00 2021-07-06T21:18:40-11:00  21.31311 -157.88862       0   0.0 Hōkūleʻa
  2021-07-07T08:10:49UTC 2021-07-06T22:10:49-10:00 2021-07-06T21:10:49-11:00  21.31306 -157.88888     312   0.0 Hikianalia
  2021-07-07T07:18:27UTC 2021-07-06T21:18:27-10:00 2021-07-06T20:18:27-11:00  21.31311 -157.88862       0   0.0 Hōkūleʻa
  2021-07-07T07:10:49UTC 2021-07-06T21:10:49-10:00 2021-07-06T20:10:49-11:00  21.31300 -157.88881     119   0.0 Hikianalia
  2021-07-07T06:17:19UTC 2021-07-06T20:17:19-10:00 2021-07-06T19:17:19-11:00  21.31311 -157.88862       0   0.0 Hōkūleʻa
  2021-07-07T06:11:19UTC 2021-07-06T20:11:19-10:00 2021-07-06T19:11:19-11:00  21.31302 -157.88883      30   0.0 Hikianalia
  2021-07-07T05:18:21UTC 2021-07-06T19:18:21-10:00 2021-07-06T18:18:21-11:00  21.31311 -157.88862     180   0.0 Hōkūleʻa
  2021-07-07T05:10:51UTC 2021-07-06T19:10:51-10:00 2021-07-06T18:10:51-11:00  21.31291 -157.88890     210   0.0 Hikianalia
  2021-07-07T04:18:43UTC 2021-07-06T18:18:43-10:00 2021-07-06T17:18:43-11:00  21.31314 -157.88862       5   0.0 Hōkūleʻa
  2021-07-07T04:09:48UTC 2021-07-06T18:09:48-10:00 2021-07-06T17:09:48-11:00  21.31302 -157.88883      90   0.0 Hikianalia
  2021-07-07T03:17:25UTC 2021-07-06T17:17:25-10:00 2021-07-06T16:17:25-11:00  21.31293 -157.88864     223   0.0 Hōkūleʻa
  2021-07-07T03:11:03UTC 2021-07-06T17:11:03-10:00 2021-07-06T16:11:03-11:00  21.31302 -157.88886     270   0.0 Hikianalia
  2021-07-07T02:18:20UTC 2021-07-06T16:18:20-10:00 2021-07-06T15:18:20-11:00  21.31308 -157.88849     118   0.0 Hōkūleʻa
  2021-07-07T02:16:47UTC 2021-07-06T16:16:47-10:00 2021-07-06T15:16:47-11:00  21.31302 -157.88883     118   0.0 Hikianalia
  2021-07-07T01:18:50UTC 2021-07-06T15:18:50-10:00 2021-07-06T14:18:50-11:00  21.31313 -157.88860     309   0.0 Hōkūleʻa
  2021-07-07T01:09:39UTC 2021-07-06T15:09:39-10:00 2021-07-06T14:09:39-11:00  21.31303 -157.88886       0   0.0 Hikianalia
  2021-07-07T00:17:27UTC 2021-07-06T14:17:27-10:00 2021-07-06T13:17:27-11:00  21.31310 -157.88856     100   0.0 Hōkūleʻa
  2021-07-07T00:10:46UTC 2021-07-06T14:10:46-10:00 2021-07-06T13:10:46-11:00  21.31303 -157.88886     257   0.0 Hikianalia
  2021-07-06T23:17:19UTC 2021-07-06T13:17:19-10:00 2021-07-06T12:17:19-11:00  21.31311 -157.88862     180   0.0 Hōkūleʻa
  2021-07-06T23:09:48UTC 2021-07-06T13:09:48-10:00 2021-07-06T12:09:48-11:00  21.31307 -157.88866      75   0.0 Hikianalia
  2021-07-06T22:17:50UTC 2021-07-06T12:17:50-10:00 2021-07-06T11:17:50-11:00  21.31314 -157.88862       0   0.0 Hōkūleʻa
  2021-07-06T22:10:14UTC 2021-07-06T12:10:14-10:00 2021-07-06T11:10:14-11:00  21.31303 -157.88883      90   0.0 Hikianalia
  2021-07-06T21:18:20UTC 2021-07-06T11:18:20-10:00 2021-07-06T10:18:20-11:00  21.31311 -157.88862     140   0.0 Hōkūleʻa
  2021-07-06T21:16:57UTC 2021-07-06T11:16:57-10:00 2021-07-06T10:16:57-11:00  21.31303 -157.88886     137   0.0 Hikianalia
  2021-07-06T20:17:28UTC 2021-07-06T10:17:28-10:00 2021-07-06T09:17:28-11:00  21.31323 -157.88873     345   0.0 Hōkūleʻa
  2021-07-06T20:09:50UTC 2021-07-06T10:09:50-10:00 2021-07-06T09:09:50-11:00  21.31311 -157.88894     347   0.0 Hikianalia
  2021-07-06T19:18:20UTC 2021-07-06T09:18:20-10:00 2021-07-06T08:18:20-11:00  21.31308 -157.88868     234   0.0 Hōkūleʻa
  2021-07-06T19:10:41UTC 2021-07-06T09:10:41-10:00 2021-07-06T08:10:41-11:00  21.31294 -157.88890     224   0.0 Hikianalia
  2021-07-06T18:20:00UTC 2021-07-06T08:20:00-10:00 2021-07-06T07:20:00-11:00  21.31300 -157.88883     289   0.0 Hikianalia
  2021-07-06T18:17:50UTC 2021-07-06T08:17:50-10:00 2021-07-06T07:17:50-11:00  21.31312 -157.88862     104   0.0 Hōkūleʻa
  2021-07-06T17:18:20UTC 2021-07-06T07:18:20-10:00 2021-07-06T06:18:20-11:00  21.31313 -157.88866     270   0.0 Hōkūleʻa
  2021-07-06T17:10:46UTC 2021-07-06T07:10:46-10:00 2021-07-06T06:10:46-11:00  21.31298 -157.88877     109   0.0 Hikianalia
  2021-07-06T16:18:28UTC 2021-07-06T06:18:28-10:00 2021-07-06T05:18:28-11:00  21.31313 -157.88862       0   0.0 Hōkūleʻa
  2021-07-06T16:09:48UTC 2021-07-06T06:09:48-10:00 2021-07-06T05:09:48-11:00  21.31300 -157.88883     180   0.0 Hikianalia
  2021-07-06T15:18:42UTC 2021-07-06T05:18:42-10:00 2021-07-06T04:18:42-11:00  21.31311 -157.88862       0   0.0 Hōkūleʻa
  2021-07-06T15:10:38UTC 2021-07-06T05:10:38-10:00 2021-07-06T04:10:38-11:00  21.31302 -157.88883      62   0.0 Hikianalia
  2021-07-06T14:18:30UTC 2021-07-06T04:18:30-10:00 2021-07-06T03:18:30-11:00  21.31307 -157.88862     171   0.0 Hōkūleʻa
  2021-07-06T14:11:11UTC 2021-07-06T04:11:11-10:00 2021-07-06T03:11:11-11:00  21.31300 -157.88886     293   0.0 Hikianalia
  2021-07-06T13:25:50UTC 2021-07-06T03:25:50-10:00 2021-07-06T02:25:50-11:00  21.31319 -157.88864     343   0.0 Hōkūleʻa
  2021-07-06T13:10:39UTC 2021-07-06T03:10:39-10:00 2021-07-06T02:10:39-11:00  21.31296 -157.88875     137   0.0 Hikianalia
  2021-07-06T12:18:50UTC 2021-07-06T02:18:50-10:00 2021-07-06T01:18:50-11:00  21.31312 -157.88862     118   0.0 Hōkūleʻa
  2021-07-06T12:10:47UTC 2021-07-06T02:10:47-10:00 2021-07-06T01:10:47-11:00  21.31305 -157.88883       0   0.0 Hikianalia
  2021-07-06T11:18:24UTC 2021-07-06T01:18:24-10:00 2021-07-06T00:18:24-11:00  21.31314 -157.88866     250   0.0 Hōkūleʻa
  2021-07-06T11:11:18UTC 2021-07-06T01:11:18-10:00 2021-07-06T00:11:18-11:00  21.31300 -157.88883      64   0.0 Hikianalia
  2021-07-06T10:18:25UTC 2021-07-06T00:18:25-10:00 2021-07-05T23:18:25-11:00  21.31319 -157.88853      52   0.0 Hōkūleʻa
  2021-07-06T10:10:41UTC 2021-07-06T00:10:41-10:00 2021-07-05T23:10:41-11:00  21.31299 -157.88886     146   0.0 Hikianalia
  2021-07-06T09:18:27UTC 2021-07-05T23:18:27-10:00 2021-07-05T22:18:27-11:00  21.31312 -157.88862       0   0.0 Hōkūleʻa
  2021-07-06T09:10:44UTC 2021-07-05T23:10:44-10:00 2021-07-05T22:10:44-11:00  21.31311 -157.88894     317   0.0 Hikianalia
  2021-07-06T08:18:51UTC 2021-07-05T22:18:51-10:00 2021-07-05T21:18:51-11:00  21.31311 -157.88862       0   0.0 Hōkūleʻa
  2021-07-06T08:10:23UTC 2021-07-05T22:10:23-10:00 2021-07-05T21:10:23-11:00  21.31300 -157.88883     222   0.0 Hikianalia
  2021-07-06T07:18:28UTC 2021-07-05T21:18:28-10:00 2021-07-05T20:18:28-11:00  21.31311 -157.88862       0   0.0 Hōkūleʻa
  2021-07-06T07:10:40UTC 2021-07-05T21:10:40-10:00 2021-07-05T20:10:40-11:00  21.31303 -157.88881      42   0.0 Hikianalia
  2021-07-06T06:25:01UTC 2021-07-05T20:25:01-10:00 2021-07-05T19:25:01-11:00  21.31310 -157.88862     180   0.0 Hōkūleʻa
  2021-07-06T06:19:08UTC 2021-07-05T20:19:08-10:00 2021-07-05T19:19:08-11:00  21.31300 -157.88883     180   0.0 Hikianalia
  2021-07-06T05:18:28UTC 2021-07-05T19:18:28-10:00 2021-07-05T18:18:28-11:00  21.31311 -157.88862       0   0.0 Hōkūleʻa
  2021-07-06T05:11:29UTC 2021-07-05T19:11:29-10:00 2021-07-05T18:11:29-11:00  21.31302 -157.88883     105   0.0 Hikianalia
  2021-07-06T04:18:46UTC 2021-07-05T18:18:46-10:00 2021-07-05T17:18:46-11:00  21.31310 -157.88862     180   0.0 Hōkūleʻa
  2021-07-06T04:10:18UTC 2021-07-05T18:10:18-10:00 2021-07-05T17:10:18-11:00  21.31303 -157.88888     270   0.0 Hikianalia
  2021-07-06T03:17:17UTC 2021-07-05T17:17:17-10:00 2021-07-05T16:17:17-11:00  21.31311 -157.88862       0   0.0 Hōkūleʻa
  2021-07-06T03:10:38UTC 2021-07-05T17:10:38-10:00 2021-07-05T16:10:38-11:00  21.31303 -157.88886       0   0.0 Hikianalia
  2021-07-06T02:18:21UTC 2021-07-05T16:18:21-10:00 2021-07-05T15:18:21-11:00  21.31311 -157.88862       0   0.0 Hōkūleʻa
  2021-07-06T02:10:01UTC 2021-07-05T16:10:01-10:00 2021-07-05T15:10:01-11:00  21.31303 -157.88886     298   0.0 Hikianalia
  2021-07-06T01:17:19UTC 2021-07-05T15:17:19-10:00 2021-07-05T14:17:19-11:00  21.31311 -157.88862     180   0.0 Hōkūleʻa
  2021-07-06T01:11:07UTC 2021-07-05T15:11:07-10:00 2021-07-05T14:11:07-11:00  21.31302 -157.88883     118   0.0 Hikianalia
  2021-07-06T00:17:50UTC 2021-07-05T14:17:50-10:00 2021-07-05T13:17:50-11:00  21.31313 -157.88862       0   0.0 Hōkūleʻa
  2021-07-06T00:09:47UTC 2021-07-05T14:09:47-10:00 2021-07-05T13:09:47-11:00  21.31303 -157.88886       0   0.0 Hikianalia
  2021-07-05T23:18:29UTC 2021-07-05T13:18:29-10:00 2021-07-05T12:18:29-11:00  21.31311 -157.88862      84   0.0 Hōkūleʻa
  2021-07-05T23:10:47UTC 2021-07-05T13:10:47-10:00 2021-07-05T12:10:47-11:00  21.31303 -157.88886     317   0.0 Hikianalia
  2021-07-05T22:17:27UTC 2021-07-05T12:17:27-10:00 2021-07-05T11:17:27-11:00  21.31310 -157.88873     270   0.0 Hōkūleʻa
  2021-07-05T22:10:21UTC 2021-07-05T12:10:21-10:00 2021-07-05T11:10:21-11:00  21.31300 -157.88883     168   0.0 Hikianalia
  2021-07-05T21:18:25UTC 2021-07-05T11:18:25-10:00 2021-07-05T10:18:25-11:00  21.31310 -157.88868     260   0.0 Hōkūleʻa
  2021-07-05T21:10:47UTC 2021-07-05T11:10:47-10:00 2021-07-05T10:10:47-11:00  21.31320 -157.88888       0   0.0 Hikianalia
  2021-07-05T20:17:46UTC 2021-07-05T10:17:46-10:00 2021-07-05T09:17:46-11:00  21.31311 -157.88862       0   0.0 Hōkūleʻa
  2021-07-05T20:09:44UTC 2021-07-05T10:09:44-10:00 2021-07-05T09:09:44-11:00  21.31303 -157.88888     308   0.0 Hikianalia
  2021-07-05T19:18:36UTC 2021-07-05T09:18:36-10:00 2021-07-05T08:18:36-11:00  21.31311 -157.88862       0   0.0 Hōkūleʻa
  2021-07-05T19:10:48UTC 2021-07-05T09:10:48-10:00 2021-07-05T08:10:48-11:00  21.31299 -157.88883     116   0.0 Hikianalia
  2021-07-05T18:18:42UTC 2021-07-05T08:18:42-10:00 2021-07-05T07:18:42-11:00  21.31310 -157.88862     309   0.2 Hōkūleʻa
  2021-07-05T18:10:19UTC 2021-07-05T08:10:19-10:00 2021-07-05T07:10:19-11:00  21.31300 -157.88886     180   0.0 Hikianalia
  2021-07-05T17:18:31UTC 2021-07-05T07:18:31-10:00 2021-07-05T06:18:31-11:00  21.31122 -157.88617     131   0.2 Hōkūleʻa
  2021-07-05T17:10:41UTC 2021-07-05T07:10:41-10:00 2021-07-05T06:10:41-11:00  21.31302 -157.88886     242   0.0 Hikianalia
  2021-07-05T16:19:02UTC 2021-07-05T06:19:02-10:00 2021-07-05T05:19:02-11:00  21.31391 -157.88952     170   0.0 Hōkūleʻa
  2021-07-05T16:10:41UTC 2021-07-05T06:10:41-10:00 2021-07-05T05:10:41-11:00  21.31303 -157.88883       0   0.0 Hikianalia
  2021-07-05T15:18:25UTC 2021-07-05T05:18:25-10:00 2021-07-05T04:18:25-11:00  21.31473 -157.88967      31   0.1 Hōkūleʻa
  2021-07-05T15:10:43UTC 2021-07-05T05:10:43-10:00 2021-07-05T04:10:43-11:00  21.31303 -157.88883      43   0.0 Hikianalia
  2021-07-05T14:18:32UTC 2021-07-05T04:18:32-10:00 2021-07-05T03:18:32-11:00  21.31387 -157.89023     293   0.1 Hōkūleʻa
  2021-07-05T14:11:26UTC 2021-07-05T04:11:26-10:00 2021-07-05T03:11:26-11:00  21.31300 -157.88886     155   0.0 Hikianalia
  2021-07-05T13:18:29UTC 2021-07-05T03:18:29-10:00 2021-07-05T02:18:29-11:00  21.31308 -157.88825       0   0.0 Hōkūleʻa
  2021-07-05T13:10:50UTC 2021-07-05T03:10:50-10:00 2021-07-05T02:10:50-11:00  21.31305 -157.88888     298   0.0 Hikianalia
  2021-07-05T12:18:42UTC 2021-07-05T02:18:42-10:00 2021-07-05T01:18:42-11:00  21.31308 -157.88825       0   0.0 Hōkūleʻa
  2021-07-05T12:10:39UTC 2021-07-05T02:10:39-10:00 2021-07-05T01:10:39-11:00  21.31302 -157.88881      90   0.0 Hikianalia
  2021-07-05T11:18:28UTC 2021-07-05T01:18:28-10:00 2021-07-05T00:18:28-11:00  21.31308 -157.88825       0   0.0 Hōkūleʻa
  2021-07-05T11:10:46UTC 2021-07-05T01:10:46-10:00 2021-07-05T00:10:46-11:00  21.31302 -157.88888     270   0.0 Hikianalia
  2021-07-05T10:18:27UTC 2021-07-05T00:18:27-10:00 2021-07-04T23:18:27-11:00  21.31308 -157.88825       0   0.0 Hōkūleʻa
  2021-07-05T10:11:16UTC 2021-07-05T00:11:16-10:00 2021-07-04T23:11:16-11:00  21.31302 -157.88883     325   0.0 Hikianalia
  2021-07-05T09:18:25UTC 2021-07-04T23:18:25-10:00 2021-07-04T22:18:25-11:00  21.31308 -157.88825       0   0.0 Hōkūleʻa
  2021-07-05T09:09:55UTC 2021-07-04T23:09:55-10:00 2021-07-04T22:09:55-11:00  21.31293 -157.88877     140   0.0 Hikianalia
  2021-07-05T08:18:40UTC 2021-07-04T22:18:40-10:00 2021-07-04T21:18:40-11:00  21.31308 -157.88825       0   0.0 Hōkūleʻa
  2021-07-05T08:10:36UTC 2021-07-04T22:10:36-10:00 2021-07-04T21:10:36-11:00  21.31303 -157.88886       0   0.0 Hikianalia
  2021-07-05T07:18:28UTC 2021-07-04T21:18:28-10:00 2021-07-04T20:18:28-11:00  21.31308 -157.88825       0   0.0 Hōkūleʻa
  2021-07-05T07:10:48UTC 2021-07-04T21:10:48-10:00 2021-07-04T20:10:48-11:00  21.31303 -157.88886     270   0.0 Hikianalia
  2021-07-05T06:18:26UTC 2021-07-04T20:18:26-10:00 2021-07-04T19:18:26-11:00  21.31308 -157.88825       0   0.0 Hōkūleʻa
  2021-07-05T06:11:15UTC 2021-07-04T20:11:15-10:00 2021-07-04T19:11:15-11:00  21.31303 -157.88883      90   0.0 Hikianalia
  2021-07-05T05:18:27UTC 2021-07-04T19:18:27-10:00 2021-07-04T18:18:27-11:00  21.31308 -157.88825       0   0.0 Hōkūleʻa
  2021-07-05T05:10:42UTC 2021-07-04T19:10:42-10:00 2021-07-04T18:10:42-11:00  21.31303 -157.88886       0   0.0 Hikianalia
  2021-07-05T04:17:47UTC 2021-07-04T18:17:47-10:00 2021-07-04T17:17:47-11:00  21.31308 -157.88825       0   0.0 Hōkūleʻa
  2021-07-05T04:09:48UTC 2021-07-04T18:09:48-10:00 2021-07-04T17:09:48-11:00  21.31303 -157.88886       0   0.0 Hikianalia
  2021-07-05T03:18:21UTC 2021-07-04T17:18:21-10:00 2021-07-04T16:18:21-11:00  21.31308 -157.88825       0   0.0 Hōkūleʻa
  2021-07-05T03:10:40UTC 2021-07-04T17:10:40-10:00 2021-07-04T16:10:40-11:00  21.31303 -157.88886     327   0.0 Hikianalia
  2021-07-05T02:18:28UTC 2021-07-04T16:18:28-10:00 2021-07-04T15:18:28-11:00  21.31308 -157.88825       0   0.0 Hōkūleʻa
  2021-07-05T02:11:28UTC 2021-07-04T16:11:28-10:00 2021-07-04T15:11:28-11:00  21.31299 -157.88883     147   0.0 Hikianalia
  2021-07-05T01:18:26UTC 2021-07-04T15:18:26-10:00 2021-07-04T14:18:26-11:00  21.31308 -157.88825       0   0.0 Hōkūleʻa
  2021-07-05T01:10:50UTC 2021-07-04T15:10:50-10:00 2021-07-04T14:10:50-11:00  21.31303 -157.88886       0   0.0 Hikianalia
  2021-07-05T00:17:49UTC 2021-07-04T14:17:49-10:00 2021-07-04T13:17:49-11:00  21.31308 -157.88825       0   0.0 Hōkūleʻa
  2021-07-05T00:09:48UTC 2021-07-04T14:09:48-10:00 2021-07-04T13:09:48-11:00  21.31303 -157.88886       0   0.0 Hikianalia
  2021-07-04T23:18:19UTC 2021-07-04T13:18:19-10:00 2021-07-04T12:18:19-11:00  21.31308 -157.88825       0   0.0 Hōkūleʻa
  2021-07-04T23:10:48UTC 2021-07-04T13:10:48-10:00 2021-07-04T12:10:48-11:00  21.31303 -157.88886     270   0.0 Hikianalia
  2021-07-04T22:17:25UTC 2021-07-04T12:17:25-10:00 2021-07-04T11:17:25-11:00  21.31308 -157.88825       0   0.0 Hōkūleʻa
  2021-07-04T22:10:07UTC 2021-07-04T12:10:07-10:00 2021-07-04T11:10:07-11:00  21.31303 -157.88883     170   0.0 Hikianalia
  2021-07-04T21:18:24UTC 2021-07-04T11:18:24-10:00 2021-07-04T10:18:24-11:00  21.31308 -157.88825       0   0.0 Hōkūleʻa
  2021-07-04T21:16:47UTC 2021-07-04T11:16:47-10:00 2021-07-04T10:16:47-11:00  21.31314 -157.88886       9   0.0 Hikianalia
  2021-07-04T20:17:39UTC 2021-07-04T10:17:39-10:00 2021-07-04T09:17:39-11:00  21.31308 -157.88825       0   0.0 Hōkūleʻa
  2021-07-04T20:09:38UTC 2021-07-04T10:09:38-10:00 2021-07-04T09:09:38-11:00  21.31303 -157.88888     270   0.0 Hikianalia
  2021-07-04T19:27:56UTC 2021-07-04T09:27:56-10:00 2021-07-04T08:27:56-11:00  21.31308 -157.88825       0   0.0 Hōkūleʻa
  2021-07-04T19:10:39UTC 2021-07-04T09:10:39-10:00 2021-07-04T08:10:39-11:00  21.31303 -157.88886     317   0.0 Hikianalia
  2021-07-04T18:17:26UTC 2021-07-04T08:17:26-10:00 2021-07-04T07:17:26-11:00  21.31308 -157.88825       0   0.0 Hōkūleʻa
  2021-07-04T18:11:10UTC 2021-07-04T08:11:10-10:00 2021-07-04T07:11:10-11:00  21.31300 -157.88883     180   0.0 Hikianalia
  2021-07-04T17:18:21UTC 2021-07-04T07:18:21-10:00 2021-07-04T06:18:21-11:00  21.31308 -157.88825       0   0.0 Hōkūleʻa
  2021-07-04T17:10:48UTC 2021-07-04T07:10:48-10:00 2021-07-04T06:10:48-11:00  21.31302 -157.88883      25   0.0 Hikianalia
  2021-07-04T16:18:46UTC 2021-07-04T06:18:46-10:00 2021-07-04T05:18:46-11:00  21.31308 -157.88825       0   0.0 Hōkūleʻa
  2021-07-04T16:10:48UTC 2021-07-04T06:10:48-10:00 2021-07-04T05:10:48-11:00  21.31293 -157.88888     200   0.0 Hikianalia
  2021-07-04T15:18:23UTC 2021-07-04T05:18:23-10:00 2021-07-04T04:18:23-11:00  21.31308 -157.88825       0   0.0 Hōkūleʻa
  2021-07-04T15:10:47UTC 2021-07-04T05:10:47-10:00 2021-07-04T04:10:47-11:00  21.31298 -157.88886     180   0.0 Hikianalia
  2021-07-04T14:18:28UTC 2021-07-04T04:18:28-10:00 2021-07-04T03:18:28-11:00  21.31308 -157.88825       0   0.0 Hōkūleʻa
  2021-07-04T14:10:42UTC 2021-07-04T04:10:42-10:00 2021-07-04T03:10:42-11:00  21.31300 -157.88886     138   0.0 Hikianalia
  2021-07-04T13:18:27UTC 2021-07-04T03:18:27-10:00 2021-07-04T02:18:27-11:00  21.31308 -157.88825       0   0.0 Hōkūleʻa
  2021-07-04T13:10:39UTC 2021-07-04T03:10:39-10:00 2021-07-04T02:10:39-11:00  21.31303 -157.88888     270   0.0 Hikianalia
  2021-07-04T12:18:51UTC 2021-07-04T02:18:51-10:00 2021-07-04T01:18:51-11:00  21.31308 -157.88825       0   0.0 Hōkūleʻa
  2021-07-04T12:10:45UTC 2021-07-04T02:10:45-10:00 2021-07-04T01:10:45-11:00  21.31303 -157.88881     119   0.0 Hikianalia
  2021-07-04T11:18:31UTC 2021-07-04T01:18:31-10:00 2021-07-04T00:18:31-11:00  21.31308 -157.88825       0   0.0 Hōkūleʻa
  2021-07-04T11:10:45UTC 2021-07-04T01:10:45-10:00 2021-07-04T00:10:45-11:00  21.31304 -157.88883       0   0.0 Hikianalia
  2021-07-04T10:18:29UTC 2021-07-04T00:18:29-10:00 2021-07-03T23:18:29-11:00  21.31308 -157.88825       0   0.0 Hōkūleʻa
  2021-07-04T10:11:08UTC 2021-07-04T00:11:08-10:00 2021-07-03T23:11:08-11:00  21.31302 -157.88883     147   0.0 Hikianalia
  2021-07-04T09:17:30UTC 2021-07-03T23:17:30-10:00 2021-07-03T22:17:30-11:00  21.31308 -157.88825       0   0.0 Hōkūleʻa
  2021-07-04T09:11:02UTC 2021-07-03T23:11:02-10:00 2021-07-03T22:11:02-11:00  21.31305 -157.88886     317   0.0 Hikianalia
  2021-07-04T08:18:40UTC 2021-07-03T22:18:40-10:00 2021-07-03T21:18:40-11:00  21.31308 -157.88825       0   0.0 Hōkūleʻa
  2021-07-04T08:11:11UTC 2021-07-03T22:11:11-10:00 2021-07-03T21:11:11-11:00  21.31300 -157.88881     119   0.0 Hikianalia
  2021-07-04T07:18:22UTC 2021-07-03T21:18:22-10:00 2021-07-03T20:18:22-11:00  21.31308 -157.88825       0   0.0 Hōkūleʻa
  2021-07-04T07:10:39UTC 2021-07-03T21:10:39-10:00 2021-07-03T20:10:39-11:00  21.31303 -157.88886     299   0.0 Hikianalia
  2021-07-04T06:29:56UTC 2021-07-03T20:29:56-10:00 2021-07-03T19:29:56-11:00  21.31308 -157.88825       0   0.0 Hōkūleʻa
  2021-07-04T06:10:15UTC 2021-07-03T20:10:15-10:00 2021-07-03T19:10:15-11:00  21.31300 -157.88881     119   0.0 Hikianalia
  2021-07-04T05:18:21UTC 2021-07-03T19:18:21-10:00 2021-07-03T18:18:21-11:00  21.31308 -157.88825       0   0.0 Hōkūleʻa
  2021-07-04T05:10:46UTC 2021-07-03T19:10:46-10:00 2021-07-03T18:10:46-11:00  21.31303 -157.88886       0   0.0 Hikianalia
  2021-07-04T04:18:44UTC 2021-07-03T18:18:44-10:00 2021-07-03T17:18:44-11:00  21.31308 -157.88825       0   0.0 Hōkūleʻa
  2021-07-04T04:10:41UTC 2021-07-03T18:10:41-10:00 2021-07-03T17:10:41-11:00  21.31303 -157.88886       0   0.0 Hikianalia
  2021-07-04T03:18:32UTC 2021-07-03T17:18:32-10:00 2021-07-03T16:18:32-11:00  21.31308 -157.88825       0   0.0 Hōkūleʻa
  2021-07-04T03:09:48UTC 2021-07-03T17:09:48-10:00 2021-07-03T16:09:48-11:00  21.31303 -157.88886     298   0.0 Hikianalia
  2021-07-04T02:17:27UTC 2021-07-03T16:17:27-10:00 2021-07-03T15:17:27-11:00  21.31308 -157.88825     105   0.0 Hōkūleʻa
  2021-07-04T02:16:55UTC 2021-07-03T16:16:55-10:00 2021-07-03T15:16:55-11:00  21.31302 -157.88883     118   0.0 Hikianalia
  2021-07-04T01:18:27UTC 2021-07-03T15:18:27-10:00 2021-07-03T14:18:27-11:00  21.31310 -157.88834     285   0.0 Hōkūleʻa
  2021-07-04T01:10:42UTC 2021-07-03T15:10:42-10:00 2021-07-03T14:10:42-11:00  21.31303 -157.88886       0   0.0 Hikianalia
  2021-07-04T00:17:49UTC 2021-07-03T14:17:49-10:00 2021-07-03T13:17:49-11:00  21.31308 -157.88825      71   0.0 Hōkūleʻa
  2021-07-04T00:09:47UTC 2021-07-03T14:09:47-10:00 2021-07-03T13:09:47-11:00  21.31303 -157.88886     131   0.0 Hikianalia
  2021-07-03T23:18:31UTC 2021-07-03T13:18:31-10:00 2021-07-03T12:18:31-11:00  21.31303 -157.88843     251   0.0 Hōkūleʻa
  2021-07-03T23:10:44UTC 2021-07-03T13:10:44-10:00 2021-07-03T12:10:44-11:00  21.31311 -157.88896     314   0.0 Hikianalia
  2021-07-03T22:17:28UTC 2021-07-03T12:17:28-10:00 2021-07-03T11:17:28-11:00  21.31308 -157.88825       0   0.0 Hōkūleʻa
  2021-07-03T22:10:14UTC 2021-07-03T12:10:14-10:00 2021-07-03T11:10:14-11:00  21.31302 -157.88886     105   0.0 Hikianalia
  2021-07-03T21:18:26UTC 2021-07-03T11:18:26-10:00 2021-07-03T10:18:26-11:00  21.31308 -157.88825       0   0.0 Hōkūleʻa
  2021-07-03T21:10:48UTC 2021-07-03T11:10:48-10:00 2021-07-03T10:10:48-11:00  21.31303 -157.88890     316   0.0 Hikianalia
  2021-07-03T20:18:49UTC 2021-07-03T10:18:49-10:00 2021-07-03T09:18:49-11:00  21.31308 -157.88825       0   0.0 Hōkūleʻa
  2021-07-03T20:09:44UTC 2021-07-03T10:09:44-10:00 2021-07-03T09:09:44-11:00  21.31296 -157.88883     180   0.0 Hikianalia
  2021-07-03T19:17:28UTC 2021-07-03T09:17:28-10:00 2021-07-03T08:17:28-11:00  21.31308 -157.88825       0   0.0 Hōkūleʻa
  2021-07-03T19:10:07UTC 2021-07-03T09:10:07-10:00 2021-07-03T08:10:07-11:00  21.31302 -157.88883     119   0.0 Hikianalia
  2021-07-03T18:18:25UTC 2021-07-03T08:18:25-10:00 2021-07-03T07:18:25-11:00  21.31308 -157.88825       0   0.0 Hōkūleʻa
  2021-07-03T18:10:39UTC 2021-07-03T08:10:39-10:00 2021-07-03T07:10:39-11:00  21.31304 -157.88888      99   0.0 Hikianalia
  2021-07-03T17:18:20UTC 2021-07-03T07:18:20-10:00 2021-07-03T06:18:20-11:00  21.31308 -157.88825       0   0.0 Hōkūleʻa
  2021-07-03T17:10:50UTC 2021-07-03T07:10:50-10:00 2021-07-03T06:10:50-11:00  21.31305 -157.88894     311   0.0 Hikianalia
  2021-07-03T16:18:47UTC 2021-07-03T06:18:47-10:00 2021-07-03T05:18:47-11:00  21.31308 -157.88825       0   0.0 Hōkūleʻa
  2021-07-03T16:11:18UTC 2021-07-03T06:11:18-10:00 2021-07-03T05:11:18-11:00  21.31299 -157.88888     212   0.0 Hikianalia
  2021-07-03T15:18:28UTC 2021-07-03T05:18:28-10:00 2021-07-03T04:18:28-11:00  21.31308 -157.88825       0   0.0 Hōkūleʻa
  2021-07-03T15:10:48UTC 2021-07-03T05:10:48-10:00 2021-07-03T04:10:48-11:00  21.31303 -157.88886     242   0.0 Hikianalia
  2021-07-03T14:18:30UTC 2021-07-03T04:18:30-10:00 2021-07-03T03:18:30-11:00  21.31308 -157.88825       0   0.0 Hōkūleʻa
  2021-07-03T14:10:42UTC 2021-07-03T04:10:42-10:00 2021-07-03T03:10:42-11:00  21.31304 -157.88883       0   0.0 Hikianalia
  2021-07-03T13:17:29UTC 2021-07-03T03:17:29-10:00 2021-07-03T02:17:29-11:00  21.31308 -157.88825       0   0.0 Hōkūleʻa
  2021-07-03T13:10:51UTC 2021-07-03T03:10:51-10:00 2021-07-03T02:10:51-11:00  21.31302 -157.88883      90   0.0 Hikianalia
  2021-07-03T12:18:42UTC 2021-07-03T02:18:42-10:00 2021-07-03T01:18:42-11:00  21.31308 -157.88825     109   0.0 Hōkūleʻa
  2021-07-03T12:11:22UTC 2021-07-03T02:11:22-10:00 2021-07-03T01:11:22-11:00  21.31302 -157.88886     251   0.5 Hikianalia
  2021-07-03T11:18:23UTC 2021-07-03T01:18:23-10:00 2021-07-03T00:18:23-11:00  21.31314 -157.88845     289   0.0 Hōkūleʻa
  2021-07-03T11:10:52UTC 2021-07-03T01:10:52-10:00 2021-07-03T00:10:52-11:00  21.31608 -157.87954      84   0.5 Hikianalia
  2021-07-03T10:18:29UTC 2021-07-03T00:18:29-10:00 2021-07-02T23:18:29-11:00  21.31308 -157.88825       0   0.0 Hōkūleʻa
  2021-07-03T10:10:52UTC 2021-07-03T00:10:52-10:00 2021-07-02T23:10:52-11:00  21.31515 -157.88924     350   0.1 Hikianalia
  2021-07-03T09:18:33UTC 2021-07-02T23:18:33-10:00 2021-07-02T22:18:33-11:00  21.31308 -157.88825       0   0.0 Hōkūleʻa
  2021-07-03T09:10:46UTC 2021-07-02T23:10:46-10:00 2021-07-02T22:10:46-11:00  21.31297 -157.88883     180   0.0 Hikianalia
  2021-07-03T08:18:50UTC 2021-07-02T22:18:50-10:00 2021-07-02T21:18:50-11:00  21.31308 -157.88825       0   0.0 Hōkūleʻa
  2021-07-03T08:11:12UTC 2021-07-02T22:11:12-10:00 2021-07-02T21:11:12-11:00  21.31302 -157.88883      62   0.0 Hikianalia
  2021-07-03T07:17:28UTC 2021-07-02T21:17:28-10:00 2021-07-02T20:17:28-11:00  21.31308 -157.88825       0   0.0 Hōkūleʻa
  2021-07-03T07:09:46UTC 2021-07-02T21:09:46-10:00 2021-07-02T20:09:46-11:00  21.31298 -157.88890     280   0.0 Hikianalia
  2021-07-03T06:18:25UTC 2021-07-02T20:18:25-10:00 2021-07-02T19:18:25-11:00  21.31308 -157.88825       0   0.0 Hōkūleʻa
  2021-07-03T06:10:47UTC 2021-07-02T20:10:47-10:00 2021-07-02T19:10:47-11:00  21.31297 -157.88883       0   0.0 Hikianalia
  2021-07-03T05:18:25UTC 2021-07-02T19:18:25-10:00 2021-07-02T18:18:25-11:00  21.31308 -157.88825       0   0.0 Hōkūleʻa
  2021-07-03T05:10:47UTC 2021-07-02T19:10:47-10:00 2021-07-02T18:10:47-11:00  21.31297 -157.88883     137   0.0 Hikianalia
  2021-07-03T04:29:39UTC 2021-07-02T18:29:39-10:00 2021-07-02T17:29:39-11:00  21.31308 -157.88825       0   0.0 Hōkūleʻa
  2021-07-03T04:11:16UTC 2021-07-02T18:11:16-10:00 2021-07-02T17:11:16-11:00  21.31302 -157.88888     317   0.0 Hikianalia
  2021-07-03T03:18:23UTC 2021-07-02T17:18:23-10:00 2021-07-02T16:18:23-11:00  21.31308 -157.88825       0   0.0 Hōkūleʻa
  2021-07-03T03:10:40UTC 2021-07-02T17:10:40-10:00 2021-07-02T16:10:40-11:00  21.31297 -157.88883       0   0.0 Hikianalia
  2021-07-03T02:18:29UTC 2021-07-02T16:18:29-10:00 2021-07-02T15:18:29-11:00  21.31308 -157.88825      62   0.0 Hōkūleʻa
  2021-07-03T02:09:46UTC 2021-07-02T16:09:46-10:00 2021-07-02T15:09:46-11:00  21.31297 -157.88883     301   0.0 Hikianalia
  2021-07-03T01:24:14UTC 2021-07-02T15:24:14-10:00 2021-07-02T14:24:14-11:00  21.31300 -157.88841     242   0.0 Hōkūleʻa
  2021-07-03T01:10:47UTC 2021-07-02T15:10:47-10:00 2021-07-02T14:10:47-11:00  21.31288 -157.88866     133   0.0 Hikianalia
  2021-07-03T00:18:42UTC 2021-07-02T14:18:42-10:00 2021-07-02T13:18:42-11:00  21.31308 -157.88825      20   0.0 Hōkūleʻa
  2021-07-03T00:10:12UTC 2021-07-02T14:10:12-10:00 2021-07-02T13:10:12-11:00  21.31303 -157.88883       0   0.0 Hikianalia
  2021-07-02T23:17:28UTC 2021-07-02T13:17:28-10:00 2021-07-02T12:17:28-11:00  21.31297 -157.88830     200   0.0 Hōkūleʻa
  2021-07-02T23:10:46UTC 2021-07-02T13:10:46-10:00 2021-07-02T12:10:46-11:00  21.31297 -157.88883     154   0.0 Hikianalia
  2021-07-02T22:18:30UTC 2021-07-02T12:18:30-10:00 2021-07-02T11:18:30-11:00  21.31308 -157.88825       0   0.0 Hōkūleʻa
  2021-07-02T22:09:53UTC 2021-07-02T12:09:53-10:00 2021-07-02T11:09:53-11:00  21.31302 -157.88886     298   0.0 Hikianalia
  2021-07-02T21:17:24UTC 2021-07-02T11:17:24-10:00 2021-07-02T10:17:24-11:00  21.31308 -157.88825       0   0.0 Hōkūleʻa
  2021-07-02T21:11:11UTC 2021-07-02T11:11:11-10:00 2021-07-02T10:11:11-11:00  21.31300 -157.88883       0   0.0 Hikianalia
  2021-07-02T20:18:40UTC 2021-07-02T10:18:40-10:00 2021-07-02T09:18:40-11:00  21.31308 -157.88825       0   0.0 Hōkūleʻa
  2021-07-02T20:10:09UTC 2021-07-02T10:10:09-10:00 2021-07-02T09:10:09-11:00  21.31300 -157.88883      32   0.0 Hikianalia
  2021-07-02T19:17:26UTC 2021-07-02T09:17:26-10:00 2021-07-02T08:17:26-11:00  21.31308 -157.88825       0   0.0 Hōkūleʻa
  2021-07-02T19:16:17UTC 2021-07-02T09:16:17-10:00 2021-07-02T08:16:17-11:00  21.31294 -157.88888     200   0.0 Hikianalia
  2021-07-02T18:18:24UTC 2021-07-02T08:18:24-10:00 2021-07-02T07:18:24-11:00  21.31308 -157.88825       0   0.0 Hōkūleʻa
  2021-07-02T18:11:16UTC 2021-07-02T08:11:16-10:00 2021-07-02T07:11:16-11:00  21.31299 -157.88886      32   0.0 Hikianalia
  2021-07-02T17:18:29UTC 2021-07-02T07:18:29-10:00 2021-07-02T06:18:29-11:00  21.31308 -157.88825       0   0.0 Hōkūleʻa
  2021-07-02T17:10:02UTC 2021-07-02T07:10:02-10:00 2021-07-02T06:10:02-11:00  21.31293 -157.88890     208   0.0 Hikianalia
  2021-07-02T16:19:38UTC 2021-07-02T06:19:38-10:00 2021-07-02T05:19:38-11:00  21.31308 -157.88825       0   0.0 Hōkūleʻa
  2021-07-02T16:11:08UTC 2021-07-02T06:11:08-10:00 2021-07-02T05:11:08-11:00  21.31300 -157.88886     298   0.0 Hikianalia
  2021-07-02T15:18:23UTC 2021-07-02T05:18:23-10:00 2021-07-02T04:18:23-11:00  21.31308 -157.88825       0   0.0 Hōkūleʻa
  2021-07-02T15:10:44UTC 2021-07-02T05:10:44-10:00 2021-07-02T04:10:44-11:00  21.31298 -157.88881     118   0.0 Hikianalia
  2021-07-02T14:18:28UTC 2021-07-02T04:18:28-10:00 2021-07-02T03:18:28-11:00  21.31308 -157.88825       0   0.0 Hōkūleʻa
  2021-07-02T14:11:16UTC 2021-07-02T04:11:16-10:00 2021-07-02T03:11:16-11:00  21.31300 -157.88886     146   0.0 Hikianalia
  2021-07-02T13:17:28UTC 2021-07-02T03:17:28-10:00 2021-07-02T02:17:28-11:00  21.31308 -157.88825       0   0.0 Hōkūleʻa
  2021-07-02T13:10:48UTC 2021-07-02T03:10:48-10:00 2021-07-02T02:10:48-11:00  21.31312 -157.88894     322   0.0 Hikianalia
  2021-07-02T12:18:42UTC 2021-07-02T02:18:42-10:00 2021-07-02T01:18:42-11:00  21.31308 -157.88825       0   0.0 Hōkūleʻa
  2021-07-02T12:16:39UTC 2021-07-02T02:16:39-10:00 2021-07-02T01:16:39-11:00  21.31299 -157.88883     180   0.0 Hikianalia
  2021-07-02T11:18:24UTC 2021-07-02T01:18:24-10:00 2021-07-02T00:18:24-11:00  21.31308 -157.88825       0   0.0 Hōkūleʻa
  2021-07-02T11:10:44UTC 2021-07-02T01:10:44-10:00 2021-07-02T00:10:44-11:00  21.31302 -157.88883       0   0.0 Hikianalia
  2021-07-02T10:18:26UTC 2021-07-02T00:18:26-10:00 2021-07-01T23:18:26-11:00  21.31308 -157.88825       0   0.0 Hōkūleʻa
  2021-07-02T10:11:17UTC 2021-07-02T00:11:17-10:00 2021-07-01T23:11:17-11:00  21.31302 -157.88883       0   0.0 Hikianalia
  2021-07-02T09:18:23UTC 2021-07-01T23:18:23-10:00 2021-07-01T22:18:23-11:00  21.31308 -157.88825       0   0.0 Hōkūleʻa
  2021-07-02T09:10:57UTC 2021-07-01T23:10:57-10:00 2021-07-01T22:10:57-11:00  21.31297 -157.88883       0   0.0 Hikianalia
  2021-07-02T08:19:33UTC 2021-07-01T22:19:33-10:00 2021-07-01T21:19:33-11:00  21.31297 -157.88883       0   0.0 Hikianalia
  2021-07-02T08:18:48UTC 2021-07-01T22:18:48-10:00 2021-07-01T21:18:48-11:00  21.31308 -157.88825       0   0.0 Hōkūleʻa
  2021-07-02T07:18:29UTC 2021-07-01T21:18:29-10:00 2021-07-01T20:18:29-11:00  21.31308 -157.88825       0   0.0 Hōkūleʻa
  2021-07-02T07:10:47UTC 2021-07-01T21:10:47-10:00 2021-07-01T20:10:47-11:00  21.31297 -157.88883     180   0.0 Hikianalia
  2021-07-02T06:18:36UTC 2021-07-01T20:18:36-10:00 2021-07-01T19:18:36-11:00  21.31308 -157.88825       0   0.0 Hōkūleʻa
  2021-07-02T06:10:10UTC 2021-07-01T20:10:10-10:00 2021-07-01T19:10:10-11:00  21.31300 -157.88883     158   0.0 Hikianalia
  2021-07-02T05:18:20UTC 2021-07-01T19:18:20-10:00 2021-07-01T18:18:20-11:00  21.31308 -157.88825       0   0.0 Hōkūleʻa
  2021-07-02T05:10:42UTC 2021-07-01T19:10:42-10:00 2021-07-01T18:10:42-11:00  21.31315 -157.88890     342   0.0 Hikianalia
  2021-07-02T04:17:51UTC 2021-07-01T18:17:51-10:00 2021-07-01T17:17:51-11:00  21.31308 -157.88825       0   0.0 Hōkūleʻa
  2021-07-02T04:10:49UTC 2021-07-01T18:10:49-10:00 2021-07-01T17:10:49-11:00  21.31297 -157.88883       0   0.0 Hikianalia
  2021-07-02T03:18:19UTC 2021-07-01T17:18:19-10:00 2021-07-01T16:18:19-11:00  21.31308 -157.88825     347   0.0 Hōkūleʻa
  2021-07-02T03:10:45UTC 2021-07-01T17:10:45-10:00 2021-07-01T16:10:45-11:00  21.31297 -157.88883     180   0.0 Hikianalia
  2021-07-02T02:18:29UTC 2021-07-01T16:18:29-10:00 2021-07-01T15:18:29-11:00  21.31291 -157.88821     125   0.0 Hōkūleʻa
  2021-07-02T02:10:18UTC 2021-07-01T16:10:18-10:00 2021-07-01T15:10:18-11:00  21.31300 -157.88883       0   0.0 Hikianalia
  2021-07-02T01:17:36UTC 2021-07-01T15:17:36-10:00 2021-07-01T14:17:36-11:00  21.31305 -157.88843     258   0.0 Hōkūleʻa
  2021-07-02T01:10:39UTC 2021-07-01T15:10:39-10:00 2021-07-01T14:10:39-11:00  21.31297 -157.88883       0   0.0 Hikianalia
  2021-07-02T00:17:42UTC 2021-07-01T14:17:42-10:00 2021-07-01T13:17:42-11:00  21.31308 -157.88825       0   0.0 Hōkūleʻa
  2021-07-02T00:09:47UTC 2021-07-01T14:09:47-10:00 2021-07-01T13:09:47-11:00  21.31297 -157.88883     321   0.0 Hikianalia
  2021-07-01T23:25:06UTC 2021-07-01T13:25:06-10:00 2021-07-01T12:25:06-11:00  21.31308 -157.88825       0   0.0 Hōkūleʻa
  2021-07-01T23:10:55UTC 2021-07-01T13:10:55-10:00 2021-07-01T12:10:55-11:00  21.31290 -157.88877     148   0.0 Hikianalia
  2021-07-01T22:18:26UTC 2021-07-01T12:18:26-10:00 2021-07-01T11:18:26-11:00  21.31308 -157.88825       0   0.0 Hōkūleʻa
  2021-07-01T22:10:15UTC 2021-07-01T12:10:15-10:00 2021-07-01T11:10:15-11:00  21.31299 -157.88883     218   0.0 Hikianalia
  2021-07-01T21:17:24UTC 2021-07-01T11:17:24-10:00 2021-07-01T10:17:24-11:00  21.31308 -157.88825       0   0.0 Hōkūleʻa
  2021-07-01T21:10:52UTC 2021-07-01T11:10:52-10:00 2021-07-01T10:10:52-11:00  21.31312 -157.88873      64   0.0 Hikianalia
  2021-07-01T20:18:40UTC 2021-07-01T10:18:40-10:00 2021-07-01T09:18:40-11:00  21.31308 -157.88825       0   0.0 Hōkūleʻa
  2021-07-01T20:09:47UTC 2021-07-01T10:09:47-10:00 2021-07-01T09:09:47-11:00  21.31298 -157.88903     266   0.0 Hikianalia
  2021-07-01T19:26:54UTC 2021-07-01T09:26:54-10:00 2021-07-01T08:26:54-11:00  21.31308 -157.88825       0   0.0 Hōkūleʻa
  2021-07-01T19:10:46UTC 2021-07-01T09:10:46-10:00 2021-07-01T08:10:46-11:00  21.31299 -157.88886     244   0.0 Hikianalia
  2021-07-01T18:18:25UTC 2021-07-01T08:18:25-10:00 2021-07-01T07:18:25-11:00  21.31308 -157.88825       0   0.0 Hōkūleʻa
  2021-07-01T18:11:13UTC 2021-07-01T08:11:13-10:00 2021-07-01T07:11:13-11:00  21.31300 -157.88883      98   0.0 Hikianalia
  2021-07-01T17:18:29UTC 2021-07-01T07:18:29-10:00 2021-07-01T06:18:29-11:00  21.31308 -157.88825       0   0.0 Hōkūleʻa
  2021-07-01T17:09:45UTC 2021-07-01T07:09:45-10:00 2021-07-01T06:09:45-11:00  21.31302 -157.88892     270   0.0 Hikianalia
  2021-07-01T16:18:38UTC 2021-07-01T06:18:38-10:00 2021-07-01T05:18:38-11:00  21.31308 -157.88825       0   0.0 Hōkūleʻa
  2021-07-01T16:10:39UTC 2021-07-01T06:10:39-10:00 2021-07-01T05:10:39-11:00  21.31302 -157.88888     299   0.0 Hikianalia
  2021-07-01T15:19:42UTC 2021-07-01T05:19:42-10:00 2021-07-01T04:19:42-11:00  21.31308 -157.88825       0   0.0 Hōkūleʻa
  2021-07-01T15:11:14UTC 2021-07-01T05:11:14-10:00 2021-07-01T04:11:14-11:00  21.31300 -157.88886     160   0.0 Hikianalia
  2021-07-01T14:18:28UTC 2021-07-01T04:18:28-10:00 2021-07-01T03:18:28-11:00  21.31308 -157.88825       0   0.0 Hōkūleʻa
  2021-07-01T14:10:46UTC 2021-07-01T04:10:46-10:00 2021-07-01T03:10:46-11:00  21.31306 -157.88888     335   0.0 Hikianalia
  2021-07-01T13:18:27UTC 2021-07-01T03:18:27-10:00 2021-07-01T02:18:27-11:00  21.31308 -157.88825       0   0.0 Hōkūleʻa
  2021-07-01T13:10:39UTC 2021-07-01T03:10:39-10:00 2021-07-01T02:10:39-11:00  21.31297 -157.88883     180   0.0 Hikianalia
  2021-07-01T12:17:47UTC 2021-07-01T02:17:47-10:00 2021-07-01T01:17:47-11:00  21.31308 -157.88825     118   0.0 Hōkūleʻa
  2021-07-01T12:11:19UTC 2021-07-01T02:11:19-10:00 2021-07-01T01:11:19-11:00  21.31302 -157.88883     270   0.0 Hikianalia
  2021-07-01T11:18:21UTC 2021-07-01T01:18:21-10:00 2021-07-01T00:18:21-11:00  21.31318 -157.88845     298   0.0 Hōkūleʻa
  2021-07-01T11:10:49UTC 2021-07-01T01:10:49-10:00 2021-07-01T00:10:49-11:00  21.31302 -157.88881      62   0.0 Hikianalia
  2021-07-01T10:18:28UTC 2021-07-01T00:18:28-10:00 2021-06-30T23:18:28-11:00  21.31308 -157.88825       0   0.0 Hōkūleʻa
  2021-07-01T10:10:44UTC 2021-07-01T00:10:44-10:00 2021-06-30T23:10:44-11:00  21.31299 -157.88886     180   0.0 Hikianalia
  2021-07-01T09:18:24UTC 2021-06-30T23:18:24-10:00 2021-06-30T22:18:24-11:00  21.31308 -157.88825       0   0.0 Hōkūleʻa
  2021-07-01T09:11:19UTC 2021-06-30T23:11:19-10:00 2021-06-30T22:11:19-11:00  21.31302 -157.88886     334   0.0 Hikianalia
  2021-07-01T08:18:40UTC 2021-06-30T22:18:40-10:00 2021-06-30T21:18:40-11:00  21.31308 -157.88825       0   0.0 Hōkūleʻa
  2021-07-01T08:10:51UTC 2021-06-30T22:10:51-10:00 2021-06-30T21:10:51-11:00  21.31297 -157.88883       0   0.0 Hikianalia
  2021-07-01T07:19:16UTC 2021-06-30T21:19:16-10:00 2021-06-30T20:19:16-11:00  21.31297 -157.88883     180   0.0 Hikianalia
  2021-07-01T07:18:19UTC 2021-06-30T21:18:19-10:00 2021-06-30T20:18:19-11:00  21.31308 -157.88825       0   0.0 Hōkūleʻa
  2021-07-01T06:17:25UTC 2021-06-30T20:17:25-10:00 2021-06-30T19:17:25-11:00  21.31308 -157.88825       0   0.0 Hōkūleʻa
  2021-07-01T06:11:09UTC 2021-06-30T20:11:09-10:00 2021-06-30T19:11:09-11:00  21.31302 -157.88883       0   0.0 Hikianalia
  2021-07-01T05:18:21UTC 2021-06-30T19:18:21-10:00 2021-06-30T18:18:21-11:00  21.31308 -157.88825       0   0.0 Hōkūleʻa
  2021-07-01T05:10:45UTC 2021-06-30T19:10:45-10:00 2021-06-30T18:10:45-11:00  21.31297 -157.88883       0   0.0 Hikianalia
  2021-07-01T04:18:44UTC 2021-06-30T18:18:44-10:00 2021-06-30T17:18:44-11:00  21.31308 -157.88825       0   0.0 Hōkūleʻa
  2021-07-01T04:10:40UTC 2021-06-30T18:10:40-10:00 2021-06-30T17:10:40-11:00  21.31297 -157.88883     154   0.0 Hikianalia
  2021-07-01T03:18:28UTC 2021-06-30T17:18:28-10:00 2021-06-30T16:18:28-11:00  21.31308 -157.88825       0   0.0 Hōkūleʻa
  2021-07-01T03:10:20UTC 2021-06-30T17:10:20-10:00 2021-06-30T16:10:20-11:00  21.31302 -157.88886     334   0.0 Hikianalia
  2021-07-01T02:24:56UTC 2021-06-30T16:24:56-10:00 2021-06-30T15:24:56-11:00  21.31308 -157.88825       0   0.0 Hōkūleʻa
  2021-07-01T02:10:49UTC 2021-06-30T16:10:49-10:00 2021-06-30T15:10:49-11:00  21.31297 -157.88883     180   0.0 Hikianalia
  2021-07-01T01:18:26UTC 2021-06-30T15:18:26-10:00 2021-06-30T14:18:26-11:00  21.31308 -157.88825       0   0.0 Hōkūleʻa
  2021-07-01T01:10:18UTC 2021-06-30T15:10:18-10:00 2021-06-30T14:10:18-11:00  21.31299 -157.88883       0   0.0 Hikianalia
  2021-07-01T00:17:47UTC 2021-06-30T14:17:47-10:00 2021-06-30T13:17:47-11:00  21.31308 -157.88825       0   0.0 Hōkūleʻa
  2021-07-01T00:10:54UTC 2021-06-30T14:10:54-10:00 2021-06-30T13:10:54-11:00  21.31297 -157.88883       0   0.0 Hikianalia
  2021-06-30T23:18:30UTC 2021-06-30T13:18:30-10:00 2021-06-30T12:18:30-11:00  21.31308 -157.88825       0   0.0 Hōkūleʻa
  2021-06-30T23:09:47UTC 2021-06-30T13:09:47-10:00 2021-06-30T12:09:47-11:00  21.31297 -157.88883     147   0.0 Hikianalia
  2021-06-30T22:17:20UTC 2021-06-30T12:17:20-10:00 2021-06-30T11:17:20-11:00  21.31308 -157.88825       0   0.0 Hōkūleʻa
  2021-06-30T22:10:12UTC 2021-06-30T12:10:12-10:00 2021-06-30T11:10:12-11:00  21.31300 -157.88886     327   0.0 Hikianalia
  2021-06-30T21:18:25UTC 2021-06-30T11:18:25-10:00 2021-06-30T10:18:25-11:00  21.31308 -157.88825       0   0.0 Hōkūleʻa
  2021-06-30T21:10:44UTC 2021-06-30T11:10:44-10:00 2021-06-30T10:10:44-11:00  21.31297 -157.88883       0   0.0 Hikianalia
  2021-06-30T20:17:48UTC 2021-06-30T10:17:48-10:00 2021-06-30T09:17:48-11:00  21.31308 -157.88825       0   0.0 Hōkūleʻa
  2021-06-30T20:09:49UTC 2021-06-30T10:09:49-10:00 2021-06-30T09:09:49-11:00  21.31297 -157.88883     113   0.0 Hikianalia
  2021-06-30T19:20:50UTC 2021-06-30T09:20:50-10:00 2021-06-30T08:20:50-11:00  21.31302 -157.88894     276   0.0 Hikianalia
  2021-06-30T19:17:20UTC 2021-06-30T09:17:20-10:00 2021-06-30T08:17:20-11:00  21.31308 -157.88825       0   0.0 Hōkūleʻa
  2021-06-30T18:18:16UTC 2021-06-30T08:18:16-10:00 2021-06-30T07:18:16-11:00  21.31308 -157.88825       0   0.0 Hōkūleʻa
  2021-06-30T18:11:14UTC 2021-06-30T08:11:14-10:00 2021-06-30T07:11:14-11:00  21.31300 -157.88883     270   0.0 Hikianalia
  2021-06-30T17:18:19UTC 2021-06-30T07:18:19-10:00 2021-06-30T06:18:19-11:00  21.31308 -157.88825       0   0.0 Hōkūleʻa
  2021-06-30T17:10:45UTC 2021-06-30T07:10:45-10:00 2021-06-30T06:10:45-11:00  21.31300 -157.88879      75   0.0 Hikianalia
  2021-06-30T16:17:45UTC 2021-06-30T06:17:45-10:00 2021-06-30T05:17:45-11:00  21.31308 -157.88825       0   0.0 Hōkūleʻa
  2021-06-30T16:10:47UTC 2021-06-30T06:10:47-10:00 2021-06-30T05:10:47-11:00  21.31298 -157.88888     255   0.0 Hikianalia
  2021-06-30T15:18:23UTC 2021-06-30T05:18:23-10:00 2021-06-30T04:18:23-11:00  21.31308 -157.88825       0   0.0 Hōkūleʻa
  2021-06-30T15:11:20UTC 2021-06-30T05:11:20-10:00 2021-06-30T04:11:20-11:00  21.31299 -157.88883      19   0.0 Hikianalia
  2021-06-30T14:18:38UTC 2021-06-30T04:18:38-10:00 2021-06-30T03:18:38-11:00  21.31308 -157.88825       0   0.0 Hōkūleʻa
  2021-06-30T14:10:44UTC 2021-06-30T04:10:44-10:00 2021-06-30T03:10:44-11:00  21.31288 -157.88888     195   0.0 Hikianalia
  2021-06-30T13:29:31UTC 2021-06-30T03:29:31-10:00 2021-06-30T02:29:31-11:00  21.31308 -157.88825       0   0.0 Hōkūleʻa
  2021-06-30T13:21:01UTC 2021-06-30T03:21:01-10:00 2021-06-30T02:21:01-11:00  21.31303 -157.88883       0   0.0 Hikianalia
  2021-06-30T12:18:50UTC 2021-06-30T02:18:50-10:00 2021-06-30T01:18:50-11:00  21.31308 -157.88825       0   0.0 Hōkūleʻa
  2021-06-30T12:11:10UTC 2021-06-30T02:11:10-10:00 2021-06-30T01:11:10-11:00  21.31302 -157.88883     345   0.0 Hikianalia
  2021-06-30T11:18:19UTC 2021-06-30T01:18:19-10:00 2021-06-30T00:18:19-11:00  21.31308 -157.88825       0   0.0 Hōkūleʻa
  2021-06-30T11:10:45UTC 2021-06-30T01:10:45-10:00 2021-06-30T00:10:45-11:00  21.31294 -157.88881     180   0.0 Hikianalia
  2021-06-30T10:18:20UTC 2021-06-30T00:18:20-10:00 2021-06-29T23:18:20-11:00  21.31308 -157.88825       0   0.0 Hōkūleʻa
  2021-06-30T10:10:45UTC 2021-06-30T00:10:45-10:00 2021-06-29T23:10:45-11:00  21.31303 -157.88881     180   0.0 Hikianalia
  2021-06-30T09:18:26UTC 2021-06-29T23:18:26-10:00 2021-06-29T22:18:26-11:00  21.31308 -157.88825       0   0.0 Hōkūleʻa
  2021-06-30T09:10:10UTC 2021-06-29T23:10:10-10:00 2021-06-29T22:10:10-11:00  21.31304 -157.88881      17   0.0 Hikianalia
  2021-06-30T08:18:50UTC 2021-06-29T22:18:50-10:00 2021-06-29T21:18:50-11:00  21.31308 -157.88825       0   0.0 Hōkūleʻa
  2021-06-30T08:10:41UTC 2021-06-29T22:10:41-10:00 2021-06-29T21:10:41-11:00  21.31297 -157.88883     100   0.0 Hikianalia
  2021-06-30T07:17:23UTC 2021-06-29T21:17:23-10:00 2021-06-29T20:17:23-11:00  21.31308 -157.88825       0   0.0 Hōkūleʻa
  2021-06-30T07:09:41UTC 2021-06-29T21:09:41-10:00 2021-06-29T20:09:41-11:00  21.31299 -157.88896     270   0.0 Hikianalia
  2021-06-30T06:18:17UTC 2021-06-29T20:18:17-10:00 2021-06-29T19:18:17-11:00  21.31308 -157.88825       0   0.0 Hōkūleʻa
  2021-06-30T06:11:12UTC 2021-06-29T20:11:12-10:00 2021-06-29T19:11:12-11:00  21.31299 -157.88883     325   0.0 Hikianalia
  2021-06-30T05:18:29UTC 2021-06-29T19:18:29-10:00 2021-06-29T18:18:29-11:00  21.31308 -157.88825       0   0.0 Hōkūleʻa
  2021-06-30T05:10:46UTC 2021-06-29T19:10:46-10:00 2021-06-29T18:10:46-11:00  21.31291 -157.88877     118   0.0 Hikianalia
  2021-06-30T04:18:46UTC 2021-06-29T18:18:46-10:00 2021-06-29T17:18:46-11:00  21.31308 -157.88825      37   0.0 Hōkūleʻa
  2021-06-30T04:10:49UTC 2021-06-29T18:10:49-10:00 2021-06-29T17:10:49-11:00  21.31293 -157.88881     212   0.0 Hikianalia
  2021-06-30T03:17:18UTC 2021-06-29T17:17:18-10:00 2021-06-29T16:17:18-11:00  21.31303 -157.88830     217   0.0 Hōkūleʻa
  2021-06-30T03:10:44UTC 2021-06-29T17:10:44-10:00 2021-06-29T16:10:44-11:00  21.31299 -157.88877      90   0.0 Hikianalia
  2021-06-30T02:18:29UTC 2021-06-29T16:18:29-10:00 2021-06-29T15:18:29-11:00  21.31308 -157.88825       0   0.0 Hōkūleʻa
  2021-06-30T02:10:19UTC 2021-06-29T16:10:19-10:00 2021-06-29T15:10:19-11:00  21.31299 -157.88883     307   0.0 Hikianalia
  2021-06-30T01:17:25UTC 2021-06-29T15:17:25-10:00 2021-06-29T14:17:25-11:00  21.31308 -157.88825       0   0.0 Hōkūleʻa
  2021-06-30T01:10:47UTC 2021-06-29T15:10:47-10:00 2021-06-29T14:10:47-11:00  21.31292 -157.88873     133   0.0 Hikianalia
  2021-06-30T00:17:42UTC 2021-06-29T14:17:42-10:00 2021-06-29T13:17:42-11:00  21.31308 -157.88825       0   0.0 Hōkūleʻa
  2021-06-30T00:10:10UTC 2021-06-29T14:10:10-10:00 2021-06-29T13:10:10-11:00  21.31299 -157.88881     128   0.0 Hikianalia
  2021-06-29T23:18:29UTC 2021-06-29T13:18:29-10:00 2021-06-29T12:18:29-11:00  21.31308 -157.88825       0   0.0 Hōkūleʻa
  2021-06-29T23:10:49UTC 2021-06-29T13:10:49-10:00 2021-06-29T12:10:49-11:00  21.31306 -157.88890     275   0.0 Hikianalia
  2021-06-29T22:18:28UTC 2021-06-29T12:18:28-10:00 2021-06-29T11:18:28-11:00  21.31308 -157.88825       0   0.0 Hōkūleʻa
  2021-06-29T22:09:48UTC 2021-06-29T12:09:48-10:00 2021-06-29T11:09:48-11:00  21.31305 -157.88877      15   0.0 Hikianalia
  2021-06-29T21:20:45UTC 2021-06-29T11:20:45-10:00 2021-06-29T10:20:45-11:00  21.31297 -157.88879     119   0.0 Hikianalia
  2021-06-29T21:17:24UTC 2021-06-29T11:17:24-10:00 2021-06-29T10:17:24-11:00  21.31308 -157.88825       0   0.0 Hōkūleʻa
  2021-06-29T20:17:39UTC 2021-06-29T10:17:39-10:00 2021-06-29T09:17:39-11:00  21.31308 -157.88825       0   0.0 Hōkūleʻa
  2021-06-29T20:11:18UTC 2021-06-29T10:11:18-10:00 2021-06-29T09:11:18-11:00  21.31299 -157.88883     148   0.0 Hikianalia
  2021-06-29T19:18:28UTC 2021-06-29T09:18:28-10:00 2021-06-29T08:18:28-11:00  21.31308 -157.88825       0   0.0 Hōkūleʻa
  2021-06-29T19:09:38UTC 2021-06-29T09:09:38-10:00 2021-06-29T08:09:38-11:00  21.31309 -157.88890     347   0.0 Hikianalia
  2021-06-29T18:18:27UTC 2021-06-29T08:18:27-10:00 2021-06-29T07:18:27-11:00  21.31308 -157.88825       0   0.0 Hōkūleʻa
  2021-06-29T18:10:48UTC 2021-06-29T08:10:48-10:00 2021-06-29T07:10:48-11:00  21.31300 -157.88888       0   0.0 Hikianalia
  2021-06-29T17:18:27UTC 2021-06-29T07:18:27-10:00 2021-06-29T06:18:27-11:00  21.31308 -157.88825       0   0.0 Hōkūleʻa
  2021-06-29T17:11:07UTC 2021-06-29T07:11:07-10:00 2021-06-29T06:11:07-11:00  21.31300 -157.88888     284   0.0 Hikianalia
  2021-06-29T16:17:50UTC 2021-06-29T06:17:50-10:00 2021-06-29T05:17:50-11:00  21.31308 -157.88825       0   0.0 Hōkūleʻa
  2021-06-29T16:11:16UTC 2021-06-29T06:11:16-10:00 2021-06-29T05:11:16-11:00  21.31299 -157.88883       0   0.0 Hikianalia
  2021-06-29T15:18:20UTC 2021-06-29T05:18:20-10:00 2021-06-29T04:18:20-11:00  21.31308 -157.88825       0   0.0 Hōkūleʻa
  2021-06-29T15:10:48UTC 2021-06-29T05:10:48-10:00 2021-06-29T04:10:48-11:00  21.31295 -157.88883     212   0.0 Hikianalia
  2021-06-29T14:18:23UTC 2021-06-29T04:18:23-10:00 2021-06-29T03:18:23-11:00  21.31308 -157.88825       0   0.0 Hōkūleʻa
  2021-06-29T14:10:37UTC 2021-06-29T04:10:37-10:00 2021-06-29T03:10:37-11:00  21.31298 -157.88881      90   0.0 Hikianalia
  2021-06-29T13:18:43UTC 2021-06-29T03:18:43-10:00 2021-06-29T02:18:43-11:00  21.31308 -157.88825      97   0.0 Hōkūleʻa
  2021-06-29T13:10:56UTC 2021-06-29T03:10:56-10:00 2021-06-29T02:10:56-11:00  21.31298 -157.88883     180   0.0 Hikianalia
  2021-06-29T12:18:43UTC 2021-06-29T02:18:43-10:00 2021-06-29T01:18:43-11:00  21.31312 -157.88862     277   0.1 Hōkūleʻa
  2021-06-29T12:11:16UTC 2021-06-29T02:11:16-10:00 2021-06-29T01:11:16-11:00  21.31300 -157.88883      83   0.0 Hikianalia
  2021-06-29T11:18:33UTC 2021-06-29T01:18:33-10:00 2021-06-29T00:18:33-11:00  21.31299 -157.88757     134   0.2 Hōkūleʻa
  2021-06-29T11:10:42UTC 2021-06-29T01:10:42-10:00 2021-06-29T00:10:42-11:00  21.31299 -157.88892     276   0.0 Hikianalia
  2021-06-29T10:18:34UTC 2021-06-29T00:18:34-10:00 2021-06-28T23:18:34-11:00  21.31568 -157.89049     326   0.2 Hōkūleʻa
  2021-06-29T10:09:48UTC 2021-06-29T00:09:48-10:00 2021-06-28T23:09:48-11:00  21.31298 -157.88881     148   0.0 Hikianalia
  2021-06-29T09:18:28UTC 2021-06-28T23:18:28-10:00 2021-06-28T22:18:28-11:00  21.31310 -157.88862     180   0.0 Hōkūleʻa
  2021-06-29T09:11:12UTC 2021-06-28T23:11:12-10:00 2021-06-28T22:11:12-11:00  21.31302 -157.88883       0   0.0 Hikianalia
  2021-06-29T08:18:48UTC 2021-06-28T22:18:48-10:00 2021-06-28T21:18:48-11:00  21.31313 -157.88862       0   0.0 Hōkūleʻa
  2021-06-29T08:10:41UTC 2021-06-28T22:10:41-10:00 2021-06-28T21:10:41-11:00  21.31299 -157.88883     251   0.0 Hikianalia
  2021-06-29T07:18:21UTC 2021-06-28T21:18:21-10:00 2021-06-28T20:18:21-11:00  21.31310 -157.88862       0   0.0 Hōkūleʻa
  2021-06-29T07:10:48UTC 2021-06-28T21:10:48-10:00 2021-06-28T20:10:48-11:00  21.31302 -157.88877      80   0.0 Hikianalia
  2021-06-29T06:17:24UTC 2021-06-28T20:17:24-10:00 2021-06-28T19:17:24-11:00  21.31310 -157.88862       0   0.0 Hōkūleʻa
  2021-06-29T06:11:19UTC 2021-06-28T20:11:19-10:00 2021-06-28T19:11:19-11:00  21.31300 -157.88883       0   0.0 Hikianalia
  2021-06-29T05:18:20UTC 2021-06-28T19:18:20-10:00 2021-06-28T18:18:20-11:00  21.31310 -157.88862     180   0.0 Hōkūleʻa
  2021-06-29T05:10:41UTC 2021-06-28T19:10:41-10:00 2021-06-28T18:10:41-11:00  21.31297 -157.88883     180   0.0 Hikianalia
  2021-06-29T04:18:45UTC 2021-06-28T18:18:45-10:00 2021-06-28T17:18:45-11:00  21.31312 -157.88862       0   0.0 Hōkūleʻa
  2021-06-29T04:17:18UTC 2021-06-28T18:17:18-10:00 2021-06-28T17:17:18-11:00  21.31298 -157.88883     180   0.0 Hikianalia
  2021-06-29T03:18:25UTC 2021-06-28T17:18:25-10:00 2021-06-28T16:18:25-11:00  21.31310 -157.88862       0   0.0 Hōkūleʻa
  2021-06-29T03:10:24UTC 2021-06-28T17:10:24-10:00 2021-06-28T16:10:24-11:00  21.31300 -157.88883       0   0.0 Hikianalia
  2021-06-29T02:17:29UTC 2021-06-28T16:17:29-10:00 2021-06-28T15:17:29-11:00  21.31310 -157.88862     294   0.0 Hōkūleʻa
  2021-06-29T02:10:46UTC 2021-06-28T16:10:46-10:00 2021-06-28T15:10:46-11:00  21.31297 -157.88883       0   0.0 Hikianalia
  2021-06-29T01:18:27UTC 2021-06-28T15:18:27-10:00 2021-06-28T14:18:27-11:00  21.31305 -157.88849     127   0.0 Hōkūleʻa
  2021-06-29T01:10:50UTC 2021-06-28T15:10:50-10:00 2021-06-28T14:10:50-11:00  21.31297 -157.88883       0   0.0 Hikianalia
  2021-06-29T00:17:48UTC 2021-06-28T14:17:48-10:00 2021-06-28T13:17:48-11:00  21.31312 -157.88860     335   0.0 Hōkūleʻa
  2021-06-29T00:10:19UTC 2021-06-28T14:10:19-10:00 2021-06-28T13:10:19-11:00  21.31297 -157.88883       0   0.0 Hikianalia
  2021-06-28T23:27:46UTC 2021-06-28T13:27:46-10:00 2021-06-28T12:27:46-11:00  21.31297 -157.88883      25   0.0 Hikianalia
  2021-06-28T23:18:32UTC 2021-06-28T13:18:32-10:00 2021-06-28T12:18:32-11:00  21.31308 -157.88858     223   0.0 Hōkūleʻa
  2021-06-28T22:18:28UTC 2021-06-28T12:18:28-10:00 2021-06-28T11:18:28-11:00  21.31310 -157.88856      80   0.0 Hōkūleʻa
  2021-06-28T22:11:00UTC 2021-06-28T12:11:00-10:00 2021-06-28T11:11:00-11:00  21.31284 -157.88890     212   0.0 Hikianalia
  2021-06-28T21:17:40UTC 2021-06-28T11:17:40-10:00 2021-06-28T10:17:40-11:00  21.31309 -157.88862     180   0.0 Hōkūleʻa
  2021-06-28T21:09:48UTC 2021-06-28T11:09:48-10:00 2021-06-28T10:09:48-11:00  21.31294 -157.88883     180   0.0 Hikianalia
  2021-06-28T20:17:39UTC 2021-06-28T10:17:39-10:00 2021-06-28T09:17:39-11:00  21.31312 -157.88862     339   0.0 Hōkūleʻa
  2021-06-28T20:10:19UTC 2021-06-28T10:10:19-10:00 2021-06-28T09:10:19-11:00  21.31299 -157.88883     318   0.0 Hikianalia
  2021-06-28T19:18:26UTC 2021-06-28T09:18:26-10:00 2021-06-28T08:18:26-11:00  21.31307 -157.88860     118   0.0 Hōkūleʻa
  2021-06-28T19:10:49UTC 2021-06-28T09:10:49-10:00 2021-06-28T08:10:49-11:00  21.31297 -157.88881      90   0.0 Hikianalia
  2021-06-28T18:18:31UTC 2021-06-28T08:18:31-10:00 2021-06-28T07:18:31-11:00  21.31308 -157.88862     104   0.0 Hōkūleʻa
  2021-06-28T18:10:47UTC 2021-06-28T08:10:47-10:00 2021-06-28T07:10:47-11:00  21.31297 -157.88888     284   0.0 Hikianalia
  2021-06-28T17:18:28UTC 2021-06-28T07:18:28-10:00 2021-06-28T06:18:28-11:00  21.31309 -157.88866     270   0.0 Hōkūleʻa
  2021-06-28T17:09:46UTC 2021-06-28T07:09:46-10:00 2021-06-28T06:09:46-11:00  21.31296 -157.88883       0   0.0 Hikianalia
  2021-06-28T16:18:43UTC 2021-06-28T06:18:43-10:00 2021-06-28T05:18:43-11:00  21.31309 -157.88862     180   0.0 Hōkūleʻa
  2021-06-28T16:11:14UTC 2021-06-28T06:11:14-10:00 2021-06-28T05:11:14-11:00  21.31296 -157.88883     136   0.0 Hikianalia
  2021-06-28T15:18:27UTC 2021-06-28T05:18:27-10:00 2021-06-28T04:18:27-11:00  21.31311 -157.88862     234   0.0 Hōkūleʻa
  2021-06-28T15:10:49UTC 2021-06-28T05:10:49-10:00 2021-06-28T04:10:49-11:00  21.31300 -157.88888     211   0.0 Hikianalia
  2021-06-28T14:18:36UTC 2021-06-28T04:18:36-10:00 2021-06-28T03:18:36-11:00  21.31315 -157.88856      99   0.0 Hōkūleʻa
  2021-06-28T14:10:43UTC 2021-06-28T04:10:43-10:00 2021-06-28T03:10:43-11:00  21.31304 -157.88886       0   0.0 Hikianalia
  2021-06-28T13:18:26UTC 2021-06-28T03:18:26-10:00 2021-06-28T02:18:26-11:00  21.31317 -157.88862       0   0.0 Hōkūleʻa
  2021-06-28T13:11:48UTC 2021-06-28T03:11:48-10:00 2021-06-28T02:11:48-11:00  21.31302 -157.88886     298   0.0 Hikianalia
  2021-06-28T12:18:49UTC 2021-06-28T02:18:49-10:00 2021-06-28T01:18:49-11:00  21.31313 -157.88862     180   0.0 Hōkūleʻa
  2021-06-28T12:11:19UTC 2021-06-28T02:11:19-10:00 2021-06-28T01:11:19-11:00  21.31300 -157.88883      76   0.0 Hikianalia
  2021-06-28T11:18:28UTC 2021-06-28T01:18:28-10:00 2021-06-28T00:18:28-11:00  21.31317 -157.88862       0   0.0 Hōkūleʻa
  2021-06-28T11:09:52UTC 2021-06-28T01:09:52-10:00 2021-06-28T00:09:52-11:00  21.31299 -157.88888     180   0.0 Hikianalia
  2021-06-28T10:18:19UTC 2021-06-28T00:18:19-10:00 2021-06-27T23:18:19-11:00  21.31312 -157.88862     180   0.0 Hōkūleʻa
  2021-06-28T10:10:41UTC 2021-06-28T00:10:41-10:00 2021-06-27T23:10:41-11:00  21.31305 -157.88888     332   0.0 Hikianalia
  2021-06-28T09:18:43UTC 2021-06-27T23:18:43-10:00 2021-06-27T22:18:43-11:00  21.31313 -157.88862     289   0.0 Hōkūleʻa
  2021-06-28T09:10:48UTC 2021-06-27T23:10:48-10:00 2021-06-27T22:10:48-11:00  21.31297 -157.88883     180   0.0 Hikianalia
  2021-06-28T08:18:22UTC 2021-06-27T22:18:22-10:00 2021-06-27T21:18:22-11:00  21.31311 -157.88856      62   0.0 Hōkūleʻa
  2021-06-28T08:11:19UTC 2021-06-27T22:11:19-10:00 2021-06-27T21:11:19-11:00  21.31299 -157.88883       0   0.0 Hikianalia
  2021-06-28T07:18:29UTC 2021-06-27T21:18:29-10:00 2021-06-27T20:18:29-11:00  21.31308 -157.88862     201   0.0 Hōkūleʻa
  2021-06-28T07:10:49UTC 2021-06-27T21:10:49-10:00 2021-06-27T20:10:49-11:00  21.31296 -157.88883     147   0.0 Hikianalia
  2021-06-28T06:17:49UTC 2021-06-27T20:17:49-10:00 2021-06-27T19:17:49-11:00  21.31313 -157.88860     118   0.0 Hōkūleʻa
  2021-06-28T06:10:43UTC 2021-06-27T20:10:43-10:00 2021-06-27T19:10:43-11:00  21.31299 -157.88886     256   0.0 Hikianalia
  2021-06-28T05:18:20UTC 2021-06-27T19:18:20-10:00 2021-06-27T18:18:20-11:00  21.31314 -157.88862       0   0.0 Hōkūleʻa
  2021-06-28T05:10:50UTC 2021-06-27T19:10:50-10:00 2021-06-27T18:10:50-11:00  21.31300 -157.88881      76   0.0 Hikianalia
  2021-06-28T04:20:42UTC 2021-06-27T18:20:42-10:00 2021-06-27T17:20:42-11:00  21.31299 -157.88886     317   0.0 Hikianalia
  2021-06-28T04:18:29UTC 2021-06-27T18:18:29-10:00 2021-06-27T17:18:29-11:00  21.31311 -157.88862       0   0.0 Hōkūleʻa
  2021-06-28T03:18:53UTC 2021-06-27T17:18:53-10:00 2021-06-27T16:18:53-11:00  21.31311 -157.88862       0   0.0 Hōkūleʻa
  2021-06-28T03:10:11UTC 2021-06-27T17:10:11-10:00 2021-06-27T16:10:11-11:00  21.31297 -157.88883       0   0.0 Hikianalia
  2021-06-28T02:18:29UTC 2021-06-27T16:18:29-10:00 2021-06-27T15:18:29-11:00  21.31310 -157.88862     193   0.0 Hōkūleʻa
  2021-06-28T02:10:52UTC 2021-06-27T16:10:52-10:00 2021-06-27T15:10:52-11:00  21.31297 -157.88883     306   0.0 Hikianalia
  2021-06-28T01:18:28UTC 2021-06-27T15:18:28-10:00 2021-06-27T14:18:28-11:00  21.31319 -157.88860      21   0.0 Hōkūleʻa
  2021-06-28T01:10:49UTC 2021-06-27T15:10:49-10:00 2021-06-27T14:10:49-11:00  21.31289 -157.88871     132   0.0 Hikianalia
  2021-06-28T00:17:50UTC 2021-06-27T14:17:50-10:00 2021-06-27T13:17:50-11:00  21.31313 -157.88862     133   0.0 Hōkūleʻa
  2021-06-28T00:10:20UTC 2021-06-27T14:10:20-10:00 2021-06-27T13:10:20-11:00  21.31299 -157.88883       0   0.0 Hikianalia
  2021-06-27T23:27:09UTC 2021-06-27T13:27:09-10:00 2021-06-27T12:27:09-11:00  21.31321 -157.88871     317   0.0 Hōkūleʻa
  2021-06-27T23:09:39UTC 2021-06-27T13:09:39-10:00 2021-06-27T12:09:39-11:00  21.31297 -157.88883      41   0.0 Hikianalia
  2021-06-27T22:18:25UTC 2021-06-27T12:18:25-10:00 2021-06-27T11:18:25-11:00  21.31310 -157.88860     154   0.0 Hōkūleʻa
  2021-06-27T22:09:39UTC 2021-06-27T12:09:39-10:00 2021-06-27T11:09:39-11:00  21.31285 -157.88894     191   0.0 Hikianalia
  2021-06-27T21:18:26UTC 2021-06-27T11:18:26-10:00 2021-06-27T10:18:26-11:00  21.31314 -157.88862       0   0.0 Hōkūleʻa
  2021-06-27T21:10:48UTC 2021-06-27T11:10:48-10:00 2021-06-27T10:10:48-11:00  21.31307 -157.88890     337   0.0 Hikianalia
  2021-06-27T20:19:05UTC 2021-06-27T10:19:05-10:00 2021-06-27T09:19:05-11:00  21.31311 -157.88862       0   0.0 Hōkūleʻa
  2021-06-27T20:10:19UTC 2021-06-27T10:10:19-10:00 2021-06-27T09:10:19-11:00  21.31297 -157.88886     316   0.0 Hikianalia
  2021-06-27T19:32:07UTC 2021-06-27T09:32:07-10:00 2021-06-27T08:32:07-11:00  21.31308 -157.88862     180   0.0 Hōkūleʻa
  2021-06-27T19:10:48UTC 2021-06-27T09:10:48-10:00 2021-06-27T08:10:48-11:00  21.31295 -157.88883     180   0.0 Hikianalia
  2021-06-27T18:18:24UTC 2021-06-27T08:18:24-10:00 2021-06-27T07:18:24-11:00  21.31311 -157.88862      51   0.3 Hōkūleʻa
  2021-06-27T18:09:46UTC 2021-06-27T08:09:46-10:00 2021-06-27T07:09:46-11:00  21.31298 -157.88883      27   0.9 Hikianalia
  2021-06-27T17:18:29UTC 2021-06-27T07:18:29-10:00 2021-06-27T06:18:29-11:00  21.30944 -157.89345      66   5.9 Hōkūleʻa
  2021-06-27T17:10:44UTC 2021-06-27T07:10:44-10:00 2021-06-27T06:10:44-11:00  21.29922 -157.89632      73   6.3 Hikianalia
  2021-06-27T16:18:51UTC 2021-06-27T06:18:51-10:00 2021-06-27T05:18:51-11:00  21.27000 -157.98881      83   6.6 Hōkūleʻa
  2021-06-27T16:11:21UTC 2021-06-27T06:11:21-10:00 2021-06-27T05:11:21-11:00  21.26876 -158.00209      86   6.7 Hikianalia
  2021-06-27T15:18:31UTC 2021-06-27T05:18:31-10:00 2021-06-27T04:18:31-11:00  21.25694 -158.10680     111   6.9 Hōkūleʻa
  2021-06-27T15:10:48UTC 2021-06-27T05:10:48-10:00 2021-06-27T04:10:48-11:00  21.26015 -158.12289     107   7.0 Hikianalia
  2021-06-27T13:10:52UTC 2021-06-27T03:10:52-10:00 2021-06-27T02:10:52-11:00  21.32778 -158.36202     123   6.6 Hikianalia
  2021-06-27T12:18:49UTC 2021-06-27T02:18:49-10:00 2021-06-27T01:18:49-11:00  21.38165 -158.45051     114   6.8 Hōkūleʻa
  2021-06-27T12:10:13UTC 2021-06-27T02:10:13-10:00 2021-06-27T01:10:13-11:00  21.38895 -158.46180     112   7.1 Hikianalia
  2021-06-27T11:18:39UTC 2021-06-27T01:18:39-10:00 2021-06-27T00:18:39-11:00  21.42791 -158.56218     115   6.8 Hōkūleʻa
  2021-06-27T11:11:46UTC 2021-06-27T01:11:46-10:00 2021-06-27T00:11:46-11:00  21.43296 -158.57606     117   6.7 Hikianalia
  2021-06-27T10:18:29UTC 2021-06-27T00:18:29-10:00 2021-06-26T23:18:29-11:00  21.47589 -158.67277     132   6.9 Hōkūleʻa
  2021-06-27T10:10:52UTC 2021-06-27T00:10:52-10:00 2021-06-26T23:10:52-11:00  21.48419 -158.68414     132   6.9 Hikianalia
  2021-06-27T09:18:31UTC 2021-06-26T23:18:31-10:00 2021-06-26T22:18:31-11:00  21.55323 -158.76471     128   6.9 Hōkūleʻa
  2021-06-27T09:11:22UTC 2021-06-26T23:11:22-10:00 2021-06-26T22:11:22-11:00  21.56102 -158.77534     128   6.9 Hikianalia
  2021-06-27T08:18:54UTC 2021-06-26T22:18:54-10:00 2021-06-26T21:18:54-11:00  21.62465 -158.86145     124   6.8 Hōkūleʻa
  2021-06-27T08:10:51UTC 2021-06-26T22:10:51-10:00 2021-06-26T21:10:51-11:00  21.63295 -158.87432     123   6.8 Hikianalia
  2021-06-27T07:17:26UTC 2021-06-26T21:17:26-10:00 2021-06-26T20:17:26-11:00  21.68899 -158.96464     122   2.9 Hōkūleʻa
  2021-06-27T07:09:50UTC 2021-06-26T21:09:50-10:00 2021-06-26T20:09:50-11:00  21.69565 -158.97751     126   2.4 Hikianalia
  2021-06-27T06:18:24UTC 2021-06-26T20:18:24-10:00 2021-06-26T19:18:24-11:00  21.71416 -159.00843     246   0.2 Hōkūleʻa
  2021-06-27T06:11:14UTC 2021-06-26T20:11:14-10:00 2021-06-26T19:11:14-11:00  21.71879 -159.01124     246   0.3 Hikianalia
  2021-06-27T05:18:30UTC 2021-06-26T19:18:30-10:00 2021-06-26T18:18:30-11:00  21.71567 -159.00478     118   0.7 Hōkūleʻa
  2021-06-27T05:10:51UTC 2021-06-26T19:10:51-10:00 2021-06-26T18:10:51-11:00  21.72089 -159.00618      95   0.6 Hikianalia
  2021-06-27T04:18:52UTC 2021-06-26T18:18:52-10:00 2021-06-26T17:18:52-11:00  21.72106 -159.01556     104   3.1 Hōkūleʻa
  2021-06-27T04:10:51UTC 2021-06-26T18:10:51-10:00 2021-06-26T17:10:51-11:00  21.72180 -159.01744      89   1.2 Hikianalia
  2021-06-27T03:10:19UTC 2021-06-26T17:10:19-10:00 2021-06-26T16:10:19-11:00  21.72152 -159.03920     108   5.8 Hikianalia
  2021-06-27T02:17:32UTC 2021-06-26T16:17:32-10:00 2021-06-26T15:17:32-11:00  21.74749 -159.12544     107   6.9 Hōkūleʻa
  2021-06-27T02:10:43UTC 2021-06-26T16:10:43-10:00 2021-06-26T15:10:43-11:00  21.75090 -159.13756     107   5.8 Hikianalia
  2021-06-27T01:26:04UTC 2021-06-26T15:26:04-10:00 2021-06-26T14:26:04-11:00  21.77590 -159.22676     108   5.6 Hōkūleʻa
  2021-06-27T01:09:51UTC 2021-06-26T15:09:51-10:00 2021-06-26T14:09:51-11:00  21.77921 -159.23904     108   6.3 Hikianalia
  2021-06-27T00:18:52UTC 2021-06-26T14:18:52-10:00 2021-06-26T13:18:52-11:00  21.80861 -159.33321     106   6.2 Hōkūleʻa
  2021-06-27T00:10:14UTC 2021-06-26T14:10:14-10:00 2021-06-26T13:10:14-11:00  21.81156 -159.34583     106   6.3 Hikianalia
  2021-06-26T23:17:30UTC 2021-06-26T13:17:30-10:00 2021-06-26T12:17:30-11:00  21.83735 -159.44220     109   6.3 Hōkūleʻa
  2021-06-26T23:10:44UTC 2021-06-26T13:10:44-10:00 2021-06-26T12:10:44-11:00  21.84046 -159.45400     110   6.4 Hikianalia
  2021-06-26T22:24:40UTC 2021-06-26T12:24:40-10:00 2021-06-26T11:24:40-11:00  21.86821 -159.53556     110   5.0 Hōkūleʻa
  2021-06-26T22:19:35UTC 2021-06-26T12:19:35-10:00 2021-06-26T11:19:35-11:00  21.87126 -159.54680     113   4.9 Hikianalia
  2021-06-26T21:17:33UTC 2021-06-26T11:17:33-10:00 2021-06-26T10:17:33-11:00  21.90002 -159.63032     119   6.1 Hōkūleʻa
  2021-06-26T21:10:55UTC 2021-06-26T11:10:55-10:00 2021-06-26T10:10:55-11:00  21.90854 -159.63952     118   6.1 Hikianalia
  2021-06-26T20:17:53UTC 2021-06-26T10:17:53-10:00 2021-06-26T09:17:53-11:00  21.94955 -159.72493     129   7.0 Hōkūleʻa
  2021-06-26T20:10:20UTC 2021-06-26T10:10:20-10:00 2021-06-26T09:10:20-11:00  21.95658 -159.73724     131   6.8 Hikianalia
  2021-06-26T19:18:21UTC 2021-06-26T09:18:21-10:00 2021-06-26T08:18:21-11:00  22.02302 -159.82116     132   6.1 Hōkūleʻa
  2021-06-26T19:09:43UTC 2021-06-26T09:09:43-10:00 2021-06-26T08:09:43-11:00  22.03250 -159.83086     131   6.0 Hikianalia
  2021-06-26T18:18:32UTC 2021-06-26T08:18:32-10:00 2021-06-26T07:18:32-11:00  22.09059 -159.90227     123   6.2 Hōkūleʻa
  2021-06-26T18:10:49UTC 2021-06-26T08:10:49-10:00 2021-06-26T07:10:49-11:00  22.09728 -159.90948     122   7.7 Hikianalia
  2021-06-26T17:20:03UTC 2021-06-26T07:20:03-10:00 2021-06-26T06:20:03-11:00  22.15510 -160.00937     127   5.4 Hikianalia
  2021-06-26T17:17:23UTC 2021-06-26T07:17:23-10:00 2021-06-26T06:17:23-11:00  22.14776 -159.99778     126   6.5 Hōkūleʻa
  2021-06-26T16:18:45UTC 2021-06-26T06:18:45-10:00 2021-06-26T05:18:45-11:00  22.21057 -160.08898     124   6.4 Hōkūleʻa
  2021-06-26T16:11:13UTC 2021-06-26T06:11:13-10:00 2021-06-26T05:11:13-11:00  22.21779 -160.09904     124   7.4 Hikianalia
  2021-06-26T15:18:40UTC 2021-06-26T05:18:40-10:00 2021-06-26T04:18:40-11:00  22.27914 -160.19534     108   6.0 Hikianalia
  2021-06-26T15:18:25UTC 2021-06-26T05:18:25-10:00 2021-06-26T04:18:25-11:00  22.27034 -160.18491     111   6.8 Hōkūleʻa
  2021-06-26T14:19:23UTC 2021-06-26T04:19:23-10:00 2021-06-26T03:19:23-11:00  22.31105 -160.29686     106   6.9 Hōkūleʻa
  2021-06-26T14:10:43UTC 2021-06-26T04:10:43-10:00 2021-06-26T03:10:43-11:00  22.31458 -160.31173     106   7.0 Hikianalia
  2021-06-26T13:18:30UTC 2021-06-26T03:18:30-10:00 2021-06-26T02:18:30-11:00  22.34261 -160.41895     107   6.8 Hōkūleʻa
  2021-06-26T13:10:43UTC 2021-06-26T03:10:43-10:00 2021-06-26T02:10:43-11:00  22.34608 -160.43286     108   6.8 Hikianalia
  2021-06-26T12:18:51UTC 2021-06-26T02:18:51-10:00 2021-06-26T01:18:51-11:00  22.37459 -160.53463     114   6.4 Hōkūleʻa
  2021-06-26T12:11:15UTC 2021-06-26T02:11:15-10:00 2021-06-26T01:11:15-11:00  22.37991 -160.54804     114   6.5 Hikianalia
  2021-06-26T11:17:30UTC 2021-06-26T01:17:30-10:00 2021-06-26T00:17:30-11:00  22.41990 -160.64278     115   6.3 Hōkūleʻa
  2021-06-26T11:10:51UTC 2021-06-26T01:10:51-10:00 2021-06-26T00:10:51-11:00  22.42504 -160.65490     116   6.2 Hikianalia
  2021-06-26T10:18:21UTC 2021-06-26T00:18:21-10:00 2021-06-25T23:18:21-11:00  22.46455 -160.74446     115   6.3 Hōkūleʻa
  2021-06-26T10:10:50UTC 2021-06-26T00:10:50-10:00 2021-06-25T23:10:50-11:00  22.47039 -160.75573     115   6.3 Hikianalia
  2021-06-26T09:18:53UTC 2021-06-25T23:18:53-10:00 2021-06-25T22:18:53-11:00  22.50870 -160.84716     117   6.5 Hōkūleʻa
  2021-06-26T09:09:48UTC 2021-06-25T23:09:48-10:00 2021-06-25T22:09:48-11:00  22.51495 -160.86010     117   6.6 Hikianalia
  2021-06-26T08:18:22UTC 2021-06-25T22:18:22-10:00 2021-06-25T21:18:22-11:00  22.55873 -160.95237     125   6.5 Hōkūleʻa
  2021-06-26T08:11:15UTC 2021-06-25T22:11:15-10:00 2021-06-25T21:11:15-11:00  22.56395 -160.96406     126   6.7 Hikianalia
  2021-06-26T07:17:22UTC 2021-06-25T21:17:22-10:00 2021-06-25T20:17:22-11:00  22.62310 -161.04970     115   6.8 Hōkūleʻa
  2021-06-26T07:10:59UTC 2021-06-25T21:10:59-10:00 2021-06-25T20:10:59-11:00  22.63028 -161.06133     114   6.7 Hikianalia
  2021-06-26T06:18:44UTC 2021-06-25T20:18:44-10:00 2021-06-25T19:18:44-11:00  22.67012 -161.15847     119   6.9 Hōkūleʻa
  2021-06-26T06:11:00UTC 2021-06-25T20:11:00-10:00 2021-06-25T19:11:00-11:00  22.67572 -161.17233     118   6.9 Hikianalia
  2021-06-26T05:18:34UTC 2021-06-25T19:18:34-10:00 2021-06-25T18:18:34-11:00  22.72556 -161.26805     114   6.7 Hōkūleʻa
  2021-06-26T05:10:53UTC 2021-06-25T19:10:53-10:00 2021-06-25T18:10:53-11:00  22.73100 -161.28206     115   6.6 Hikianalia
  2021-06-26T04:18:27UTC 2021-06-25T18:18:27-10:00 2021-06-25T17:18:27-11:00  22.77129 -161.37888     120   6.3 Hōkūleʻa
  2021-06-26T04:10:14UTC 2021-06-25T18:10:14-10:00 2021-06-25T17:10:14-11:00  22.77739 -161.39056     119   6.3 Hikianalia
  2021-06-26T03:18:53UTC 2021-06-25T17:18:53-10:00 2021-06-25T16:18:53-11:00  22.82356 -161.47634     115   6.5 Hōkūleʻa
  2021-06-26T03:10:56UTC 2021-06-25T17:10:56-10:00 2021-06-25T16:10:56-11:00  22.82850 -161.48883     114   6.6 Hikianalia
  2021-06-26T02:17:21UTC 2021-06-25T16:17:21-10:00 2021-06-25T15:17:21-11:00  22.87082 -161.58610     115   6.7 Hōkūleʻa
  2021-06-26T02:09:50UTC 2021-06-25T16:09:50-10:00 2021-06-25T15:09:50-11:00  22.87538 -161.59987     116   6.6 Hikianalia
  2021-06-26T01:18:27UTC 2021-06-25T15:18:27-10:00 2021-06-25T14:18:27-11:00  22.91753 -161.69358     117   5.9 Hōkūleʻa
  2021-06-26T01:10:43UTC 2021-06-25T15:10:43-10:00 2021-06-25T14:10:43-11:00  22.92317 -161.70532     116   5.9 Hikianalia
  2021-06-26T00:17:51UTC 2021-06-25T14:17:51-10:00 2021-06-25T13:17:51-11:00  22.96221 -161.78997     115   6.1 Hōkūleʻa
  2021-06-26T00:10:20UTC 2021-06-25T14:10:20-10:00 2021-06-25T13:10:20-11:00  22.96587 -161.80136     115   6.0 Hikianalia
  2021-06-25T23:18:31UTC 2021-06-25T13:18:31-10:00 2021-06-25T12:18:31-11:00  23.00487 -161.88805     128   4.3 Hōkūleʻa
  2021-06-25T23:09:50UTC 2021-06-25T13:09:50-10:00 2021-06-25T12:09:50-11:00  23.00856 -161.89968     139   4.0 Hikianalia
  2021-06-25T22:17:30UTC 2021-06-25T12:17:30-10:00 2021-06-25T11:17:30-11:00  23.04978 -161.95041     233   1.2 Hōkūleʻa
  2021-06-25T22:09:50UTC 2021-06-25T12:09:50-10:00 2021-06-25T11:09:50-11:00  23.05844 -161.94710     262   0.8 Hikianalia
  2021-06-25T21:18:27UTC 2021-06-25T11:18:27-10:00 2021-06-25T10:18:27-11:00  23.06163 -161.93365     134   1.3 Hōkūleʻa
  2021-06-25T21:10:39UTC 2021-06-25T11:10:39-10:00 2021-06-25T10:10:39-11:00  23.06020 -161.93322     162   0.2 Hikianalia
  2021-06-25T20:20:12UTC 2021-06-25T10:20:12-10:00 2021-06-25T09:20:12-11:00  23.06336 -161.93436      52   0.6 Hikianalia
  2021-06-25T20:17:44UTC 2021-06-25T10:17:44-10:00 2021-06-25T09:17:44-11:00  23.07641 -161.95047     344   1.1 Hōkūleʻa
  2021-06-25T19:17:19UTC 2021-06-25T09:17:19-10:00 2021-06-25T08:17:19-11:00  23.05858 -161.94483      95   3.1 Hōkūleʻa
  2021-06-25T19:09:41UTC 2021-06-25T09:09:41-10:00 2021-06-25T08:09:41-11:00  23.05667 -161.94378      96   4.1 Hikianalia
  2021-06-25T18:18:26UTC 2021-06-25T08:18:26-10:00 2021-06-25T07:18:26-11:00  23.06333 -162.00038      96   7.9 Hōkūleʻa
  2021-06-25T18:10:50UTC 2021-06-25T08:10:50-10:00 2021-06-25T07:10:50-11:00  23.06360 -162.01650      96   6.8 Hikianalia
  2021-06-25T17:26:11UTC 2021-06-25T07:26:11-10:00 2021-06-25T06:26:11-11:00  23.07449 -162.12469      94   6.1 Hōkūleʻa
  2021-06-25T17:10:50UTC 2021-06-25T07:10:50-10:00 2021-06-25T06:10:50-11:00  23.07554 -162.13887      94   7.0 Hikianalia
  2021-06-25T16:18:44UTC 2021-06-25T06:18:44-10:00 2021-06-25T05:18:44-11:00  23.08244 -162.24925      94   6.8 Hōkūleʻa
  2021-06-25T16:11:20UTC 2021-06-25T06:11:20-10:00 2021-06-25T05:11:20-11:00  23.08343 -162.26403      94   6.7 Hikianalia
  2021-06-25T15:18:31UTC 2021-06-25T05:18:31-10:00 2021-06-25T04:18:31-11:00  23.09056 -162.37192      93   6.6 Hōkūleʻa
  2021-06-25T15:10:39UTC 2021-06-25T05:10:39-10:00 2021-06-25T04:10:39-11:00  23.09055 -162.38598      93   6.7 Hikianalia
  2021-06-25T14:18:28UTC 2021-06-25T04:18:28-10:00 2021-06-25T03:18:28-11:00  23.09605 -162.49155      97   7.0 Hōkūleʻa
  2021-06-25T14:10:51UTC 2021-06-25T04:10:51-10:00 2021-06-25T03:10:51-11:00  23.09738 -162.50612      96   7.1 Hikianalia
  2021-06-25T13:18:42UTC 2021-06-25T03:18:42-10:00 2021-06-25T02:18:42-11:00  23.10937 -162.61594      95   7.4 Hōkūleʻa
  2021-06-25T13:12:17UTC 2021-06-25T03:12:17-10:00 2021-06-25T02:12:17-11:00  23.11052 -162.63107      95   7.3 Hikianalia
  2021-06-25T12:18:33UTC 2021-06-25T02:18:33-10:00 2021-06-25T01:18:33-11:00  23.11958 -162.74958      97   7.8 Hōkūleʻa
  2021-06-25T12:10:52UTC 2021-06-25T02:10:52-10:00 2021-06-25T01:10:52-11:00  23.12150 -162.76580      97   7.8 Hikianalia
  2021-06-25T11:18:29UTC 2021-06-25T01:18:29-10:00 2021-06-25T00:18:29-11:00  23.13666 -162.88935      99   7.9 Hōkūleʻa
  2021-06-25T11:10:49UTC 2021-06-25T01:10:49-10:00 2021-06-25T00:10:49-11:00  23.13861 -162.90652     100   7.7 Hikianalia
  2021-06-25T10:18:50UTC 2021-06-25T00:18:50-10:00 2021-06-24T23:18:50-11:00  23.15747 -163.02881     100   7.3 Hōkūleʻa
  2021-06-25T10:10:22UTC 2021-06-25T00:10:22-10:00 2021-06-24T23:10:22-11:00  23.16048 -163.04456      99   7.4 Hikianalia
  2021-06-25T09:18:24UTC 2021-06-24T23:18:24-10:00 2021-06-24T22:18:24-11:00  23.17851 -163.16047     100   7.1 Hōkūleʻa
  2021-06-25T09:10:40UTC 2021-06-24T23:10:40-10:00 2021-06-24T22:10:40-11:00  23.18003 -163.17547     101   7.1 Hikianalia
  2021-06-25T08:18:28UTC 2021-06-24T22:18:28-10:00 2021-06-24T21:18:28-11:00  23.20005 -163.28643     100   7.0 Hōkūleʻa
  2021-06-25T08:10:51UTC 2021-06-24T22:10:51-10:00 2021-06-24T21:10:51-11:00  23.20328 -163.30145     100   7.0 Hikianalia
  2021-06-25T07:18:24UTC 2021-06-24T21:18:24-10:00 2021-06-24T20:18:24-11:00  23.22057 -163.41077     100   7.2 Hōkūleʻa
  2021-06-25T07:10:52UTC 2021-06-24T21:10:52-10:00 2021-06-24T20:10:52-11:00  23.22265 -163.42584     100   7.2 Hikianalia
  2021-06-25T06:18:52UTC 2021-06-24T20:18:52-10:00 2021-06-24T19:18:52-11:00  23.24107 -163.53789     105   7.4 Hōkūleʻa
  2021-06-25T06:11:22UTC 2021-06-24T20:11:22-10:00 2021-06-24T19:11:22-11:00  23.24359 -163.55308     106   7.4 Hikianalia
  2021-06-25T05:18:30UTC 2021-06-24T19:18:30-10:00 2021-06-24T18:18:30-11:00  23.27311 -163.66739     106   7.3 Hōkūleʻa
  2021-06-25T05:10:49UTC 2021-06-24T19:10:49-10:00 2021-06-24T18:10:49-11:00  23.27830 -163.68264     104   7.5 Hikianalia
  2021-06-25T04:17:20UTC 2021-06-24T18:17:20-10:00 2021-06-24T17:17:20-11:00  23.30685 -163.79757      97   7.7 Hōkūleʻa
  2021-06-25T04:10:51UTC 2021-06-24T18:10:51-10:00 2021-06-24T17:10:51-11:00  23.30850 -163.81379      98   7.4 Hikianalia
  2021-06-25T03:18:49UTC 2021-06-24T17:18:49-10:00 2021-06-24T16:18:49-11:00  23.32317 -163.93185      96   7.2 Hōkūleʻa
  2021-06-25T03:10:11UTC 2021-06-24T17:10:11-10:00 2021-06-24T16:10:11-11:00  23.32541 -163.94767      96   7.5 Hikianalia
  2021-06-25T02:17:31UTC 2021-06-24T16:17:31-10:00 2021-06-24T15:17:31-11:00  23.33716 -164.06476      98   7.5 Hōkūleʻa
  2021-06-25T02:10:51UTC 2021-06-24T16:10:51-10:00 2021-06-24T15:10:51-11:00  23.33855 -164.08036      99   7.1 Hikianalia
  2021-06-25T01:18:27UTC 2021-06-24T15:18:27-10:00 2021-06-24T14:18:27-11:00  23.35450 -164.19696     114   6.7 Hōkūleʻa
  2021-06-25T01:09:48UTC 2021-06-24T15:09:48-10:00 2021-06-24T14:09:48-11:00  23.35826 -164.21035     115   6.9 Hikianalia
  2021-06-25T00:17:48UTC 2021-06-24T14:17:48-10:00 2021-06-24T13:17:48-11:00  23.39990 -164.30895     132   7.2 Hōkūleʻa
  2021-06-25T00:10:13UTC 2021-06-24T14:10:13-10:00 2021-06-24T13:10:13-11:00  23.40636 -164.32206     130   7.1 Hikianalia
  2021-06-24T23:18:32UTC 2021-06-24T13:18:32-10:00 2021-06-24T12:18:32-11:00  23.47901 -164.40534     119   4.4 Hōkūleʻa
  2021-06-24T23:09:42UTC 2021-06-24T13:09:42-10:00 2021-06-24T12:09:42-11:00  23.48397 -164.42130     123   4.6 Hikianalia
  2021-06-24T22:20:20UTC 2021-06-24T12:20:20-10:00 2021-06-24T11:20:20-11:00  23.51789 -164.47855     131   1.6 Hikianalia
  2021-06-24T22:17:25UTC 2021-06-24T12:17:25-10:00 2021-06-24T11:17:25-11:00  23.51543 -164.47703     133   1.9 Hōkūleʻa
  2021-06-24T21:17:22UTC 2021-06-24T11:17:22-10:00 2021-06-24T10:17:22-11:00  23.53687 -164.50200     103   5.9 Hōkūleʻa
  2021-06-24T21:10:39UTC 2021-06-24T11:10:39-10:00 2021-06-24T10:10:39-11:00  23.53812 -164.50389     102   6.6 Hikianalia
  2021-06-24T20:17:47UTC 2021-06-24T10:17:47-10:00 2021-06-24T09:17:47-11:00  23.55887 -164.60496     101   6.6 Hōkūleʻa
  2021-06-24T20:10:19UTC 2021-06-24T10:10:19-10:00 2021-06-24T09:10:19-11:00  23.56045 -164.62146     101   6.4 Hikianalia
  2021-06-24T19:18:28UTC 2021-06-24T09:18:28-10:00 2021-06-24T08:18:28-11:00  23.57997 -164.72046      95   7.6 Hōkūleʻa
  2021-06-24T19:09:49UTC 2021-06-24T09:09:49-10:00 2021-06-24T08:09:49-11:00  23.58190 -164.73690      94   7.8 Hikianalia
  2021-06-24T18:18:31UTC 2021-06-24T08:18:31-10:00 2021-06-24T07:18:31-11:00  23.59129 -164.85835      84   7.3 Hōkūleʻa
  2021-06-24T18:10:48UTC 2021-06-24T08:10:48-10:00 2021-06-24T07:10:48-11:00  23.59073 -164.87490      84   7.4 Hikianalia
  2021-06-24T17:17:29UTC 2021-06-24T07:17:29-10:00 2021-06-24T06:17:29-11:00  23.57928 -164.99328      87   7.0 Hōkūleʻa
  2021-06-24T17:10:43UTC 2021-06-24T07:10:43-10:00 2021-06-24T06:10:43-11:00  23.57840 -165.00864      86   6.9 Hikianalia
  2021-06-24T16:18:44UTC 2021-06-24T06:18:44-10:00 2021-06-24T05:18:44-11:00  23.57242 -165.11777      87   6.7 Hōkūleʻa
  2021-06-24T16:11:22UTC 2021-06-24T06:11:22-10:00 2021-06-24T05:11:22-11:00  23.57136 -165.13191      87   6.7 Hikianalia
  2021-06-24T15:18:21UTC 2021-06-24T05:18:21-10:00 2021-06-24T04:18:21-11:00  23.56588 -165.23968      83   6.6 Hōkūleʻa
  2021-06-24T15:10:48UTC 2021-06-24T05:10:48-10:00 2021-06-24T04:10:48-11:00  23.56506 -165.25403      83   6.6 Hikianalia
  2021-06-24T14:18:28UTC 2021-06-24T04:18:28-10:00 2021-06-24T03:18:28-11:00  23.55214 -165.35840      88   6.3 Hōkūleʻa
  2021-06-24T14:10:55UTC 2021-06-24T04:10:55-10:00 2021-06-24T03:10:55-11:00  23.55173 -165.37201      88   6.2 Hikianalia
  2021-06-24T13:18:51UTC 2021-06-24T03:18:51-10:00 2021-06-24T02:18:51-11:00  23.54764 -165.47241      90   6.4 Hōkūleʻa
  2021-06-24T13:10:00UTC 2021-06-24T03:10:00-10:00 2021-06-24T02:10:00-11:00  23.54776 -165.48646      91   6.7 Hikianalia
  2021-06-24T12:18:22UTC 2021-06-24T02:18:22-10:00 2021-06-24T01:18:22-11:00  23.54687 -165.59029      99   7.0 Hōkūleʻa
  2021-06-24T12:11:11UTC 2021-06-24T02:11:11-10:00 2021-06-24T01:11:11-11:00  23.54990 -165.60598      98   7.0 Hikianalia
  2021-06-24T11:18:31UTC 2021-06-24T01:18:31-10:00 2021-06-24T00:18:31-11:00  23.56441 -165.71606      98   7.2 Hōkūleʻa
  2021-06-24T11:10:44UTC 2021-06-24T01:10:44-10:00 2021-06-24T00:10:44-11:00  23.56681 -165.73172      97   7.2 Hikianalia
  2021-06-24T10:18:53UTC 2021-06-24T00:18:53-10:00 2021-06-23T23:18:53-11:00  23.58038 -165.84549      91   6.9 Hōkūleʻa
  2021-06-24T10:10:47UTC 2021-06-24T00:10:47-10:00 2021-06-23T23:10:47-11:00  23.58162 -165.86152      90   6.8 Hikianalia
  2021-06-24T09:18:23UTC 2021-06-23T23:18:23-10:00 2021-06-23T22:18:23-11:00  23.58177 -165.97164      94   6.7 Hōkūleʻa
  2021-06-24T09:10:43UTC 2021-06-23T23:10:43-10:00 2021-06-23T22:10:43-11:00  23.58197 -165.98557      95   6.6 Hikianalia
  2021-06-24T08:18:29UTC 2021-06-23T22:18:29-10:00 2021-06-23T21:18:29-11:00  23.58994 -166.09187     106   6.7 Hōkūleʻa
  2021-06-24T08:10:20UTC 2021-06-23T22:10:20-10:00 2021-06-23T21:10:20-11:00  23.59137 -166.10547     107   6.8 Hikianalia
  2021-06-24T07:18:29UTC 2021-06-23T21:18:29-10:00 2021-06-23T20:18:29-11:00  23.62176 -166.20913     128   4.7 Hōkūleʻa
  2021-06-24T07:10:42UTC 2021-06-23T21:10:42-10:00 2021-06-23T20:10:42-11:00  23.62375 -166.22349     135   4.3 Hikianalia
  2021-06-24T06:18:49UTC 2021-06-23T20:18:49-10:00 2021-06-23T19:18:49-11:00  23.66952 -166.27567     165   5.7 Hōkūleʻa
  2021-06-24T06:10:52UTC 2021-06-23T20:10:52-10:00 2021-06-23T19:10:52-11:00  23.67452 -166.27846     166   6.2 Hikianalia
  2021-06-24T05:18:30UTC 2021-06-23T19:18:30-10:00 2021-06-23T18:18:30-11:00  23.76256 -166.30292     178   4.9 Hōkūleʻa
  2021-06-24T05:10:43UTC 2021-06-23T19:10:43-10:00 2021-06-23T18:10:43-11:00  23.77559 -166.30535     179   4.3 Hikianalia
  2021-06-24T04:18:54UTC 2021-06-23T18:18:54-10:00 2021-06-23T17:18:54-11:00  23.84453 -166.30651     220   0.3 Hōkūleʻa
  2021-06-24T04:10:22UTC 2021-06-23T18:10:22-10:00 2021-06-23T17:10:22-11:00  23.84780 -166.30722     234   0.2 Hikianalia
  2021-06-24T03:18:29UTC 2021-06-23T17:18:29-10:00 2021-06-23T16:18:29-11:00  23.84776 -166.30357       0   0.0 Hōkūleʻa
  2021-06-24T03:10:49UTC 2021-06-23T17:10:49-10:00 2021-06-23T16:10:49-11:00  23.84971 -166.30441       0   0.0 Hikianalia
  2021-06-24T02:18:45UTC 2021-06-23T16:18:45-10:00 2021-06-23T15:18:45-11:00  23.84971 -166.30441       0   0.0 Hikianalia
  2021-06-24T02:17:48UTC 2021-06-23T16:17:48-10:00 2021-06-23T15:17:48-11:00  23.84776 -166.30357      87   0.0 Hōkūleʻa
  2021-06-24T01:18:26UTC 2021-06-23T15:18:26-10:00 2021-06-23T14:18:26-11:00  23.84775 -166.30376     267   0.0 Hōkūleʻa
  2021-06-24T01:10:48UTC 2021-06-23T15:10:48-10:00 2021-06-23T14:10:48-11:00  23.84971 -166.30441       0   0.0 Hikianalia
  2021-06-24T00:19:36UTC 2021-06-23T14:19:36-10:00 2021-06-23T13:19:36-11:00  23.84971 -166.30441       0   0.0 Hikianalia
  2021-06-24T00:18:27UTC 2021-06-23T14:18:27-10:00 2021-06-23T13:18:27-11:00  23.84776 -166.30357       0   0.0 Hōkūleʻa
  2021-06-23T23:17:47UTC 2021-06-23T13:17:47-10:00 2021-06-23T12:17:47-11:00  23.84776 -166.30357       0   0.0 Hōkūleʻa
  2021-06-23T23:09:50UTC 2021-06-23T13:09:50-10:00 2021-06-23T12:09:50-11:00  23.84971 -166.30441       0   0.0 Hikianalia
  2021-06-23T22:17:37UTC 2021-06-23T12:17:37-10:00 2021-06-23T11:17:37-11:00  23.84776 -166.30357       0   0.0 Hōkūleʻa
  2021-06-23T22:09:39UTC 2021-06-23T12:09:39-10:00 2021-06-23T11:09:39-11:00  23.84971 -166.30441       0   0.0 Hikianalia
  2021-06-23T21:24:34UTC 2021-06-23T11:24:34-10:00 2021-06-23T10:24:34-11:00  23.84776 -166.30357       0   0.0 Hōkūleʻa
  2021-06-23T21:10:48UTC 2021-06-23T11:10:48-10:00 2021-06-23T10:10:48-11:00  23.84971 -166.30441       0   0.0 Hikianalia
  2021-06-23T20:18:54UTC 2021-06-23T10:18:54-10:00 2021-06-23T09:18:54-11:00  23.84776 -166.30357       0   0.0 Hōkūleʻa
  2021-06-23T20:11:16UTC 2021-06-23T10:11:16-10:00 2021-06-23T09:11:16-11:00  23.84971 -166.30441       0   0.0 Hikianalia
  2021-06-23T19:18:28UTC 2021-06-23T09:18:28-10:00 2021-06-23T08:18:28-11:00  23.84776 -166.30357       0   0.0 Hōkūleʻa
  2021-06-23T19:09:40UTC 2021-06-23T09:09:40-10:00 2021-06-23T08:09:40-11:00  23.84971 -166.30441       0   0.0 Hikianalia
  2021-06-23T18:10:39UTC 2021-06-23T08:10:39-10:00 2021-06-23T07:10:39-11:00  23.84971 -166.30441       0   0.0 Hikianalia
  2021-06-23T17:18:16UTC 2021-06-23T07:18:16-10:00 2021-06-23T06:18:16-11:00  23.84776 -166.30357       0   0.0 Hōkūleʻa
  2021-06-23T16:11:16UTC 2021-06-23T06:11:16-10:00 2021-06-23T05:11:16-11:00  23.84971 -166.30441       0   0.0 Hikianalia
  2021-06-23T15:18:27UTC 2021-06-23T05:18:27-10:00 2021-06-23T04:18:27-11:00  23.84776 -166.30357       0   0.0 Hōkūleʻa
  2021-06-23T15:10:46UTC 2021-06-23T05:10:46-10:00 2021-06-23T04:10:46-11:00  23.84971 -166.30441       0   0.0 Hikianalia
  2021-06-23T14:18:28UTC 2021-06-23T04:18:28-10:00 2021-06-23T03:18:28-11:00  23.84776 -166.30357       0   0.0 Hōkūleʻa
  2021-06-23T14:10:51UTC 2021-06-23T04:10:51-10:00 2021-06-23T03:10:51-11:00  23.84971 -166.30441     154   0.0 Hikianalia
  2021-06-23T13:18:34UTC 2021-06-23T03:18:34-10:00 2021-06-23T02:18:34-11:00  23.84776 -166.30357      32   0.0 Hōkūleʻa
  2021-06-23T13:10:49UTC 2021-06-23T03:10:49-10:00 2021-06-23T02:10:49-11:00  23.84991 -166.30451     342   0.0 Hikianalia
  2021-06-23T12:18:52UTC 2021-06-23T02:18:52-10:00 2021-06-23T01:18:52-11:00  23.84753 -166.30372     270   0.0 Hōkūleʻa
  2021-06-23T12:11:30UTC 2021-06-23T02:11:30-10:00 2021-06-23T01:11:30-11:00  23.84919 -166.30426       3   0.2 Hikianalia
  2021-06-23T11:17:22UTC 2021-06-23T01:17:22-10:00 2021-06-23T00:17:22-11:00  23.84753 -166.30316      12   0.9 Hōkūleʻa
  2021-06-23T11:10:52UTC 2021-06-23T01:10:52-10:00 2021-06-23T00:10:52-11:00  23.84628 -166.30445      10   0.5 Hikianalia
  2021-06-23T10:18:34UTC 2021-06-23T00:18:34-10:00 2021-06-22T23:18:34-11:00  23.83280 -166.30670     192   0.9 Hōkūleʻa
  2021-06-23T10:10:58UTC 2021-06-23T00:10:58-10:00 2021-06-22T23:10:58-11:00  23.83841 -166.30591     186   0.7 Hikianalia
  2021-06-23T09:18:43UTC 2021-06-22T23:18:43-10:00 2021-06-22T22:18:43-11:00  23.84769 -166.30314     180   0.0 Hōkūleʻa
  2021-06-23T09:11:12UTC 2021-06-22T23:11:12-10:00 2021-06-22T22:11:12-11:00  23.84961 -166.30458       0   0.0 Hikianalia
  2021-06-23T08:18:50UTC 2021-06-22T22:18:50-10:00 2021-06-22T21:18:50-11:00  23.84770 -166.30314     250   0.2 Hōkūleʻa
  2021-06-23T08:11:15UTC 2021-06-22T22:11:15-10:00 2021-06-22T21:11:15-11:00  23.84961 -166.30458       0   0.0 Hikianalia
  2021-06-23T07:18:27UTC 2021-06-22T21:18:27-10:00 2021-06-22T20:18:27-11:00  23.84890 -166.29958      95   0.2 Hōkūleʻa
  2021-06-23T07:10:50UTC 2021-06-22T21:10:50-10:00 2021-06-22T20:10:50-11:00  23.84961 -166.30458     134   0.0 Hikianalia
  2021-06-23T06:18:33UTC 2021-06-22T20:18:33-10:00 2021-06-22T19:18:33-11:00  23.84922 -166.30340      55   0.1 Hōkūleʻa
  2021-06-23T06:10:58UTC 2021-06-22T20:10:58-10:00 2021-06-22T19:10:58-11:00  23.84969 -166.30466      96   0.0 Hikianalia
  2021-06-23T05:18:29UTC 2021-06-22T19:18:29-10:00 2021-06-22T18:18:29-11:00  23.84853 -166.30445     329   0.2 Hōkūleʻa
  2021-06-23T05:10:50UTC 2021-06-22T19:10:50-10:00 2021-06-22T18:10:50-11:00  23.84975 -166.30531     327   0.2 Hikianalia
  2021-06-23T04:17:52UTC 2021-06-22T18:17:52-10:00 2021-06-22T17:17:52-11:00  23.84622 -166.30297     310   3.3 Hōkūleʻa
  2021-06-23T04:10:22UTC 2021-06-22T18:10:22-10:00 2021-06-22T17:10:22-11:00  23.84699 -166.30335     311   4.1 Hikianalia
  2021-06-23T03:18:35UTC 2021-06-22T17:18:35-10:00 2021-06-22T16:18:35-11:00  23.81120 -166.25756     324   2.1 Hōkūleʻa
  2021-06-23T03:10:54UTC 2021-06-22T17:10:54-10:00 2021-06-22T16:10:54-11:00  23.80222 -166.24756     329   1.4 Hikianalia
  2021-06-23T02:17:28UTC 2021-06-22T16:17:28-10:00 2021-06-22T15:17:28-11:00  23.78214 -166.23501     143   0.7 Hōkūleʻa
  2021-06-23T02:09:50UTC 2021-06-22T16:09:50-10:00 2021-06-22T15:09:50-11:00  23.78194 -166.23409     146   0.6 Hikianalia
  2021-06-23T01:18:20UTC 2021-06-22T15:18:20-10:00 2021-06-22T14:18:20-11:00  23.79152 -166.24267      44   1.7 Hōkūleʻa
  2021-06-23T01:10:41UTC 2021-06-22T15:10:41-10:00 2021-06-22T14:10:41-11:00  23.79080 -166.24055      47   1.7 Hikianalia
  2021-06-23T00:17:50UTC 2021-06-22T14:17:50-10:00 2021-06-22T13:17:50-11:00  23.77119 -166.26409     216   0.0 Hōkūleʻa
  2021-06-23T00:10:20UTC 2021-06-22T14:10:20-10:00 2021-06-22T13:10:20-11:00  23.77137 -166.26316     330   0.0 Hikianalia
  2021-06-22T23:18:29UTC 2021-06-22T13:18:29-10:00 2021-06-22T12:18:29-11:00  23.77130 -166.26400      36   0.0 Hōkūleʻa
  2021-06-22T23:10:47UTC 2021-06-22T13:10:47-10:00 2021-06-22T12:10:47-11:00  23.77119 -166.26306     163   0.0 Hikianalia
  2021-06-22T22:17:24UTC 2021-06-22T12:17:24-10:00 2021-06-22T11:17:24-11:00  23.77119 -166.26409     158   0.0 Hōkūleʻa
  2021-06-22T22:09:51UTC 2021-06-22T12:09:51-10:00 2021-06-22T11:09:51-11:00  23.77132 -166.26310     108   0.0 Hikianalia
  2021-06-22T21:18:23UTC 2021-06-22T11:18:23-10:00 2021-06-22T10:18:23-11:00  23.77144 -166.26419     336   0.1 Hōkūleʻa
  2021-06-22T21:10:47UTC 2021-06-22T11:10:47-10:00 2021-06-22T10:10:47-11:00  23.77136 -166.26321     331   0.0 Hikianalia
  2021-06-22T20:27:53UTC 2021-06-22T10:27:53-10:00 2021-06-22T09:27:53-11:00  23.77054 -166.26376     183   0.1 Hōkūleʻa
  2021-06-22T20:10:18UTC 2021-06-22T10:10:18-10:00 2021-06-22T09:10:18-11:00  23.77114 -166.26308     176   0.2 Hikianalia
  2021-06-22T19:18:20UTC 2021-06-22T09:18:20-10:00 2021-06-22T08:18:20-11:00  23.77301 -166.26363       4   3.8 Hōkūleʻa
  2021-06-22T19:09:41UTC 2021-06-22T09:09:41-10:00 2021-06-22T08:09:41-11:00  23.77449 -166.26331       3   4.6 Hikianalia
  2021-06-22T18:18:29UTC 2021-06-22T08:18:29-10:00 2021-06-22T07:18:29-11:00  23.70959 -166.26827     335   4.4 Hōkūleʻa
  2021-06-22T18:10:47UTC 2021-06-22T08:10:47-10:00 2021-06-22T07:10:47-11:00  23.69985 -166.26821     328   4.4 Hikianalia
  2021-06-22T17:18:31UTC 2021-06-22T07:18:31-10:00 2021-06-22T06:18:31-11:00  23.64202 -166.23454     289   4.9 Hōkūleʻa
  2021-06-22T17:10:41UTC 2021-06-22T07:10:41-10:00 2021-06-22T06:10:41-11:00  23.63733 -166.22527     287   4.8 Hikianalia
  2021-06-22T16:18:45UTC 2021-06-22T06:18:45-10:00 2021-06-22T05:18:45-11:00  23.61506 -166.15148     291   5.6 Hōkūleʻa
  2021-06-22T16:11:17UTC 2021-06-22T06:11:17-10:00 2021-06-22T05:11:17-11:00  23.61380 -166.14257     293   5.9 Hikianalia
  2021-06-22T15:18:22UTC 2021-06-22T05:18:22-10:00 2021-06-22T04:18:22-11:00  23.58045 -166.05550     296   6.7 Hōkūleʻa
  2021-06-22T15:10:47UTC 2021-06-22T05:10:47-10:00 2021-06-22T04:10:47-11:00  23.57412 -166.04329     292   6.7 Hikianalia
  2021-06-22T14:18:31UTC 2021-06-22T04:18:31-10:00 2021-06-22T03:18:31-11:00  23.53170 -165.94696     262   7.2 Hōkūleʻa
  2021-06-22T14:11:16UTC 2021-06-22T04:11:16-10:00 2021-06-22T03:11:16-11:00  23.53317 -165.93141     262   7.1 Hikianalia
  2021-06-22T13:18:20UTC 2021-06-22T03:18:20-10:00 2021-06-22T02:18:20-11:00  23.54780 -165.81770     260   7.1 Hōkūleʻa
  2021-06-22T13:10:49UTC 2021-06-22T03:10:49-10:00 2021-06-22T02:10:49-11:00  23.54988 -165.80221     260   7.0 Hikianalia
  2021-06-22T12:18:51UTC 2021-06-22T02:18:51-10:00 2021-06-22T01:18:51-11:00  23.56834 -165.69271     261   8.2 Hōkūleʻa
  2021-06-22T12:11:18UTC 2021-06-22T02:11:18-10:00 2021-06-22T01:11:18-11:00  23.57095 -165.67833     262   7.0 Hikianalia
  2021-06-22T11:27:54UTC 2021-06-22T01:27:54-10:00 2021-06-22T00:27:54-11:00  23.58635 -165.56821     266   6.3 Hōkūleʻa
  2021-06-22T11:10:50UTC 2021-06-22T01:10:50-10:00 2021-06-22T00:10:50-11:00  23.58810 -165.55238     267   7.3 Hikianalia
  2021-06-22T10:18:28UTC 2021-06-22T00:18:28-10:00 2021-06-21T23:18:28-11:00  23.59428 -165.43644     265   8.3 Hōkūleʻa
  2021-06-22T10:10:50UTC 2021-06-22T00:10:50-10:00 2021-06-21T23:10:50-11:00  23.59556 -165.42071     264   8.4 Hikianalia
  2021-06-22T09:26:16UTC 2021-06-21T23:26:16-10:00 2021-06-21T22:26:16-11:00  23.60566 -165.30581     264   6.5 Hōkūleʻa
  2021-06-22T09:19:43UTC 2021-06-21T23:19:43-10:00 2021-06-21T22:19:43-11:00  23.60713 -165.29171     264   5.7 Hikianalia
  2021-06-22T08:26:31UTC 2021-06-21T22:26:31-10:00 2021-06-21T21:26:31-11:00  23.61800 -165.18835     267   5.4 Hōkūleʻa
  2021-06-22T08:10:52UTC 2021-06-21T22:10:52-10:00 2021-06-21T21:10:52-11:00  23.61856 -165.17393     267   6.0 Hikianalia
  2021-06-22T07:18:24UTC 2021-06-21T21:18:24-10:00 2021-06-21T20:18:24-11:00  23.62341 -165.07679     272   6.4 Hōkūleʻa
  2021-06-22T07:09:49UTC 2021-06-21T21:09:49-10:00 2021-06-21T20:09:49-11:00  23.62387 -165.06364     273   6.6 Hikianalia
  2021-06-22T06:18:33UTC 2021-06-21T20:18:33-10:00 2021-06-21T19:18:33-11:00  23.61935 -164.96053     282   6.5 Hōkūleʻa
  2021-06-22T06:11:13UTC 2021-06-21T20:11:13-10:00 2021-06-21T19:11:13-11:00  23.61749 -164.94764     282   6.6 Hikianalia
  2021-06-22T05:18:28UTC 2021-06-21T19:18:28-10:00 2021-06-21T18:18:28-11:00  23.59746 -164.84402     277   6.7 Hōkūleʻa
  2021-06-22T05:10:52UTC 2021-06-21T19:10:52-10:00 2021-06-21T18:10:52-11:00  23.59425 -164.83033     276   6.5 Hikianalia
  2021-06-22T04:18:50UTC 2021-06-21T18:18:50-10:00 2021-06-21T17:18:50-11:00  23.58378 -164.72396     275   1.8 Hōkūleʻa
  2021-06-22T04:10:50UTC 2021-06-21T18:10:50-10:00 2021-06-21T17:10:50-11:00  23.58251 -164.71229     274   1.8 Hikianalia
  2021-06-22T03:17:40UTC 2021-06-21T17:17:40-10:00 2021-06-21T16:17:40-11:00  23.58122 -164.69006     282   5.9 Hōkūleʻa
  2021-06-22T03:09:43UTC 2021-06-21T17:09:43-10:00 2021-06-21T16:09:43-11:00  23.58019 -164.67995     282   6.0 Hikianalia
  2021-06-22T02:18:29UTC 2021-06-21T16:18:29-10:00 2021-06-21T15:18:29-11:00  23.56139 -164.58740     278   5.5 Hōkūleʻa
  2021-06-22T02:11:12UTC 2021-06-21T16:11:12-10:00 2021-06-21T15:11:12-11:00  23.56054 -164.57681     278   5.6 Hikianalia
  2021-06-22T01:17:27UTC 2021-06-21T15:17:27-10:00 2021-06-21T14:17:27-11:00  23.54860 -164.48653     276   6.0 Hōkūleʻa
  2021-06-22T01:09:50UTC 2021-06-21T15:09:50-10:00 2021-06-21T14:09:50-11:00  23.54790 -164.47355     276   6.8 Hikianalia
  2021-06-22T00:17:44UTC 2021-06-21T14:17:44-10:00 2021-06-21T13:17:44-11:00  23.53753 -164.37869     277   5.8 Hōkūleʻa
  2021-06-22T00:16:59UTC 2021-06-21T14:16:59-10:00 2021-06-21T13:16:59-11:00  23.53680 -164.36598     277   5.1 Hikianalia
  2021-06-21T23:18:29UTC 2021-06-21T13:18:29-10:00 2021-06-21T12:18:29-11:00  23.52529 -164.27483     274   5.8 Hōkūleʻa
  2021-06-21T23:10:21UTC 2021-06-21T13:10:21-10:00 2021-06-21T12:10:21-11:00  23.52530 -164.26361     273   6.0 Hikianalia
  2021-06-21T22:17:29UTC 2021-06-21T12:17:29-10:00 2021-06-21T11:17:29-11:00  23.51914 -164.16874     281   5.5 Hōkūleʻa
  2021-06-21T22:10:50UTC 2021-06-21T12:10:50-10:00 2021-06-21T11:10:50-11:00  23.51935 -164.15673     282   5.4 Hikianalia
  2021-06-21T21:17:23UTC 2021-06-21T11:17:23-10:00 2021-06-21T10:17:23-11:00  23.50223 -164.07028     276   5.8 Hōkūleʻa
  2021-06-21T21:09:38UTC 2021-06-21T11:09:38-10:00 2021-06-21T10:09:38-11:00  23.50009 -164.05849     275   5.8 Hikianalia
  2021-06-21T20:18:42UTC 2021-06-21T10:18:42-10:00 2021-06-21T09:18:42-11:00  23.49207 -163.96805     282   6.7 Hōkūleʻa
  2021-06-21T20:11:19UTC 2021-06-21T10:11:19-10:00 2021-06-21T09:11:19-11:00  23.49194 -163.95580     283   5.9 Hikianalia
  2021-06-21T19:25:05UTC 2021-06-21T09:25:05-10:00 2021-06-21T08:25:05-11:00  23.47143 -163.86154     285   5.4 Hōkūleʻa
  2021-06-21T19:09:50UTC 2021-06-21T09:09:50-10:00 2021-06-21T08:09:50-11:00  23.46876 -163.84909     285   6.1 Hikianalia
  2021-06-21T18:18:30UTC 2021-06-21T08:18:30-10:00 2021-06-21T07:18:30-11:00  23.44525 -163.75654     281   6.3 Hōkūleʻa
  2021-06-21T18:10:49UTC 2021-06-21T08:10:49-10:00 2021-06-21T07:10:49-11:00  23.44262 -163.74371     282   6.3 Hikianalia
  2021-06-21T17:18:31UTC 2021-06-21T07:18:31-10:00 2021-06-21T06:18:31-11:00  23.42513 -163.64483     278   6.0 Hōkūleʻa
  2021-06-21T17:10:42UTC 2021-06-21T07:10:42-10:00 2021-06-21T06:10:42-11:00  23.42165 -163.63194     276   6.0 Hikianalia
  2021-06-21T16:18:51UTC 2021-06-21T06:18:51-10:00 2021-06-21T05:18:51-11:00  23.41165 -163.53817     282   6.0 Hōkūleʻa
  2021-06-21T16:11:21UTC 2021-06-21T06:11:21-10:00 2021-06-21T05:11:21-11:00  23.41145 -163.52542     282   5.9 Hikianalia
  2021-06-21T15:18:32UTC 2021-06-21T05:18:32-10:00 2021-06-21T04:18:32-11:00  23.39119 -163.43094     284   5.9 Hōkūleʻa
  2021-06-21T15:09:48UTC 2021-06-21T05:09:48-10:00 2021-06-21T04:09:48-11:00  23.38974 -163.41839     285   6.0 Hikianalia
  2021-06-21T14:18:23UTC 2021-06-21T04:18:23-10:00 2021-06-21T03:18:23-11:00  23.36760 -163.32711     285   5.8 Hōkūleʻa
  2021-06-21T14:10:42UTC 2021-06-21T04:10:42-10:00 2021-06-21T03:10:42-11:00  23.36491 -163.31522     285   5.8 Hikianalia
  2021-06-21T13:18:31UTC 2021-06-21T03:18:31-10:00 2021-06-21T02:18:31-11:00  23.34214 -163.22562     281   6.1 Hōkūleʻa
  2021-06-21T13:10:50UTC 2021-06-21T03:10:50-10:00 2021-06-21T02:10:50-11:00  23.33978 -163.21323     281   6.1 Hikianalia
  2021-06-21T12:18:52UTC 2021-06-21T02:18:52-10:00 2021-06-21T01:18:52-11:00  23.32302 -163.11773     279   6.4 Hōkūleʻa
  2021-06-21T12:11:21UTC 2021-06-21T02:11:21-10:00 2021-06-21T01:11:21-11:00  23.32120 -163.10470     278   7.3 Hikianalia
  2021-06-21T11:18:31UTC 2021-06-21T01:18:31-10:00 2021-06-21T00:18:31-11:00  23.30671 -163.00160     273   7.5 Hōkūleʻa
  2021-06-21T11:17:14UTC 2021-06-21T01:17:14-10:00 2021-06-21T00:17:14-11:00  23.30641 -162.98595     273   6.8 Hikianalia
  2021-06-21T10:18:28UTC 2021-06-21T00:18:28-10:00 2021-06-20T23:18:28-11:00  23.30109 -162.86633     278   7.2 Hōkūleʻa
  2021-06-21T10:10:50UTC 2021-06-21T00:10:50-10:00 2021-06-20T23:10:50-11:00  23.29923 -162.85054     277   7.2 Hikianalia
  2021-06-21T09:18:22UTC 2021-06-20T23:18:22-10:00 2021-06-20T22:18:22-11:00  23.28399 -162.73715     273   7.2 Hōkūleʻa
  2021-06-21T09:10:56UTC 2021-06-20T23:10:56-10:00 2021-06-20T22:10:56-11:00  23.28430 -162.72151     275   7.1 Hikianalia
  2021-06-21T08:18:49UTC 2021-06-20T22:18:49-10:00 2021-06-20T21:18:49-11:00  23.27778 -162.60800     280   6.8 Hōkūleʻa
  2021-06-21T08:11:15UTC 2021-06-20T22:11:15-10:00 2021-06-20T21:11:15-11:00  23.27508 -162.59405     281   6.7 Hikianalia
  2021-06-21T07:18:29UTC 2021-06-20T21:18:29-10:00 2021-06-20T20:18:29-11:00  23.25688 -162.48552     289   4.4 Hōkūleʻa
  2021-06-21T07:09:51UTC 2021-06-20T21:09:51-10:00 2021-06-20T20:09:51-11:00  23.25360 -162.47187     282   5.6 Hikianalia
  2021-06-21T06:17:31UTC 2021-06-20T20:17:31-10:00 2021-06-20T19:17:31-11:00  23.23234 -162.40939     287   5.4 Hōkūleʻa
  2021-06-21T06:10:41UTC 2021-06-20T20:10:41-10:00 2021-06-20T19:10:41-11:00  23.23412 -162.37327     272   4.8 Hikianalia
  2021-06-21T05:18:23UTC 2021-06-20T19:18:23-10:00 2021-06-20T18:18:23-11:00  23.20649 -162.31678     278   4.7 Hōkūleʻa
  2021-06-21T05:10:44UTC 2021-06-20T19:10:44-10:00 2021-06-20T18:10:44-11:00  23.23147 -162.28658     288   5.5 Hikianalia
  2021-06-21T04:18:55UTC 2021-06-20T18:18:55-10:00 2021-06-20T17:18:55-11:00  23.19556 -162.23418     290   5.2 Hōkūleʻa
  2021-06-21T04:18:43UTC 2021-06-20T18:18:43-10:00 2021-06-20T17:18:43-11:00  23.20758 -162.20475     294   4.7 Hikianalia
  2021-06-21T03:18:34UTC 2021-06-20T17:18:34-10:00 2021-06-20T16:18:34-11:00  23.16609 -162.14599     291   5.3 Hōkūleʻa
  2021-06-21T03:11:06UTC 2021-06-20T17:11:06-10:00 2021-06-20T16:11:06-11:00  23.17189 -162.11803     301   5.1 Hikianalia
  2021-06-21T02:17:24UTC 2021-06-20T16:17:24-10:00 2021-06-20T15:17:24-11:00  23.13337 -162.05563     300   5.9 Hōkūleʻa
  2021-06-21T02:09:47UTC 2021-06-20T16:09:47-10:00 2021-06-20T15:09:47-11:00  23.12718 -162.03755     303   5.6 Hikianalia
  2021-06-21T01:18:30UTC 2021-06-20T15:18:30-10:00 2021-06-20T14:18:30-11:00  23.08484 -161.96457     315   2.5 Hōkūleʻa
  2021-06-21T01:10:51UTC 2021-06-20T15:10:51-10:00 2021-06-20T14:10:51-11:00  23.07675 -161.95354     310   2.4 Hikianalia
  2021-06-21T00:17:53UTC 2021-06-20T14:17:53-10:00 2021-06-20T13:17:53-11:00  23.05442 -161.93202     285   3.0 Hōkūleʻa
  2021-06-21T00:10:19UTC 2021-06-20T14:10:19-10:00 2021-06-20T13:10:19-11:00  23.05081 -161.92049     294   3.7 Hikianalia
  2021-06-20T23:17:22UTC 2021-06-20T13:17:22-10:00 2021-06-20T12:17:22-11:00  23.04108 -161.87953     320   2.7 Hōkūleʻa
  2021-06-20T23:09:52UTC 2021-06-20T13:09:52-10:00 2021-06-20T12:09:52-11:00  23.02551 -161.85910     309   5.2 Hikianalia
  2021-06-20T22:18:23UTC 2021-06-20T12:18:23-10:00 2021-06-20T11:18:23-11:00  23.00728 -161.84861     306   5.8 Hōkūleʻa
  2021-06-20T22:09:42UTC 2021-06-20T12:09:42-10:00 2021-06-20T11:09:42-11:00  22.97108 -161.78628     300   5.8 Hikianalia
  2021-06-20T21:17:29UTC 2021-06-20T11:17:29-10:00 2021-06-20T10:17:29-11:00  22.94922 -161.76263     300   5.8 Hōkūleʻa
  2021-06-20T21:10:48UTC 2021-06-20T11:10:48-10:00 2021-06-20T10:10:48-11:00  22.92316 -161.69684     305   6.2 Hikianalia
  2021-06-20T20:18:52UTC 2021-06-20T10:18:52-10:00 2021-06-20T09:18:52-11:00  22.90119 -161.67431     304   6.5 Hōkūleʻa
  2021-06-20T20:10:20UTC 2021-06-20T10:10:20-10:00 2021-06-20T09:10:20-11:00  22.86373 -161.60378     306   6.6 Hikianalia
  2021-06-20T19:17:26UTC 2021-06-20T09:17:26-10:00 2021-06-20T08:17:26-11:00  22.83804 -161.57494     298   6.5 Hōkūleʻa
  2021-06-20T19:09:41UTC 2021-06-20T09:09:41-10:00 2021-06-20T08:09:41-11:00  22.79787 -161.50608     298   6.6 Hikianalia
  2021-06-20T18:18:37UTC 2021-06-20T08:18:37-10:00 2021-06-20T07:18:37-11:00  22.78891 -161.47306     297   6.3 Hōkūleʻa
  2021-06-20T18:10:45UTC 2021-06-20T08:10:45-10:00 2021-06-20T07:10:45-11:00  22.74729 -161.40270     296   4.7 Hikianalia
  2021-06-20T17:18:30UTC 2021-06-20T07:18:30-10:00 2021-06-20T06:18:30-11:00  22.74167 -161.37193     299   5.7 Hōkūleʻa
  2021-06-20T17:10:41UTC 2021-06-20T07:10:41-10:00 2021-06-20T06:10:41-11:00  22.71330 -161.32625     298   4.7 Hikianalia
  2021-06-20T16:19:03UTC 2021-06-20T06:19:03-10:00 2021-06-20T05:19:03-11:00  22.69642 -161.28342     302   4.7 Hōkūleʻa
  2021-06-20T16:11:13UTC 2021-06-20T06:11:13-10:00 2021-06-20T05:11:13-11:00  22.67689 -161.25275     305   4.5 Hikianalia
  2021-06-20T15:18:31UTC 2021-06-20T05:18:31-10:00 2021-06-20T04:18:31-11:00  22.65430 -161.21012     301   4.5 Hōkūleʻa
  2021-06-20T15:10:47UTC 2021-06-20T05:10:47-10:00 2021-06-20T04:10:47-11:00  22.63280 -161.18553     298   4.5 Hikianalia
  2021-06-20T14:18:39UTC 2021-06-20T04:18:39-10:00 2021-06-20T03:18:39-11:00  22.61548 -161.14066     299   4.7 Hōkūleʻa
  2021-06-20T14:10:50UTC 2021-06-20T04:10:50-10:00 2021-06-20T03:10:50-11:00  22.59821 -161.11437     298   4.3 Hikianalia
  2021-06-20T13:18:42UTC 2021-06-20T03:18:42-10:00 2021-06-20T02:18:42-11:00  22.57756 -161.06614     303   5.6 Hōkūleʻa
  2021-06-20T13:10:42UTC 2021-06-20T03:10:42-10:00 2021-06-20T02:10:42-11:00  22.56470 -161.04663     305   5.8 Hikianalia
  2021-06-20T12:18:52UTC 2021-06-20T02:18:52-10:00 2021-06-20T01:18:52-11:00  22.52718 -160.98106     301   5.6 Hōkūleʻa
  2021-06-20T12:10:22UTC 2021-06-20T02:10:22-10:00 2021-06-20T01:10:22-11:00  22.50880 -160.96016     304   6.0 Hikianalia
  2021-06-20T11:18:22UTC 2021-06-20T01:18:22-10:00 2021-06-20T00:18:22-11:00  22.47799 -160.89366     304   6.2 Hōkūleʻa
  2021-06-20T11:10:43UTC 2021-06-20T01:10:43-10:00 2021-06-20T00:10:43-11:00  22.45304 -160.87212     299   5.7 Hikianalia
  2021-06-20T10:19:30UTC 2021-06-20T00:19:30-10:00 2021-06-19T23:19:30-11:00  22.42061 -160.80276     295   5.8 Hōkūleʻa
  2021-06-20T10:10:52UTC 2021-06-20T00:10:52-10:00 2021-06-19T23:10:52-11:00  22.40711 -160.78154     294   5.5 Hikianalia
  2021-06-20T09:18:31UTC 2021-06-19T23:18:31-10:00 2021-06-19T22:18:31-11:00  22.37876 -160.70739     300   6.8 Hōkūleʻa
  2021-06-20T09:10:50UTC 2021-06-19T23:10:50-10:00 2021-06-19T22:10:50-11:00  22.36941 -160.69116     300   7.4 Hikianalia
  2021-06-20T08:17:53UTC 2021-06-19T22:17:53-10:00 2021-06-19T21:17:53-11:00  22.32198 -160.60076     301   7.4 Hōkūleʻa
  2021-06-20T08:11:22UTC 2021-06-19T22:11:22-10:00 2021-06-19T21:11:22-11:00  22.30737 -160.57684     301   7.2 Hikianalia
  2021-06-20T07:18:25UTC 2021-06-19T21:18:25-10:00 2021-06-19T20:18:25-11:00  22.25973 -160.48772     301   7.0 Hōkūleʻa
  2021-06-20T07:10:50UTC 2021-06-19T21:10:50-10:00 2021-06-19T20:10:50-11:00  22.24417 -160.46567     301   6.7 Hikianalia
  2021-06-20T06:18:27UTC 2021-06-19T20:18:27-10:00 2021-06-19T19:18:27-11:00  22.19860 -160.38001     304   7.2 Hōkūleʻa
  2021-06-20T06:10:49UTC 2021-06-19T20:10:49-10:00 2021-06-19T19:10:49-11:00  22.18659 -160.36170     301   7.7 Hikianalia
  2021-06-20T05:18:49UTC 2021-06-19T19:18:49-10:00 2021-06-19T18:18:49-11:00  22.12860 -160.25883     297   5.2 Hikianalia
  2021-06-20T05:18:31UTC 2021-06-19T19:18:31-10:00 2021-06-19T18:18:31-11:00  22.13241 -160.27302     294   6.6 Hōkūleʻa
  2021-06-20T04:28:04UTC 2021-06-19T18:28:04-10:00 2021-06-19T17:28:04-11:00  22.09393 -160.18169     292   4.8 Hōkūleʻa
  2021-06-20T04:11:24UTC 2021-06-19T18:11:24-10:00 2021-06-19T17:11:24-11:00  22.08499 -160.16571     289   5.1 Hikianalia
  2021-06-20T03:18:21UTC 2021-06-19T17:18:21-10:00 2021-06-19T16:18:21-11:00  22.05954 -160.08904     288   5.8 Hōkūleʻa
  2021-06-20T03:10:53UTC 2021-06-19T17:10:53-10:00 2021-06-19T16:10:53-11:00  22.05687 -160.07812     290   5.6 Hikianalia
  2021-06-20T02:17:28UTC 2021-06-19T16:17:28-10:00 2021-06-19T15:17:28-11:00  22.02884 -159.98961     310   6.6 Hōkūleʻa
  2021-06-20T02:10:04UTC 2021-06-19T16:10:04-10:00 2021-06-19T15:10:04-11:00  22.02433 -159.98248     314   6.9 Hikianalia
  2021-06-20T01:18:20UTC 2021-06-19T15:18:20-10:00 2021-06-19T14:18:20-11:00  21.95838 -159.89998     328   2.5 Hōkūleʻa
  2021-06-20T01:10:49UTC 2021-06-19T15:10:49-10:00 2021-06-19T14:10:49-11:00  21.94549 -159.89420     276   3.0 Hikianalia
  2021-06-20T00:17:51UTC 2021-06-19T14:17:51-10:00 2021-06-19T13:17:51-11:00  21.92272 -159.87631     292   4.6 Hōkūleʻa
  2021-06-20T00:10:13UTC 2021-06-19T14:10:13-10:00 2021-06-19T13:10:13-11:00  21.93998 -159.83985     306   6.0 Hikianalia
  2021-06-19T23:18:28UTC 2021-06-19T13:18:28-10:00 2021-06-19T12:18:28-11:00  21.89442 -159.79975     276   5.9 Hōkūleʻa
  2021-06-19T23:10:51UTC 2021-06-19T13:10:51-10:00 2021-06-19T12:10:51-11:00  21.88202 -159.75396     279   6.1 Hikianalia
  2021-06-19T22:17:27UTC 2021-06-19T12:17:27-10:00 2021-06-19T11:17:27-11:00  21.88394 -159.69306     289   5.9 Hōkūleʻa
  2021-06-19T22:10:48UTC 2021-06-19T12:10:48-10:00 2021-06-19T11:10:48-11:00  21.86565 -159.64654     293   5.9 Hikianalia
  2021-06-19T21:18:31UTC 2021-06-19T11:18:31-10:00 2021-06-19T10:18:31-11:00  21.85248 -159.59547     293   6.5 Hōkūleʻa
  2021-06-19T21:09:43UTC 2021-06-19T11:09:43-10:00 2021-06-19T10:09:43-11:00  21.82642 -159.54783     290   6.8 Hikianalia
  2021-06-19T20:17:49UTC 2021-06-19T10:17:49-10:00 2021-06-19T09:17:49-11:00  21.80902 -159.48696     291   6.5 Hōkūleʻa
  2021-06-19T20:10:18UTC 2021-06-19T10:10:18-10:00 2021-06-19T09:10:18-11:00  21.78713 -159.43422     290   6.7 Hikianalia
  2021-06-19T19:18:27UTC 2021-06-19T09:18:27-10:00 2021-06-19T08:18:27-11:00  21.77070 -159.37879     293   5.8 Hōkūleʻa
  2021-06-19T19:10:46UTC 2021-06-19T09:10:46-10:00 2021-06-19T08:10:46-11:00  21.74868 -159.32302     294   6.1 Hikianalia
  2021-06-19T17:18:30UTC 2021-06-19T07:18:30-10:00 2021-06-19T06:18:30-11:00  21.69450 -159.18790     296   6.1 Hōkūleʻa
  2021-06-19T17:10:43UTC 2021-06-19T07:10:43-10:00 2021-06-19T06:10:43-11:00  21.66492 -159.12422     297   6.2 Hikianalia
  2021-06-19T16:18:45UTC 2021-06-19T06:18:45-10:00 2021-06-19T05:18:45-11:00  21.65076 -159.09077     292   5.3 Hōkūleʻa
  2021-06-19T16:11:22UTC 2021-06-19T06:11:22-10:00 2021-06-19T05:11:22-11:00  21.61894 -159.02603     283   5.4 Hikianalia
  2021-06-19T15:18:23UTC 2021-06-19T05:18:23-10:00 2021-06-19T04:18:23-11:00  21.61780 -159.00262     284   5.6 Hōkūleʻa
  2021-06-19T15:10:39UTC 2021-06-19T05:10:39-10:00 2021-06-19T04:10:39-11:00  21.59773 -158.93065     281   5.3 Hikianalia
  2021-06-19T14:18:29UTC 2021-06-19T04:18:29-10:00 2021-06-19T03:18:29-11:00  21.59567 -158.90556     286   6.9 Hōkūleʻa
  2021-06-19T14:10:52UTC 2021-06-19T04:10:52-10:00 2021-06-19T03:10:52-11:00  21.58044 -158.83780     286   5.7 Hikianalia
  2021-06-19T13:18:20UTC 2021-06-19T03:18:20-10:00 2021-06-19T02:18:20-11:00  21.56330 -158.78755     287   7.3 Hōkūleʻa
  2021-06-19T13:10:42UTC 2021-06-19T03:10:42-10:00 2021-06-19T02:10:42-11:00  21.55409 -158.73970     289   6.3 Hikianalia
  2021-06-19T12:17:55UTC 2021-06-19T02:17:55-10:00 2021-06-19T01:17:55-11:00  21.52816 -158.66080     288   5.4 Hōkūleʻa
  2021-06-19T12:11:21UTC 2021-06-19T02:11:21-10:00 2021-06-19T01:11:21-11:00  21.51967 -158.63462     289   4.0 Hikianalia
  2021-06-19T11:18:19UTC 2021-06-19T01:18:19-10:00 2021-06-19T00:18:19-11:00  21.49992 -158.56902     298   5.6 Hōkūleʻa
  2021-06-19T11:10:52UTC 2021-06-19T01:10:52-10:00 2021-06-19T00:10:52-11:00  21.49722 -158.56602     298   5.8 Hikianalia
  2021-06-19T09:18:48UTC 2021-06-18T23:18:48-10:00 2021-06-18T22:18:48-11:00  21.41066 -158.39221     303   5.1 Hōkūleʻa
  2021-06-19T09:10:47UTC 2021-06-18T23:10:47-10:00 2021-06-18T22:10:47-11:00  21.40499 -158.38167     303   5.7 Hikianalia
  2021-06-19T08:19:16UTC 2021-06-18T22:19:16-10:00 2021-06-18T21:19:16-11:00  21.36043 -158.30820     283   3.0 Hikianalia
  2021-06-19T08:18:31UTC 2021-06-18T22:18:31-10:00 2021-06-18T21:18:31-11:00  21.36495 -158.31571     292   3.4 Hōkūleʻa
  2021-06-19T07:11:00UTC 2021-06-18T21:11:00-10:00 2021-06-18T20:11:00-11:00  21.34731 -158.24980     297   3.9 Hikianalia
  2021-06-19T05:29:17UTC 2021-06-18T19:29:17-10:00 2021-06-18T18:29:17-11:00  21.30375 -158.15744     302   4.3 Hōkūleʻa
  2021-06-19T05:10:43UTC 2021-06-18T19:10:43-10:00 2021-06-18T18:10:43-11:00  21.28822 -158.12678     293   4.2 Hikianalia
  2021-06-19T04:17:27UTC 2021-06-18T18:17:27-10:00 2021-06-18T17:17:27-11:00  21.25886 -158.07970     263   4.0 Hōkūleʻa
  2021-06-19T04:11:15UTC 2021-06-18T18:11:15-10:00 2021-06-18T17:11:15-11:00  21.26113 -158.05917     260   4.1 Hikianalia
  2021-06-19T03:18:24UTC 2021-06-18T17:18:24-10:00 2021-06-18T16:18:24-11:00  21.26719 -158.00975     250   6.8 Hōkūleʻa
  2021-06-19T03:09:53UTC 2021-06-18T17:09:53-10:00 2021-06-18T16:09:53-11:00  21.27349 -157.98518     253   5.3 Hikianalia
  2021-06-19T02:17:48UTC 2021-06-18T16:17:48-10:00 2021-06-18T15:17:48-11:00  21.30680 -157.89484     226   0.5 Hōkūleʻa
  2021-06-19T02:10:45UTC 2021-06-18T16:10:45-10:00 2021-06-18T15:10:45-11:00  21.29837 -157.89658     207   1.0 Hikianalia
  2021-06-19T01:18:28UTC 2021-06-18T15:18:28-10:00 2021-06-18T14:18:28-11:00  21.31294 -157.88810       0   0.0 Hōkūleʻa
  2021-06-19T01:09:48UTC 2021-06-18T15:09:48-10:00 2021-06-18T14:09:48-11:00  21.31293 -157.88875     133   0.0 Hikianalia
  2021-06-19T00:29:11UTC 2021-06-18T14:29:11-10:00 2021-06-18T13:29:11-11:00  21.31300 -157.88883       0   0.0 Hikianalia
  2021-06-19T00:18:29UTC 2021-06-18T14:18:29-10:00 2021-06-18T13:18:29-11:00  21.31294 -157.88810       0   0.0 Hōkūleʻa
  2021-06-18T23:17:27UTC 2021-06-18T13:17:27-10:00 2021-06-18T12:17:27-11:00  21.31294 -157.88810       0   0.0 Hōkūleʻa
  2021-06-18T23:10:50UTC 2021-06-18T13:10:50-10:00 2021-06-18T12:10:50-11:00  21.31294 -157.88883     180   0.0 Hikianalia
  2021-06-18T22:17:47UTC 2021-06-18T12:17:47-10:00 2021-06-18T11:17:47-11:00  21.31294 -157.88810       0   0.0 Hōkūleʻa
  2021-06-18T22:09:48UTC 2021-06-18T12:09:48-10:00 2021-06-18T11:09:48-11:00  21.31298 -157.88883     180   0.0 Hikianalia
  2021-06-18T21:18:22UTC 2021-06-18T11:18:22-10:00 2021-06-18T10:18:22-11:00  21.31294 -157.88810       0   0.0 Hōkūleʻa
  2021-06-18T21:10:09UTC 2021-06-18T11:10:09-10:00 2021-06-18T10:10:09-11:00  21.31299 -157.88883     136   0.0 Hikianalia
  2021-06-18T20:18:27UTC 2021-06-18T10:18:27-10:00 2021-06-18T09:18:27-11:00  21.31294 -157.88810       0   0.0 Hōkūleʻa
  2021-06-18T20:10:16UTC 2021-06-18T10:10:16-10:00 2021-06-18T09:10:16-11:00  21.31306 -157.88890     298   0.0 Hikianalia
  2021-06-18T19:17:50UTC 2021-06-18T09:17:50-10:00 2021-06-18T08:17:50-11:00  21.31294 -157.88810       0   0.0 Hōkūleʻa
  2021-06-18T19:10:41UTC 2021-06-18T09:10:41-10:00 2021-06-18T08:10:41-11:00  21.31299 -157.88877     118   0.0 Hikianalia
  2021-06-18T18:18:22UTC 2021-06-18T08:18:22-10:00 2021-06-18T07:18:22-11:00  21.31294 -157.88810       0   0.0 Hōkūleʻa
  2021-06-18T18:10:57UTC 2021-06-18T08:10:57-10:00 2021-06-18T07:10:57-11:00  21.31302 -157.88881      43   0.0 Hikianalia
  2021-06-18T17:24:52UTC 2021-06-18T07:24:52-10:00 2021-06-18T06:24:52-11:00  21.31294 -157.88810       0   0.0 Hōkūleʻa
  2021-06-18T17:10:38UTC 2021-06-18T07:10:38-10:00 2021-06-18T06:10:38-11:00  21.31299 -157.88883       0   0.0 Hikianalia
  2021-06-18T16:18:37UTC 2021-06-18T06:18:37-10:00 2021-06-18T05:18:37-11:00  21.31294 -157.88810       0   0.0 Hōkūleʻa
  2021-06-18T16:11:10UTC 2021-06-18T06:11:10-10:00 2021-06-18T05:11:10-11:00  21.31298 -157.88883     260   0.0 Hikianalia
  2021-06-18T15:18:28UTC 2021-06-18T05:18:28-10:00 2021-06-18T04:18:28-11:00  21.31294 -157.88810       0   0.0 Hōkūleʻa
  2021-06-18T15:10:48UTC 2021-06-18T05:10:48-10:00 2021-06-18T04:10:48-11:00  21.31299 -157.88877      90   0.0 Hikianalia
  2021-06-18T14:18:28UTC 2021-06-18T04:18:28-10:00 2021-06-18T03:18:28-11:00  21.31294 -157.88810       0   0.0 Hōkūleʻa
  2021-06-18T14:10:38UTC 2021-06-18T04:10:38-10:00 2021-06-18T03:10:38-11:00  21.31299 -157.88886     213   0.0 Hikianalia
  2021-06-18T13:18:28UTC 2021-06-18T03:18:28-10:00 2021-06-18T02:18:28-11:00  21.31294 -157.88810       0   0.0 Hōkūleʻa
  2021-06-18T13:10:52UTC 2021-06-18T03:10:52-10:00 2021-06-18T02:10:52-11:00  21.31303 -157.88883     318   0.0 Hikianalia
  2021-06-18T12:18:47UTC 2021-06-18T02:18:47-10:00 2021-06-18T01:18:47-11:00  21.31294 -157.88810       0   0.0 Hōkūleʻa
  2021-06-18T12:18:30UTC 2021-06-18T02:18:30-10:00 2021-06-18T01:18:30-11:00  21.31300 -157.88881     138   0.0 Hikianalia
  2021-06-18T11:18:27UTC 2021-06-18T01:18:27-10:00 2021-06-18T00:18:27-11:00  21.31294 -157.88810       0   0.0 Hōkūleʻa
  2021-06-18T11:10:41UTC 2021-06-18T01:10:41-10:00 2021-06-18T00:10:41-11:00  21.31303 -157.88883     140   0.0 Hikianalia
  2021-06-18T10:18:28UTC 2021-06-18T00:18:28-10:00 2021-06-17T23:18:28-11:00  21.31294 -157.88810       0   0.0 Hōkūleʻa
  2021-06-18T10:10:43UTC 2021-06-18T00:10:43-10:00 2021-06-17T23:10:43-11:00  21.31312 -157.88892     344   0.0 Hikianalia
  2021-06-18T09:18:43UTC 2021-06-17T23:18:43-10:00 2021-06-17T22:18:43-11:00  21.31294 -157.88810       0   0.0 Hōkūleʻa
  2021-06-18T09:10:47UTC 2021-06-17T23:10:47-10:00 2021-06-17T22:10:47-11:00  21.31291 -157.88886     195   0.0 Hikianalia
  2021-06-18T08:18:29UTC 2021-06-17T22:18:29-10:00 2021-06-17T21:18:29-11:00  21.31294 -157.88810       0   0.0 Hōkūleʻa
  2021-06-18T08:11:19UTC 2021-06-17T22:11:19-10:00 2021-06-17T21:11:19-11:00  21.31298 -157.88883     128   0.0 Hikianalia
  2021-06-18T07:18:28UTC 2021-06-17T21:18:28-10:00 2021-06-17T20:18:28-11:00  21.31294 -157.88810       0   0.0 Hōkūleʻa
  2021-06-18T07:10:47UTC 2021-06-17T21:10:47-10:00 2021-06-17T20:10:47-11:00  21.31302 -157.88888     260   0.0 Hikianalia
  2021-06-18T06:18:49UTC 2021-06-17T20:18:49-10:00 2021-06-17T19:18:49-11:00  21.31294 -157.88810       0   0.0 Hōkūleʻa
  2021-06-18T06:10:58UTC 2021-06-17T20:10:58-10:00 2021-06-17T19:10:58-11:00  21.31303 -157.88881     323   0.0 Hikianalia
  2021-06-18T05:18:29UTC 2021-06-17T19:18:29-10:00 2021-06-17T18:18:29-11:00  21.31294 -157.88810       0   0.0 Hōkūleʻa
  2021-06-18T05:10:36UTC 2021-06-17T19:10:36-10:00 2021-06-17T18:10:36-11:00  21.31297 -157.88877     119   0.0 Hikianalia
  2021-06-18T04:18:25UTC 2021-06-17T18:18:25-10:00 2021-06-17T17:18:25-11:00  21.31294 -157.88810       0   0.0 Hōkūleʻa
  2021-06-18T04:10:17UTC 2021-06-17T18:10:17-10:00 2021-06-17T17:10:17-11:00  21.31299 -157.88881     292   0.0 Hikianalia
  2021-06-18T03:17:52UTC 2021-06-17T17:17:52-10:00 2021-06-17T16:17:52-11:00  21.31294 -157.88810       0   0.0 Hōkūleʻa
  2021-06-18T03:10:38UTC 2021-06-17T17:10:38-10:00 2021-06-17T16:10:38-11:00  21.31296 -157.88873     118   0.0 Hikianalia
  2021-06-18T02:18:30UTC 2021-06-17T16:18:30-10:00 2021-06-17T15:18:30-11:00  21.31294 -157.88810       0   0.0 Hōkūleʻa
  2021-06-18T02:10:48UTC 2021-06-17T16:10:48-10:00 2021-06-17T15:10:48-11:00  21.31300 -157.88881      90   0.0 Hikianalia
  2021-06-18T01:18:26UTC 2021-06-17T15:18:26-10:00 2021-06-17T14:18:26-11:00  21.31294 -157.88810       0   0.0 Hōkūleʻa
  2021-06-18T01:10:21UTC 2021-06-17T15:10:21-10:00 2021-06-17T14:10:21-11:00  21.31300 -157.88883     132   0.0 Hikianalia
  2021-06-18T00:28:37UTC 2021-06-17T14:28:37-10:00 2021-06-17T13:28:37-11:00  21.31294 -157.88810       0   0.0 Hōkūleʻa
  2021-06-18T00:10:50UTC 2021-06-17T14:10:50-10:00 2021-06-17T13:10:50-11:00  21.31306 -157.88890     303   0.0 Hikianalia
  2021-06-17T23:17:20UTC 2021-06-17T13:17:20-10:00 2021-06-17T12:17:20-11:00  21.31294 -157.88810       0   0.0 Hōkūleʻa
  2021-06-17T23:09:36UTC 2021-06-17T13:09:36-10:00 2021-06-17T12:09:36-11:00  21.31299 -157.88879      90   0.0 Hikianalia
  2021-06-17T22:18:29UTC 2021-06-17T12:18:29-10:00 2021-06-17T11:18:29-11:00  21.31294 -157.88810       0   0.0 Hōkūleʻa
  2021-06-17T22:10:07UTC 2021-06-17T12:10:07-10:00 2021-06-17T11:10:07-11:00  21.31299 -157.88883     270   0.0 Hikianalia
  2021-06-17T21:17:15UTC 2021-06-17T11:17:15-10:00 2021-06-17T10:17:15-11:00  21.31294 -157.88810       0   0.0 Hōkūleʻa
  2021-06-17T21:11:11UTC 2021-06-17T11:11:11-10:00 2021-06-17T10:11:11-11:00  21.31299 -157.88881      32   0.0 Hikianalia
  2021-06-17T20:18:47UTC 2021-06-17T10:18:47-10:00 2021-06-17T09:18:47-11:00  21.31294 -157.88810       0   0.0 Hōkūleʻa
  2021-06-17T20:09:50UTC 2021-06-17T10:09:50-10:00 2021-06-17T09:09:50-11:00  21.31296 -157.88883     180   0.0 Hikianalia
  2021-06-17T19:17:28UTC 2021-06-17T09:17:28-10:00 2021-06-17T08:17:28-11:00  21.31294 -157.88810       0   0.0 Hōkūleʻa
  2021-06-17T19:10:41UTC 2021-06-17T09:10:41-10:00 2021-06-17T08:10:41-11:00  21.31297 -157.88883     180   0.0 Hikianalia
  2021-06-17T18:18:25UTC 2021-06-17T08:18:25-10:00 2021-06-17T07:18:25-11:00  21.31294 -157.88810       0   0.0 Hōkūleʻa
  2021-06-17T18:10:22UTC 2021-06-17T08:10:22-10:00 2021-06-17T07:10:22-11:00  21.31299 -157.88883     104   0.0 Hikianalia
  2021-06-17T17:20:26UTC 2021-06-17T07:20:26-10:00 2021-06-17T06:20:26-11:00  21.31300 -157.88888     298   0.0 Hikianalia
  2021-06-17T17:18:28UTC 2021-06-17T07:18:28-10:00 2021-06-17T06:18:28-11:00  21.31294 -157.88810       0   0.0 Hōkūleʻa
  2021-06-17T16:18:39UTC 2021-06-17T06:18:39-10:00 2021-06-17T05:18:39-11:00  21.31294 -157.88810       0   0.0 Hōkūleʻa
  2021-06-17T16:11:16UTC 2021-06-17T06:11:16-10:00 2021-06-17T05:11:16-11:00  21.31298 -157.88883     223   0.0 Hikianalia
  2021-06-17T15:19:24UTC 2021-06-17T05:19:24-10:00 2021-06-17T04:19:24-11:00  21.31294 -157.88810       0   0.0 Hōkūleʻa
  2021-06-17T15:10:47UTC 2021-06-17T05:10:47-10:00 2021-06-17T04:10:47-11:00  21.31300 -157.88881      63   0.0 Hikianalia
  2021-06-17T14:38:15UTC 2021-06-17T04:38:15-10:00 2021-06-17T03:38:15-11:00  21.31294 -157.88810       0   0.0 Hōkūleʻa
  2021-06-17T14:11:15UTC 2021-06-17T04:11:15-10:00 2021-06-17T03:11:15-11:00  21.31299 -157.88883     180   0.0 Hikianalia
  2021-06-17T13:18:26UTC 2021-06-17T03:18:26-10:00 2021-06-17T02:18:26-11:00  21.31294 -157.88810       0   0.0 Hōkūleʻa
  2021-06-17T13:10:03UTC 2021-06-17T03:10:03-10:00 2021-06-17T02:10:03-11:00  21.31305 -157.88883     211   0.0 Hikianalia
  2021-06-17T12:18:49UTC 2021-06-17T02:18:49-10:00 2021-06-17T01:18:49-11:00  21.31294 -157.88810       0   0.0 Hōkūleʻa
  2021-06-17T12:10:40UTC 2021-06-17T02:10:40-10:00 2021-06-17T01:10:40-11:00  21.31308 -157.88881     349   0.0 Hikianalia
  2021-06-17T11:18:39UTC 2021-06-17T01:18:39-10:00 2021-06-17T00:18:39-11:00  21.31294 -157.88810       0   0.0 Hōkūleʻa
  2021-06-17T11:11:08UTC 2021-06-17T01:11:08-10:00 2021-06-17T00:11:08-11:00  21.31298 -157.88879     118   0.0 Hikianalia
  2021-06-17T10:18:39UTC 2021-06-17T00:18:39-10:00 2021-06-16T23:18:39-11:00  21.31294 -157.88810       0   0.0 Hōkūleʻa
  2021-06-17T10:10:49UTC 2021-06-17T00:10:49-10:00 2021-06-16T23:10:49-11:00  21.31302 -157.88886     323   0.0 Hikianalia
  2021-06-17T09:18:26UTC 2021-06-16T23:18:26-10:00 2021-06-16T22:18:26-11:00  21.31294 -157.88810       0   0.0 Hōkūleʻa
  2021-06-17T09:10:47UTC 2021-06-16T23:10:47-10:00 2021-06-16T22:10:47-11:00  21.31296 -157.88881     155   0.0 Hikianalia
  2021-06-17T08:18:47UTC 2021-06-16T22:18:47-10:00 2021-06-16T21:18:47-11:00  21.31294 -157.88810       0   0.0 Hōkūleʻa
  2021-06-17T08:10:08UTC 2021-06-16T22:10:08-10:00 2021-06-16T21:10:08-11:00  21.31300 -157.88883       0   0.0 Hikianalia
  2021-06-17T07:18:36UTC 2021-06-16T21:18:36-10:00 2021-06-16T20:18:36-11:00  21.31294 -157.88810       0   0.0 Hōkūleʻa
  2021-06-17T07:10:40UTC 2021-06-16T21:10:40-10:00 2021-06-16T20:10:40-11:00  21.31299 -157.88883     180   0.0 Hikianalia
  2021-06-17T06:18:27UTC 2021-06-16T20:18:27-10:00 2021-06-16T19:18:27-11:00  21.31294 -157.88810       0   0.0 Hōkūleʻa
  2021-06-17T06:10:44UTC 2021-06-16T20:10:44-10:00 2021-06-16T19:10:44-11:00  21.31300 -157.88883       0   0.0 Hikianalia
  2021-06-17T05:18:28UTC 2021-06-16T19:18:28-10:00 2021-06-16T18:18:28-11:00  21.31294 -157.88810       0   0.0 Hōkūleʻa
  2021-06-17T05:11:15UTC 2021-06-16T19:11:15-10:00 2021-06-16T18:11:15-11:00  21.31297 -157.88883     180   0.0 Hikianalia
  2021-06-17T04:18:53UTC 2021-06-16T18:18:53-10:00 2021-06-16T17:18:53-11:00  21.31294 -157.88810     304   0.0 Hōkūleʻa
  2021-06-17T04:11:09UTC 2021-06-16T18:11:09-10:00 2021-06-16T17:11:09-11:00  21.31299 -157.88883     136   0.0 Hikianalia
  2021-06-17T03:18:35UTC 2021-06-16T17:18:35-10:00 2021-06-16T16:18:35-11:00  21.31269 -157.88772     140   0.0 Hōkūleʻa
  2021-06-17T03:09:47UTC 2021-06-16T17:09:47-10:00 2021-06-16T16:09:47-11:00  21.31306 -157.88890       0   0.0 Hikianalia
  2021-06-17T02:17:58UTC 2021-06-16T16:17:58-10:00 2021-06-16T15:17:58-11:00  21.31298 -157.88798      11   2.2 Hōkūleʻa
  2021-06-17T02:10:42UTC 2021-06-16T16:10:42-10:00 2021-06-16T15:10:42-11:00  21.31302 -157.88890     298   0.0 Hikianalia
  2021-06-17T01:17:20UTC 2021-06-16T15:17:20-10:00 2021-06-16T14:17:20-11:00  21.27728 -157.89570     305   0.5 Hōkūleʻa
  2021-06-17T01:10:20UTC 2021-06-16T15:10:20-10:00 2021-06-16T14:10:20-11:00  21.31298 -157.88883       0   0.0 Hikianalia
  2021-06-17T00:18:51UTC 2021-06-16T14:18:51-10:00 2021-06-16T13:18:51-11:00  21.27273 -157.88879     182   2.4 Hōkūleʻa
  2021-06-17T00:10:19UTC 2021-06-16T14:10:19-10:00 2021-06-16T13:10:19-11:00  21.31298 -157.88883     241   0.0 Hikianalia
  2021-06-16T23:17:29UTC 2021-06-16T13:17:29-10:00 2021-06-16T12:17:29-11:00  21.31362 -157.88744       0   0.0 Hōkūleʻa
  2021-06-16T23:10:16UTC 2021-06-16T13:10:16-10:00 2021-06-16T12:10:16-11:00  21.31299 -157.88881     180   0.0 Hikianalia
  2021-06-16T22:18:30UTC 2021-06-16T12:18:30-10:00 2021-06-16T11:18:30-11:00  21.31362 -157.88744       0   0.0 Hōkūleʻa
  2021-06-16T22:11:01UTC 2021-06-16T12:11:01-10:00 2021-06-16T11:11:01-11:00  21.31300 -157.88881     332   0.0 Hikianalia
  2021-06-16T21:17:22UTC 2021-06-16T11:17:22-10:00 2021-06-16T10:17:22-11:00  21.31362 -157.88744       0   0.0 Hōkūleʻa
  2021-06-16T21:09:47UTC 2021-06-16T11:09:47-10:00 2021-06-16T10:09:47-11:00  21.31293 -157.88877     141   0.0 Hikianalia
  2021-06-16T20:17:56UTC 2021-06-16T10:17:56-10:00 2021-06-16T09:17:56-11:00  21.31362 -157.88744       0   0.0 Hōkūleʻa
  2021-06-16T20:10:15UTC 2021-06-16T10:10:15-10:00 2021-06-16T09:10:15-11:00  21.31300 -157.88883     103   0.0 Hikianalia
  2021-06-16T19:27:29UTC 2021-06-16T09:27:29-10:00 2021-06-16T08:27:29-11:00  21.31362 -157.88744       0   0.0 Hōkūleʻa
  2021-06-16T19:09:41UTC 2021-06-16T09:09:41-10:00 2021-06-16T08:09:41-11:00  21.31304 -157.88898     279   0.0 Hikianalia
  2021-06-16T18:18:17UTC 2021-06-16T08:18:17-10:00 2021-06-16T07:18:17-11:00  21.31362 -157.88744       0   0.0 Hōkūleʻa
  2021-06-16T18:10:41UTC 2021-06-16T08:10:41-10:00 2021-06-16T07:10:41-11:00  21.31300 -157.88877     100   0.0 Hikianalia
  2021-06-16T16:10:15UTC 2021-06-16T06:10:15-10:00 2021-06-16T05:10:15-11:00  21.31302 -157.88883       0   0.0 Hikianalia
  2021-06-16T15:25:26UTC 2021-06-16T05:25:26-10:00 2021-06-16T04:25:26-11:00  21.31362 -157.88744       0   0.0 Hōkūleʻa
  2021-06-16T15:10:39UTC 2021-06-16T05:10:39-10:00 2021-06-16T04:10:39-11:00  21.31302 -157.88883     317   0.0 Hikianalia
  2021-06-16T14:18:52UTC 2021-06-16T04:18:52-10:00 2021-06-16T03:18:52-11:00  21.31362 -157.88744       0   0.0 Hōkūleʻa
  2021-06-16T14:10:45UTC 2021-06-16T04:10:45-10:00 2021-06-16T03:10:45-11:00  21.31299 -157.88881     137   0.0 Hikianalia
  2021-06-16T13:18:26UTC 2021-06-16T03:18:26-10:00 2021-06-16T02:18:26-11:00  21.31362 -157.88744       0   0.0 Hōkūleʻa
  2021-06-16T13:11:07UTC 2021-06-16T03:11:07-10:00 2021-06-16T02:11:07-11:00  21.31302 -157.88883     125   0.0 Hikianalia
  2021-06-16T12:18:40UTC 2021-06-16T02:18:40-10:00 2021-06-16T01:18:40-11:00  21.31362 -157.88744       0   0.0 Hōkūleʻa
  2021-06-16T12:11:10UTC 2021-06-16T02:11:10-10:00 2021-06-16T01:11:10-11:00  21.31306 -157.88890     313   0.0 Hikianalia
  2021-06-16T11:19:02UTC 2021-06-16T01:19:02-10:00 2021-06-16T00:19:02-11:00  21.31362 -157.88744       0   0.0 Hōkūleʻa
  2021-06-16T11:11:25UTC 2021-06-16T01:11:25-10:00 2021-06-16T00:11:25-11:00  21.31298 -157.88881     323   0.0 Hikianalia
  2021-06-16T10:18:46UTC 2021-06-16T00:18:46-10:00 2021-06-15T23:18:46-11:00  21.31362 -157.88744       0   0.0 Hōkūleʻa
  2021-06-16T10:10:48UTC 2021-06-16T00:10:48-10:00 2021-06-15T23:10:48-11:00  21.31293 -157.88877     148   0.0 Hikianalia
  2021-06-16T09:18:33UTC 2021-06-15T23:18:33-10:00 2021-06-15T22:18:33-11:00  21.31362 -157.88744      66   0.1 Hōkūleʻa
  2021-06-16T09:11:10UTC 2021-06-15T23:11:10-10:00 2021-06-15T22:11:10-11:00  21.31299 -157.88881     128   0.0 Hikianalia
  2021-06-16T08:25:33UTC 2021-06-15T22:25:33-10:00 2021-06-15T21:25:33-11:00  21.31312 -157.88860     227   0.1 Hōkūleʻa
  2021-06-16T08:09:44UTC 2021-06-15T22:09:44-10:00 2021-06-15T21:09:44-11:00  21.31306 -157.88890     143   0.0 Hikianalia
  2021-06-16T07:18:28UTC 2021-06-15T21:18:28-10:00 2021-06-15T20:18:28-11:00  21.31443 -157.88708      48   0.1 Hōkūleʻa
  2021-06-16T07:10:39UTC 2021-06-15T21:10:39-10:00 2021-06-15T20:10:39-11:00  21.31317 -157.88898     317   0.0 Hikianalia
  2021-06-16T06:18:25UTC 2021-06-15T20:18:25-10:00 2021-06-15T19:18:25-11:00  21.31308 -157.88868       0   0.0 Hōkūleʻa
  2021-06-16T06:11:18UTC 2021-06-15T20:11:18-10:00 2021-06-15T19:11:18-11:00  21.31302 -157.88883     125   0.0 Hikianalia
  2021-06-16T05:27:38UTC 2021-06-15T19:27:38-10:00 2021-06-15T18:27:38-11:00  21.31308 -157.88868     242   0.0 Hōkūleʻa
  2021-06-16T05:10:40UTC 2021-06-15T19:10:40-10:00 2021-06-15T18:10:40-11:00  21.31306 -157.88890       0   0.0 Hikianalia
  2021-06-16T04:18:43UTC 2021-06-15T18:18:43-10:00 2021-06-15T17:18:43-11:00  21.31311 -157.88862      62   0.0 Hōkūleʻa
  2021-06-16T04:10:47UTC 2021-06-15T18:10:47-10:00 2021-06-15T17:10:47-11:00  21.31306 -157.88890       0   0.0 Hikianalia
  2021-06-16T03:18:18UTC 2021-06-15T17:18:18-10:00 2021-06-15T16:18:18-11:00  21.31308 -157.88868       0   0.0 Hōkūleʻa
  2021-06-16T03:10:38UTC 2021-06-15T17:10:38-10:00 2021-06-15T16:10:38-11:00  21.31306 -157.88890     312   0.0 Hikianalia
  2021-06-16T02:27:38UTC 2021-06-15T16:27:38-10:00 2021-06-15T15:27:38-11:00  21.31308 -157.88868     282   0.0 Hōkūleʻa
  2021-06-16T02:10:18UTC 2021-06-15T16:10:18-10:00 2021-06-15T15:10:18-11:00  21.31300 -157.88883     119   0.0 Hikianalia
  2021-06-16T01:18:27UTC 2021-06-15T15:18:27-10:00 2021-06-15T14:18:27-11:00  21.31305 -157.88851     127   0.0 Hōkūleʻa
  2021-06-16T01:10:48UTC 2021-06-15T15:10:48-10:00 2021-06-15T14:10:48-11:00  21.31303 -157.88888     276   0.0 Hikianalia
  2021-06-16T00:17:50UTC 2021-06-15T14:17:50-10:00 2021-06-15T13:17:50-11:00  21.31312 -157.88862     322   0.0 Hōkūleʻa
  2021-06-16T00:10:49UTC 2021-06-15T14:10:49-10:00 2021-06-15T13:10:49-11:00  21.31302 -157.88877      80   0.0 Hikianalia
  2021-06-15T23:18:22UTC 2021-06-15T13:18:22-10:00 2021-06-15T12:18:22-11:00  21.31299 -157.88851     137   0.0 Hōkūleʻa
  2021-06-15T23:10:17UTC 2021-06-15T13:10:17-10:00 2021-06-15T12:10:17-11:00  21.31300 -157.88883     159   0.0 Hikianalia
  2021-06-15T22:17:27UTC 2021-06-15T12:17:27-10:00 2021-06-15T11:17:27-11:00  21.31306 -157.88858      99   0.0 Hōkūleʻa
  2021-06-15T22:10:05UTC 2021-06-15T12:10:05-10:00 2021-06-15T11:10:05-11:00  21.31306 -157.88886       0   0.0 Hikianalia
  2021-06-15T21:18:16UTC 2021-06-15T11:18:16-10:00 2021-06-15T10:18:16-11:00  21.31308 -157.88873     247   0.0 Hōkūleʻa
  2021-06-15T21:10:10UTC 2021-06-15T11:10:10-10:00 2021-06-15T10:10:10-11:00  21.31302 -157.88886      54   0.0 Hikianalia
  2021-06-15T20:17:48UTC 2021-06-15T10:17:48-10:00 2021-06-15T09:17:48-11:00  21.31312 -157.88862     290   0.0 Hōkūleʻa
  2021-06-15T20:10:45UTC 2021-06-15T10:10:45-10:00 2021-06-15T09:10:45-11:00  21.31297 -157.88892     234   0.0 Hikianalia
  2021-06-15T19:18:26UTC 2021-06-15T09:18:26-10:00 2021-06-15T08:18:26-11:00  21.31310 -157.88856     118   0.0 Hōkūleʻa
  2021-06-15T19:10:16UTC 2021-06-15T09:10:16-10:00 2021-06-15T08:10:16-11:00  21.31302 -157.88886      71   0.0 Hikianalia
  2021-06-15T18:17:26UTC 2021-06-15T08:17:26-10:00 2021-06-15T07:17:26-11:00  21.31313 -157.88862       0   0.0 Hōkūleʻa
  2021-06-15T18:10:49UTC 2021-06-15T08:10:49-10:00 2021-06-15T07:10:49-11:00  21.31299 -157.88892     255   0.0 Hikianalia
  2021-06-15T17:18:15UTC 2021-06-15T07:18:15-10:00 2021-06-15T06:18:15-11:00  21.31309 -157.88862     180   0.0 Hōkūleʻa
  2021-06-15T17:10:36UTC 2021-06-15T07:10:36-10:00 2021-06-15T06:10:36-11:00  21.31302 -157.88883       0   0.0 Hikianalia
  2021-06-15T16:18:48UTC 2021-06-15T06:18:48-10:00 2021-06-15T05:18:48-11:00  21.31312 -157.88862     180   0.0 Hōkūleʻa
  2021-06-15T16:11:16UTC 2021-06-15T06:11:16-10:00 2021-06-15T05:11:16-11:00  21.31302 -157.88883       0   0.0 Hikianalia
  2021-06-15T15:18:26UTC 2021-06-15T05:18:26-10:00 2021-06-15T04:18:26-11:00  21.31315 -157.88862       0   0.0 Hōkūleʻa
  2021-06-15T15:10:47UTC 2021-06-15T05:10:47-10:00 2021-06-15T04:10:47-11:00  21.31300 -157.88883     180   0.0 Hikianalia
  2021-06-15T14:18:40UTC 2021-06-15T04:18:40-10:00 2021-06-15T03:18:40-11:00  21.31312 -157.88862     180   0.0 Hōkūleʻa
  2021-06-15T14:11:10UTC 2021-06-15T04:11:10-10:00 2021-06-15T03:11:10-11:00  21.31302 -157.88883       0   0.0 Hikianalia
  2021-06-15T13:18:29UTC 2021-06-15T03:18:29-10:00 2021-06-15T02:18:29-11:00  21.31313 -157.88862     296   0.0 Hōkūleʻa
  2021-06-15T13:11:17UTC 2021-06-15T03:11:17-10:00 2021-06-15T02:11:17-11:00  21.31300 -157.88883     129   0.0 Hikianalia
  2021-06-15T12:18:51UTC 2021-06-15T02:18:51-10:00 2021-06-15T01:18:51-11:00  21.31312 -157.88860      62   0.0 Hōkūleʻa
  2021-06-15T12:10:48UTC 2021-06-15T02:10:48-10:00 2021-06-15T01:10:48-11:00  21.31304 -157.88888     318   0.0 Hikianalia
  2021-06-15T11:18:28UTC 2021-06-15T01:18:28-10:00 2021-06-15T00:18:28-11:00  21.31308 -157.88868       0   0.0 Hōkūleʻa
  2021-06-15T11:10:37UTC 2021-06-15T01:10:37-10:00 2021-06-15T00:10:37-11:00  21.31302 -157.88886     180   0.0 Hikianalia
  2021-06-15T10:18:37UTC 2021-06-15T00:18:37-10:00 2021-06-14T23:18:37-11:00  21.31308 -157.88868       0   0.0 Hōkūleʻa
  2021-06-15T10:11:08UTC 2021-06-15T00:11:08-10:00 2021-06-14T23:11:08-11:00  21.31303 -157.88886     128   0.0 Hikianalia
  2021-06-15T09:24:27UTC 2021-06-14T23:24:27-10:00 2021-06-14T22:24:27-11:00  21.31308 -157.88868     237   0.0 Hōkūleʻa
  2021-06-15T09:10:39UTC 2021-06-14T23:10:39-10:00 2021-06-14T22:10:39-11:00  21.31306 -157.88890     285   0.0 Hikianalia
  2021-06-15T08:18:42UTC 2021-06-14T22:18:42-10:00 2021-06-14T21:18:42-11:00  21.31313 -157.88860      57   0.0 Hōkūleʻa
  2021-06-15T08:10:45UTC 2021-06-14T22:10:45-10:00 2021-06-14T21:10:45-11:00  21.31303 -157.88877      80   0.0 Hikianalia
  2021-06-15T07:17:28UTC 2021-06-14T21:17:28-10:00 2021-06-14T20:17:28-11:00  21.31308 -157.88868       0   0.0 Hōkūleʻa
  2021-06-15T07:11:16UTC 2021-06-14T21:11:16-10:00 2021-06-14T20:11:16-11:00  21.31302 -157.88883     125   0.0 Hikianalia
  2021-06-15T06:18:19UTC 2021-06-14T20:18:19-10:00 2021-06-14T19:18:19-11:00  21.31308 -157.88868       0   0.0 Hōkūleʻa
  2021-06-15T06:09:50UTC 2021-06-14T20:09:50-10:00 2021-06-14T19:09:50-11:00  21.31306 -157.88890     260   0.0 Hikianalia
  2021-06-15T05:18:14UTC 2021-06-14T19:18:14-10:00 2021-06-14T18:18:14-11:00  21.31308 -157.88868     229   0.0 Hōkūleʻa
  2021-06-15T05:10:41UTC 2021-06-14T19:10:41-10:00 2021-06-14T18:10:41-11:00  21.31307 -157.88883       0   0.0 Hikianalia
  2021-06-15T04:18:48UTC 2021-06-14T18:18:48-10:00 2021-06-14T17:18:48-11:00  21.31313 -157.88862      49   0.0 Hōkūleʻa
  2021-06-15T04:11:13UTC 2021-06-14T18:11:13-10:00 2021-06-14T17:11:13-11:00  21.31299 -157.88883     136   0.0 Hikianalia
  2021-06-15T03:17:24UTC 2021-06-14T17:17:24-10:00 2021-06-14T16:17:24-11:00  21.31308 -157.88868     270   0.0 Hōkūleʻa
  2021-06-15T03:09:47UTC 2021-06-14T17:09:47-10:00 2021-06-14T16:09:47-11:00  21.31306 -157.88890     301   0.0 Hikianalia
  2021-06-15T02:18:22UTC 2021-06-14T16:18:22-10:00 2021-06-14T15:18:22-11:00  21.31308 -157.88853     128   0.0 Hōkūleʻa
  2021-06-15T02:10:41UTC 2021-06-14T16:10:41-10:00 2021-06-14T15:10:41-11:00  21.31296 -157.88873     104   0.0 Hikianalia
  2021-06-15T01:18:26UTC 2021-06-14T15:18:26-10:00 2021-06-14T14:18:26-11:00  21.31311 -157.88858     118   0.0 Hōkūleʻa
  2021-06-15T01:10:47UTC 2021-06-14T15:10:47-10:00 2021-06-14T14:10:47-11:00  21.31297 -157.88877     110   0.0 Hikianalia
  2021-06-15T00:17:49UTC 2021-06-14T14:17:49-10:00 2021-06-14T13:17:49-11:00  21.31313 -157.88862     161   0.0 Hōkūleʻa
  2021-06-15T00:10:12UTC 2021-06-14T14:10:12-10:00 2021-06-14T13:10:12-11:00  21.31299 -157.88883     299   0.0 Hikianalia
  2021-06-14T23:18:29UTC 2021-06-14T13:18:29-10:00 2021-06-14T12:18:29-11:00  21.31325 -157.88866     352   0.0 Hōkūleʻa
  2021-06-14T23:10:17UTC 2021-06-14T13:10:17-10:00 2021-06-14T12:10:17-11:00  21.31298 -157.88881     163   0.0 Hikianalia
  2021-06-14T22:17:24UTC 2021-06-14T12:17:24-10:00 2021-06-14T11:17:24-11:00  21.31311 -157.88864       0   0.0 Hōkūleʻa
  2021-06-14T22:10:12UTC 2021-06-14T12:10:12-10:00 2021-06-14T11:10:12-11:00  21.31305 -157.88883       0   0.0 Hikianalia
  2021-06-14T21:18:16UTC 2021-06-14T11:18:16-10:00 2021-06-14T10:18:16-11:00  21.31310 -157.88864     212   0.0 Hōkūleʻa
  2021-06-14T21:10:17UTC 2021-06-14T11:10:17-10:00 2021-06-14T10:10:17-11:00  21.31302 -157.88883      15   0.0 Hikianalia
  2021-06-14T20:17:50UTC 2021-06-14T10:17:50-10:00 2021-06-14T09:17:50-11:00  21.31313 -157.88862      63   0.0 Hōkūleʻa
  2021-06-14T20:10:48UTC 2021-06-14T10:10:48-10:00 2021-06-14T09:10:48-11:00  21.31294 -157.88886     255   0.0 Hikianalia
  2021-06-14T19:18:19UTC 2021-06-14T09:18:19-10:00 2021-06-14T08:18:19-11:00  21.31312 -157.88864     251   0.0 Hōkūleʻa
  2021-06-14T19:10:15UTC 2021-06-14T09:10:15-10:00 2021-06-14T08:10:15-11:00  21.31296 -157.88877     109   0.0 Hikianalia
  2021-06-14T18:17:34UTC 2021-06-14T08:17:34-10:00 2021-06-14T07:17:34-11:00  21.31314 -157.88858      62   0.0 Hōkūleʻa
  2021-06-14T18:11:14UTC 2021-06-14T08:11:14-10:00 2021-06-14T07:11:14-11:00  21.31298 -157.88883     180   0.0 Hikianalia
  2021-06-14T17:18:19UTC 2021-06-14T07:18:19-10:00 2021-06-14T06:18:19-11:00  21.31312 -157.88862       0   0.0 Hōkūleʻa
  2021-06-14T17:11:17UTC 2021-06-14T07:11:17-10:00 2021-06-14T06:11:17-11:00  21.31299 -157.88883     180   0.0 Hikianalia
  2021-06-14T16:20:29UTC 2021-06-14T06:20:29-10:00 2021-06-14T05:20:29-11:00  21.31300 -157.88883       0   0.0 Hikianalia
  2021-06-14T16:18:50UTC 2021-06-14T06:18:50-10:00 2021-06-14T05:18:50-11:00  21.31312 -157.88862       0   0.0 Hōkūleʻa
  2021-06-14T15:18:25UTC 2021-06-14T05:18:25-10:00 2021-06-14T04:18:25-11:00  21.31312 -157.88862      90   0.0 Hōkūleʻa
  2021-06-14T15:10:44UTC 2021-06-14T05:10:44-10:00 2021-06-14T04:10:44-11:00  21.31294 -157.88883     152   0.0 Hikianalia
  2021-06-14T14:18:19UTC 2021-06-14T04:18:19-10:00 2021-06-14T03:18:19-11:00  21.31312 -157.88864     261   0.0 Hōkūleʻa
  2021-06-14T14:11:45UTC 2021-06-14T04:11:45-10:00 2021-06-14T03:11:45-11:00  21.31302 -157.88888     328   0.0 Hikianalia
  2021-06-14T13:17:25UTC 2021-06-14T03:17:25-10:00 2021-06-14T02:17:25-11:00  21.31313 -157.88858      76   0.0 Hōkūleʻa
  2021-06-14T13:10:48UTC 2021-06-14T03:10:48-10:00 2021-06-14T02:10:48-11:00  21.31298 -157.88886     255   0.0 Hikianalia
  2021-06-14T12:18:41UTC 2021-06-14T02:18:41-10:00 2021-06-14T01:18:41-11:00  21.31312 -157.88862       0   0.0 Hōkūleʻa
  2021-06-14T12:10:20UTC 2021-06-14T02:10:20-10:00 2021-06-14T01:10:20-11:00  21.31299 -157.88881     137   0.0 Hikianalia
  2021-06-14T11:18:31UTC 2021-06-14T01:18:31-10:00 2021-06-14T00:18:31-11:00  21.31312 -157.88862      54   0.0 Hōkūleʻa
  2021-06-14T11:10:37UTC 2021-06-14T01:10:37-10:00 2021-06-14T00:10:37-11:00  21.31308 -157.88890     345   0.0 Hikianalia
  2021-06-14T10:18:27UTC 2021-06-14T00:18:27-10:00 2021-06-13T23:18:27-11:00  21.31308 -157.88868       0   0.0 Hōkūleʻa
  2021-06-14T10:10:46UTC 2021-06-14T00:10:46-10:00 2021-06-13T23:10:46-11:00  21.31300 -157.88888     316   0.0 Hikianalia
  2021-06-14T09:28:13UTC 2021-06-13T23:28:13-10:00 2021-06-13T22:28:13-11:00  21.31308 -157.88868     234   0.0 Hōkūleʻa
  2021-06-14T09:10:45UTC 2021-06-13T23:10:45-10:00 2021-06-13T22:10:45-11:00  21.31296 -157.88883     180   0.0 Hikianalia
  2021-06-14T08:17:48UTC 2021-06-13T22:17:48-10:00 2021-06-13T21:17:48-11:00  21.31312 -157.88862      54   0.0 Hōkūleʻa
  2021-06-14T08:11:20UTC 2021-06-13T22:11:20-10:00 2021-06-13T21:11:20-11:00  21.31299 -157.88883     280   0.0 Hikianalia
  2021-06-14T07:18:20UTC 2021-06-13T21:18:20-10:00 2021-06-13T20:18:20-11:00  21.31308 -157.88868       0   0.0 Hōkūleʻa
  2021-06-14T07:10:51UTC 2021-06-13T21:10:51-10:00 2021-06-13T20:10:51-11:00  21.31298 -157.88877     122   0.0 Hikianalia
  2021-06-14T06:18:26UTC 2021-06-13T20:18:26-10:00 2021-06-13T19:18:26-11:00  21.31308 -157.88868       0   0.0 Hōkūleʻa
  2021-06-14T06:10:44UTC 2021-06-13T20:10:44-10:00 2021-06-13T19:10:44-11:00  21.31306 -157.88890       0   0.0 Hikianalia
  2021-06-14T05:18:28UTC 2021-06-13T19:18:28-10:00 2021-06-13T18:18:28-11:00  21.31308 -157.88868     229   0.0 Hōkūleʻa
  2021-06-14T05:10:49UTC 2021-06-13T19:10:49-10:00 2021-06-13T18:10:49-11:00  21.31306 -157.88890     305   0.0 Hikianalia
  2021-06-14T04:18:51UTC 2021-06-13T18:18:51-10:00 2021-06-13T17:18:51-11:00  21.31313 -157.88862      49   0.0 Hōkūleʻa
  2021-06-14T04:10:16UTC 2021-06-13T18:10:16-10:00 2021-06-13T17:10:16-11:00  21.31302 -157.88883     125   0.0 Hikianalia
  2021-06-14T03:27:55UTC 2021-06-13T17:27:55-10:00 2021-06-13T16:27:55-11:00  21.31308 -157.88868       0   0.0 Hōkūleʻa
  2021-06-14T03:10:47UTC 2021-06-13T17:10:47-10:00 2021-06-13T16:10:47-11:00  21.31306 -157.88890       0   0.0 Hikianalia
  2021-06-14T02:18:23UTC 2021-06-13T16:18:23-10:00 2021-06-13T15:18:23-11:00  21.31308 -157.88868     270   0.0 Hōkūleʻa
  2021-06-14T02:09:49UTC 2021-06-13T16:09:49-10:00 2021-06-13T15:09:49-11:00  21.31306 -157.88890     155   0.0 Hikianalia
  2021-06-14T01:17:19UTC 2021-06-13T15:17:19-10:00 2021-06-13T14:17:19-11:00  21.31308 -157.88862     180   0.0 Hōkūleʻa
  2021-06-14T01:10:49UTC 2021-06-13T15:10:49-10:00 2021-06-13T14:10:49-11:00  21.31310 -157.88892     320   0.0 Hikianalia
  2021-06-14T00:17:42UTC 2021-06-13T14:17:42-10:00 2021-06-13T13:17:42-11:00  21.31313 -157.88862      49   0.0 Hōkūleʻa
  2021-06-14T00:10:20UTC 2021-06-13T14:10:20-10:00 2021-06-13T13:10:20-11:00  21.31300 -157.88883     132   0.0 Hikianalia
  2021-06-13T23:18:20UTC 2021-06-13T13:18:20-10:00 2021-06-13T12:18:20-11:00  21.31308 -157.88868     242   0.0 Hōkūleʻa
  2021-06-13T23:10:49UTC 2021-06-13T13:10:49-10:00 2021-06-13T12:10:49-11:00  21.31306 -157.88890     242   0.0 Hikianalia
  2021-06-13T22:18:36UTC 2021-06-13T12:18:36-10:00 2021-06-13T11:18:36-11:00  21.31311 -157.88862      20   0.0 Hōkūleʻa
  2021-06-13T22:10:47UTC 2021-06-13T12:10:47-10:00 2021-06-13T11:10:47-11:00  21.31307 -157.88888       8   0.0 Hikianalia
  2021-06-13T21:17:27UTC 2021-06-13T11:17:27-10:00 2021-06-13T10:17:27-11:00  21.31306 -157.88864     217   0.0 Hōkūleʻa
  2021-06-13T21:09:46UTC 2021-06-13T11:09:46-10:00 2021-06-13T10:09:46-11:00  21.31293 -157.88890     223   0.0 Hikianalia
  2021-06-13T20:18:10UTC 2021-06-13T10:18:10-10:00 2021-06-13T09:18:10-11:00  21.31311 -157.88860      62   0.0 Hōkūleʻa
  2021-06-13T20:10:18UTC 2021-06-13T10:10:18-10:00 2021-06-13T09:10:18-11:00  21.31299 -157.88883     280   0.0 Hikianalia
  2021-06-13T19:18:25UTC 2021-06-13T09:18:25-10:00 2021-06-13T08:18:25-11:00  21.31310 -157.88862     339   0.0 Hōkūleʻa
  2021-06-13T19:10:48UTC 2021-06-13T09:10:48-10:00 2021-06-13T08:10:48-11:00  21.31298 -157.88877     102   0.0 Hikianalia
  2021-06-13T18:18:26UTC 2021-06-13T08:18:26-10:00 2021-06-13T07:18:26-11:00  21.31299 -157.88858     180   0.0 Hōkūleʻa
  2021-06-13T18:10:41UTC 2021-06-13T08:10:41-10:00 2021-06-13T07:10:41-11:00  21.31300 -157.88888     328   0.0 Hikianalia
  2021-06-13T17:18:24UTC 2021-06-13T07:18:24-10:00 2021-06-13T06:18:24-11:00  21.31311 -157.88858     105   0.0 Hōkūleʻa
  2021-06-13T17:10:44UTC 2021-06-13T07:10:44-10:00 2021-06-13T06:10:44-11:00  21.31297 -157.88886     223   0.0 Hikianalia
  2021-06-13T16:18:55UTC 2021-06-13T06:18:55-10:00 2021-06-13T05:18:55-11:00  21.31312 -157.88862     180   0.0 Hōkūleʻa
  2021-06-13T16:11:18UTC 2021-06-13T06:11:18-10:00 2021-06-13T05:11:18-11:00  21.31299 -157.88883     116   0.0 Hikianalia
  2021-06-13T15:18:19UTC 2021-06-13T05:18:19-10:00 2021-06-13T04:18:19-11:00  21.31314 -157.88862     180   0.0 Hōkūleʻa
  2021-06-13T15:10:38UTC 2021-06-13T05:10:38-10:00 2021-06-13T04:10:38-11:00  21.31300 -157.88886     270   0.0 Hikianalia
  2021-06-13T14:17:30UTC 2021-06-13T04:17:30-10:00 2021-06-13T03:17:30-11:00  21.31315 -157.88862       0   0.0 Hōkūleʻa
  2021-06-13T14:09:44UTC 2021-06-13T04:09:44-10:00 2021-06-13T03:09:44-11:00  21.31300 -157.88883       0   0.0 Hikianalia
  2021-06-13T13:18:20UTC 2021-06-13T03:18:20-10:00 2021-06-13T02:18:20-11:00  21.31311 -157.88862       0   0.0 Hōkūleʻa
  2021-06-13T13:11:12UTC 2021-06-13T03:11:12-10:00 2021-06-13T02:11:12-11:00  21.31300 -157.88883     317   0.0 Hikianalia
  2021-06-13T12:18:50UTC 2021-06-13T02:18:50-10:00 2021-06-13T01:18:50-11:00  21.31311 -157.88862     167   0.0 Hōkūleʻa
  2021-06-13T12:11:11UTC 2021-06-13T02:11:11-10:00 2021-06-13T01:11:11-11:00  21.31298 -157.88881     145   0.0 Hikianalia
  2021-06-13T11:18:15UTC 2021-06-13T01:18:15-10:00 2021-06-13T00:18:15-11:00  21.31320 -157.88864       0   0.0 Hōkūleʻa
  2021-06-13T11:10:46UTC 2021-06-13T01:10:46-10:00 2021-06-13T00:10:46-11:00  21.31307 -157.88888     323   0.0 Hikianalia
  2021-06-13T10:18:27UTC 2021-06-13T00:18:27-10:00 2021-06-12T23:18:27-11:00  21.31317 -157.88864     328   0.0 Hōkūleʻa
  2021-06-13T10:10:48UTC 2021-06-13T00:10:48-10:00 2021-06-12T23:10:48-11:00  21.31302 -157.88883       0   0.0 Hikianalia
  2021-06-13T09:18:16UTC 2021-06-12T23:18:16-10:00 2021-06-12T22:18:16-11:00  21.31313 -157.88862       0   0.0 Hōkūleʻa
  2021-06-13T09:10:44UTC 2021-06-12T23:10:44-10:00 2021-06-12T22:10:44-11:00  21.31300 -157.88883       0   0.0 Hikianalia
  2021-06-13T08:18:49UTC 2021-06-12T22:18:49-10:00 2021-06-12T21:18:49-11:00  21.31312 -157.88862      54   0.0 Hōkūleʻa
  2021-06-13T08:11:15UTC 2021-06-12T22:11:15-10:00 2021-06-12T21:11:15-11:00  21.31299 -157.88883     116   0.0 Hikianalia
  2021-06-13T07:18:19UTC 2021-06-12T21:18:19-10:00 2021-06-12T20:18:19-11:00  21.31308 -157.88868     237   0.0 Hōkūleʻa
  2021-06-13T07:10:48UTC 2021-06-12T21:10:48-10:00 2021-06-12T20:10:48-11:00  21.31300 -157.88886     223   0.0 Hikianalia
  2021-06-13T06:18:23UTC 2021-06-12T20:18:23-10:00 2021-06-12T19:18:23-11:00  21.31313 -157.88860     180   0.0 Hōkūleʻa
  2021-06-13T06:10:45UTC 2021-06-12T20:10:45-10:00 2021-06-12T19:10:45-11:00  21.31305 -157.88881      17   0.0 Hikianalia
  2021-06-13T05:18:25UTC 2021-06-12T19:18:25-10:00 2021-06-12T18:18:25-11:00  21.31315 -157.88860      43   0.0 Hōkūleʻa
  2021-06-13T05:10:42UTC 2021-06-12T19:10:42-10:00 2021-06-12T18:10:42-11:00  21.31298 -157.88883     180   0.0 Hikianalia
  2021-06-13T04:17:51UTC 2021-06-12T18:17:51-10:00 2021-06-12T17:17:51-11:00  21.31313 -157.88862       0   0.0 Hōkūleʻa
  2021-06-13T04:10:23UTC 2021-06-12T18:10:23-10:00 2021-06-12T17:10:23-11:00  21.31300 -157.88883     121   0.0 Hikianalia
  2021-06-13T03:18:24UTC 2021-06-12T17:18:24-10:00 2021-06-12T16:18:24-11:00  21.31313 -157.88862       0   0.0 Hōkūleʻa
  2021-06-13T03:10:49UTC 2021-06-12T17:10:49-10:00 2021-06-12T16:10:49-11:00  21.31310 -157.88901     288   0.0 Hikianalia
  2021-06-13T02:18:31UTC 2021-06-12T16:18:31-10:00 2021-06-12T15:18:31-11:00  21.31312 -157.88862      58   0.0 Hōkūleʻa
  2021-06-13T02:09:52UTC 2021-06-12T16:09:52-10:00 2021-06-12T15:09:52-11:00  21.31307 -157.88890      17   1.8 Hikianalia
  2021-06-13T01:17:43UTC 2021-06-12T15:17:43-10:00 2021-06-12T14:17:43-11:00  21.31298 -157.88886     320   5.0 Hōkūleʻa
  2021-06-13T01:10:51UTC 2021-06-12T15:10:51-10:00 2021-06-12T14:10:51-11:00  21.28517 -157.89817     297   5.5 Hikianalia
  2021-06-13T00:17:18UTC 2021-06-12T14:17:18-10:00 2021-06-12T13:17:18-11:00  21.24753 -157.83118     257   6.0 Hōkūleʻa
  2021-06-13T00:10:19UTC 2021-06-12T14:10:19-10:00 2021-06-12T13:10:19-11:00  21.24390 -157.81024     252   4.8 Hikianalia
  2021-06-12T23:18:28UTC 2021-06-12T13:18:28-10:00 2021-06-12T12:18:28-11:00  21.26965 -157.72923       0   0.0 Hōkūleʻa
  2021-06-12T23:09:45UTC 2021-06-12T13:09:45-10:00 2021-06-12T12:09:45-11:00  21.26922 -157.72859     132   0.0 Hikianalia
  2021-06-12T22:17:51UTC 2021-06-12T12:17:51-10:00 2021-06-12T11:17:51-11:00  21.26965 -157.72923     152   0.0 Hōkūleʻa
  2021-06-12T22:10:41UTC 2021-06-12T12:10:41-10:00 2021-06-12T11:10:41-11:00  21.26927 -157.72865     327   0.0 Hikianalia
  2021-06-12T21:18:30UTC 2021-06-12T11:18:30-10:00 2021-06-12T10:18:30-11:00  21.26987 -157.72936     332   0.0 Hōkūleʻa
  2021-06-12T21:09:47UTC 2021-06-12T11:09:47-10:00 2021-06-12T10:09:47-11:00  21.26924 -157.72863     320   0.0 Hikianalia
  2021-06-12T20:25:51UTC 2021-06-12T10:25:51-10:00 2021-06-12T09:25:51-11:00  21.26961 -157.72921      58   1.2 Hōkūleʻa
  2021-06-12T20:10:09UTC 2021-06-12T10:10:09-10:00 2021-06-12T09:10:09-11:00  21.26912 -157.72852      62   1.6 Hikianalia
  2021-06-12T19:17:55UTC 2021-06-12T09:17:55-10:00 2021-06-12T08:17:55-11:00  21.25726 -157.75056      82   5.0 Hōkūleʻa
  2021-06-12T19:10:43UTC 2021-06-12T09:10:43-10:00 2021-06-12T08:10:43-11:00  21.25633 -157.75393      84   4.4 Hikianalia
  2021-06-12T18:28:23UTC 2021-06-12T08:28:23-10:00 2021-06-12T07:28:23-11:00  21.24708 -157.82386     117   3.7 Hōkūleʻa
  2021-06-12T18:09:47UTC 2021-06-12T08:09:47-10:00 2021-06-12T07:09:47-11:00  21.24908 -157.83322     120   4.0 Hikianalia
  2021-06-12T17:18:22UTC 2021-06-12T07:18:22-10:00 2021-06-12T06:18:22-11:00  21.27952 -157.89246     187   2.0 Hōkūleʻa
  2021-06-12T17:10:43UTC 2021-06-12T07:10:43-10:00 2021-06-12T06:10:43-11:00  21.28198 -157.89403     189   1.9 Hikianalia
  2021-06-12T16:18:44UTC 2021-06-12T06:18:44-10:00 2021-06-12T05:18:44-11:00  21.31318 -157.88832       0   0.0 Hōkūleʻa
  2021-06-12T16:11:16UTC 2021-06-12T06:11:16-10:00 2021-06-12T05:11:16-11:00  21.31310 -157.88862     180   0.0 Hikianalia
  2021-06-12T15:19:32UTC 2021-06-12T05:19:32-10:00 2021-06-12T04:19:32-11:00  21.31311 -157.88862       0   0.0 Hikianalia
  2021-06-12T15:18:23UTC 2021-06-12T05:18:23-10:00 2021-06-12T04:18:23-11:00  21.31318 -157.88832       0   0.0 Hōkūleʻa
  2021-06-12T14:18:31UTC 2021-06-12T04:18:31-10:00 2021-06-12T03:18:31-11:00  21.31318 -157.88832       0   0.0 Hōkūleʻa
  2021-06-12T14:10:43UTC 2021-06-12T04:10:43-10:00 2021-06-12T03:10:43-11:00  21.31311 -157.88862     148   0.0 Hikianalia
  2021-06-12T13:17:37UTC 2021-06-12T03:17:37-10:00 2021-06-12T02:17:37-11:00  21.31318 -157.88832       0   0.0 Hōkūleʻa
  2021-06-12T13:10:49UTC 2021-06-12T03:10:49-10:00 2021-06-12T02:10:49-11:00  21.31314 -157.88864     328   0.0 Hikianalia
  2021-06-12T12:18:43UTC 2021-06-12T02:18:43-10:00 2021-06-12T01:18:43-11:00  21.31318 -157.88832       0   0.0 Hōkūleʻa
  2021-06-12T12:11:18UTC 2021-06-12T02:11:18-10:00 2021-06-12T01:11:18-11:00  21.31311 -157.88862     321   0.0 Hikianalia
  2021-06-12T11:19:22UTC 2021-06-12T01:19:22-10:00 2021-06-12T00:19:22-11:00  21.31318 -157.88832       0   0.0 Hōkūleʻa
  2021-06-12T11:10:41UTC 2021-06-12T01:10:41-10:00 2021-06-12T00:10:41-11:00  21.31304 -157.88856     131   0.0 Hikianalia
  2021-06-12T10:18:28UTC 2021-06-12T00:18:28-10:00 2021-06-11T23:18:28-11:00  21.31318 -157.88832     242   0.0 Hōkūleʻa
  2021-06-12T10:10:39UTC 2021-06-12T00:10:39-10:00 2021-06-11T23:10:39-11:00  21.31309 -157.88862     180   0.0 Hikianalia
  2021-06-12T09:24:19UTC 2021-06-11T23:24:19-10:00 2021-06-11T22:24:19-11:00  21.31322 -157.88823      62   0.0 Hōkūleʻa
  2021-06-12T09:11:20UTC 2021-06-11T23:11:20-10:00 2021-06-11T22:11:20-11:00  21.31311 -157.88862     180   0.0 Hikianalia
  2021-06-12T08:18:48UTC 2021-06-11T22:18:48-10:00 2021-06-11T21:18:48-11:00  21.31318 -157.88832       0   0.0 Hōkūleʻa
  2021-06-12T08:10:51UTC 2021-06-11T22:10:51-10:00 2021-06-11T21:10:51-11:00  21.31312 -157.88862       0   0.0 Hikianalia
  2021-06-12T07:18:27UTC 2021-06-11T21:18:27-10:00 2021-06-11T20:18:27-11:00  21.31318 -157.88832       0   0.0 Hōkūleʻa
  2021-06-12T07:09:47UTC 2021-06-11T21:09:47-10:00 2021-06-11T20:09:47-11:00  21.31311 -157.88862       0   0.0 Hikianalia
  2021-06-12T06:18:28UTC 2021-06-11T20:18:28-10:00 2021-06-11T19:18:28-11:00  21.31318 -157.88832       0   0.0 Hōkūleʻa
  2021-06-12T06:11:13UTC 2021-06-11T20:11:13-10:00 2021-06-11T19:11:13-11:00  21.31310 -157.88862     180   0.0 Hikianalia
  2021-06-12T05:18:20UTC 2021-06-11T19:18:20-10:00 2021-06-11T18:18:20-11:00  21.31318 -157.88832       0   0.0 Hōkūleʻa
  2021-06-12T05:10:44UTC 2021-06-11T19:10:44-10:00 2021-06-11T18:10:44-11:00  21.31311 -157.88862       0   0.0 Hikianalia
  2021-06-12T04:17:53UTC 2021-06-11T18:17:53-10:00 2021-06-11T17:17:53-11:00  21.31318 -157.88832       0   0.0 Hōkūleʻa
  2021-06-12T04:09:40UTC 2021-06-11T18:09:40-10:00 2021-06-11T17:09:40-11:00  21.31311 -157.88862       0   0.0 Hikianalia
  2021-06-12T03:18:28UTC 2021-06-11T17:18:28-10:00 2021-06-11T16:18:28-11:00  21.31318 -157.88832       0   0.0 Hōkūleʻa
  2021-06-12T03:10:38UTC 2021-06-11T17:10:38-10:00 2021-06-11T16:10:38-11:00  21.31311 -157.88862     180   0.0 Hikianalia
  2021-06-12T02:22:15UTC 2021-06-11T16:22:15-10:00 2021-06-11T15:22:15-11:00  21.31312 -157.88862       0   0.0 Hikianalia
  2021-06-12T02:18:23UTC 2021-06-11T16:18:23-10:00 2021-06-11T15:18:23-11:00  21.31318 -157.88832       0   0.0 Hōkūleʻa
  2021-06-12T01:18:33UTC 2021-06-11T15:18:33-10:00 2021-06-11T14:18:33-11:00  21.31318 -157.88832       0   0.0 Hōkūleʻa
  2021-06-12T01:17:26UTC 2021-06-11T15:17:26-10:00 2021-06-11T14:17:26-11:00  21.31311 -157.88862     319   0.0 Hikianalia
  2021-06-12T00:18:50UTC 2021-06-11T14:18:50-10:00 2021-06-11T13:18:50-11:00  21.31318 -157.88832       0   0.0 Hōkūleʻa
  2021-06-12T00:09:37UTC 2021-06-11T14:09:37-10:00 2021-06-11T13:09:37-11:00  21.31297 -157.88849     125   0.0 Hikianalia
  2021-06-11T23:17:30UTC 2021-06-11T13:17:30-10:00 2021-06-11T12:17:30-11:00  21.31318 -157.88832       0   0.0 Hōkūleʻa
  2021-06-11T23:10:41UTC 2021-06-11T13:10:41-10:00 2021-06-11T12:10:41-11:00  21.31306 -157.88862     180   0.0 Hikianalia
  2021-06-11T22:17:19UTC 2021-06-11T12:17:19-10:00 2021-06-11T11:17:19-11:00  21.31318 -157.88832       0   0.0 Hōkūleʻa
  2021-06-11T22:10:07UTC 2021-06-11T12:10:07-10:00 2021-06-11T11:10:07-11:00  21.31312 -157.88862       0   0.0 Hikianalia
  2021-06-11T21:18:26UTC 2021-06-11T11:18:26-10:00 2021-06-11T10:18:26-11:00  21.31318 -157.88832       0   0.0 Hōkūleʻa
  2021-06-11T21:11:15UTC 2021-06-11T11:11:15-10:00 2021-06-11T10:11:15-11:00  21.31311 -157.88862     119   0.0 Hikianalia
  2021-06-11T20:18:51UTC 2021-06-11T10:18:51-10:00 2021-06-11T09:18:51-11:00  21.31318 -157.88832       0   0.0 Hōkūleʻa
  2021-06-11T20:09:47UTC 2021-06-11T10:09:47-10:00 2021-06-11T09:09:47-11:00  21.31312 -157.88864       0   0.0 Hikianalia
  2021-06-11T19:18:28UTC 2021-06-11T09:18:28-10:00 2021-06-11T08:18:28-11:00  21.31318 -157.88832       0   0.0 Hōkūleʻa
  2021-06-11T19:09:41UTC 2021-06-11T09:09:41-10:00 2021-06-11T08:09:41-11:00  21.31309 -157.88864     180   0.0 Hikianalia
  2021-06-11T18:18:25UTC 2021-06-11T08:18:25-10:00 2021-06-11T07:18:25-11:00  21.31318 -157.88832       0   0.0 Hōkūleʻa
  2021-06-11T18:11:10UTC 2021-06-11T08:11:10-10:00 2021-06-11T07:11:10-11:00  21.31311 -157.88864     241   0.0 Hikianalia
  2021-06-11T17:18:22UTC 2021-06-11T07:18:22-10:00 2021-06-11T06:18:22-11:00  21.31318 -157.88832       0   0.0 Hōkūleʻa
  2021-06-11T17:10:51UTC 2021-06-11T07:10:51-10:00 2021-06-11T06:10:51-11:00  21.31312 -157.88862      43   0.0 Hikianalia
  2021-06-11T16:18:45UTC 2021-06-11T06:18:45-10:00 2021-06-11T05:18:45-11:00  21.31318 -157.88832       0   0.0 Hōkūleʻa
  2021-06-11T16:10:48UTC 2021-06-11T06:10:48-10:00 2021-06-11T05:10:48-11:00  21.31308 -157.88866     242   0.0 Hikianalia
  2021-06-11T15:18:25UTC 2021-06-11T05:18:25-10:00 2021-06-11T04:18:25-11:00  21.31318 -157.88832       0   0.0 Hōkūleʻa
  2021-06-11T15:10:47UTC 2021-06-11T05:10:47-10:00 2021-06-11T04:10:47-11:00  21.31311 -157.88860      90   0.0 Hikianalia
  2021-06-11T14:17:19UTC 2021-06-11T04:17:19-10:00 2021-06-11T03:17:19-11:00  21.31318 -157.88832       0   0.0 Hōkūleʻa
  2021-06-11T14:11:17UTC 2021-06-11T04:11:17-10:00 2021-06-11T03:11:17-11:00  21.31311 -157.88862     119   0.0 Hikianalia
  2021-06-11T13:19:43UTC 2021-06-11T03:19:43-10:00 2021-06-11T02:19:43-11:00  21.31318 -157.88832       0   0.0 Hōkūleʻa
  2021-06-11T13:10:55UTC 2021-06-11T03:10:55-10:00 2021-06-11T02:10:55-11:00  21.31312 -157.88864     299   0.0 Hikianalia
  2021-06-11T12:18:42UTC 2021-06-11T02:18:42-10:00 2021-06-11T01:18:42-11:00  21.31318 -157.88832       0   0.0 Hōkūleʻa
  2021-06-11T12:11:14UTC 2021-06-11T02:11:14-10:00 2021-06-11T01:11:14-11:00  21.31311 -157.88862     135   0.1 Hikianalia
  2021-06-11T11:17:27UTC 2021-06-11T01:17:27-10:00 2021-06-11T00:17:27-11:00  21.31318 -157.88832       0   0.0 Hōkūleʻa
  2021-06-11T11:10:51UTC 2021-06-11T01:10:51-10:00 2021-06-11T00:10:51-11:00  21.31482 -157.89044     315   0.1 Hikianalia
  2021-06-11T10:18:41UTC 2021-06-11T00:18:41-10:00 2021-06-10T23:18:41-11:00  21.31318 -157.88832       0   0.0 Hōkūleʻa
  2021-06-11T10:10:40UTC 2021-06-11T00:10:40-10:00 2021-06-10T23:10:40-11:00  21.31311 -157.88862       0   0.0 Hikianalia
  2021-06-11T09:27:23UTC 2021-06-10T23:27:23-10:00 2021-06-10T22:27:23-11:00  21.31318 -157.88832       0   0.0 Hōkūleʻa
  2021-06-11T09:10:45UTC 2021-06-10T23:10:45-10:00 2021-06-10T22:10:45-11:00  21.31311 -157.88862       0   0.0 Hikianalia
  2021-06-11T08:18:27UTC 2021-06-10T22:18:27-10:00 2021-06-10T21:18:27-11:00  21.31318 -157.88832       0   0.0 Hōkūleʻa
  2021-06-11T08:11:17UTC 2021-06-10T22:11:17-10:00 2021-06-10T21:11:17-11:00  21.31311 -157.88862       0   0.0 Hikianalia
  2021-06-11T07:18:18UTC 2021-06-10T21:18:18-10:00 2021-06-10T20:18:18-11:00  21.31318 -157.88832       0   0.0 Hōkūleʻa
  2021-06-11T07:09:49UTC 2021-06-10T21:09:49-10:00 2021-06-10T20:09:49-11:00  21.31311 -157.88862       0   0.0 Hikianalia
  2021-06-11T06:18:47UTC 2021-06-10T20:18:47-10:00 2021-06-10T19:18:47-11:00  21.31318 -157.88832       0   0.0 Hōkūleʻa
  2021-06-11T06:10:39UTC 2021-06-10T20:10:39-10:00 2021-06-10T19:10:39-11:00  21.31311 -157.88862     140   0.0 Hikianalia
  2021-06-11T05:18:22UTC 2021-06-10T19:18:22-10:00 2021-06-10T18:18:22-11:00  21.31318 -157.88832       0   0.0 Hōkūleʻa
  2021-06-11T05:10:46UTC 2021-06-10T19:10:46-10:00 2021-06-10T18:10:46-11:00  21.31321 -157.88871     320   0.0 Hikianalia
  2021-06-11T04:18:24UTC 2021-06-10T18:18:24-10:00 2021-06-10T17:18:24-11:00  21.31318 -157.88832       0   0.0 Hōkūleʻa
  2021-06-11T04:11:18UTC 2021-06-10T18:11:18-10:00 2021-06-10T17:11:18-11:00  21.31311 -157.88862       0   0.0 Hikianalia
  2021-06-11T03:17:27UTC 2021-06-10T17:17:27-10:00 2021-06-10T16:17:27-11:00  21.31318 -157.88832       0   0.0 Hōkūleʻa
  2021-06-11T03:10:55UTC 2021-06-10T17:10:55-10:00 2021-06-10T16:10:55-11:00  21.31311 -157.88862       0   0.0 Hikianalia
  2021-06-11T02:18:47UTC 2021-06-10T16:18:47-10:00 2021-06-10T15:18:47-11:00  21.31318 -157.88832       0   0.0 Hōkūleʻa
  2021-06-11T02:10:50UTC 2021-06-10T16:10:50-10:00 2021-06-10T15:10:50-11:00  21.31311 -157.88862       0   0.0 Hikianalia
  2021-06-11T01:17:25UTC 2021-06-10T15:17:25-10:00 2021-06-10T14:17:25-11:00  21.31318 -157.88832       0   0.0 Hōkūleʻa
  2021-06-11T01:10:00UTC 2021-06-10T15:10:00-10:00 2021-06-10T14:10:00-11:00  21.31310 -157.88862       0   0.0 Hikianalia
  2021-06-11T00:18:17UTC 2021-06-10T14:18:17-10:00 2021-06-10T13:18:17-11:00  21.31318 -157.88832       0   0.0 Hōkūleʻa
  2021-06-11T00:10:21UTC 2021-06-10T14:10:21-10:00 2021-06-10T13:10:21-11:00  21.31309 -157.88862       0   0.0 Hikianalia
  2021-06-10T23:17:48UTC 2021-06-10T13:17:48-10:00 2021-06-10T12:17:48-11:00  21.31318 -157.88832       0   0.0 Hōkūleʻa
  2021-06-10T23:10:17UTC 2021-06-10T13:10:17-10:00 2021-06-10T12:10:17-11:00  21.31309 -157.88862      90   0.0 Hikianalia
  2021-06-10T22:18:27UTC 2021-06-10T12:18:27-10:00 2021-06-10T11:18:27-11:00  21.31318 -157.88832       0   0.0 Hōkūleʻa
  2021-06-10T22:09:50UTC 2021-06-10T12:09:50-10:00 2021-06-10T11:09:50-11:00  21.31309 -157.88864       0   0.0 Hikianalia
  2021-06-10T21:17:32UTC 2021-06-10T11:17:32-10:00 2021-06-10T10:17:32-11:00  21.31318 -157.88832       0   0.0 Hōkūleʻa
  2021-06-10T21:10:10UTC 2021-06-10T11:10:10-10:00 2021-06-10T10:10:10-11:00  21.31309 -157.88864     231   0.0 Hikianalia
  2021-06-10T20:17:46UTC 2021-06-10T10:17:46-10:00 2021-06-10T09:17:46-11:00  21.31318 -157.88832       0   0.0 Hōkūleʻa
  2021-06-10T20:10:36UTC 2021-06-10T10:10:36-10:00 2021-06-10T09:10:36-11:00  21.31315 -157.88856      51   0.0 Hikianalia
  2021-06-10T19:18:19UTC 2021-06-10T09:18:19-10:00 2021-06-10T08:18:19-11:00  21.31318 -157.88832       0   0.0 Hōkūleʻa
  2021-06-10T19:10:48UTC 2021-06-10T09:10:48-10:00 2021-06-10T08:10:48-11:00  21.31312 -157.88860      62   0.0 Hikianalia
  2021-06-10T18:18:24UTC 2021-06-10T08:18:24-10:00 2021-06-10T07:18:24-11:00  21.31318 -157.88832       0   0.0 Hōkūleʻa
  2021-06-10T18:10:15UTC 2021-06-10T08:10:15-10:00 2021-06-10T07:10:15-11:00  21.31311 -157.88862     293   0.0 Hikianalia
  2021-06-10T17:18:27UTC 2021-06-10T07:18:27-10:00 2021-06-10T06:18:27-11:00  21.31318 -157.88832       0   0.0 Hōkūleʻa
  2021-06-10T17:10:42UTC 2021-06-10T07:10:42-10:00 2021-06-10T06:10:42-11:00  21.31307 -157.88851     108   0.0 Hikianalia
  2021-06-10T16:19:43UTC 2021-06-10T06:19:43-10:00 2021-06-10T05:19:43-11:00  21.31318 -157.88832       0   0.0 Hōkūleʻa
  2021-06-10T16:11:48UTC 2021-06-10T06:11:48-10:00 2021-06-10T05:11:48-11:00  21.31310 -157.88862      90   0.0 Hikianalia
  2021-06-10T15:18:27UTC 2021-06-10T05:18:27-10:00 2021-06-10T04:18:27-11:00  21.31318 -157.88832       0   0.0 Hōkūleʻa
  2021-06-10T15:11:09UTC 2021-06-10T05:11:09-10:00 2021-06-10T04:11:09-11:00  21.31310 -157.88866     242   0.0 Hikianalia
  2021-06-10T14:18:30UTC 2021-06-10T04:18:30-10:00 2021-06-10T03:18:30-11:00  21.31318 -157.88832       0   0.0 Hōkūleʻa
  2021-06-10T14:11:18UTC 2021-06-10T04:11:18-10:00 2021-06-10T03:11:18-11:00  21.31311 -157.88864     270   0.0 Hikianalia
  2021-06-10T13:17:24UTC 2021-06-10T03:17:24-10:00 2021-06-10T02:17:24-11:00  21.31318 -157.88832       0   0.0 Hōkūleʻa
  2021-06-10T13:09:50UTC 2021-06-10T03:09:50-10:00 2021-06-10T02:09:50-11:00  21.31311 -157.88862      75   0.0 Hikianalia
  2021-06-10T12:20:18UTC 2021-06-10T02:20:18-10:00 2021-06-10T01:20:18-11:00  21.31310 -157.88866     260   0.0 Hikianalia
  2021-06-10T12:18:42UTC 2021-06-10T02:18:42-10:00 2021-06-10T01:18:42-11:00  21.31318 -157.88832       0   0.0 Hōkūleʻa
  2021-06-10T11:18:27UTC 2021-06-10T01:18:27-10:00 2021-06-10T00:18:27-11:00  21.31318 -157.88832       0   0.0 Hōkūleʻa
  2021-06-10T11:10:38UTC 2021-06-10T01:10:38-10:00 2021-06-10T00:10:38-11:00  21.31311 -157.88860      90   0.0 Hikianalia
  2021-06-10T10:18:24UTC 2021-06-10T00:18:24-10:00 2021-06-09T23:18:24-11:00  21.31318 -157.88832       0   0.0 Hōkūleʻa
  2021-06-10T10:11:30UTC 2021-06-10T00:11:30-10:00 2021-06-09T23:11:30-11:00  21.31311 -157.88862      90   0.0 Hikianalia
  2021-06-10T09:18:25UTC 2021-06-09T23:18:25-10:00 2021-06-09T22:18:25-11:00  21.31318 -157.88832       0   0.0 Hōkūleʻa
  2021-06-10T09:09:39UTC 2021-06-09T23:09:39-10:00 2021-06-09T22:09:39-11:00  21.31311 -157.88866     327   0.0 Hikianalia
  2021-06-10T08:18:46UTC 2021-06-09T22:18:46-10:00 2021-06-09T21:18:46-11:00  21.31318 -157.88832       0   0.0 Hōkūleʻa
  2021-06-10T08:12:10UTC 2021-06-09T22:12:10-10:00 2021-06-09T21:12:10-11:00  21.31308 -157.88864     212   0.0 Hikianalia
  2021-06-10T07:18:36UTC 2021-06-09T21:18:36-10:00 2021-06-09T20:18:36-11:00  21.31318 -157.88832       0   0.0 Hōkūleʻa
  2021-06-10T07:10:52UTC 2021-06-09T21:10:52-10:00 2021-06-09T20:10:52-11:00  21.31311 -157.88862     317   0.0 Hikianalia
  2021-06-10T06:19:23UTC 2021-06-09T20:19:23-10:00 2021-06-09T19:19:23-11:00  21.31318 -157.88832       0   0.0 Hōkūleʻa
  2021-06-10T06:10:47UTC 2021-06-09T20:10:47-10:00 2021-06-09T19:10:47-11:00  21.31309 -157.88860     137   0.0 Hikianalia
  2021-06-10T05:18:29UTC 2021-06-09T19:18:29-10:00 2021-06-09T18:18:29-11:00  21.31318 -157.88832       0   0.0 Hōkūleʻa
  2021-06-10T05:11:18UTC 2021-06-09T19:11:18-10:00 2021-06-09T18:11:18-11:00  21.31311 -157.88862       0   0.0 Hikianalia
  2021-06-10T04:17:50UTC 2021-06-09T18:17:50-10:00 2021-06-09T17:17:50-11:00  21.31318 -157.88832       0   0.0 Hōkūleʻa
  2021-06-10T04:10:20UTC 2021-06-09T18:10:20-10:00 2021-06-09T17:10:20-11:00  21.31310 -157.88862     141   0.0 Hikianalia
  2021-06-10T03:18:26UTC 2021-06-09T17:18:26-10:00 2021-06-09T16:18:26-11:00  21.31318 -157.88832       0   0.0 Hōkūleʻa
  2021-06-10T03:10:46UTC 2021-06-09T17:10:46-10:00 2021-06-09T16:10:46-11:00  21.31318 -157.88868     321   0.0 Hikianalia
  2021-06-10T02:24:13UTC 2021-06-09T16:24:13-10:00 2021-06-09T15:24:13-11:00  21.31318 -157.88832       0   0.0 Hōkūleʻa
  2021-06-10T02:10:18UTC 2021-06-09T16:10:18-10:00 2021-06-09T15:10:18-11:00  21.31310 -157.88862     180   0.0 Hikianalia
  2021-06-10T01:17:26UTC 2021-06-09T15:17:26-10:00 2021-06-09T14:17:26-11:00  21.31318 -157.88832       0   0.0 Hōkūleʻa
  2021-06-10T01:10:46UTC 2021-06-09T15:10:46-10:00 2021-06-09T14:10:46-11:00  21.31311 -157.88862     180   0.0 Hikianalia
  2021-06-10T00:17:41UTC 2021-06-09T14:17:41-10:00 2021-06-09T13:17:41-11:00  21.31318 -157.88832       0   0.0 Hōkūleʻa
  2021-06-10T00:10:18UTC 2021-06-09T14:10:18-10:00 2021-06-09T13:10:18-11:00  21.31312 -157.88862       0   0.0 Hikianalia
  2021-06-09T23:18:36UTC 2021-06-09T13:18:36-10:00 2021-06-09T12:18:36-11:00  21.31318 -157.88832       0   0.0 Hōkūleʻa
  2021-06-09T23:10:17UTC 2021-06-09T13:10:17-10:00 2021-06-09T12:10:17-11:00  21.31311 -157.88862     167   0.0 Hikianalia
  2021-06-09T22:17:26UTC 2021-06-09T12:17:26-10:00 2021-06-09T11:17:26-11:00  21.31318 -157.88832       0   0.0 Hōkūleʻa
  2021-06-09T22:09:40UTC 2021-06-09T12:09:40-10:00 2021-06-09T11:09:40-11:00  21.31320 -157.88864     349   0.0 Hikianalia
  2021-06-09T21:18:26UTC 2021-06-09T11:18:26-10:00 2021-06-09T10:18:26-11:00  21.31318 -157.88832       0   0.0 Hōkūleʻa
  2021-06-09T21:11:10UTC 2021-06-09T11:11:10-10:00 2021-06-09T10:11:10-11:00  21.31310 -157.88862      32   0.0 Hikianalia
  2021-06-09T20:17:40UTC 2021-06-09T10:17:40-10:00 2021-06-09T09:17:40-11:00  21.31318 -157.88832       0   0.0 Hōkūleʻa
  2021-06-09T20:10:10UTC 2021-06-09T10:10:10-10:00 2021-06-09T09:10:10-11:00  21.31307 -157.88864     232   0.0 Hikianalia
  2021-06-09T19:18:25UTC 2021-06-09T09:18:25-10:00 2021-06-09T08:18:25-11:00  21.31318 -157.88832       0   0.0 Hōkūleʻa
  2021-06-09T19:09:50UTC 2021-06-09T09:09:50-10:00 2021-06-09T08:09:50-11:00  21.31310 -157.88860      75   0.0 Hikianalia
  2021-06-09T18:18:28UTC 2021-06-09T08:18:28-10:00 2021-06-09T07:18:28-11:00  21.31318 -157.88832       0   0.0 Hōkūleʻa
  2021-06-09T18:11:11UTC 2021-06-09T08:11:11-10:00 2021-06-09T07:11:11-11:00  21.31309 -157.88864     180   0.0 Hikianalia
  2021-06-09T17:18:28UTC 2021-06-09T07:18:28-10:00 2021-06-09T06:18:28-11:00  21.31318 -157.88832       0   0.0 Hōkūleʻa
  2021-06-09T17:11:18UTC 2021-06-09T07:11:18-10:00 2021-06-09T06:11:18-11:00  21.31311 -157.88864      43   0.0 Hikianalia
  2021-06-09T16:17:45UTC 2021-06-09T06:17:45-10:00 2021-06-09T05:17:45-11:00  21.31318 -157.88832       0   0.0 Hōkūleʻa
  2021-06-09T16:10:41UTC 2021-06-09T06:10:41-10:00 2021-06-09T05:10:41-11:00  21.31309 -157.88866     118   0.0 Hikianalia
  2021-06-09T15:20:00UTC 2021-06-09T05:20:00-10:00 2021-06-09T04:20:00-11:00  21.31313 -157.88875     280   0.0 Hikianalia
  2021-06-09T15:18:19UTC 2021-06-09T05:18:19-10:00 2021-06-09T04:18:19-11:00  21.31318 -157.88832       0   0.0 Hōkūleʻa
  2021-06-09T14:18:20UTC 2021-06-09T04:18:20-10:00 2021-06-09T03:18:20-11:00  21.31318 -157.88832       0   0.0 Hōkūleʻa
  2021-06-09T14:11:09UTC 2021-06-09T04:11:09-10:00 2021-06-09T03:11:09-11:00  21.31311 -157.88862     282   0.0 Hikianalia
  2021-06-09T13:28:04UTC 2021-06-09T03:28:04-10:00 2021-06-09T02:28:04-11:00  21.31318 -157.88832       0   0.0 Hōkūleʻa
  2021-06-09T13:10:39UTC 2021-06-09T03:10:39-10:00 2021-06-09T02:10:39-11:00  21.31309 -157.88851      86   0.0 Hikianalia
  2021-06-09T12:18:49UTC 2021-06-09T02:18:49-10:00 2021-06-09T01:18:49-11:00  21.31318 -157.88832       0   0.0 Hōkūleʻa
  2021-06-09T12:10:47UTC 2021-06-09T02:10:47-10:00 2021-06-09T01:10:47-11:00  21.31308 -157.88866     180   0.0 Hikianalia
  2021-06-09T11:18:31UTC 2021-06-09T01:18:31-10:00 2021-06-09T00:18:31-11:00  21.31318 -157.88832      73   0.0 Hōkūleʻa
  2021-06-09T11:10:45UTC 2021-06-09T01:10:45-10:00 2021-06-09T00:10:45-11:00  21.31311 -157.88866     270   0.0 Hikianalia
  2021-06-09T10:18:36UTC 2021-06-09T00:18:36-10:00 2021-06-08T23:18:36-11:00  21.31303 -157.88883     253   0.1 Hōkūleʻa
  2021-06-09T10:11:08UTC 2021-06-09T00:11:08-10:00 2021-06-08T23:11:08-11:00  21.31311 -157.88862       0   0.0 Hikianalia
  2021-06-09T09:18:22UTC 2021-06-08T23:18:22-10:00 2021-06-08T22:18:22-11:00  21.31346 -157.88731      97   0.1 Hōkūleʻa
  2021-06-09T09:10:38UTC 2021-06-08T23:10:38-10:00 2021-06-08T22:10:38-11:00  21.31308 -157.88862     180   0.0 Hikianalia
  2021-06-09T08:18:47UTC 2021-06-08T22:18:47-10:00 2021-06-08T21:18:47-11:00  21.31373 -157.88967       0   0.0 Hōkūleʻa
  2021-06-09T08:11:17UTC 2021-06-08T22:11:17-10:00 2021-06-08T21:11:17-11:00  21.31310 -157.88862     206   0.0 Hikianalia
  2021-06-09T07:18:26UTC 2021-06-08T21:18:26-10:00 2021-06-08T20:18:26-11:00  21.31373 -157.88967       0   0.0 Hōkūleʻa
  2021-06-09T07:10:50UTC 2021-06-08T21:10:50-10:00 2021-06-08T20:10:50-11:00  21.31314 -157.88860      33   0.0 Hikianalia
  2021-06-09T06:18:34UTC 2021-06-08T20:18:34-10:00 2021-06-08T19:18:34-11:00  21.31373 -157.88967       0   0.0 Hōkūleʻa
  2021-06-09T06:10:48UTC 2021-06-08T20:10:48-10:00 2021-06-08T19:10:48-11:00  21.31311 -157.88862     119   0.0 Hikianalia
  2021-06-09T05:18:27UTC 2021-06-08T19:18:27-10:00 2021-06-08T18:18:27-11:00  21.31373 -157.88967       0   0.0 Hōkūleʻa
  2021-06-09T05:09:49UTC 2021-06-08T19:09:49-10:00 2021-06-08T18:09:49-11:00  21.31312 -157.88864     318   0.0 Hikianalia
  2021-06-09T04:28:40UTC 2021-06-08T18:28:40-10:00 2021-06-08T17:28:40-11:00  21.31373 -157.88967       0   0.0 Hōkūleʻa
  2021-06-09T04:11:14UTC 2021-06-08T18:11:14-10:00 2021-06-08T17:11:14-11:00  21.31310 -157.88862     180   0.0 Hikianalia
  2021-06-09T03:17:25UTC 2021-06-08T17:17:25-10:00 2021-06-08T16:17:25-11:00  21.31373 -157.88967       0   0.0 Hōkūleʻa
  2021-06-09T03:10:48UTC 2021-06-08T17:10:48-10:00 2021-06-08T16:10:48-11:00  21.31311 -157.88862       0   0.0 Hikianalia
  2021-06-09T02:18:31UTC 2021-06-08T16:18:31-10:00 2021-06-08T15:18:31-11:00  21.31373 -157.88967       0   0.0 Hōkūleʻa
  2021-06-09T02:09:51UTC 2021-06-08T16:09:51-10:00 2021-06-08T15:09:51-11:00  21.31311 -157.88862       0   0.0 Hikianalia
  2021-06-09T01:17:28UTC 2021-06-08T15:17:28-10:00 2021-06-08T14:17:28-11:00  21.31373 -157.88967       0   0.0 Hōkūleʻa
  2021-06-09T01:10:48UTC 2021-06-08T15:10:48-10:00 2021-06-08T14:10:48-11:00  21.31311 -157.88862       0   0.0 Hikianalia
  2021-06-09T00:17:47UTC 2021-06-08T14:17:47-10:00 2021-06-08T13:17:47-11:00  21.31373 -157.88967       0   0.0 Hōkūleʻa
  2021-06-09T00:10:10UTC 2021-06-08T14:10:10-10:00 2021-06-08T13:10:10-11:00  21.31308 -157.88862     180   0.0 Hikianalia
  2021-06-08T23:18:19UTC 2021-06-08T13:18:19-10:00 2021-06-08T12:18:19-11:00  21.31373 -157.88967       0   0.0 Hōkūleʻa
  2021-06-08T23:09:45UTC 2021-06-08T13:09:45-10:00 2021-06-08T12:09:45-11:00  21.31311 -157.88862     155   0.0 Hikianalia
  2021-06-08T22:17:18UTC 2021-06-08T12:17:18-10:00 2021-06-08T11:17:18-11:00  21.31373 -157.88967       0   0.0 Hōkūleʻa
  2021-06-08T22:10:39UTC 2021-06-08T12:10:39-10:00 2021-06-08T11:10:39-11:00  21.31320 -157.88866     350   0.0 Hikianalia
  2021-06-08T21:18:25UTC 2021-06-08T11:18:25-10:00 2021-06-08T10:18:25-11:00  21.31373 -157.88967       0   0.0 Hōkūleʻa
  2021-06-08T21:09:49UTC 2021-06-08T11:09:49-10:00 2021-06-08T10:09:49-11:00  21.31308 -157.88864     270   0.0 Hikianalia
  2021-06-08T20:18:01UTC 2021-06-08T10:18:01-10:00 2021-06-08T09:18:01-11:00  21.31373 -157.88967       0   0.0 Hōkūleʻa
  2021-06-08T20:11:18UTC 2021-06-08T10:11:18-10:00 2021-06-08T09:11:18-11:00  21.31308 -157.88860     144   0.0 Hikianalia
  2021-06-08T19:18:26UTC 2021-06-08T09:18:26-10:00 2021-06-08T08:18:26-11:00  21.31373 -157.88967       0   0.0 Hōkūleʻa
  2021-06-08T19:09:48UTC 2021-06-08T09:09:48-10:00 2021-06-08T08:09:48-11:00  21.31317 -157.88866     328   0.0 Hikianalia
  2021-06-08T18:18:24UTC 2021-06-08T08:18:24-10:00 2021-06-08T07:18:24-11:00  21.31373 -157.88967       0   0.0 Hōkūleʻa
  2021-06-08T18:10:39UTC 2021-06-08T08:10:39-10:00 2021-06-08T07:10:39-11:00  21.31310 -157.88862      61   0.0 Hikianalia
  2021-06-08T17:21:31UTC 2021-06-08T07:21:31-10:00 2021-06-08T06:21:31-11:00  21.31309 -157.88864     180   0.0 Hikianalia
  2021-06-08T17:18:40UTC 2021-06-08T07:18:40-10:00 2021-06-08T06:18:40-11:00  21.31373 -157.88967       0   0.0 Hōkūleʻa
  2021-06-08T16:19:05UTC 2021-06-08T06:19:05-10:00 2021-06-08T05:19:05-11:00  21.31310 -157.88864     159   0.0 Hikianalia
  2021-06-08T16:18:27UTC 2021-06-08T06:18:27-10:00 2021-06-08T05:18:27-11:00  21.31373 -157.88967       0   0.0 Hōkūleʻa
  2021-06-08T15:18:27UTC 2021-06-08T05:18:27-10:00 2021-06-08T04:18:27-11:00  21.31373 -157.88967       0   0.0 Hōkūleʻa
  2021-06-08T15:17:13UTC 2021-06-08T05:17:13-10:00 2021-06-08T04:17:13-11:00  21.31315 -157.88866     317   0.0 Hikianalia
  2021-06-08T14:18:49UTC 2021-06-08T04:18:49-10:00 2021-06-08T03:18:49-11:00  21.31373 -157.88967       0   0.0 Hōkūleʻa
  2021-06-08T14:10:41UTC 2021-06-08T04:10:41-10:00 2021-06-08T03:10:41-11:00  21.31311 -157.88862     180   0.0 Hikianalia
  2021-06-08T13:18:28UTC 2021-06-08T03:18:28-10:00 2021-06-08T02:18:28-11:00  21.31373 -157.88967       0   0.0 Hōkūleʻa
  2021-06-08T13:09:46UTC 2021-06-08T03:09:46-10:00 2021-06-08T02:09:46-11:00  21.31315 -157.88862       0   0.0 Hikianalia
  2021-06-08T12:18:23UTC 2021-06-08T02:18:23-10:00 2021-06-08T01:18:23-11:00  21.31373 -157.88967       0   0.0 Hōkūleʻa
  2021-06-08T12:11:11UTC 2021-06-08T02:11:11-10:00 2021-06-08T01:11:11-11:00  21.31310 -157.88862     148   0.0 Hikianalia
  2021-06-08T11:18:27UTC 2021-06-08T01:18:27-10:00 2021-06-08T00:18:27-11:00  21.31373 -157.88967       0   0.0 Hōkūleʻa
  2021-06-08T11:11:18UTC 2021-06-08T01:11:18-10:00 2021-06-08T00:11:18-11:00  21.31313 -157.88864       0   0.0 Hikianalia
  2021-06-08T10:18:38UTC 2021-06-08T00:18:38-10:00 2021-06-07T23:18:38-11:00  21.31373 -157.88967       0   0.0 Hōkūleʻa
  2021-06-08T10:10:49UTC 2021-06-08T00:10:49-10:00 2021-06-07T23:10:49-11:00  21.31311 -157.88864     299   0.0 Hikianalia
  2021-06-08T09:17:27UTC 2021-06-07T23:17:27-10:00 2021-06-07T22:17:27-11:00  21.31373 -157.88967       0   0.0 Hōkūleʻa
  2021-06-08T09:10:56UTC 2021-06-07T23:10:56-10:00 2021-06-07T22:10:56-11:00  21.31310 -157.88862       0   0.0 Hikianalia
  2021-06-08T08:18:21UTC 2021-06-07T22:18:21-10:00 2021-06-07T21:18:21-11:00  21.31373 -157.88967       0   0.0 Hōkūleʻa
  2021-06-08T08:11:16UTC 2021-06-07T22:11:16-10:00 2021-06-07T21:11:16-11:00  21.31310 -157.88862     180   0.0 Hikianalia
  2021-06-08T07:18:27UTC 2021-06-07T21:18:27-10:00 2021-06-07T20:18:27-11:00  21.31373 -157.88967       0   0.0 Hōkūleʻa
  2021-06-08T07:11:00UTC 2021-06-07T21:11:00-10:00 2021-06-07T20:11:00-11:00  21.31311 -157.88862       0   0.0 Hikianalia
  2021-06-08T06:18:48UTC 2021-06-07T20:18:48-10:00 2021-06-07T19:18:48-11:00  21.31373 -157.88967       0   0.0 Hōkūleʻa
  2021-06-08T06:10:39UTC 2021-06-07T20:10:39-10:00 2021-06-07T19:10:39-11:00  21.31311 -157.88862       0   0.0 Hikianalia
  2021-06-08T05:18:24UTC 2021-06-07T19:18:24-10:00 2021-06-07T18:18:24-11:00  21.31373 -157.88967       0   0.0 Hōkūleʻa
  2021-06-08T05:09:45UTC 2021-06-07T19:09:45-10:00 2021-06-07T18:09:45-11:00  21.31311 -157.88862     180   0.0 Hikianalia
  2021-06-08T04:18:25UTC 2021-06-07T18:18:25-10:00 2021-06-07T17:18:25-11:00  21.31373 -157.88967       0   0.0 Hōkūleʻa
  2021-06-08T04:11:11UTC 2021-06-07T18:11:11-10:00 2021-06-07T17:11:11-11:00  21.31312 -157.88862       0   0.0 Hikianalia
  2021-06-08T03:18:48UTC 2021-06-07T17:18:48-10:00 2021-06-07T16:18:48-11:00  21.31373 -157.88967       0   0.0 Hōkūleʻa
  2021-06-08T03:10:45UTC 2021-06-07T17:10:45-10:00 2021-06-07T16:10:45-11:00  21.31311 -157.88862       0   0.0 Hikianalia
  2021-06-08T02:18:31UTC 2021-06-07T16:18:31-10:00 2021-06-07T15:18:31-11:00  21.31373 -157.88967       0   0.0 Hōkūleʻa
  2021-06-08T02:10:44UTC 2021-06-07T16:10:44-10:00 2021-06-07T15:10:44-11:00  21.31311 -157.88862       0   0.0 Hikianalia
  2021-06-08T01:17:25UTC 2021-06-07T15:17:25-10:00 2021-06-07T14:17:25-11:00  21.31373 -157.88967       0   0.0 Hōkūleʻa
  2021-06-08T01:10:57UTC 2021-06-07T15:10:57-10:00 2021-06-07T14:10:57-11:00  21.31311 -157.88862       0   0.0 Hikianalia
  2021-06-08T00:17:42UTC 2021-06-07T14:17:42-10:00 2021-06-07T13:17:42-11:00  21.31373 -157.88967       0   0.0 Hōkūleʻa
  2021-06-08T00:10:11UTC 2021-06-07T14:10:11-10:00 2021-06-07T13:10:11-11:00  21.31311 -157.88862     157   0.0 Hikianalia
  2021-06-07T23:18:28UTC 2021-06-07T13:18:28-10:00 2021-06-07T12:18:28-11:00  21.31373 -157.88967       0   0.0 Hōkūleʻa
  2021-06-07T23:09:36UTC 2021-06-07T13:09:36-10:00 2021-06-07T12:09:36-11:00  21.31325 -157.88868       0   0.0 Hikianalia
  2021-06-07T22:17:27UTC 2021-06-07T12:17:27-10:00 2021-06-07T11:17:27-11:00  21.31373 -157.88967       0   0.0 Hōkūleʻa
  2021-06-07T22:10:48UTC 2021-06-07T12:10:48-10:00 2021-06-07T11:10:48-11:00  21.31315 -157.88868     306   0.0 Hikianalia
  2021-06-07T21:18:51UTC 2021-06-07T11:18:51-10:00 2021-06-07T10:18:51-11:00  21.31373 -157.88967       0   0.0 Hōkūleʻa
  2021-06-07T21:09:48UTC 2021-06-07T11:09:48-10:00 2021-06-07T10:09:48-11:00  21.31311 -157.88862       0   0.0 Hikianalia
  2021-06-07T20:17:26UTC 2021-06-07T10:17:26-10:00 2021-06-07T09:17:26-11:00  21.31373 -157.88967       0   0.0 Hōkūleʻa
  2021-06-07T20:11:09UTC 2021-06-07T10:11:09-10:00 2021-06-07T09:11:09-11:00  21.31310 -157.88862     118   0.0 Hikianalia
  2021-06-07T19:18:36UTC 2021-06-07T09:18:36-10:00 2021-06-07T08:18:36-11:00  21.31373 -157.88967       0   0.0 Hōkūleʻa
  2021-06-07T19:09:48UTC 2021-06-07T09:09:48-10:00 2021-06-07T08:09:48-11:00  21.31317 -157.88875     314   0.0 Hikianalia
  2021-06-07T18:17:42UTC 2021-06-07T08:17:42-10:00 2021-06-07T07:17:42-11:00  21.31373 -157.88967       0   0.0 Hōkūleʻa
  2021-06-07T18:10:39UTC 2021-06-07T08:10:39-10:00 2021-06-07T07:10:39-11:00  21.31305 -157.88862     143   0.0 Hikianalia
  2021-06-07T17:18:30UTC 2021-06-07T07:18:30-10:00 2021-06-07T06:18:30-11:00  21.31373 -157.88967       0   0.0 Hōkūleʻa
  2021-06-07T17:10:44UTC 2021-06-07T07:10:44-10:00 2021-06-07T06:10:44-11:00  21.31310 -157.88866     270   0.0 Hikianalia
  2021-06-07T16:18:27UTC 2021-06-07T06:18:27-10:00 2021-06-07T05:18:27-11:00  21.31373 -157.88967       0   0.0 Hōkūleʻa
  2021-06-07T16:17:36UTC 2021-06-07T06:17:36-10:00 2021-06-07T05:17:36-11:00  21.31310 -157.88864     307   0.0 Hikianalia
  2021-06-07T15:18:25UTC 2021-06-07T05:18:25-10:00 2021-06-07T04:18:25-11:00  21.31373 -157.88967       0   0.0 Hōkūleʻa
  2021-06-07T15:10:37UTC 2021-06-07T05:10:37-10:00 2021-06-07T04:10:37-11:00  21.31303 -157.88853     137   0.0 Hikianalia
  2021-06-07T14:18:47UTC 2021-06-07T04:18:47-10:00 2021-06-07T03:18:47-11:00  21.31373 -157.88967       0   0.0 Hōkūleʻa
  2021-06-07T14:10:41UTC 2021-06-07T04:10:41-10:00 2021-06-07T03:10:41-11:00  21.31311 -157.88862       0   0.0 Hikianalia
  2021-06-07T13:26:38UTC 2021-06-07T03:26:38-10:00 2021-06-07T02:26:38-11:00  21.31373 -157.88967       0   0.0 Hōkūleʻa
  2021-06-07T13:11:13UTC 2021-06-07T03:11:13-10:00 2021-06-07T02:11:13-11:00  21.31311 -157.88862     339   0.0 Hikianalia
  2021-06-07T12:18:18UTC 2021-06-07T02:18:18-10:00 2021-06-07T01:18:18-11:00  21.31373 -157.88967       0   0.0 Hōkūleʻa
  2021-06-07T12:11:13UTC 2021-06-07T02:11:13-10:00 2021-06-07T01:11:13-11:00  21.31306 -157.88860     148   0.0 Hikianalia
  2021-06-07T11:18:23UTC 2021-06-07T01:18:23-10:00 2021-06-07T00:18:23-11:00  21.31373 -157.88967       0   0.0 Hōkūleʻa
  2021-06-07T11:11:17UTC 2021-06-07T01:11:17-10:00 2021-06-07T00:11:17-11:00  21.31315 -157.88866     334   0.0 Hikianalia
  2021-06-07T10:18:50UTC 2021-06-07T00:18:50-10:00 2021-06-06T23:18:50-11:00  21.31373 -157.88967       0   0.0 Hōkūleʻa
  2021-06-07T10:11:18UTC 2021-06-07T00:11:18-10:00 2021-06-06T23:11:18-11:00  21.31311 -157.88864     208   0.0 Hikianalia
  2021-06-07T09:18:18UTC 2021-06-06T23:18:18-10:00 2021-06-06T22:18:18-11:00  21.31373 -157.88967       0   0.0 Hōkūleʻa
  2021-06-07T09:09:45UTC 2021-06-06T23:09:45-10:00 2021-06-06T22:09:45-11:00  21.31319 -157.88860      15   0.0 Hikianalia
  2021-06-07T08:18:39UTC 2021-06-06T22:18:39-10:00 2021-06-06T21:18:39-11:00  21.31373 -157.88967       0   0.0 Hōkūleʻa
  2021-06-07T08:11:09UTC 2021-06-06T22:11:09-10:00 2021-06-06T21:11:09-11:00  21.31311 -157.88862      90   0.0 Hikianalia
  2021-06-07T07:17:28UTC 2021-06-06T21:17:28-10:00 2021-06-06T20:17:28-11:00  21.31373 -157.88967       0   0.0 Hōkūleʻa
  2021-06-07T07:10:40UTC 2021-06-06T21:10:40-10:00 2021-06-06T20:10:40-11:00  21.31311 -157.88864     298   0.0 Hikianalia
  2021-06-07T06:18:18UTC 2021-06-06T20:18:18-10:00 2021-06-06T19:18:18-11:00  21.31373 -157.88967       0   0.0 Hōkūleʻa
  2021-06-07T06:10:49UTC 2021-06-06T20:10:49-10:00 2021-06-06T19:10:49-11:00  21.31308 -157.88858     128   0.0 Hikianalia
  2021-06-07T05:18:19UTC 2021-06-06T19:18:19-10:00 2021-06-06T18:18:19-11:00  21.31373 -157.88967       0   0.0 Hōkūleʻa
  2021-06-07T05:11:19UTC 2021-06-06T19:11:19-10:00 2021-06-06T18:11:19-11:00  21.31311 -157.88862      90   0.0 Hikianalia
  2021-06-07T04:17:47UTC 2021-06-06T18:17:47-10:00 2021-06-06T17:17:47-11:00  21.31373 -157.88967       0   0.0 Hōkūleʻa
  2021-06-07T04:10:49UTC 2021-06-06T18:10:49-10:00 2021-06-06T17:10:49-11:00  21.31311 -157.88864     223   0.0 Hikianalia
  2021-06-07T03:18:22UTC 2021-06-06T17:18:22-10:00 2021-06-06T16:18:22-11:00  21.31373 -157.88967       0   0.0 Hōkūleʻa
  2021-06-07T03:10:27UTC 2021-06-06T17:10:27-10:00 2021-06-06T16:10:27-11:00  21.31313 -157.88862       0   0.0 Hikianalia
  2021-06-07T02:18:15UTC 2021-06-06T16:18:15-10:00 2021-06-06T15:18:15-11:00  21.31373 -157.88967       0   0.0 Hōkūleʻa
  2021-06-07T02:10:43UTC 2021-06-06T16:10:43-10:00 2021-06-06T15:10:43-11:00  21.31311 -157.88862       0   0.0 Hikianalia
  2021-06-07T01:17:26UTC 2021-06-06T15:17:26-10:00 2021-06-06T14:17:26-11:00  21.31373 -157.88967       0   0.0 Hōkūleʻa
  2021-06-07T01:10:47UTC 2021-06-06T15:10:47-10:00 2021-06-06T14:10:47-11:00  21.31311 -157.88862       0   0.0 Hikianalia
  2021-06-07T00:17:42UTC 2021-06-06T14:17:42-10:00 2021-06-06T13:17:42-11:00  21.31373 -157.88967       0   0.0 Hōkūleʻa
  2021-06-07T00:10:15UTC 2021-06-06T14:10:15-10:00 2021-06-06T13:10:15-11:00  21.31309 -157.88862     180   0.0 Hikianalia
  2021-06-06T23:18:29UTC 2021-06-06T13:18:29-10:00 2021-06-06T12:18:29-11:00  21.31373 -157.88967       0   0.0 Hōkūleʻa
  2021-06-06T23:17:36UTC 2021-06-06T13:17:36-10:00 2021-06-06T12:17:36-11:00  21.31311 -157.88862     111   0.0 Hikianalia
  2021-06-06T22:17:27UTC 2021-06-06T12:17:27-10:00 2021-06-06T11:17:27-11:00  21.31373 -157.88967       0   0.0 Hōkūleʻa
  2021-06-06T22:10:50UTC 2021-06-06T12:10:50-10:00 2021-06-06T11:10:50-11:00  21.31317 -157.88877     324   0.0 Hikianalia
  2021-06-06T21:18:27UTC 2021-06-06T11:18:27-10:00 2021-06-06T10:18:27-11:00  21.31373 -157.88967       0   0.0 Hōkūleʻa
  2021-06-06T21:10:47UTC 2021-06-06T11:10:47-10:00 2021-06-06T10:10:47-11:00  21.31303 -157.88866     205   0.0 Hikianalia
  2021-06-06T20:17:39UTC 2021-06-06T10:17:39-10:00 2021-06-06T09:17:39-11:00  21.31373 -157.88967       0   0.0 Hōkūleʻa
  2021-06-06T20:10:11UTC 2021-06-06T10:10:11-10:00 2021-06-06T09:10:11-11:00  21.31311 -157.88862     308   0.0 Hikianalia
  2021-06-06T19:18:35UTC 2021-06-06T09:18:35-10:00 2021-06-06T08:18:35-11:00  21.31373 -157.88967       0   0.0 Hōkūleʻa
  2021-06-06T19:09:52UTC 2021-06-06T09:09:52-10:00 2021-06-06T08:09:52-11:00  21.31308 -157.88858      96   0.0 Hikianalia
  2021-06-06T18:17:25UTC 2021-06-06T08:17:25-10:00 2021-06-06T07:17:25-11:00  21.31373 -157.88967       0   0.0 Hōkūleʻa
  2021-06-06T18:10:43UTC 2021-06-06T08:10:43-10:00 2021-06-06T07:10:43-11:00  21.31309 -157.88868     270   0.0 Hikianalia
  2021-06-06T17:18:19UTC 2021-06-06T07:18:19-10:00 2021-06-06T06:18:19-11:00  21.31373 -157.88967       0   0.0 Hōkūleʻa
  2021-06-06T17:11:10UTC 2021-06-06T07:11:10-10:00 2021-06-06T06:11:10-11:00  21.31309 -157.88864     270   0.0 Hikianalia
  2021-06-06T16:18:38UTC 2021-06-06T06:18:38-10:00 2021-06-06T05:18:38-11:00  21.31373 -157.88967       0   0.0 Hōkūleʻa
  2021-06-06T16:10:41UTC 2021-06-06T06:10:41-10:00 2021-06-06T05:10:41-11:00  21.31309 -157.88860     137   0.0 Hikianalia
  2021-06-06T15:18:36UTC 2021-06-06T05:18:36-10:00 2021-06-06T04:18:36-11:00  21.31373 -157.88967       0   0.0 Hōkūleʻa
  2021-06-06T15:09:47UTC 2021-06-06T05:09:47-10:00 2021-06-06T04:09:47-11:00  21.31311 -157.88862       0   0.0 Hikianalia
  2021-06-06T14:21:06UTC 2021-06-06T04:21:06-10:00 2021-06-06T03:21:06-11:00  21.31310 -157.88862     251   0.0 Hikianalia
  2021-06-06T14:18:20UTC 2021-06-06T04:18:20-10:00 2021-06-06T03:18:20-11:00  21.31373 -157.88967       0   0.0 Hōkūleʻa
  2021-06-06T13:18:42UTC 2021-06-06T03:18:42-10:00 2021-06-06T02:18:42-11:00  21.31373 -157.88967       0   0.0 Hōkūleʻa
  2021-06-06T13:10:42UTC 2021-06-06T03:10:42-10:00 2021-06-06T02:10:42-11:00  21.31317 -157.88843      71   0.0 Hikianalia
  2021-06-06T12:18:25UTC 2021-06-06T02:18:25-10:00 2021-06-06T01:18:25-11:00  21.31373 -157.88967       0   0.0 Hōkūleʻa
  2021-06-06T12:10:47UTC 2021-06-06T02:10:47-10:00 2021-06-06T01:10:47-11:00  21.31309 -157.88866     255   0.0 Hikianalia
  2021-06-06T11:18:27UTC 2021-06-06T01:18:27-10:00 2021-06-06T00:18:27-11:00  21.31373 -157.88967       0   0.0 Hōkūleʻa
  2021-06-06T11:10:51UTC 2021-06-06T01:10:51-10:00 2021-06-06T00:10:51-11:00  21.31310 -157.88862     180   0.0 Hikianalia
  2021-06-06T10:18:41UTC 2021-06-06T00:18:41-10:00 2021-06-05T23:18:41-11:00  21.31373 -157.88967       0   0.0 Hōkūleʻa
  2021-06-06T10:11:08UTC 2021-06-06T00:11:08-10:00 2021-06-05T23:11:08-11:00  21.31311 -157.88862     148   0.0 Hikianalia
  2021-06-06T09:17:25UTC 2021-06-05T23:17:25-10:00 2021-06-05T22:17:25-11:00  21.31373 -157.88967       0   0.0 Hōkūleʻa
  2021-06-06T09:09:48UTC 2021-06-05T23:09:48-10:00 2021-06-05T22:09:48-11:00  21.31318 -157.88866     332   0.0 Hikianalia
  2021-06-06T08:18:19UTC 2021-06-05T22:18:19-10:00 2021-06-05T21:18:19-11:00  21.31373 -157.88967       0   0.0 Hōkūleʻa
  2021-06-06T08:11:10UTC 2021-06-05T22:11:10-10:00 2021-06-05T21:11:10-11:00  21.31310 -157.88862     180   0.0 Hikianalia
  2021-06-06T07:18:25UTC 2021-06-05T21:18:25-10:00 2021-06-05T20:18:25-11:00  21.31373 -157.88967       0   0.0 Hōkūleʻa
  2021-06-06T07:10:46UTC 2021-06-05T21:10:46-10:00 2021-06-05T20:10:46-11:00  21.31311 -157.88862       0   0.0 Hikianalia
  2021-06-06T06:18:49UTC 2021-06-05T20:18:49-10:00 2021-06-05T19:18:49-11:00  21.31373 -157.88967       0   0.0 Hōkūleʻa
  2021-06-06T06:10:37UTC 2021-06-05T20:10:37-10:00 2021-06-05T19:10:37-11:00  21.31311 -157.88862     166   0.0 Hikianalia
  2021-06-06T05:18:20UTC 2021-06-05T19:18:20-10:00 2021-06-05T18:18:20-11:00  21.31373 -157.88967       0   0.0 Hōkūleʻa
  2021-06-06T05:10:46UTC 2021-06-05T19:10:46-10:00 2021-06-05T18:10:46-11:00  21.31327 -157.88866     346   0.0 Hikianalia
  2021-06-06T04:18:27UTC 2021-06-05T18:18:27-10:00 2021-06-05T17:18:27-11:00  21.31373 -157.88967       0   0.0 Hōkūleʻa
  2021-06-06T04:11:09UTC 2021-06-05T18:11:09-10:00 2021-06-05T17:11:09-11:00  21.31311 -157.88862       0   0.0 Hikianalia
  2021-06-06T03:17:49UTC 2021-06-05T17:17:49-10:00 2021-06-05T16:17:49-11:00  21.31373 -157.88967       0   0.0 Hōkūleʻa
  2021-06-06T03:09:47UTC 2021-06-05T17:09:47-10:00 2021-06-05T16:09:47-11:00  21.31311 -157.88862     108   0.0 Hikianalia
  2021-06-06T02:18:22UTC 2021-06-05T16:18:22-10:00 2021-06-05T15:18:22-11:00  21.31373 -157.88967       0   0.0 Hōkūleʻa
  2021-06-06T02:10:45UTC 2021-06-05T16:10:45-10:00 2021-06-05T15:10:45-11:00  21.31314 -157.88873     288   0.0 Hikianalia
  2021-06-06T01:17:25UTC 2021-06-05T15:17:25-10:00 2021-06-05T14:17:25-11:00  21.31373 -157.88967       0   0.0 Hōkūleʻa
  2021-06-06T01:10:13UTC 2021-06-05T15:10:13-10:00 2021-06-05T14:10:13-11:00  21.31311 -157.88862       0   0.0 Hikianalia
  2021-06-06T00:18:41UTC 2021-06-05T14:18:41-10:00 2021-06-05T13:18:41-11:00  21.31373 -157.88967       0   0.0 Hōkūleʻa
  2021-06-06T00:10:12UTC 2021-06-05T14:10:12-10:00 2021-06-05T13:10:12-11:00  21.31310 -157.88862       0   0.0 Hikianalia
  2021-06-05T23:17:30UTC 2021-06-05T13:17:30-10:00 2021-06-05T12:17:30-11:00  21.31373 -157.88967       0   0.0 Hōkūleʻa
  2021-06-05T23:10:44UTC 2021-06-05T13:10:44-10:00 2021-06-05T12:10:44-11:00  21.31300 -157.88862     180   0.0 Hikianalia
  2021-06-05T22:18:26UTC 2021-06-05T12:18:26-10:00 2021-06-05T11:18:26-11:00  21.31373 -157.88967       0   0.0 Hōkūleʻa
  2021-06-05T22:10:16UTC 2021-06-05T12:10:16-10:00 2021-06-05T11:10:16-11:00  21.31311 -157.88862       0   0.0 Hikianalia
  2021-06-05T21:18:36UTC 2021-06-05T11:18:36-10:00 2021-06-05T10:18:36-11:00  21.31373 -157.88967       0   0.0 Hōkūleʻa
  2021-06-05T21:10:43UTC 2021-06-05T11:10:43-10:00 2021-06-05T10:10:43-11:00  21.31310 -157.88862       0   0.0 Hikianalia
  2021-06-05T20:17:48UTC 2021-06-05T10:17:48-10:00 2021-06-05T09:17:48-11:00  21.31373 -157.88967       0   0.0 Hōkūleʻa
  2021-06-05T20:10:19UTC 2021-06-05T10:10:19-10:00 2021-06-05T09:10:19-11:00  21.31310 -157.88862      98   0.0 Hikianalia
  2021-06-05T19:18:20UTC 2021-06-05T09:18:20-10:00 2021-06-05T08:18:20-11:00  21.31373 -157.88967       0   0.0 Hōkūleʻa
  2021-06-05T19:10:03UTC 2021-06-05T09:10:03-10:00 2021-06-05T08:10:03-11:00  21.31311 -157.88871     299   0.0 Hikianalia
  2021-06-05T18:17:24UTC 2021-06-05T08:17:24-10:00 2021-06-05T07:17:24-11:00  21.31373 -157.88967       0   0.0 Hōkūleʻa
  2021-06-05T18:10:40UTC 2021-06-05T08:10:40-10:00 2021-06-05T07:10:40-11:00  21.31309 -157.88866     241   0.0 Hikianalia
  2021-06-05T17:18:21UTC 2021-06-05T07:18:21-10:00 2021-06-05T06:18:21-11:00  21.31373 -157.88967       0   0.0 Hōkūleʻa
  2021-06-05T17:11:12UTC 2021-06-05T07:11:12-10:00 2021-06-05T06:11:12-11:00  21.31311 -157.88862      32   0.0 Hikianalia
  2021-06-05T16:18:47UTC 2021-06-05T06:18:47-10:00 2021-06-05T05:18:47-11:00  21.31373 -157.88967       0   0.0 Hōkūleʻa
  2021-06-05T16:10:50UTC 2021-06-05T06:10:50-10:00 2021-06-05T05:10:50-11:00  21.31308 -157.88864     251   0.0 Hikianalia
  2021-06-05T15:18:24UTC 2021-06-05T05:18:24-10:00 2021-06-05T04:18:24-11:00  21.31373 -157.88967       0   0.0 Hōkūleʻa
  2021-06-05T15:10:46UTC 2021-06-05T05:10:46-10:00 2021-06-05T04:10:46-11:00  21.31310 -157.88858      61   0.0 Hikianalia
  2021-06-05T14:18:21UTC 2021-06-05T04:18:21-10:00 2021-06-05T03:18:21-11:00  21.31373 -157.88967       0   0.0 Hōkūleʻa
  2021-06-05T14:11:19UTC 2021-06-05T04:11:19-10:00 2021-06-05T03:11:19-11:00  21.31309 -157.88860     262   0.0 Hikianalia
  2021-06-05T13:18:28UTC 2021-06-05T03:18:28-10:00 2021-06-05T02:18:28-11:00  21.31373 -157.88967       0   0.0 Hōkūleʻa
  2021-06-05T13:10:50UTC 2021-06-05T03:10:50-10:00 2021-06-05T02:10:50-11:00  21.31310 -157.88851      84   0.0 Hikianalia
  2021-06-05T12:18:53UTC 2021-06-05T02:18:53-10:00 2021-06-05T01:18:53-11:00  21.31373 -157.88967       0   0.0 Hōkūleʻa
  2021-06-05T12:09:48UTC 2021-06-05T02:09:48-10:00 2021-06-05T01:09:48-11:00  21.31309 -157.88862     180   0.0 Hikianalia
  2021-06-05T11:17:20UTC 2021-06-05T01:17:20-10:00 2021-06-05T00:17:20-11:00  21.31373 -157.88967       0   0.0 Hōkūleʻa
  2021-06-05T11:10:51UTC 2021-06-05T01:10:51-10:00 2021-06-05T00:10:51-11:00  21.31311 -157.88862       0   0.0 Hikianalia
  2021-06-05T10:19:20UTC 2021-06-05T00:19:20-10:00 2021-06-04T23:19:20-11:00  21.31373 -157.88967       0   0.0 Hōkūleʻa
  2021-06-05T10:11:11UTC 2021-06-05T00:11:11-10:00 2021-06-04T23:11:11-11:00  21.31311 -157.88862       0   0.0 Hikianalia
  2021-06-05T09:18:27UTC 2021-06-04T23:18:27-10:00 2021-06-04T22:18:27-11:00  21.31373 -157.88967       0   0.0 Hōkūleʻa
  2021-06-05T09:10:42UTC 2021-06-04T23:10:42-10:00 2021-06-04T22:10:42-11:00  21.31311 -157.88862       0   0.0 Hikianalia
  2021-06-05T08:19:24UTC 2021-06-04T22:19:24-10:00 2021-06-04T21:19:24-11:00  21.31373 -157.88967       0   0.0 Hōkūleʻa
  2021-06-05T08:10:51UTC 2021-06-04T22:10:51-10:00 2021-06-04T21:10:51-11:00  21.31311 -157.88862       0   0.0 Hikianalia
  2021-06-05T07:18:28UTC 2021-06-04T21:18:28-10:00 2021-06-04T20:18:28-11:00  21.31373 -157.88967       0   0.0 Hōkūleʻa
  2021-06-05T07:10:50UTC 2021-06-04T21:10:50-10:00 2021-06-04T20:10:50-11:00  21.31311 -157.88862       0   0.0 Hikianalia
  2021-06-05T06:18:31UTC 2021-06-04T20:18:31-10:00 2021-06-04T19:18:31-11:00  21.31373 -157.88967       0   0.0 Hōkūleʻa
  2021-06-05T06:17:09UTC 2021-06-04T20:17:09-10:00 2021-06-04T19:17:09-11:00  21.31310 -157.88862     180   0.0 Hikianalia
  2021-06-05T05:18:40UTC 2021-06-04T19:18:40-10:00 2021-06-04T18:18:40-11:00  21.31373 -157.88967       0   0.0 Hōkūleʻa
  2021-06-05T05:10:43UTC 2021-06-04T19:10:43-10:00 2021-06-04T18:10:43-11:00  21.31311 -157.88862       0   0.0 Hikianalia
  2021-06-05T04:17:41UTC 2021-06-04T18:17:41-10:00 2021-06-04T17:17:41-11:00  21.31373 -157.88967       0   0.0 Hōkūleʻa
  2021-06-05T04:10:50UTC 2021-06-04T18:10:50-10:00 2021-06-04T17:10:50-11:00  21.31311 -157.88862     288   0.0 Hikianalia
  2021-06-05T03:18:26UTC 2021-06-04T17:18:26-10:00 2021-06-04T16:18:26-11:00  21.31373 -157.88967       0   0.0 Hōkūleʻa
  2021-06-05T03:10:48UTC 2021-06-04T17:10:48-10:00 2021-06-04T16:10:48-11:00  21.31308 -157.88851     108   0.0 Hikianalia
  2021-06-05T02:18:27UTC 2021-06-04T16:18:27-10:00 2021-06-04T15:18:27-11:00  21.31373 -157.88967       0   0.0 Hōkūleʻa
  2021-06-05T02:10:16UTC 2021-06-04T16:10:16-10:00 2021-06-04T15:10:16-11:00  21.31311 -157.88862     118   0.0 Hikianalia
  2021-06-05T01:17:25UTC 2021-06-04T15:17:25-10:00 2021-06-04T14:17:25-11:00  21.31373 -157.88967       0   0.0 Hōkūleʻa
  2021-06-05T01:10:14UTC 2021-06-04T15:10:14-10:00 2021-06-04T14:10:14-11:00  21.31313 -157.88866     298   0.0 Hikianalia
  2021-06-05T00:17:42UTC 2021-06-04T14:17:42-10:00 2021-06-04T13:17:42-11:00  21.31373 -157.88967       0   0.0 Hōkūleʻa
  2021-06-05T00:09:54UTC 2021-06-04T14:09:54-10:00 2021-06-04T13:09:54-11:00  21.31311 -157.88862       0   0.0 Hikianalia
  2021-06-04T23:18:24UTC 2021-06-04T13:18:24-10:00 2021-06-04T12:18:24-11:00  21.31373 -157.88967       0   0.0 Hōkūleʻa
  2021-06-04T23:09:42UTC 2021-06-04T13:09:42-10:00 2021-06-04T12:09:42-11:00  21.31311 -157.88862       0   0.0 Hikianalia
  2021-06-04T22:20:47UTC 2021-06-04T12:20:47-10:00 2021-06-04T11:20:47-11:00  21.31311 -157.88862       0   0.0 Hikianalia
  2021-06-04T22:17:28UTC 2021-06-04T12:17:28-10:00 2021-06-04T11:17:28-11:00  21.31373 -157.88967       0   0.0 Hōkūleʻa
  2021-06-04T21:24:09UTC 2021-06-04T11:24:09-10:00 2021-06-04T10:24:09-11:00  21.31373 -157.88967       0   0.0 Hōkūleʻa
  2021-06-04T21:10:49UTC 2021-06-04T11:10:49-10:00 2021-06-04T10:10:49-11:00  21.31311 -157.88862     137   0.0 Hikianalia
  2021-06-04T20:17:39UTC 2021-06-04T10:17:39-10:00 2021-06-04T09:17:39-11:00  21.31373 -157.88967       0   0.0 Hōkūleʻa
  2021-06-04T20:09:44UTC 2021-06-04T10:09:44-10:00 2021-06-04T09:09:44-11:00  21.31315 -157.88866     328   0.0 Hikianalia
  2021-06-04T19:18:30UTC 2021-06-04T09:18:30-10:00 2021-06-04T08:18:30-11:00  21.31373 -157.88967       0   0.0 Hōkūleʻa
  2021-06-04T19:10:40UTC 2021-06-04T09:10:40-10:00 2021-06-04T08:10:40-11:00  21.31309 -157.88862     119   0.0 Hikianalia
  2021-06-04T18:18:21UTC 2021-06-04T08:18:21-10:00 2021-06-04T07:18:21-11:00  21.31373 -157.88967       0   0.0 Hōkūleʻa
  2021-06-04T18:11:20UTC 2021-06-04T08:11:20-10:00 2021-06-04T07:11:20-11:00  21.31310 -157.88864      90   0.0 Hikianalia
  2021-06-04T17:18:24UTC 2021-06-04T07:18:24-10:00 2021-06-04T06:18:24-11:00  21.31373 -157.88967       0   0.0 Hōkūleʻa
  2021-06-04T17:11:00UTC 2021-06-04T07:11:00-10:00 2021-06-04T06:11:00-11:00  21.31310 -157.88866     308   0.0 Hikianalia
  2021-06-04T16:18:51UTC 2021-06-04T06:18:51-10:00 2021-06-04T05:18:51-11:00  21.31373 -157.88967       0   0.0 Hōkūleʻa
  2021-06-04T16:10:48UTC 2021-06-04T06:10:48-10:00 2021-06-04T05:10:48-11:00  21.31307 -157.88862      80   0.0 Hikianalia
  2021-06-04T15:18:25UTC 2021-06-04T05:18:25-10:00 2021-06-04T04:18:25-11:00  21.31373 -157.88967       0   0.0 Hōkūleʻa
  2021-06-04T15:10:39UTC 2021-06-04T05:10:39-10:00 2021-06-04T04:10:39-11:00  21.31306 -157.88868     234   0.0 Hikianalia
  2021-06-04T14:18:29UTC 2021-06-04T04:18:29-10:00 2021-06-04T03:18:29-11:00  21.31373 -157.88967       0   0.0 Hōkūleʻa
  2021-06-04T14:11:16UTC 2021-06-04T04:11:16-10:00 2021-06-04T03:11:16-11:00  21.31310 -157.88862     262   0.0 Hikianalia
  2021-06-04T13:25:22UTC 2021-06-04T03:25:22-10:00 2021-06-04T02:25:22-11:00  21.31373 -157.88967       0   0.0 Hōkūleʻa
  2021-06-04T13:10:49UTC 2021-06-04T03:10:49-10:00 2021-06-04T02:10:49-11:00  21.31311 -157.88853      82   0.0 Hikianalia
  2021-06-04T12:18:41UTC 2021-06-04T02:18:41-10:00 2021-06-04T01:18:41-11:00  21.31373 -157.88967       0   0.0 Hōkūleʻa
  2021-06-04T12:11:06UTC 2021-06-04T02:11:06-10:00 2021-06-04T01:11:06-11:00  21.31310 -157.88862      90   0.0 Hikianalia
  2021-06-04T11:18:22UTC 2021-06-04T01:18:22-10:00 2021-06-04T00:18:22-11:00  21.31373 -157.88967       0   0.0 Hōkūleʻa
  2021-06-04T11:11:09UTC 2021-06-04T01:11:09-10:00 2021-06-04T00:11:09-11:00  21.31310 -157.88864     270   0.0 Hikianalia
  2021-06-04T10:18:37UTC 2021-06-04T00:18:37-10:00 2021-06-03T23:18:37-11:00  21.31373 -157.88967       0   0.0 Hōkūleʻa
  2021-06-04T10:11:18UTC 2021-06-04T00:11:18-10:00 2021-06-03T23:11:18-11:00  21.31310 -157.88862      90   0.0 Hikianalia
  2021-06-04T09:18:39UTC 2021-06-03T23:18:39-10:00 2021-06-03T22:18:39-11:00  21.31373 -157.88967       0   0.0 Hōkūleʻa
  2021-06-04T09:10:48UTC 2021-06-03T23:10:48-10:00 2021-06-03T22:10:48-11:00  21.31310 -157.88868     241   0.0 Hikianalia
  2021-06-04T08:18:41UTC 2021-06-03T22:18:41-10:00 2021-06-03T21:18:41-11:00  21.31373 -157.88967     209   0.1 Hōkūleʻa
  2021-06-04T08:09:44UTC 2021-06-03T22:09:44-10:00 2021-06-03T21:09:44-11:00  21.31312 -157.88864     318   0.0 Hikianalia
  2021-06-04T07:18:24UTC 2021-06-03T21:18:24-10:00 2021-06-03T20:18:24-11:00  21.31454 -157.88920      61   0.1 Hōkūleʻa
  2021-06-04T07:10:38UTC 2021-06-03T21:10:38-10:00 2021-06-03T20:10:38-11:00  21.31310 -157.88862       0   0.0 Hikianalia
  2021-06-04T06:17:24UTC 2021-06-03T20:17:24-10:00 2021-06-03T19:17:24-11:00  21.31364 -157.89094     287   0.1 Hōkūleʻa
  2021-06-04T06:11:14UTC 2021-06-03T20:11:14-10:00 2021-06-03T19:11:14-11:00  21.31310 -157.88862     213   0.0 Hikianalia
  2021-06-04T05:18:20UTC 2021-06-03T19:18:20-10:00 2021-06-03T18:18:20-11:00  21.31303 -157.88881      90   0.0 Hōkūleʻa
  2021-06-04T05:10:49UTC 2021-06-03T19:10:49-10:00 2021-06-03T18:10:49-11:00  21.31313 -157.88860       0   0.0 Hikianalia
  2021-06-04T04:35:47UTC 2021-06-03T18:35:47-10:00 2021-06-03T17:35:47-11:00  21.31303 -157.88883     270   0.0 Hōkūleʻa
  2021-06-04T04:11:17UTC 2021-06-03T18:11:17-10:00 2021-06-03T17:11:17-11:00  21.31309 -157.88860     137   0.0 Hikianalia
  2021-06-04T03:27:29UTC 2021-06-03T17:27:29-10:00 2021-06-03T16:27:29-11:00  21.31303 -157.88881       0   0.0 Hōkūleʻa
  2021-06-04T03:11:12UTC 2021-06-03T17:11:12-10:00 2021-06-03T16:11:12-11:00  21.31311 -157.88862     118   0.0 Hikianalia
  2021-06-04T02:18:28UTC 2021-06-03T16:18:28-10:00 2021-06-03T15:18:28-11:00  21.31303 -157.88881       0   0.0 Hōkūleʻa
  2021-06-04T02:09:44UTC 2021-06-03T16:09:44-10:00 2021-06-03T15:09:44-11:00  21.31317 -157.88873     298   0.0 Hikianalia
  2021-06-04T01:17:18UTC 2021-06-03T15:17:18-10:00 2021-06-03T14:17:18-11:00  21.31303 -157.88881     119   0.0 Hōkūleʻa
  2021-06-04T01:10:59UTC 2021-06-03T15:10:59-10:00 2021-06-03T14:10:59-11:00  21.31311 -157.88862     180   0.0 Hikianalia
  2021-06-04T00:17:42UTC 2021-06-03T14:17:42-10:00 2021-06-03T13:17:42-11:00  21.31304 -157.88883     208   0.0 Hōkūleʻa
  2021-06-04T00:10:17UTC 2021-06-03T14:10:17-10:00 2021-06-03T13:10:17-11:00  21.31312 -157.88862       0   0.0 Hikianalia
  2021-06-03T23:18:23UTC 2021-06-03T13:18:23-10:00 2021-06-03T12:18:23-11:00  21.31311 -157.88879     111   0.0 Hōkūleʻa
  2021-06-03T23:09:46UTC 2021-06-03T13:09:46-10:00 2021-06-03T12:09:46-11:00  21.31311 -157.88862       0   0.0 Hikianalia
  2021-06-03T22:17:25UTC 2021-06-03T12:17:25-10:00 2021-06-03T11:17:25-11:00  21.31317 -157.88894     339   0.0 Hōkūleʻa
  2021-06-03T22:10:49UTC 2021-06-03T12:10:49-10:00 2021-06-03T11:10:49-11:00  21.31311 -157.88862      14   0.0 Hikianalia
  2021-06-03T21:18:24UTC 2021-06-03T11:18:24-10:00 2021-06-03T10:18:24-11:00  21.31300 -157.88888     241   0.0 Hōkūleʻa
  2021-06-03T21:09:45UTC 2021-06-03T11:09:45-10:00 2021-06-03T10:09:45-11:00  21.31295 -157.88866     197   0.0 Hikianalia
  2021-06-03T20:17:47UTC 2021-06-03T10:17:47-10:00 2021-06-03T09:17:47-11:00  21.31303 -157.88883     234   0.0 Hōkūleʻa
  2021-06-03T20:10:19UTC 2021-06-03T10:10:19-10:00 2021-06-03T09:10:19-11:00  21.31308 -157.88862     180   0.0 Hikianalia
  2021-06-03T19:18:26UTC 2021-06-03T09:18:26-10:00 2021-06-03T08:18:26-11:00  21.31307 -157.88877     128   0.0 Hōkūleʻa
  2021-06-03T19:10:38UTC 2021-06-03T09:10:38-10:00 2021-06-03T08:10:38-11:00  21.31311 -157.88862      32   0.0 Hikianalia
  2021-06-03T18:18:25UTC 2021-06-03T08:18:25-10:00 2021-06-03T07:18:25-11:00  21.31310 -157.88881      35   0.0 Hōkūleʻa
  2021-06-03T18:10:47UTC 2021-06-03T08:10:47-10:00 2021-06-03T07:10:47-11:00  21.31305 -157.88866     180   0.0 Hikianalia
  2021-06-03T17:17:28UTC 2021-06-03T07:17:28-10:00 2021-06-03T06:17:28-11:00  21.31302 -157.88888     255   0.0 Hōkūleʻa
  2021-06-03T17:10:59UTC 2021-06-03T07:10:59-10:00 2021-06-03T06:10:59-11:00  21.31312 -157.88866     285   0.0 Hikianalia
  2021-06-03T16:18:42UTC 2021-06-03T06:18:42-10:00 2021-06-03T05:18:42-11:00  21.31303 -157.88883     290   0.0 Hōkūleʻa
  2021-06-03T16:11:10UTC 2021-06-03T06:11:10-10:00 2021-06-03T05:11:10-11:00  21.31311 -157.88862     306   0.0 Hikianalia
  2021-06-03T15:25:02UTC 2021-06-03T05:25:02-10:00 2021-06-03T04:25:02-11:00  21.31300 -157.88877      90   0.0 Hōkūleʻa
  2021-06-03T15:10:49UTC 2021-06-03T05:10:49-10:00 2021-06-03T04:10:49-11:00  21.31307 -157.88856     126   0.0 Hikianalia
  2021-06-03T14:18:19UTC 2021-06-03T04:18:19-10:00 2021-06-03T03:18:19-11:00  21.31300 -157.88881     138   0.0 Hōkūleʻa
  2021-06-03T14:10:44UTC 2021-06-03T04:10:44-10:00 2021-06-03T03:10:44-11:00  21.31311 -157.88862     242   0.0 Hikianalia
  2021-06-03T13:18:45UTC 2021-06-03T03:18:45-10:00 2021-06-03T02:18:45-11:00  21.31303 -157.88883     180   0.0 Hōkūleʻa
  2021-06-03T13:10:40UTC 2021-06-03T03:10:40-10:00 2021-06-03T02:10:40-11:00  21.31312 -157.88860      43   0.0 Hikianalia
  2021-06-03T12:18:26UTC 2021-06-03T02:18:26-10:00 2021-06-03T01:18:26-11:00  21.31305 -157.88883      33   0.0 Hōkūleʻa
  2021-06-03T12:11:15UTC 2021-06-03T02:11:15-10:00 2021-06-03T01:11:15-11:00  21.31310 -157.88862     171   0.0 Hikianalia
  2021-06-03T11:18:27UTC 2021-06-03T01:18:27-10:00 2021-06-03T00:18:27-11:00  21.31302 -157.88886     242   0.0 Hōkūleʻa
  2021-06-03T11:10:53UTC 2021-06-03T01:10:53-10:00 2021-06-03T00:10:53-11:00  21.31323 -157.88864     351   0.0 Hikianalia
  2021-06-03T10:18:44UTC 2021-06-03T00:18:44-10:00 2021-06-02T23:18:44-11:00  21.31303 -157.88883     270   0.0 Hōkūleʻa
  2021-06-03T10:10:50UTC 2021-06-03T00:10:50-10:00 2021-06-02T23:10:50-11:00  21.31311 -157.88862      90   0.0 Hikianalia
  2021-06-03T09:17:25UTC 2021-06-02T23:17:25-10:00 2021-06-02T22:17:25-11:00  21.31303 -157.88881      61   0.0 Hōkūleʻa
  2021-06-03T09:09:45UTC 2021-06-02T23:09:45-10:00 2021-06-02T22:09:45-11:00  21.31311 -157.88864     299   0.0 Hikianalia
  2021-06-03T08:18:19UTC 2021-06-02T22:18:19-10:00 2021-06-02T21:18:19-11:00  21.31302 -157.88883     241   0.0 Hōkūleʻa
  2021-06-03T08:11:12UTC 2021-06-02T22:11:12-10:00 2021-06-02T21:11:12-11:00  21.31310 -157.88862     137   0.0 Hikianalia
  2021-06-03T07:19:19UTC 2021-06-02T21:19:19-10:00 2021-06-02T20:19:19-11:00  21.31303 -157.88881      90   0.0 Hōkūleʻa
  2021-06-03T07:10:41UTC 2021-06-02T21:10:41-10:00 2021-06-02T20:10:41-11:00  21.31314 -157.88866     308   0.0 Hikianalia
  2021-06-03T06:19:01UTC 2021-06-02T20:19:01-10:00 2021-06-02T19:19:01-11:00  21.31303 -157.88883       0   0.0 Hōkūleʻa
  2021-06-03T06:10:55UTC 2021-06-02T20:10:55-10:00 2021-06-02T19:10:55-11:00  21.31311 -157.88862       0   0.0 Hikianalia
  2021-06-03T05:17:45UTC 2021-06-02T19:17:45-10:00 2021-06-02T18:17:45-11:00  21.31302 -157.88883     129   0.3 Hōkūleʻa
  2021-06-03T05:10:27UTC 2021-06-02T19:10:27-10:00 2021-06-02T18:10:27-11:00  21.31311 -157.88862       0   0.0 Hikianalia
  2021-06-03T04:18:28UTC 2021-06-02T18:18:28-10:00 2021-06-02T17:18:28-11:00  21.31574 -157.89248     308   0.3 Hōkūleʻa
  2021-06-03T04:11:15UTC 2021-06-02T18:11:15-10:00 2021-06-02T17:11:15-11:00  21.31310 -157.88862     117   0.1 Hikianalia
  2021-06-03T03:27:22UTC 2021-06-02T17:27:22-10:00 2021-06-02T16:27:22-11:00  21.31303 -157.88883       0   0.0 Hōkūleʻa
  2021-06-03T03:10:47UTC 2021-06-02T17:10:47-10:00 2021-06-02T16:10:47-11:00  21.31405 -157.89061     150   0.1 Hikianalia
  2021-06-03T02:18:41UTC 2021-06-02T16:18:41-10:00 2021-06-02T15:18:41-11:00  21.31303 -157.88883       0   0.0 Hōkūleʻa
  2021-06-03T02:09:53UTC 2021-06-02T16:09:53-10:00 2021-06-02T15:09:53-11:00  21.31491 -157.89115     307   0.2 Hikianalia
  2021-06-03T01:18:26UTC 2021-06-02T15:18:26-10:00 2021-06-02T14:18:26-11:00  21.31303 -157.88883       0   0.0 Hōkūleʻa
  2021-06-03T01:10:48UTC 2021-06-02T15:10:48-10:00 2021-06-02T14:10:48-11:00  21.31341 -157.88905       0   0.0 Hikianalia
  2021-06-03T00:28:13UTC 2021-06-02T14:28:13-10:00 2021-06-02T13:28:13-11:00  21.31303 -157.88883       0   0.0 Hōkūleʻa
  2021-06-03T00:11:18UTC 2021-06-02T14:11:18-10:00 2021-06-02T13:11:18-11:00  21.31341 -157.88905       0   0.0 Hikianalia
  2021-06-02T23:18:24UTC 2021-06-02T13:18:24-10:00 2021-06-02T12:18:24-11:00  21.31303 -157.88883       0   0.0 Hōkūleʻa
  2021-06-02T23:10:52UTC 2021-06-02T13:10:52-10:00 2021-06-02T12:10:52-11:00  21.31341 -157.88905       0   0.0 Hikianalia
  2021-06-02T22:17:41UTC 2021-06-02T12:17:41-10:00 2021-06-02T11:17:41-11:00  21.31303 -157.88883       0   0.0 Hōkūleʻa
  2021-06-02T22:09:48UTC 2021-06-02T12:09:48-10:00 2021-06-02T11:09:48-11:00  21.31341 -157.88905       0   0.0 Hikianalia
  2021-06-02T21:17:24UTC 2021-06-02T11:17:24-10:00 2021-06-02T10:17:24-11:00  21.31303 -157.88883     124   0.0 Hōkūleʻa
  2021-06-02T21:10:47UTC 2021-06-02T11:10:47-10:00 2021-06-02T10:10:47-11:00  21.31341 -157.88905       0   0.0 Hikianalia
  2021-06-02T20:17:19UTC 2021-06-02T10:17:19-10:00 2021-06-02T09:17:19-11:00  21.31312 -157.88898     325   0.0 Hōkūleʻa
  2021-06-02T20:10:19UTC 2021-06-02T10:10:19-10:00 2021-06-02T09:10:19-11:00  21.31341 -157.88905       0   0.0 Hikianalia
  2021-06-02T19:24:58UTC 2021-06-02T09:24:58-10:00 2021-06-02T08:24:58-11:00  21.31304 -157.88892     285   0.0 Hōkūleʻa
  2021-06-02T19:10:56UTC 2021-06-02T09:10:56-10:00 2021-06-02T08:10:56-11:00  21.31341 -157.88905       0   0.0 Hikianalia
  2021-06-02T18:18:50UTC 2021-06-02T08:18:50-10:00 2021-06-02T07:18:50-11:00  21.31302 -157.88883     288   0.0 Hōkūleʻa
  2021-06-02T18:10:09UTC 2021-06-02T08:10:09-10:00 2021-06-02T07:10:09-11:00  21.31341 -157.88905       0   0.0 Hikianalia
  2021-06-02T17:18:30UTC 2021-06-02T07:18:30-10:00 2021-06-02T06:18:30-11:00  21.31298 -157.88873      90   0.0 Hōkūleʻa
  2021-06-02T17:10:43UTC 2021-06-02T07:10:43-10:00 2021-06-02T06:10:43-11:00  21.31341 -157.88905       0   0.0 Hikianalia
  2021-06-02T16:18:19UTC 2021-06-02T06:18:19-10:00 2021-06-02T05:18:19-11:00  21.31298 -157.88879     106   0.0 Hōkūleʻa
  2021-06-02T16:10:49UTC 2021-06-02T06:10:49-10:00 2021-06-02T05:10:49-11:00  21.31341 -157.88905       0   0.0 Hikianalia
  2021-06-02T15:18:25UTC 2021-06-02T05:18:25-10:00 2021-06-02T04:18:25-11:00  21.31299 -157.88883     180   0.0 Hōkūleʻa
  2021-06-02T15:10:39UTC 2021-06-02T05:10:39-10:00 2021-06-02T04:10:39-11:00  21.31341 -157.88905       0   0.0 Hikianalia
  2021-06-02T14:17:47UTC 2021-06-02T04:17:47-10:00 2021-06-02T03:17:47-11:00  21.31303 -157.88883       0   0.0 Hōkūleʻa
  2021-06-02T14:11:16UTC 2021-06-02T04:11:16-10:00 2021-06-02T03:11:16-11:00  21.31341 -157.88905       0   0.0 Hikianalia
  2021-06-02T13:18:21UTC 2021-06-02T03:18:21-10:00 2021-06-02T02:18:21-11:00  21.31303 -157.88883     180   0.0 Hōkūleʻa
  2021-06-02T13:10:50UTC 2021-06-02T03:10:50-10:00 2021-06-02T02:10:50-11:00  21.31341 -157.88905       0   0.0 Hikianalia
  2021-06-02T12:18:23UTC 2021-06-02T02:18:23-10:00 2021-06-02T01:18:23-11:00  21.31304 -157.88883     328   0.0 Hōkūleʻa
  2021-06-02T12:10:47UTC 2021-06-02T02:10:47-10:00 2021-06-02T01:10:47-11:00  21.31341 -157.88905       0   0.0 Hikianalia
  2021-06-02T11:18:24UTC 2021-06-02T01:18:24-10:00 2021-06-02T00:18:24-11:00  21.31294 -157.88877     145   0.0 Hōkūleʻa
  2021-06-02T11:10:36UTC 2021-06-02T01:10:36-10:00 2021-06-02T00:10:36-11:00  21.31341 -157.88905       0   0.0 Hikianalia
  2021-06-02T10:18:43UTC 2021-06-02T00:18:43-10:00 2021-06-01T23:18:43-11:00  21.31303 -157.88883       0   0.0 Hōkūleʻa
  2021-06-02T10:11:09UTC 2021-06-02T00:11:09-10:00 2021-06-01T23:11:09-11:00  21.31341 -157.88905       0   0.0 Hikianalia
  2021-06-02T09:18:24UTC 2021-06-01T23:18:24-10:00 2021-06-01T22:18:24-11:00  21.31303 -157.88883       0   0.0 Hōkūleʻa
  2021-06-02T09:10:47UTC 2021-06-01T23:10:47-10:00 2021-06-01T22:10:47-11:00  21.31341 -157.88905       0   0.0 Hikianalia
  2021-06-02T08:18:50UTC 2021-06-01T22:18:50-10:00 2021-06-01T21:18:50-11:00  21.31302 -157.88883     180   0.0 Hōkūleʻa
  2021-06-02T08:11:17UTC 2021-06-01T22:11:17-10:00 2021-06-01T21:11:17-11:00  21.31341 -157.88905       0   0.0 Hikianalia
  2021-06-02T07:18:29UTC 2021-06-01T21:18:29-10:00 2021-06-01T20:18:29-11:00  21.31303 -157.88883       0   0.0 Hōkūleʻa
  2021-06-02T07:10:49UTC 2021-06-01T21:10:49-10:00 2021-06-01T20:10:49-11:00  21.31341 -157.88905       0   0.0 Hikianalia
  2021-06-02T06:18:16UTC 2021-06-01T20:18:16-10:00 2021-06-01T19:18:16-11:00  21.31303 -157.88883       0   0.0 Hōkūleʻa
  2021-06-02T06:10:54UTC 2021-06-01T20:10:54-10:00 2021-06-01T19:10:54-11:00  21.31341 -157.88905       0   0.0 Hikianalia
  2021-06-02T05:18:26UTC 2021-06-01T19:18:26-10:00 2021-06-01T18:18:26-11:00  21.31303 -157.88883     180   0.0 Hōkūleʻa
  2021-06-02T05:09:46UTC 2021-06-01T19:09:46-10:00 2021-06-01T18:09:46-11:00  21.31341 -157.88905       0   0.0 Hikianalia
  2021-06-02T04:18:50UTC 2021-06-01T18:18:50-10:00 2021-06-01T17:18:50-11:00  21.31304 -157.88883       0   0.0 Hōkūleʻa
  2021-06-02T04:11:09UTC 2021-06-01T18:11:09-10:00 2021-06-01T17:11:09-11:00  21.31341 -157.88905       0   0.0 Hikianalia
  2021-06-02T03:18:25UTC 2021-06-01T17:18:25-10:00 2021-06-01T16:18:25-11:00  21.31303 -157.88883       0   0.0 Hōkūleʻa
  2021-06-02T03:10:47UTC 2021-06-01T17:10:47-10:00 2021-06-01T16:10:47-11:00  21.31341 -157.88905       0   0.0 Hikianalia
  2021-06-02T02:17:29UTC 2021-06-01T16:17:29-10:00 2021-06-01T15:17:29-11:00  21.31303 -157.88883     318   0.0 Hōkūleʻa
  2021-06-02T02:09:55UTC 2021-06-01T16:09:55-10:00 2021-06-01T15:09:55-11:00  21.31341 -157.88905       0   0.0 Hikianalia
  2021-06-02T01:18:27UTC 2021-06-01T15:18:27-10:00 2021-06-01T14:18:27-11:00  21.31298 -157.88879     144   0.0 Hōkūleʻa
  2021-06-02T01:10:49UTC 2021-06-01T15:10:49-10:00 2021-06-01T14:10:49-11:00  21.31341 -157.88905       0   0.0 Hikianalia
  2021-06-02T00:17:47UTC 2021-06-01T14:17:47-10:00 2021-06-01T13:17:47-11:00  21.31304 -157.88883      51   0.0 Hōkūleʻa
  2021-06-02T00:10:20UTC 2021-06-01T14:10:20-10:00 2021-06-01T13:10:20-11:00  21.31341 -157.88905       0   0.0 Hikianalia
  2021-06-01T23:18:15UTC 2021-06-01T13:18:15-10:00 2021-06-01T12:18:15-11:00  21.31300 -157.88888     231   0.0 Hōkūleʻa
  2021-06-01T23:10:44UTC 2021-06-01T13:10:44-10:00 2021-06-01T12:10:44-11:00  21.31341 -157.88905       0   0.0 Hikianalia
  2021-06-01T22:17:18UTC 2021-06-01T12:17:18-10:00 2021-06-01T11:17:18-11:00  21.31307 -157.88879      42   0.0 Hōkūleʻa
  2021-06-01T22:10:51UTC 2021-06-01T12:10:51-10:00 2021-06-01T11:10:51-11:00  21.31341 -157.88905       0   0.0 Hikianalia
  2021-06-01T21:18:26UTC 2021-06-01T11:18:26-10:00 2021-06-01T10:18:26-11:00  21.31303 -157.88883       0   0.0 Hōkūleʻa
  2021-06-01T21:09:56UTC 2021-06-01T11:09:56-10:00 2021-06-01T10:09:56-11:00  21.31341 -157.88905       0   0.0 Hikianalia
  2021-06-01T20:17:47UTC 2021-06-01T10:17:47-10:00 2021-06-01T09:17:47-11:00  21.31302 -157.88883     242   0.0 Hōkūleʻa
  2021-06-01T20:11:18UTC 2021-06-01T10:11:18-10:00 2021-06-01T09:11:18-11:00  21.31341 -157.88905       0   0.0 Hikianalia
  2021-06-01T19:18:24UTC 2021-06-01T09:18:24-10:00 2021-06-01T08:18:24-11:00  21.31307 -157.88873      39   0.0 Hōkūleʻa
  2021-06-01T19:10:16UTC 2021-06-01T09:10:16-10:00 2021-06-01T08:10:16-11:00  21.31341 -157.88905       0   0.0 Hikianalia
  2021-06-01T18:17:16UTC 2021-06-01T08:17:16-10:00 2021-06-01T07:17:16-11:00  21.31299 -157.88879     152   0.0 Hōkūleʻa
  2021-06-01T18:10:47UTC 2021-06-01T08:10:47-10:00 2021-06-01T07:10:47-11:00  21.31341 -157.88905       0   0.0 Hikianalia
  2021-06-01T17:20:43UTC 2021-06-01T07:20:43-10:00 2021-06-01T06:20:43-11:00  21.31341 -157.88905       0   0.0 Hikianalia
  2021-06-01T17:18:19UTC 2021-06-01T07:18:19-10:00 2021-06-01T06:18:19-11:00  21.31307 -157.88883      26   0.0 Hōkūleʻa
  2021-06-01T16:19:08UTC 2021-06-01T06:19:08-10:00 2021-06-01T05:19:08-11:00  21.31341 -157.88905       0   0.0 Hikianalia
  2021-06-01T16:18:45UTC 2021-06-01T06:18:45-10:00 2021-06-01T05:18:45-11:00  21.31303 -157.88886     260   0.0 Hōkūleʻa
  2021-06-01T15:18:17UTC 2021-06-01T05:18:17-10:00 2021-06-01T04:18:17-11:00  21.31304 -157.88879     345   0.0 Hōkūleʻa
  2021-06-01T15:11:10UTC 2021-06-01T05:11:10-10:00 2021-06-01T04:11:10-11:00  21.31341 -157.88905       0   0.0 Hikianalia
  2021-06-01T14:18:19UTC 2021-06-01T04:18:19-10:00 2021-06-01T03:18:19-11:00  21.31296 -157.88877     145   0.0 Hōkūleʻa
  2021-06-01T14:10:45UTC 2021-06-01T04:10:45-10:00 2021-06-01T03:10:45-11:00  21.31341 -157.88905       0   0.0 Hikianalia
  2021-06-01T13:17:25UTC 2021-06-01T03:17:25-10:00 2021-06-01T02:17:25-11:00  21.31305 -157.88883       0   0.0 Hōkūleʻa
  2021-06-01T13:10:48UTC 2021-06-01T03:10:48-10:00 2021-06-01T02:10:48-11:00  21.31341 -157.88905       0   0.0 Hikianalia
  2021-06-01T12:18:42UTC 2021-06-01T02:18:42-10:00 2021-06-01T01:18:42-11:00  21.31303 -157.88883     325   0.0 Hōkūleʻa
  2021-06-01T12:11:10UTC 2021-06-01T02:11:10-10:00 2021-06-01T01:11:10-11:00  21.31341 -157.88905       0   0.0 Hikianalia
  2021-06-01T11:18:28UTC 2021-06-01T01:18:28-10:00 2021-06-01T00:18:28-11:00  21.31294 -157.88877     140   0.0 Hōkūleʻa
  2021-06-01T11:10:44UTC 2021-06-01T01:10:44-10:00 2021-06-01T00:10:44-11:00  21.31341 -157.88905       0   0.0 Hikianalia
  2021-06-01T10:20:39UTC 2021-06-01T00:20:39-10:00 2021-05-31T23:20:39-11:00  21.31341 -157.88905       0   0.0 Hikianalia
  2021-06-01T10:18:25UTC 2021-06-01T00:18:25-10:00 2021-05-31T23:18:25-11:00  21.31304 -157.88886     285   0.0 Hōkūleʻa
  2021-06-01T09:18:17UTC 2021-05-31T23:18:17-10:00 2021-05-31T22:18:17-11:00  21.31303 -157.88881      61   0.0 Hōkūleʻa
  2021-06-01T09:10:48UTC 2021-05-31T23:10:48-10:00 2021-05-31T22:10:48-11:00  21.31341 -157.88905       0   0.0 Hikianalia
  2021-06-01T08:18:39UTC 2021-05-31T22:18:39-10:00 2021-05-31T21:18:39-11:00  21.31302 -157.88883     128   0.0 Hōkūleʻa
  2021-06-01T08:11:16UTC 2021-05-31T22:11:16-10:00 2021-05-31T21:11:16-11:00  21.31341 -157.88905       0   0.0 Hikianalia
  2021-06-01T07:17:26UTC 2021-05-31T21:17:26-10:00 2021-05-31T20:17:26-11:00  21.31305 -157.88888     270   0.0 Hōkūleʻa
  2021-06-01T07:10:42UTC 2021-05-31T21:10:42-10:00 2021-05-31T20:10:42-11:00  21.31341 -157.88905       0   0.0 Hikianalia
  2021-06-01T06:18:16UTC 2021-05-31T20:18:16-10:00 2021-05-31T19:18:16-11:00  21.31305 -157.88881     284   0.0 Hōkūleʻa
  2021-06-01T06:10:47UTC 2021-05-31T20:10:47-10:00 2021-05-31T19:10:47-11:00  21.31341 -157.88905       0   0.0 Hikianalia
  2021-06-01T05:18:21UTC 2021-05-31T19:18:21-10:00 2021-05-31T18:18:21-11:00  21.31304 -157.88877     109   0.0 Hōkūleʻa
  2021-06-01T05:11:26UTC 2021-05-31T19:11:26-10:00 2021-05-31T18:11:26-11:00  21.31341 -157.88905       0   0.0 Hikianalia
  2021-06-01T04:18:50UTC 2021-05-31T18:18:50-10:00 2021-05-31T17:18:50-11:00  21.31306 -157.88883       0   0.0 Hōkūleʻa
  2021-06-01T04:10:48UTC 2021-05-31T18:10:48-10:00 2021-05-31T17:10:48-11:00  21.31341 -157.88905       0   0.0 Hikianalia
  2021-06-01T03:18:27UTC 2021-05-31T17:18:27-10:00 2021-05-31T16:18:27-11:00  21.31302 -157.88883     293   0.0 Hōkūleʻa
  2021-06-01T03:10:47UTC 2021-05-31T17:10:47-10:00 2021-05-31T16:10:47-11:00  21.31341 -157.88905       0   0.0 Hikianalia
  2021-06-01T02:17:27UTC 2021-05-31T16:17:27-10:00 2021-05-31T15:17:27-11:00  21.31297 -157.88873     102   0.0 Hōkūleʻa
  2021-06-01T02:10:41UTC 2021-05-31T16:10:41-10:00 2021-05-31T15:10:41-11:00  21.31341 -157.88905       0   0.0 Hikianalia
  2021-06-01T01:18:19UTC 2021-05-31T15:18:19-10:00 2021-05-31T14:18:19-11:00  21.31299 -157.88883     180   0.0 Hōkūleʻa
  2021-06-01T01:10:08UTC 2021-05-31T15:10:08-10:00 2021-05-31T14:10:08-11:00  21.31341 -157.88905       0   0.0 Hikianalia
  2021-06-01T00:17:49UTC 2021-05-31T14:17:49-10:00 2021-05-31T13:17:49-11:00  21.31303 -157.88883       0   0.0 Hōkūleʻa
  2021-06-01T00:10:01UTC 2021-05-31T14:10:01-10:00 2021-05-31T13:10:01-11:00  21.31341 -157.88905       0   0.0 Hikianalia
  2021-05-31T23:31:39UTC 2021-05-31T13:31:39-10:00 2021-05-31T12:31:39-11:00  21.31341 -157.88905       0   0.0 Hikianalia
  2021-05-31T23:18:26UTC 2021-05-31T13:18:26-10:00 2021-05-31T12:18:26-11:00  21.31302 -157.88883       0   0.0 Hōkūleʻa
  2021-05-31T22:17:27UTC 2021-05-31T12:17:27-10:00 2021-05-31T11:17:27-11:00  21.31302 -157.88883       0   0.0 Hōkūleʻa
  2021-05-31T22:10:15UTC 2021-05-31T12:10:15-10:00 2021-05-31T11:10:15-11:00  21.31341 -157.88905       0   0.0 Hikianalia
  2021-05-31T21:18:44UTC 2021-05-31T11:18:44-10:00 2021-05-31T10:18:44-11:00  21.31298 -157.88883     180   0.0 Hōkūleʻa
  2021-05-31T21:09:45UTC 2021-05-31T11:09:45-10:00 2021-05-31T10:09:45-11:00  21.31341 -157.88905     278   0.0 Hikianalia
  2021-05-31T20:17:47UTC 2021-05-31T10:17:47-10:00 2021-05-31T09:17:47-11:00  21.31304 -157.88883     125   0.0 Hōkūleʻa
  2021-05-31T20:10:50UTC 2021-05-31T10:10:50-10:00 2021-05-31T09:10:50-11:00  21.31339 -157.88890      98   0.0 Hikianalia
  2021-05-31T19:17:19UTC 2021-05-31T09:17:19-10:00 2021-05-31T08:17:19-11:00  21.31308 -157.88890     312   0.0 Hōkūleʻa
  2021-05-31T19:10:48UTC 2021-05-31T09:10:48-10:00 2021-05-31T08:10:48-11:00  21.31341 -157.88905       0   0.0 Hikianalia
  2021-05-31T18:18:25UTC 2021-05-31T08:18:25-10:00 2021-05-31T07:18:25-11:00  21.31303 -157.88883     286   0.0 Hōkūleʻa
  2021-05-31T18:10:19UTC 2021-05-31T08:10:19-10:00 2021-05-31T07:10:19-11:00  21.31341 -157.88905       0   0.0 Hikianalia
  2021-05-31T17:18:24UTC 2021-05-31T07:18:24-10:00 2021-05-31T06:18:24-11:00  21.31302 -157.88879      74   0.0 Hōkūleʻa
  2021-05-31T17:11:10UTC 2021-05-31T07:11:10-10:00 2021-05-31T06:11:10-11:00  21.31341 -157.88905       0   0.0 Hikianalia
  2021-05-31T16:18:40UTC 2021-05-31T06:18:40-10:00 2021-05-31T05:18:40-11:00  21.31300 -157.88883     241   0.0 Hōkūleʻa
  2021-05-31T16:10:47UTC 2021-05-31T06:10:47-10:00 2021-05-31T05:10:47-11:00  21.31341 -157.88905       0   0.0 Hikianalia
  2021-05-31T15:18:23UTC 2021-05-31T05:18:23-10:00 2021-05-31T04:18:23-11:00  21.31303 -157.88879      90   0.0 Hōkūleʻa
  2021-05-31T15:10:47UTC 2021-05-31T05:10:47-10:00 2021-05-31T04:10:47-11:00  21.31341 -157.88905       0   0.0 Hikianalia
  2021-05-31T14:18:27UTC 2021-05-31T04:18:27-10:00 2021-05-31T03:18:27-11:00  21.31303 -157.88881     285   0.0 Hōkūleʻa
  2021-05-31T14:11:19UTC 2021-05-31T04:11:19-10:00 2021-05-31T03:11:19-11:00  21.31341 -157.88905       0   0.0 Hikianalia
  2021-05-31T13:18:27UTC 2021-05-31T03:18:27-10:00 2021-05-31T02:18:27-11:00  21.31302 -157.88877     100   0.0 Hōkūleʻa
  2021-05-31T13:10:41UTC 2021-05-31T03:10:41-10:00 2021-05-31T02:10:41-11:00  21.31341 -157.88905       0   0.0 Hikianalia
  2021-05-31T12:18:40UTC 2021-05-31T02:18:40-10:00 2021-05-31T01:18:40-11:00  21.31303 -157.88883       0   0.0 Hōkūleʻa
  2021-05-31T12:10:19UTC 2021-05-31T02:10:19-10:00 2021-05-31T01:10:19-11:00  21.31341 -157.88905       0   0.0 Hikianalia
  2021-05-31T11:24:43UTC 2021-05-31T01:24:43-10:00 2021-05-31T00:24:43-11:00  21.31299 -157.88883     243   0.0 Hōkūleʻa
  2021-05-31T11:17:01UTC 2021-05-31T01:17:01-10:00 2021-05-31T00:17:01-11:00  21.31341 -157.88905       0   0.0 Hikianalia
  2021-05-31T10:18:20UTC 2021-05-31T00:18:20-10:00 2021-05-30T23:18:20-11:00  21.31300 -157.88881     180   0.0 Hōkūleʻa
  2021-05-31T10:11:16UTC 2021-05-31T00:11:16-10:00 2021-05-30T23:11:16-11:00  21.31341 -157.88905       0   0.0 Hikianalia
  2021-05-31T09:18:27UTC 2021-05-30T23:18:27-10:00 2021-05-30T22:18:27-11:00  21.31303 -157.88881      61   0.0 Hōkūleʻa
  2021-05-31T09:10:47UTC 2021-05-30T23:10:47-10:00 2021-05-30T22:10:47-11:00  21.31341 -157.88905       0   0.0 Hikianalia
  2021-05-31T08:18:41UTC 2021-05-30T22:18:41-10:00 2021-05-30T21:18:41-11:00  21.31302 -157.88883      69   0.0 Hōkūleʻa
  2021-05-31T08:10:18UTC 2021-05-30T22:10:18-10:00 2021-05-30T21:10:18-11:00  21.31341 -157.88905       0   0.0 Hikianalia
  2021-05-31T07:18:25UTC 2021-05-30T21:18:25-10:00 2021-05-30T20:18:25-11:00  21.31296 -157.88898     239   0.0 Hōkūleʻa
  2021-05-31T07:10:41UTC 2021-05-30T21:10:41-10:00 2021-05-30T20:10:41-11:00  21.31341 -157.88905       0   0.0 Hikianalia
  2021-05-31T06:18:27UTC 2021-05-30T20:18:27-10:00 2021-05-30T19:18:27-11:00  21.31305 -157.88883      33   0.0 Hōkūleʻa
  2021-05-31T06:11:05UTC 2021-05-30T20:11:05-10:00 2021-05-30T19:11:05-11:00  21.31341 -157.88905     132   0.1 Hikianalia
  2021-05-31T05:18:26UTC 2021-05-30T19:18:26-10:00 2021-05-30T18:18:26-11:00  21.31302 -157.88886     213   0.0 Hōkūleʻa
  2021-05-31T05:10:54UTC 2021-05-30T19:10:54-10:00 2021-05-30T18:10:54-11:00  21.31402 -157.88978     310   0.1 Hikianalia
  2021-05-31T04:18:41UTC 2021-05-30T18:18:41-10:00 2021-05-30T17:18:41-11:00  21.31305 -157.88883       0   0.0 Hōkūleʻa
  2021-05-31T04:11:19UTC 2021-05-30T18:11:19-10:00 2021-05-30T17:11:19-11:00  21.31312 -157.88862     118   0.1 Hikianalia
  2021-05-31T03:17:42UTC 2021-05-30T17:17:42-10:00 2021-05-30T16:17:42-11:00  21.31303 -157.88883       0   0.0 Hōkūleʻa
  2021-05-31T03:09:45UTC 2021-05-30T17:09:45-10:00 2021-05-30T16:09:45-11:00  21.31401 -157.89040     164   0.0 Hikianalia
  2021-05-31T02:18:19UTC 2021-05-30T16:18:19-10:00 2021-05-30T15:18:19-11:00  21.31303 -157.88883     205   0.0 Hōkūleʻa
  2021-05-31T02:10:45UTC 2021-05-30T16:10:45-10:00 2021-05-30T15:10:45-11:00  21.31457 -157.89057     303   0.1 Hikianalia
  2021-05-31T01:18:20UTC 2021-05-30T15:18:20-10:00 2021-05-30T14:18:20-11:00  21.31307 -157.88881      32   0.0 Hōkūleʻa
  2021-05-31T01:10:49UTC 2021-05-30T15:10:49-10:00 2021-05-30T14:10:49-11:00  21.31333 -157.88849     143   0.0 Hikianalia
  2021-05-31T00:24:37UTC 2021-05-30T14:24:37-10:00 2021-05-30T13:24:37-11:00  21.31304 -157.88883      51   0.0 Hōkūleʻa
  2021-05-31T00:10:17UTC 2021-05-30T14:10:17-10:00 2021-05-30T13:10:17-11:00  21.31343 -157.88858       0   0.0 Hikianalia
  2021-05-30T23:18:27UTC 2021-05-30T13:18:27-10:00 2021-05-30T12:18:27-11:00  21.31300 -157.88888     180   0.0 Hōkūleʻa
  2021-05-30T23:10:51UTC 2021-05-30T13:10:51-10:00 2021-05-30T12:10:51-11:00  21.31343 -157.88858       0   0.0 Hikianalia
  2021-05-30T22:17:25UTC 2021-05-30T12:17:25-10:00 2021-05-30T11:17:25-11:00  21.31304 -157.88888     309   0.0 Hōkūleʻa
  2021-05-30T22:09:50UTC 2021-05-30T12:09:50-10:00 2021-05-30T11:09:50-11:00  21.31343 -157.88858       0   0.0 Hikianalia
  2021-05-30T21:24:17UTC 2021-05-30T11:24:17-10:00 2021-05-30T10:24:17-11:00  21.31300 -157.88883     180   0.0 Hōkūleʻa
  2021-05-30T21:10:46UTC 2021-05-30T11:10:46-10:00 2021-05-30T10:10:46-11:00  21.31343 -157.88858       0   0.0 Hikianalia
  2021-05-30T20:17:48UTC 2021-05-30T10:17:48-10:00 2021-05-30T09:17:48-11:00  21.31303 -157.88883     180   0.0 Hōkūleʻa
  2021-05-30T20:10:23UTC 2021-05-30T10:10:23-10:00 2021-05-30T09:10:23-11:00  21.31343 -157.88858       0   0.0 Hikianalia
  2021-05-30T19:29:31UTC 2021-05-30T09:29:31-10:00 2021-05-30T08:29:31-11:00  21.31306 -157.88883      62   0.0 Hōkūleʻa
  2021-05-30T19:10:49UTC 2021-05-30T09:10:49-10:00 2021-05-30T08:10:49-11:00  21.31343 -157.88858       0   0.0 Hikianalia
  2021-05-30T18:18:26UTC 2021-05-30T08:18:26-10:00 2021-05-30T07:18:26-11:00  21.31304 -157.88888     299   0.0 Hōkūleʻa
  2021-05-30T18:09:44UTC 2021-05-30T08:09:44-10:00 2021-05-30T07:09:44-11:00  21.31343 -157.88858       0   0.0 Hikianalia
  2021-05-30T17:18:23UTC 2021-05-30T07:18:23-10:00 2021-05-30T06:18:23-11:00  21.31302 -157.88883     180   0.0 Hōkūleʻa
  2021-05-30T17:11:11UTC 2021-05-30T07:11:11-10:00 2021-05-30T06:11:11-11:00  21.31343 -157.88858       0   0.0 Hikianalia
  2021-05-30T16:21:12UTC 2021-05-30T06:21:12-10:00 2021-05-30T05:21:12-11:00  21.31343 -157.88858       0   0.0 Hikianalia
  2021-05-30T16:18:43UTC 2021-05-30T06:18:43-10:00 2021-05-30T05:18:43-11:00  21.31303 -157.88883     331   0.0 Hōkūleʻa
  2021-05-30T15:17:24UTC 2021-05-30T05:17:24-10:00 2021-05-30T04:17:24-11:00  21.31292 -157.88877     128   0.0 Hōkūleʻa
  2021-05-30T15:10:47UTC 2021-05-30T05:10:47-10:00 2021-05-30T04:10:47-11:00  21.31343 -157.88858       0   0.0 Hikianalia
  2021-05-30T14:21:05UTC 2021-05-30T04:21:05-10:00 2021-05-30T03:21:05-11:00  21.31343 -157.88858       0   0.0 Hikianalia
  2021-05-30T14:18:19UTC 2021-05-30T04:18:19-10:00 2021-05-30T03:18:19-11:00  21.31298 -157.88886     260   0.0 Hōkūleʻa
  2021-05-30T13:25:37UTC 2021-05-30T03:25:37-10:00 2021-05-30T02:25:37-11:00  21.31299 -157.88879     104   0.0 Hōkūleʻa
  2021-05-30T13:10:42UTC 2021-05-30T03:10:42-10:00 2021-05-30T02:10:42-11:00  21.31343 -157.88858       0   0.0 Hikianalia
  2021-05-30T12:24:30UTC 2021-05-30T02:24:30-10:00 2021-05-30T01:24:30-11:00  21.31300 -157.88883     180   0.0 Hōkūleʻa
  2021-05-30T12:10:44UTC 2021-05-30T02:10:44-10:00 2021-05-30T01:10:44-11:00  21.31343 -157.88858       0   0.0 Hikianalia
  2021-05-30T11:18:48UTC 2021-05-30T01:18:48-10:00 2021-05-30T00:18:48-11:00  21.31303 -157.88883       0   0.0 Hōkūleʻa
  2021-05-30T11:10:41UTC 2021-05-30T01:10:41-10:00 2021-05-30T00:10:41-11:00  21.31343 -157.88858       0   0.0 Hikianalia
  2021-05-30T10:18:25UTC 2021-05-30T00:18:25-10:00 2021-05-29T23:18:25-11:00  21.31303 -157.88883       0   0.0 Hōkūleʻa
  2021-05-30T10:18:12UTC 2021-05-30T00:18:12-10:00 2021-05-29T23:18:12-11:00  21.31343 -157.88858     336   0.0 Hikianalia
  2021-05-30T09:18:23UTC 2021-05-29T23:18:23-10:00 2021-05-29T22:18:23-11:00  21.31303 -157.88883       0   0.0 Hōkūleʻa
  2021-05-30T09:10:39UTC 2021-05-29T23:10:39-10:00 2021-05-29T22:10:39-11:00  21.31325 -157.88849     156   0.0 Hikianalia
  2021-05-30T08:18:49UTC 2021-05-29T22:18:49-10:00 2021-05-29T21:18:49-11:00  21.31300 -157.88883     180   0.0 Hōkūleʻa
  2021-05-30T08:10:50UTC 2021-05-29T22:10:50-10:00 2021-05-29T21:10:50-11:00  21.31343 -157.88858       0   0.0 Hikianalia
  2021-05-30T07:18:28UTC 2021-05-29T21:18:28-10:00 2021-05-29T20:18:28-11:00  21.31303 -157.88883       0   0.0 Hōkūleʻa
  2021-05-30T07:10:48UTC 2021-05-29T21:10:48-10:00 2021-05-29T20:10:48-11:00  21.31343 -157.88858       0   0.0 Hikianalia
  2021-05-30T06:18:25UTC 2021-05-29T20:18:25-10:00 2021-05-29T19:18:25-11:00  21.31303 -157.88883       0   0.0 Hōkūleʻa
  2021-05-30T06:11:14UTC 2021-05-29T20:11:14-10:00 2021-05-29T19:11:14-11:00  21.31343 -157.88858       0   0.0 Hikianalia
  2021-05-30T05:18:27UTC 2021-05-29T19:18:27-10:00 2021-05-29T18:18:27-11:00  21.31303 -157.88883     270   0.0 Hōkūleʻa
  2021-05-30T05:09:49UTC 2021-05-29T19:09:49-10:00 2021-05-29T18:09:49-11:00  21.31343 -157.88858       0   0.0 Hikianalia
  2021-05-30T04:17:38UTC 2021-05-29T18:17:38-10:00 2021-05-29T17:17:38-11:00  21.31303 -157.88881      90   0.0 Hōkūleʻa
  2021-05-30T04:10:48UTC 2021-05-29T18:10:48-10:00 2021-05-29T17:10:48-11:00  21.31343 -157.88858       0   0.0 Hikianalia
  2021-05-30T03:18:22UTC 2021-05-29T17:18:22-10:00 2021-05-29T16:18:22-11:00  21.31303 -157.88883       0   0.0 Hōkūleʻa
  2021-05-30T03:10:52UTC 2021-05-29T17:10:52-10:00 2021-05-29T16:10:52-11:00  21.31343 -157.88858       0   0.0 Hikianalia
  2021-05-30T02:18:23UTC 2021-05-29T16:18:23-10:00 2021-05-29T15:18:23-11:00  21.31303 -157.88883     298   0.0 Hōkūleʻa
  2021-05-30T02:10:11UTC 2021-05-29T16:10:11-10:00 2021-05-29T15:10:11-11:00  21.31343 -157.88858       0   0.0 Hikianalia
  2021-05-30T01:18:27UTC 2021-05-29T15:18:27-10:00 2021-05-29T14:18:27-11:00  21.31299 -157.88877      99   0.0 Hōkūleʻa
  2021-05-30T01:10:40UTC 2021-05-29T15:10:40-10:00 2021-05-29T14:10:40-11:00  21.31343 -157.88858       0   0.0 Hikianalia
  2021-05-30T00:17:50UTC 2021-05-29T14:17:50-10:00 2021-05-29T13:17:50-11:00  21.31300 -157.88883     180   0.0 Hōkūleʻa
  2021-05-30T00:09:57UTC 2021-05-29T14:09:57-10:00 2021-05-29T13:09:57-11:00  21.31343 -157.88858       0   0.0 Hikianalia
  2021-05-29T23:17:21UTC 2021-05-29T13:17:21-10:00 2021-05-29T12:17:21-11:00  21.31305 -157.88883      30   0.0 Hōkūleʻa
  2021-05-29T23:10:37UTC 2021-05-29T13:10:37-10:00 2021-05-29T12:10:37-11:00  21.31343 -157.88858       0   0.0 Hikianalia
  2021-05-29T22:17:19UTC 2021-05-29T12:17:19-10:00 2021-05-29T11:17:19-11:00  21.31294 -157.88890     227   0.0 Hōkūleʻa
  2021-05-29T22:10:17UTC 2021-05-29T12:10:17-10:00 2021-05-29T11:10:17-11:00  21.31343 -157.88858       0   0.0 Hikianalia
  2021-05-29T21:18:24UTC 2021-05-29T11:18:24-10:00 2021-05-29T10:18:24-11:00  21.31302 -157.88881       0   0.0 Hōkūleʻa
  2021-05-29T21:09:54UTC 2021-05-29T11:09:54-10:00 2021-05-29T10:09:54-11:00  21.31343 -157.88858       0   0.0 Hikianalia
  2021-05-29T20:17:46UTC 2021-05-29T10:17:46-10:00 2021-05-29T09:17:46-11:00  21.31300 -157.88881     138   0.0 Hōkūleʻa
  2021-05-29T20:10:50UTC 2021-05-29T10:10:50-10:00 2021-05-29T09:10:50-11:00  21.31343 -157.88858       0   0.0 Hikianalia
  2021-05-29T19:18:25UTC 2021-05-29T09:18:25-10:00 2021-05-29T08:18:25-11:00  21.31303 -157.88883     270   0.0 Hōkūleʻa
  2021-05-29T19:10:39UTC 2021-05-29T09:10:39-10:00 2021-05-29T08:10:39-11:00  21.31343 -157.88858       0   0.0 Hikianalia
  2021-05-29T18:17:23UTC 2021-05-29T08:17:23-10:00 2021-05-29T07:17:23-11:00  21.31303 -157.88881      42   0.0 Hōkūleʻa
  2021-05-29T18:10:19UTC 2021-05-29T08:10:19-10:00 2021-05-29T07:10:19-11:00  21.31343 -157.88858       0   0.0 Hikianalia
  2021-05-29T17:18:25UTC 2021-05-29T07:18:25-10:00 2021-05-29T06:18:25-11:00  21.31300 -157.88883       0   0.0 Hōkūleʻa
  2021-05-29T17:10:49UTC 2021-05-29T07:10:49-10:00 2021-05-29T06:10:49-11:00  21.31343 -157.88858       0   0.0 Hikianalia
  2021-05-29T16:18:48UTC 2021-05-29T06:18:48-10:00 2021-05-29T05:18:48-11:00  21.31299 -157.88883       0   0.0 Hōkūleʻa
  2021-05-29T16:10:47UTC 2021-05-29T06:10:47-10:00 2021-05-29T05:10:47-11:00  21.31343 -157.88858       0   0.0 Hikianalia
  2021-05-29T15:18:17UTC 2021-05-29T05:18:17-10:00 2021-05-29T04:18:17-11:00  21.31298 -157.88883     223   0.0 Hōkūleʻa
  2021-05-29T15:10:47UTC 2021-05-29T05:10:47-10:00 2021-05-29T04:10:47-11:00  21.31343 -157.88858       0   0.0 Hikianalia
  2021-05-29T14:18:24UTC 2021-05-29T04:18:24-10:00 2021-05-29T03:18:24-11:00  21.31300 -157.88881      32   0.0 Hōkūleʻa
  2021-05-29T14:11:11UTC 2021-05-29T04:11:11-10:00 2021-05-29T03:11:11-11:00  21.31343 -157.88858       0   0.0 Hikianalia
  2021-05-29T13:29:09UTC 2021-05-29T03:29:09-10:00 2021-05-29T02:29:09-11:00  21.31297 -157.88883     180   0.0 Hōkūleʻa
  2021-05-29T13:10:42UTC 2021-05-29T03:10:42-10:00 2021-05-29T02:10:42-11:00  21.31343 -157.88858       0   0.0 Hikianalia
  2021-05-29T12:18:47UTC 2021-05-29T02:18:47-10:00 2021-05-29T01:18:47-11:00  21.31300 -157.88883       0   0.0 Hōkūleʻa
  2021-05-29T12:10:47UTC 2021-05-29T02:10:47-10:00 2021-05-29T01:10:47-11:00  21.31343 -157.88858       0   0.0 Hikianalia
  2021-05-29T11:18:38UTC 2021-05-29T01:18:38-10:00 2021-05-29T00:18:38-11:00  21.31343 -157.88858       0   0.0 Hikianalia
  2021-05-29T11:18:19UTC 2021-05-29T01:18:19-10:00 2021-05-29T00:18:19-11:00  21.31300 -157.88883      76   0.0 Hōkūleʻa
  2021-05-29T10:18:19UTC 2021-05-29T00:18:19-10:00 2021-05-28T23:18:19-11:00  21.31299 -157.88888     280   0.0 Hōkūleʻa
  2021-05-29T10:11:06UTC 2021-05-29T00:11:06-10:00 2021-05-28T23:11:06-11:00  21.31343 -157.88858       0   0.0 Hikianalia
  2021-05-29T09:17:51UTC 2021-05-28T23:17:51-10:00 2021-05-28T22:17:51-11:00  21.31343 -157.88858       0   0.0 Hikianalia
  2021-05-29T09:17:25UTC 2021-05-28T23:17:25-10:00 2021-05-28T22:17:25-11:00  21.31298 -157.88881     137   0.0 Hōkūleʻa
  2021-05-29T08:18:40UTC 2021-05-28T22:18:40-10:00 2021-05-28T21:18:40-11:00  21.31300 -157.88883       0   0.0 Hōkūleʻa
  2021-05-29T08:09:41UTC 2021-05-28T22:09:41-10:00 2021-05-28T21:09:41-11:00  21.31343 -157.88858       0   0.0 Hikianalia
  2021-05-29T07:18:26UTC 2021-05-28T21:18:26-10:00 2021-05-28T20:18:26-11:00  21.31299 -157.88883     180   0.0 Hōkūleʻa
  2021-05-29T07:11:12UTC 2021-05-28T21:11:12-10:00 2021-05-28T20:11:12-11:00  21.31343 -157.88858       0   0.0 Hikianalia
  2021-05-29T06:18:25UTC 2021-05-28T20:18:25-10:00 2021-05-28T19:18:25-11:00  21.31303 -157.88883     299   0.0 Hōkūleʻa
  2021-05-29T06:10:45UTC 2021-05-28T20:10:45-10:00 2021-05-28T19:10:45-11:00  21.31343 -157.88858       7   0.0 Hikianalia
  2021-05-29T05:18:44UTC 2021-05-28T19:18:44-10:00 2021-05-28T18:18:44-11:00  21.31302 -157.88881      90   0.0 Hōkūleʻa
  2021-05-29T05:10:44UTC 2021-05-28T19:10:44-10:00 2021-05-28T18:10:44-11:00  21.31310 -157.88862     185   0.1 Hikianalia
  2021-05-29T04:18:43UTC 2021-05-28T18:18:43-10:00 2021-05-28T17:18:43-11:00  21.31302 -157.88883     270   0.0 Hōkūleʻa
  2021-05-29T04:11:21UTC 2021-05-28T18:11:21-10:00 2021-05-28T17:11:21-11:00  21.31408 -157.88853      25   0.2 Hikianalia
  2021-05-29T03:18:40UTC 2021-05-28T17:18:40-10:00 2021-05-28T16:18:40-11:00  21.31302 -157.88879      90   0.0 Hōkūleʻa
  2021-05-29T03:09:51UTC 2021-05-28T17:09:51-10:00 2021-05-28T16:09:51-11:00  21.31040 -157.89040     211   0.2 Hikianalia
  2021-05-29T02:18:50UTC 2021-05-28T16:18:50-10:00 2021-05-28T15:18:50-11:00  21.31302 -157.88883     180   0.0 Hōkūleʻa
  2021-05-29T02:11:21UTC 2021-05-28T16:11:21-10:00 2021-05-28T15:11:21-11:00  21.31312 -157.88862       0   0.0 Hikianalia
  2021-05-29T01:17:18UTC 2021-05-28T15:17:18-10:00 2021-05-28T14:17:18-11:00  21.31303 -157.88883       0   0.0 Hōkūleʻa
  2021-05-29T01:09:40UTC 2021-05-28T15:09:40-10:00 2021-05-28T14:09:40-11:00  21.31309 -157.88862       0   0.0 Hikianalia
  2021-05-29T00:17:22UTC 2021-05-28T14:17:22-10:00 2021-05-28T13:17:22-11:00  21.31303 -157.88883       0   0.0 Hōkūleʻa
  2021-05-29T00:10:47UTC 2021-05-28T14:10:47-10:00 2021-05-28T13:10:47-11:00  21.31309 -157.88862     221   0.0 Hikianalia
  2021-05-28T23:18:22UTC 2021-05-28T13:18:22-10:00 2021-05-28T12:18:22-11:00  21.31303 -157.88883     270   0.0 Hōkūleʻa
  2021-05-28T23:10:50UTC 2021-05-28T13:10:50-10:00 2021-05-28T12:10:50-11:00  21.31323 -157.88849      46   0.0 Hikianalia
  2021-05-28T22:23:48UTC 2021-05-28T12:23:48-10:00 2021-05-28T11:23:48-11:00  21.31303 -157.88881      90   0.0 Hōkūleʻa
  2021-05-28T22:20:12UTC 2021-05-28T12:20:12-10:00 2021-05-28T11:20:12-11:00  21.31311 -157.88862       0   0.0 Hikianalia
  2021-05-28T21:18:24UTC 2021-05-28T11:18:24-10:00 2021-05-28T10:18:24-11:00  21.31303 -157.88883       0   0.0 Hōkūleʻa
  2021-05-28T21:10:47UTC 2021-05-28T11:10:47-10:00 2021-05-28T10:10:47-11:00  21.31309 -157.88862       0   0.0 Hikianalia
  2021-05-28T20:17:27UTC 2021-05-28T10:17:27-10:00 2021-05-28T09:17:27-11:00  21.31303 -157.88883      75   0.0 Hōkūleʻa
  2021-05-28T20:10:50UTC 2021-05-28T10:10:50-10:00 2021-05-28T09:10:50-11:00  21.31309 -157.88862      98   0.0 Hikianalia
  2021-05-28T19:18:19UTC 2021-05-28T09:18:19-10:00 2021-05-28T08:18:19-11:00  21.31300 -157.88892     255   0.0 Hōkūleʻa
  2021-05-28T19:16:59UTC 2021-05-28T09:16:59-10:00 2021-05-28T08:16:59-11:00  21.31311 -157.88879     274   0.0 Hikianalia
  2021-05-28T18:18:51UTC 2021-05-28T08:18:51-10:00 2021-05-28T07:18:51-11:00  21.31303 -157.88883      61   0.0 Hōkūleʻa
  2021-05-28T18:10:15UTC 2021-05-28T08:10:15-10:00 2021-05-28T07:10:15-11:00  21.31310 -157.88862     294   0.0 Hikianalia
  2021-05-28T17:18:26UTC 2021-05-28T07:18:26-10:00 2021-05-28T06:18:26-11:00  21.31300 -157.88888     335   0.0 Hōkūleʻa
  2021-05-28T17:10:49UTC 2021-05-28T07:10:49-10:00 2021-05-28T06:10:49-11:00  21.31304 -157.88847      98   0.0 Hikianalia
  2021-05-28T16:18:34UTC 2021-05-28T06:18:34-10:00 2021-05-28T05:18:34-11:00  21.31296 -157.88886     198   0.0 Hōkūleʻa
  2021-05-28T16:10:47UTC 2021-05-28T06:10:47-10:00 2021-05-28T05:10:47-11:00  21.31306 -157.88862     180   0.0 Hikianalia
  2021-05-28T15:18:25UTC 2021-05-28T05:18:25-10:00 2021-05-28T04:18:25-11:00  21.31303 -157.88883       0   0.0 Hōkūleʻa
  2021-05-28T15:11:12UTC 2021-05-28T05:11:12-10:00 2021-05-28T04:11:12-11:00  21.31311 -157.88862     148   0.0 Hikianalia
  2021-05-28T14:18:40UTC 2021-05-28T04:18:40-10:00 2021-05-28T03:18:40-11:00  21.31303 -157.88883       0   0.0 Hōkūleʻa
  2021-05-28T14:10:46UTC 2021-05-28T04:10:46-10:00 2021-05-28T03:10:46-11:00  21.31314 -157.88864     299   0.0 Hikianalia
  2021-05-28T13:18:19UTC 2021-05-28T03:18:19-10:00 2021-05-28T02:18:19-11:00  21.31302 -157.88883     180   0.0 Hōkūleʻa
  2021-05-28T13:11:08UTC 2021-05-28T03:11:08-10:00 2021-05-28T02:11:08-11:00  21.31313 -157.88862      90   0.0 Hikianalia
  2021-05-28T12:18:25UTC 2021-05-28T02:18:25-10:00 2021-05-28T01:18:25-11:00  21.31306 -157.88883       0   0.0 Hōkūleʻa
  2021-05-28T12:10:44UTC 2021-05-28T02:10:44-10:00 2021-05-28T01:10:44-11:00  21.31313 -157.88868     292   0.0 Hikianalia
  2021-05-28T11:17:48UTC 2021-05-28T01:17:48-10:00 2021-05-28T00:17:48-11:00  21.31302 -157.88883     289   0.0 Hōkūleʻa
  2021-05-28T11:10:14UTC 2021-05-28T01:10:14-10:00 2021-05-28T00:10:14-11:00  21.31310 -157.88860      44   0.0 Hikianalia
  2021-05-28T10:18:19UTC 2021-05-28T00:18:19-10:00 2021-05-27T23:18:19-11:00  21.31299 -157.88877      90   0.0 Hōkūleʻa
  2021-05-28T10:10:39UTC 2021-05-28T00:10:39-10:00 2021-05-27T23:10:39-11:00  21.31308 -157.88862     180   0.0 Hikianalia
  2021-05-28T09:18:25UTC 2021-05-27T23:18:25-10:00 2021-05-27T22:18:25-11:00  21.31299 -157.88883     223   0.0 Hōkūleʻa
  2021-05-28T09:10:39UTC 2021-05-27T23:10:39-10:00 2021-05-27T22:10:39-11:00  21.31310 -157.88862     180   0.0 Hikianalia
  2021-05-28T08:18:39UTC 2021-05-27T22:18:39-10:00 2021-05-27T21:18:39-11:00  21.31302 -157.88881     128   0.0 Hōkūleʻa
  2021-05-28T08:11:18UTC 2021-05-27T22:11:18-10:00 2021-05-27T21:11:18-11:00  21.31311 -157.88862     109   0.0 Hikianalia
  2021-05-28T07:18:19UTC 2021-05-27T21:18:19-10:00 2021-05-27T20:18:19-11:00  21.31305 -157.88886     316   0.0 Hōkūleʻa
  2021-05-28T07:09:40UTC 2021-05-27T21:09:40-10:00 2021-05-27T20:09:40-11:00  21.31313 -157.88868     285   0.0 Hikianalia
  2021-05-28T06:18:33UTC 2021-05-27T20:18:33-10:00 2021-05-27T19:18:33-11:00  21.31303 -157.88883     270   0.0 Hōkūleʻa
  2021-05-28T06:10:39UTC 2021-05-27T20:10:39-10:00 2021-05-27T19:10:39-11:00  21.31311 -157.88860     118   0.0 Hikianalia
  2021-05-28T05:29:17UTC 2021-05-27T19:29:17-10:00 2021-05-27T18:29:17-11:00  21.31303 -157.88881     128   0.1 Hōkūleʻa
  2021-05-28T05:11:11UTC 2021-05-27T19:11:11-10:00 2021-05-27T18:11:11-11:00  21.31312 -157.88862       0   0.0 Hikianalia
  2021-05-28T04:18:28UTC 2021-05-27T18:18:28-10:00 2021-05-27T17:18:28-11:00  21.31445 -157.89079     309   0.1 Hōkūleʻa
  2021-05-28T04:10:57UTC 2021-05-27T18:10:57-10:00 2021-05-27T17:10:57-11:00  21.31309 -157.88862     236   0.0 Hikianalia
  2021-05-28T03:18:26UTC 2021-05-27T17:18:26-10:00 2021-05-27T16:18:26-11:00  21.31299 -157.88883     180   0.0 Hōkūleʻa
  2021-05-28T03:10:47UTC 2021-05-27T17:10:47-10:00 2021-05-27T16:10:47-11:00  21.31314 -157.88853      78   0.0 Hikianalia
  2021-05-28T02:17:48UTC 2021-05-27T16:17:48-10:00 2021-05-27T15:17:48-11:00  21.31303 -157.88883       0   0.0 Hōkūleʻa
  2021-05-28T02:10:09UTC 2021-05-27T16:10:09-10:00 2021-05-27T15:10:09-11:00  21.31312 -157.88864     116   0.0 Hikianalia
  2021-05-28T01:18:19UTC 2021-05-27T15:18:19-10:00 2021-05-27T14:18:19-11:00  21.31299 -157.88883     242   0.0 Hōkūleʻa
  2021-05-28T01:10:08UTC 2021-05-27T15:10:08-10:00 2021-05-27T14:10:08-11:00  21.31313 -157.88866     317   0.0 Hikianalia
  2021-05-28T00:17:28UTC 2021-05-27T14:17:28-10:00 2021-05-27T13:17:28-11:00  21.31303 -157.88877      62   0.0 Hōkūleʻa
  2021-05-28T00:09:51UTC 2021-05-27T14:09:51-10:00 2021-05-27T13:09:51-11:00  21.31309 -157.88862       0   0.0 Hikianalia
  2021-05-27T23:18:19UTC 2021-05-27T13:18:19-10:00 2021-05-27T12:18:19-11:00  21.31299 -157.88883     147   0.0 Hōkūleʻa
  2021-05-27T23:10:41UTC 2021-05-27T13:10:41-10:00 2021-05-27T12:10:41-11:00  21.31309 -157.88862     180   0.0 Hikianalia
  2021-05-27T22:18:08UTC 2021-05-27T12:18:08-10:00 2021-05-27T11:18:08-11:00  21.31311 -157.88862       0   0.0 Hikianalia
  2021-05-27T22:17:48UTC 2021-05-27T12:17:48-10:00 2021-05-27T11:17:48-11:00  21.31303 -157.88886     227   0.0 Hōkūleʻa
  2021-05-27T21:18:17UTC 2021-05-27T11:18:17-10:00 2021-05-27T10:18:17-11:00  21.31310 -157.88877     128   0.0 Hōkūleʻa
  2021-05-27T21:09:38UTC 2021-05-27T11:09:38-10:00 2021-05-27T10:09:38-11:00  21.31309 -157.88862       0   0.0 Hikianalia
  2021-05-27T20:17:28UTC 2021-05-27T10:17:28-10:00 2021-05-27T09:17:28-11:00  21.31313 -157.88881     352   0.0 Hōkūleʻa
  2021-05-27T20:10:46UTC 2021-05-27T10:10:46-10:00 2021-05-27T09:10:46-11:00  21.31309 -157.88862     193   0.0 Hikianalia
  2021-05-27T19:18:27UTC 2021-05-27T09:18:27-10:00 2021-05-27T08:18:27-11:00  21.31299 -157.88879      74   0.0 Hōkūleʻa
  2021-05-27T19:10:15UTC 2021-05-27T09:10:15-10:00 2021-05-27T08:10:15-11:00  21.31318 -157.88860      15   0.0 Hikianalia
  2021-05-27T18:17:51UTC 2021-05-27T08:17:51-10:00 2021-05-27T07:17:51-11:00  21.31298 -157.88883     270   0.0 Hōkūleʻa
  2021-05-27T18:11:10UTC 2021-05-27T08:11:10-10:00 2021-05-27T07:11:10-11:00  21.31310 -157.88862       0   0.0 Hikianalia
  2021-05-27T17:18:22UTC 2021-05-27T07:18:22-10:00 2021-05-27T06:18:22-11:00  21.31298 -157.88881     148   0.0 Hōkūleʻa
  2021-05-27T17:10:42UTC 2021-05-27T07:10:42-10:00 2021-05-27T06:10:42-11:00  21.31308 -157.88862     180   0.0 Hikianalia
  2021-05-27T16:28:24UTC 2021-05-27T06:28:24-10:00 2021-05-27T05:28:24-11:00  21.31302 -157.88883      37   0.5 Hōkūleʻa
  2021-05-27T16:10:03UTC 2021-05-27T06:10:03-10:00 2021-05-27T05:10:03-11:00  21.31311 -157.88862       0   0.0 Hikianalia
  2021-05-27T15:18:51UTC 2021-05-27T05:18:51-10:00 2021-05-27T04:18:51-11:00  21.30487 -157.89542     313   2.8 Hōkūleʻa
  2021-05-27T15:10:39UTC 2021-05-27T05:10:39-10:00 2021-05-27T04:10:39-11:00  21.31309 -157.88862      13   1.4 Hikianalia
  2021-05-27T14:18:23UTC 2021-05-27T04:18:23-10:00 2021-05-27T03:18:23-11:00  21.27283 -157.85813     299   3.4 Hōkūleʻa
  2021-05-27T14:11:12UTC 2021-05-27T04:11:12-10:00 2021-05-27T03:11:12-11:00  21.29007 -157.89418     305   3.2 Hikianalia
  2021-05-27T13:18:30UTC 2021-05-27T03:18:30-10:00 2021-05-27T02:18:30-11:00  21.24541 -157.80556     252   3.6 Hōkūleʻa
  2021-05-27T13:10:43UTC 2021-05-27T03:10:43-10:00 2021-05-27T02:10:43-11:00  21.25907 -157.84667     283   5.6 Hikianalia
  2021-05-27T12:18:53UTC 2021-05-27T02:18:53-10:00 2021-05-27T01:18:53-11:00  21.26384 -157.74391     290   5.0 Hōkūleʻa
  2021-05-27T12:09:52UTC 2021-05-27T02:09:52-10:00 2021-05-27T01:09:52-11:00  21.23741 -157.74801     281   6.7 Hikianalia
  2021-05-27T11:18:31UTC 2021-05-27T01:18:31-10:00 2021-05-27T00:18:31-11:00  21.23547 -157.65980     295   6.9 Hōkūleʻa
  2021-05-27T11:11:11UTC 2021-05-27T01:11:11-10:00 2021-05-27T00:11:11-11:00  21.21604 -157.63400     290   5.6 Hikianalia
  2021-05-27T10:18:28UTC 2021-05-27T00:18:28-10:00 2021-05-26T23:18:28-11:00  21.18680 -157.54738     297   5.7 Hōkūleʻa
  2021-05-27T10:10:50UTC 2021-05-27T00:10:50-10:00 2021-05-26T23:10:50-11:00  21.18358 -157.53980     297   6.0 Hikianalia
  2021-05-27T09:18:18UTC 2021-05-26T23:18:18-10:00 2021-05-26T23:18:18-10:00  21.14430 -157.45706     297   5.9 Hōkūleʻa
  2021-05-27T09:10:40UTC 2021-05-26T23:10:40-10:00 2021-05-26T23:10:40-10:00  21.13879 -157.44419     297   6.1 Hikianalia
  2021-05-27T06:18:30UTC 2021-05-26T20:18:30-10:00 2021-05-26T20:18:30-10:00  21.00979 -157.17751     294   4.8 Hōkūleʻa
  2021-05-27T06:10:47UTC 2021-05-26T20:10:47-10:00 2021-05-26T20:10:47-10:00  20.99992 -157.15629     297   4.6 Hikianalia
  2021-05-27T05:18:51UTC 2021-05-26T19:18:51-10:00 2021-05-26T19:18:51-10:00  20.97765 -157.10048     340   4.4 Hōkūleʻa
  2021-05-27T05:11:11UTC 2021-05-26T19:11:11-10:00 2021-05-26T19:11:11-10:00  20.96551 -157.08424     338   3.3 Hikianalia
  2021-05-27T04:17:31UTC 2021-05-26T18:17:31-10:00 2021-05-26T18:17:31-10:00  20.90690 -157.07299     247   5.6 Hōkūleʻa
  2021-05-27T04:09:46UTC 2021-05-26T18:09:46-10:00 2021-05-26T18:09:46-10:00  20.91258 -157.06100     251   5.9 Hikianalia
  2021-05-27T03:18:23UTC 2021-05-26T17:18:23-10:00 2021-05-26T17:18:23-10:00  20.94379 -156.98246     285   7.2 Hōkūleʻa
  2021-05-27T03:10:41UTC 2021-05-26T17:10:41-10:00 2021-05-26T17:10:41-10:00  20.94399 -156.96227     288   6.7 Hikianalia
  2021-05-27T02:17:53UTC 2021-05-26T16:17:53-10:00 2021-05-26T16:17:53-10:00  20.91256 -156.85799     290   5.8 Hōkūleʻa
  2021-05-27T02:10:15UTC 2021-05-26T16:10:15-10:00 2021-05-26T16:10:15-10:00  20.90962 -156.84754     288   5.9 Hikianalia
  2021-05-27T01:18:41UTC 2021-05-26T15:18:41-10:00 2021-05-26T15:18:41-10:00  20.87908 -156.76205     284   4.7 Hōkūleʻa
  2021-05-27T01:10:51UTC 2021-05-26T15:10:51-10:00 2021-05-26T15:10:51-10:00  20.87943 -156.74821     290   6.6 Hikianalia
  2021-05-27T00:27:05UTC 2021-05-26T14:27:05-10:00 2021-05-26T14:27:05-10:00  20.85154 -156.66744     318   5.4 Hikianalia
  2021-05-27T00:17:33UTC 2021-05-26T14:17:33-10:00 2021-05-26T14:17:33-10:00  20.86014 -156.67890     317   6.8 Hōkūleʻa
  2021-05-26T23:17:22UTC 2021-05-26T13:17:22-10:00 2021-05-26T13:17:22-10:00  20.77585 -156.59650     318   6.8 Hōkūleʻa
  2021-05-26T23:10:49UTC 2021-05-26T13:10:49-10:00 2021-05-26T13:10:49-10:00  20.76670 -156.58627     320   6.6 Hikianalia
  2021-05-26T22:17:52UTC 2021-05-26T12:17:52-10:00 2021-05-26T12:17:52-10:00  20.69297 -156.51638     330   5.0 Hōkūleʻa
  2021-05-26T22:10:14UTC 2021-05-26T12:10:14-10:00 2021-05-26T12:10:14-10:00  20.68117 -156.50973     321   5.9 Hikianalia
  2021-05-26T21:18:22UTC 2021-05-26T11:18:22-10:00 2021-05-26T11:18:22-10:00  20.62020 -156.47243     310   5.5 Hōkūleʻa
  2021-05-26T21:09:51UTC 2021-05-26T11:09:51-10:00 2021-05-26T11:09:51-10:00  20.60453 -156.44375     307   7.1 Hikianalia
  2021-05-26T20:18:05UTC 2021-05-26T10:18:05-10:00 2021-05-26T10:18:05-10:00  20.56071 -156.39727     306   8.3 Hōkūleʻa
  2021-05-26T20:09:50UTC 2021-05-26T10:09:50-10:00 2021-05-26T10:09:50-10:00  20.53294 -156.34212     302   7.1 Hikianalia
  2021-05-26T19:18:27UTC 2021-05-26T09:18:27-10:00 2021-05-26T09:18:27-10:00  20.48095 -156.27854     309   7.8 Hōkūleʻa
  2021-05-26T19:10:41UTC 2021-05-26T09:10:41-10:00 2021-05-26T09:10:41-10:00  20.47072 -156.23764     311   6.9 Hikianalia
  2021-05-26T18:17:50UTC 2021-05-26T08:17:50-10:00 2021-05-26T08:17:50-10:00  20.39890 -156.16988     312   7.2 Hōkūleʻa
  2021-05-26T18:11:25UTC 2021-05-26T08:11:25-10:00 2021-05-26T08:11:25-10:00  20.39575 -156.14746     319   8.1 Hikianalia
  2021-05-26T17:20:52UTC 2021-05-26T07:20:52-10:00 2021-05-26T07:20:52-10:00  20.30982 -156.06704     314   6.2 Hikianalia
  2021-05-26T17:18:22UTC 2021-05-26T07:18:22-10:00 2021-05-26T07:18:22-10:00  20.31893 -156.07568     314   7.4 Hōkūleʻa
  2021-05-26T16:18:42UTC 2021-05-26T06:18:42-10:00 2021-05-26T06:18:42-10:00  20.23379 -155.98123       4   3.0 Hōkūleʻa
  2021-05-26T16:10:42UTC 2021-05-26T06:10:42-10:00 2021-05-26T06:10:42-10:00  20.22586 -155.97393     355   2.9 Hikianalia
  2021-05-26T12:10:54UTC 2021-05-26T02:10:54-10:00 2021-05-26T02:10:54-10:00  20.03526 -155.95681      40   4.3 Hikianalia
  2021-05-26T11:18:22UTC 2021-05-26T01:18:22-10:00 2021-05-26T01:18:22-10:00  19.98709 -156.00002      32   4.1 Hōkūleʻa
  2021-05-26T11:11:44UTC 2021-05-26T01:11:44-10:00 2021-05-26T01:11:44-10:00  19.98084 -156.00599      30   4.0 Hikianalia
  2021-05-26T10:18:52UTC 2021-05-26T00:18:52-10:00 2021-05-26T00:18:52-10:00  19.92911 -156.03839      26   4.0 Hōkūleʻa
  2021-05-26T10:11:22UTC 2021-05-26T00:11:22-10:00 2021-05-26T00:11:22-10:00  19.92252 -156.04189      24   4.1 Hikianalia
  2021-05-26T09:18:30UTC 2021-05-25T23:18:30-10:00 2021-05-25T23:18:30-10:00  19.86874 -156.06985     360   4.4 Hōkūleʻa
  2021-05-26T09:10:52UTC 2021-05-25T23:10:52-10:00 2021-05-25T23:10:52-10:00  19.85961 -156.07107     358   4.3 Hikianalia
  2021-05-26T08:18:31UTC 2021-05-25T22:18:31-10:00 2021-05-25T22:18:31-10:00  19.79530 -156.06933     358   4.4 Hōkūleʻa
  2021-05-26T08:09:49UTC 2021-05-25T22:09:49-10:00 2021-05-25T22:09:49-10:00  19.78678 -156.06862     356   4.4 Hikianalia
  2021-05-26T07:18:28UTC 2021-05-25T21:18:28-10:00 2021-05-25T21:18:28-10:00  19.72230 -156.06699     342   4.6 Hōkūleʻa
  2021-05-26T07:10:42UTC 2021-05-25T21:10:42-10:00 2021-05-25T21:10:42-10:00  19.71468 -156.06375     342   4.8 Hikianalia
  2021-05-26T06:17:44UTC 2021-05-25T20:17:44-10:00 2021-05-25T20:17:44-10:00  19.64868 -156.04223     327   5.1 Hōkūleʻa
  2021-05-26T06:11:23UTC 2021-05-25T20:11:23-10:00 2021-05-25T20:11:23-10:00  19.63913 -156.03841     326   5.0 Hikianalia
  2021-05-26T05:18:21UTC 2021-05-25T19:18:21-10:00 2021-05-25T19:18:21-10:00  19.57748 -155.99279     341   4.3 Hōkūleʻa
  2021-05-26T05:10:50UTC 2021-05-25T19:10:50-10:00 2021-05-25T19:10:50-10:00  19.56873 -155.98856     339   4.4 Hikianalia
  2021-05-26T04:18:29UTC 2021-05-25T18:18:29-10:00 2021-05-25T18:18:29-10:00  19.50963 -155.96803     328   4.8 Hōkūleʻa
  2021-05-26T04:10:49UTC 2021-05-25T18:10:49-10:00 2021-05-25T18:10:49-10:00  19.49941 -155.96080     331   4.9 Hikianalia
  2021-05-26T03:18:32UTC 2021-05-25T17:18:32-10:00 2021-05-25T17:18:32-10:00  19.44125 -155.92355     346   5.8 Hōkūleʻa
  2021-05-26T03:16:24UTC 2021-05-25T17:16:24-10:00 2021-05-25T17:16:24-10:00  19.43382 -155.92316     348   5.7 Hikianalia
  2021-05-26T02:17:41UTC 2021-05-25T16:17:41-10:00 2021-05-25T16:17:41-10:00  19.34584 -155.89788       3   5.3 Hōkūleʻa
  2021-05-26T02:11:12UTC 2021-05-25T16:11:12-10:00 2021-05-25T16:11:12-10:00  19.33169 -155.90035       1   5.3 Hikianalia
  2021-05-25T23:18:21UTC 2021-05-25T13:18:21-10:00 2021-05-25T13:18:21-10:00  19.07981 -155.91138     348   2.8 Hōkūleʻa
  2021-05-25T23:10:51UTC 2021-05-25T13:10:51-10:00 2021-05-25T13:10:51-10:00  19.06640 -155.90595     330   3.0 Hikianalia
  2021-05-25T22:18:53UTC 2021-05-25T12:18:53-10:00 2021-05-25T12:18:53-10:00  19.03395 -155.90125     314   5.4 Hōkūleʻa
  2021-05-25T22:10:21UTC 2021-05-25T12:10:21-10:00 2021-05-25T12:10:21-10:00  19.02227 -155.87943     317   4.9 Hikianalia
  2021-05-25T21:17:31UTC 2021-05-25T11:17:31-10:00 2021-05-25T11:17:31-10:00  18.96921 -155.83089     339   6.2 Hōkūleʻa
  2021-05-25T21:09:38UTC 2021-05-25T11:09:38-10:00 2021-05-25T11:09:38-10:00  18.96175 -155.81997     338   7.0 Hikianalia
  2021-05-25T20:18:54UTC 2021-05-25T10:18:54-10:00 2021-05-25T10:18:54-10:00  18.87439 -155.79270     333   6.3 Hōkūleʻa
  2021-05-25T20:10:52UTC 2021-05-25T10:10:52-10:00 2021-05-25T10:10:52-10:00  18.85580 -155.77540     326   7.0 Hikianalia
  2021-05-25T19:17:19UTC 2021-05-25T09:17:19-10:00 2021-05-25T09:17:19-10:00  18.77846 -155.74137     331   7.0 Hōkūleʻa
  2021-05-25T19:09:50UTC 2021-05-25T09:09:50-10:00 2021-05-25T09:09:50-10:00  18.75655 -155.70519     336   5.9 Hikianalia
  2021-05-25T18:18:54UTC 2021-05-25T08:18:54-10:00 2021-05-25T08:18:54-10:00  18.67785 -155.68372     335   5.8 Hōkūleʻa
  2021-05-25T18:11:21UTC 2021-05-25T08:11:21-10:00 2021-05-25T08:11:21-10:00  18.66877 -155.66372     341   6.7 Hikianalia
  2021-05-25T17:18:30UTC 2021-05-25T07:18:30-10:00 2021-05-25T07:18:30-10:00  18.58879 -155.63992     330   5.1 Hōkūleʻa
  2021-05-25T17:10:50UTC 2021-05-25T07:10:50-10:00 2021-05-25T07:10:50-10:00  18.56231 -155.62606     332   6.1 Hikianalia
  2021-05-25T16:18:28UTC 2021-05-25T06:18:28-10:00 2021-05-25T06:18:28-10:00  18.51445 -155.59499     333   6.9 Hōkūleʻa
  2021-05-25T16:10:41UTC 2021-05-25T06:10:41-10:00 2021-05-25T06:10:41-10:00  18.47210 -155.57548     337   7.1 Hikianalia
  2021-05-25T15:18:26UTC 2021-05-25T05:18:26-10:00 2021-05-25T05:18:26-10:00  18.41170 -155.53984     342   8.0 Hōkūleʻa
  2021-05-25T15:10:47UTC 2021-05-25T05:10:47-10:00 2021-05-25T05:10:47-10:00  18.36401 -155.52650     340   6.2 Hikianalia
  2021-05-25T14:28:08UTC 2021-05-25T04:28:08-10:00 2021-05-25T04:28:08-10:00  18.30528 -155.50291     342   5.6 Hōkūleʻa
  2021-05-25T14:11:21UTC 2021-05-25T04:11:21-10:00 2021-05-25T04:11:21-10:00  18.26755 -155.48914     344   6.1 Hikianalia
  2021-05-25T13:19:20UTC 2021-05-25T03:19:20-10:00 2021-05-25T03:19:20-10:00  18.20372 -155.46841     348   6.3 Hōkūleʻa
  2021-05-25T13:09:49UTC 2021-05-25T03:09:49-10:00 2021-05-25T03:09:49-10:00  18.16712 -155.45955     349   6.3 Hikianalia
  2021-05-25T12:18:30UTC 2021-05-25T02:18:30-10:00 2021-05-25T02:18:30-10:00  18.09881 -155.44594     354   6.7 Hōkūleʻa
  2021-05-25T12:10:42UTC 2021-05-25T02:10:42-10:00 2021-05-25T02:10:42-10:00  18.06564 -155.43856     357   6.0 Hikianalia
  2021-05-25T11:18:27UTC 2021-05-25T01:18:27-10:00 2021-05-25T01:18:27-10:00  17.98695 -155.43468     343   6.0 Hōkūleʻa
  2021-05-25T11:10:44UTC 2021-05-25T01:10:44-10:00 2021-05-25T01:10:44-10:00  17.96473 -155.43300     341   5.9 Hikianalia
  2021-05-25T10:18:53UTC 2021-05-25T00:18:53-10:00 2021-05-25T00:18:53-10:00  17.89208 -155.40502     343   6.3 Hōkūleʻa
  2021-05-25T10:11:21UTC 2021-05-25T00:11:21-10:00 2021-05-25T00:11:21-10:00  17.87304 -155.39992     343   6.4 Hikianalia
  2021-05-25T09:18:31UTC 2021-05-24T23:18:31-10:00 2021-05-24T23:18:31-10:00  17.79074 -155.37305     336   1.2 Hōkūleʻa
  2021-05-25T09:10:48UTC 2021-05-24T23:10:48-10:00 2021-05-24T23:10:48-10:00  17.76921 -155.36676     153   3.4 Hikianalia
  2021-05-25T08:18:29UTC 2021-05-24T22:18:29-10:00 2021-05-24T22:18:29-10:00  17.77245 -155.36462     149   5.3 Hōkūleʻa
  2021-05-25T08:10:50UTC 2021-05-24T22:10:50-10:00 2021-05-24T22:10:50-10:00  17.82006 -155.39434     152   4.8 Hikianalia
  2021-05-25T07:18:20UTC 2021-05-24T21:18:20-10:00 2021-05-24T21:18:20-10:00  17.84857 -155.41144     151   5.4 Hōkūleʻa
  2021-05-25T07:10:41UTC 2021-05-24T21:10:41-10:00 2021-05-24T21:10:41-10:00  17.89048 -155.43328     149   4.6 Hikianalia
  2021-05-25T06:18:53UTC 2021-05-24T20:18:53-10:00 2021-05-24T20:18:53-10:00  17.92742 -155.45674     150   4.4 Hōkūleʻa
  2021-05-25T06:11:21UTC 2021-05-24T20:11:21-10:00 2021-05-24T20:11:21-10:00  17.95514 -155.47401     156   3.2 Hikianalia
  2021-05-25T05:18:31UTC 2021-05-24T19:18:31-10:00 2021-05-24T19:18:31-10:00  17.99116 -155.49491     181   1.8 Hōkūleʻa
  2021-05-25T05:11:51UTC 2021-05-24T19:11:51-10:00 2021-05-24T19:11:51-10:00  18.00367 -155.49613     177   2.6 Hikianalia
  2021-05-25T04:18:32UTC 2021-05-24T18:18:32-10:00 2021-05-24T18:18:32-10:00  18.02116 -155.49452     158   4.8 Hōkūleʻa
  2021-05-25T04:10:01UTC 2021-05-24T18:10:01-10:00 2021-05-24T18:10:01-10:00  18.04923 -155.49834     166   3.7 Hikianalia
  2021-05-25T03:24:07UTC 2021-05-24T17:24:07-10:00 2021-05-24T17:24:07-10:00  18.08933 -155.52338     171   3.3 Hōkūleʻa
  2021-05-25T03:10:40UTC 2021-05-24T17:10:40-10:00 2021-05-24T17:10:40-10:00  18.10794 -155.51414     162   3.6 Hikianalia
  2021-05-25T02:18:53UTC 2021-05-24T16:18:53-10:00 2021-05-24T16:18:53-10:00  18.14817 -155.53338     165   4.0 Hōkūleʻa
  2021-05-25T02:10:11UTC 2021-05-24T16:10:11-10:00 2021-05-24T16:10:11-10:00  18.16622 -155.53443     166   3.9 Hikianalia
  2021-05-25T01:18:29UTC 2021-05-24T15:18:29-10:00 2021-05-24T15:18:29-10:00  18.21380 -155.55199     165   4.2 Hōkūleʻa
  2021-05-25T01:10:51UTC 2021-05-24T15:10:51-10:00 2021-05-24T15:10:51-10:00  18.22865 -155.55121     165   4.2 Hikianalia
  2021-05-25T00:18:31UTC 2021-05-24T14:18:31-10:00 2021-05-24T14:18:31-10:00  18.28214 -155.57095     176   4.5 Hōkūleʻa
  2021-05-25T00:09:40UTC 2021-05-24T14:09:40-10:00 2021-05-24T14:09:40-10:00  18.29727 -155.56984     177   4.4 Hikianalia
  2021-05-24T23:09:44UTC 2021-05-24T13:09:44-10:00 2021-05-24T13:09:44-10:00  18.37077 -155.57383     180   4.7 Hikianalia
  2021-05-24T22:10:14UTC 2021-05-24T12:10:14-10:00 2021-05-24T12:10:14-10:00  18.44900 -155.57377     170   4.6 Hikianalia
  2021-05-24T21:18:24UTC 2021-05-24T11:18:24-10:00 2021-05-24T11:18:24-10:00  18.50981 -155.58746     173   5.0 Hōkūleʻa
  2021-05-24T21:09:44UTC 2021-05-24T11:09:44-10:00 2021-05-24T11:09:44-10:00  18.52537 -155.58857     173   5.2 Hikianalia
  2021-05-24T20:18:30UTC 2021-05-24T10:18:30-10:00 2021-05-24T10:18:30-10:00  18.59347 -155.59799     175   5.1 Hōkūleʻa
  2021-05-24T20:10:41UTC 2021-05-24T10:10:41-10:00 2021-05-24T10:10:41-10:00  18.61026 -155.59939     178   5.5 Hikianalia
  2021-05-24T19:17:28UTC 2021-05-24T09:17:28-10:00 2021-05-24T09:17:28-10:00  18.68021 -155.60527     173   5.4 Hōkūleʻa
  2021-05-24T19:10:52UTC 2021-05-24T09:10:52-10:00 2021-05-24T09:10:52-10:00  18.70240 -155.60351     170   5.1 Hikianalia
  2021-05-24T18:18:45UTC 2021-05-24T08:18:45-10:00 2021-05-24T08:18:45-10:00  18.76878 -155.61627     165   5.2 Hōkūleʻa
  2021-05-24T18:10:25UTC 2021-05-24T08:10:25-10:00 2021-05-24T08:10:25-10:00  18.78783 -155.61934     160   5.1 Hikianalia
  2021-05-24T17:18:22UTC 2021-05-24T07:18:22-10:00 2021-05-24T07:18:22-10:00  18.85290 -155.64046     145   7.7 Hōkūleʻa
  2021-05-24T17:10:44UTC 2021-05-24T07:10:44-10:00 2021-05-24T07:10:44-10:00  18.86807 -155.65026     146   4.3 Hikianalia
  2021-05-24T16:38:27UTC 2021-05-24T06:38:27-10:00 2021-05-24T06:38:27-10:00  18.92303 -155.69217     161   0.7 Hōkūleʻa
  2021-05-24T16:09:50UTC 2021-05-24T06:09:50-10:00 2021-05-24T06:09:50-10:00  18.92929 -155.69348     118   1.3 Hikianalia
  2021-05-24T15:18:32UTC 2021-05-24T05:18:32-10:00 2021-05-24T05:18:32-10:00  18.93799 -155.69753     118   1.9 Hōkūleʻa
  2021-05-24T15:10:39UTC 2021-05-24T05:10:39-10:00 2021-05-24T05:10:39-10:00  18.93945 -155.71380     123   1.8 Hikianalia
  2021-05-24T14:18:53UTC 2021-05-24T04:18:53-10:00 2021-05-24T04:18:53-10:00  18.95284 -155.72659     113   2.3 Hōkūleʻa
  2021-05-24T14:11:11UTC 2021-05-24T04:11:11-10:00 2021-05-24T04:11:11-10:00  18.95614 -155.74039     113   2.5 Hikianalia
  2021-05-24T13:18:19UTC 2021-05-24T03:18:19-10:00 2021-05-24T03:18:19-10:00  18.96794 -155.76468     117   2.6 Hōkūleʻa
  2021-05-24T13:10:51UTC 2021-05-24T03:10:51-10:00 2021-05-24T03:10:51-10:00  18.97243 -155.78145     115   3.1 Hikianalia
  2021-05-24T12:18:43UTC 2021-05-24T02:18:43-10:00 2021-05-24T02:18:43-10:00  18.98783 -155.80544     119   3.2 Hōkūleʻa
  2021-05-24T12:10:53UTC 2021-05-24T02:10:53-10:00 2021-05-24T02:10:53-10:00  18.99427 -155.83064     124   4.2 Hikianalia
  2021-05-24T11:18:38UTC 2021-05-24T01:18:38-10:00 2021-05-24T01:18:38-10:00  19.01335 -155.85478     129   3.7 Hōkūleʻa
  2021-05-24T11:10:50UTC 2021-05-24T01:10:50-10:00 2021-05-24T01:10:50-10:00  19.03409 -155.89230     148   4.5 Hikianalia
  2021-05-24T10:18:52UTC 2021-05-24T00:18:52-10:00 2021-05-24T00:18:52-10:00  19.05172 -155.90464     175   5.5 Hōkūleʻa
  2021-05-24T10:11:14UTC 2021-05-24T00:11:14-10:00 2021-05-24T00:11:14-10:00  19.09780 -155.93368     179   5.1 Hikianalia
  2021-05-24T07:18:30UTC 2021-05-23T21:18:30-10:00 2021-05-23T21:18:30-10:00  19.32920 -155.92898     166   6.0 Hōkūleʻa
  2021-05-24T07:10:51UTC 2021-05-23T21:10:51-10:00 2021-05-23T21:10:51-10:00  19.35569 -155.93664     165   5.8 Hikianalia
  2021-05-24T06:18:52UTC 2021-05-23T20:18:52-10:00 2021-05-23T20:18:52-10:00  19.42563 -155.95458     171   7.3 Hōkūleʻa
  2021-05-24T06:11:22UTC 2021-05-23T20:11:22-10:00 2021-05-23T20:11:22-10:00  19.44841 -155.96228     174   6.6 Hikianalia
  2021-05-24T05:18:38UTC 2021-05-23T19:18:38-10:00 2021-05-23T19:18:38-10:00  19.54662 -155.97539     198   1.1 Hōkūleʻa
  2021-05-24T05:10:41UTC 2021-05-23T19:10:41-10:00 2021-05-23T19:10:41-10:00  19.55970 -155.97526     240   0.3 Hikianalia
  2021-05-24T04:27:50UTC 2021-05-23T18:27:50-10:00 2021-05-23T18:27:50-10:00  19.56179 -155.97018     148   4.2 Hōkūleʻa
  2021-05-24T04:09:50UTC 2021-05-23T18:09:50-10:00 2021-05-23T18:09:50-10:00  19.56214 -155.97071     143   3.3 Hikianalia
  2021-05-24T03:10:52UTC 2021-05-23T17:10:52-10:00 2021-05-23T17:10:52-10:00  19.60572 -156.00594     153   6.6 Hikianalia
  2021-05-24T02:17:53UTC 2021-05-23T16:17:53-10:00 2021-05-23T16:17:53-10:00  19.69109 -156.05412     168   6.2 Hōkūleʻa
  2021-05-24T02:11:21UTC 2021-05-23T16:11:21-10:00 2021-05-23T16:11:21-10:00  19.70278 -156.05912     169   6.0 Hikianalia
  2021-05-24T01:18:28UTC 2021-05-23T15:18:28-10:00 2021-05-23T15:18:28-10:00  19.79205 -156.07746     163   5.2 Hōkūleʻa
  2021-05-24T01:09:53UTC 2021-05-23T15:09:53-10:00 2021-05-23T15:09:53-10:00  19.80408 -156.08068     161   5.1 Hikianalia
  2021-05-24T00:17:31UTC 2021-05-23T14:17:31-10:00 2021-05-23T14:17:31-10:00  19.87596 -156.10504     148   4.8 Hōkūleʻa
  2021-05-24T00:10:41UTC 2021-05-23T14:10:41-10:00 2021-05-23T14:10:41-10:00  19.88357 -156.10963     147   4.7 Hikianalia
  2021-05-23T23:17:22UTC 2021-05-23T13:17:22-10:00 2021-05-23T13:17:22-10:00  19.94363 -156.15040     150   4.8 Hōkūleʻa
  2021-05-23T23:09:43UTC 2021-05-23T13:09:43-10:00 2021-05-23T13:09:43-10:00  19.95109 -156.15574     150   5.6 Hikianalia
  2021-05-23T22:18:25UTC 2021-05-23T12:18:25-10:00 2021-05-23T12:18:25-10:00  20.02017 -156.19808     152   4.8 Hikianalia
  2021-05-23T22:17:54UTC 2021-05-23T12:17:54-10:00 2021-05-23T12:17:54-10:00  20.01240 -156.19273     152   5.3 Hōkūleʻa
  2021-05-23T21:18:41UTC 2021-05-23T11:18:41-10:00 2021-05-23T11:18:41-10:00  20.08980 -156.23670     150   5.7 Hōkūleʻa
  2021-05-23T21:10:53UTC 2021-05-23T11:10:53-10:00 2021-05-23T11:10:53-10:00  20.10026 -156.24353     150   5.7 Hikianalia
  2021-05-23T20:17:30UTC 2021-05-23T10:17:30-10:00 2021-05-23T10:17:30-10:00  20.17436 -156.28921     153   3.2 Hōkūleʻa
  2021-05-23T20:09:51UTC 2021-05-23T10:09:51-10:00 2021-05-23T10:09:51-10:00  20.18391 -156.29537     132   2.6 Hikianalia
  2021-05-23T19:18:27UTC 2021-05-23T09:18:27-10:00 2021-05-23T09:18:27-10:00  20.22143 -156.31483     146   4.8 Hōkūleʻa
  2021-05-23T19:10:42UTC 2021-05-23T09:10:42-10:00 2021-05-23T09:10:42-10:00  20.21293 -156.32903     156   5.8 Hikianalia
  2021-05-23T18:18:03UTC 2021-05-23T08:18:03-10:00 2021-05-23T08:18:03-10:00  20.28804 -156.36210     167   4.6 Hōkūleʻa
  2021-05-23T18:10:18UTC 2021-05-23T08:10:18-10:00 2021-05-23T08:10:18-10:00  20.30301 -156.37085     165   6.6 Hikianalia
  2021-05-23T17:18:21UTC 2021-05-23T07:18:21-10:00 2021-05-23T07:18:21-10:00  20.36228 -156.38094     171   5.2 Hōkūleʻa
  2021-05-23T17:10:43UTC 2021-05-23T07:10:43-10:00 2021-05-23T07:10:43-10:00  20.40977 -156.40055     170   3.7 Hikianalia
  2021-05-23T16:18:26UTC 2021-05-23T06:18:26-10:00 2021-05-23T06:18:26-10:00  20.44752 -156.39551     152   5.5 Hōkūleʻa
  2021-05-23T16:11:43UTC 2021-05-23T06:11:43-10:00 2021-05-23T06:11:43-10:00  20.46947 -156.41130     161   4.0 Hikianalia
  2021-05-23T15:18:24UTC 2021-05-23T05:18:24-10:00 2021-05-23T05:18:24-10:00  20.52794 -156.44169     181   2.4 Hōkūleʻa
  2021-05-23T15:10:51UTC 2021-05-23T05:10:51-10:00 2021-05-23T05:10:51-10:00  20.53442 -156.43443     170   2.3 Hikianalia
  2021-05-23T14:18:43UTC 2021-05-23T04:18:43-10:00 2021-05-23T04:18:43-10:00  20.56816 -156.44068     167   2.5 Hōkūleʻa
  2021-05-23T14:11:19UTC 2021-05-23T04:11:19-10:00 2021-05-23T04:11:19-10:00  20.57236 -156.44171     166   2.5 Hikianalia
  2021-05-23T13:18:29UTC 2021-05-23T03:18:29-10:00 2021-05-23T03:18:29-10:00  20.60847 -156.45083     150   4.0 Hōkūleʻa
  2021-05-23T13:09:51UTC 2021-05-23T03:09:51-10:00 2021-05-23T03:09:51-10:00  20.61410 -156.45295     148   4.2 Hikianalia
  2021-05-23T12:18:27UTC 2021-05-23T02:18:27-10:00 2021-05-23T02:18:27-10:00  20.66678 -156.48703     148   4.5 Hōkūleʻa
  2021-05-23T12:10:44UTC 2021-05-23T02:10:44-10:00 2021-05-23T02:10:44-10:00  20.67357 -156.49177     148   4.5 Hikianalia
  2021-05-23T11:18:22UTC 2021-05-23T01:18:22-10:00 2021-05-23T01:18:22-10:00  20.73064 -156.53014     128   5.0 Hōkūleʻa
  2021-05-23T11:11:18UTC 2021-05-23T01:11:18-10:00 2021-05-23T01:11:18-10:00  20.73728 -156.53428     125   5.1 Hikianalia
  2021-05-23T10:18:54UTC 2021-05-23T00:18:54-10:00 2021-05-23T00:18:54-10:00  20.78153 -156.59974     131   4.8 Hōkūleʻa
  2021-05-23T10:10:44UTC 2021-05-23T00:10:44-10:00 2021-05-23T00:10:44-10:00  20.78723 -156.60961     134   5.1 Hikianalia
  2021-05-23T09:18:26UTC 2021-05-22T23:18:26-10:00 2021-05-22T23:18:26-10:00  20.83521 -156.66506     155   2.5 Hōkūleʻa
  2021-05-23T09:10:49UTC 2021-05-22T23:10:49-10:00 2021-05-22T23:10:49-10:00  20.84724 -156.67482     161   1.5 Hikianalia
  2021-05-23T08:18:27UTC 2021-05-22T22:18:27-10:00 2021-05-22T22:18:27-10:00  20.87261 -156.68360       0   0.0 Hōkūleʻa
  2021-05-23T08:11:13UTC 2021-05-22T22:11:13-10:00 2021-05-22T22:11:13-10:00  20.87156 -156.68349       0   0.0 Hikianalia
  2021-05-23T07:18:27UTC 2021-05-22T21:18:27-10:00 2021-05-22T21:18:27-10:00  20.87261 -156.68360       0   0.0 Hōkūleʻa
  2021-05-23T07:10:39UTC 2021-05-22T21:10:39-10:00 2021-05-22T21:10:39-10:00  20.87156 -156.68349       0   0.0 Hikianalia
  2021-05-23T06:27:17UTC 2021-05-22T20:27:17-10:00 2021-05-22T20:27:17-10:00  20.87261 -156.68360       0   0.0 Hōkūleʻa
  2021-05-23T06:10:47UTC 2021-05-22T20:10:47-10:00 2021-05-22T20:10:47-10:00  20.87156 -156.68349       0   0.0 Hikianalia
  2021-05-23T05:17:20UTC 2021-05-22T19:17:20-10:00 2021-05-22T19:17:20-10:00  20.87261 -156.68360       0   0.0 Hōkūleʻa
  2021-05-23T05:10:45UTC 2021-05-22T19:10:45-10:00 2021-05-22T19:10:45-10:00  20.87156 -156.68349      94   0.0 Hikianalia
  2021-05-23T04:18:28UTC 2021-05-22T18:18:28-10:00 2021-05-22T18:18:28-10:00  20.87261 -156.68360       0   0.0 Hōkūleʻa
  2021-05-23T04:11:18UTC 2021-05-22T18:11:18-10:00 2021-05-22T18:11:18-10:00  20.87157 -156.68366     274   0.0 Hikianalia
  2021-05-23T03:18:40UTC 2021-05-22T17:18:40-10:00 2021-05-22T17:18:40-10:00  20.87261 -156.68360       0   0.0 Hōkūleʻa
  2021-05-23T03:09:53UTC 2021-05-22T17:09:53-10:00 2021-05-22T17:09:53-10:00  20.87156 -156.68349       0   0.0 Hikianalia
  2021-05-23T02:18:47UTC 2021-05-22T16:18:47-10:00 2021-05-22T16:18:47-10:00  20.87261 -156.68360       0   0.0 Hōkūleʻa
  2021-05-23T02:11:04UTC 2021-05-22T16:11:04-10:00 2021-05-22T16:11:04-10:00  20.87156 -156.68349     114   0.0 Hikianalia
  2021-05-23T01:17:28UTC 2021-05-22T15:17:28-10:00 2021-05-22T15:17:28-10:00  20.87261 -156.68360       0   0.0 Hōkūleʻa
  2021-05-23T01:10:16UTC 2021-05-22T15:10:16-10:00 2021-05-22T15:10:16-10:00  20.87161 -156.68362     245   0.0 Hikianalia
  2021-05-23T00:18:26UTC 2021-05-22T14:18:26-10:00 2021-05-22T14:18:26-10:00  20.87261 -156.68360       0   0.0 Hōkūleʻa
  2021-05-23T00:10:47UTC 2021-05-22T14:10:47-10:00 2021-05-22T14:10:47-10:00  20.87167 -156.68347      11   0.0 Hikianalia
  2021-05-22T23:18:27UTC 2021-05-22T13:18:27-10:00 2021-05-22T13:18:27-10:00  20.87261 -156.68360       0   0.0 Hōkūleʻa
  2021-05-22T23:10:44UTC 2021-05-22T13:10:44-10:00 2021-05-22T13:10:44-10:00  20.87157 -156.68349       0   0.0 Hikianalia
  2021-05-22T22:17:50UTC 2021-05-22T12:17:50-10:00 2021-05-22T12:17:50-10:00  20.87261 -156.68360       0   0.0 Hōkūleʻa
  2021-05-22T22:10:19UTC 2021-05-22T12:10:19-10:00 2021-05-22T12:10:19-10:00  20.87156 -156.68349       0   0.0 Hikianalia
  2021-05-22T21:26:01UTC 2021-05-22T11:26:01-10:00 2021-05-22T11:26:01-10:00  20.87156 -156.68349       0   0.0 Hikianalia
  2021-05-22T21:17:27UTC 2021-05-22T11:17:27-10:00 2021-05-22T11:17:27-10:00  20.87261 -156.68360       0   0.0 Hōkūleʻa
  2021-05-22T20:18:24UTC 2021-05-22T10:18:24-10:00 2021-05-22T10:18:24-10:00  20.87261 -156.68360       0   0.0 Hōkūleʻa
  2021-05-22T20:10:48UTC 2021-05-22T10:10:48-10:00 2021-05-22T10:10:48-10:00  20.87156 -156.68349      10   0.0 Hikianalia
  2021-05-22T19:17:21UTC 2021-05-22T09:17:21-10:00 2021-05-22T09:17:21-10:00  20.87261 -156.68360       0   0.0 Hōkūleʻa
  2021-05-22T19:09:40UTC 2021-05-22T09:09:40-10:00 2021-05-22T09:09:40-10:00  20.87145 -156.68351     190   0.0 Hikianalia
  2021-05-22T18:18:50UTC 2021-05-22T08:18:50-10:00 2021-05-22T08:18:50-10:00  20.87261 -156.68360       0   0.0 Hōkūleʻa
  2021-05-22T18:11:15UTC 2021-05-22T08:11:15-10:00 2021-05-22T08:11:15-10:00  20.87156 -156.68349       0   0.0 Hikianalia
  2021-05-22T17:18:28UTC 2021-05-22T07:18:28-10:00 2021-05-22T07:18:28-10:00  20.87261 -156.68360       0   0.0 Hōkūleʻa
  2021-05-22T17:10:46UTC 2021-05-22T07:10:46-10:00 2021-05-22T07:10:46-10:00  20.87156 -156.68349       0   0.0 Hikianalia
  2021-05-22T16:19:29UTC 2021-05-22T06:19:29-10:00 2021-05-22T06:19:29-10:00  20.87261 -156.68360       0   0.0 Hōkūleʻa
  2021-05-22T16:10:48UTC 2021-05-22T06:10:48-10:00 2021-05-22T06:10:48-10:00  20.87156 -156.68349       0   0.0 Hikianalia
  2021-05-22T15:18:31UTC 2021-05-22T05:18:31-10:00 2021-05-22T05:18:31-10:00  20.87261 -156.68360       0   0.0 Hōkūleʻa
  2021-05-22T15:10:50UTC 2021-05-22T05:10:50-10:00 2021-05-22T05:10:50-10:00  20.87156 -156.68349       0   0.0 Hikianalia
  2021-05-22T14:28:05UTC 2021-05-22T04:28:05-10:00 2021-05-22T04:28:05-10:00  20.87261 -156.68360       0   0.0 Hōkūleʻa
  2021-05-22T14:10:18UTC 2021-05-22T04:10:18-10:00 2021-05-22T04:10:18-10:00  20.87156 -156.68349       0   0.0 Hikianalia
  2021-05-22T13:18:27UTC 2021-05-22T03:18:27-10:00 2021-05-22T03:18:27-10:00  20.87261 -156.68360       0   0.0 Hōkūleʻa
  2021-05-22T13:10:41UTC 2021-05-22T03:10:41-10:00 2021-05-22T03:10:41-10:00  20.87156 -156.68349       0   0.0 Hikianalia
  2021-05-22T12:18:25UTC 2021-05-22T02:18:25-10:00 2021-05-22T02:18:25-10:00  20.87261 -156.68360       0   0.0 Hōkūleʻa
  2021-05-22T12:10:45UTC 2021-05-22T02:10:45-10:00 2021-05-22T02:10:45-10:00  20.87156 -156.68349       0   0.0 Hikianalia
  2021-05-22T11:21:24UTC 2021-05-22T01:21:24-10:00 2021-05-22T01:21:24-10:00  20.87156 -156.68349       0   0.0 Hikianalia
  2021-05-22T11:18:25UTC 2021-05-22T01:18:25-10:00 2021-05-22T01:18:25-10:00  20.87261 -156.68360       0   0.0 Hōkūleʻa
  2021-05-22T10:18:50UTC 2021-05-22T00:18:50-10:00 2021-05-22T00:18:50-10:00  20.87261 -156.68360       0   0.0 Hōkūleʻa
  2021-05-22T10:11:17UTC 2021-05-22T00:11:17-10:00 2021-05-22T00:11:17-10:00  20.87156 -156.68349       0   0.0 Hikianalia
  2021-05-22T09:18:26UTC 2021-05-21T23:18:26-10:00 2021-05-21T23:18:26-10:00  20.87261 -156.68360       0   0.0 Hōkūleʻa
  2021-05-22T09:10:40UTC 2021-05-21T23:10:40-10:00 2021-05-21T23:10:40-10:00  20.87156 -156.68349       0   0.0 Hikianalia
  2021-05-22T08:18:29UTC 2021-05-21T22:18:29-10:00 2021-05-21T22:18:29-10:00  20.87261 -156.68360       0   0.0 Hōkūleʻa
  2021-05-22T08:10:46UTC 2021-05-21T22:10:46-10:00 2021-05-21T22:10:46-10:00  20.87156 -156.68349       0   0.0 Hikianalia
  2021-05-22T07:18:19UTC 2021-05-21T21:18:19-10:00 2021-05-21T21:18:19-10:00  20.87261 -156.68360       0   0.0 Hōkūleʻa
  2021-05-22T07:10:38UTC 2021-05-21T21:10:38-10:00 2021-05-21T21:10:38-10:00  20.87156 -156.68349       0   0.0 Hikianalia
  2021-05-22T06:18:49UTC 2021-05-21T20:18:49-10:00 2021-05-21T20:18:49-10:00  20.87261 -156.68360       0   0.0 Hōkūleʻa
  2021-05-22T06:11:18UTC 2021-05-21T20:11:18-10:00 2021-05-21T20:11:18-10:00  20.87156 -156.68349       0   0.0 Hikianalia
  2021-05-22T05:25:25UTC 2021-05-21T19:25:25-10:00 2021-05-21T19:25:25-10:00  20.87261 -156.68360       0   0.0 Hōkūleʻa
  2021-05-22T05:09:49UTC 2021-05-21T19:09:49-10:00 2021-05-21T19:09:49-10:00  20.87156 -156.68349       0   0.0 Hikianalia
  2021-05-22T04:18:38UTC 2021-05-21T18:18:38-10:00 2021-05-21T18:18:38-10:00  20.87261 -156.68360       0   0.0 Hōkūleʻa
  2021-05-22T04:11:06UTC 2021-05-21T18:11:06-10:00 2021-05-21T18:11:06-10:00  20.87156 -156.68349       0   0.0 Hikianalia
  2021-05-22T03:17:30UTC 2021-05-21T17:17:30-10:00 2021-05-21T17:17:30-10:00  20.87261 -156.68360       0   0.0 Hōkūleʻa
  2021-05-22T03:11:17UTC 2021-05-21T17:11:17-10:00 2021-05-21T17:11:17-10:00  20.87156 -156.68349      79   0.0 Hikianalia
  2021-05-22T02:18:40UTC 2021-05-21T16:18:40-10:00 2021-05-21T16:18:40-10:00  20.87261 -156.68360       0   0.0 Hōkūleʻa
  2021-05-22T02:09:44UTC 2021-05-21T16:09:44-10:00 2021-05-21T16:09:44-10:00  20.87152 -156.68366     180   0.0 Hikianalia
  2021-05-22T01:18:27UTC 2021-05-21T15:18:27-10:00 2021-05-21T15:18:27-10:00  20.87261 -156.68360       0   0.0 Hōkūleʻa
  2021-05-22T01:10:48UTC 2021-05-21T15:10:48-10:00 2021-05-21T15:10:48-10:00  20.87161 -156.68366     285   0.0 Hikianalia
  2021-05-22T00:17:28UTC 2021-05-21T14:17:28-10:00 2021-05-21T14:17:28-10:00  20.87261 -156.68360       0   0.0 Hōkūleʻa
  2021-05-22T00:10:19UTC 2021-05-21T14:10:19-10:00 2021-05-21T14:10:19-10:00  20.87159 -156.68358      18   0.0 Hikianalia
  2021-05-21T23:18:24UTC 2021-05-21T13:18:24-10:00 2021-05-21T13:18:24-10:00  20.87261 -156.68360       0   0.0 Hōkūleʻa
  2021-05-21T23:10:45UTC 2021-05-21T13:10:45-10:00 2021-05-21T13:10:45-10:00  20.87152 -156.68360     270   0.0 Hikianalia
  2021-05-21T22:17:47UTC 2021-05-21T12:17:47-10:00 2021-05-21T12:17:47-10:00  20.87261 -156.68360       0   0.0 Hōkūleʻa
  2021-05-21T22:10:17UTC 2021-05-21T12:10:17-10:00 2021-05-21T12:10:17-10:00  20.87152 -156.68334       0   0.0 Hikianalia
  2021-05-21T21:17:17UTC 2021-05-21T11:17:17-10:00 2021-05-21T11:17:17-10:00  20.87261 -156.68360       0   0.0 Hōkūleʻa
  2021-05-21T21:10:10UTC 2021-05-21T11:10:10-10:00 2021-05-21T11:10:10-10:00  20.87147 -156.68334     121   0.0 Hikianalia
  2021-05-21T20:18:23UTC 2021-05-21T10:18:23-10:00 2021-05-21T10:18:23-10:00  20.87261 -156.68360       0   0.0 Hōkūleʻa
  2021-05-21T20:09:43UTC 2021-05-21T10:09:43-10:00 2021-05-21T10:09:43-10:00  20.87156 -156.68349     312   0.0 Hikianalia
  2021-05-21T19:17:19UTC 2021-05-21T09:17:19-10:00 2021-05-21T09:17:19-10:00  20.87261 -156.68360       0   0.0 Hōkūleʻa
  2021-05-21T19:10:48UTC 2021-05-21T09:10:48-10:00 2021-05-21T09:10:48-10:00  20.87143 -156.68334      72   0.0 Hikianalia
  2021-05-21T18:29:25UTC 2021-05-21T08:29:25-10:00 2021-05-21T08:29:25-10:00  20.87261 -156.68360       0   0.0 Hōkūleʻa
  2021-05-21T18:10:14UTC 2021-05-21T08:10:14-10:00 2021-05-21T08:10:14-10:00  20.87137 -156.68351     153   0.0 Hikianalia
  2021-05-21T17:18:20UTC 2021-05-21T07:18:20-10:00 2021-05-21T07:18:20-10:00  20.87261 -156.68360       0   0.0 Hōkūleʻa
  2021-05-21T17:10:44UTC 2021-05-21T07:10:44-10:00 2021-05-21T07:10:44-10:00  20.87153 -156.68360     258   0.0 Hikianalia
  2021-05-21T16:17:28UTC 2021-05-21T06:17:28-10:00 2021-05-21T06:17:28-10:00  20.87261 -156.68360       0   0.0 Hōkūleʻa
  2021-05-21T16:10:50UTC 2021-05-21T06:10:50-10:00 2021-05-21T06:10:50-10:00  20.87156 -156.68349       0   0.0 Hikianalia
  2021-05-21T15:18:17UTC 2021-05-21T05:18:17-10:00 2021-05-21T05:18:17-10:00  20.87261 -156.68360       0   0.0 Hōkūleʻa
  2021-05-21T15:10:09UTC 2021-05-21T05:10:09-10:00 2021-05-21T05:10:09-10:00  20.87156 -156.68349       0   0.0 Hikianalia
  2021-05-21T14:18:45UTC 2021-05-21T04:18:45-10:00 2021-05-21T04:18:45-10:00  20.87261 -156.68360       0   0.0 Hōkūleʻa
  2021-05-21T14:11:43UTC 2021-05-21T04:11:43-10:00 2021-05-21T04:11:43-10:00  20.87156 -156.68349       0   0.0 Hikianalia
  2021-05-21T13:18:19UTC 2021-05-21T03:18:19-10:00 2021-05-21T03:18:19-10:00  20.87261 -156.68360       0   0.0 Hōkūleʻa
  2021-05-21T13:10:48UTC 2021-05-21T03:10:48-10:00 2021-05-21T03:10:48-10:00  20.87156 -156.68349       0   0.0 Hikianalia
  2021-05-21T12:18:24UTC 2021-05-21T02:18:24-10:00 2021-05-21T02:18:24-10:00  20.87261 -156.68360       0   0.0 Hōkūleʻa
  2021-05-21T12:11:18UTC 2021-05-21T02:11:18-10:00 2021-05-21T02:11:18-10:00  20.87156 -156.68349       0   0.0 Hikianalia
  2021-05-21T11:18:30UTC 2021-05-21T01:18:30-10:00 2021-05-21T01:18:30-10:00  20.87261 -156.68360       0   0.0 Hōkūleʻa
  2021-05-21T11:10:50UTC 2021-05-21T01:10:50-10:00 2021-05-21T01:10:50-10:00  20.87156 -156.68349       0   0.0 Hikianalia
  2021-05-21T10:18:50UTC 2021-05-21T00:18:50-10:00 2021-05-21T00:18:50-10:00  20.87261 -156.68360       0   0.0 Hōkūleʻa
  2021-05-21T10:09:48UTC 2021-05-21T00:09:48-10:00 2021-05-21T00:09:48-10:00  20.87156 -156.68349       0   0.0 Hikianalia
  2021-05-21T09:18:16UTC 2021-05-20T23:18:16-10:00 2021-05-20T23:18:16-10:00  20.87261 -156.68360       0   0.0 Hōkūleʻa
  2021-05-21T09:11:07UTC 2021-05-20T23:11:07-10:00 2021-05-20T23:11:07-10:00  20.87156 -156.68349       0   0.0 Hikianalia
  2021-05-21T08:19:38UTC 2021-05-20T22:19:38-10:00 2021-05-20T22:19:38-10:00  20.87261 -156.68360     312   0.1 Hōkūleʻa
  2021-05-21T08:10:39UTC 2021-05-20T22:10:39-10:00 2021-05-20T22:10:39-10:00  20.87156 -156.68349       0   0.0 Hikianalia
  2021-05-21T07:18:39UTC 2021-05-20T21:18:39-10:00 2021-05-20T21:18:39-10:00  20.87194 -156.68283     139   0.1 Hōkūleʻa
  2021-05-21T07:10:39UTC 2021-05-20T21:10:39-10:00 2021-05-20T21:10:39-10:00  20.87156 -156.68349       0   0.0 Hikianalia
  2021-05-21T06:18:54UTC 2021-05-20T20:18:54-10:00 2021-05-20T20:18:54-10:00  20.87299 -156.68382     114   0.2 Hōkūleʻa
  2021-05-21T06:10:17UTC 2021-05-20T20:10:17-10:00 2021-05-20T20:10:17-10:00  20.87156 -156.68349      62   0.0 Hikianalia
  2021-05-21T05:24:23UTC 2021-05-20T19:24:23-10:00 2021-05-20T19:24:23-10:00  20.87448 -156.68731     294   0.2 Hōkūleʻa
  2021-05-21T05:10:38UTC 2021-05-20T19:10:38-10:00 2021-05-20T19:10:38-10:00  20.87152 -156.68356     100   0.0 Hikianalia
  2021-05-21T04:26:56UTC 2021-05-20T18:26:56-10:00 2021-05-20T18:26:56-10:00  20.87310 -156.68403       0   0.0 Hōkūleʻa
  2021-05-21T04:11:08UTC 2021-05-20T18:11:08-10:00 2021-05-20T18:11:08-10:00  20.87155 -156.68369     180   0.0 Hikianalia
  2021-05-21T03:18:27UTC 2021-05-20T17:18:27-10:00 2021-05-20T17:18:27-10:00  20.87310 -156.68403     114   0.0 Hōkūleʻa
  2021-05-21T03:10:18UTC 2021-05-20T17:10:18-10:00 2021-05-20T17:10:18-10:00  20.87159 -156.68369     280   0.0 Hikianalia
  2021-05-21T02:17:39UTC 2021-05-20T16:17:39-10:00 2021-05-20T16:17:39-10:00  20.87317 -156.68418     294   0.0 Hōkūleʻa
  2021-05-21T02:10:44UTC 2021-05-20T16:10:44-10:00 2021-05-20T16:10:44-10:00  20.87156 -156.68349       0   0.0 Hikianalia
  2021-05-21T01:18:28UTC 2021-05-20T15:18:28-10:00 2021-05-20T15:18:28-10:00  20.87310 -156.68403       0   0.0 Hōkūleʻa
  2021-05-21T01:09:48UTC 2021-05-20T15:09:48-10:00 2021-05-20T15:09:48-10:00  20.87156 -156.68349       0   0.0 Hikianalia
  2021-05-21T00:18:27UTC 2021-05-20T14:18:27-10:00 2021-05-20T14:18:27-10:00  20.87310 -156.68403       0   0.0 Hōkūleʻa
  2021-05-21T00:10:18UTC 2021-05-20T14:10:18-10:00 2021-05-20T14:10:18-10:00  20.87156 -156.68349       0   0.0 Hikianalia
  2021-05-20T23:17:27UTC 2021-05-20T13:17:27-10:00 2021-05-20T13:17:27-10:00  20.87310 -156.68403      99   0.0 Hōkūleʻa
  2021-05-20T23:10:09UTC 2021-05-20T13:10:09-10:00 2021-05-20T13:10:09-10:00  20.87156 -156.68349     112   0.0 Hikianalia
  2021-05-20T22:17:46UTC 2021-05-20T12:17:46-10:00 2021-05-20T12:17:46-10:00  20.87313 -156.68424     336   0.0 Hōkūleʻa
  2021-05-20T22:10:09UTC 2021-05-20T12:10:09-10:00 2021-05-20T12:10:09-10:00  20.87162 -156.68366     292   0.0 Hikianalia
  2021-05-20T21:18:27UTC 2021-05-20T11:18:27-10:00 2021-05-20T11:18:27-10:00  20.87299 -156.68418     233   0.0 Hōkūleʻa
  2021-05-20T21:09:47UTC 2021-05-20T11:09:47-10:00 2021-05-20T11:09:47-10:00  20.87156 -156.68349       0   0.0 Hikianalia
  2021-05-20T20:18:29UTC 2021-05-20T10:18:29-10:00 2021-05-20T10:18:29-10:00  20.87310 -156.68403      90   0.0 Hōkūleʻa
  2021-05-20T20:09:54UTC 2021-05-20T10:09:54-10:00 2021-05-20T10:09:54-10:00  20.87156 -156.68349      90   0.0 Hikianalia
  2021-05-20T19:26:32UTC 2021-05-20T09:26:32-10:00 2021-05-20T09:26:32-10:00  20.87310 -156.68424     270   0.0 Hōkūleʻa
  2021-05-20T19:10:39UTC 2021-05-20T09:10:39-10:00 2021-05-20T09:10:39-10:00  20.87156 -156.68366     270   0.0 Hikianalia
  2021-05-20T18:18:41UTC 2021-05-20T08:18:41-10:00 2021-05-20T08:18:41-10:00  20.87310 -156.68403       0   0.0 Hōkūleʻa
  2021-05-20T18:10:12UTC 2021-05-20T08:10:12-10:00 2021-05-20T08:10:12-10:00  20.87156 -156.68349       0   0.0 Hikianalia
  2021-05-20T17:27:15UTC 2021-05-20T07:27:15-10:00 2021-05-20T07:27:15-10:00  20.87310 -156.68403       0   0.0 Hōkūleʻa
  2021-05-20T17:10:46UTC 2021-05-20T07:10:46-10:00 2021-05-20T07:10:46-10:00  20.87156 -156.68349       0   0.0 Hikianalia
  2021-05-20T16:18:24UTC 2021-05-20T06:18:24-10:00 2021-05-20T06:18:24-10:00  20.87310 -156.68403       0   0.0 Hōkūleʻa
  2021-05-20T16:10:40UTC 2021-05-20T06:10:40-10:00 2021-05-20T06:10:40-10:00  20.87156 -156.68349       0   0.0 Hikianalia
  2021-05-20T15:21:59UTC 2021-05-20T05:21:59-10:00 2021-05-20T05:21:59-10:00  20.87156 -156.68349       0   0.0 Hikianalia
  2021-05-20T15:18:50UTC 2021-05-20T05:18:50-10:00 2021-05-20T05:18:50-10:00  20.87310 -156.68403       0   0.0 Hōkūleʻa
  2021-05-20T14:18:16UTC 2021-05-20T04:18:16-10:00 2021-05-20T04:18:16-10:00  20.87310 -156.68403       0   0.0 Hōkūleʻa
  2021-05-20T14:11:11UTC 2021-05-20T04:11:11-10:00 2021-05-20T04:11:11-10:00  20.87156 -156.68349       0   0.0 Hikianalia
  2021-05-20T13:18:26UTC 2021-05-20T03:18:26-10:00 2021-05-20T03:18:26-10:00  20.87310 -156.68403       0   0.0 Hōkūleʻa
  2021-05-20T13:11:16UTC 2021-05-20T03:11:16-10:00 2021-05-20T03:11:16-10:00  20.87156 -156.68349       0   0.0 Hikianalia
  2021-05-20T12:18:47UTC 2021-05-20T02:18:47-10:00 2021-05-20T02:18:47-10:00  20.87310 -156.68403       0   0.0 Hōkūleʻa
  2021-05-20T12:10:47UTC 2021-05-20T02:10:47-10:00 2021-05-20T02:10:47-10:00  20.87156 -156.68349       0   0.0 Hikianalia
  2021-05-20T11:18:15UTC 2021-05-20T01:18:15-10:00 2021-05-20T01:18:15-10:00  20.87310 -156.68403       0   0.0 Hōkūleʻa
  2021-05-20T11:10:41UTC 2021-05-20T01:10:41-10:00 2021-05-20T01:10:41-10:00  20.87156 -156.68349       0   0.0 Hikianalia
  2021-05-20T10:18:28UTC 2021-05-20T00:18:28-10:00 2021-05-20T00:18:28-10:00  20.87310 -156.68403       0   0.0 Hōkūleʻa
  2021-05-20T10:11:15UTC 2021-05-20T00:11:15-10:00 2021-05-20T00:11:15-10:00  20.87156 -156.68349       0   0.0 Hikianalia
  2021-05-20T09:17:24UTC 2021-05-19T23:17:24-10:00 2021-05-19T23:17:24-10:00  20.87310 -156.68403       0   0.0 Hōkūleʻa
  2021-05-20T09:10:50UTC 2021-05-19T23:10:50-10:00 2021-05-19T23:10:50-10:00  20.87156 -156.68349       0   0.0 Hikianalia
  2021-05-20T08:18:40UTC 2021-05-19T22:18:40-10:00 2021-05-19T22:18:40-10:00  20.87310 -156.68403       0   0.0 Hōkūleʻa
  2021-05-20T08:10:44UTC 2021-05-19T22:10:44-10:00 2021-05-19T22:10:44-10:00  20.87156 -156.68349       0   0.0 Hikianalia
  2021-05-20T07:18:26UTC 2021-05-19T21:18:26-10:00 2021-05-19T21:18:26-10:00  20.87310 -156.68403       0   0.0 Hōkūleʻa
  2021-05-20T07:09:48UTC 2021-05-19T21:09:48-10:00 2021-05-19T21:09:48-10:00  20.87156 -156.68349       0   0.0 Hikianalia
  2021-05-20T06:18:17UTC 2021-05-19T20:18:17-10:00 2021-05-19T20:18:17-10:00  20.87310 -156.68403      90   0.0 Hōkūleʻa
  2021-05-20T06:11:11UTC 2021-05-19T20:11:11-10:00 2021-05-19T20:11:11-10:00  20.87156 -156.68349     101   0.0 Hikianalia
  2021-05-20T05:17:21UTC 2021-05-19T19:17:21-10:00 2021-05-19T19:17:21-10:00  20.87310 -156.68422     281   0.0 Hōkūleʻa
  2021-05-20T05:10:52UTC 2021-05-19T19:10:52-10:00 2021-05-19T19:10:52-10:00  20.87159 -156.68366     287   0.0 Hikianalia
  2021-05-20T04:18:45UTC 2021-05-19T18:18:45-10:00 2021-05-19T18:18:45-10:00  20.87304 -156.68388     127   0.0 Hōkūleʻa
  2021-05-20T04:10:50UTC 2021-05-19T18:10:50-10:00 2021-05-19T18:10:50-10:00  20.87148 -156.68330     121   0.0 Hikianalia
  2021-05-20T03:18:33UTC 2021-05-19T17:18:33-10:00 2021-05-19T17:18:33-10:00  20.87314 -156.68403     136   3.0 Hōkūleʻa
  2021-05-20T03:10:48UTC 2021-05-19T17:10:48-10:00 2021-05-19T17:10:48-10:00  20.87159 -156.68349     139   3.5 Hikianalia
  2021-05-20T02:18:30UTC 2021-05-19T16:18:30-10:00 2021-05-19T16:18:30-10:00  20.91009 -156.72147     125   3.0 Hōkūleʻa
  2021-05-20T02:10:23UTC 2021-05-19T16:10:23-10:00 2021-05-19T16:10:23-10:00  20.91602 -156.72501      54   0.5 Hikianalia
  2021-05-20T01:17:51UTC 2021-05-19T15:17:51-10:00 2021-05-19T15:17:51-10:00  20.93959 -156.76591     348   0.4 Hōkūleʻa
  2021-05-20T01:09:46UTC 2021-05-19T15:09:46-10:00 2021-05-19T15:09:46-10:00  20.91063 -156.73295     138   3.9 Hikianalia
  2021-05-20T00:18:18UTC 2021-05-19T14:18:18-10:00 2021-05-19T14:18:18-10:00  20.93238 -156.76426     175   2.4 Hōkūleʻa
  2021-05-20T00:10:39UTC 2021-05-19T14:10:39-10:00 2021-05-19T14:10:39-10:00  20.95804 -156.77834     244   1.8 Hikianalia
  2021-05-19T23:19:17UTC 2021-05-19T13:19:17-10:00 2021-05-19T13:19:17-10:00  20.96889 -156.75424     320   3.1 Hikianalia
  2021-05-19T23:17:29UTC 2021-05-19T13:17:29-10:00 2021-05-19T13:17:29-10:00  20.97233 -156.76817     315   3.8 Hōkūleʻa
  2021-05-19T22:17:45UTC 2021-05-19T12:17:45-10:00 2021-05-19T12:17:45-10:00  20.92670 -156.72040     328   3.8 Hōkūleʻa
  2021-05-19T22:10:50UTC 2021-05-19T12:10:50-10:00 2021-05-19T12:10:50-10:00  20.92328 -156.71420     331   3.5 Hikianalia
  2021-05-19T21:17:27UTC 2021-05-19T11:17:27-10:00 2021-05-19T11:17:27-10:00  20.87217 -156.68401       0   0.0 Hōkūleʻa
  2021-05-19T21:09:46UTC 2021-05-19T11:09:46-10:00 2021-05-19T11:09:46-10:00  20.87167 -156.68364       0   0.0 Hikianalia
  2021-05-19T20:18:20UTC 2021-05-19T10:18:20-10:00 2021-05-19T10:18:20-10:00  20.87217 -156.68401       0   0.0 Hōkūleʻa
  2021-05-19T20:10:16UTC 2021-05-19T10:10:16-10:00 2021-05-19T10:10:16-10:00  20.87167 -156.68364       0   0.0 Hikianalia
  2021-05-19T19:17:27UTC 2021-05-19T09:17:27-10:00 2021-05-19T09:17:27-10:00  20.87217 -156.68401       0   0.0 Hōkūleʻa
  2021-05-19T19:09:42UTC 2021-05-19T09:09:42-10:00 2021-05-19T09:09:42-10:00  20.87167 -156.68364       0   0.0 Hikianalia
  2021-05-19T18:18:47UTC 2021-05-19T08:18:47-10:00 2021-05-19T08:18:47-10:00  20.87217 -156.68401       0   0.0 Hōkūleʻa
  2021-05-19T18:11:11UTC 2021-05-19T08:11:11-10:00 2021-05-19T08:11:11-10:00  20.87167 -156.68364       0   0.0 Hikianalia
  2021-05-19T17:18:27UTC 2021-05-19T07:18:27-10:00 2021-05-19T07:18:27-10:00  20.87217 -156.68401       0   0.0 Hōkūleʻa
  2021-05-19T17:11:12UTC 2021-05-19T07:11:12-10:00 2021-05-19T07:11:12-10:00  20.87167 -156.68364       0   0.0 Hikianalia
  2021-05-19T16:18:19UTC 2021-05-19T06:18:19-10:00 2021-05-19T06:18:19-10:00  20.87217 -156.68401       0   0.0 Hōkūleʻa
  2021-05-19T16:10:39UTC 2021-05-19T06:10:39-10:00 2021-05-19T06:10:39-10:00  20.87167 -156.68364       0   0.0 Hikianalia
  2021-05-19T15:18:27UTC 2021-05-19T05:18:27-10:00 2021-05-19T05:18:27-10:00  20.87217 -156.68401       0   0.0 Hōkūleʻa
  2021-05-19T15:10:49UTC 2021-05-19T05:10:49-10:00 2021-05-19T05:10:49-10:00  20.87167 -156.68364       0   0.0 Hikianalia
  2021-05-19T14:18:46UTC 2021-05-19T04:18:46-10:00 2021-05-19T04:18:46-10:00  20.87217 -156.68401       0   0.0 Hōkūleʻa
  2021-05-19T14:10:21UTC 2021-05-19T04:10:21-10:00 2021-05-19T04:10:21-10:00  20.87167 -156.68364       0   0.0 Hikianalia
  2021-05-19T13:18:24UTC 2021-05-19T03:18:24-10:00 2021-05-19T03:18:24-10:00  20.87217 -156.68401       0   0.0 Hōkūleʻa
  2021-05-19T13:10:40UTC 2021-05-19T03:10:40-10:00 2021-05-19T03:10:40-10:00  20.87167 -156.68364       0   0.0 Hikianalia
  2021-05-19T12:18:22UTC 2021-05-19T02:18:22-10:00 2021-05-19T02:18:22-10:00  20.87217 -156.68401       0   0.0 Hōkūleʻa
  2021-05-19T12:10:46UTC 2021-05-19T02:10:46-10:00 2021-05-19T02:10:46-10:00  20.87167 -156.68364       0   0.0 Hikianalia
  2021-05-19T11:27:11UTC 2021-05-19T01:27:11-10:00 2021-05-19T01:27:11-10:00  20.87217 -156.68401       0   0.0 Hōkūleʻa
  2021-05-19T11:10:47UTC 2021-05-19T01:10:47-10:00 2021-05-19T01:10:47-10:00  20.87167 -156.68364       0   0.0 Hikianalia
  2021-05-19T10:18:38UTC 2021-05-19T00:18:38-10:00 2021-05-19T00:18:38-10:00  20.87217 -156.68401       0   0.0 Hōkūleʻa
  2021-05-19T10:11:14UTC 2021-05-19T00:11:14-10:00 2021-05-19T00:11:14-10:00  20.87167 -156.68364       0   0.0 Hikianalia
  2021-05-19T09:18:29UTC 2021-05-18T23:18:29-10:00 2021-05-18T23:18:29-10:00  20.87217 -156.68401       0   0.0 Hōkūleʻa
  2021-05-19T09:10:38UTC 2021-05-18T23:10:38-10:00 2021-05-18T23:10:38-10:00  20.87167 -156.68364       0   0.0 Hikianalia
  2021-05-19T08:18:22UTC 2021-05-18T22:18:22-10:00 2021-05-18T22:18:22-10:00  20.87217 -156.68401       0   0.0 Hōkūleʻa
  2021-05-19T08:10:37UTC 2021-05-18T22:10:37-10:00 2021-05-18T22:10:37-10:00  20.87167 -156.68364       0   0.0 Hikianalia
  2021-05-19T07:17:19UTC 2021-05-18T21:17:19-10:00 2021-05-18T21:17:19-10:00  20.87217 -156.68401       0   0.0 Hōkūleʻa
  2021-05-19T07:10:16UTC 2021-05-18T21:10:16-10:00 2021-05-18T21:10:16-10:00  20.87167 -156.68364       0   0.0 Hikianalia
  2021-05-19T06:18:42UTC 2021-05-18T20:18:42-10:00 2021-05-18T20:18:42-10:00  20.87217 -156.68401       0   0.0 Hōkūleʻa
  2021-05-19T06:11:09UTC 2021-05-18T20:11:09-10:00 2021-05-18T20:11:09-10:00  20.87167 -156.68364       0   0.0 Hikianalia
  2021-05-19T05:18:24UTC 2021-05-18T19:18:24-10:00 2021-05-18T19:18:24-10:00  20.87217 -156.68401       0   0.0 Hōkūleʻa
  2021-05-19T05:11:16UTC 2021-05-18T19:11:16-10:00 2021-05-18T19:11:16-10:00  20.87167 -156.68364       0   0.0 Hikianalia
  2021-05-19T04:18:37UTC 2021-05-18T18:18:37-10:00 2021-05-18T18:18:37-10:00  20.87217 -156.68401       0   0.0 Hōkūleʻa
  2021-05-19T04:10:49UTC 2021-05-18T18:10:49-10:00 2021-05-18T18:10:49-10:00  20.87167 -156.68364       0   0.0 Hikianalia
  2021-05-19T03:18:41UTC 2021-05-18T17:18:41-10:00 2021-05-18T17:18:41-10:00  20.87217 -156.68401       0   0.0 Hōkūleʻa
  2021-05-19T03:10:49UTC 2021-05-18T17:10:49-10:00 2021-05-18T17:10:49-10:00  20.87167 -156.68364       0   0.0 Hikianalia
  2021-05-19T02:17:48UTC 2021-05-18T16:17:48-10:00 2021-05-18T16:17:48-10:00  20.87217 -156.68401       0   0.0 Hōkūleʻa
  2021-05-19T02:10:10UTC 2021-05-18T16:10:10-10:00 2021-05-18T16:10:10-10:00  20.87167 -156.68364     338   0.0 Hikianalia
  2021-05-19T01:18:27UTC 2021-05-18T15:18:27-10:00 2021-05-18T15:18:27-10:00  20.87217 -156.68401       0   0.0 Hōkūleʻa
  2021-05-19T01:10:48UTC 2021-05-18T15:10:48-10:00 2021-05-18T15:10:48-10:00  20.87152 -156.68358     158   0.0 Hikianalia
  2021-05-19T00:17:22UTC 2021-05-18T14:17:22-10:00 2021-05-18T14:17:22-10:00  20.87217 -156.68401       0   0.0 Hōkūleʻa
  2021-05-19T00:10:47UTC 2021-05-18T14:10:47-10:00 2021-05-18T14:10:47-10:00  20.87167 -156.68364     313   0.0 Hikianalia
  2021-05-18T23:18:29UTC 2021-05-18T13:18:29-10:00 2021-05-18T13:18:29-10:00  20.87217 -156.68401       0   0.0 Hōkūleʻa
  2021-05-18T23:09:45UTC 2021-05-18T13:09:45-10:00 2021-05-18T13:09:45-10:00  20.87160 -156.68356     137   0.0 Hikianalia
  2021-05-18T22:18:08UTC 2021-05-18T12:18:08-10:00 2021-05-18T12:18:08-10:00  20.87217 -156.68401       0   0.0 Hōkūleʻa
  2021-05-18T22:10:15UTC 2021-05-18T12:10:15-10:00 2021-05-18T12:10:15-10:00  20.87162 -156.68358      98   0.0 Hikianalia
  2021-05-18T21:17:31UTC 2021-05-18T11:17:31-10:00 2021-05-18T11:17:31-10:00  20.87217 -156.68401       0   0.0 Hōkūleʻa
  2021-05-18T21:10:47UTC 2021-05-18T11:10:47-10:00 2021-05-18T11:10:47-10:00  20.87163 -156.68366     205   0.0 Hikianalia
  2021-05-18T20:17:19UTC 2021-05-18T10:17:19-10:00 2021-05-18T10:17:19-10:00  20.87217 -156.68401       0   0.0 Hōkūleʻa
  2021-05-18T20:09:43UTC 2021-05-18T10:09:43-10:00 2021-05-18T10:09:43-10:00  20.87167 -156.68364       0   0.0 Hikianalia
  2021-05-18T19:26:07UTC 2021-05-18T09:26:07-10:00 2021-05-18T09:26:07-10:00  20.87217 -156.68401       0   0.0 Hōkūleʻa
  2021-05-18T19:11:23UTC 2021-05-18T09:11:23-10:00 2021-05-18T09:11:23-10:00  20.87167 -156.68364       0   0.0 Hikianalia
  2021-05-18T18:18:18UTC 2021-05-18T08:18:18-10:00 2021-05-18T08:18:18-10:00  20.87217 -156.68401       0   0.0 Hōkūleʻa
  2021-05-18T18:10:21UTC 2021-05-18T08:10:21-10:00 2021-05-18T08:10:21-10:00  20.87167 -156.68364       0   0.0 Hikianalia
  2021-05-18T17:18:21UTC 2021-05-18T07:18:21-10:00 2021-05-18T07:18:21-10:00  20.87217 -156.68401       0   0.0 Hōkūleʻa
  2021-05-18T17:10:44UTC 2021-05-18T07:10:44-10:00 2021-05-18T07:10:44-10:00  20.87167 -156.68364       0   0.0 Hikianalia
  2021-05-18T16:18:25UTC 2021-05-18T06:18:25-10:00 2021-05-18T06:18:25-10:00  20.87217 -156.68401       0   0.0 Hōkūleʻa
  2021-05-18T16:10:49UTC 2021-05-18T06:10:49-10:00 2021-05-18T06:10:49-10:00  20.87167 -156.68364       0   0.0 Hikianalia
  2021-05-18T15:18:26UTC 2021-05-18T05:18:26-10:00 2021-05-18T05:18:26-10:00  20.87217 -156.68401       0   0.0 Hōkūleʻa
  2021-05-18T15:11:15UTC 2021-05-18T05:11:15-10:00 2021-05-18T05:11:15-10:00  20.87167 -156.68364       0   0.0 Hikianalia
  2021-05-18T14:18:41UTC 2021-05-18T04:18:41-10:00 2021-05-18T04:18:41-10:00  20.87217 -156.68401       0   0.0 Hōkūleʻa
  2021-05-18T14:10:37UTC 2021-05-18T04:10:37-10:00 2021-05-18T04:10:37-10:00  20.87167 -156.68364       0   0.0 Hikianalia
  2021-05-18T13:18:28UTC 2021-05-18T03:18:28-10:00 2021-05-18T03:18:28-10:00  20.87217 -156.68401       0   0.0 Hōkūleʻa
  2021-05-18T13:10:47UTC 2021-05-18T03:10:47-10:00 2021-05-18T03:10:47-10:00  20.87167 -156.68364       0   0.0 Hikianalia
  2021-05-18T12:18:25UTC 2021-05-18T02:18:25-10:00 2021-05-18T02:18:25-10:00  20.87217 -156.68401       0   0.0 Hōkūleʻa
  2021-05-18T12:10:19UTC 2021-05-18T02:10:19-10:00 2021-05-18T02:10:19-10:00  20.87167 -156.68364       0   0.0 Hikianalia
  2021-05-18T11:18:24UTC 2021-05-18T01:18:24-10:00 2021-05-18T01:18:24-10:00  20.87217 -156.68401       0   0.0 Hōkūleʻa
  2021-05-18T11:11:07UTC 2021-05-18T01:11:07-10:00 2021-05-18T01:11:07-10:00  20.87167 -156.68364       0   0.0 Hikianalia
  2021-05-18T10:18:47UTC 2021-05-18T00:18:47-10:00 2021-05-18T00:18:47-10:00  20.87217 -156.68401       0   0.0 Hōkūleʻa
  2021-05-18T10:10:47UTC 2021-05-18T00:10:47-10:00 2021-05-18T00:10:47-10:00  20.87167 -156.68364       0   0.0 Hikianalia
  2021-05-18T09:18:31UTC 2021-05-17T23:18:31-10:00 2021-05-17T23:18:31-10:00  20.87217 -156.68401       0   0.0 Hōkūleʻa
  2021-05-18T09:10:38UTC 2021-05-17T23:10:38-10:00 2021-05-17T23:10:38-10:00  20.87167 -156.68364       0   0.0 Hikianalia
  2021-05-18T08:18:30UTC 2021-05-17T22:18:30-10:00 2021-05-17T22:18:30-10:00  20.87217 -156.68401     260   0.0 Hōkūleʻa
  2021-05-18T08:11:18UTC 2021-05-17T22:11:18-10:00 2021-05-17T22:11:18-10:00  20.87167 -156.68364       0   0.0 Hikianalia
  2021-05-18T07:18:29UTC 2021-05-17T21:18:29-10:00 2021-05-17T21:18:29-10:00  20.87218 -156.68394     149   0.0 Hōkūleʻa
  2021-05-18T07:10:49UTC 2021-05-17T21:10:49-10:00 2021-05-17T21:10:49-10:00  20.87167 -156.68364       0   0.0 Hikianalia
  2021-05-18T06:17:43UTC 2021-05-17T20:17:43-10:00 2021-05-17T20:17:43-10:00  20.87288 -156.68439     298   0.2 Hōkūleʻa
  2021-05-18T06:10:47UTC 2021-05-17T20:10:47-10:00 2021-05-17T20:10:47-10:00  20.87167 -156.68364       0   0.0 Hikianalia
  2021-05-18T05:18:21UTC 2021-05-17T19:18:21-10:00 2021-05-17T19:18:21-10:00  20.87121 -156.68103     115   0.2 Hōkūleʻa
  2021-05-18T05:11:18UTC 2021-05-17T19:11:18-10:00 2021-05-17T19:11:18-10:00  20.87167 -156.68364       0   0.0 Hikianalia
  2021-05-18T04:18:29UTC 2021-05-17T18:18:29-10:00 2021-05-17T18:18:29-10:00  20.87269 -156.68437       0   0.0 Hōkūleʻa
  2021-05-18T04:11:07UTC 2021-05-17T18:11:07-10:00 2021-05-17T18:11:07-10:00  20.87167 -156.68364       0   0.0 Hikianalia
  2021-05-18T03:18:26UTC 2021-05-17T17:18:26-10:00 2021-05-17T17:18:26-10:00  20.87269 -156.68437       0   0.0 Hōkūleʻa
  2021-05-18T03:10:18UTC 2021-05-17T17:10:18-10:00 2021-05-17T17:10:18-10:00  20.87167 -156.68364     169   0.0 Hikianalia
  2021-05-18T02:17:39UTC 2021-05-17T16:17:39-10:00 2021-05-17T16:17:39-10:00  20.87269 -156.68437       0   0.0 Hōkūleʻa
  2021-05-18T02:10:41UTC 2021-05-17T16:10:41-10:00 2021-05-17T16:10:41-10:00  20.87198 -156.68371     314   0.0 Hikianalia
  2021-05-18T01:18:26UTC 2021-05-17T15:18:26-10:00 2021-05-17T15:18:26-10:00  20.87269 -156.68437       0   0.0 Hōkūleʻa
  2021-05-18T01:09:49UTC 2021-05-17T15:09:49-10:00 2021-05-17T15:09:49-10:00  20.87169 -156.68338     324   4.6 Hikianalia
  2021-05-18T00:17:25UTC 2021-05-17T14:17:25-10:00 2021-05-17T14:17:25-10:00  20.87269 -156.68437       0   0.0 Hōkūleʻa
  2021-05-18T00:10:12UTC 2021-05-17T14:10:12-10:00 2021-05-17T14:10:12-10:00  20.81025 -156.63513     292   1.1 Hikianalia
  2021-05-17T23:17:28UTC 2021-05-17T13:17:28-10:00 2021-05-17T13:17:28-10:00  20.87269 -156.68437       0   0.0 Hōkūleʻa
  2021-05-17T23:10:52UTC 2021-05-17T13:10:52-10:00 2021-05-17T13:10:52-10:00  20.80332 -156.61665      39   0.0 Hikianalia
  2021-05-17T22:17:41UTC 2021-05-17T12:17:41-10:00 2021-05-17T12:17:41-10:00  20.87269 -156.68437       0   0.0 Hōkūleʻa
  2021-05-17T22:09:42UTC 2021-05-17T12:09:42-10:00 2021-05-17T12:09:42-10:00  20.80307 -156.61687      60   0.2 Hikianalia
  2021-05-17T21:25:04UTC 2021-05-17T11:25:04-10:00 2021-05-17T11:25:04-10:00  20.87269 -156.68437       0   0.0 Hōkūleʻa
  2021-05-17T21:10:48UTC 2021-05-17T11:10:48-10:00 2021-05-17T11:10:48-10:00  20.80144 -156.61983     139   5.5 Hikianalia
  2021-05-17T20:18:28UTC 2021-05-17T10:18:28-10:00 2021-05-17T10:18:28-10:00  20.87269 -156.68437       0   0.0 Hōkūleʻa
  2021-05-17T20:10:19UTC 2021-05-17T10:10:19-10:00 2021-05-17T10:10:19-10:00  20.87159 -156.68360      46   0.0 Hikianalia
  2021-05-17T19:17:24UTC 2021-05-17T09:17:24-10:00 2021-05-17T09:17:24-10:00  20.87269 -156.68437       0   0.0 Hōkūleʻa
  2021-05-17T19:09:47UTC 2021-05-17T09:09:47-10:00 2021-05-17T09:09:47-10:00  20.87147 -156.68373       0   0.0 Hikianalia
  2021-05-17T18:18:50UTC 2021-05-17T08:18:50-10:00 2021-05-17T08:18:50-10:00  20.87269 -156.68437       0   0.0 Hōkūleʻa
  2021-05-17T18:10:47UTC 2021-05-17T08:10:47-10:00 2021-05-17T08:10:47-10:00  20.87147 -156.68373       0   0.0 Hikianalia
  2021-05-17T17:29:12UTC 2021-05-17T07:29:12-10:00 2021-05-17T07:29:12-10:00  20.87269 -156.68437       0   0.0 Hōkūleʻa
  2021-05-17T17:10:47UTC 2021-05-17T07:10:47-10:00 2021-05-17T07:10:47-10:00  20.87147 -156.68373      55   0.0 Hikianalia
  2021-05-17T16:18:27UTC 2021-05-17T06:18:27-10:00 2021-05-17T06:18:27-10:00  20.87269 -156.68437       0   0.0 Hōkūleʻa
  2021-05-17T16:11:09UTC 2021-05-17T06:11:09-10:00 2021-05-17T06:11:09-10:00  20.87137 -156.68388     235   0.0 Hikianalia
  2021-05-17T15:18:22UTC 2021-05-17T05:18:22-10:00 2021-05-17T05:18:22-10:00  20.87269 -156.68437       0   0.0 Hōkūleʻa
  2021-05-17T15:10:47UTC 2021-05-17T05:10:47-10:00 2021-05-17T05:10:47-10:00  20.87147 -156.68373       0   0.0 Hikianalia
  2021-05-17T14:18:48UTC 2021-05-17T04:18:48-10:00 2021-05-17T04:18:48-10:00  20.87269 -156.68437       0   0.0 Hōkūleʻa
  2021-05-17T14:10:40UTC 2021-05-17T04:10:40-10:00 2021-05-17T04:10:40-10:00  20.87147 -156.68373       0   0.0 Hikianalia
  2021-05-17T13:18:26UTC 2021-05-17T03:18:26-10:00 2021-05-17T03:18:26-10:00  20.87269 -156.68437     170   0.0 Hōkūleʻa
  2021-05-17T13:10:14UTC 2021-05-17T03:10:14-10:00 2021-05-17T03:10:14-10:00  20.87147 -156.68373       0   0.0 Hikianalia
  2021-05-17T12:18:27UTC 2021-05-17T02:18:27-10:00 2021-05-17T02:18:27-10:00  20.87281 -156.68439     350   0.0 Hōkūleʻa
  2021-05-17T12:10:39UTC 2021-05-17T02:10:39-10:00 2021-05-17T02:10:39-10:00  20.87147 -156.68373       0   0.0 Hikianalia
  2021-05-17T11:18:23UTC 2021-05-17T01:18:23-10:00 2021-05-17T01:18:23-10:00  20.87269 -156.68437       0   0.0 Hōkūleʻa
  2021-05-17T11:10:53UTC 2021-05-17T01:10:53-10:00 2021-05-17T01:10:53-10:00  20.87147 -156.68373     270   0.0 Hikianalia
  2021-05-17T10:18:38UTC 2021-05-17T00:18:38-10:00 2021-05-17T00:18:38-10:00  20.87269 -156.68437       0   0.0 Hōkūleʻa
  2021-05-17T10:11:08UTC 2021-05-17T00:11:08-10:00 2021-05-17T00:11:08-10:00  20.87147 -156.68360      90   0.0 Hikianalia
  2021-05-17T09:18:18UTC 2021-05-16T23:18:18-10:00 2021-05-16T23:18:18-10:00  20.87269 -156.68437     218   0.0 Hōkūleʻa
  2021-05-17T09:10:49UTC 2021-05-16T23:10:49-10:00 2021-05-16T23:10:49-10:00  20.87147 -156.68373       0   0.0 Hikianalia
  2021-05-17T08:18:25UTC 2021-05-16T22:18:25-10:00 2021-05-16T22:18:25-10:00  20.87282 -156.68427      38   0.0 Hōkūleʻa
  2021-05-17T08:10:44UTC 2021-05-16T22:10:44-10:00 2021-05-16T22:10:44-10:00  20.87147 -156.68373       0   0.0 Hikianalia
  2021-05-17T07:17:25UTC 2021-05-16T21:17:25-10:00 2021-05-16T21:17:25-10:00  20.87269 -156.68437       0   0.0 Hōkūleʻa
  2021-05-17T07:10:40UTC 2021-05-16T21:10:40-10:00 2021-05-16T21:10:40-10:00  20.87147 -156.68373     345   0.0 Hikianalia
  2021-05-17T06:18:40UTC 2021-05-16T20:18:40-10:00 2021-05-16T20:18:40-10:00  20.87269 -156.68437     172   0.0 Hōkūleʻa
  2021-05-17T06:10:20UTC 2021-05-16T20:10:20-10:00 2021-05-16T20:10:20-10:00  20.87139 -156.68371     165   0.0 Hikianalia
  2021-05-17T05:18:40UTC 2021-05-16T19:18:40-10:00 2021-05-16T19:18:40-10:00  20.87283 -156.68439     352   0.0 Hōkūleʻa
  2021-05-17T05:10:37UTC 2021-05-16T19:10:37-10:00 2021-05-16T19:10:37-10:00  20.87147 -156.68373       0   0.0 Hikianalia
  2021-05-17T04:18:29UTC 2021-05-16T18:18:29-10:00 2021-05-16T18:18:29-10:00  20.87269 -156.68437     345   0.0 Hōkūleʻa
  2021-05-17T04:10:48UTC 2021-05-16T18:10:48-10:00 2021-05-16T18:10:48-10:00  20.87147 -156.68373       0   0.0 Hikianalia
  2021-05-17T03:18:27UTC 2021-05-16T17:18:27-10:00 2021-05-16T17:18:27-10:00  20.87254 -156.68433     167   0.0 Hōkūleʻa
  2021-05-17T03:10:48UTC 2021-05-16T17:10:48-10:00 2021-05-16T17:10:48-10:00  20.87147 -156.68373      90   0.0 Hikianalia
  2021-05-17T02:17:40UTC 2021-05-16T16:17:40-10:00 2021-05-16T16:17:40-10:00  20.87271 -156.68437       0   0.0 Hōkūleʻa
  2021-05-17T02:10:18UTC 2021-05-16T16:10:18-10:00 2021-05-16T16:10:18-10:00  20.87147 -156.68384     270   0.0 Hikianalia
  2021-05-17T01:34:25UTC 2021-05-16T15:34:25-10:00 2021-05-16T15:34:25-10:00  20.87269 -156.68437       0   0.0 Hōkūleʻa
  2021-05-17T01:10:48UTC 2021-05-16T15:10:48-10:00 2021-05-16T15:10:48-10:00  20.87147 -156.68373     212   0.0 Hikianalia
  2021-05-17T00:17:16UTC 2021-05-16T14:17:16-10:00 2021-05-16T14:17:16-10:00  20.87269 -156.68437       0   0.0 Hōkūleʻa
  2021-05-17T00:10:10UTC 2021-05-16T14:10:10-10:00 2021-05-16T14:10:10-10:00  20.87157 -156.68366